<?xml version="1.0" encoding="UTF-8" standalone="no" ?>
<gpx xmlns="http://www.topografix.com/GPX/1/1" xmlns:xsi="http://www.w3.org/2001/XMLSchema-instance" xsi:schemaLocation="http://www.topografix.com/GPX/1/1 http://www.topografix.com/GPX/1/1/gpx.xsd" version="1.1" creator="VisuGPX - https://www.visugpx.com">
  <metadata>
    <name>12033592-Tour des Alpes </name>
  </metadata>
  <trk>
    <name><![CDATA[12033592-Tour des Alpes ]]></name>
    <trkseg>
      <trkpt lat="45.76002" lon="4.82556">
        <ele>188</ele>
        <time>2020-09-14T13:56:38Z</time>
      </trkpt>
      <trkpt lat="45.76027" lon="4.82555">
        <ele>188</ele>
        <time>2020-09-14T13:56:42Z</time>
      </trkpt>
      <trkpt lat="45.76027" lon="4.82656">
        <ele>180</ele>
        <time>2020-09-14T13:56:55Z</time>
      </trkpt>
      <trkpt lat="45.76014" lon="4.82663">
        <ele>181</ele>
        <time>2020-09-14T13:56:57Z</time>
      </trkpt>
      <trkpt lat="45.76001" lon="4.82658">
        <ele>181</ele>
        <time>2020-09-14T13:57:00Z</time>
      </trkpt>
      <trkpt lat="45.75979" lon="4.8273">
        <ele>176</ele>
        <time>2020-09-14T13:57:10Z</time>
      </trkpt>
      <trkpt lat="45.75965" lon="4.82786">
        <ele>171</ele>
        <time>2020-09-14T13:57:17Z</time>
      </trkpt>
      <trkpt lat="45.75964" lon="4.82793">
        <ele>170</ele>
        <time>2020-09-14T13:57:18Z</time>
      </trkpt>
      <trkpt lat="45.75963" lon="4.82797">
        <ele>170</ele>
        <time>2020-09-14T13:57:18Z</time>
      </trkpt>
      <trkpt lat="45.75962" lon="4.82798">
        <ele>170</ele>
        <time>2020-09-14T13:57:19Z</time>
      </trkpt>
      <trkpt lat="45.75962" lon="4.828">
        <ele>170</ele>
        <time>2020-09-14T13:57:19Z</time>
      </trkpt>
      <trkpt lat="45.75955" lon="4.82826">
        <ele>167</ele>
        <time>2020-09-14T13:57:22Z</time>
      </trkpt>
      <trkpt lat="45.75934" lon="4.82898">
        <ele>168</ele>
        <time>2020-09-14T13:57:32Z</time>
      </trkpt>
      <trkpt lat="45.75924" lon="4.82936">
        <ele>170</ele>
        <time>2020-09-14T13:57:37Z</time>
      </trkpt>
      <trkpt lat="45.75922" lon="4.82942">
        <ele>170</ele>
        <time>2020-09-14T13:57:38Z</time>
      </trkpt>
      <trkpt lat="45.75917" lon="4.82955">
        <ele>171</ele>
        <time>2020-09-14T13:57:40Z</time>
      </trkpt>
      <trkpt lat="45.75915" lon="4.82962">
        <ele>172</ele>
        <time>2020-09-14T13:57:41Z</time>
      </trkpt>
      <trkpt lat="45.75912" lon="4.8297">
        <ele>173</ele>
        <time>2020-09-14T13:57:42Z</time>
      </trkpt>
      <trkpt lat="45.75903" lon="4.82997">
        <ele>175</ele>
        <time>2020-09-14T13:57:46Z</time>
      </trkpt>
      <trkpt lat="45.75901" lon="4.83004">
        <ele>175</ele>
        <time>2020-09-14T13:57:46Z</time>
      </trkpt>
      <trkpt lat="45.759" lon="4.83008">
        <ele>175</ele>
        <time>2020-09-14T13:57:47Z</time>
      </trkpt>
      <trkpt lat="45.75882" lon="4.83068">
        <ele>176</ele>
        <time>2020-09-14T13:57:55Z</time>
      </trkpt>
      <trkpt lat="45.75883" lon="4.8307">
        <ele>176</ele>
        <time>2020-09-14T13:57:55Z</time>
      </trkpt>
      <trkpt lat="45.75885" lon="4.83075">
        <ele>176</ele>
        <time>2020-09-14T13:57:56Z</time>
      </trkpt>
      <trkpt lat="45.7579" lon="4.83429">
        <ele>178</ele>
        <time>2020-09-14T13:58:43Z</time>
      </trkpt>
      <trkpt lat="45.75785" lon="4.83437">
        <ele>179</ele>
        <time>2020-09-14T13:58:45Z</time>
      </trkpt>
      <trkpt lat="45.75731" lon="4.83631">
        <ele>174</ele>
        <time>2020-09-14T13:59:10Z</time>
      </trkpt>
      <trkpt lat="45.75722" lon="4.83641">
        <ele>172</ele>
        <time>2020-09-14T13:59:12Z</time>
      </trkpt>
      <trkpt lat="45.75709" lon="4.83684">
        <ele>168</ele>
        <time>2020-09-14T13:59:18Z</time>
      </trkpt>
      <trkpt lat="45.7571" lon="4.83712">
        <ele>167</ele>
        <time>2020-09-14T13:59:22Z</time>
      </trkpt>
      <trkpt lat="45.75639" lon="4.83955">
        <ele>167</ele>
        <time>2020-09-14T13:59:54Z</time>
      </trkpt>
      <trkpt lat="45.75623" lon="4.84004">
        <ele>171</ele>
        <time>2020-09-14T14:00:01Z</time>
      </trkpt>
      <trkpt lat="45.75621" lon="4.84009">
        <ele>171</ele>
        <time>2020-09-14T14:00:02Z</time>
      </trkpt>
      <trkpt lat="45.7562" lon="4.84013">
        <ele>172</ele>
        <time>2020-09-14T14:00:02Z</time>
      </trkpt>
      <trkpt lat="45.75615" lon="4.84029">
        <ele>173</ele>
        <time>2020-09-14T14:00:05Z</time>
      </trkpt>
      <trkpt lat="45.75611" lon="4.84043">
        <ele>174</ele>
        <time>2020-09-14T14:00:06Z</time>
      </trkpt>
      <trkpt lat="45.75598" lon="4.84082">
        <ele>177</ele>
        <time>2020-09-14T14:00:12Z</time>
      </trkpt>
      <trkpt lat="45.75595" lon="4.84089">
        <ele>178</ele>
        <time>2020-09-14T14:00:13Z</time>
      </trkpt>
      <trkpt lat="45.75565" lon="4.84174">
        <ele>182</ele>
        <time>2020-09-14T14:00:25Z</time>
      </trkpt>
      <trkpt lat="45.75539" lon="4.84248">
        <ele>177</ele>
        <time>2020-09-14T14:00:35Z</time>
      </trkpt>
      <trkpt lat="45.75538" lon="4.84252">
        <ele>177</ele>
        <time>2020-09-14T14:00:36Z</time>
      </trkpt>
      <trkpt lat="45.75536" lon="4.84256">
        <ele>177</ele>
        <time>2020-09-14T14:00:36Z</time>
      </trkpt>
      <trkpt lat="45.75533" lon="4.84267">
        <ele>177</ele>
        <time>2020-09-14T14:00:38Z</time>
      </trkpt>
      <trkpt lat="45.75531" lon="4.84274">
        <ele>177</ele>
        <time>2020-09-14T14:00:39Z</time>
      </trkpt>
      <trkpt lat="45.75529" lon="4.84284">
        <ele>177</ele>
        <time>2020-09-14T14:00:40Z</time>
      </trkpt>
      <trkpt lat="45.7553" lon="4.84297">
        <ele>177</ele>
        <time>2020-09-14T14:00:41Z</time>
      </trkpt>
      <trkpt lat="45.75522" lon="4.84321">
        <ele>177</ele>
        <time>2020-09-14T14:00:45Z</time>
      </trkpt>
      <trkpt lat="45.7552" lon="4.84327">
        <ele>177</ele>
        <time>2020-09-14T14:00:46Z</time>
      </trkpt>
      <trkpt lat="45.75519" lon="4.8433">
        <ele>176</ele>
        <time>2020-09-14T14:00:46Z</time>
      </trkpt>
      <trkpt lat="45.75515" lon="4.84343">
        <ele>177</ele>
        <time>2020-09-14T14:00:48Z</time>
      </trkpt>
      <trkpt lat="45.75511" lon="4.84352">
        <ele>177</ele>
        <time>2020-09-14T14:00:49Z</time>
      </trkpt>
      <trkpt lat="45.75509" lon="4.84357">
        <ele>177</ele>
        <time>2020-09-14T14:00:50Z</time>
      </trkpt>
      <trkpt lat="45.75503" lon="4.84375">
        <ele>178</ele>
        <time>2020-09-14T14:00:52Z</time>
      </trkpt>
      <trkpt lat="45.75454" lon="4.84516">
        <ele>176</ele>
        <time>2020-09-14T14:01:12Z</time>
      </trkpt>
      <trkpt lat="45.75451" lon="4.84524">
        <ele>176</ele>
        <time>2020-09-14T14:01:13Z</time>
      </trkpt>
      <trkpt lat="45.75446" lon="4.84539">
        <ele>176</ele>
        <time>2020-09-14T14:01:15Z</time>
      </trkpt>
      <trkpt lat="45.75442" lon="4.8455">
        <ele>176</ele>
        <time>2020-09-14T14:01:17Z</time>
      </trkpt>
      <trkpt lat="45.75439" lon="4.84559">
        <ele>176</ele>
        <time>2020-09-14T14:01:18Z</time>
      </trkpt>
      <trkpt lat="45.75437" lon="4.84566">
        <ele>176</ele>
        <time>2020-09-14T14:01:19Z</time>
      </trkpt>
      <trkpt lat="45.75421" lon="4.84611">
        <ele>176</ele>
        <time>2020-09-14T14:01:25Z</time>
      </trkpt>
      <trkpt lat="45.75416" lon="4.84623">
        <ele>176</ele>
        <time>2020-09-14T14:01:27Z</time>
      </trkpt>
      <trkpt lat="45.75412" lon="4.84637">
        <ele>176</ele>
        <time>2020-09-14T14:01:29Z</time>
      </trkpt>
      <trkpt lat="45.75408" lon="4.84646">
        <ele>176</ele>
        <time>2020-09-14T14:01:30Z</time>
      </trkpt>
      <trkpt lat="45.75397" lon="4.84679">
        <ele>175</ele>
        <time>2020-09-14T14:01:34Z</time>
      </trkpt>
      <trkpt lat="45.7539" lon="4.84699">
        <ele>175</ele>
        <time>2020-09-14T14:01:37Z</time>
      </trkpt>
      <trkpt lat="45.75381" lon="4.84726">
        <ele>176</ele>
        <time>2020-09-14T14:01:41Z</time>
      </trkpt>
      <trkpt lat="45.75376" lon="4.84741">
        <ele>176</ele>
        <time>2020-09-14T14:01:43Z</time>
      </trkpt>
      <trkpt lat="45.7537" lon="4.84757">
        <ele>176</ele>
        <time>2020-09-14T14:01:45Z</time>
      </trkpt>
      <trkpt lat="45.75367" lon="4.84766">
        <ele>176</ele>
        <time>2020-09-14T14:01:47Z</time>
      </trkpt>
      <trkpt lat="45.75364" lon="4.84775">
        <ele>176</ele>
        <time>2020-09-14T14:01:48Z</time>
      </trkpt>
      <trkpt lat="45.75364" lon="4.84777">
        <ele>176</ele>
        <time>2020-09-14T14:01:48Z</time>
      </trkpt>
      <trkpt lat="45.75358" lon="4.84793">
        <ele>176</ele>
        <time>2020-09-14T14:01:50Z</time>
      </trkpt>
      <trkpt lat="45.75352" lon="4.84811">
        <ele>176</ele>
        <time>2020-09-14T14:01:53Z</time>
      </trkpt>
      <trkpt lat="45.75351" lon="4.84815">
        <ele>176</ele>
        <time>2020-09-14T14:01:53Z</time>
      </trkpt>
      <trkpt lat="45.75326" lon="4.84885">
        <ele>178</ele>
        <time>2020-09-14T14:02:03Z</time>
      </trkpt>
      <trkpt lat="45.75324" lon="4.8489">
        <ele>178</ele>
        <time>2020-09-14T14:02:04Z</time>
      </trkpt>
      <trkpt lat="45.75323" lon="4.84893">
        <ele>178</ele>
        <time>2020-09-14T14:02:04Z</time>
      </trkpt>
      <trkpt lat="45.7532" lon="4.84901">
        <ele>178</ele>
        <time>2020-09-14T14:02:05Z</time>
      </trkpt>
      <trkpt lat="45.75312" lon="4.84926">
        <ele>178</ele>
        <time>2020-09-14T14:02:09Z</time>
      </trkpt>
      <trkpt lat="45.75311" lon="4.84929">
        <ele>178</ele>
        <time>2020-09-14T14:02:09Z</time>
      </trkpt>
      <trkpt lat="45.7531" lon="4.84934">
        <ele>178</ele>
        <time>2020-09-14T14:02:10Z</time>
      </trkpt>
      <trkpt lat="45.75291" lon="4.84989">
        <ele>176</ele>
        <time>2020-09-14T14:02:17Z</time>
      </trkpt>
      <trkpt lat="45.75291" lon="4.84989">
        <ele>176</ele>
        <time>2020-09-14T14:02:17Z</time>
      </trkpt>
      <trkpt lat="45.75284" lon="4.85011">
        <ele>175</ele>
        <time>2020-09-14T14:02:20Z</time>
      </trkpt>
      <trkpt lat="45.75278" lon="4.85026">
        <ele>174</ele>
        <time>2020-09-14T14:02:23Z</time>
      </trkpt>
      <trkpt lat="45.75276" lon="4.85034">
        <ele>173</ele>
        <time>2020-09-14T14:02:24Z</time>
      </trkpt>
      <trkpt lat="45.75272" lon="4.85043">
        <ele>173</ele>
        <time>2020-09-14T14:02:25Z</time>
      </trkpt>
      <trkpt lat="45.7527" lon="4.85051">
        <ele>173</ele>
        <time>2020-09-14T14:02:26Z</time>
      </trkpt>
      <trkpt lat="45.75263" lon="4.85069">
        <ele>172</ele>
        <time>2020-09-14T14:02:29Z</time>
      </trkpt>
      <trkpt lat="45.75258" lon="4.85084">
        <ele>171</ele>
        <time>2020-09-14T14:02:31Z</time>
      </trkpt>
      <trkpt lat="45.75263" lon="4.85101">
        <ele>172</ele>
        <time>2020-09-14T14:02:33Z</time>
      </trkpt>
      <trkpt lat="45.75276" lon="4.85198">
        <ele>172</ele>
        <time>2020-09-14T14:02:45Z</time>
      </trkpt>
      <trkpt lat="45.75278" lon="4.85209">
        <ele>173</ele>
        <time>2020-09-14T14:02:47Z</time>
      </trkpt>
      <trkpt lat="45.75279" lon="4.85217">
        <ele>173</ele>
        <time>2020-09-14T14:02:48Z</time>
      </trkpt>
      <trkpt lat="45.75291" lon="4.85319">
        <ele>175</ele>
        <time>2020-09-14T14:03:00Z</time>
      </trkpt>
      <trkpt lat="45.75292" lon="4.85325">
        <ele>175</ele>
        <time>2020-09-14T14:03:01Z</time>
      </trkpt>
      <trkpt lat="45.75293" lon="4.85337">
        <ele>175</ele>
        <time>2020-09-14T14:03:03Z</time>
      </trkpt>
      <trkpt lat="45.75294" lon="4.85341">
        <ele>175</ele>
        <time>2020-09-14T14:03:03Z</time>
      </trkpt>
      <trkpt lat="45.75295" lon="4.85356">
        <ele>176</ele>
        <time>2020-09-14T14:03:05Z</time>
      </trkpt>
      <trkpt lat="45.75296" lon="4.85362">
        <ele>176</ele>
        <time>2020-09-14T14:03:06Z</time>
      </trkpt>
      <trkpt lat="45.75297" lon="4.85366">
        <ele>176</ele>
        <time>2020-09-14T14:03:06Z</time>
      </trkpt>
      <trkpt lat="45.75298" lon="4.85374">
        <ele>176</ele>
        <time>2020-09-14T14:03:07Z</time>
      </trkpt>
      <trkpt lat="45.75308" lon="4.85459">
        <ele>178</ele>
        <time>2020-09-14T14:03:18Z</time>
      </trkpt>
      <trkpt lat="45.75309" lon="4.85466">
        <ele>178</ele>
        <time>2020-09-14T14:03:19Z</time>
      </trkpt>
      <trkpt lat="45.7531" lon="4.85473">
        <ele>178</ele>
        <time>2020-09-14T14:03:20Z</time>
      </trkpt>
      <trkpt lat="45.75311" lon="4.85482">
        <ele>178</ele>
        <time>2020-09-14T14:03:21Z</time>
      </trkpt>
      <trkpt lat="45.75312" lon="4.85485">
        <ele>178</ele>
        <time>2020-09-14T14:03:21Z</time>
      </trkpt>
      <trkpt lat="45.75312" lon="4.8549">
        <ele>178</ele>
        <time>2020-09-14T14:03:22Z</time>
      </trkpt>
      <trkpt lat="45.75314" lon="4.85505">
        <ele>178</ele>
        <time>2020-09-14T14:03:24Z</time>
      </trkpt>
      <trkpt lat="45.75314" lon="4.85509">
        <ele>178</ele>
        <time>2020-09-14T14:03:24Z</time>
      </trkpt>
      <trkpt lat="45.75317" lon="4.85534">
        <ele>176</ele>
        <time>2020-09-14T14:03:28Z</time>
      </trkpt>
      <trkpt lat="45.75318" lon="4.85539">
        <ele>176</ele>
        <time>2020-09-14T14:03:28Z</time>
      </trkpt>
      <trkpt lat="45.75319" lon="4.85548">
        <ele>176</ele>
        <time>2020-09-14T14:03:29Z</time>
      </trkpt>
      <trkpt lat="45.75319" lon="4.85555">
        <ele>175</ele>
        <time>2020-09-14T14:03:30Z</time>
      </trkpt>
      <trkpt lat="45.7532" lon="4.85565">
        <ele>175</ele>
        <time>2020-09-14T14:03:31Z</time>
      </trkpt>
      <trkpt lat="45.75321" lon="4.85574">
        <ele>174</ele>
        <time>2020-09-14T14:03:33Z</time>
      </trkpt>
      <trkpt lat="45.75328" lon="4.85631">
        <ele>172</ele>
        <time>2020-09-14T14:03:40Z</time>
      </trkpt>
      <trkpt lat="45.75328" lon="4.85639">
        <ele>171</ele>
        <time>2020-09-14T14:03:41Z</time>
      </trkpt>
      <trkpt lat="45.7533" lon="4.85647">
        <ele>171</ele>
        <time>2020-09-14T14:03:42Z</time>
      </trkpt>
      <trkpt lat="45.75341" lon="4.85735">
        <ele>171</ele>
        <time>2020-09-14T14:03:53Z</time>
      </trkpt>
      <trkpt lat="45.75343" lon="4.85746">
        <ele>171</ele>
        <time>2020-09-14T14:03:54Z</time>
      </trkpt>
      <trkpt lat="45.75344" lon="4.85758">
        <ele>171</ele>
        <time>2020-09-14T14:03:56Z</time>
      </trkpt>
      <trkpt lat="45.75345" lon="4.85763">
        <ele>171</ele>
        <time>2020-09-14T14:03:56Z</time>
      </trkpt>
      <trkpt lat="45.75345" lon="4.85769">
        <ele>171</ele>
        <time>2020-09-14T14:03:57Z</time>
      </trkpt>
      <trkpt lat="45.75355" lon="4.85842">
        <ele>172</ele>
        <time>2020-09-14T14:04:06Z</time>
      </trkpt>
      <trkpt lat="45.75356" lon="4.85859">
        <ele>171</ele>
        <time>2020-09-14T14:04:09Z</time>
      </trkpt>
      <trkpt lat="45.75363" lon="4.85915">
        <ele>171</ele>
        <time>2020-09-14T14:04:16Z</time>
      </trkpt>
      <trkpt lat="45.75365" lon="4.85936">
        <ele>170</ele>
        <time>2020-09-14T14:04:18Z</time>
      </trkpt>
      <trkpt lat="45.75367" lon="4.85954">
        <ele>170</ele>
        <time>2020-09-14T14:04:21Z</time>
      </trkpt>
      <trkpt lat="45.75375" lon="4.86015">
        <ele>170</ele>
        <time>2020-09-14T14:04:28Z</time>
      </trkpt>
      <trkpt lat="45.75378" lon="4.86036">
        <ele>170</ele>
        <time>2020-09-14T14:04:31Z</time>
      </trkpt>
      <trkpt lat="45.75385" lon="4.86098">
        <ele>171</ele>
        <time>2020-09-14T14:04:39Z</time>
      </trkpt>
      <trkpt lat="45.75386" lon="4.86108">
        <ele>171</ele>
        <time>2020-09-14T14:04:40Z</time>
      </trkpt>
      <trkpt lat="45.75389" lon="4.86134">
        <ele>170</ele>
        <time>2020-09-14T14:04:43Z</time>
      </trkpt>
      <trkpt lat="45.7539" lon="4.86143">
        <ele>170</ele>
        <time>2020-09-14T14:04:44Z</time>
      </trkpt>
      <trkpt lat="45.75391" lon="4.86147">
        <ele>170</ele>
        <time>2020-09-14T14:04:45Z</time>
      </trkpt>
      <trkpt lat="45.75392" lon="4.86158">
        <ele>170</ele>
        <time>2020-09-14T14:04:46Z</time>
      </trkpt>
      <trkpt lat="45.75394" lon="4.86173">
        <ele>170</ele>
        <time>2020-09-14T14:04:48Z</time>
      </trkpt>
      <trkpt lat="45.75395" lon="4.86178">
        <ele>170</ele>
        <time>2020-09-14T14:04:49Z</time>
      </trkpt>
      <trkpt lat="45.75396" lon="4.86184">
        <ele>170</ele>
        <time>2020-09-14T14:04:50Z</time>
      </trkpt>
      <trkpt lat="45.75406" lon="4.86266">
        <ele>169</ele>
        <time>2020-09-14T14:05:00Z</time>
      </trkpt>
      <trkpt lat="45.75411" lon="4.86309">
        <ele>169</ele>
        <time>2020-09-14T14:05:05Z</time>
      </trkpt>
      <trkpt lat="45.75413" lon="4.86319">
        <ele>169</ele>
        <time>2020-09-14T14:05:07Z</time>
      </trkpt>
      <trkpt lat="45.75416" lon="4.86344">
        <ele>169</ele>
        <time>2020-09-14T14:05:10Z</time>
      </trkpt>
      <trkpt lat="45.75416" lon="4.86349">
        <ele>169</ele>
        <time>2020-09-14T14:05:10Z</time>
      </trkpt>
      <trkpt lat="45.75417" lon="4.86356">
        <ele>168</ele>
        <time>2020-09-14T14:05:11Z</time>
      </trkpt>
      <trkpt lat="45.7542" lon="4.86382">
        <ele>168</ele>
        <time>2020-09-14T14:05:15Z</time>
      </trkpt>
      <trkpt lat="45.75422" lon="4.86397">
        <ele>168</ele>
        <time>2020-09-14T14:05:16Z</time>
      </trkpt>
      <trkpt lat="45.75423" lon="4.86404">
        <ele>168</ele>
        <time>2020-09-14T14:05:17Z</time>
      </trkpt>
      <trkpt lat="45.75443" lon="4.86568">
        <ele>173</ele>
        <time>2020-09-14T14:05:38Z</time>
      </trkpt>
      <trkpt lat="45.75445" lon="4.86583">
        <ele>174</ele>
        <time>2020-09-14T14:05:40Z</time>
      </trkpt>
      <trkpt lat="45.75446" lon="4.86594">
        <ele>173</ele>
        <time>2020-09-14T14:05:41Z</time>
      </trkpt>
      <trkpt lat="45.75451" lon="4.86638">
        <ele>173</ele>
        <time>2020-09-14T14:05:47Z</time>
      </trkpt>
      <trkpt lat="45.75453" lon="4.86652">
        <ele>172</ele>
        <time>2020-09-14T14:05:49Z</time>
      </trkpt>
      <trkpt lat="45.75457" lon="4.86685">
        <ele>172</ele>
        <time>2020-09-14T14:05:53Z</time>
      </trkpt>
      <trkpt lat="45.75458" lon="4.86697">
        <ele>172</ele>
        <time>2020-09-14T14:05:54Z</time>
      </trkpt>
      <trkpt lat="45.75461" lon="4.86716">
        <ele>171</ele>
        <time>2020-09-14T14:05:57Z</time>
      </trkpt>
      <trkpt lat="45.75463" lon="4.86736">
        <ele>171</ele>
        <time>2020-09-14T14:05:59Z</time>
      </trkpt>
      <trkpt lat="45.75464" lon="4.86748">
        <ele>171</ele>
        <time>2020-09-14T14:06:01Z</time>
      </trkpt>
      <trkpt lat="45.75466" lon="4.86765">
        <ele>171</ele>
        <time>2020-09-14T14:06:03Z</time>
      </trkpt>
      <trkpt lat="45.75474" lon="4.86826">
        <ele>173</ele>
        <time>2020-09-14T14:06:11Z</time>
      </trkpt>
      <trkpt lat="45.75474" lon="4.86831">
        <ele>173</ele>
        <time>2020-09-14T14:06:11Z</time>
      </trkpt>
      <trkpt lat="45.755" lon="4.87046">
        <ele>171</ele>
        <time>2020-09-14T14:06:38Z</time>
      </trkpt>
      <trkpt lat="45.75502" lon="4.87061">
        <ele>171</ele>
        <time>2020-09-14T14:06:40Z</time>
      </trkpt>
      <trkpt lat="45.75503" lon="4.87072">
        <ele>170</ele>
        <time>2020-09-14T14:06:41Z</time>
      </trkpt>
      <trkpt lat="45.75505" lon="4.87091">
        <ele>170</ele>
        <time>2020-09-14T14:06:44Z</time>
      </trkpt>
      <trkpt lat="45.75514" lon="4.87161">
        <ele>173</ele>
        <time>2020-09-14T14:06:53Z</time>
      </trkpt>
      <trkpt lat="45.75514" lon="4.87167">
        <ele>173</ele>
        <time>2020-09-14T14:06:53Z</time>
      </trkpt>
      <trkpt lat="45.75526" lon="4.87258">
        <ele>175</ele>
        <time>2020-09-14T14:07:05Z</time>
      </trkpt>
      <trkpt lat="45.75527" lon="4.87268">
        <ele>175</ele>
        <time>2020-09-14T14:07:06Z</time>
      </trkpt>
      <trkpt lat="45.7553" lon="4.87292">
        <ele>176</ele>
        <time>2020-09-14T14:07:09Z</time>
      </trkpt>
      <trkpt lat="45.7556" lon="4.87543">
        <ele>179</ele>
        <time>2020-09-14T14:07:41Z</time>
      </trkpt>
      <trkpt lat="45.7556" lon="4.87547">
        <ele>179</ele>
        <time>2020-09-14T14:07:41Z</time>
      </trkpt>
      <trkpt lat="45.75561" lon="4.87552">
        <ele>179</ele>
        <time>2020-09-14T14:07:42Z</time>
      </trkpt>
      <trkpt lat="45.75565" lon="4.87602">
        <ele>178</ele>
        <time>2020-09-14T14:07:48Z</time>
      </trkpt>
      <trkpt lat="45.75565" lon="4.87605">
        <ele>178</ele>
        <time>2020-09-14T14:07:49Z</time>
      </trkpt>
      <trkpt lat="45.75568" lon="4.87619">
        <ele>179</ele>
        <time>2020-09-14T14:07:50Z</time>
      </trkpt>
      <trkpt lat="45.7557" lon="4.87631">
        <ele>179</ele>
        <time>2020-09-14T14:07:52Z</time>
      </trkpt>
      <trkpt lat="45.75574" lon="4.87647">
        <ele>179</ele>
        <time>2020-09-14T14:07:54Z</time>
      </trkpt>
      <trkpt lat="45.75576" lon="4.87656">
        <ele>179</ele>
        <time>2020-09-14T14:07:55Z</time>
      </trkpt>
      <trkpt lat="45.75579" lon="4.87671">
        <ele>179</ele>
        <time>2020-09-14T14:07:57Z</time>
      </trkpt>
      <trkpt lat="45.75582" lon="4.87684">
        <ele>179</ele>
        <time>2020-09-14T14:07:59Z</time>
      </trkpt>
      <trkpt lat="45.75583" lon="4.87687">
        <ele>179</ele>
        <time>2020-09-14T14:07:59Z</time>
      </trkpt>
      <trkpt lat="45.75586" lon="4.87695">
        <ele>179</ele>
        <time>2020-09-14T14:08:00Z</time>
      </trkpt>
      <trkpt lat="45.75589" lon="4.87703">
        <ele>179</ele>
        <time>2020-09-14T14:08:02Z</time>
      </trkpt>
      <trkpt lat="45.75599" lon="4.87726">
        <ele>179</ele>
        <time>2020-09-14T14:08:05Z</time>
      </trkpt>
      <trkpt lat="45.7561" lon="4.87754">
        <ele>179</ele>
        <time>2020-09-14T14:08:09Z</time>
      </trkpt>
      <trkpt lat="45.75622" lon="4.8778">
        <ele>179</ele>
        <time>2020-09-14T14:08:13Z</time>
      </trkpt>
      <trkpt lat="45.75635" lon="4.87822">
        <ele>178</ele>
        <time>2020-09-14T14:08:18Z</time>
      </trkpt>
      <trkpt lat="45.75655" lon="4.87892">
        <ele>178</ele>
        <time>2020-09-14T14:08:28Z</time>
      </trkpt>
      <trkpt lat="45.75657" lon="4.87898">
        <ele>178</ele>
        <time>2020-09-14T14:08:29Z</time>
      </trkpt>
      <trkpt lat="45.75659" lon="4.87906">
        <ele>178</ele>
        <time>2020-09-14T14:08:30Z</time>
      </trkpt>
      <trkpt lat="45.75663" lon="4.87921">
        <ele>178</ele>
        <time>2020-09-14T14:08:32Z</time>
      </trkpt>
      <trkpt lat="45.75669" lon="4.87945">
        <ele>179</ele>
        <time>2020-09-14T14:08:35Z</time>
      </trkpt>
      <trkpt lat="45.7568" lon="4.87984">
        <ele>181</ele>
        <time>2020-09-14T14:08:40Z</time>
      </trkpt>
      <trkpt lat="45.75686" lon="4.88008">
        <ele>181</ele>
        <time>2020-09-14T14:08:43Z</time>
      </trkpt>
      <trkpt lat="45.7569" lon="4.88023">
        <ele>181</ele>
        <time>2020-09-14T14:08:45Z</time>
      </trkpt>
      <trkpt lat="45.757" lon="4.88061">
        <ele>182</ele>
        <time>2020-09-14T14:08:50Z</time>
      </trkpt>
      <trkpt lat="45.75721" lon="4.88134">
        <ele>182</ele>
        <time>2020-09-14T14:09:00Z</time>
      </trkpt>
      <trkpt lat="45.75726" lon="4.88155">
        <ele>183</ele>
        <time>2020-09-14T14:09:03Z</time>
      </trkpt>
      <trkpt lat="45.75752" lon="4.88257">
        <ele>181</ele>
        <time>2020-09-14T14:09:16Z</time>
      </trkpt>
      <trkpt lat="45.75753" lon="4.88261">
        <ele>181</ele>
        <time>2020-09-14T14:09:17Z</time>
      </trkpt>
      <trkpt lat="45.75762" lon="4.88295">
        <ele>180</ele>
        <time>2020-09-14T14:09:21Z</time>
      </trkpt>
      <trkpt lat="45.75765" lon="4.88307">
        <ele>179</ele>
        <time>2020-09-14T14:09:23Z</time>
      </trkpt>
      <trkpt lat="45.75767" lon="4.88316">
        <ele>179</ele>
        <time>2020-09-14T14:09:24Z</time>
      </trkpt>
      <trkpt lat="45.75786" lon="4.88394">
        <ele>178</ele>
        <time>2020-09-14T14:09:34Z</time>
      </trkpt>
      <trkpt lat="45.75798" lon="4.88449">
        <ele>178</ele>
        <time>2020-09-14T14:09:42Z</time>
      </trkpt>
      <trkpt lat="45.7581" lon="4.88497">
        <ele>179</ele>
        <time>2020-09-14T14:09:48Z</time>
      </trkpt>
      <trkpt lat="45.75816" lon="4.88517">
        <ele>180</ele>
        <time>2020-09-14T14:09:51Z</time>
      </trkpt>
      <trkpt lat="45.75827" lon="4.88551">
        <ele>181</ele>
        <time>2020-09-14T14:09:55Z</time>
      </trkpt>
      <trkpt lat="45.75869" lon="4.88691">
        <ele>179</ele>
        <time>2020-09-14T14:10:14Z</time>
      </trkpt>
      <trkpt lat="45.75882" lon="4.88746">
        <ele>179</ele>
        <time>2020-09-14T14:10:21Z</time>
      </trkpt>
      <trkpt lat="45.75894" lon="4.88802">
        <ele>180</ele>
        <time>2020-09-14T14:10:29Z</time>
      </trkpt>
      <trkpt lat="45.75901" lon="4.88835">
        <ele>182</ele>
        <time>2020-09-14T14:10:33Z</time>
      </trkpt>
      <trkpt lat="45.75914" lon="4.88899">
        <ele>183</ele>
        <time>2020-09-14T14:10:41Z</time>
      </trkpt>
      <trkpt lat="45.75915" lon="4.88907">
        <ele>183</ele>
        <time>2020-09-14T14:10:42Z</time>
      </trkpt>
      <trkpt lat="45.75918" lon="4.88917">
        <ele>183</ele>
        <time>2020-09-14T14:10:44Z</time>
      </trkpt>
      <trkpt lat="45.75926" lon="4.8897">
        <ele>182</ele>
        <time>2020-09-14T14:10:50Z</time>
      </trkpt>
      <trkpt lat="45.75933" lon="4.8901">
        <ele>181</ele>
        <time>2020-09-14T14:10:55Z</time>
      </trkpt>
      <trkpt lat="45.75937" lon="4.8904">
        <ele>182</ele>
        <time>2020-09-14T14:10:59Z</time>
      </trkpt>
      <trkpt lat="45.75938" lon="4.89048">
        <ele>182</ele>
        <time>2020-09-14T14:11:00Z</time>
      </trkpt>
      <trkpt lat="45.75953" lon="4.89181">
        <ele>184</ele>
        <time>2020-09-14T14:11:17Z</time>
      </trkpt>
      <trkpt lat="45.75981" lon="4.89487">
        <ele>182</ele>
        <time>2020-09-14T14:11:55Z</time>
      </trkpt>
      <trkpt lat="45.75997" lon="4.89687">
        <ele>182</ele>
        <time>2020-09-14T14:12:20Z</time>
      </trkpt>
      <trkpt lat="45.75994" lon="4.89698">
        <ele>182</ele>
        <time>2020-09-14T14:12:22Z</time>
      </trkpt>
      <trkpt lat="45.76001" lon="4.8981">
        <ele>182</ele>
        <time>2020-09-14T14:12:36Z</time>
      </trkpt>
      <trkpt lat="45.76" lon="4.89825">
        <ele>182</ele>
        <time>2020-09-14T14:12:38Z</time>
      </trkpt>
      <trkpt lat="45.76004" lon="4.89868">
        <ele>182</ele>
        <time>2020-09-14T14:12:43Z</time>
      </trkpt>
      <trkpt lat="45.76009" lon="4.89885">
        <ele>182</ele>
        <time>2020-09-14T14:12:45Z</time>
      </trkpt>
      <trkpt lat="45.7602" lon="4.90024">
        <ele>183</ele>
        <time>2020-09-14T14:13:03Z</time>
      </trkpt>
      <trkpt lat="45.76021" lon="4.90048">
        <ele>183</ele>
        <time>2020-09-14T14:13:06Z</time>
      </trkpt>
      <trkpt lat="45.76022" lon="4.9006">
        <ele>183</ele>
        <time>2020-09-14T14:13:07Z</time>
      </trkpt>
      <trkpt lat="45.76022" lon="4.9007">
        <ele>183</ele>
        <time>2020-09-14T14:13:08Z</time>
      </trkpt>
      <trkpt lat="45.76023" lon="4.9009">
        <ele>183</ele>
        <time>2020-09-14T14:13:11Z</time>
      </trkpt>
      <trkpt lat="45.76023" lon="4.90099">
        <ele>183</ele>
        <time>2020-09-14T14:13:12Z</time>
      </trkpt>
      <trkpt lat="45.76024" lon="4.90102">
        <ele>183</ele>
        <time>2020-09-14T14:13:12Z</time>
      </trkpt>
      <trkpt lat="45.76024" lon="4.9012">
        <ele>183</ele>
        <time>2020-09-14T14:13:15Z</time>
      </trkpt>
      <trkpt lat="45.76027" lon="4.90156">
        <ele>183</ele>
        <time>2020-09-14T14:13:19Z</time>
      </trkpt>
      <trkpt lat="45.76028" lon="4.90174">
        <ele>183</ele>
        <time>2020-09-14T14:13:21Z</time>
      </trkpt>
      <trkpt lat="45.76032" lon="4.9022">
        <ele>184</ele>
        <time>2020-09-14T14:13:27Z</time>
      </trkpt>
      <trkpt lat="45.76032" lon="4.9023">
        <ele>184</ele>
        <time>2020-09-14T14:13:28Z</time>
      </trkpt>
      <trkpt lat="45.76035" lon="4.90282">
        <ele>184</ele>
        <time>2020-09-14T14:13:35Z</time>
      </trkpt>
      <trkpt lat="45.76042" lon="4.9038">
        <ele>183</ele>
        <time>2020-09-14T14:13:47Z</time>
      </trkpt>
      <trkpt lat="45.76048" lon="4.90469">
        <ele>183</ele>
        <time>2020-09-14T14:13:58Z</time>
      </trkpt>
      <trkpt lat="45.76054" lon="4.90547">
        <ele>184</ele>
        <time>2020-09-14T14:14:08Z</time>
      </trkpt>
      <trkpt lat="45.76055" lon="4.90562">
        <ele>184</ele>
        <time>2020-09-14T14:14:10Z</time>
      </trkpt>
      <trkpt lat="45.76058" lon="4.90575">
        <ele>184</ele>
        <time>2020-09-14T14:14:11Z</time>
      </trkpt>
      <trkpt lat="45.76064" lon="4.90627">
        <ele>184</ele>
        <time>2020-09-14T14:14:18Z</time>
      </trkpt>
      <trkpt lat="45.76067" lon="4.90654">
        <ele>184</ele>
        <time>2020-09-14T14:14:21Z</time>
      </trkpt>
      <trkpt lat="45.76076" lon="4.90717">
        <ele>184</ele>
        <time>2020-09-14T14:14:29Z</time>
      </trkpt>
      <trkpt lat="45.76081" lon="4.90739">
        <ele>184</ele>
        <time>2020-09-14T14:14:32Z</time>
      </trkpt>
      <trkpt lat="45.76085" lon="4.90754">
        <ele>184</ele>
        <time>2020-09-14T14:14:34Z</time>
      </trkpt>
      <trkpt lat="45.76094" lon="4.90786">
        <ele>184</ele>
        <time>2020-09-14T14:14:38Z</time>
      </trkpt>
      <trkpt lat="45.76107" lon="4.9082">
        <ele>185</ele>
        <time>2020-09-14T14:14:43Z</time>
      </trkpt>
      <trkpt lat="45.76115" lon="4.90848">
        <ele>185</ele>
        <time>2020-09-14T14:14:47Z</time>
      </trkpt>
      <trkpt lat="45.76143" lon="4.90932">
        <ele>184</ele>
        <time>2020-09-14T14:14:59Z</time>
      </trkpt>
      <trkpt lat="45.76143" lon="4.90934">
        <ele>184</ele>
        <time>2020-09-14T14:14:59Z</time>
      </trkpt>
      <trkpt lat="45.76172" lon="4.91011">
        <ele>183</ele>
        <time>2020-09-14T14:15:10Z</time>
      </trkpt>
      <trkpt lat="45.76199" lon="4.91081">
        <ele>184</ele>
        <time>2020-09-14T14:15:20Z</time>
      </trkpt>
      <trkpt lat="45.7622" lon="4.91127">
        <ele>184</ele>
        <time>2020-09-14T14:15:26Z</time>
      </trkpt>
      <trkpt lat="45.76238" lon="4.91166">
        <ele>184</ele>
        <time>2020-09-14T14:15:32Z</time>
      </trkpt>
      <trkpt lat="45.76265" lon="4.91225">
        <ele>184</ele>
        <time>2020-09-14T14:15:41Z</time>
      </trkpt>
      <trkpt lat="45.76295" lon="4.91323">
        <ele>184</ele>
        <time>2020-09-14T14:15:54Z</time>
      </trkpt>
      <trkpt lat="45.76299" lon="4.91334">
        <ele>183</ele>
        <time>2020-09-14T14:15:56Z</time>
      </trkpt>
      <trkpt lat="45.76304" lon="4.91355">
        <ele>183</ele>
        <time>2020-09-14T14:15:59Z</time>
      </trkpt>
      <trkpt lat="45.7631" lon="4.91379">
        <ele>184</ele>
        <time>2020-09-14T14:16:02Z</time>
      </trkpt>
      <trkpt lat="45.76321" lon="4.91419">
        <ele>184</ele>
        <time>2020-09-14T14:16:07Z</time>
      </trkpt>
      <trkpt lat="45.76352" lon="4.91513">
        <ele>184</ele>
        <time>2020-09-14T14:16:20Z</time>
      </trkpt>
      <trkpt lat="45.76422" lon="4.91743">
        <ele>183</ele>
        <time>2020-09-14T14:16:51Z</time>
      </trkpt>
      <trkpt lat="45.76453" lon="4.91855">
        <ele>184</ele>
        <time>2020-09-14T14:17:06Z</time>
      </trkpt>
      <trkpt lat="45.76459" lon="4.91881">
        <ele>184</ele>
        <time>2020-09-14T14:17:10Z</time>
      </trkpt>
      <trkpt lat="45.76487" lon="4.92065">
        <ele>185</ele>
        <time>2020-09-14T14:17:33Z</time>
      </trkpt>
      <trkpt lat="45.76556" lon="4.92483">
        <ele>183</ele>
        <time>2020-09-14T14:18:26Z</time>
      </trkpt>
      <trkpt lat="45.76556" lon="4.92507">
        <ele>183</ele>
        <time>2020-09-14T14:18:29Z</time>
      </trkpt>
      <trkpt lat="45.76593" lon="4.92717">
        <ele>185</ele>
        <time>2020-09-14T14:18:56Z</time>
      </trkpt>
      <trkpt lat="45.76601" lon="4.92744">
        <ele>185</ele>
        <time>2020-09-14T14:19:00Z</time>
      </trkpt>
      <trkpt lat="45.76607" lon="4.92757">
        <ele>185</ele>
        <time>2020-09-14T14:19:02Z</time>
      </trkpt>
      <trkpt lat="45.76627" lon="4.9289">
        <ele>184</ele>
        <time>2020-09-14T14:19:19Z</time>
      </trkpt>
      <trkpt lat="45.76652" lon="4.93024">
        <ele>184</ele>
        <time>2020-09-14T14:19:36Z</time>
      </trkpt>
      <trkpt lat="45.76695" lon="4.93217">
        <ele>184</ele>
        <time>2020-09-14T14:20:01Z</time>
      </trkpt>
      <trkpt lat="45.76695" lon="4.93235">
        <ele>184</ele>
        <time>2020-09-14T14:20:03Z</time>
      </trkpt>
      <trkpt lat="45.76702" lon="4.93266">
        <ele>184</ele>
        <time>2020-09-14T14:20:07Z</time>
      </trkpt>
      <trkpt lat="45.76725" lon="4.9337">
        <ele>186</ele>
        <time>2020-09-14T14:20:21Z</time>
      </trkpt>
      <trkpt lat="45.76732" lon="4.93386">
        <ele>186</ele>
        <time>2020-09-14T14:20:23Z</time>
      </trkpt>
      <trkpt lat="45.76753" lon="4.93485">
        <ele>186</ele>
        <time>2020-09-14T14:20:36Z</time>
      </trkpt>
      <trkpt lat="45.76762" lon="4.9354">
        <ele>185</ele>
        <time>2020-09-14T14:20:43Z</time>
      </trkpt>
      <trkpt lat="45.7678" lon="4.9366">
        <ele>184</ele>
        <time>2020-09-14T14:20:58Z</time>
      </trkpt>
      <trkpt lat="45.7679" lon="4.93753">
        <ele>186</ele>
        <time>2020-09-14T14:21:10Z</time>
      </trkpt>
      <trkpt lat="45.76814" lon="4.93892">
        <ele>187</ele>
        <time>2020-09-14T14:21:28Z</time>
      </trkpt>
      <trkpt lat="45.76842" lon="4.94031">
        <ele>187</ele>
        <time>2020-09-14T14:21:46Z</time>
      </trkpt>
      <trkpt lat="45.76851" lon="4.94088">
        <ele>187</ele>
        <time>2020-09-14T14:21:53Z</time>
      </trkpt>
      <trkpt lat="45.76858" lon="4.94128">
        <ele>187</ele>
        <time>2020-09-14T14:21:58Z</time>
      </trkpt>
      <trkpt lat="45.76877" lon="4.94314">
        <ele>187</ele>
        <time>2020-09-14T14:22:21Z</time>
      </trkpt>
      <trkpt lat="45.76897" lon="4.94456">
        <ele>186</ele>
        <time>2020-09-14T14:22:39Z</time>
      </trkpt>
      <trkpt lat="45.76954" lon="4.9482">
        <ele>189</ele>
        <time>2020-09-14T14:23:26Z</time>
      </trkpt>
      <trkpt lat="45.76968" lon="4.94935">
        <ele>187</ele>
        <time>2020-09-14T14:23:40Z</time>
      </trkpt>
      <trkpt lat="45.76985" lon="4.95151">
        <ele>188</ele>
        <time>2020-09-14T14:24:07Z</time>
      </trkpt>
      <trkpt lat="45.76993" lon="4.95204">
        <ele>188</ele>
        <time>2020-09-14T14:24:14Z</time>
      </trkpt>
      <trkpt lat="45.77" lon="4.9531">
        <ele>187</ele>
        <time>2020-09-14T14:24:27Z</time>
      </trkpt>
      <trkpt lat="45.77038" lon="4.95595">
        <ele>188</ele>
        <time>2020-09-14T14:25:03Z</time>
      </trkpt>
      <trkpt lat="45.77044" lon="4.95624">
        <ele>188</ele>
        <time>2020-09-14T14:25:07Z</time>
      </trkpt>
      <trkpt lat="45.77059" lon="4.95733">
        <ele>190</ele>
        <time>2020-09-14T14:25:21Z</time>
      </trkpt>
      <trkpt lat="45.7708" lon="4.95892">
        <ele>190</ele>
        <time>2020-09-14T14:25:41Z</time>
      </trkpt>
      <trkpt lat="45.77077" lon="4.95915">
        <ele>190</ele>
        <time>2020-09-14T14:25:44Z</time>
      </trkpt>
      <trkpt lat="45.77092" lon="4.96016">
        <ele>191</ele>
        <time>2020-09-14T14:25:56Z</time>
      </trkpt>
      <trkpt lat="45.77091" lon="4.96022">
        <ele>192</ele>
        <time>2020-09-14T14:25:57Z</time>
      </trkpt>
      <trkpt lat="45.77095" lon="4.96045">
        <ele>192</ele>
        <time>2020-09-14T14:26:00Z</time>
      </trkpt>
      <trkpt lat="45.771" lon="4.96053">
        <ele>193</ele>
        <time>2020-09-14T14:26:01Z</time>
      </trkpt>
      <trkpt lat="45.77102" lon="4.96096">
        <ele>194</ele>
        <time>2020-09-14T14:26:07Z</time>
      </trkpt>
      <trkpt lat="45.77102" lon="4.96178">
        <ele>195</ele>
        <time>2020-09-14T14:26:17Z</time>
      </trkpt>
      <trkpt lat="45.77097" lon="4.96275">
        <ele>200</ele>
        <time>2020-09-14T14:26:29Z</time>
      </trkpt>
      <trkpt lat="45.77096" lon="4.96331">
        <ele>203</ele>
        <time>2020-09-14T14:26:36Z</time>
      </trkpt>
      <trkpt lat="45.77122" lon="4.965">
        <ele>209</ele>
        <time>2020-09-14T14:26:57Z</time>
      </trkpt>
      <trkpt lat="45.77142" lon="4.96677">
        <ele>209</ele>
        <time>2020-09-14T14:27:20Z</time>
      </trkpt>
      <trkpt lat="45.77158" lon="4.96759">
        <ele>208</ele>
        <time>2020-09-14T14:27:30Z</time>
      </trkpt>
      <trkpt lat="45.77156" lon="4.96794">
        <ele>207</ele>
        <time>2020-09-14T14:27:35Z</time>
      </trkpt>
      <trkpt lat="45.77161" lon="4.96889">
        <ele>206</ele>
        <time>2020-09-14T14:27:46Z</time>
      </trkpt>
      <trkpt lat="45.77167" lon="4.9694">
        <ele>204</ele>
        <time>2020-09-14T14:27:53Z</time>
      </trkpt>
      <trkpt lat="45.77175" lon="4.96989">
        <ele>203</ele>
        <time>2020-09-14T14:27:59Z</time>
      </trkpt>
      <trkpt lat="45.77197" lon="4.97083">
        <ele>200</ele>
        <time>2020-09-14T14:28:11Z</time>
      </trkpt>
      <trkpt lat="45.77233" lon="4.97209">
        <ele>196</ele>
        <time>2020-09-14T14:28:28Z</time>
      </trkpt>
      <trkpt lat="45.77241" lon="4.97258">
        <ele>194</ele>
        <time>2020-09-14T14:28:35Z</time>
      </trkpt>
      <trkpt lat="45.77246" lon="4.97317">
        <ele>191</ele>
        <time>2020-09-14T14:28:42Z</time>
      </trkpt>
      <trkpt lat="45.77246" lon="4.97335">
        <ele>190</ele>
        <time>2020-09-14T14:28:44Z</time>
      </trkpt>
      <trkpt lat="45.77243" lon="4.97342">
        <ele>190</ele>
        <time>2020-09-14T14:28:45Z</time>
      </trkpt>
      <trkpt lat="45.77241" lon="4.9735">
        <ele>190</ele>
        <time>2020-09-14T14:28:46Z</time>
      </trkpt>
      <trkpt lat="45.77242" lon="4.97357">
        <ele>189</ele>
        <time>2020-09-14T14:28:47Z</time>
      </trkpt>
      <trkpt lat="45.77247" lon="4.97366">
        <ele>189</ele>
        <time>2020-09-14T14:28:49Z</time>
      </trkpt>
      <trkpt lat="45.77243" lon="4.9739">
        <ele>188</ele>
        <time>2020-09-14T14:28:52Z</time>
      </trkpt>
      <trkpt lat="45.77228" lon="4.97438">
        <ele>189</ele>
        <time>2020-09-14T14:28:58Z</time>
      </trkpt>
      <trkpt lat="45.77227" lon="4.97448">
        <ele>189</ele>
        <time>2020-09-14T14:28:59Z</time>
      </trkpt>
      <trkpt lat="45.77226" lon="4.97502">
        <ele>189</ele>
        <time>2020-09-14T14:29:06Z</time>
      </trkpt>
      <trkpt lat="45.7722" lon="4.97563">
        <ele>189</ele>
        <time>2020-09-14T14:29:14Z</time>
      </trkpt>
      <trkpt lat="45.77215" lon="4.97577">
        <ele>189</ele>
        <time>2020-09-14T14:29:16Z</time>
      </trkpt>
      <trkpt lat="45.77211" lon="4.97579">
        <ele>189</ele>
        <time>2020-09-14T14:29:16Z</time>
      </trkpt>
      <trkpt lat="45.77205" lon="4.97587">
        <ele>190</ele>
        <time>2020-09-14T14:29:18Z</time>
      </trkpt>
      <trkpt lat="45.77202" lon="4.97597">
        <ele>190</ele>
        <time>2020-09-14T14:29:19Z</time>
      </trkpt>
      <trkpt lat="45.77202" lon="4.9761">
        <ele>190</ele>
        <time>2020-09-14T14:29:21Z</time>
      </trkpt>
      <trkpt lat="45.77206" lon="4.9762">
        <ele>190</ele>
        <time>2020-09-14T14:29:22Z</time>
      </trkpt>
      <trkpt lat="45.77204" lon="4.97633">
        <ele>190</ele>
        <time>2020-09-14T14:29:24Z</time>
      </trkpt>
      <trkpt lat="45.77195" lon="4.97691">
        <ele>190</ele>
        <time>2020-09-14T14:29:31Z</time>
      </trkpt>
      <trkpt lat="45.77178" lon="4.97817">
        <ele>189</ele>
        <time>2020-09-14T14:29:47Z</time>
      </trkpt>
      <trkpt lat="45.77172" lon="4.97841">
        <ele>189</ele>
        <time>2020-09-14T14:29:50Z</time>
      </trkpt>
      <trkpt lat="45.7716" lon="4.97891">
        <ele>190</ele>
        <time>2020-09-14T14:29:57Z</time>
      </trkpt>
      <trkpt lat="45.77124" lon="4.98083">
        <ele>193</ele>
        <time>2020-09-14T14:30:22Z</time>
      </trkpt>
      <trkpt lat="45.77086" lon="4.98251">
        <ele>191</ele>
        <time>2020-09-14T14:30:44Z</time>
      </trkpt>
      <trkpt lat="45.77068" lon="4.98318">
        <ele>192</ele>
        <time>2020-09-14T14:30:52Z</time>
      </trkpt>
      <trkpt lat="45.77047" lon="4.98388">
        <ele>192</ele>
        <time>2020-09-14T14:31:02Z</time>
      </trkpt>
      <trkpt lat="45.77039" lon="4.98409">
        <ele>192</ele>
        <time>2020-09-14T14:31:05Z</time>
      </trkpt>
      <trkpt lat="45.77018" lon="4.98416">
        <ele>192</ele>
        <time>2020-09-14T14:31:09Z</time>
      </trkpt>
      <trkpt lat="45.77007" lon="4.98425">
        <ele>192</ele>
        <time>2020-09-14T14:31:11Z</time>
      </trkpt>
      <trkpt lat="45.76999" lon="4.98432">
        <ele>192</ele>
        <time>2020-09-14T14:31:13Z</time>
      </trkpt>
      <trkpt lat="45.76992" lon="4.9845">
        <ele>192</ele>
        <time>2020-09-14T14:31:15Z</time>
      </trkpt>
      <trkpt lat="45.76989" lon="4.98462">
        <ele>192</ele>
        <time>2020-09-14T14:31:17Z</time>
      </trkpt>
      <trkpt lat="45.76988" lon="4.98482">
        <ele>192</ele>
        <time>2020-09-14T14:31:19Z</time>
      </trkpt>
      <trkpt lat="45.76989" lon="4.98492">
        <ele>192</ele>
        <time>2020-09-14T14:31:21Z</time>
      </trkpt>
      <trkpt lat="45.76996" lon="4.98517">
        <ele>192</ele>
        <time>2020-09-14T14:31:24Z</time>
      </trkpt>
      <trkpt lat="45.77001" lon="4.98526">
        <ele>192</ele>
        <time>2020-09-14T14:31:25Z</time>
      </trkpt>
      <trkpt lat="45.77003" lon="4.9853">
        <ele>192</ele>
        <time>2020-09-14T14:31:26Z</time>
      </trkpt>
      <trkpt lat="45.77006" lon="4.9854">
        <ele>192</ele>
        <time>2020-09-14T14:31:27Z</time>
      </trkpt>
      <trkpt lat="45.77008" lon="4.98553">
        <ele>192</ele>
        <time>2020-09-14T14:31:29Z</time>
      </trkpt>
      <trkpt lat="45.77007" lon="4.98574">
        <ele>192</ele>
        <time>2020-09-14T14:31:32Z</time>
      </trkpt>
      <trkpt lat="45.77004" lon="4.98597">
        <ele>192</ele>
        <time>2020-09-14T14:31:34Z</time>
      </trkpt>
      <trkpt lat="45.76998" lon="4.98618">
        <ele>193</ele>
        <time>2020-09-14T14:31:37Z</time>
      </trkpt>
      <trkpt lat="45.76965" lon="4.9872">
        <ele>195</ele>
        <time>2020-09-14T14:31:51Z</time>
      </trkpt>
      <trkpt lat="45.76954" lon="4.98753">
        <ele>196</ele>
        <time>2020-09-14T14:31:56Z</time>
      </trkpt>
      <trkpt lat="45.7695" lon="4.98766">
        <ele>195</ele>
        <time>2020-09-14T14:31:57Z</time>
      </trkpt>
      <trkpt lat="45.76946" lon="4.98779">
        <ele>195</ele>
        <time>2020-09-14T14:31:59Z</time>
      </trkpt>
      <trkpt lat="45.76881" lon="4.98969">
        <ele>196</ele>
        <time>2020-09-14T14:32:26Z</time>
      </trkpt>
      <trkpt lat="45.76878" lon="4.98977">
        <ele>196</ele>
        <time>2020-09-14T14:32:27Z</time>
      </trkpt>
      <trkpt lat="45.76838" lon="4.99101">
        <ele>198</ele>
        <time>2020-09-14T14:32:44Z</time>
      </trkpt>
      <trkpt lat="45.76827" lon="4.99124">
        <ele>198</ele>
        <time>2020-09-14T14:32:47Z</time>
      </trkpt>
      <trkpt lat="45.76818" lon="4.99127">
        <ele>199</ele>
        <time>2020-09-14T14:32:49Z</time>
      </trkpt>
      <trkpt lat="45.76811" lon="4.99137">
        <ele>199</ele>
        <time>2020-09-14T14:32:50Z</time>
      </trkpt>
      <trkpt lat="45.76809" lon="4.99144">
        <ele>199</ele>
        <time>2020-09-14T14:32:51Z</time>
      </trkpt>
      <trkpt lat="45.76809" lon="4.99151">
        <ele>199</ele>
        <time>2020-09-14T14:32:52Z</time>
      </trkpt>
      <trkpt lat="45.7681" lon="4.9916">
        <ele>199</ele>
        <time>2020-09-14T14:32:53Z</time>
      </trkpt>
      <trkpt lat="45.76808" lon="4.99179">
        <ele>199</ele>
        <time>2020-09-14T14:32:56Z</time>
      </trkpt>
      <trkpt lat="45.76786" lon="4.99249">
        <ele>199</ele>
        <time>2020-09-14T14:33:05Z</time>
      </trkpt>
      <trkpt lat="45.76769" lon="4.99289">
        <ele>200</ele>
        <time>2020-09-14T14:33:11Z</time>
      </trkpt>
      <trkpt lat="45.76728" lon="4.99394">
        <ele>200</ele>
        <time>2020-09-14T14:33:26Z</time>
      </trkpt>
      <trkpt lat="45.7672" lon="4.99421">
        <ele>200</ele>
        <time>2020-09-14T14:33:30Z</time>
      </trkpt>
      <trkpt lat="45.76707" lon="4.99472">
        <ele>200</ele>
        <time>2020-09-14T14:33:36Z</time>
      </trkpt>
      <trkpt lat="45.76681" lon="4.99598">
        <ele>200</ele>
        <time>2020-09-14T14:33:53Z</time>
      </trkpt>
      <trkpt lat="45.76677" lon="4.99599">
        <ele>200</ele>
        <time>2020-09-14T14:33:53Z</time>
      </trkpt>
      <trkpt lat="45.76672" lon="4.99606">
        <ele>200</ele>
        <time>2020-09-14T14:33:55Z</time>
      </trkpt>
      <trkpt lat="45.76672" lon="4.99615">
        <ele>200</ele>
        <time>2020-09-14T14:33:56Z</time>
      </trkpt>
      <trkpt lat="45.76676" lon="4.99621">
        <ele>200</ele>
        <time>2020-09-14T14:33:57Z</time>
      </trkpt>
      <trkpt lat="45.76673" lon="4.99643">
        <ele>200</ele>
        <time>2020-09-14T14:34:00Z</time>
      </trkpt>
      <trkpt lat="45.76669" lon="4.99721">
        <ele>201</ele>
        <time>2020-09-14T14:34:09Z</time>
      </trkpt>
      <trkpt lat="45.76675" lon="4.9972">
        <ele>201</ele>
        <time>2020-09-14T14:34:10Z</time>
      </trkpt>
      <trkpt lat="45.76675" lon="4.99733">
        <ele>201</ele>
        <time>2020-09-14T14:34:12Z</time>
      </trkpt>
      <trkpt lat="45.76675" lon="4.99738">
        <ele>201</ele>
        <time>2020-09-14T14:34:13Z</time>
      </trkpt>
      <trkpt lat="45.76673" lon="4.99773">
        <ele>201</ele>
        <time>2020-09-14T14:34:17Z</time>
      </trkpt>
      <trkpt lat="45.76674" lon="4.99857">
        <ele>201</ele>
        <time>2020-09-14T14:34:27Z</time>
      </trkpt>
      <trkpt lat="45.76675" lon="4.99927">
        <ele>202</ele>
        <time>2020-09-14T14:34:36Z</time>
      </trkpt>
      <trkpt lat="45.76675" lon="4.99934">
        <ele>202</ele>
        <time>2020-09-14T14:34:37Z</time>
      </trkpt>
      <trkpt lat="45.76675" lon="5.00072">
        <ele>202</ele>
        <time>2020-09-14T14:34:54Z</time>
      </trkpt>
      <trkpt lat="45.76676" lon="5.00132">
        <ele>202</ele>
        <time>2020-09-14T14:35:02Z</time>
      </trkpt>
      <trkpt lat="45.76677" lon="5.00206">
        <ele>203</ele>
        <time>2020-09-14T14:35:11Z</time>
      </trkpt>
      <trkpt lat="45.76668" lon="5.00373">
        <ele>203</ele>
        <time>2020-09-14T14:35:32Z</time>
      </trkpt>
      <trkpt lat="45.76648" lon="5.00497">
        <ele>204</ele>
        <time>2020-09-14T14:35:47Z</time>
      </trkpt>
      <trkpt lat="45.76643" lon="5.00514">
        <ele>204</ele>
        <time>2020-09-14T14:35:50Z</time>
      </trkpt>
      <trkpt lat="45.76629" lon="5.00546">
        <ele>205</ele>
        <time>2020-09-14T14:35:54Z</time>
      </trkpt>
      <trkpt lat="45.7662" lon="5.00559">
        <ele>204</ele>
        <time>2020-09-14T14:35:57Z</time>
      </trkpt>
      <trkpt lat="45.76613" lon="5.00577">
        <ele>204</ele>
        <time>2020-09-14T14:35:59Z</time>
      </trkpt>
      <trkpt lat="45.76609" lon="5.00597">
        <ele>204</ele>
        <time>2020-09-14T14:36:02Z</time>
      </trkpt>
      <trkpt lat="45.76612" lon="5.00628">
        <ele>204</ele>
        <time>2020-09-14T14:36:06Z</time>
      </trkpt>
      <trkpt lat="45.76527" lon="5.00974">
        <ele>205</ele>
        <time>2020-09-14T14:36:51Z</time>
      </trkpt>
      <trkpt lat="45.76483" lon="5.0114">
        <ele>205</ele>
        <time>2020-09-14T14:37:13Z</time>
      </trkpt>
      <trkpt lat="45.76475" lon="5.01155">
        <ele>205</ele>
        <time>2020-09-14T14:37:16Z</time>
      </trkpt>
      <trkpt lat="45.76471" lon="5.01156">
        <ele>206</ele>
        <time>2020-09-14T14:37:16Z</time>
      </trkpt>
      <trkpt lat="45.76465" lon="5.01163">
        <ele>206</ele>
        <time>2020-09-14T14:37:18Z</time>
      </trkpt>
      <trkpt lat="45.76463" lon="5.01169">
        <ele>206</ele>
        <time>2020-09-14T14:37:18Z</time>
      </trkpt>
      <trkpt lat="45.76462" lon="5.01174">
        <ele>206</ele>
        <time>2020-09-14T14:37:19Z</time>
      </trkpt>
      <trkpt lat="45.76464" lon="5.01185">
        <ele>206</ele>
        <time>2020-09-14T14:37:21Z</time>
      </trkpt>
      <trkpt lat="45.76467" lon="5.01189">
        <ele>206</ele>
        <time>2020-09-14T14:37:21Z</time>
      </trkpt>
      <trkpt lat="45.76463" lon="5.01209">
        <ele>206</ele>
        <time>2020-09-14T14:37:24Z</time>
      </trkpt>
      <trkpt lat="45.76357" lon="5.01569">
        <ele>205</ele>
        <time>2020-09-14T14:38:12Z</time>
      </trkpt>
      <trkpt lat="45.76311" lon="5.01743">
        <ele>206</ele>
        <time>2020-09-14T14:38:35Z</time>
      </trkpt>
      <trkpt lat="45.76305" lon="5.01756">
        <ele>207</ele>
        <time>2020-09-14T14:38:37Z</time>
      </trkpt>
      <trkpt lat="45.7626" lon="5.01933">
        <ele>206</ele>
        <time>2020-09-14T14:39:01Z</time>
      </trkpt>
      <trkpt lat="45.76253" lon="5.01946">
        <ele>206</ele>
        <time>2020-09-14T14:39:03Z</time>
      </trkpt>
      <trkpt lat="45.7625" lon="5.01962">
        <ele>206</ele>
        <time>2020-09-14T14:39:05Z</time>
      </trkpt>
      <trkpt lat="45.76249" lon="5.01977">
        <ele>206</ele>
        <time>2020-09-14T14:39:07Z</time>
      </trkpt>
      <trkpt lat="45.76212" lon="5.02119">
        <ele>206</ele>
        <time>2020-09-14T14:39:26Z</time>
      </trkpt>
      <trkpt lat="45.76183" lon="5.02218">
        <ele>206</ele>
        <time>2020-09-14T14:39:39Z</time>
      </trkpt>
      <trkpt lat="45.76181" lon="5.02235">
        <ele>206</ele>
        <time>2020-09-14T14:39:41Z</time>
      </trkpt>
      <trkpt lat="45.76164" lon="5.02286">
        <ele>206</ele>
        <time>2020-09-14T14:39:48Z</time>
      </trkpt>
      <trkpt lat="45.76156" lon="5.02302">
        <ele>207</ele>
        <time>2020-09-14T14:39:50Z</time>
      </trkpt>
      <trkpt lat="45.76148" lon="5.0233">
        <ele>207</ele>
        <time>2020-09-14T14:39:54Z</time>
      </trkpt>
      <trkpt lat="45.76106" lon="5.02506">
        <ele>206</ele>
        <time>2020-09-14T14:40:17Z</time>
      </trkpt>
      <trkpt lat="45.76097" lon="5.02512">
        <ele>207</ele>
        <time>2020-09-14T14:40:19Z</time>
      </trkpt>
      <trkpt lat="45.76095" lon="5.02516">
        <ele>207</ele>
        <time>2020-09-14T14:40:20Z</time>
      </trkpt>
      <trkpt lat="45.76092" lon="5.02528">
        <ele>207</ele>
        <time>2020-09-14T14:40:21Z</time>
      </trkpt>
      <trkpt lat="45.76095" lon="5.0254">
        <ele>207</ele>
        <time>2020-09-14T14:40:23Z</time>
      </trkpt>
      <trkpt lat="45.76097" lon="5.02545">
        <ele>208</ele>
        <time>2020-09-14T14:40:24Z</time>
      </trkpt>
      <trkpt lat="45.76098" lon="5.02564">
        <ele>208</ele>
        <time>2020-09-14T14:40:26Z</time>
      </trkpt>
      <trkpt lat="45.76092" lon="5.02635">
        <ele>208</ele>
        <time>2020-09-14T14:40:35Z</time>
      </trkpt>
      <trkpt lat="45.76089" lon="5.0269">
        <ele>207</ele>
        <time>2020-09-14T14:40:42Z</time>
      </trkpt>
      <trkpt lat="45.76069" lon="5.02873">
        <ele>206</ele>
        <time>2020-09-14T14:41:05Z</time>
      </trkpt>
      <trkpt lat="45.76065" lon="5.02917">
        <ele>207</ele>
        <time>2020-09-14T14:41:10Z</time>
      </trkpt>
      <trkpt lat="45.76047" lon="5.02993">
        <ele>207</ele>
        <time>2020-09-14T14:41:20Z</time>
      </trkpt>
      <trkpt lat="45.76025" lon="5.03039">
        <ele>207</ele>
        <time>2020-09-14T14:41:27Z</time>
      </trkpt>
      <trkpt lat="45.76014" lon="5.0305">
        <ele>207</ele>
        <time>2020-09-14T14:41:29Z</time>
      </trkpt>
      <trkpt lat="45.76004" lon="5.03055">
        <ele>207</ele>
        <time>2020-09-14T14:41:31Z</time>
      </trkpt>
      <trkpt lat="45.75998" lon="5.03066">
        <ele>206</ele>
        <time>2020-09-14T14:41:33Z</time>
      </trkpt>
      <trkpt lat="45.75997" lon="5.03078">
        <ele>206</ele>
        <time>2020-09-14T14:41:35Z</time>
      </trkpt>
      <trkpt lat="45.75998" lon="5.03086">
        <ele>206</ele>
        <time>2020-09-14T14:41:36Z</time>
      </trkpt>
      <trkpt lat="45.76001" lon="5.03092">
        <ele>206</ele>
        <time>2020-09-14T14:41:36Z</time>
      </trkpt>
      <trkpt lat="45.76002" lon="5.03107">
        <ele>207</ele>
        <time>2020-09-14T14:41:38Z</time>
      </trkpt>
      <trkpt lat="45.75998" lon="5.03133">
        <ele>207</ele>
        <time>2020-09-14T14:41:42Z</time>
      </trkpt>
      <trkpt lat="45.75998" lon="5.03148">
        <ele>208</ele>
        <time>2020-09-14T14:41:44Z</time>
      </trkpt>
      <trkpt lat="45.75999" lon="5.03175">
        <ele>208</ele>
        <time>2020-09-14T14:41:47Z</time>
      </trkpt>
      <trkpt lat="45.76009" lon="5.03218">
        <ele>207</ele>
        <time>2020-09-14T14:41:53Z</time>
      </trkpt>
      <trkpt lat="45.76014" lon="5.03248">
        <ele>207</ele>
        <time>2020-09-14T14:41:56Z</time>
      </trkpt>
      <trkpt lat="45.76018" lon="5.03279">
        <ele>207</ele>
        <time>2020-09-14T14:42:00Z</time>
      </trkpt>
      <trkpt lat="45.76019" lon="5.0332">
        <ele>206</ele>
        <time>2020-09-14T14:42:05Z</time>
      </trkpt>
      <trkpt lat="45.76012" lon="5.03406">
        <ele>204</ele>
        <time>2020-09-14T14:42:16Z</time>
      </trkpt>
      <trkpt lat="45.75991" lon="5.03602">
        <ele>205</ele>
        <time>2020-09-14T14:42:41Z</time>
      </trkpt>
      <trkpt lat="45.75986" lon="5.03631">
        <ele>205</ele>
        <time>2020-09-14T14:42:44Z</time>
      </trkpt>
      <trkpt lat="45.75968" lon="5.03784">
        <ele>207</ele>
        <time>2020-09-14T14:43:04Z</time>
      </trkpt>
      <trkpt lat="45.75963" lon="5.03845">
        <ele>208</ele>
        <time>2020-09-14T14:43:11Z</time>
      </trkpt>
      <trkpt lat="45.7596" lon="5.03934">
        <ele>209</ele>
        <time>2020-09-14T14:43:22Z</time>
      </trkpt>
      <trkpt lat="45.75957" lon="5.03952">
        <ele>209</ele>
        <time>2020-09-14T14:43:25Z</time>
      </trkpt>
      <trkpt lat="45.7595" lon="5.03959">
        <ele>209</ele>
        <time>2020-09-14T14:43:26Z</time>
      </trkpt>
      <trkpt lat="45.75946" lon="5.03962">
        <ele>209</ele>
        <time>2020-09-14T14:43:27Z</time>
      </trkpt>
      <trkpt lat="45.75941" lon="5.03962">
        <ele>209</ele>
        <time>2020-09-14T14:43:28Z</time>
      </trkpt>
      <trkpt lat="45.75933" lon="5.03968">
        <ele>209</ele>
        <time>2020-09-14T14:43:29Z</time>
      </trkpt>
      <trkpt lat="45.75928" lon="5.03979">
        <ele>210</ele>
        <time>2020-09-14T14:43:31Z</time>
      </trkpt>
      <trkpt lat="45.75929" lon="5.03992">
        <ele>210</ele>
        <time>2020-09-14T14:43:33Z</time>
      </trkpt>
      <trkpt lat="45.75932" lon="5.04001">
        <ele>210</ele>
        <time>2020-09-14T14:43:34Z</time>
      </trkpt>
      <trkpt lat="45.75936" lon="5.04005">
        <ele>210</ele>
        <time>2020-09-14T14:43:35Z</time>
      </trkpt>
      <trkpt lat="45.75941" lon="5.04008">
        <ele>210</ele>
        <time>2020-09-14T14:43:36Z</time>
      </trkpt>
      <trkpt lat="45.75946" lon="5.04008">
        <ele>210</ele>
        <time>2020-09-14T14:43:37Z</time>
      </trkpt>
      <trkpt lat="45.75948" lon="5.04007">
        <ele>210</ele>
        <time>2020-09-14T14:43:37Z</time>
      </trkpt>
      <trkpt lat="45.75956" lon="5.04015">
        <ele>210</ele>
        <time>2020-09-14T14:43:39Z</time>
      </trkpt>
      <trkpt lat="45.75959" lon="5.04025">
        <ele>210</ele>
        <time>2020-09-14T14:43:40Z</time>
      </trkpt>
      <trkpt lat="45.75961" lon="5.04036">
        <ele>210</ele>
        <time>2020-09-14T14:43:42Z</time>
      </trkpt>
      <trkpt lat="45.75962" lon="5.04046">
        <ele>210</ele>
        <time>2020-09-14T14:43:43Z</time>
      </trkpt>
      <trkpt lat="45.75962" lon="5.04064">
        <ele>210</ele>
        <time>2020-09-14T14:43:45Z</time>
      </trkpt>
      <trkpt lat="45.75965" lon="5.04255">
        <ele>209</ele>
        <time>2020-09-14T14:44:09Z</time>
      </trkpt>
      <trkpt lat="45.75968" lon="5.04329">
        <ele>209</ele>
        <time>2020-09-14T14:44:18Z</time>
      </trkpt>
      <trkpt lat="45.75973" lon="5.04401">
        <ele>209</ele>
        <time>2020-09-14T14:44:27Z</time>
      </trkpt>
      <trkpt lat="45.75978" lon="5.04467">
        <ele>209</ele>
        <time>2020-09-14T14:44:35Z</time>
      </trkpt>
      <trkpt lat="45.75993" lon="5.0463">
        <ele>210</ele>
        <time>2020-09-14T14:44:56Z</time>
      </trkpt>
      <trkpt lat="45.75996" lon="5.04665">
        <ele>210</ele>
        <time>2020-09-14T14:45:00Z</time>
      </trkpt>
      <trkpt lat="45.76005" lon="5.04777">
        <ele>213</ele>
        <time>2020-09-14T14:45:14Z</time>
      </trkpt>
      <trkpt lat="45.76013" lon="5.04858">
        <ele>213</ele>
        <time>2020-09-14T14:45:24Z</time>
      </trkpt>
      <trkpt lat="45.76016" lon="5.04932">
        <ele>212</ele>
        <time>2020-09-14T14:45:33Z</time>
      </trkpt>
      <trkpt lat="45.76016" lon="5.04988">
        <ele>213</ele>
        <time>2020-09-14T14:45:40Z</time>
      </trkpt>
      <trkpt lat="45.76017" lon="5.05188">
        <ele>212</ele>
        <time>2020-09-14T14:46:05Z</time>
      </trkpt>
      <trkpt lat="45.76002" lon="5.05204">
        <ele>213</ele>
        <time>2020-09-14T14:46:08Z</time>
      </trkpt>
      <trkpt lat="45.75998" lon="5.05204">
        <ele>213</ele>
        <time>2020-09-14T14:46:09Z</time>
      </trkpt>
      <trkpt lat="45.75994" lon="5.05206">
        <ele>213</ele>
        <time>2020-09-14T14:46:10Z</time>
      </trkpt>
      <trkpt lat="45.7599" lon="5.0521">
        <ele>213</ele>
        <time>2020-09-14T14:46:11Z</time>
      </trkpt>
      <trkpt lat="45.75987" lon="5.05215">
        <ele>213</ele>
        <time>2020-09-14T14:46:12Z</time>
      </trkpt>
      <trkpt lat="45.75984" lon="5.05228">
        <ele>212</ele>
        <time>2020-09-14T14:46:13Z</time>
      </trkpt>
      <trkpt lat="45.75984" lon="5.05234">
        <ele>212</ele>
        <time>2020-09-14T14:46:14Z</time>
      </trkpt>
      <trkpt lat="45.75987" lon="5.05244">
        <ele>212</ele>
        <time>2020-09-14T14:46:15Z</time>
      </trkpt>
      <trkpt lat="45.7599" lon="5.05247">
        <ele>212</ele>
        <time>2020-09-14T14:46:16Z</time>
      </trkpt>
      <trkpt lat="45.75994" lon="5.05251">
        <ele>212</ele>
        <time>2020-09-14T14:46:17Z</time>
      </trkpt>
      <trkpt lat="45.76004" lon="5.05254">
        <ele>212</ele>
        <time>2020-09-14T14:46:19Z</time>
      </trkpt>
      <trkpt lat="45.76009" lon="5.05252">
        <ele>212</ele>
        <time>2020-09-14T14:46:20Z</time>
      </trkpt>
      <trkpt lat="45.76017" lon="5.05269">
        <ele>212</ele>
        <time>2020-09-14T14:46:22Z</time>
      </trkpt>
      <trkpt lat="45.76022" lon="5.05279">
        <ele>212</ele>
        <time>2020-09-14T14:46:24Z</time>
      </trkpt>
      <trkpt lat="45.76036" lon="5.05373">
        <ele>212</ele>
        <time>2020-09-14T14:46:36Z</time>
      </trkpt>
      <trkpt lat="45.76066" lon="5.0559">
        <ele>214</ele>
        <time>2020-09-14T14:47:03Z</time>
      </trkpt>
      <trkpt lat="45.76073" lon="5.05655">
        <ele>213</ele>
        <time>2020-09-14T14:47:11Z</time>
      </trkpt>
      <trkpt lat="45.76076" lon="5.05681">
        <ele>213</ele>
        <time>2020-09-14T14:47:15Z</time>
      </trkpt>
      <trkpt lat="45.76076" lon="5.05705">
        <ele>214</ele>
        <time>2020-09-14T14:47:18Z</time>
      </trkpt>
      <trkpt lat="45.76073" lon="5.05744">
        <ele>214</ele>
        <time>2020-09-14T14:47:22Z</time>
      </trkpt>
      <trkpt lat="45.76067" lon="5.0578">
        <ele>214</ele>
        <time>2020-09-14T14:47:27Z</time>
      </trkpt>
      <trkpt lat="45.76061" lon="5.05813">
        <ele>214</ele>
        <time>2020-09-14T14:47:31Z</time>
      </trkpt>
      <trkpt lat="45.76032" lon="5.05955">
        <ele>212</ele>
        <time>2020-09-14T14:47:50Z</time>
      </trkpt>
      <trkpt lat="45.76003" lon="5.06071">
        <ele>212</ele>
        <time>2020-09-14T14:48:05Z</time>
      </trkpt>
      <trkpt lat="45.7599" lon="5.06122">
        <ele>212</ele>
        <time>2020-09-14T14:48:12Z</time>
      </trkpt>
      <trkpt lat="45.75973" lon="5.06178">
        <ele>212</ele>
        <time>2020-09-14T14:48:19Z</time>
      </trkpt>
      <trkpt lat="45.75966" lon="5.06199">
        <ele>212</ele>
        <time>2020-09-14T14:48:22Z</time>
      </trkpt>
      <trkpt lat="45.75962" lon="5.06214">
        <ele>212</ele>
        <time>2020-09-14T14:48:24Z</time>
      </trkpt>
      <trkpt lat="45.75959" lon="5.06223">
        <ele>212</ele>
        <time>2020-09-14T14:48:25Z</time>
      </trkpt>
      <trkpt lat="45.75951" lon="5.06248">
        <ele>212</ele>
        <time>2020-09-14T14:48:29Z</time>
      </trkpt>
      <trkpt lat="45.75946" lon="5.06262">
        <ele>212</ele>
        <time>2020-09-14T14:48:31Z</time>
      </trkpt>
      <trkpt lat="45.75907" lon="5.06388">
        <ele>210</ele>
        <time>2020-09-14T14:48:48Z</time>
      </trkpt>
      <trkpt lat="45.7587" lon="5.06495">
        <ele>211</ele>
        <time>2020-09-14T14:49:03Z</time>
      </trkpt>
      <trkpt lat="45.75865" lon="5.0651">
        <ele>210</ele>
        <time>2020-09-14T14:49:05Z</time>
      </trkpt>
      <trkpt lat="45.75844" lon="5.06568">
        <ele>210</ele>
        <time>2020-09-14T14:49:13Z</time>
      </trkpt>
      <trkpt lat="45.75819" lon="5.06647">
        <ele>209</ele>
        <time>2020-09-14T14:49:24Z</time>
      </trkpt>
      <trkpt lat="45.75808" lon="5.06701">
        <ele>209</ele>
        <time>2020-09-14T14:49:31Z</time>
      </trkpt>
      <trkpt lat="45.75807" lon="5.06709">
        <ele>208</ele>
        <time>2020-09-14T14:49:32Z</time>
      </trkpt>
      <trkpt lat="45.75806" lon="5.06714">
        <ele>208</ele>
        <time>2020-09-14T14:49:32Z</time>
      </trkpt>
      <trkpt lat="45.75803" lon="5.06727">
        <ele>208</ele>
        <time>2020-09-14T14:49:34Z</time>
      </trkpt>
      <trkpt lat="45.75799" lon="5.06747">
        <ele>208</ele>
        <time>2020-09-14T14:49:36Z</time>
      </trkpt>
      <trkpt lat="45.75797" lon="5.06754">
        <ele>208</ele>
        <time>2020-09-14T14:49:37Z</time>
      </trkpt>
      <trkpt lat="45.75796" lon="5.0676">
        <ele>208</ele>
        <time>2020-09-14T14:49:38Z</time>
      </trkpt>
      <trkpt lat="45.75793" lon="5.06775">
        <ele>208</ele>
        <time>2020-09-14T14:49:40Z</time>
      </trkpt>
      <trkpt lat="45.75789" lon="5.06798">
        <ele>207</ele>
        <time>2020-09-14T14:49:43Z</time>
      </trkpt>
      <trkpt lat="45.75787" lon="5.06816">
        <ele>207</ele>
        <time>2020-09-14T14:49:45Z</time>
      </trkpt>
      <trkpt lat="45.75783" lon="5.06857">
        <ele>207</ele>
        <time>2020-09-14T14:49:50Z</time>
      </trkpt>
      <trkpt lat="45.75781" lon="5.06874">
        <ele>207</ele>
        <time>2020-09-14T14:49:53Z</time>
      </trkpt>
      <trkpt lat="45.75778" lon="5.06902">
        <ele>207</ele>
        <time>2020-09-14T14:49:56Z</time>
      </trkpt>
      <trkpt lat="45.75775" lon="5.06917">
        <ele>207</ele>
        <time>2020-09-14T14:49:58Z</time>
      </trkpt>
      <trkpt lat="45.75746" lon="5.07058">
        <ele>208</ele>
        <time>2020-09-14T14:50:16Z</time>
      </trkpt>
      <trkpt lat="45.75736" lon="5.071">
        <ele>208</ele>
        <time>2020-09-14T14:50:22Z</time>
      </trkpt>
      <trkpt lat="45.7569" lon="5.0729">
        <ele>208</ele>
        <time>2020-09-14T14:50:47Z</time>
      </trkpt>
      <trkpt lat="45.75643" lon="5.07505">
        <ele>209</ele>
        <time>2020-09-14T14:51:15Z</time>
      </trkpt>
      <trkpt lat="45.75618" lon="5.07616">
        <ele>211</ele>
        <time>2020-09-14T14:51:29Z</time>
      </trkpt>
      <trkpt lat="45.756" lon="5.07713">
        <ele>212</ele>
        <time>2020-09-14T14:51:42Z</time>
      </trkpt>
      <trkpt lat="45.75584" lon="5.07833">
        <ele>214</ele>
        <time>2020-09-14T14:51:57Z</time>
      </trkpt>
      <trkpt lat="45.75566" lon="5.07912">
        <ele>216</ele>
        <time>2020-09-14T14:52:07Z</time>
      </trkpt>
      <trkpt lat="45.75524" lon="5.08035">
        <ele>216</ele>
        <time>2020-09-14T14:52:24Z</time>
      </trkpt>
      <trkpt lat="45.75503" lon="5.08092">
        <ele>217</ele>
        <time>2020-09-14T14:52:32Z</time>
      </trkpt>
      <trkpt lat="45.75457" lon="5.08201">
        <ele>217</ele>
        <time>2020-09-14T14:52:48Z</time>
      </trkpt>
      <trkpt lat="45.75435" lon="5.08252">
        <ele>218</ele>
        <time>2020-09-14T14:52:55Z</time>
      </trkpt>
      <trkpt lat="45.75415" lon="5.08296">
        <ele>218</ele>
        <time>2020-09-14T14:53:02Z</time>
      </trkpt>
      <trkpt lat="45.75391" lon="5.08344">
        <ele>218</ele>
        <time>2020-09-14T14:53:09Z</time>
      </trkpt>
      <trkpt lat="45.75362" lon="5.08387">
        <ele>219</ele>
        <time>2020-09-14T14:53:17Z</time>
      </trkpt>
      <trkpt lat="45.75349" lon="5.08401">
        <ele>219</ele>
        <time>2020-09-14T14:53:20Z</time>
      </trkpt>
      <trkpt lat="45.75342" lon="5.084">
        <ele>219</ele>
        <time>2020-09-14T14:53:21Z</time>
      </trkpt>
      <trkpt lat="45.75335" lon="5.08401">
        <ele>219</ele>
        <time>2020-09-14T14:53:22Z</time>
      </trkpt>
      <trkpt lat="45.75329" lon="5.08405">
        <ele>219</ele>
        <time>2020-09-14T14:53:23Z</time>
      </trkpt>
      <trkpt lat="45.75325" lon="5.08412">
        <ele>219</ele>
        <time>2020-09-14T14:53:24Z</time>
      </trkpt>
      <trkpt lat="45.75321" lon="5.0842">
        <ele>219</ele>
        <time>2020-09-14T14:53:26Z</time>
      </trkpt>
      <trkpt lat="45.7532" lon="5.08429">
        <ele>219</ele>
        <time>2020-09-14T14:53:27Z</time>
      </trkpt>
      <trkpt lat="45.7532" lon="5.08437">
        <ele>219</ele>
        <time>2020-09-14T14:53:28Z</time>
      </trkpt>
      <trkpt lat="45.75325" lon="5.08451">
        <ele>219</ele>
        <time>2020-09-14T14:53:30Z</time>
      </trkpt>
      <trkpt lat="45.7532" lon="5.08473">
        <ele>219</ele>
        <time>2020-09-14T14:53:33Z</time>
      </trkpt>
      <trkpt lat="45.75311" lon="5.08495">
        <ele>219</ele>
        <time>2020-09-14T14:53:36Z</time>
      </trkpt>
      <trkpt lat="45.75282" lon="5.08566">
        <ele>218</ele>
        <time>2020-09-14T14:53:46Z</time>
      </trkpt>
      <trkpt lat="45.7525" lon="5.08645">
        <ele>219</ele>
        <time>2020-09-14T14:53:57Z</time>
      </trkpt>
      <trkpt lat="45.75242" lon="5.08668">
        <ele>220</ele>
        <time>2020-09-14T14:54:01Z</time>
      </trkpt>
      <trkpt lat="45.75228" lon="5.08709">
        <ele>220</ele>
        <time>2020-09-14T14:54:06Z</time>
      </trkpt>
      <trkpt lat="45.75211" lon="5.08769">
        <ele>221</ele>
        <time>2020-09-14T14:54:14Z</time>
      </trkpt>
      <trkpt lat="45.75201" lon="5.0882">
        <ele>222</ele>
        <time>2020-09-14T14:54:21Z</time>
      </trkpt>
      <trkpt lat="45.7517" lon="5.08947">
        <ele>222</ele>
        <time>2020-09-14T14:54:38Z</time>
      </trkpt>
      <trkpt lat="45.75158" lon="5.09014">
        <ele>223</ele>
        <time>2020-09-14T14:54:46Z</time>
      </trkpt>
      <trkpt lat="45.75145" lon="5.091">
        <ele>224</ele>
        <time>2020-09-14T14:54:57Z</time>
      </trkpt>
      <trkpt lat="45.75138" lon="5.09177">
        <ele>225</ele>
        <time>2020-09-14T14:55:07Z</time>
      </trkpt>
      <trkpt lat="45.75135" lon="5.09284">
        <ele>226</ele>
        <time>2020-09-14T14:55:20Z</time>
      </trkpt>
      <trkpt lat="45.75136" lon="5.09353">
        <ele>227</ele>
        <time>2020-09-14T14:55:29Z</time>
      </trkpt>
      <trkpt lat="45.75138" lon="5.09419">
        <ele>228</ele>
        <time>2020-09-14T14:55:37Z</time>
      </trkpt>
      <trkpt lat="45.7514" lon="5.09512">
        <ele>228</ele>
        <time>2020-09-14T14:55:48Z</time>
      </trkpt>
      <trkpt lat="45.75141" lon="5.09531">
        <ele>228</ele>
        <time>2020-09-14T14:55:51Z</time>
      </trkpt>
      <trkpt lat="45.75149" lon="5.0964">
        <ele>230</ele>
        <time>2020-09-14T14:56:04Z</time>
      </trkpt>
      <trkpt lat="45.75154" lon="5.09682">
        <ele>231</ele>
        <time>2020-09-14T14:56:10Z</time>
      </trkpt>
      <trkpt lat="45.75161" lon="5.09735">
        <ele>233</ele>
        <time>2020-09-14T14:56:16Z</time>
      </trkpt>
      <trkpt lat="45.75163" lon="5.09762">
        <ele>234</ele>
        <time>2020-09-14T14:56:20Z</time>
      </trkpt>
      <trkpt lat="45.75165" lon="5.09781">
        <ele>234</ele>
        <time>2020-09-14T14:56:22Z</time>
      </trkpt>
      <trkpt lat="45.75168" lon="5.09858">
        <ele>234</ele>
        <time>2020-09-14T14:56:32Z</time>
      </trkpt>
      <trkpt lat="45.75175" lon="5.09949">
        <ele>235</ele>
        <time>2020-09-14T14:56:43Z</time>
      </trkpt>
      <trkpt lat="45.75186" lon="5.10045">
        <ele>234</ele>
        <time>2020-09-14T14:56:55Z</time>
      </trkpt>
      <trkpt lat="45.75191" lon="5.10104">
        <ele>234</ele>
        <time>2020-09-14T14:57:02Z</time>
      </trkpt>
      <trkpt lat="45.75198" lon="5.10174">
        <ele>234</ele>
        <time>2020-09-14T14:57:11Z</time>
      </trkpt>
      <trkpt lat="45.75212" lon="5.10253">
        <ele>234</ele>
        <time>2020-09-14T14:57:21Z</time>
      </trkpt>
      <trkpt lat="45.75219" lon="5.10333">
        <ele>235</ele>
        <time>2020-09-14T14:57:31Z</time>
      </trkpt>
      <trkpt lat="45.7523" lon="5.10423">
        <ele>236</ele>
        <time>2020-09-14T14:57:43Z</time>
      </trkpt>
      <trkpt lat="45.75239" lon="5.10483">
        <ele>237</ele>
        <time>2020-09-14T14:57:50Z</time>
      </trkpt>
      <trkpt lat="45.75251" lon="5.1056">
        <ele>238</ele>
        <time>2020-09-14T14:58:00Z</time>
      </trkpt>
      <trkpt lat="45.75257" lon="5.10622">
        <ele>239</ele>
        <time>2020-09-14T14:58:08Z</time>
      </trkpt>
      <trkpt lat="45.75261" lon="5.10682">
        <ele>240</ele>
        <time>2020-09-14T14:58:15Z</time>
      </trkpt>
      <trkpt lat="45.75266" lon="5.10765">
        <ele>239</ele>
        <time>2020-09-14T14:58:26Z</time>
      </trkpt>
      <trkpt lat="45.75266" lon="5.10779">
        <ele>239</ele>
        <time>2020-09-14T14:58:27Z</time>
      </trkpt>
      <trkpt lat="45.75258" lon="5.10845">
        <ele>239</ele>
        <time>2020-09-14T14:58:36Z</time>
      </trkpt>
      <trkpt lat="45.75252" lon="5.10885">
        <ele>240</ele>
        <time>2020-09-14T14:58:41Z</time>
      </trkpt>
      <trkpt lat="45.75247" lon="5.1093">
        <ele>240</ele>
        <time>2020-09-14T14:58:46Z</time>
      </trkpt>
      <trkpt lat="45.75246" lon="5.10974">
        <ele>239</ele>
        <time>2020-09-14T14:58:52Z</time>
      </trkpt>
      <trkpt lat="45.75247" lon="5.11004">
        <ele>239</ele>
        <time>2020-09-14T14:58:56Z</time>
      </trkpt>
      <trkpt lat="45.75247" lon="5.11014">
        <ele>239</ele>
        <time>2020-09-14T14:58:57Z</time>
      </trkpt>
      <trkpt lat="45.75252" lon="5.11047">
        <ele>238</ele>
        <time>2020-09-14T14:59:01Z</time>
      </trkpt>
      <trkpt lat="45.75256" lon="5.11077">
        <ele>238</ele>
        <time>2020-09-14T14:59:05Z</time>
      </trkpt>
      <trkpt lat="45.75258" lon="5.11089">
        <ele>238</ele>
        <time>2020-09-14T14:59:06Z</time>
      </trkpt>
      <trkpt lat="45.75259" lon="5.11098">
        <ele>237</ele>
        <time>2020-09-14T14:59:08Z</time>
      </trkpt>
      <trkpt lat="45.75259" lon="5.11102">
        <ele>237</ele>
        <time>2020-09-14T14:59:08Z</time>
      </trkpt>
      <trkpt lat="45.75261" lon="5.11127">
        <ele>237</ele>
        <time>2020-09-14T14:59:11Z</time>
      </trkpt>
      <trkpt lat="45.7526" lon="5.11147">
        <ele>237</ele>
        <time>2020-09-14T14:59:14Z</time>
      </trkpt>
      <trkpt lat="45.75255" lon="5.11175">
        <ele>237</ele>
        <time>2020-09-14T14:59:17Z</time>
      </trkpt>
      <trkpt lat="45.75255" lon="5.11181">
        <ele>237</ele>
        <time>2020-09-14T14:59:18Z</time>
      </trkpt>
      <trkpt lat="45.7525" lon="5.11214">
        <ele>236</ele>
        <time>2020-09-14T14:59:22Z</time>
      </trkpt>
      <trkpt lat="45.75248" lon="5.11233">
        <ele>236</ele>
        <time>2020-09-14T14:59:25Z</time>
      </trkpt>
      <trkpt lat="45.75248" lon="5.11303">
        <ele>235</ele>
        <time>2020-09-14T14:59:33Z</time>
      </trkpt>
      <trkpt lat="45.75245" lon="5.11402">
        <ele>236</ele>
        <time>2020-09-14T14:59:46Z</time>
      </trkpt>
      <trkpt lat="45.75243" lon="5.11479">
        <ele>237</ele>
        <time>2020-09-14T14:59:55Z</time>
      </trkpt>
      <trkpt lat="45.7524" lon="5.11581">
        <ele>237</ele>
        <time>2020-09-14T15:00:08Z</time>
      </trkpt>
      <trkpt lat="45.7524" lon="5.11596">
        <ele>237</ele>
        <time>2020-09-14T15:00:10Z</time>
      </trkpt>
      <trkpt lat="45.75208" lon="5.11582">
        <ele>237</ele>
        <time>2020-09-14T15:00:16Z</time>
      </trkpt>
      <trkpt lat="45.75197" lon="5.11618">
        <ele>237</ele>
        <time>2020-09-14T15:00:20Z</time>
      </trkpt>
      <trkpt lat="45.75185" lon="5.11687">
        <ele>238</ele>
        <time>2020-09-14T15:00:29Z</time>
      </trkpt>
      <trkpt lat="45.75183" lon="5.11726">
        <ele>238</ele>
        <time>2020-09-14T15:00:34Z</time>
      </trkpt>
      <trkpt lat="45.75181" lon="5.11747">
        <ele>238</ele>
        <time>2020-09-14T15:00:37Z</time>
      </trkpt>
      <trkpt lat="45.75176" lon="5.11807">
        <ele>239</ele>
        <time>2020-09-14T15:00:44Z</time>
      </trkpt>
      <trkpt lat="45.75173" lon="5.11832">
        <ele>239</ele>
        <time>2020-09-14T15:00:47Z</time>
      </trkpt>
      <trkpt lat="45.75159" lon="5.11914">
        <ele>238</ele>
        <time>2020-09-14T15:00:58Z</time>
      </trkpt>
      <trkpt lat="45.75151" lon="5.11956">
        <ele>238</ele>
        <time>2020-09-14T15:01:03Z</time>
      </trkpt>
      <trkpt lat="45.75143" lon="5.11991">
        <ele>238</ele>
        <time>2020-09-14T15:01:08Z</time>
      </trkpt>
      <trkpt lat="45.75131" lon="5.12021">
        <ele>239</ele>
        <time>2020-09-14T15:01:12Z</time>
      </trkpt>
      <trkpt lat="45.7511" lon="5.12042">
        <ele>240</ele>
        <time>2020-09-14T15:01:17Z</time>
      </trkpt>
      <trkpt lat="45.75081" lon="5.12069">
        <ele>240</ele>
        <time>2020-09-14T15:01:23Z</time>
      </trkpt>
      <trkpt lat="45.74817" lon="5.12292">
        <ele>241</ele>
        <time>2020-09-14T15:02:17Z</time>
      </trkpt>
      <trkpt lat="45.74782" lon="5.12366">
        <ele>241</ele>
        <time>2020-09-14T15:02:29Z</time>
      </trkpt>
      <trkpt lat="45.7468" lon="5.1261">
        <ele>245</ele>
        <time>2020-09-14T15:03:04Z</time>
      </trkpt>
      <trkpt lat="45.74694" lon="5.1265">
        <ele>245</ele>
        <time>2020-09-14T15:03:09Z</time>
      </trkpt>
      <trkpt lat="45.74701" lon="5.12673">
        <ele>244</ele>
        <time>2020-09-14T15:03:13Z</time>
      </trkpt>
      <trkpt lat="45.74707" lon="5.12697">
        <ele>244</ele>
        <time>2020-09-14T15:03:16Z</time>
      </trkpt>
      <trkpt lat="45.74712" lon="5.12731">
        <ele>244</ele>
        <time>2020-09-14T15:03:20Z</time>
      </trkpt>
      <trkpt lat="45.74707" lon="5.12845">
        <ele>244</ele>
        <time>2020-09-14T15:03:34Z</time>
      </trkpt>
      <trkpt lat="45.74709" lon="5.12907">
        <ele>244</ele>
        <time>2020-09-14T15:03:42Z</time>
      </trkpt>
      <trkpt lat="45.7471" lon="5.13002">
        <ele>244</ele>
        <time>2020-09-14T15:03:54Z</time>
      </trkpt>
      <trkpt lat="45.74706" lon="5.13064">
        <ele>246</ele>
        <time>2020-09-14T15:04:01Z</time>
      </trkpt>
      <trkpt lat="45.747" lon="5.13279">
        <ele>243</ele>
        <time>2020-09-14T15:04:28Z</time>
      </trkpt>
      <trkpt lat="45.74705" lon="5.13322">
        <ele>241</ele>
        <time>2020-09-14T15:04:34Z</time>
      </trkpt>
      <trkpt lat="45.74728" lon="5.13435">
        <ele>239</ele>
        <time>2020-09-14T15:04:48Z</time>
      </trkpt>
      <trkpt lat="45.74782" lon="5.13551">
        <ele>235</ele>
        <time>2020-09-14T15:05:05Z</time>
      </trkpt>
      <trkpt lat="45.74798" lon="5.13616">
        <ele>231</ele>
        <time>2020-09-14T15:05:14Z</time>
      </trkpt>
      <trkpt lat="45.74785" lon="5.13685">
        <ele>228</ele>
        <time>2020-09-14T15:05:23Z</time>
      </trkpt>
      <trkpt lat="45.74776" lon="5.13761">
        <ele>225</ele>
        <time>2020-09-14T15:05:32Z</time>
      </trkpt>
      <trkpt lat="45.74756" lon="5.13988">
        <ele>218</ele>
        <time>2020-09-14T15:06:01Z</time>
      </trkpt>
      <trkpt lat="45.7472" lon="5.14377">
        <ele>218</ele>
        <time>2020-09-14T15:06:50Z</time>
      </trkpt>
      <trkpt lat="45.74722" lon="5.144">
        <ele>218</ele>
        <time>2020-09-14T15:06:52Z</time>
      </trkpt>
      <trkpt lat="45.7472" lon="5.14414">
        <ele>218</ele>
        <time>2020-09-14T15:06:54Z</time>
      </trkpt>
      <trkpt lat="45.74717" lon="5.14442">
        <ele>218</ele>
        <time>2020-09-14T15:06:58Z</time>
      </trkpt>
      <trkpt lat="45.74717" lon="5.14454">
        <ele>218</ele>
        <time>2020-09-14T15:06:59Z</time>
      </trkpt>
      <trkpt lat="45.74715" lon="5.14454">
        <ele>218</ele>
        <time>2020-09-14T15:07:00Z</time>
      </trkpt>
      <trkpt lat="45.74712" lon="5.14456">
        <ele>218</ele>
        <time>2020-09-14T15:07:00Z</time>
      </trkpt>
      <trkpt lat="45.74709" lon="5.1446">
        <ele>219</ele>
        <time>2020-09-14T15:07:01Z</time>
      </trkpt>
      <trkpt lat="45.74708" lon="5.14464">
        <ele>219</ele>
        <time>2020-09-14T15:07:01Z</time>
      </trkpt>
      <trkpt lat="45.7471" lon="5.14473">
        <ele>219</ele>
        <time>2020-09-14T15:07:03Z</time>
      </trkpt>
      <trkpt lat="45.74712" lon="5.14476">
        <ele>219</ele>
        <time>2020-09-14T15:07:03Z</time>
      </trkpt>
      <trkpt lat="45.74715" lon="5.14478">
        <ele>219</ele>
        <time>2020-09-14T15:07:04Z</time>
      </trkpt>
      <trkpt lat="45.74715" lon="5.14485">
        <ele>219</ele>
        <time>2020-09-14T15:07:05Z</time>
      </trkpt>
      <trkpt lat="45.74698" lon="5.14606">
        <ele>220</ele>
        <time>2020-09-14T15:07:20Z</time>
      </trkpt>
      <trkpt lat="45.74687" lon="5.14663">
        <ele>221</ele>
        <time>2020-09-14T15:07:27Z</time>
      </trkpt>
      <trkpt lat="45.74684" lon="5.14671">
        <ele>221</ele>
        <time>2020-09-14T15:07:28Z</time>
      </trkpt>
      <trkpt lat="45.74678" lon="5.1469">
        <ele>222</ele>
        <time>2020-09-14T15:07:31Z</time>
      </trkpt>
      <trkpt lat="45.74646" lon="5.14773">
        <ele>225</ele>
        <time>2020-09-14T15:07:43Z</time>
      </trkpt>
      <trkpt lat="45.74627" lon="5.1483">
        <ele>226</ele>
        <time>2020-09-14T15:07:51Z</time>
      </trkpt>
      <trkpt lat="45.7461" lon="5.14897">
        <ele>226</ele>
        <time>2020-09-14T15:07:59Z</time>
      </trkpt>
      <trkpt lat="45.74605" lon="5.14936">
        <ele>225</ele>
        <time>2020-09-14T15:08:04Z</time>
      </trkpt>
      <trkpt lat="45.74587" lon="5.15067">
        <ele>222</ele>
        <time>2020-09-14T15:08:21Z</time>
      </trkpt>
      <trkpt lat="45.74593" lon="5.15094">
        <ele>222</ele>
        <time>2020-09-14T15:08:24Z</time>
      </trkpt>
      <trkpt lat="45.7459" lon="5.15096">
        <ele>221</ele>
        <time>2020-09-14T15:08:25Z</time>
      </trkpt>
      <trkpt lat="45.74587" lon="5.15102">
        <ele>221</ele>
        <time>2020-09-14T15:08:26Z</time>
      </trkpt>
      <trkpt lat="45.74587" lon="5.15111">
        <ele>221</ele>
        <time>2020-09-14T15:08:27Z</time>
      </trkpt>
      <trkpt lat="45.7459" lon="5.15118">
        <ele>220</ele>
        <time>2020-09-14T15:08:28Z</time>
      </trkpt>
      <trkpt lat="45.74596" lon="5.1512">
        <ele>220</ele>
        <time>2020-09-14T15:08:29Z</time>
      </trkpt>
      <trkpt lat="45.74598" lon="5.1512">
        <ele>220</ele>
        <time>2020-09-14T15:08:30Z</time>
      </trkpt>
      <trkpt lat="45.74603" lon="5.15142">
        <ele>219</ele>
        <time>2020-09-14T15:08:32Z</time>
      </trkpt>
      <trkpt lat="45.74602" lon="5.15232">
        <ele>218</ele>
        <time>2020-09-14T15:08:44Z</time>
      </trkpt>
      <trkpt lat="45.74606" lon="5.154">
        <ele>216</ele>
        <time>2020-09-14T15:09:05Z</time>
      </trkpt>
      <trkpt lat="45.74603" lon="5.15402">
        <ele>216</ele>
        <time>2020-09-14T15:09:05Z</time>
      </trkpt>
      <trkpt lat="45.746" lon="5.15406">
        <ele>216</ele>
        <time>2020-09-14T15:09:06Z</time>
      </trkpt>
      <trkpt lat="45.74599" lon="5.1541">
        <ele>216</ele>
        <time>2020-09-14T15:09:06Z</time>
      </trkpt>
      <trkpt lat="45.74599" lon="5.15414">
        <ele>216</ele>
        <time>2020-09-14T15:09:07Z</time>
      </trkpt>
      <trkpt lat="45.74601" lon="5.15421">
        <ele>215</ele>
        <time>2020-09-14T15:09:08Z</time>
      </trkpt>
      <trkpt lat="45.74608" lon="5.15424">
        <ele>216</ele>
        <time>2020-09-14T15:09:09Z</time>
      </trkpt>
      <trkpt lat="45.7461" lon="5.15423">
        <ele>216</ele>
        <time>2020-09-14T15:09:09Z</time>
      </trkpt>
      <trkpt lat="45.74613" lon="5.1542">
        <ele>216</ele>
        <time>2020-09-14T15:09:10Z</time>
      </trkpt>
      <trkpt lat="45.74614" lon="5.15418">
        <ele>216</ele>
        <time>2020-09-14T15:09:10Z</time>
      </trkpt>
      <trkpt lat="45.74621" lon="5.15425">
        <ele>216</ele>
        <time>2020-09-14T15:09:12Z</time>
      </trkpt>
      <trkpt lat="45.74693" lon="5.15455">
        <ele>218</ele>
        <time>2020-09-14T15:09:25Z</time>
      </trkpt>
      <trkpt lat="45.74726" lon="5.15468">
        <ele>219</ele>
        <time>2020-09-14T15:09:31Z</time>
      </trkpt>
      <trkpt lat="45.74737" lon="5.15477">
        <ele>219</ele>
        <time>2020-09-14T15:09:34Z</time>
      </trkpt>
      <trkpt lat="45.74767" lon="5.15504">
        <ele>220</ele>
        <time>2020-09-14T15:09:40Z</time>
      </trkpt>
      <trkpt lat="45.74797" lon="5.15523">
        <ele>220</ele>
        <time>2020-09-14T15:09:46Z</time>
      </trkpt>
      <trkpt lat="45.74813" lon="5.15533">
        <ele>221</ele>
        <time>2020-09-14T15:09:49Z</time>
      </trkpt>
      <trkpt lat="45.74819" lon="5.15536">
        <ele>221</ele>
        <time>2020-09-14T15:09:50Z</time>
      </trkpt>
      <trkpt lat="45.74842" lon="5.15544">
        <ele>221</ele>
        <time>2020-09-14T15:09:54Z</time>
      </trkpt>
      <trkpt lat="45.74859" lon="5.15552">
        <ele>221</ele>
        <time>2020-09-14T15:09:57Z</time>
      </trkpt>
      <trkpt lat="45.74923" lon="5.15604">
        <ele>222</ele>
        <time>2020-09-14T15:10:10Z</time>
      </trkpt>
      <trkpt lat="45.74933" lon="5.15611">
        <ele>222</ele>
        <time>2020-09-14T15:10:12Z</time>
      </trkpt>
      <trkpt lat="45.74949" lon="5.15617">
        <ele>223</ele>
        <time>2020-09-14T15:10:15Z</time>
      </trkpt>
      <trkpt lat="45.74954" lon="5.15622">
        <ele>223</ele>
        <time>2020-09-14T15:10:16Z</time>
      </trkpt>
      <trkpt lat="45.74962" lon="5.15629">
        <ele>223</ele>
        <time>2020-09-14T15:10:18Z</time>
      </trkpt>
      <trkpt lat="45.74975" lon="5.15687">
        <ele>223</ele>
        <time>2020-09-14T15:10:26Z</time>
      </trkpt>
      <trkpt lat="45.7498" lon="5.15711">
        <ele>223</ele>
        <time>2020-09-14T15:10:29Z</time>
      </trkpt>
      <trkpt lat="45.7498" lon="5.15715">
        <ele>223</ele>
        <time>2020-09-14T15:10:29Z</time>
      </trkpt>
      <trkpt lat="45.74974" lon="5.15732">
        <ele>222</ele>
        <time>2020-09-14T15:10:32Z</time>
      </trkpt>
      <trkpt lat="45.74966" lon="5.15746">
        <ele>221</ele>
        <time>2020-09-14T15:10:34Z</time>
      </trkpt>
      <trkpt lat="45.74951" lon="5.15807">
        <ele>219</ele>
        <time>2020-09-14T15:10:42Z</time>
      </trkpt>
      <trkpt lat="45.74949" lon="5.15845">
        <ele>219</ele>
        <time>2020-09-14T15:10:47Z</time>
      </trkpt>
      <trkpt lat="45.74953" lon="5.15884">
        <ele>219</ele>
        <time>2020-09-14T15:10:52Z</time>
      </trkpt>
      <trkpt lat="45.7499" lon="5.16129">
        <ele>218</ele>
        <time>2020-09-14T15:11:23Z</time>
      </trkpt>
      <trkpt lat="45.75005" lon="5.1621">
        <ele>215</ele>
        <time>2020-09-14T15:11:33Z</time>
      </trkpt>
      <trkpt lat="45.75014" lon="5.16283">
        <ele>211</ele>
        <time>2020-09-14T15:11:42Z</time>
      </trkpt>
      <trkpt lat="45.75025" lon="5.16451">
        <ele>211</ele>
        <time>2020-09-14T15:12:03Z</time>
      </trkpt>
      <trkpt lat="45.75024" lon="5.165">
        <ele>210</ele>
        <time>2020-09-14T15:12:09Z</time>
      </trkpt>
      <trkpt lat="45.75017" lon="5.16531">
        <ele>209</ele>
        <time>2020-09-14T15:12:13Z</time>
      </trkpt>
      <trkpt lat="45.75004" lon="5.16552">
        <ele>209</ele>
        <time>2020-09-14T15:12:17Z</time>
      </trkpt>
      <trkpt lat="45.74989" lon="5.16583">
        <ele>208</ele>
        <time>2020-09-14T15:12:22Z</time>
      </trkpt>
      <trkpt lat="45.74975" lon="5.16627">
        <ele>207</ele>
        <time>2020-09-14T15:12:28Z</time>
      </trkpt>
      <trkpt lat="45.74973" lon="5.16627">
        <ele>207</ele>
        <time>2020-09-14T15:12:28Z</time>
      </trkpt>
      <trkpt lat="45.74969" lon="5.16632">
        <ele>207</ele>
        <time>2020-09-14T15:12:29Z</time>
      </trkpt>
      <trkpt lat="45.74968" lon="5.16638">
        <ele>207</ele>
        <time>2020-09-14T15:12:30Z</time>
      </trkpt>
      <trkpt lat="45.74969" lon="5.16642">
        <ele>207</ele>
        <time>2020-09-14T15:12:30Z</time>
      </trkpt>
      <trkpt lat="45.7497" lon="5.16645">
        <ele>207</ele>
        <time>2020-09-14T15:12:31Z</time>
      </trkpt>
      <trkpt lat="45.74974" lon="5.16647">
        <ele>207</ele>
        <time>2020-09-14T15:12:31Z</time>
      </trkpt>
      <trkpt lat="45.74977" lon="5.16647">
        <ele>207</ele>
        <time>2020-09-14T15:12:32Z</time>
      </trkpt>
      <trkpt lat="45.7498" lon="5.1666">
        <ele>207</ele>
        <time>2020-09-14T15:12:34Z</time>
      </trkpt>
      <trkpt lat="45.74983" lon="5.16675">
        <ele>207</ele>
        <time>2020-09-14T15:12:36Z</time>
      </trkpt>
      <trkpt lat="45.74997" lon="5.16753">
        <ele>206</ele>
        <time>2020-09-14T15:12:46Z</time>
      </trkpt>
      <trkpt lat="45.75002" lon="5.16777">
        <ele>206</ele>
        <time>2020-09-14T15:12:49Z</time>
      </trkpt>
      <trkpt lat="45.75038" lon="5.16908">
        <ele>208</ele>
        <time>2020-09-14T15:13:06Z</time>
      </trkpt>
      <trkpt lat="45.75039" lon="5.16912">
        <ele>208</ele>
        <time>2020-09-14T15:13:07Z</time>
      </trkpt>
      <trkpt lat="45.75053" lon="5.16968">
        <ele>208</ele>
        <time>2020-09-14T15:13:14Z</time>
      </trkpt>
      <trkpt lat="45.75061" lon="5.17001">
        <ele>209</ele>
        <time>2020-09-14T15:13:18Z</time>
      </trkpt>
      <trkpt lat="45.75062" lon="5.17008">
        <ele>208</ele>
        <time>2020-09-14T15:13:19Z</time>
      </trkpt>
      <trkpt lat="45.7507" lon="5.17054">
        <ele>207</ele>
        <time>2020-09-14T15:13:25Z</time>
      </trkpt>
      <trkpt lat="45.75073" lon="5.17074">
        <ele>207</ele>
        <time>2020-09-14T15:13:28Z</time>
      </trkpt>
      <trkpt lat="45.75072" lon="5.1709">
        <ele>207</ele>
        <time>2020-09-14T15:13:30Z</time>
      </trkpt>
      <trkpt lat="45.75069" lon="5.17169">
        <ele>205</ele>
        <time>2020-09-14T15:13:39Z</time>
      </trkpt>
      <trkpt lat="45.75067" lon="5.17189">
        <ele>205</ele>
        <time>2020-09-14T15:13:42Z</time>
      </trkpt>
      <trkpt lat="45.75061" lon="5.1721">
        <ele>205</ele>
        <time>2020-09-14T15:13:45Z</time>
      </trkpt>
      <trkpt lat="45.75059" lon="5.1722">
        <ele>205</ele>
        <time>2020-09-14T15:13:46Z</time>
      </trkpt>
      <trkpt lat="45.7504" lon="5.17285">
        <ele>204</ele>
        <time>2020-09-14T15:13:55Z</time>
      </trkpt>
      <trkpt lat="45.75032" lon="5.17312">
        <ele>204</ele>
        <time>2020-09-14T15:13:58Z</time>
      </trkpt>
      <trkpt lat="45.75031" lon="5.17317">
        <ele>204</ele>
        <time>2020-09-14T15:13:59Z</time>
      </trkpt>
      <trkpt lat="45.75024" lon="5.17345">
        <ele>204</ele>
        <time>2020-09-14T15:14:03Z</time>
      </trkpt>
      <trkpt lat="45.7502" lon="5.1736">
        <ele>204</ele>
        <time>2020-09-14T15:14:05Z</time>
      </trkpt>
      <trkpt lat="45.75016" lon="5.17374">
        <ele>204</ele>
        <time>2020-09-14T15:14:07Z</time>
      </trkpt>
      <trkpt lat="45.75007" lon="5.1741">
        <ele>203</ele>
        <time>2020-09-14T15:14:11Z</time>
      </trkpt>
      <trkpt lat="45.75001" lon="5.17432">
        <ele>203</ele>
        <time>2020-09-14T15:14:14Z</time>
      </trkpt>
      <trkpt lat="45.74995" lon="5.17455">
        <ele>204</ele>
        <time>2020-09-14T15:14:17Z</time>
      </trkpt>
      <trkpt lat="45.74983" lon="5.17504">
        <ele>204</ele>
        <time>2020-09-14T15:14:24Z</time>
      </trkpt>
      <trkpt lat="45.74975" lon="5.17538">
        <ele>205</ele>
        <time>2020-09-14T15:14:28Z</time>
      </trkpt>
      <trkpt lat="45.74973" lon="5.17547">
        <ele>205</ele>
        <time>2020-09-14T15:14:30Z</time>
      </trkpt>
      <trkpt lat="45.74969" lon="5.17577">
        <ele>205</ele>
        <time>2020-09-14T15:14:33Z</time>
      </trkpt>
      <trkpt lat="45.74968" lon="5.17616">
        <ele>206</ele>
        <time>2020-09-14T15:14:38Z</time>
      </trkpt>
      <trkpt lat="45.74967" lon="5.17779">
        <ele>206</ele>
        <time>2020-09-14T15:14:58Z</time>
      </trkpt>
      <trkpt lat="45.74967" lon="5.17789">
        <ele>206</ele>
        <time>2020-09-14T15:15:00Z</time>
      </trkpt>
      <trkpt lat="45.74965" lon="5.17841">
        <ele>207</ele>
        <time>2020-09-14T15:15:06Z</time>
      </trkpt>
      <trkpt lat="45.74963" lon="5.18083">
        <ele>210</ele>
        <time>2020-09-14T15:15:36Z</time>
      </trkpt>
      <trkpt lat="45.74962" lon="5.18204">
        <ele>210</ele>
        <time>2020-09-14T15:15:51Z</time>
      </trkpt>
      <trkpt lat="45.7497" lon="5.18332">
        <ele>208</ele>
        <time>2020-09-14T15:16:07Z</time>
      </trkpt>
      <trkpt lat="45.74972" lon="5.18413">
        <ele>207</ele>
        <time>2020-09-14T15:16:17Z</time>
      </trkpt>
      <trkpt lat="45.74966" lon="5.18446">
        <ele>206</ele>
        <time>2020-09-14T15:16:21Z</time>
      </trkpt>
      <trkpt lat="45.7498" lon="5.18578">
        <ele>206</ele>
        <time>2020-09-14T15:16:38Z</time>
      </trkpt>
      <trkpt lat="45.74991" lon="5.18652">
        <ele>206</ele>
        <time>2020-09-14T15:16:47Z</time>
      </trkpt>
      <trkpt lat="45.75001" lon="5.18689">
        <ele>206</ele>
        <time>2020-09-14T15:16:52Z</time>
      </trkpt>
      <trkpt lat="45.75019" lon="5.1874">
        <ele>207</ele>
        <time>2020-09-14T15:16:59Z</time>
      </trkpt>
      <trkpt lat="45.75032" lon="5.18769">
        <ele>207</ele>
        <time>2020-09-14T15:17:04Z</time>
      </trkpt>
      <trkpt lat="45.75082" lon="5.18927">
        <ele>207</ele>
        <time>2020-09-14T15:17:25Z</time>
      </trkpt>
      <trkpt lat="45.75101" lon="5.18991">
        <ele>207</ele>
        <time>2020-09-14T15:17:34Z</time>
      </trkpt>
      <trkpt lat="45.75137" lon="5.19134">
        <ele>206</ele>
        <time>2020-09-14T15:17:53Z</time>
      </trkpt>
      <trkpt lat="45.75154" lon="5.19249">
        <ele>204</ele>
        <time>2020-09-14T15:18:07Z</time>
      </trkpt>
      <trkpt lat="45.75167" lon="5.19385">
        <ele>203</ele>
        <time>2020-09-14T15:18:24Z</time>
      </trkpt>
      <trkpt lat="45.75173" lon="5.19458">
        <ele>202</ele>
        <time>2020-09-14T15:18:33Z</time>
      </trkpt>
      <trkpt lat="45.75177" lon="5.19599">
        <ele>205</ele>
        <time>2020-09-14T15:18:51Z</time>
      </trkpt>
      <trkpt lat="45.75181" lon="5.19656">
        <ele>207</ele>
        <time>2020-09-14T15:18:58Z</time>
      </trkpt>
      <trkpt lat="45.75182" lon="5.19691">
        <ele>206</ele>
        <time>2020-09-14T15:19:02Z</time>
      </trkpt>
      <trkpt lat="45.75185" lon="5.19735">
        <ele>204</ele>
        <time>2020-09-14T15:19:08Z</time>
      </trkpt>
      <trkpt lat="45.75183" lon="5.19744">
        <ele>203</ele>
        <time>2020-09-14T15:19:09Z</time>
      </trkpt>
      <trkpt lat="45.75178" lon="5.19758">
        <ele>203</ele>
        <time>2020-09-14T15:19:11Z</time>
      </trkpt>
      <trkpt lat="45.75178" lon="5.19766">
        <ele>203</ele>
        <time>2020-09-14T15:19:12Z</time>
      </trkpt>
      <trkpt lat="45.75181" lon="5.1978">
        <ele>203</ele>
        <time>2020-09-14T15:19:14Z</time>
      </trkpt>
      <trkpt lat="45.75182" lon="5.19792">
        <ele>203</ele>
        <time>2020-09-14T15:19:15Z</time>
      </trkpt>
      <trkpt lat="45.75171" lon="5.19866">
        <ele>203</ele>
        <time>2020-09-14T15:19:25Z</time>
      </trkpt>
      <trkpt lat="45.75143" lon="5.20123">
        <ele>203</ele>
        <time>2020-09-14T15:19:57Z</time>
      </trkpt>
      <trkpt lat="45.75123" lon="5.20195">
        <ele>204</ele>
        <time>2020-09-14T15:20:07Z</time>
      </trkpt>
      <trkpt lat="45.75088" lon="5.20286">
        <ele>204</ele>
        <time>2020-09-14T15:20:20Z</time>
      </trkpt>
      <trkpt lat="45.75021" lon="5.20451">
        <ele>205</ele>
        <time>2020-09-14T15:20:43Z</time>
      </trkpt>
      <trkpt lat="45.75005" lon="5.20497">
        <ele>204</ele>
        <time>2020-09-14T15:20:50Z</time>
      </trkpt>
      <trkpt lat="45.74914" lon="5.20777">
        <ele>203</ele>
        <time>2020-09-14T15:21:28Z</time>
      </trkpt>
      <trkpt lat="45.74857" lon="5.20962">
        <ele>205</ele>
        <time>2020-09-14T15:21:53Z</time>
      </trkpt>
      <trkpt lat="45.74815" lon="5.21115">
        <ele>205</ele>
        <time>2020-09-14T15:22:14Z</time>
      </trkpt>
      <trkpt lat="45.74792" lon="5.21263">
        <ele>205</ele>
        <time>2020-09-14T15:22:32Z</time>
      </trkpt>
      <trkpt lat="45.7474" lon="5.21625">
        <ele>205</ele>
        <time>2020-09-14T15:23:18Z</time>
      </trkpt>
      <trkpt lat="45.74729" lon="5.2171">
        <ele>205</ele>
        <time>2020-09-14T15:23:29Z</time>
      </trkpt>
      <trkpt lat="45.74727" lon="5.21922">
        <ele>205</ele>
        <time>2020-09-14T15:23:55Z</time>
      </trkpt>
      <trkpt lat="45.74722" lon="5.21969">
        <ele>205</ele>
        <time>2020-09-14T15:24:01Z</time>
      </trkpt>
      <trkpt lat="45.74709" lon="5.22047">
        <ele>204</ele>
        <time>2020-09-14T15:24:11Z</time>
      </trkpt>
      <trkpt lat="45.74683" lon="5.22181">
        <ele>204</ele>
        <time>2020-09-14T15:24:28Z</time>
      </trkpt>
      <trkpt lat="45.74666" lon="5.22257">
        <ele>205</ele>
        <time>2020-09-14T15:24:38Z</time>
      </trkpt>
      <trkpt lat="45.74666" lon="5.22294">
        <ele>206</ele>
        <time>2020-09-14T15:24:43Z</time>
      </trkpt>
      <trkpt lat="45.74664" lon="5.22308">
        <ele>206</ele>
        <time>2020-09-14T15:24:45Z</time>
      </trkpt>
      <trkpt lat="45.74658" lon="5.22316">
        <ele>206</ele>
        <time>2020-09-14T15:24:46Z</time>
      </trkpt>
      <trkpt lat="45.74655" lon="5.22325">
        <ele>206</ele>
        <time>2020-09-14T15:24:47Z</time>
      </trkpt>
      <trkpt lat="45.74654" lon="5.22335">
        <ele>206</ele>
        <time>2020-09-14T15:24:49Z</time>
      </trkpt>
      <trkpt lat="45.74656" lon="5.22345">
        <ele>206</ele>
        <time>2020-09-14T15:24:50Z</time>
      </trkpt>
      <trkpt lat="45.74634" lon="5.22398">
        <ele>206</ele>
        <time>2020-09-14T15:24:58Z</time>
      </trkpt>
      <trkpt lat="45.74476" lon="5.22694">
        <ele>205</ele>
        <time>2020-09-14T15:25:44Z</time>
      </trkpt>
      <trkpt lat="45.74446" lon="5.22744">
        <ele>205</ele>
        <time>2020-09-14T15:25:52Z</time>
      </trkpt>
      <trkpt lat="45.74303" lon="5.22897">
        <ele>207</ele>
        <time>2020-09-14T15:26:24Z</time>
      </trkpt>
      <trkpt lat="45.74263" lon="5.22927">
        <ele>206</ele>
        <time>2020-09-14T15:26:32Z</time>
      </trkpt>
      <trkpt lat="45.73962" lon="5.23167">
        <ele>208</ele>
        <time>2020-09-14T15:27:33Z</time>
      </trkpt>
      <trkpt lat="45.73919" lon="5.23205">
        <ele>207</ele>
        <time>2020-09-14T15:27:42Z</time>
      </trkpt>
      <trkpt lat="45.73891" lon="5.23227">
        <ele>208</ele>
        <time>2020-09-14T15:27:48Z</time>
      </trkpt>
      <trkpt lat="45.73824" lon="5.23265">
        <ele>209</ele>
        <time>2020-09-14T15:28:01Z</time>
      </trkpt>
      <trkpt lat="45.73436" lon="5.23461">
        <ele>207</ele>
        <time>2020-09-14T15:29:14Z</time>
      </trkpt>
      <trkpt lat="45.73406" lon="5.23473">
        <ele>207</ele>
        <time>2020-09-14T15:29:19Z</time>
      </trkpt>
      <trkpt lat="45.73378" lon="5.23478">
        <ele>207</ele>
        <time>2020-09-14T15:29:24Z</time>
      </trkpt>
      <trkpt lat="45.7334" lon="5.23478">
        <ele>206</ele>
        <time>2020-09-14T15:29:31Z</time>
      </trkpt>
      <trkpt lat="45.73308" lon="5.23481">
        <ele>206</ele>
        <time>2020-09-14T15:29:37Z</time>
      </trkpt>
      <trkpt lat="45.73301" lon="5.23477">
        <ele>206</ele>
        <time>2020-09-14T15:29:38Z</time>
      </trkpt>
      <trkpt lat="45.73293" lon="5.23479">
        <ele>206</ele>
        <time>2020-09-14T15:29:40Z</time>
      </trkpt>
      <trkpt lat="45.73287" lon="5.23487">
        <ele>207</ele>
        <time>2020-09-14T15:29:41Z</time>
      </trkpt>
      <trkpt lat="45.73284" lon="5.23499">
        <ele>207</ele>
        <time>2020-09-14T15:29:43Z</time>
      </trkpt>
      <trkpt lat="45.73286" lon="5.23508">
        <ele>207</ele>
        <time>2020-09-14T15:29:44Z</time>
      </trkpt>
      <trkpt lat="45.7328" lon="5.23524">
        <ele>207</ele>
        <time>2020-09-14T15:29:46Z</time>
      </trkpt>
      <trkpt lat="45.73268" lon="5.23538">
        <ele>207</ele>
        <time>2020-09-14T15:29:49Z</time>
      </trkpt>
      <trkpt lat="45.73195" lon="5.2357">
        <ele>207</ele>
        <time>2020-09-14T15:30:03Z</time>
      </trkpt>
      <trkpt lat="45.72979" lon="5.23657">
        <ele>209</ele>
        <time>2020-09-14T15:30:42Z</time>
      </trkpt>
      <trkpt lat="45.72907" lon="5.23689">
        <ele>210</ele>
        <time>2020-09-14T15:30:56Z</time>
      </trkpt>
      <trkpt lat="45.72837" lon="5.23723">
        <ele>211</ele>
        <time>2020-09-14T15:31:09Z</time>
      </trkpt>
      <trkpt lat="45.72753" lon="5.23781">
        <ele>211</ele>
        <time>2020-09-14T15:31:26Z</time>
      </trkpt>
      <trkpt lat="45.72633" lon="5.23871">
        <ele>213</ele>
        <time>2020-09-14T15:31:50Z</time>
      </trkpt>
      <trkpt lat="45.7263" lon="5.23864">
        <ele>212</ele>
        <time>2020-09-14T15:31:51Z</time>
      </trkpt>
      <trkpt lat="45.72626" lon="5.2386">
        <ele>212</ele>
        <time>2020-09-14T15:31:52Z</time>
      </trkpt>
      <trkpt lat="45.7262" lon="5.23859">
        <ele>213</ele>
        <time>2020-09-14T15:31:53Z</time>
      </trkpt>
      <trkpt lat="45.72615" lon="5.23862">
        <ele>213</ele>
        <time>2020-09-14T15:31:54Z</time>
      </trkpt>
      <trkpt lat="45.72612" lon="5.23866">
        <ele>213</ele>
        <time>2020-09-14T15:31:54Z</time>
      </trkpt>
      <trkpt lat="45.72611" lon="5.23878">
        <ele>213</ele>
        <time>2020-09-14T15:31:56Z</time>
      </trkpt>
      <trkpt lat="45.72613" lon="5.23884">
        <ele>214</ele>
        <time>2020-09-14T15:31:57Z</time>
      </trkpt>
      <trkpt lat="45.72595" lon="5.23907">
        <ele>215</ele>
        <time>2020-09-14T15:32:01Z</time>
      </trkpt>
      <trkpt lat="45.72532" lon="5.23951">
        <ele>218</ele>
        <time>2020-09-14T15:32:13Z</time>
      </trkpt>
      <trkpt lat="45.72445" lon="5.24081">
        <ele>218</ele>
        <time>2020-09-14T15:32:36Z</time>
      </trkpt>
      <trkpt lat="45.72448" lon="5.24105">
        <ele>218</ele>
        <time>2020-09-14T15:32:39Z</time>
      </trkpt>
      <trkpt lat="45.72448" lon="5.24112">
        <ele>219</ele>
        <time>2020-09-14T15:32:40Z</time>
      </trkpt>
      <trkpt lat="45.7245" lon="5.24127">
        <ele>219</ele>
        <time>2020-09-14T15:32:42Z</time>
      </trkpt>
      <trkpt lat="45.72478" lon="5.24408">
        <ele>216</ele>
        <time>2020-09-14T15:33:17Z</time>
      </trkpt>
      <trkpt lat="45.72481" lon="5.24446">
        <ele>216</ele>
        <time>2020-09-14T15:33:22Z</time>
      </trkpt>
      <trkpt lat="45.72495" lon="5.24558">
        <ele>215</ele>
        <time>2020-09-14T15:33:36Z</time>
      </trkpt>
      <trkpt lat="45.72497" lon="5.24579">
        <ele>215</ele>
        <time>2020-09-14T15:33:38Z</time>
      </trkpt>
      <trkpt lat="45.72499" lon="5.24596">
        <ele>215</ele>
        <time>2020-09-14T15:33:41Z</time>
      </trkpt>
      <trkpt lat="45.72501" lon="5.24628">
        <ele>216</ele>
        <time>2020-09-14T15:33:45Z</time>
      </trkpt>
      <trkpt lat="45.725" lon="5.24655">
        <ele>217</ele>
        <time>2020-09-14T15:33:48Z</time>
      </trkpt>
      <trkpt lat="45.72496" lon="5.24673">
        <ele>217</ele>
        <time>2020-09-14T15:33:50Z</time>
      </trkpt>
      <trkpt lat="45.72467" lon="5.24793">
        <ele>219</ele>
        <time>2020-09-14T15:34:06Z</time>
      </trkpt>
      <trkpt lat="45.72458" lon="5.24844">
        <ele>219</ele>
        <time>2020-09-14T15:34:13Z</time>
      </trkpt>
      <trkpt lat="45.72455" lon="5.24857">
        <ele>219</ele>
        <time>2020-09-14T15:34:14Z</time>
      </trkpt>
      <trkpt lat="45.72449" lon="5.24877">
        <ele>219</ele>
        <time>2020-09-14T15:34:17Z</time>
      </trkpt>
      <trkpt lat="45.72444" lon="5.24901">
        <ele>219</ele>
        <time>2020-09-14T15:34:20Z</time>
      </trkpt>
      <trkpt lat="45.72438" lon="5.24924">
        <ele>219</ele>
        <time>2020-09-14T15:34:23Z</time>
      </trkpt>
      <trkpt lat="45.72436" lon="5.2494">
        <ele>220</ele>
        <time>2020-09-14T15:34:25Z</time>
      </trkpt>
      <trkpt lat="45.72432" lon="5.2498">
        <ele>220</ele>
        <time>2020-09-14T15:34:30Z</time>
      </trkpt>
      <trkpt lat="45.7243" lon="5.25014">
        <ele>221</ele>
        <time>2020-09-14T15:34:34Z</time>
      </trkpt>
      <trkpt lat="45.72429" lon="5.25017">
        <ele>221</ele>
        <time>2020-09-14T15:34:35Z</time>
      </trkpt>
      <trkpt lat="45.72426" lon="5.25057">
        <ele>221</ele>
        <time>2020-09-14T15:34:40Z</time>
      </trkpt>
      <trkpt lat="45.72418" lon="5.25139">
        <ele>220</ele>
        <time>2020-09-14T15:34:50Z</time>
      </trkpt>
      <trkpt lat="45.72412" lon="5.25206">
        <ele>221</ele>
        <time>2020-09-14T15:34:58Z</time>
      </trkpt>
      <trkpt lat="45.72411" lon="5.25221">
        <ele>221</ele>
        <time>2020-09-14T15:35:00Z</time>
      </trkpt>
      <trkpt lat="45.72409" lon="5.25237">
        <ele>221</ele>
        <time>2020-09-14T15:35:02Z</time>
      </trkpt>
      <trkpt lat="45.72392" lon="5.25233">
        <ele>221</ele>
        <time>2020-09-14T15:35:05Z</time>
      </trkpt>
      <trkpt lat="45.72385" lon="5.25261">
        <ele>222</ele>
        <time>2020-09-14T15:35:09Z</time>
      </trkpt>
      <trkpt lat="45.7238" lon="5.25265">
        <ele>222</ele>
        <time>2020-09-14T15:35:10Z</time>
      </trkpt>
      <trkpt lat="45.72347" lon="5.25271">
        <ele>223</ele>
        <time>2020-09-14T15:35:16Z</time>
      </trkpt>
      <trkpt lat="45.72326" lon="5.25261">
        <ele>223</ele>
        <time>2020-09-14T15:35:20Z</time>
      </trkpt>
      <trkpt lat="45.72299" lon="5.25253">
        <ele>222</ele>
        <time>2020-09-14T15:35:25Z</time>
      </trkpt>
      <trkpt lat="45.72219" lon="5.25271">
        <ele>224</ele>
        <time>2020-09-14T15:35:39Z</time>
      </trkpt>
      <trkpt lat="45.72214" lon="5.25274">
        <ele>224</ele>
        <time>2020-09-14T15:35:40Z</time>
      </trkpt>
      <trkpt lat="45.7221" lon="5.25283">
        <ele>225</ele>
        <time>2020-09-14T15:35:42Z</time>
      </trkpt>
      <trkpt lat="45.7219" lon="5.25281">
        <ele>225</ele>
        <time>2020-09-14T15:35:45Z</time>
      </trkpt>
      <trkpt lat="45.72175" lon="5.25284">
        <ele>226</ele>
        <time>2020-09-14T15:35:48Z</time>
      </trkpt>
      <trkpt lat="45.72149" lon="5.25298">
        <ele>228</ele>
        <time>2020-09-14T15:35:53Z</time>
      </trkpt>
      <trkpt lat="45.72093" lon="5.25369">
        <ele>231</ele>
        <time>2020-09-14T15:36:06Z</time>
      </trkpt>
      <trkpt lat="45.7214" lon="5.25481">
        <ele>240</ele>
        <time>2020-09-14T15:36:22Z</time>
      </trkpt>
      <trkpt lat="45.72142" lon="5.25503">
        <ele>242</ele>
        <time>2020-09-14T15:36:25Z</time>
      </trkpt>
      <trkpt lat="45.72196" lon="5.25546">
        <ele>255</ele>
        <time>2020-09-14T15:36:36Z</time>
      </trkpt>
      <trkpt lat="45.72218" lon="5.25561">
        <ele>259</ele>
        <time>2020-09-14T15:36:40Z</time>
      </trkpt>
      <trkpt lat="45.72241" lon="5.25573">
        <ele>262</ele>
        <time>2020-09-14T15:36:45Z</time>
      </trkpt>
      <trkpt lat="45.72281" lon="5.25581">
        <ele>267</ele>
        <time>2020-09-14T15:36:52Z</time>
      </trkpt>
      <trkpt lat="45.72296" lon="5.25588">
        <ele>270</ele>
        <time>2020-09-14T15:36:55Z</time>
      </trkpt>
      <trkpt lat="45.72311" lon="5.256">
        <ele>273</ele>
        <time>2020-09-14T15:36:58Z</time>
      </trkpt>
      <trkpt lat="45.72323" lon="5.25614">
        <ele>275</ele>
        <time>2020-09-14T15:37:01Z</time>
      </trkpt>
      <trkpt lat="45.7233" lon="5.25629">
        <ele>276</ele>
        <time>2020-09-14T15:37:03Z</time>
      </trkpt>
      <trkpt lat="45.72342" lon="5.2567">
        <ele>278</ele>
        <time>2020-09-14T15:37:08Z</time>
      </trkpt>
      <trkpt lat="45.72344" lon="5.25699">
        <ele>279</ele>
        <time>2020-09-14T15:37:12Z</time>
      </trkpt>
      <trkpt lat="45.72353" lon="5.25746">
        <ele>282</ele>
        <time>2020-09-14T15:37:18Z</time>
      </trkpt>
      <trkpt lat="45.72351" lon="5.25765">
        <ele>282</ele>
        <time>2020-09-14T15:37:20Z</time>
      </trkpt>
      <trkpt lat="45.72341" lon="5.25814">
        <ele>283</ele>
        <time>2020-09-14T15:37:27Z</time>
      </trkpt>
      <trkpt lat="45.7234" lon="5.25862">
        <ele>284</ele>
        <time>2020-09-14T15:37:33Z</time>
      </trkpt>
      <trkpt lat="45.72338" lon="5.25875">
        <ele>284</ele>
        <time>2020-09-14T15:37:34Z</time>
      </trkpt>
      <trkpt lat="45.72327" lon="5.25902">
        <ele>284</ele>
        <time>2020-09-14T15:37:38Z</time>
      </trkpt>
      <trkpt lat="45.72301" lon="5.25945">
        <ele>287</ele>
        <time>2020-09-14T15:37:45Z</time>
      </trkpt>
      <trkpt lat="45.72284" lon="5.25965">
        <ele>287</ele>
        <time>2020-09-14T15:37:49Z</time>
      </trkpt>
      <trkpt lat="45.7225" lon="5.26024">
        <ele>285</ele>
        <time>2020-09-14T15:37:59Z</time>
      </trkpt>
      <trkpt lat="45.72225" lon="5.26098">
        <ele>288</ele>
        <time>2020-09-14T15:38:09Z</time>
      </trkpt>
      <trkpt lat="45.72198" lon="5.26144">
        <ele>290</ele>
        <time>2020-09-14T15:38:16Z</time>
      </trkpt>
      <trkpt lat="45.72139" lon="5.26224">
        <ele>295</ele>
        <time>2020-09-14T15:38:31Z</time>
      </trkpt>
      <trkpt lat="45.7213" lon="5.2624">
        <ele>296</ele>
        <time>2020-09-14T15:38:33Z</time>
      </trkpt>
      <trkpt lat="45.72122" lon="5.26271">
        <ele>296</ele>
        <time>2020-09-14T15:38:37Z</time>
      </trkpt>
      <trkpt lat="45.72089" lon="5.26441">
        <ele>297</ele>
        <time>2020-09-14T15:38:59Z</time>
      </trkpt>
      <trkpt lat="45.72083" lon="5.26515">
        <ele>298</ele>
        <time>2020-09-14T15:39:09Z</time>
      </trkpt>
      <trkpt lat="45.72089" lon="5.26592">
        <ele>299</ele>
        <time>2020-09-14T15:39:18Z</time>
      </trkpt>
      <trkpt lat="45.72072" lon="5.2668">
        <ele>301</ele>
        <time>2020-09-14T15:39:30Z</time>
      </trkpt>
      <trkpt lat="45.72032" lon="5.26767">
        <ele>307</ele>
        <time>2020-09-14T15:39:43Z</time>
      </trkpt>
      <trkpt lat="45.72006" lon="5.26855">
        <ele>308</ele>
        <time>2020-09-14T15:39:54Z</time>
      </trkpt>
      <trkpt lat="45.71969" lon="5.26944">
        <ele>312</ele>
        <time>2020-09-14T15:40:07Z</time>
      </trkpt>
      <trkpt lat="45.71944" lon="5.26982">
        <ele>314</ele>
        <time>2020-09-14T15:40:14Z</time>
      </trkpt>
      <trkpt lat="45.71893" lon="5.27096">
        <ele>313</ele>
        <time>2020-09-14T15:40:31Z</time>
      </trkpt>
      <trkpt lat="45.71889" lon="5.27173">
        <ele>312</ele>
        <time>2020-09-14T15:40:40Z</time>
      </trkpt>
      <trkpt lat="45.71848" lon="5.27279">
        <ele>315</ele>
        <time>2020-09-14T15:40:55Z</time>
      </trkpt>
      <trkpt lat="45.71821" lon="5.27393">
        <ele>315</ele>
        <time>2020-09-14T15:41:10Z</time>
      </trkpt>
      <trkpt lat="45.71803" lon="5.27503">
        <ele>316</ele>
        <time>2020-09-14T15:41:24Z</time>
      </trkpt>
      <trkpt lat="45.71802" lon="5.27537">
        <ele>316</ele>
        <time>2020-09-14T15:41:28Z</time>
      </trkpt>
      <trkpt lat="45.71815" lon="5.27648">
        <ele>317</ele>
        <time>2020-09-14T15:41:42Z</time>
      </trkpt>
      <trkpt lat="45.71831" lon="5.27721">
        <ele>316</ele>
        <time>2020-09-14T15:41:52Z</time>
      </trkpt>
      <trkpt lat="45.719" lon="5.28066">
        <ele>315</ele>
        <time>2020-09-14T15:42:37Z</time>
      </trkpt>
      <trkpt lat="45.71909" lon="5.28154">
        <ele>314</ele>
        <time>2020-09-14T15:42:48Z</time>
      </trkpt>
      <trkpt lat="45.71914" lon="5.28303">
        <ele>315</ele>
        <time>2020-09-14T15:43:06Z</time>
      </trkpt>
      <trkpt lat="45.71923" lon="5.28421">
        <ele>318</ele>
        <time>2020-09-14T15:43:21Z</time>
      </trkpt>
      <trkpt lat="45.71915" lon="5.28644">
        <ele>319</ele>
        <time>2020-09-14T15:43:49Z</time>
      </trkpt>
      <trkpt lat="45.71922" lon="5.287">
        <ele>321</ele>
        <time>2020-09-14T15:43:56Z</time>
      </trkpt>
      <trkpt lat="45.71949" lon="5.28877">
        <ele>323</ele>
        <time>2020-09-14T15:44:18Z</time>
      </trkpt>
      <trkpt lat="45.71958" lon="5.29017">
        <ele>325</ele>
        <time>2020-09-14T15:44:36Z</time>
      </trkpt>
      <trkpt lat="45.71954" lon="5.29077">
        <ele>325</ele>
        <time>2020-09-14T15:44:43Z</time>
      </trkpt>
      <trkpt lat="45.71927" lon="5.29154">
        <ele>326</ele>
        <time>2020-09-14T15:44:54Z</time>
      </trkpt>
      <trkpt lat="45.71908" lon="5.29283">
        <ele>331</ele>
        <time>2020-09-14T15:45:10Z</time>
      </trkpt>
      <trkpt lat="45.71926" lon="5.29463">
        <ele>337</ele>
        <time>2020-09-14T15:45:33Z</time>
      </trkpt>
      <trkpt lat="45.71918" lon="5.2952">
        <ele>338</ele>
        <time>2020-09-14T15:45:40Z</time>
      </trkpt>
      <trkpt lat="45.71916" lon="5.29559">
        <ele>340</ele>
        <time>2020-09-14T15:45:45Z</time>
      </trkpt>
      <trkpt lat="45.71913" lon="5.29574">
        <ele>341</ele>
        <time>2020-09-14T15:45:47Z</time>
      </trkpt>
      <trkpt lat="45.71866" lon="5.2968">
        <ele>342</ele>
        <time>2020-09-14T15:46:02Z</time>
      </trkpt>
      <trkpt lat="45.71835" lon="5.29777">
        <ele>342</ele>
        <time>2020-09-14T15:46:16Z</time>
      </trkpt>
      <trkpt lat="45.7183" lon="5.29806">
        <ele>343</ele>
        <time>2020-09-14T15:46:19Z</time>
      </trkpt>
      <trkpt lat="45.71807" lon="5.29975">
        <ele>346</ele>
        <time>2020-09-14T15:46:41Z</time>
      </trkpt>
      <trkpt lat="45.71766" lon="5.30251">
        <ele>347</ele>
        <time>2020-09-14T15:47:16Z</time>
      </trkpt>
      <trkpt lat="45.71755" lon="5.30264">
        <ele>346</ele>
        <time>2020-09-14T15:47:18Z</time>
      </trkpt>
      <trkpt lat="45.71733" lon="5.30312">
        <ele>347</ele>
        <time>2020-09-14T15:47:26Z</time>
      </trkpt>
      <trkpt lat="45.7171" lon="5.30345">
        <ele>347</ele>
        <time>2020-09-14T15:47:31Z</time>
      </trkpt>
      <trkpt lat="45.71695" lon="5.3037">
        <ele>348</ele>
        <time>2020-09-14T15:47:35Z</time>
      </trkpt>
      <trkpt lat="45.71675" lon="5.30408">
        <ele>348</ele>
        <time>2020-09-14T15:47:41Z</time>
      </trkpt>
      <trkpt lat="45.71651" lon="5.30462">
        <ele>351</ele>
        <time>2020-09-14T15:47:49Z</time>
      </trkpt>
      <trkpt lat="45.71636" lon="5.30523">
        <ele>353</ele>
        <time>2020-09-14T15:47:57Z</time>
      </trkpt>
      <trkpt lat="45.71598" lon="5.30628">
        <ele>358</ele>
        <time>2020-09-14T15:48:12Z</time>
      </trkpt>
      <trkpt lat="45.71553" lon="5.30766">
        <ele>360</ele>
        <time>2020-09-14T15:48:31Z</time>
      </trkpt>
      <trkpt lat="45.71565" lon="5.30812">
        <ele>361</ele>
        <time>2020-09-14T15:48:37Z</time>
      </trkpt>
      <trkpt lat="45.71556" lon="5.3083">
        <ele>362</ele>
        <time>2020-09-14T15:48:40Z</time>
      </trkpt>
      <trkpt lat="45.71557" lon="5.30866">
        <ele>362</ele>
        <time>2020-09-14T15:48:44Z</time>
      </trkpt>
      <trkpt lat="45.71542" lon="5.3097">
        <ele>361</ele>
        <time>2020-09-14T15:48:57Z</time>
      </trkpt>
      <trkpt lat="45.7153" lon="5.31045">
        <ele>361</ele>
        <time>2020-09-14T15:49:07Z</time>
      </trkpt>
      <trkpt lat="45.71504" lon="5.31163">
        <ele>360</ele>
        <time>2020-09-14T15:49:22Z</time>
      </trkpt>
      <trkpt lat="45.71482" lon="5.31236">
        <ele>359</ele>
        <time>2020-09-14T15:49:32Z</time>
      </trkpt>
      <trkpt lat="45.71472" lon="5.31321">
        <ele>358</ele>
        <time>2020-09-14T15:49:43Z</time>
      </trkpt>
      <trkpt lat="45.71422" lon="5.31557">
        <ele>358</ele>
        <time>2020-09-14T15:50:14Z</time>
      </trkpt>
      <trkpt lat="45.71416" lon="5.31629">
        <ele>356</ele>
        <time>2020-09-14T15:50:23Z</time>
      </trkpt>
      <trkpt lat="45.71416" lon="5.31663">
        <ele>355</ele>
        <time>2020-09-14T15:50:27Z</time>
      </trkpt>
      <trkpt lat="45.71429" lon="5.31769">
        <ele>349</ele>
        <time>2020-09-14T15:50:40Z</time>
      </trkpt>
      <trkpt lat="45.71437" lon="5.31794">
        <ele>347</ele>
        <time>2020-09-14T15:50:44Z</time>
      </trkpt>
      <trkpt lat="45.71452" lon="5.31817">
        <ele>346</ele>
        <time>2020-09-14T15:50:48Z</time>
      </trkpt>
      <trkpt lat="45.715" lon="5.31879">
        <ele>343</ele>
        <time>2020-09-14T15:50:59Z</time>
      </trkpt>
      <trkpt lat="45.71516" lon="5.31889">
        <ele>341</ele>
        <time>2020-09-14T15:51:02Z</time>
      </trkpt>
      <trkpt lat="45.71535" lon="5.31889">
        <ele>340</ele>
        <time>2020-09-14T15:51:06Z</time>
      </trkpt>
      <trkpt lat="45.7155" lon="5.31885">
        <ele>340</ele>
        <time>2020-09-14T15:51:08Z</time>
      </trkpt>
      <trkpt lat="45.71645" lon="5.31845">
        <ele>340</ele>
        <time>2020-09-14T15:51:26Z</time>
      </trkpt>
      <trkpt lat="45.71708" lon="5.31825">
        <ele>339</ele>
        <time>2020-09-14T15:51:37Z</time>
      </trkpt>
      <trkpt lat="45.71733" lon="5.31825">
        <ele>337</ele>
        <time>2020-09-14T15:51:42Z</time>
      </trkpt>
      <trkpt lat="45.71758" lon="5.31828">
        <ele>335</ele>
        <time>2020-09-14T15:51:46Z</time>
      </trkpt>
      <trkpt lat="45.7177" lon="5.31834">
        <ele>333</ele>
        <time>2020-09-14T15:51:48Z</time>
      </trkpt>
      <trkpt lat="45.7182" lon="5.31869">
        <ele>327</ele>
        <time>2020-09-14T15:51:58Z</time>
      </trkpt>
      <trkpt lat="45.71865" lon="5.31894">
        <ele>328</ele>
        <time>2020-09-14T15:52:07Z</time>
      </trkpt>
      <trkpt lat="45.71861" lon="5.31929">
        <ele>327</ele>
        <time>2020-09-14T15:52:11Z</time>
      </trkpt>
      <trkpt lat="45.7185" lon="5.3199">
        <ele>328</ele>
        <time>2020-09-14T15:52:19Z</time>
      </trkpt>
      <trkpt lat="45.71837" lon="5.32052">
        <ele>327</ele>
        <time>2020-09-14T15:52:27Z</time>
      </trkpt>
      <trkpt lat="45.71859" lon="5.32123">
        <ele>329</ele>
        <time>2020-09-14T15:52:37Z</time>
      </trkpt>
      <trkpt lat="45.7186" lon="5.32132">
        <ele>328</ele>
        <time>2020-09-14T15:52:38Z</time>
      </trkpt>
      <trkpt lat="45.7186" lon="5.3214">
        <ele>328</ele>
        <time>2020-09-14T15:52:39Z</time>
      </trkpt>
      <trkpt lat="45.71858" lon="5.32146">
        <ele>328</ele>
        <time>2020-09-14T15:52:40Z</time>
      </trkpt>
      <trkpt lat="45.71837" lon="5.32179">
        <ele>327</ele>
        <time>2020-09-14T15:52:45Z</time>
      </trkpt>
      <trkpt lat="45.71832" lon="5.32222">
        <ele>326</ele>
        <time>2020-09-14T15:52:51Z</time>
      </trkpt>
      <trkpt lat="45.7183" lon="5.32254">
        <ele>326</ele>
        <time>2020-09-14T15:52:55Z</time>
      </trkpt>
      <trkpt lat="45.71848" lon="5.32381">
        <ele>322</ele>
        <time>2020-09-14T15:53:11Z</time>
      </trkpt>
      <trkpt lat="45.71869" lon="5.32475">
        <ele>322</ele>
        <time>2020-09-14T15:53:23Z</time>
      </trkpt>
      <trkpt lat="45.71871" lon="5.32489">
        <ele>323</ele>
        <time>2020-09-14T15:53:25Z</time>
      </trkpt>
      <trkpt lat="45.7187" lon="5.32499">
        <ele>323</ele>
        <time>2020-09-14T15:53:26Z</time>
      </trkpt>
      <trkpt lat="45.71867" lon="5.32511">
        <ele>323</ele>
        <time>2020-09-14T15:53:28Z</time>
      </trkpt>
      <trkpt lat="45.71861" lon="5.32522">
        <ele>323</ele>
        <time>2020-09-14T15:53:30Z</time>
      </trkpt>
      <trkpt lat="45.71821" lon="5.32559">
        <ele>322</ele>
        <time>2020-09-14T15:53:38Z</time>
      </trkpt>
      <trkpt lat="45.71804" lon="5.32577">
        <ele>322</ele>
        <time>2020-09-14T15:53:42Z</time>
      </trkpt>
      <trkpt lat="45.71789" lon="5.326">
        <ele>322</ele>
        <time>2020-09-14T15:53:46Z</time>
      </trkpt>
      <trkpt lat="45.71778" lon="5.32625">
        <ele>323</ele>
        <time>2020-09-14T15:53:49Z</time>
      </trkpt>
      <trkpt lat="45.71738" lon="5.32733">
        <ele>323</ele>
        <time>2020-09-14T15:54:05Z</time>
      </trkpt>
      <trkpt lat="45.71737" lon="5.32742">
        <ele>323</ele>
        <time>2020-09-14T15:54:06Z</time>
      </trkpt>
      <trkpt lat="45.71735" lon="5.32766">
        <ele>323</ele>
        <time>2020-09-14T15:54:09Z</time>
      </trkpt>
      <trkpt lat="45.71738" lon="5.32823">
        <ele>323</ele>
        <time>2020-09-14T15:54:16Z</time>
      </trkpt>
      <trkpt lat="45.71737" lon="5.32841">
        <ele>323</ele>
        <time>2020-09-14T15:54:18Z</time>
      </trkpt>
      <trkpt lat="45.71733" lon="5.32859">
        <ele>323</ele>
        <time>2020-09-14T15:54:20Z</time>
      </trkpt>
      <trkpt lat="45.71638" lon="5.32984">
        <ele>319</ele>
        <time>2020-09-14T15:54:43Z</time>
      </trkpt>
      <trkpt lat="45.71607" lon="5.33032">
        <ele>317</ele>
        <time>2020-09-14T15:54:51Z</time>
      </trkpt>
      <trkpt lat="45.71594" lon="5.33047">
        <ele>317</ele>
        <time>2020-09-14T15:54:54Z</time>
      </trkpt>
      <trkpt lat="45.71547" lon="5.33087">
        <ele>316</ele>
        <time>2020-09-14T15:55:04Z</time>
      </trkpt>
      <trkpt lat="45.71535" lon="5.33104">
        <ele>315</ele>
        <time>2020-09-14T15:55:07Z</time>
      </trkpt>
      <trkpt lat="45.71526" lon="5.33126">
        <ele>314</ele>
        <time>2020-09-14T15:55:10Z</time>
      </trkpt>
      <trkpt lat="45.71511" lon="5.33183">
        <ele>313</ele>
        <time>2020-09-14T15:55:18Z</time>
      </trkpt>
      <trkpt lat="45.71501" lon="5.33212">
        <ele>311</ele>
        <time>2020-09-14T15:55:22Z</time>
      </trkpt>
      <trkpt lat="45.71491" lon="5.33227">
        <ele>310</ele>
        <time>2020-09-14T15:55:24Z</time>
      </trkpt>
      <trkpt lat="45.7147" lon="5.33251">
        <ele>309</ele>
        <time>2020-09-14T15:55:29Z</time>
      </trkpt>
      <trkpt lat="45.71455" lon="5.33277">
        <ele>308</ele>
        <time>2020-09-14T15:55:33Z</time>
      </trkpt>
      <trkpt lat="45.71445" lon="5.33393">
        <ele>310</ele>
        <time>2020-09-14T15:55:48Z</time>
      </trkpt>
      <trkpt lat="45.71449" lon="5.33463">
        <ele>311</ele>
        <time>2020-09-14T15:55:57Z</time>
      </trkpt>
      <trkpt lat="45.7142" lon="5.33629">
        <ele>307</ele>
        <time>2020-09-14T15:56:18Z</time>
      </trkpt>
      <trkpt lat="45.71416" lon="5.33645">
        <ele>307</ele>
        <time>2020-09-14T15:56:20Z</time>
      </trkpt>
      <trkpt lat="45.7141" lon="5.3366">
        <ele>306</ele>
        <time>2020-09-14T15:56:22Z</time>
      </trkpt>
      <trkpt lat="45.71387" lon="5.33691">
        <ele>307</ele>
        <time>2020-09-14T15:56:28Z</time>
      </trkpt>
      <trkpt lat="45.71262" lon="5.33835">
        <ele>305</ele>
        <time>2020-09-14T15:56:56Z</time>
      </trkpt>
      <trkpt lat="45.71171" lon="5.33934">
        <ele>303</ele>
        <time>2020-09-14T15:57:17Z</time>
      </trkpt>
      <trkpt lat="45.7116" lon="5.33954">
        <ele>303</ele>
        <time>2020-09-14T15:57:20Z</time>
      </trkpt>
      <trkpt lat="45.71147" lon="5.33988">
        <ele>303</ele>
        <time>2020-09-14T15:57:25Z</time>
      </trkpt>
      <trkpt lat="45.71117" lon="5.34171">
        <ele>302</ele>
        <time>2020-09-14T15:57:48Z</time>
      </trkpt>
      <trkpt lat="45.71109" lon="5.34225">
        <ele>303</ele>
        <time>2020-09-14T15:57:55Z</time>
      </trkpt>
      <trkpt lat="45.71108" lon="5.34313">
        <ele>305</ele>
        <time>2020-09-14T15:58:06Z</time>
      </trkpt>
      <trkpt lat="45.71103" lon="5.34355">
        <ele>306</ele>
        <time>2020-09-14T15:58:11Z</time>
      </trkpt>
      <trkpt lat="45.71097" lon="5.34385">
        <ele>307</ele>
        <time>2020-09-14T15:58:15Z</time>
      </trkpt>
      <trkpt lat="45.71066" lon="5.34514">
        <ele>311</ele>
        <time>2020-09-14T15:58:32Z</time>
      </trkpt>
      <trkpt lat="45.71064" lon="5.34538">
        <ele>311</ele>
        <time>2020-09-14T15:58:35Z</time>
      </trkpt>
      <trkpt lat="45.71064" lon="5.34635">
        <ele>310</ele>
        <time>2020-09-14T15:58:47Z</time>
      </trkpt>
      <trkpt lat="45.7106" lon="5.34657">
        <ele>309</ele>
        <time>2020-09-14T15:58:50Z</time>
      </trkpt>
      <trkpt lat="45.71039" lon="5.34741">
        <ele>310</ele>
        <time>2020-09-14T15:59:01Z</time>
      </trkpt>
      <trkpt lat="45.71031" lon="5.34781">
        <ele>311</ele>
        <time>2020-09-14T15:59:06Z</time>
      </trkpt>
      <trkpt lat="45.71027" lon="5.3487">
        <ele>314</ele>
        <time>2020-09-14T15:59:17Z</time>
      </trkpt>
      <trkpt lat="45.71025" lon="5.34888">
        <ele>314</ele>
        <time>2020-09-14T15:59:19Z</time>
      </trkpt>
      <trkpt lat="45.71017" lon="5.34911">
        <ele>314</ele>
        <time>2020-09-14T15:59:23Z</time>
      </trkpt>
      <trkpt lat="45.70996" lon="5.34948">
        <ele>314</ele>
        <time>2020-09-14T15:59:29Z</time>
      </trkpt>
      <trkpt lat="45.7099" lon="5.34962">
        <ele>315</ele>
        <time>2020-09-14T15:59:31Z</time>
      </trkpt>
      <trkpt lat="45.7096" lon="5.34964">
        <ele>314</ele>
        <time>2020-09-14T15:59:36Z</time>
      </trkpt>
      <trkpt lat="45.70785" lon="5.34956">
        <ele>316</ele>
        <time>2020-09-14T16:00:07Z</time>
      </trkpt>
      <trkpt lat="45.70775" lon="5.34952">
        <ele>316</ele>
        <time>2020-09-14T16:00:09Z</time>
      </trkpt>
      <trkpt lat="45.7073" lon="5.34925">
        <ele>316</ele>
        <time>2020-09-14T16:00:18Z</time>
      </trkpt>
      <trkpt lat="45.70693" lon="5.34908">
        <ele>315</ele>
        <time>2020-09-14T16:00:25Z</time>
      </trkpt>
      <trkpt lat="45.70678" lon="5.34902">
        <ele>315</ele>
        <time>2020-09-14T16:00:27Z</time>
      </trkpt>
      <trkpt lat="45.70663" lon="5.349">
        <ele>314</ele>
        <time>2020-09-14T16:00:30Z</time>
      </trkpt>
      <trkpt lat="45.70597" lon="5.34894">
        <ele>313</ele>
        <time>2020-09-14T16:00:42Z</time>
      </trkpt>
      <trkpt lat="45.70457" lon="5.34892">
        <ele>315</ele>
        <time>2020-09-14T16:01:07Z</time>
      </trkpt>
      <trkpt lat="45.70394" lon="5.34881">
        <ele>316</ele>
        <time>2020-09-14T16:01:18Z</time>
      </trkpt>
      <trkpt lat="45.70358" lon="5.34884">
        <ele>316</ele>
        <time>2020-09-14T16:01:24Z</time>
      </trkpt>
      <trkpt lat="45.70332" lon="5.34891">
        <ele>317</ele>
        <time>2020-09-14T16:01:29Z</time>
      </trkpt>
      <trkpt lat="45.70173" lon="5.34949">
        <ele>311</ele>
        <time>2020-09-14T16:01:58Z</time>
      </trkpt>
      <trkpt lat="45.70153" lon="5.34955">
        <ele>310</ele>
        <time>2020-09-14T16:02:02Z</time>
      </trkpt>
      <trkpt lat="45.70134" lon="5.34957">
        <ele>310</ele>
        <time>2020-09-14T16:02:05Z</time>
      </trkpt>
      <trkpt lat="45.69957" lon="5.34955">
        <ele>306</ele>
        <time>2020-09-14T16:02:37Z</time>
      </trkpt>
      <trkpt lat="45.69934" lon="5.3496">
        <ele>306</ele>
        <time>2020-09-14T16:02:41Z</time>
      </trkpt>
      <trkpt lat="45.69909" lon="5.3497">
        <ele>307</ele>
        <time>2020-09-14T16:02:46Z</time>
      </trkpt>
      <trkpt lat="45.69895" lon="5.34972">
        <ele>306</ele>
        <time>2020-09-14T16:02:48Z</time>
      </trkpt>
      <trkpt lat="45.69844" lon="5.34971">
        <ele>301</ele>
        <time>2020-09-14T16:02:57Z</time>
      </trkpt>
      <trkpt lat="45.6982" lon="5.34979">
        <ele>300</ele>
        <time>2020-09-14T16:03:01Z</time>
      </trkpt>
      <trkpt lat="45.69798" lon="5.34995">
        <ele>298</ele>
        <time>2020-09-14T16:03:06Z</time>
      </trkpt>
      <trkpt lat="45.69782" lon="5.35012">
        <ele>297</ele>
        <time>2020-09-14T16:03:09Z</time>
      </trkpt>
      <trkpt lat="45.69763" lon="5.35041">
        <ele>297</ele>
        <time>2020-09-14T16:03:14Z</time>
      </trkpt>
      <trkpt lat="45.6974" lon="5.35086">
        <ele>297</ele>
        <time>2020-09-14T16:03:21Z</time>
      </trkpt>
      <trkpt lat="45.69727" lon="5.35118">
        <ele>297</ele>
        <time>2020-09-14T16:03:26Z</time>
      </trkpt>
      <trkpt lat="45.69722" lon="5.35141">
        <ele>299</ele>
        <time>2020-09-14T16:03:29Z</time>
      </trkpt>
      <trkpt lat="45.69703" lon="5.3526">
        <ele>302</ele>
        <time>2020-09-14T16:03:44Z</time>
      </trkpt>
      <trkpt lat="45.69701" lon="5.35282">
        <ele>301</ele>
        <time>2020-09-14T16:03:47Z</time>
      </trkpt>
      <trkpt lat="45.69682" lon="5.35397">
        <ele>297</ele>
        <time>2020-09-14T16:04:02Z</time>
      </trkpt>
      <trkpt lat="45.69662" lon="5.35543">
        <ele>296</ele>
        <time>2020-09-14T16:04:20Z</time>
      </trkpt>
      <trkpt lat="45.69658" lon="5.35562">
        <ele>296</ele>
        <time>2020-09-14T16:04:22Z</time>
      </trkpt>
      <trkpt lat="45.69648" lon="5.35591">
        <ele>296</ele>
        <time>2020-09-14T16:04:26Z</time>
      </trkpt>
      <trkpt lat="45.69625" lon="5.35633">
        <ele>294</ele>
        <time>2020-09-14T16:04:33Z</time>
      </trkpt>
      <trkpt lat="45.69597" lon="5.35702">
        <ele>292</ele>
        <time>2020-09-14T16:04:43Z</time>
      </trkpt>
      <trkpt lat="45.6959" lon="5.35723">
        <ele>292</ele>
        <time>2020-09-14T16:04:46Z</time>
      </trkpt>
      <trkpt lat="45.69571" lon="5.35801">
        <ele>292</ele>
        <time>2020-09-14T16:04:56Z</time>
      </trkpt>
      <trkpt lat="45.69559" lon="5.35886">
        <ele>291</ele>
        <time>2020-09-14T16:05:07Z</time>
      </trkpt>
      <trkpt lat="45.69556" lon="5.35927">
        <ele>290</ele>
        <time>2020-09-14T16:05:12Z</time>
      </trkpt>
      <trkpt lat="45.69561" lon="5.36003">
        <ele>291</ele>
        <time>2020-09-14T16:05:22Z</time>
      </trkpt>
      <trkpt lat="45.69569" lon="5.36071">
        <ele>291</ele>
        <time>2020-09-14T16:05:30Z</time>
      </trkpt>
      <trkpt lat="45.69544" lon="5.36165">
        <ele>283</ele>
        <time>2020-09-14T16:05:43Z</time>
      </trkpt>
      <trkpt lat="45.69522" lon="5.36227">
        <ele>278</ele>
        <time>2020-09-14T16:05:51Z</time>
      </trkpt>
      <trkpt lat="45.69493" lon="5.36264">
        <ele>273</ele>
        <time>2020-09-14T16:05:58Z</time>
      </trkpt>
      <trkpt lat="45.69434" lon="5.36325">
        <ele>265</ele>
        <time>2020-09-14T16:06:11Z</time>
      </trkpt>
      <trkpt lat="45.69422" lon="5.36347">
        <ele>264</ele>
        <time>2020-09-14T16:06:15Z</time>
      </trkpt>
      <trkpt lat="45.69415" lon="5.36367">
        <ele>263</ele>
        <time>2020-09-14T16:06:17Z</time>
      </trkpt>
      <trkpt lat="45.69413" lon="5.36396">
        <ele>262</ele>
        <time>2020-09-14T16:06:21Z</time>
      </trkpt>
      <trkpt lat="45.69414" lon="5.3642">
        <ele>262</ele>
        <time>2020-09-14T16:06:24Z</time>
      </trkpt>
      <trkpt lat="45.69422" lon="5.3646">
        <ele>260</ele>
        <time>2020-09-14T16:06:29Z</time>
      </trkpt>
      <trkpt lat="45.69435" lon="5.36505">
        <ele>258</ele>
        <time>2020-09-14T16:06:35Z</time>
      </trkpt>
      <trkpt lat="45.69446" lon="5.36551">
        <ele>255</ele>
        <time>2020-09-14T16:06:41Z</time>
      </trkpt>
      <trkpt lat="45.69448" lon="5.36568">
        <ele>254</ele>
        <time>2020-09-14T16:06:43Z</time>
      </trkpt>
      <trkpt lat="45.69445" lon="5.36668">
        <ele>249</ele>
        <time>2020-09-14T16:06:56Z</time>
      </trkpt>
      <trkpt lat="45.6944" lon="5.36716">
        <ele>248</ele>
        <time>2020-09-14T16:07:02Z</time>
      </trkpt>
      <trkpt lat="45.69438" lon="5.36726">
        <ele>248</ele>
        <time>2020-09-14T16:07:03Z</time>
      </trkpt>
      <trkpt lat="45.69434" lon="5.3673">
        <ele>248</ele>
        <time>2020-09-14T16:07:04Z</time>
      </trkpt>
      <trkpt lat="45.69391" lon="5.36738">
        <ele>246</ele>
        <time>2020-09-14T16:07:12Z</time>
      </trkpt>
      <trkpt lat="45.69332" lon="5.36733">
        <ele>243</ele>
        <time>2020-09-14T16:07:22Z</time>
      </trkpt>
      <trkpt lat="45.69295" lon="5.36736">
        <ele>240</ele>
        <time>2020-09-14T16:07:29Z</time>
      </trkpt>
      <trkpt lat="45.69257" lon="5.36742">
        <ele>238</ele>
        <time>2020-09-14T16:07:36Z</time>
      </trkpt>
      <trkpt lat="45.69154" lon="5.36777">
        <ele>231</ele>
        <time>2020-09-14T16:07:55Z</time>
      </trkpt>
      <trkpt lat="45.6905" lon="5.36806">
        <ele>227</ele>
        <time>2020-09-14T16:08:13Z</time>
      </trkpt>
      <trkpt lat="45.69026" lon="5.36815">
        <ele>227</ele>
        <time>2020-09-14T16:08:18Z</time>
      </trkpt>
      <trkpt lat="45.69015" lon="5.36816">
        <ele>227</ele>
        <time>2020-09-14T16:08:20Z</time>
      </trkpt>
      <trkpt lat="45.6901" lon="5.36903">
        <ele>227</ele>
        <time>2020-09-14T16:08:31Z</time>
      </trkpt>
      <trkpt lat="45.69002" lon="5.36977">
        <ele>228</ele>
        <time>2020-09-14T16:08:40Z</time>
      </trkpt>
      <trkpt lat="45.69" lon="5.37012">
        <ele>228</ele>
        <time>2020-09-14T16:08:44Z</time>
      </trkpt>
      <trkpt lat="45.69001" lon="5.37196">
        <ele>227</ele>
        <time>2020-09-14T16:09:07Z</time>
      </trkpt>
      <trkpt lat="45.69004" lon="5.37236">
        <ele>227</ele>
        <time>2020-09-14T16:09:12Z</time>
      </trkpt>
      <trkpt lat="45.69003" lon="5.37258">
        <ele>227</ele>
        <time>2020-09-14T16:09:15Z</time>
      </trkpt>
      <trkpt lat="45.69018" lon="5.38167">
        <ele>222</ele>
        <time>2020-09-14T16:11:08Z</time>
      </trkpt>
      <trkpt lat="45.69016" lon="5.38201">
        <ele>221</ele>
        <time>2020-09-14T16:11:12Z</time>
      </trkpt>
      <trkpt lat="45.6901" lon="5.38238">
        <ele>221</ele>
        <time>2020-09-14T16:11:17Z</time>
      </trkpt>
      <trkpt lat="45.68991" lon="5.38268">
        <ele>221</ele>
        <time>2020-09-14T16:11:22Z</time>
      </trkpt>
      <trkpt lat="45.68971" lon="5.38296">
        <ele>220</ele>
        <time>2020-09-14T16:11:27Z</time>
      </trkpt>
      <trkpt lat="45.68954" lon="5.38322">
        <ele>220</ele>
        <time>2020-09-14T16:11:31Z</time>
      </trkpt>
      <trkpt lat="45.68945" lon="5.38345">
        <ele>220</ele>
        <time>2020-09-14T16:11:35Z</time>
      </trkpt>
      <trkpt lat="45.68938" lon="5.38379">
        <ele>222</ele>
        <time>2020-09-14T16:11:39Z</time>
      </trkpt>
      <trkpt lat="45.68936" lon="5.38407">
        <ele>224</ele>
        <time>2020-09-14T16:11:42Z</time>
      </trkpt>
      <trkpt lat="45.68942" lon="5.38442">
        <ele>226</ele>
        <time>2020-09-14T16:11:47Z</time>
      </trkpt>
      <trkpt lat="45.6895" lon="5.38466">
        <ele>227</ele>
        <time>2020-09-14T16:11:50Z</time>
      </trkpt>
      <trkpt lat="45.69033" lon="5.38645">
        <ele>227</ele>
        <time>2020-09-14T16:12:17Z</time>
      </trkpt>
      <trkpt lat="45.69077" lon="5.38732">
        <ele>229</ele>
        <time>2020-09-14T16:12:30Z</time>
      </trkpt>
      <trkpt lat="45.69148" lon="5.38883">
        <ele>232</ele>
        <time>2020-09-14T16:12:53Z</time>
      </trkpt>
      <trkpt lat="45.69179" lon="5.38954">
        <ele>234</ele>
        <time>2020-09-14T16:13:03Z</time>
      </trkpt>
      <trkpt lat="45.69274" lon="5.39152">
        <ele>236</ele>
        <time>2020-09-14T16:13:33Z</time>
      </trkpt>
      <trkpt lat="45.69292" lon="5.39194">
        <ele>235</ele>
        <time>2020-09-14T16:13:39Z</time>
      </trkpt>
      <trkpt lat="45.69311" lon="5.39277">
        <ele>236</ele>
        <time>2020-09-14T16:13:50Z</time>
      </trkpt>
      <trkpt lat="45.69332" lon="5.39385">
        <ele>241</ele>
        <time>2020-09-14T16:14:04Z</time>
      </trkpt>
      <trkpt lat="45.6934" lon="5.39433">
        <ele>243</ele>
        <time>2020-09-14T16:14:10Z</time>
      </trkpt>
      <trkpt lat="45.69348" lon="5.39508">
        <ele>242</ele>
        <time>2020-09-14T16:14:20Z</time>
      </trkpt>
      <trkpt lat="45.69347" lon="5.39594">
        <ele>241</ele>
        <time>2020-09-14T16:14:30Z</time>
      </trkpt>
      <trkpt lat="45.69332" lon="5.39719">
        <ele>240</ele>
        <time>2020-09-14T16:14:46Z</time>
      </trkpt>
      <trkpt lat="45.69261" lon="5.40257">
        <ele>243</ele>
        <time>2020-09-14T16:15:54Z</time>
      </trkpt>
      <trkpt lat="45.69218" lon="5.40773">
        <ele>248</ele>
        <time>2020-09-14T16:16:59Z</time>
      </trkpt>
      <trkpt lat="45.69215" lon="5.40825">
        <ele>248</ele>
        <time>2020-09-14T16:17:05Z</time>
      </trkpt>
      <trkpt lat="45.69218" lon="5.40875">
        <ele>248</ele>
        <time>2020-09-14T16:17:11Z</time>
      </trkpt>
      <trkpt lat="45.69246" lon="5.41033">
        <ele>251</ele>
        <time>2020-09-14T16:17:32Z</time>
      </trkpt>
      <trkpt lat="45.6925" lon="5.41065">
        <ele>251</ele>
        <time>2020-09-14T16:17:36Z</time>
      </trkpt>
      <trkpt lat="45.69251" lon="5.41099">
        <ele>251</ele>
        <time>2020-09-14T16:17:40Z</time>
      </trkpt>
      <trkpt lat="45.6925" lon="5.41133">
        <ele>252</ele>
        <time>2020-09-14T16:17:44Z</time>
      </trkpt>
      <trkpt lat="45.69228" lon="5.4128">
        <ele>255</ele>
        <time>2020-09-14T16:18:03Z</time>
      </trkpt>
      <trkpt lat="45.69107" lon="5.41743">
        <ele>263</ele>
        <time>2020-09-14T16:19:04Z</time>
      </trkpt>
      <trkpt lat="45.69097" lon="5.41809">
        <ele>261</ele>
        <time>2020-09-14T16:19:13Z</time>
      </trkpt>
      <trkpt lat="45.69096" lon="5.41841">
        <ele>260</ele>
        <time>2020-09-14T16:19:17Z</time>
      </trkpt>
      <trkpt lat="45.69101" lon="5.41902">
        <ele>256</ele>
        <time>2020-09-14T16:19:24Z</time>
      </trkpt>
      <trkpt lat="45.69107" lon="5.41932">
        <ele>255</ele>
        <time>2020-09-14T16:19:28Z</time>
      </trkpt>
      <trkpt lat="45.69151" lon="5.4211">
        <ele>257</ele>
        <time>2020-09-14T16:19:52Z</time>
      </trkpt>
      <trkpt lat="45.69158" lon="5.42159">
        <ele>259</ele>
        <time>2020-09-14T16:19:58Z</time>
      </trkpt>
      <trkpt lat="45.6916" lon="5.42194">
        <ele>259</ele>
        <time>2020-09-14T16:20:02Z</time>
      </trkpt>
      <trkpt lat="45.69159" lon="5.42225">
        <ele>259</ele>
        <time>2020-09-14T16:20:06Z</time>
      </trkpt>
      <trkpt lat="45.69155" lon="5.42263">
        <ele>260</ele>
        <time>2020-09-14T16:20:11Z</time>
      </trkpt>
      <trkpt lat="45.69149" lon="5.42299">
        <ele>260</ele>
        <time>2020-09-14T16:20:16Z</time>
      </trkpt>
      <trkpt lat="45.69139" lon="5.42338">
        <ele>261</ele>
        <time>2020-09-14T16:20:21Z</time>
      </trkpt>
      <trkpt lat="45.69127" lon="5.42374">
        <ele>262</ele>
        <time>2020-09-14T16:20:26Z</time>
      </trkpt>
      <trkpt lat="45.6911" lon="5.42413">
        <ele>264</ele>
        <time>2020-09-14T16:20:31Z</time>
      </trkpt>
      <trkpt lat="45.69084" lon="5.42462">
        <ele>264</ele>
        <time>2020-09-14T16:20:39Z</time>
      </trkpt>
      <trkpt lat="45.68936" lon="5.42722">
        <ele>268</ele>
        <time>2020-09-14T16:21:21Z</time>
      </trkpt>
      <trkpt lat="45.68924" lon="5.42736">
        <ele>268</ele>
        <time>2020-09-14T16:21:23Z</time>
      </trkpt>
      <trkpt lat="45.68899" lon="5.42758">
        <ele>270</ele>
        <time>2020-09-14T16:21:29Z</time>
      </trkpt>
      <trkpt lat="45.68873" lon="5.42795">
        <ele>271</ele>
        <time>2020-09-14T16:21:35Z</time>
      </trkpt>
      <trkpt lat="45.68831" lon="5.42825">
        <ele>275</ele>
        <time>2020-09-14T16:21:44Z</time>
      </trkpt>
      <trkpt lat="45.68825" lon="5.4283">
        <ele>275</ele>
        <time>2020-09-14T16:21:45Z</time>
      </trkpt>
      <trkpt lat="45.68817" lon="5.42845">
        <ele>275</ele>
        <time>2020-09-14T16:21:47Z</time>
      </trkpt>
      <trkpt lat="45.68812" lon="5.4287">
        <ele>273</ele>
        <time>2020-09-14T16:21:50Z</time>
      </trkpt>
      <trkpt lat="45.68809" lon="5.429">
        <ele>271</ele>
        <time>2020-09-14T16:21:54Z</time>
      </trkpt>
      <trkpt lat="45.68809" lon="5.42974">
        <ele>267</ele>
        <time>2020-09-14T16:22:03Z</time>
      </trkpt>
      <trkpt lat="45.68807" lon="5.43002">
        <ele>266</ele>
        <time>2020-09-14T16:22:07Z</time>
      </trkpt>
      <trkpt lat="45.68802" lon="5.43028">
        <ele>266</ele>
        <time>2020-09-14T16:22:10Z</time>
      </trkpt>
      <trkpt lat="45.68788" lon="5.4308">
        <ele>265</ele>
        <time>2020-09-14T16:22:17Z</time>
      </trkpt>
      <trkpt lat="45.68744" lon="5.43333">
        <ele>257</ele>
        <time>2020-09-14T16:22:50Z</time>
      </trkpt>
      <trkpt lat="45.6853" lon="5.44424">
        <ele>242</ele>
        <time>2020-09-14T16:25:10Z</time>
      </trkpt>
      <trkpt lat="45.68508" lon="5.44545">
        <ele>242</ele>
        <time>2020-09-14T16:25:26Z</time>
      </trkpt>
      <trkpt lat="45.68501" lon="5.44551">
        <ele>243</ele>
        <time>2020-09-14T16:25:27Z</time>
      </trkpt>
      <trkpt lat="45.68505" lon="5.44561">
        <ele>243</ele>
        <time>2020-09-14T16:25:29Z</time>
      </trkpt>
      <trkpt lat="45.68415" lon="5.45014">
        <ele>242</ele>
        <time>2020-09-14T16:26:27Z</time>
      </trkpt>
      <trkpt lat="45.68388" lon="5.4512">
        <ele>241</ele>
        <time>2020-09-14T16:26:41Z</time>
      </trkpt>
      <trkpt lat="45.68381" lon="5.45137">
        <ele>241</ele>
        <time>2020-09-14T16:26:44Z</time>
      </trkpt>
      <trkpt lat="45.68374" lon="5.45143">
        <ele>241</ele>
        <time>2020-09-14T16:26:45Z</time>
      </trkpt>
      <trkpt lat="45.6837" lon="5.45153">
        <ele>240</ele>
        <time>2020-09-14T16:26:47Z</time>
      </trkpt>
      <trkpt lat="45.6837" lon="5.4516">
        <ele>240</ele>
        <time>2020-09-14T16:26:48Z</time>
      </trkpt>
      <trkpt lat="45.68375" lon="5.45176">
        <ele>240</ele>
        <time>2020-09-14T16:26:50Z</time>
      </trkpt>
      <trkpt lat="45.68374" lon="5.45197">
        <ele>240</ele>
        <time>2020-09-14T16:26:52Z</time>
      </trkpt>
      <trkpt lat="45.6836" lon="5.45298">
        <ele>238</ele>
        <time>2020-09-14T16:27:05Z</time>
      </trkpt>
      <trkpt lat="45.6834" lon="5.454">
        <ele>238</ele>
        <time>2020-09-14T16:27:18Z</time>
      </trkpt>
      <trkpt lat="45.68329" lon="5.45442">
        <ele>238</ele>
        <time>2020-09-14T16:27:24Z</time>
      </trkpt>
      <trkpt lat="45.68314" lon="5.45483">
        <ele>239</ele>
        <time>2020-09-14T16:27:30Z</time>
      </trkpt>
      <trkpt lat="45.68269" lon="5.45593">
        <ele>237</ele>
        <time>2020-09-14T16:27:45Z</time>
      </trkpt>
      <trkpt lat="45.68211" lon="5.45726">
        <ele>230</ele>
        <time>2020-09-14T16:28:05Z</time>
      </trkpt>
      <trkpt lat="45.68175" lon="5.458">
        <ele>227</ele>
        <time>2020-09-14T16:28:16Z</time>
      </trkpt>
      <trkpt lat="45.68166" lon="5.45809">
        <ele>226</ele>
        <time>2020-09-14T16:28:18Z</time>
      </trkpt>
      <trkpt lat="45.68159" lon="5.45811">
        <ele>226</ele>
        <time>2020-09-14T16:28:19Z</time>
      </trkpt>
      <trkpt lat="45.68154" lon="5.45816">
        <ele>225</ele>
        <time>2020-09-14T16:28:20Z</time>
      </trkpt>
      <trkpt lat="45.6815" lon="5.45829">
        <ele>225</ele>
        <time>2020-09-14T16:28:22Z</time>
      </trkpt>
      <trkpt lat="45.68151" lon="5.45837">
        <ele>225</ele>
        <time>2020-09-14T16:28:23Z</time>
      </trkpt>
      <trkpt lat="45.68153" lon="5.45845">
        <ele>224</ele>
        <time>2020-09-14T16:28:24Z</time>
      </trkpt>
      <trkpt lat="45.68143" lon="5.45887">
        <ele>223</ele>
        <time>2020-09-14T16:28:30Z</time>
      </trkpt>
      <trkpt lat="45.67874" lon="5.46523">
        <ele>216</ele>
        <time>2020-09-14T16:30:02Z</time>
      </trkpt>
      <trkpt lat="45.6786" lon="5.46568">
        <ele>216</ele>
        <time>2020-09-14T16:30:08Z</time>
      </trkpt>
      <trkpt lat="45.67853" lon="5.46575">
        <ele>216</ele>
        <time>2020-09-14T16:30:10Z</time>
      </trkpt>
      <trkpt lat="45.6782" lon="5.46652">
        <ele>218</ele>
        <time>2020-09-14T16:30:21Z</time>
      </trkpt>
      <trkpt lat="45.67775" lon="5.46763">
        <ele>223</ele>
        <time>2020-09-14T16:30:37Z</time>
      </trkpt>
      <trkpt lat="45.67751" lon="5.46847">
        <ele>227</ele>
        <time>2020-09-14T16:30:48Z</time>
      </trkpt>
      <trkpt lat="45.67747" lon="5.46864">
        <ele>227</ele>
        <time>2020-09-14T16:30:51Z</time>
      </trkpt>
      <trkpt lat="45.67749" lon="5.4687">
        <ele>227</ele>
        <time>2020-09-14T16:30:51Z</time>
      </trkpt>
      <trkpt lat="45.67745" lon="5.46872">
        <ele>228</ele>
        <time>2020-09-14T16:30:52Z</time>
      </trkpt>
      <trkpt lat="45.67742" lon="5.46879">
        <ele>228</ele>
        <time>2020-09-14T16:30:53Z</time>
      </trkpt>
      <trkpt lat="45.67742" lon="5.46885">
        <ele>228</ele>
        <time>2020-09-14T16:30:54Z</time>
      </trkpt>
      <trkpt lat="45.67744" lon="5.4689">
        <ele>228</ele>
        <time>2020-09-14T16:30:55Z</time>
      </trkpt>
      <trkpt lat="45.67741" lon="5.46903">
        <ele>228</ele>
        <time>2020-09-14T16:30:56Z</time>
      </trkpt>
      <trkpt lat="45.67711" lon="5.46988">
        <ele>229</ele>
        <time>2020-09-14T16:31:08Z</time>
      </trkpt>
      <trkpt lat="45.67696" lon="5.47008">
        <ele>230</ele>
        <time>2020-09-14T16:31:12Z</time>
      </trkpt>
      <trkpt lat="45.67662" lon="5.47067">
        <ele>228</ele>
        <time>2020-09-14T16:31:21Z</time>
      </trkpt>
      <trkpt lat="45.67656" lon="5.47074">
        <ele>228</ele>
        <time>2020-09-14T16:31:23Z</time>
      </trkpt>
      <trkpt lat="45.67568" lon="5.47155">
        <ele>224</ele>
        <time>2020-09-14T16:31:41Z</time>
      </trkpt>
      <trkpt lat="45.6756" lon="5.47157">
        <ele>224</ele>
        <time>2020-09-14T16:31:43Z</time>
      </trkpt>
      <trkpt lat="45.67534" lon="5.47161">
        <ele>223</ele>
        <time>2020-09-14T16:31:47Z</time>
      </trkpt>
      <trkpt lat="45.6753" lon="5.47242">
        <ele>219</ele>
        <time>2020-09-14T16:31:58Z</time>
      </trkpt>
      <trkpt lat="45.6752" lon="5.47307">
        <ele>217</ele>
        <time>2020-09-14T16:32:06Z</time>
      </trkpt>
      <trkpt lat="45.67469" lon="5.47502">
        <ele>212</ele>
        <time>2020-09-14T16:32:32Z</time>
      </trkpt>
      <trkpt lat="45.67466" lon="5.47524">
        <ele>211</ele>
        <time>2020-09-14T16:32:35Z</time>
      </trkpt>
      <trkpt lat="45.67464" lon="5.47563">
        <ele>210</ele>
        <time>2020-09-14T16:32:39Z</time>
      </trkpt>
      <trkpt lat="45.6747" lon="5.47601">
        <ele>209</ele>
        <time>2020-09-14T16:32:44Z</time>
      </trkpt>
      <trkpt lat="45.67467" lon="5.47622">
        <ele>210</ele>
        <time>2020-09-14T16:32:47Z</time>
      </trkpt>
      <trkpt lat="45.67463" lon="5.47627">
        <ele>210</ele>
        <time>2020-09-14T16:32:48Z</time>
      </trkpt>
      <trkpt lat="45.67461" lon="5.47635">
        <ele>210</ele>
        <time>2020-09-14T16:32:49Z</time>
      </trkpt>
      <trkpt lat="45.67462" lon="5.47641">
        <ele>210</ele>
        <time>2020-09-14T16:32:50Z</time>
      </trkpt>
      <trkpt lat="45.67465" lon="5.47647">
        <ele>210</ele>
        <time>2020-09-14T16:32:51Z</time>
      </trkpt>
      <trkpt lat="45.67469" lon="5.47649">
        <ele>210</ele>
        <time>2020-09-14T16:32:51Z</time>
      </trkpt>
      <trkpt lat="45.67475" lon="5.47679">
        <ele>210</ele>
        <time>2020-09-14T16:32:55Z</time>
      </trkpt>
      <trkpt lat="45.67479" lon="5.47744">
        <ele>210</ele>
        <time>2020-09-14T16:33:03Z</time>
      </trkpt>
      <trkpt lat="45.67478" lon="5.47768">
        <ele>210</ele>
        <time>2020-09-14T16:33:06Z</time>
      </trkpt>
      <trkpt lat="45.67481" lon="5.47776">
        <ele>210</ele>
        <time>2020-09-14T16:33:07Z</time>
      </trkpt>
      <trkpt lat="45.67473" lon="5.47816">
        <ele>209</ele>
        <time>2020-09-14T16:33:13Z</time>
      </trkpt>
      <trkpt lat="45.67461" lon="5.47853">
        <ele>209</ele>
        <time>2020-09-14T16:33:18Z</time>
      </trkpt>
      <trkpt lat="45.67458" lon="5.47873">
        <ele>209</ele>
        <time>2020-09-14T16:33:20Z</time>
      </trkpt>
      <trkpt lat="45.67432" lon="5.4795">
        <ele>208</ele>
        <time>2020-09-14T16:33:31Z</time>
      </trkpt>
      <trkpt lat="45.67375" lon="5.48146">
        <ele>208</ele>
        <time>2020-09-14T16:33:57Z</time>
      </trkpt>
      <trkpt lat="45.67344" lon="5.48235">
        <ele>207</ele>
        <time>2020-09-14T16:34:10Z</time>
      </trkpt>
      <trkpt lat="45.67337" lon="5.48238">
        <ele>207</ele>
        <time>2020-09-14T16:34:11Z</time>
      </trkpt>
      <trkpt lat="45.6733" lon="5.48255">
        <ele>207</ele>
        <time>2020-09-14T16:34:13Z</time>
      </trkpt>
      <trkpt lat="45.67327" lon="5.48261">
        <ele>207</ele>
        <time>2020-09-14T16:34:14Z</time>
      </trkpt>
      <trkpt lat="45.67324" lon="5.48269">
        <ele>207</ele>
        <time>2020-09-14T16:34:15Z</time>
      </trkpt>
      <trkpt lat="45.67319" lon="5.48281">
        <ele>207</ele>
        <time>2020-09-14T16:34:17Z</time>
      </trkpt>
      <trkpt lat="45.67267" lon="5.4842">
        <ele>208</ele>
        <time>2020-09-14T16:34:37Z</time>
      </trkpt>
      <trkpt lat="45.67259" lon="5.48441">
        <ele>208</ele>
        <time>2020-09-14T16:34:40Z</time>
      </trkpt>
      <trkpt lat="45.67249" lon="5.48466">
        <ele>208</ele>
        <time>2020-09-14T16:34:43Z</time>
      </trkpt>
      <trkpt lat="45.67244" lon="5.48495">
        <ele>208</ele>
        <time>2020-09-14T16:34:47Z</time>
      </trkpt>
      <trkpt lat="45.67242" lon="5.48536">
        <ele>209</ele>
        <time>2020-09-14T16:34:52Z</time>
      </trkpt>
      <trkpt lat="45.67237" lon="5.48554">
        <ele>209</ele>
        <time>2020-09-14T16:34:55Z</time>
      </trkpt>
      <trkpt lat="45.67231" lon="5.4856">
        <ele>210</ele>
        <time>2020-09-14T16:34:56Z</time>
      </trkpt>
      <trkpt lat="45.67224" lon="5.48556">
        <ele>209</ele>
        <time>2020-09-14T16:34:57Z</time>
      </trkpt>
      <trkpt lat="45.67206" lon="5.48543">
        <ele>209</ele>
        <time>2020-09-14T16:35:01Z</time>
      </trkpt>
      <trkpt lat="45.67206" lon="5.4857">
        <ele>210</ele>
        <time>2020-09-14T16:35:04Z</time>
      </trkpt>
      <trkpt lat="45.67204" lon="5.48581">
        <ele>210</ele>
        <time>2020-09-14T16:35:06Z</time>
      </trkpt>
      <trkpt lat="45.67196" lon="5.48697">
        <ele>210</ele>
        <time>2020-09-14T16:35:20Z</time>
      </trkpt>
      <trkpt lat="45.6719" lon="5.4874">
        <ele>209</ele>
        <time>2020-09-14T16:35:25Z</time>
      </trkpt>
      <trkpt lat="45.67152" lon="5.49043">
        <ele>208</ele>
        <time>2020-09-14T16:36:04Z</time>
      </trkpt>
      <trkpt lat="45.67108" lon="5.49385">
        <ele>207</ele>
        <time>2020-09-14T16:36:47Z</time>
      </trkpt>
      <trkpt lat="45.67107" lon="5.49388">
        <ele>207</ele>
        <time>2020-09-14T16:36:47Z</time>
      </trkpt>
      <trkpt lat="45.67081" lon="5.49594">
        <ele>206</ele>
        <time>2020-09-14T16:37:13Z</time>
      </trkpt>
      <trkpt lat="45.67064" lon="5.49845">
        <ele>205</ele>
        <time>2020-09-14T16:37:45Z</time>
      </trkpt>
      <trkpt lat="45.67063" lon="5.49857">
        <ele>205</ele>
        <time>2020-09-14T16:37:46Z</time>
      </trkpt>
      <trkpt lat="45.67009" lon="5.50613">
        <ele>207</ele>
        <time>2020-09-14T16:39:21Z</time>
      </trkpt>
      <trkpt lat="45.67011" lon="5.50727">
        <ele>206</ele>
        <time>2020-09-14T16:39:35Z</time>
      </trkpt>
      <trkpt lat="45.67106" lon="5.51357">
        <ele>206</ele>
        <time>2020-09-14T16:40:55Z</time>
      </trkpt>
      <trkpt lat="45.67111" lon="5.51413">
        <ele>207</ele>
        <time>2020-09-14T16:41:02Z</time>
      </trkpt>
      <trkpt lat="45.67111" lon="5.51442">
        <ele>208</ele>
        <time>2020-09-14T16:41:06Z</time>
      </trkpt>
      <trkpt lat="45.67094" lon="5.51642">
        <ele>209</ele>
        <time>2020-09-14T16:41:31Z</time>
      </trkpt>
      <trkpt lat="45.67027" lon="5.52293">
        <ele>206</ele>
        <time>2020-09-14T16:42:53Z</time>
      </trkpt>
      <trkpt lat="45.6699" lon="5.52613">
        <ele>208</ele>
        <time>2020-09-14T16:43:33Z</time>
      </trkpt>
      <trkpt lat="45.66979" lon="5.52686">
        <ele>207</ele>
        <time>2020-09-14T16:43:42Z</time>
      </trkpt>
      <trkpt lat="45.66869" lon="5.54097">
        <ele>205</ele>
        <time>2020-09-14T16:46:39Z</time>
      </trkpt>
      <trkpt lat="45.66829" lon="5.54594">
        <ele>208</ele>
        <time>2020-09-14T16:47:41Z</time>
      </trkpt>
      <trkpt lat="45.6681" lon="5.54689">
        <ele>207</ele>
        <time>2020-09-14T16:47:53Z</time>
      </trkpt>
      <trkpt lat="45.66805" lon="5.54717">
        <ele>207</ele>
        <time>2020-09-14T16:47:57Z</time>
      </trkpt>
      <trkpt lat="45.66414" lon="5.56654">
        <ele>205</ele>
        <time>2020-09-14T16:52:07Z</time>
      </trkpt>
      <trkpt lat="45.66414" lon="5.56742">
        <ele>205</ele>
        <time>2020-09-14T16:52:18Z</time>
      </trkpt>
      <trkpt lat="45.66419" lon="5.56832">
        <ele>205</ele>
        <time>2020-09-14T16:52:30Z</time>
      </trkpt>
      <trkpt lat="45.66432" lon="5.56908">
        <ele>205</ele>
        <time>2020-09-14T16:52:39Z</time>
      </trkpt>
      <trkpt lat="45.66454" lon="5.56985">
        <ele>205</ele>
        <time>2020-09-14T16:52:50Z</time>
      </trkpt>
      <trkpt lat="45.66477" lon="5.57042">
        <ele>206</ele>
        <time>2020-09-14T16:52:58Z</time>
      </trkpt>
      <trkpt lat="45.66505" lon="5.57094">
        <ele>207</ele>
        <time>2020-09-14T16:53:06Z</time>
      </trkpt>
      <trkpt lat="45.66549" lon="5.57158">
        <ele>207</ele>
        <time>2020-09-14T16:53:17Z</time>
      </trkpt>
      <trkpt lat="45.66595" lon="5.57206">
        <ele>207</ele>
        <time>2020-09-14T16:53:27Z</time>
      </trkpt>
      <trkpt lat="45.66627" lon="5.57232">
        <ele>207</ele>
        <time>2020-09-14T16:53:34Z</time>
      </trkpt>
      <trkpt lat="45.66775" lon="5.57315">
        <ele>206</ele>
        <time>2020-09-14T16:54:02Z</time>
      </trkpt>
      <trkpt lat="45.66945" lon="5.57425">
        <ele>208</ele>
        <time>2020-09-14T16:54:35Z</time>
      </trkpt>
      <trkpt lat="45.67098" lon="5.57524">
        <ele>210</ele>
        <time>2020-09-14T16:55:05Z</time>
      </trkpt>
      <trkpt lat="45.6717" lon="5.57569">
        <ele>217</ele>
        <time>2020-09-14T16:55:19Z</time>
      </trkpt>
      <trkpt lat="45.67201" lon="5.57591">
        <ele>220</ele>
        <time>2020-09-14T16:55:25Z</time>
      </trkpt>
      <trkpt lat="45.67242" lon="5.57628">
        <ele>223</ele>
        <time>2020-09-14T16:55:34Z</time>
      </trkpt>
      <trkpt lat="45.67254" lon="5.57648">
        <ele>223</ele>
        <time>2020-09-14T16:55:37Z</time>
      </trkpt>
      <trkpt lat="45.67257" lon="5.57662">
        <ele>223</ele>
        <time>2020-09-14T16:55:39Z</time>
      </trkpt>
      <trkpt lat="45.67257" lon="5.57678">
        <ele>222</ele>
        <time>2020-09-14T16:55:41Z</time>
      </trkpt>
      <trkpt lat="45.67254" lon="5.57692">
        <ele>222</ele>
        <time>2020-09-14T16:55:43Z</time>
      </trkpt>
      <trkpt lat="45.67249" lon="5.57704">
        <ele>222</ele>
        <time>2020-09-14T16:55:45Z</time>
      </trkpt>
      <trkpt lat="45.67226" lon="5.5774">
        <ele>220</ele>
        <time>2020-09-14T16:55:51Z</time>
      </trkpt>
      <trkpt lat="45.67168" lon="5.57811">
        <ele>221</ele>
        <time>2020-09-14T16:56:04Z</time>
      </trkpt>
      <trkpt lat="45.67136" lon="5.57872">
        <ele>219</ele>
        <time>2020-09-14T16:56:14Z</time>
      </trkpt>
      <trkpt lat="45.67065" lon="5.58031">
        <ele>215</ele>
        <time>2020-09-14T16:56:37Z</time>
      </trkpt>
      <trkpt lat="45.67048" lon="5.58072">
        <ele>214</ele>
        <time>2020-09-14T16:56:43Z</time>
      </trkpt>
      <trkpt lat="45.67038" lon="5.58107">
        <ele>213</ele>
        <time>2020-09-14T16:56:48Z</time>
      </trkpt>
      <trkpt lat="45.67033" lon="5.58134">
        <ele>213</ele>
        <time>2020-09-14T16:56:51Z</time>
      </trkpt>
      <trkpt lat="45.6703" lon="5.58167">
        <ele>212</ele>
        <time>2020-09-14T16:56:56Z</time>
      </trkpt>
      <trkpt lat="45.67032" lon="5.58188">
        <ele>212</ele>
        <time>2020-09-14T16:56:58Z</time>
      </trkpt>
      <trkpt lat="45.67039" lon="5.58229">
        <ele>211</ele>
        <time>2020-09-14T16:57:03Z</time>
      </trkpt>
      <trkpt lat="45.67291" lon="5.59245">
        <ele>207</ele>
        <time>2020-09-14T16:59:17Z</time>
      </trkpt>
      <trkpt lat="45.67379" lon="5.59596">
        <ele>208</ele>
        <time>2020-09-14T17:00:04Z</time>
      </trkpt>
      <trkpt lat="45.67402" lon="5.59681">
        <ele>207</ele>
        <time>2020-09-14T17:00:15Z</time>
      </trkpt>
      <trkpt lat="45.67549" lon="5.60114">
        <ele>206</ele>
        <time>2020-09-14T17:01:15Z</time>
      </trkpt>
      <trkpt lat="45.6757" lon="5.60185">
        <ele>207</ele>
        <time>2020-09-14T17:01:25Z</time>
      </trkpt>
      <trkpt lat="45.67577" lon="5.60249">
        <ele>208</ele>
        <time>2020-09-14T17:01:33Z</time>
      </trkpt>
      <trkpt lat="45.67581" lon="5.60332">
        <ele>210</ele>
        <time>2020-09-14T17:01:43Z</time>
      </trkpt>
      <trkpt lat="45.67609" lon="5.605">
        <ele>209</ele>
        <time>2020-09-14T17:02:04Z</time>
      </trkpt>
      <trkpt lat="45.67621" lon="5.60585">
        <ele>218</ele>
        <time>2020-09-14T17:02:15Z</time>
      </trkpt>
      <trkpt lat="45.67493" lon="5.60757">
        <ele>222</ele>
        <time>2020-09-14T17:02:46Z</time>
      </trkpt>
      <trkpt lat="45.67447" lon="5.60808">
        <ele>222</ele>
        <time>2020-09-14T17:02:57Z</time>
      </trkpt>
      <trkpt lat="45.6741" lon="5.60839">
        <ele>218</ele>
        <time>2020-09-14T17:03:04Z</time>
      </trkpt>
      <trkpt lat="45.67375" lon="5.60862">
        <ele>218</ele>
        <time>2020-09-14T17:03:11Z</time>
      </trkpt>
      <trkpt lat="45.67325" lon="5.60889">
        <ele>213</ele>
        <time>2020-09-14T17:03:21Z</time>
      </trkpt>
      <trkpt lat="45.67274" lon="5.60919">
        <ele>212</ele>
        <time>2020-09-14T17:03:31Z</time>
      </trkpt>
      <trkpt lat="45.67278" lon="5.60932">
        <ele>216</ele>
        <time>2020-09-14T17:03:32Z</time>
      </trkpt>
      <trkpt lat="45.67278" lon="5.60947">
        <ele>220</ele>
        <time>2020-09-14T17:03:34Z</time>
      </trkpt>
      <trkpt lat="45.67272" lon="5.6096">
        <ele>223</ele>
        <time>2020-09-14T17:03:36Z</time>
      </trkpt>
      <trkpt lat="45.67262" lon="5.60969">
        <ele>223</ele>
        <time>2020-09-14T17:03:38Z</time>
      </trkpt>
      <trkpt lat="45.67224" lon="5.60991">
        <ele>223</ele>
        <time>2020-09-14T17:03:46Z</time>
      </trkpt>
      <trkpt lat="45.67197" lon="5.61008">
        <ele>225</ele>
        <time>2020-09-14T17:03:51Z</time>
      </trkpt>
      <trkpt lat="45.67159" lon="5.6105">
        <ele>236</ele>
        <time>2020-09-14T17:03:59Z</time>
      </trkpt>
      <trkpt lat="45.67132" lon="5.61075">
        <ele>239</ele>
        <time>2020-09-14T17:04:05Z</time>
      </trkpt>
      <trkpt lat="45.6712" lon="5.61082">
        <ele>238</ele>
        <time>2020-09-14T17:04:07Z</time>
      </trkpt>
      <trkpt lat="45.67095" lon="5.61089">
        <ele>234</ele>
        <time>2020-09-14T17:04:12Z</time>
      </trkpt>
      <trkpt lat="45.67081" lon="5.61098">
        <ele>235</ele>
        <time>2020-09-14T17:04:15Z</time>
      </trkpt>
      <trkpt lat="45.67052" lon="5.61125">
        <ele>241</ele>
        <time>2020-09-14T17:04:21Z</time>
      </trkpt>
      <trkpt lat="45.67038" lon="5.61143">
        <ele>244</ele>
        <time>2020-09-14T17:04:24Z</time>
      </trkpt>
      <trkpt lat="45.67022" lon="5.61177">
        <ele>252</ele>
        <time>2020-09-14T17:04:29Z</time>
      </trkpt>
      <trkpt lat="45.67013" lon="5.61189">
        <ele>254</ele>
        <time>2020-09-14T17:04:31Z</time>
      </trkpt>
      <trkpt lat="45.66989" lon="5.61208">
        <ele>256</ele>
        <time>2020-09-14T17:04:36Z</time>
      </trkpt>
      <trkpt lat="45.66962" lon="5.61212">
        <ele>253</ele>
        <time>2020-09-14T17:04:41Z</time>
      </trkpt>
      <trkpt lat="45.66915" lon="5.61207">
        <ele>243</ele>
        <time>2020-09-14T17:04:50Z</time>
      </trkpt>
      <trkpt lat="45.66907" lon="5.6121">
        <ele>243</ele>
        <time>2020-09-14T17:04:51Z</time>
      </trkpt>
      <trkpt lat="45.66899" lon="5.61214">
        <ele>243</ele>
        <time>2020-09-14T17:04:53Z</time>
      </trkpt>
      <trkpt lat="45.66864" lon="5.61255">
        <ele>253</ele>
        <time>2020-09-14T17:05:01Z</time>
      </trkpt>
      <trkpt lat="45.66838" lon="5.6127">
        <ele>255</ele>
        <time>2020-09-14T17:05:06Z</time>
      </trkpt>
      <trkpt lat="45.66792" lon="5.6128">
        <ele>253</ele>
        <time>2020-09-14T17:05:14Z</time>
      </trkpt>
      <trkpt lat="45.66617" lon="5.61385">
        <ele>263</ele>
        <time>2020-09-14T17:05:48Z</time>
      </trkpt>
      <trkpt lat="45.66601" lon="5.61397">
        <ele>264</ele>
        <time>2020-09-14T17:05:51Z</time>
      </trkpt>
      <trkpt lat="45.66592" lon="5.61419">
        <ele>270</ele>
        <time>2020-09-14T17:05:54Z</time>
      </trkpt>
      <trkpt lat="45.66589" lon="5.61435">
        <ele>272</ele>
        <time>2020-09-14T17:05:56Z</time>
      </trkpt>
      <trkpt lat="45.66594" lon="5.61487">
        <ele>282</ele>
        <time>2020-09-14T17:06:03Z</time>
      </trkpt>
      <trkpt lat="45.66593" lon="5.61531">
        <ele>289</ele>
        <time>2020-09-14T17:06:08Z</time>
      </trkpt>
      <trkpt lat="45.66597" lon="5.61552">
        <ele>294</ele>
        <time>2020-09-14T17:06:11Z</time>
      </trkpt>
      <trkpt lat="45.66608" lon="5.61577">
        <ele>301</ele>
        <time>2020-09-14T17:06:14Z</time>
      </trkpt>
      <trkpt lat="45.66625" lon="5.61596">
        <ele>307</ele>
        <time>2020-09-14T17:06:18Z</time>
      </trkpt>
      <trkpt lat="45.6665" lon="5.61637">
        <ele>309</ele>
        <time>2020-09-14T17:06:25Z</time>
      </trkpt>
      <trkpt lat="45.66712" lon="5.61807">
        <ele>309</ele>
        <time>2020-09-14T17:06:49Z</time>
      </trkpt>
      <trkpt lat="45.66762" lon="5.61919">
        <ele>307</ele>
        <time>2020-09-14T17:07:05Z</time>
      </trkpt>
      <trkpt lat="45.66774" lon="5.61957">
        <ele>310</ele>
        <time>2020-09-14T17:07:11Z</time>
      </trkpt>
      <trkpt lat="45.66793" lon="5.62025">
        <ele>313</ele>
        <time>2020-09-14T17:07:20Z</time>
      </trkpt>
      <trkpt lat="45.66799" lon="5.6207">
        <ele>312</ele>
        <time>2020-09-14T17:07:25Z</time>
      </trkpt>
      <trkpt lat="45.66797" lon="5.62117">
        <ele>310</ele>
        <time>2020-09-14T17:07:31Z</time>
      </trkpt>
      <trkpt lat="45.66785" lon="5.6224">
        <ele>308</ele>
        <time>2020-09-14T17:07:47Z</time>
      </trkpt>
      <trkpt lat="45.66786" lon="5.62289">
        <ele>311</ele>
        <time>2020-09-14T17:07:53Z</time>
      </trkpt>
      <trkpt lat="45.66796" lon="5.62331">
        <ele>313</ele>
        <time>2020-09-14T17:07:58Z</time>
      </trkpt>
      <trkpt lat="45.66814" lon="5.62373">
        <ele>313</ele>
        <time>2020-09-14T17:08:04Z</time>
      </trkpt>
      <trkpt lat="45.66847" lon="5.62431">
        <ele>308</ele>
        <time>2020-09-14T17:08:14Z</time>
      </trkpt>
      <trkpt lat="45.66859" lon="5.62463">
        <ele>309</ele>
        <time>2020-09-14T17:08:18Z</time>
      </trkpt>
      <trkpt lat="45.66867" lon="5.62521">
        <ele>307</ele>
        <time>2020-09-14T17:08:26Z</time>
      </trkpt>
      <trkpt lat="45.66964" lon="5.62752">
        <ele>297</ele>
        <time>2020-09-14T17:08:59Z</time>
      </trkpt>
      <trkpt lat="45.66969" lon="5.62766">
        <ele>298</ele>
        <time>2020-09-14T17:09:01Z</time>
      </trkpt>
      <trkpt lat="45.66991" lon="5.62825">
        <ele>296</ele>
        <time>2020-09-14T17:09:09Z</time>
      </trkpt>
      <trkpt lat="45.67339" lon="5.63761">
        <ele>291</ele>
        <time>2020-09-14T17:11:21Z</time>
      </trkpt>
      <trkpt lat="45.67373" lon="5.63862">
        <ele>295</ele>
        <time>2020-09-14T17:11:35Z</time>
      </trkpt>
      <trkpt lat="45.67389" lon="5.63928">
        <ele>299</ele>
        <time>2020-09-14T17:11:44Z</time>
      </trkpt>
      <trkpt lat="45.67399" lon="5.64025">
        <ele>304</ele>
        <time>2020-09-14T17:11:56Z</time>
      </trkpt>
      <trkpt lat="45.67418" lon="5.64324">
        <ele>306</ele>
        <time>2020-09-14T17:12:33Z</time>
      </trkpt>
      <trkpt lat="45.67418" lon="5.64392">
        <ele>304</ele>
        <time>2020-09-14T17:12:42Z</time>
      </trkpt>
      <trkpt lat="45.67383" lon="5.64577">
        <ele>312</ele>
        <time>2020-09-14T17:13:06Z</time>
      </trkpt>
      <trkpt lat="45.67386" lon="5.64676">
        <ele>308</ele>
        <time>2020-09-14T17:13:18Z</time>
      </trkpt>
      <trkpt lat="45.67399" lon="5.64727">
        <ele>304</ele>
        <time>2020-09-14T17:13:25Z</time>
      </trkpt>
      <trkpt lat="45.67425" lon="5.64785">
        <ele>299</ele>
        <time>2020-09-14T17:13:33Z</time>
      </trkpt>
      <trkpt lat="45.67467" lon="5.64841">
        <ele>298</ele>
        <time>2020-09-14T17:13:43Z</time>
      </trkpt>
      <trkpt lat="45.67658" lon="5.65003">
        <ele>299</ele>
        <time>2020-09-14T17:14:23Z</time>
      </trkpt>
      <trkpt lat="45.6824" lon="5.65355">
        <ele>301</ele>
        <time>2020-09-14T17:16:15Z</time>
      </trkpt>
      <trkpt lat="45.68196" lon="5.65413">
        <ele>302</ele>
        <time>2020-09-14T17:16:26Z</time>
      </trkpt>
      <trkpt lat="45.68185" lon="5.65432">
        <ele>303</ele>
        <time>2020-09-14T17:16:29Z</time>
      </trkpt>
      <trkpt lat="45.68174" lon="5.65457">
        <ele>304</ele>
        <time>2020-09-14T17:16:33Z</time>
      </trkpt>
      <trkpt lat="45.68169" lon="5.65476">
        <ele>305</ele>
        <time>2020-09-14T17:16:35Z</time>
      </trkpt>
      <trkpt lat="45.68172" lon="5.65497">
        <ele>306</ele>
        <time>2020-09-14T17:16:38Z</time>
      </trkpt>
      <trkpt lat="45.68187" lon="5.65538">
        <ele>311</ele>
        <time>2020-09-14T17:16:44Z</time>
      </trkpt>
      <trkpt lat="45.68193" lon="5.65561">
        <ele>313</ele>
        <time>2020-09-14T17:16:47Z</time>
      </trkpt>
      <trkpt lat="45.68197" lon="5.65583">
        <ele>316</ele>
        <time>2020-09-14T17:16:50Z</time>
      </trkpt>
      <trkpt lat="45.682" lon="5.6561">
        <ele>318</ele>
        <time>2020-09-14T17:16:53Z</time>
      </trkpt>
      <trkpt lat="45.68216" lon="5.65672">
        <ele>323</ele>
        <time>2020-09-14T17:17:01Z</time>
      </trkpt>
      <trkpt lat="45.68217" lon="5.65726">
        <ele>326</ele>
        <time>2020-09-14T17:17:08Z</time>
      </trkpt>
      <trkpt lat="45.68219" lon="5.65744">
        <ele>326</ele>
        <time>2020-09-14T17:17:10Z</time>
      </trkpt>
      <trkpt lat="45.68224" lon="5.65767">
        <ele>330</ele>
        <time>2020-09-14T17:17:13Z</time>
      </trkpt>
      <trkpt lat="45.6824" lon="5.65787">
        <ele>332</ele>
        <time>2020-09-14T17:17:17Z</time>
      </trkpt>
      <trkpt lat="45.68265" lon="5.65824">
        <ele>338</ele>
        <time>2020-09-14T17:17:23Z</time>
      </trkpt>
      <trkpt lat="45.68277" lon="5.65834">
        <ele>340</ele>
        <time>2020-09-14T17:17:26Z</time>
      </trkpt>
      <trkpt lat="45.68291" lon="5.65842">
        <ele>341</ele>
        <time>2020-09-14T17:17:29Z</time>
      </trkpt>
      <trkpt lat="45.68323" lon="5.65855">
        <ele>343</ele>
        <time>2020-09-14T17:17:34Z</time>
      </trkpt>
      <trkpt lat="45.6836" lon="5.65865">
        <ele>348</ele>
        <time>2020-09-14T17:17:41Z</time>
      </trkpt>
      <trkpt lat="45.68386" lon="5.65857">
        <ele>351</ele>
        <time>2020-09-14T17:17:46Z</time>
      </trkpt>
      <trkpt lat="45.68392" lon="5.65857">
        <ele>352</ele>
        <time>2020-09-14T17:17:47Z</time>
      </trkpt>
      <trkpt lat="45.68397" lon="5.65862">
        <ele>353</ele>
        <time>2020-09-14T17:17:48Z</time>
      </trkpt>
      <trkpt lat="45.68408" lon="5.65892">
        <ele>356</ele>
        <time>2020-09-14T17:17:52Z</time>
      </trkpt>
      <trkpt lat="45.68417" lon="5.6592">
        <ele>358</ele>
        <time>2020-09-14T17:17:56Z</time>
      </trkpt>
      <trkpt lat="45.68427" lon="5.65938">
        <ele>364</ele>
        <time>2020-09-14T17:17:59Z</time>
      </trkpt>
      <trkpt lat="45.68437" lon="5.65965">
        <ele>370</ele>
        <time>2020-09-14T17:18:03Z</time>
      </trkpt>
      <trkpt lat="45.68436" lon="5.65983">
        <ele>370</ele>
        <time>2020-09-14T17:18:05Z</time>
      </trkpt>
      <trkpt lat="45.6843" lon="5.66004">
        <ele>369</ele>
        <time>2020-09-14T17:18:08Z</time>
      </trkpt>
      <trkpt lat="45.68428" lon="5.66027">
        <ele>370</ele>
        <time>2020-09-14T17:18:11Z</time>
      </trkpt>
      <trkpt lat="45.68436" lon="5.66078">
        <ele>374</ele>
        <time>2020-09-14T17:18:17Z</time>
      </trkpt>
      <trkpt lat="45.6845" lon="5.66137">
        <ele>377</ele>
        <time>2020-09-14T17:18:25Z</time>
      </trkpt>
      <trkpt lat="45.68449" lon="5.66228">
        <ele>379</ele>
        <time>2020-09-14T17:18:36Z</time>
      </trkpt>
      <trkpt lat="45.6845" lon="5.66256">
        <ele>380</ele>
        <time>2020-09-14T17:18:40Z</time>
      </trkpt>
      <trkpt lat="45.68455" lon="5.66286">
        <ele>380</ele>
        <time>2020-09-14T17:18:44Z</time>
      </trkpt>
      <trkpt lat="45.68465" lon="5.66324">
        <ele>378</ele>
        <time>2020-09-14T17:18:49Z</time>
      </trkpt>
      <trkpt lat="45.68473" lon="5.66344">
        <ele>377</ele>
        <time>2020-09-14T17:18:51Z</time>
      </trkpt>
      <trkpt lat="45.68485" lon="5.66364">
        <ele>376</ele>
        <time>2020-09-14T17:18:55Z</time>
      </trkpt>
      <trkpt lat="45.68529" lon="5.66464">
        <ele>382</ele>
        <time>2020-09-14T17:19:09Z</time>
      </trkpt>
      <trkpt lat="45.68579" lon="5.66534">
        <ele>376</ele>
        <time>2020-09-14T17:19:22Z</time>
      </trkpt>
      <trkpt lat="45.68602" lon="5.66659">
        <ele>372</ele>
        <time>2020-09-14T17:19:38Z</time>
      </trkpt>
      <trkpt lat="45.68606" lon="5.66677">
        <ele>369</ele>
        <time>2020-09-14T17:19:40Z</time>
      </trkpt>
      <trkpt lat="45.68607" lon="5.6669">
        <ele>365</ele>
        <time>2020-09-14T17:19:42Z</time>
      </trkpt>
      <trkpt lat="45.68605" lon="5.66702">
        <ele>361</ele>
        <time>2020-09-14T17:19:43Z</time>
      </trkpt>
      <trkpt lat="45.68598" lon="5.66707">
        <ele>360</ele>
        <time>2020-09-14T17:19:45Z</time>
      </trkpt>
      <trkpt lat="45.68549" lon="5.66723">
        <ele>364</ele>
        <time>2020-09-14T17:19:54Z</time>
      </trkpt>
      <trkpt lat="45.68497" lon="5.66751">
        <ele>367</ele>
        <time>2020-09-14T17:20:04Z</time>
      </trkpt>
      <trkpt lat="45.68372" lon="5.66781">
        <ele>366</ele>
        <time>2020-09-14T17:20:26Z</time>
      </trkpt>
      <trkpt lat="45.68318" lon="5.66798">
        <ele>368</ele>
        <time>2020-09-14T17:20:36Z</time>
      </trkpt>
      <trkpt lat="45.68225" lon="5.66885">
        <ele>353</ele>
        <time>2020-09-14T17:20:56Z</time>
      </trkpt>
      <trkpt lat="45.68098" lon="5.66954">
        <ele>341</ele>
        <time>2020-09-14T17:21:20Z</time>
      </trkpt>
      <trkpt lat="45.68091" lon="5.66964">
        <ele>338</ele>
        <time>2020-09-14T17:21:22Z</time>
      </trkpt>
      <trkpt lat="45.68092" lon="5.6697">
        <ele>336</ele>
        <time>2020-09-14T17:21:22Z</time>
      </trkpt>
      <trkpt lat="45.68106" lon="5.66972">
        <ele>334</ele>
        <time>2020-09-14T17:21:25Z</time>
      </trkpt>
      <trkpt lat="45.68118" lon="5.66968">
        <ele>334</ele>
        <time>2020-09-14T17:21:27Z</time>
      </trkpt>
      <trkpt lat="45.68151" lon="5.66964">
        <ele>331</ele>
        <time>2020-09-14T17:21:33Z</time>
      </trkpt>
      <trkpt lat="45.68162" lon="5.66966">
        <ele>329</ele>
        <time>2020-09-14T17:21:35Z</time>
      </trkpt>
      <trkpt lat="45.68179" lon="5.66965">
        <ele>329</ele>
        <time>2020-09-14T17:21:38Z</time>
      </trkpt>
      <trkpt lat="45.68196" lon="5.66968">
        <ele>329</ele>
        <time>2020-09-14T17:21:41Z</time>
      </trkpt>
      <trkpt lat="45.68208" lon="5.66976">
        <ele>327</ele>
        <time>2020-09-14T17:21:43Z</time>
      </trkpt>
      <trkpt lat="45.68226" lon="5.66995">
        <ele>323</ele>
        <time>2020-09-14T17:21:47Z</time>
      </trkpt>
      <trkpt lat="45.6824" lon="5.67024">
        <ele>318</ele>
        <time>2020-09-14T17:21:52Z</time>
      </trkpt>
      <trkpt lat="45.68247" lon="5.67064">
        <ele>310</ele>
        <time>2020-09-14T17:21:57Z</time>
      </trkpt>
      <trkpt lat="45.68244" lon="5.67085">
        <ele>305</ele>
        <time>2020-09-14T17:22:00Z</time>
      </trkpt>
      <trkpt lat="45.68235" lon="5.67075">
        <ele>307</ele>
        <time>2020-09-14T17:22:02Z</time>
      </trkpt>
      <trkpt lat="45.68226" lon="5.67054">
        <ele>310</ele>
        <time>2020-09-14T17:22:05Z</time>
      </trkpt>
      <trkpt lat="45.68211" lon="5.6704">
        <ele>312</ele>
        <time>2020-09-14T17:22:08Z</time>
      </trkpt>
      <trkpt lat="45.68162" lon="5.67036">
        <ele>309</ele>
        <time>2020-09-14T17:22:17Z</time>
      </trkpt>
      <trkpt lat="45.68152" lon="5.67039">
        <ele>309</ele>
        <time>2020-09-14T17:22:18Z</time>
      </trkpt>
      <trkpt lat="45.68145" lon="5.67045">
        <ele>308</ele>
        <time>2020-09-14T17:22:20Z</time>
      </trkpt>
      <trkpt lat="45.68143" lon="5.67053">
        <ele>307</ele>
        <time>2020-09-14T17:22:21Z</time>
      </trkpt>
      <trkpt lat="45.68146" lon="5.67056">
        <ele>306</ele>
        <time>2020-09-14T17:22:22Z</time>
      </trkpt>
      <trkpt lat="45.68168" lon="5.67053">
        <ele>305</ele>
        <time>2020-09-14T17:22:26Z</time>
      </trkpt>
      <trkpt lat="45.68182" lon="5.67058">
        <ele>305</ele>
        <time>2020-09-14T17:22:28Z</time>
      </trkpt>
      <trkpt lat="45.68193" lon="5.67066">
        <ele>305</ele>
        <time>2020-09-14T17:22:30Z</time>
      </trkpt>
      <trkpt lat="45.68198" lon="5.67077">
        <ele>303</ele>
        <time>2020-09-14T17:22:32Z</time>
      </trkpt>
      <trkpt lat="45.68195" lon="5.67081">
        <ele>302</ele>
        <time>2020-09-14T17:22:33Z</time>
      </trkpt>
      <trkpt lat="45.68175" lon="5.67072">
        <ele>302</ele>
        <time>2020-09-14T17:22:36Z</time>
      </trkpt>
      <trkpt lat="45.68142" lon="5.67082">
        <ele>300</ele>
        <time>2020-09-14T17:22:42Z</time>
      </trkpt>
      <trkpt lat="45.68082" lon="5.67114">
        <ele>294</ele>
        <time>2020-09-14T17:22:54Z</time>
      </trkpt>
      <trkpt lat="45.68054" lon="5.67139">
        <ele>291</ele>
        <time>2020-09-14T17:23:00Z</time>
      </trkpt>
      <trkpt lat="45.68016" lon="5.67161">
        <ele>286</ele>
        <time>2020-09-14T17:23:07Z</time>
      </trkpt>
      <trkpt lat="45.67977" lon="5.6718">
        <ele>284</ele>
        <time>2020-09-14T17:23:14Z</time>
      </trkpt>
      <trkpt lat="45.67945" lon="5.67205">
        <ele>280</ele>
        <time>2020-09-14T17:23:21Z</time>
      </trkpt>
      <trkpt lat="45.67902" lon="5.67262">
        <ele>268</ele>
        <time>2020-09-14T17:23:31Z</time>
      </trkpt>
      <trkpt lat="45.6787" lon="5.67291">
        <ele>269</ele>
        <time>2020-09-14T17:23:38Z</time>
      </trkpt>
      <trkpt lat="45.67863" lon="5.67315">
        <ele>264</ele>
        <time>2020-09-14T17:23:41Z</time>
      </trkpt>
      <trkpt lat="45.67861" lon="5.67342">
        <ele>259</ele>
        <time>2020-09-14T17:23:45Z</time>
      </trkpt>
      <trkpt lat="45.67866" lon="5.67392">
        <ele>254</ele>
        <time>2020-09-14T17:23:51Z</time>
      </trkpt>
      <trkpt lat="45.67863" lon="5.67423">
        <ele>251</ele>
        <time>2020-09-14T17:23:55Z</time>
      </trkpt>
      <trkpt lat="45.67844" lon="5.67497">
        <ele>248</ele>
        <time>2020-09-14T17:24:05Z</time>
      </trkpt>
      <trkpt lat="45.67837" lon="5.67512">
        <ele>248</ele>
        <time>2020-09-14T17:24:07Z</time>
      </trkpt>
      <trkpt lat="45.67818" lon="5.67538">
        <ele>247</ele>
        <time>2020-09-14T17:24:11Z</time>
      </trkpt>
      <trkpt lat="45.67824" lon="5.67559">
        <ele>246</ele>
        <time>2020-09-14T17:24:14Z</time>
      </trkpt>
      <trkpt lat="45.67827" lon="5.67606">
        <ele>244</ele>
        <time>2020-09-14T17:24:20Z</time>
      </trkpt>
      <trkpt lat="45.67803" lon="5.6761">
        <ele>244</ele>
        <time>2020-09-14T17:24:24Z</time>
      </trkpt>
      <trkpt lat="45.67785" lon="5.67635">
        <ele>243</ele>
        <time>2020-09-14T17:24:29Z</time>
      </trkpt>
      <trkpt lat="45.67693" lon="5.67713">
        <ele>236</ele>
        <time>2020-09-14T17:24:48Z</time>
      </trkpt>
      <trkpt lat="45.67674" lon="5.67761">
        <ele>233</ele>
        <time>2020-09-14T17:24:55Z</time>
      </trkpt>
      <trkpt lat="45.6767" lon="5.67778">
        <ele>232</ele>
        <time>2020-09-14T17:24:57Z</time>
      </trkpt>
      <trkpt lat="45.67677" lon="5.67791">
        <ele>232</ele>
        <time>2020-09-14T17:24:59Z</time>
      </trkpt>
      <trkpt lat="45.6771" lon="5.67887">
        <ele>229</ele>
        <time>2020-09-14T17:25:12Z</time>
      </trkpt>
      <trkpt lat="45.67721" lon="5.67907">
        <ele>228</ele>
        <time>2020-09-14T17:25:16Z</time>
      </trkpt>
      <trkpt lat="45.67738" lon="5.67921">
        <ele>228</ele>
        <time>2020-09-14T17:25:19Z</time>
      </trkpt>
      <trkpt lat="45.6777" lon="5.67943">
        <ele>227</ele>
        <time>2020-09-14T17:25:25Z</time>
      </trkpt>
      <trkpt lat="45.678" lon="5.67973">
        <ele>227</ele>
        <time>2020-09-14T17:25:32Z</time>
      </trkpt>
      <trkpt lat="45.67812" lon="5.67986">
        <ele>227</ele>
        <time>2020-09-14T17:25:35Z</time>
      </trkpt>
      <trkpt lat="45.67841" lon="5.6803">
        <ele>226</ele>
        <time>2020-09-14T17:25:42Z</time>
      </trkpt>
      <trkpt lat="45.67848" lon="5.68059">
        <ele>226</ele>
        <time>2020-09-14T17:25:46Z</time>
      </trkpt>
      <trkpt lat="45.67854" lon="5.68082">
        <ele>225</ele>
        <time>2020-09-14T17:25:49Z</time>
      </trkpt>
      <trkpt lat="45.67865" lon="5.68102">
        <ele>225</ele>
        <time>2020-09-14T17:25:52Z</time>
      </trkpt>
      <trkpt lat="45.67877" lon="5.68117">
        <ele>225</ele>
        <time>2020-09-14T17:25:55Z</time>
      </trkpt>
      <trkpt lat="45.67965" lon="5.68207">
        <ele>227</ele>
        <time>2020-09-14T17:26:14Z</time>
      </trkpt>
      <trkpt lat="45.68004" lon="5.68238">
        <ele>229</ele>
        <time>2020-09-14T17:26:22Z</time>
      </trkpt>
      <trkpt lat="45.68053" lon="5.68265">
        <ele>229</ele>
        <time>2020-09-14T17:26:31Z</time>
      </trkpt>
      <trkpt lat="45.68108" lon="5.68305">
        <ele>227</ele>
        <time>2020-09-14T17:26:42Z</time>
      </trkpt>
      <trkpt lat="45.68202" lon="5.68377">
        <ele>228</ele>
        <time>2020-09-14T17:27:01Z</time>
      </trkpt>
      <trkpt lat="45.6822" lon="5.68395">
        <ele>228</ele>
        <time>2020-09-14T17:27:05Z</time>
      </trkpt>
      <trkpt lat="45.68228" lon="5.68409">
        <ele>228</ele>
        <time>2020-09-14T17:27:08Z</time>
      </trkpt>
      <trkpt lat="45.68234" lon="5.6843">
        <ele>228</ele>
        <time>2020-09-14T17:27:10Z</time>
      </trkpt>
      <trkpt lat="45.68246" lon="5.68512">
        <ele>227</ele>
        <time>2020-09-14T17:27:21Z</time>
      </trkpt>
      <trkpt lat="45.68259" lon="5.68554">
        <ele>227</ele>
        <time>2020-09-14T17:27:26Z</time>
      </trkpt>
      <trkpt lat="45.68284" lon="5.68584">
        <ele>228</ele>
        <time>2020-09-14T17:27:32Z</time>
      </trkpt>
      <trkpt lat="45.6834" lon="5.68627">
        <ele>229</ele>
        <time>2020-09-14T17:27:44Z</time>
      </trkpt>
      <trkpt lat="45.68363" lon="5.68651">
        <ele>229</ele>
        <time>2020-09-14T17:27:49Z</time>
      </trkpt>
      <trkpt lat="45.68389" lon="5.68702">
        <ele>230</ele>
        <time>2020-09-14T17:27:56Z</time>
      </trkpt>
      <trkpt lat="45.68451" lon="5.68876">
        <ele>230</ele>
        <time>2020-09-14T17:28:21Z</time>
      </trkpt>
      <trkpt lat="45.68468" lon="5.6891">
        <ele>230</ele>
        <time>2020-09-14T17:28:26Z</time>
      </trkpt>
      <trkpt lat="45.68489" lon="5.68939">
        <ele>231</ele>
        <time>2020-09-14T17:28:31Z</time>
      </trkpt>
      <trkpt lat="45.68514" lon="5.68961">
        <ele>231</ele>
        <time>2020-09-14T17:28:36Z</time>
      </trkpt>
      <trkpt lat="45.68793" lon="5.6918">
        <ele>227</ele>
        <time>2020-09-14T17:29:33Z</time>
      </trkpt>
      <trkpt lat="45.68896" lon="5.69259">
        <ele>225</ele>
        <time>2020-09-14T17:29:54Z</time>
      </trkpt>
      <trkpt lat="45.68934" lon="5.69298">
        <ele>225</ele>
        <time>2020-09-14T17:30:02Z</time>
      </trkpt>
      <trkpt lat="45.68962" lon="5.69342">
        <ele>225</ele>
        <time>2020-09-14T17:30:10Z</time>
      </trkpt>
      <trkpt lat="45.69011" lon="5.69422">
        <ele>225</ele>
        <time>2020-09-14T17:30:23Z</time>
      </trkpt>
      <trkpt lat="45.69029" lon="5.69445">
        <ele>224</ele>
        <time>2020-09-14T17:30:27Z</time>
      </trkpt>
      <trkpt lat="45.69049" lon="5.69461">
        <ele>224</ele>
        <time>2020-09-14T17:30:31Z</time>
      </trkpt>
      <trkpt lat="45.69072" lon="5.69473">
        <ele>223</ele>
        <time>2020-09-14T17:30:35Z</time>
      </trkpt>
      <trkpt lat="45.69102" lon="5.69479">
        <ele>223</ele>
        <time>2020-09-14T17:30:41Z</time>
      </trkpt>
      <trkpt lat="45.69127" lon="5.69479">
        <ele>223</ele>
        <time>2020-09-14T17:30:45Z</time>
      </trkpt>
      <trkpt lat="45.69174" lon="5.69471">
        <ele>224</ele>
        <time>2020-09-14T17:30:54Z</time>
      </trkpt>
      <trkpt lat="45.69203" lon="5.6947">
        <ele>223</ele>
        <time>2020-09-14T17:30:59Z</time>
      </trkpt>
      <trkpt lat="45.69225" lon="5.69476">
        <ele>223</ele>
        <time>2020-09-14T17:31:03Z</time>
      </trkpt>
      <trkpt lat="45.6925" lon="5.69489">
        <ele>223</ele>
        <time>2020-09-14T17:31:08Z</time>
      </trkpt>
      <trkpt lat="45.69398" lon="5.6962">
        <ele>221</ele>
        <time>2020-09-14T17:31:39Z</time>
      </trkpt>
      <trkpt lat="45.69537" lon="5.69744">
        <ele>221</ele>
        <time>2020-09-14T17:32:08Z</time>
      </trkpt>
      <trkpt lat="45.69573" lon="5.6977">
        <ele>221</ele>
        <time>2020-09-14T17:32:15Z</time>
      </trkpt>
      <trkpt lat="45.69616" lon="5.69791">
        <ele>220</ele>
        <time>2020-09-14T17:32:23Z</time>
      </trkpt>
      <trkpt lat="45.69642" lon="5.69798">
        <ele>219</ele>
        <time>2020-09-14T17:32:28Z</time>
      </trkpt>
      <trkpt lat="45.69692" lon="5.69806">
        <ele>220</ele>
        <time>2020-09-14T17:32:37Z</time>
      </trkpt>
      <trkpt lat="45.69764" lon="5.69819">
        <ele>221</ele>
        <time>2020-09-14T17:32:50Z</time>
      </trkpt>
      <trkpt lat="45.69914" lon="5.69842">
        <ele>222</ele>
        <time>2020-09-14T17:33:16Z</time>
      </trkpt>
      <trkpt lat="45.69975" lon="5.69851">
        <ele>220</ele>
        <time>2020-09-14T17:33:27Z</time>
      </trkpt>
      <trkpt lat="45.70027" lon="5.69872">
        <ele>220</ele>
        <time>2020-09-14T17:33:37Z</time>
      </trkpt>
      <trkpt lat="45.70113" lon="5.69915">
        <ele>221</ele>
        <time>2020-09-14T17:33:53Z</time>
      </trkpt>
      <trkpt lat="45.70178" lon="5.69934">
        <ele>222</ele>
        <time>2020-09-14T17:34:05Z</time>
      </trkpt>
      <trkpt lat="45.70386" lon="5.69925">
        <ele>219</ele>
        <time>2020-09-14T17:34:42Z</time>
      </trkpt>
      <trkpt lat="45.70445" lon="5.6991">
        <ele>219</ele>
        <time>2020-09-14T17:34:53Z</time>
      </trkpt>
      <trkpt lat="45.7053" lon="5.69874">
        <ele>220</ele>
        <time>2020-09-14T17:35:08Z</time>
      </trkpt>
      <trkpt lat="45.70609" lon="5.69855">
        <ele>220</ele>
        <time>2020-09-14T17:35:23Z</time>
      </trkpt>
      <trkpt lat="45.70656" lon="5.69846">
        <ele>221</ele>
        <time>2020-09-14T17:35:31Z</time>
      </trkpt>
      <trkpt lat="45.70679" lon="5.69845">
        <ele>221</ele>
        <time>2020-09-14T17:35:35Z</time>
      </trkpt>
      <trkpt lat="45.70803" lon="5.69849">
        <ele>222</ele>
        <time>2020-09-14T17:35:57Z</time>
      </trkpt>
      <trkpt lat="45.70834" lon="5.69846">
        <ele>223</ele>
        <time>2020-09-14T17:36:03Z</time>
      </trkpt>
      <trkpt lat="45.70846" lon="5.69846">
        <ele>222</ele>
        <time>2020-09-14T17:36:05Z</time>
      </trkpt>
      <trkpt lat="45.70852" lon="5.69846">
        <ele>222</ele>
        <time>2020-09-14T17:36:06Z</time>
      </trkpt>
      <trkpt lat="45.70857" lon="5.69846">
        <ele>222</ele>
        <time>2020-09-14T17:36:07Z</time>
      </trkpt>
      <trkpt lat="45.71023" lon="5.69856">
        <ele>223</ele>
        <time>2020-09-14T17:36:36Z</time>
      </trkpt>
      <trkpt lat="45.71055" lon="5.69857">
        <ele>222</ele>
        <time>2020-09-14T17:36:42Z</time>
      </trkpt>
      <trkpt lat="45.71087" lon="5.69855">
        <ele>222</ele>
        <time>2020-09-14T17:36:48Z</time>
      </trkpt>
      <trkpt lat="45.71106" lon="5.6985">
        <ele>222</ele>
        <time>2020-09-14T17:36:51Z</time>
      </trkpt>
      <trkpt lat="45.71253" lon="5.69781">
        <ele>222</ele>
        <time>2020-09-14T17:37:19Z</time>
      </trkpt>
      <trkpt lat="45.71303" lon="5.69765">
        <ele>223</ele>
        <time>2020-09-14T17:37:28Z</time>
      </trkpt>
      <trkpt lat="45.71337" lon="5.69756">
        <ele>224</ele>
        <time>2020-09-14T17:37:34Z</time>
      </trkpt>
      <trkpt lat="45.71422" lon="5.69756">
        <ele>223</ele>
        <time>2020-09-14T17:37:49Z</time>
      </trkpt>
      <trkpt lat="45.71433" lon="5.69759">
        <ele>223</ele>
        <time>2020-09-14T17:37:51Z</time>
      </trkpt>
      <trkpt lat="45.71448" lon="5.69768">
        <ele>222</ele>
        <time>2020-09-14T17:37:54Z</time>
      </trkpt>
      <trkpt lat="45.71466" lon="5.69797">
        <ele>222</ele>
        <time>2020-09-14T17:37:59Z</time>
      </trkpt>
      <trkpt lat="45.71474" lon="5.69812">
        <ele>221</ele>
        <time>2020-09-14T17:38:01Z</time>
      </trkpt>
      <trkpt lat="45.71482" lon="5.69843">
        <ele>221</ele>
        <time>2020-09-14T17:38:05Z</time>
      </trkpt>
      <trkpt lat="45.71484" lon="5.69861">
        <ele>221</ele>
        <time>2020-09-14T17:38:08Z</time>
      </trkpt>
      <trkpt lat="45.71484" lon="5.69914">
        <ele>220</ele>
        <time>2020-09-14T17:38:14Z</time>
      </trkpt>
      <trkpt lat="45.71487" lon="5.70085">
        <ele>222</ele>
        <time>2020-09-14T17:38:35Z</time>
      </trkpt>
      <trkpt lat="45.71489" lon="5.70179">
        <ele>223</ele>
        <time>2020-09-14T17:38:47Z</time>
      </trkpt>
      <trkpt lat="45.71491" lon="5.70219">
        <ele>223</ele>
        <time>2020-09-14T17:38:52Z</time>
      </trkpt>
      <trkpt lat="45.71492" lon="5.70251">
        <ele>223</ele>
        <time>2020-09-14T17:38:56Z</time>
      </trkpt>
      <trkpt lat="45.71497" lon="5.70511">
        <ele>224</ele>
        <time>2020-09-14T17:39:28Z</time>
      </trkpt>
      <trkpt lat="45.71501" lon="5.70594">
        <ele>224</ele>
        <time>2020-09-14T17:39:39Z</time>
      </trkpt>
      <trkpt lat="45.71503" lon="5.70611">
        <ele>224</ele>
        <time>2020-09-14T17:39:41Z</time>
      </trkpt>
      <trkpt lat="45.71508" lon="5.70633">
        <ele>224</ele>
        <time>2020-09-14T17:39:44Z</time>
      </trkpt>
      <trkpt lat="45.71516" lon="5.70658">
        <ele>224</ele>
        <time>2020-09-14T17:39:47Z</time>
      </trkpt>
      <trkpt lat="45.71524" lon="5.7068">
        <ele>224</ele>
        <time>2020-09-14T17:39:50Z</time>
      </trkpt>
      <trkpt lat="45.71535" lon="5.70711">
        <ele>224</ele>
        <time>2020-09-14T17:39:55Z</time>
      </trkpt>
      <trkpt lat="45.71548" lon="5.70746">
        <ele>224</ele>
        <time>2020-09-14T17:39:59Z</time>
      </trkpt>
      <trkpt lat="45.71577" lon="5.70827">
        <ele>225</ele>
        <time>2020-09-14T17:40:11Z</time>
      </trkpt>
      <trkpt lat="45.71596" lon="5.70882">
        <ele>225</ele>
        <time>2020-09-14T17:40:18Z</time>
      </trkpt>
      <trkpt lat="45.716" lon="5.70899">
        <ele>224</ele>
        <time>2020-09-14T17:40:21Z</time>
      </trkpt>
      <trkpt lat="45.71603" lon="5.70927">
        <ele>224</ele>
        <time>2020-09-14T17:40:24Z</time>
      </trkpt>
      <trkpt lat="45.71602" lon="5.70943">
        <ele>225</ele>
        <time>2020-09-14T17:40:26Z</time>
      </trkpt>
      <trkpt lat="45.71592" lon="5.71068">
        <ele>226</ele>
        <time>2020-09-14T17:40:42Z</time>
      </trkpt>
      <trkpt lat="45.71591" lon="5.71078">
        <ele>226</ele>
        <time>2020-09-14T17:40:43Z</time>
      </trkpt>
      <trkpt lat="45.71592" lon="5.71086">
        <ele>226</ele>
        <time>2020-09-14T17:40:44Z</time>
      </trkpt>
      <trkpt lat="45.71595" lon="5.71094">
        <ele>226</ele>
        <time>2020-09-14T17:40:45Z</time>
      </trkpt>
      <trkpt lat="45.71598" lon="5.71099">
        <ele>226</ele>
        <time>2020-09-14T17:40:46Z</time>
      </trkpt>
      <trkpt lat="45.71591" lon="5.71107">
        <ele>226</ele>
        <time>2020-09-14T17:40:48Z</time>
      </trkpt>
      <trkpt lat="45.71584" lon="5.71118">
        <ele>226</ele>
        <time>2020-09-14T17:40:49Z</time>
      </trkpt>
      <trkpt lat="45.71568" lon="5.71154">
        <ele>226</ele>
        <time>2020-09-14T17:40:55Z</time>
      </trkpt>
      <trkpt lat="45.71537" lon="5.71224">
        <ele>226</ele>
        <time>2020-09-14T17:41:05Z</time>
      </trkpt>
      <trkpt lat="45.71519" lon="5.71265">
        <ele>227</ele>
        <time>2020-09-14T17:41:11Z</time>
      </trkpt>
      <trkpt lat="45.71483" lon="5.71347">
        <ele>231</ele>
        <time>2020-09-14T17:41:23Z</time>
      </trkpt>
      <trkpt lat="45.71474" lon="5.7136">
        <ele>233</ele>
        <time>2020-09-14T17:41:25Z</time>
      </trkpt>
      <trkpt lat="45.71465" lon="5.71365">
        <ele>233</ele>
        <time>2020-09-14T17:41:27Z</time>
      </trkpt>
      <trkpt lat="45.71441" lon="5.71368">
        <ele>233</ele>
        <time>2020-09-14T17:41:31Z</time>
      </trkpt>
      <trkpt lat="45.71438" lon="5.71369">
        <ele>233</ele>
        <time>2020-09-14T17:41:32Z</time>
      </trkpt>
      <trkpt lat="45.71427" lon="5.71377">
        <ele>234</ele>
        <time>2020-09-14T17:41:34Z</time>
      </trkpt>
      <trkpt lat="45.71422" lon="5.71382">
        <ele>234</ele>
        <time>2020-09-14T17:41:35Z</time>
      </trkpt>
      <trkpt lat="45.71397" lon="5.71406">
        <ele>235</ele>
        <time>2020-09-14T17:41:41Z</time>
      </trkpt>
      <trkpt lat="45.71303" lon="5.71463">
        <ele>242</ele>
        <time>2020-09-14T17:41:59Z</time>
      </trkpt>
      <trkpt lat="45.71264" lon="5.71479">
        <ele>244</ele>
        <time>2020-09-14T17:42:06Z</time>
      </trkpt>
      <trkpt lat="45.71225" lon="5.71488">
        <ele>245</ele>
        <time>2020-09-14T17:42:13Z</time>
      </trkpt>
      <trkpt lat="45.7116" lon="5.71495">
        <ele>244</ele>
        <time>2020-09-14T17:42:25Z</time>
      </trkpt>
      <trkpt lat="45.71138" lon="5.71502">
        <ele>242</ele>
        <time>2020-09-14T17:42:29Z</time>
      </trkpt>
      <trkpt lat="45.71125" lon="5.71512">
        <ele>241</ele>
        <time>2020-09-14T17:42:31Z</time>
      </trkpt>
      <trkpt lat="45.71114" lon="5.71533">
        <ele>241</ele>
        <time>2020-09-14T17:42:34Z</time>
      </trkpt>
      <trkpt lat="45.71111" lon="5.71559">
        <ele>242</ele>
        <time>2020-09-14T17:42:38Z</time>
      </trkpt>
      <trkpt lat="45.71109" lon="5.71636">
        <ele>245</ele>
        <time>2020-09-14T17:42:47Z</time>
      </trkpt>
      <trkpt lat="45.71094" lon="5.71771">
        <ele>245</ele>
        <time>2020-09-14T17:43:04Z</time>
      </trkpt>
      <trkpt lat="45.7109" lon="5.71791">
        <ele>244</ele>
        <time>2020-09-14T17:43:07Z</time>
      </trkpt>
      <trkpt lat="45.7105" lon="5.71886">
        <ele>244</ele>
        <time>2020-09-14T17:43:21Z</time>
      </trkpt>
      <trkpt lat="45.71041" lon="5.71904">
        <ele>244</ele>
        <time>2020-09-14T17:43:23Z</time>
      </trkpt>
      <trkpt lat="45.71034" lon="5.71915">
        <ele>243</ele>
        <time>2020-09-14T17:43:25Z</time>
      </trkpt>
      <trkpt lat="45.71023" lon="5.71925">
        <ele>243</ele>
        <time>2020-09-14T17:43:28Z</time>
      </trkpt>
      <trkpt lat="45.70958" lon="5.71971">
        <ele>239</ele>
        <time>2020-09-14T17:43:40Z</time>
      </trkpt>
      <trkpt lat="45.70942" lon="5.71985">
        <ele>236</ele>
        <time>2020-09-14T17:43:44Z</time>
      </trkpt>
      <trkpt lat="45.70927" lon="5.72004">
        <ele>235</ele>
        <time>2020-09-14T17:43:47Z</time>
      </trkpt>
      <trkpt lat="45.70874" lon="5.7208">
        <ele>251</ele>
        <time>2020-09-14T17:44:01Z</time>
      </trkpt>
      <trkpt lat="45.70864" lon="5.72097">
        <ele>250</ele>
        <time>2020-09-14T17:44:03Z</time>
      </trkpt>
      <trkpt lat="45.70858" lon="5.72114">
        <ele>251</ele>
        <time>2020-09-14T17:44:06Z</time>
      </trkpt>
      <trkpt lat="45.70851" lon="5.72159">
        <ele>254</ele>
        <time>2020-09-14T17:44:12Z</time>
      </trkpt>
      <trkpt lat="45.70853" lon="5.72185">
        <ele>259</ele>
        <time>2020-09-14T17:44:15Z</time>
      </trkpt>
      <trkpt lat="45.70876" lon="5.72366">
        <ele>276</ele>
        <time>2020-09-14T17:44:38Z</time>
      </trkpt>
      <trkpt lat="45.70884" lon="5.72393">
        <ele>279</ele>
        <time>2020-09-14T17:44:41Z</time>
      </trkpt>
      <trkpt lat="45.70912" lon="5.72475">
        <ele>279</ele>
        <time>2020-09-14T17:44:53Z</time>
      </trkpt>
      <trkpt lat="45.70934" lon="5.72547">
        <ele>278</ele>
        <time>2020-09-14T17:45:02Z</time>
      </trkpt>
      <trkpt lat="45.70936" lon="5.72571">
        <ele>271</ele>
        <time>2020-09-14T17:45:05Z</time>
      </trkpt>
      <trkpt lat="45.70935" lon="5.72587">
        <ele>265</ele>
        <time>2020-09-14T17:45:07Z</time>
      </trkpt>
      <trkpt lat="45.70928" lon="5.72613">
        <ele>253</ele>
        <time>2020-09-14T17:45:11Z</time>
      </trkpt>
      <trkpt lat="45.70921" lon="5.72624">
        <ele>245</ele>
        <time>2020-09-14T17:45:13Z</time>
      </trkpt>
      <trkpt lat="45.70878" lon="5.72693">
        <ele>245</ele>
        <time>2020-09-14T17:45:24Z</time>
      </trkpt>
      <trkpt lat="45.70864" lon="5.72713">
        <ele>251</ele>
        <time>2020-09-14T17:45:28Z</time>
      </trkpt>
      <trkpt lat="45.70861" lon="5.72722">
        <ele>252</ele>
        <time>2020-09-14T17:45:29Z</time>
      </trkpt>
      <trkpt lat="45.70859" lon="5.72729">
        <ele>253</ele>
        <time>2020-09-14T17:45:30Z</time>
      </trkpt>
      <trkpt lat="45.70856" lon="5.72742">
        <ele>255</ele>
        <time>2020-09-14T17:45:32Z</time>
      </trkpt>
      <trkpt lat="45.70857" lon="5.7276">
        <ele>256</ele>
        <time>2020-09-14T17:45:34Z</time>
      </trkpt>
      <trkpt lat="45.70863" lon="5.72782">
        <ele>255</ele>
        <time>2020-09-14T17:45:37Z</time>
      </trkpt>
      <trkpt lat="45.70876" lon="5.72811">
        <ele>252</ele>
        <time>2020-09-14T17:45:41Z</time>
      </trkpt>
      <trkpt lat="45.70899" lon="5.72875">
        <ele>247</ele>
        <time>2020-09-14T17:45:50Z</time>
      </trkpt>
      <trkpt lat="45.70906" lon="5.72899">
        <ele>247</ele>
        <time>2020-09-14T17:45:53Z</time>
      </trkpt>
      <trkpt lat="45.70918" lon="5.72944">
        <ele>249</ele>
        <time>2020-09-14T17:45:59Z</time>
      </trkpt>
      <trkpt lat="45.70932" lon="5.73011">
        <ele>256</ele>
        <time>2020-09-14T17:46:08Z</time>
      </trkpt>
      <trkpt lat="45.70936" lon="5.73061">
        <ele>262</ele>
        <time>2020-09-14T17:46:14Z</time>
      </trkpt>
      <trkpt lat="45.70935" lon="5.73115">
        <ele>263</ele>
        <time>2020-09-14T17:46:21Z</time>
      </trkpt>
      <trkpt lat="45.70906" lon="5.73193">
        <ele>265</ele>
        <time>2020-09-14T17:46:32Z</time>
      </trkpt>
      <trkpt lat="45.70882" lon="5.73297">
        <ele>264</ele>
        <time>2020-09-14T17:46:45Z</time>
      </trkpt>
      <trkpt lat="45.70861" lon="5.73377">
        <ele>260</ele>
        <time>2020-09-14T17:46:56Z</time>
      </trkpt>
      <trkpt lat="45.7078" lon="5.73499">
        <ele>253</ele>
        <time>2020-09-14T17:47:17Z</time>
      </trkpt>
      <trkpt lat="45.70723" lon="5.73584">
        <ele>249</ele>
        <time>2020-09-14T17:47:32Z</time>
      </trkpt>
      <trkpt lat="45.70669" lon="5.73665">
        <ele>254</ele>
        <time>2020-09-14T17:47:46Z</time>
      </trkpt>
      <trkpt lat="45.70633" lon="5.73736">
        <ele>257</ele>
        <time>2020-09-14T17:47:56Z</time>
      </trkpt>
      <trkpt lat="45.70612" lon="5.73797">
        <ele>256</ele>
        <time>2020-09-14T17:48:05Z</time>
      </trkpt>
      <trkpt lat="45.70599" lon="5.73856">
        <ele>254</ele>
        <time>2020-09-14T17:48:13Z</time>
      </trkpt>
      <trkpt lat="45.70607" lon="5.74094">
        <ele>247</ele>
        <time>2020-09-14T17:48:42Z</time>
      </trkpt>
      <trkpt lat="45.70607" lon="5.74107">
        <ele>247</ele>
        <time>2020-09-14T17:48:44Z</time>
      </trkpt>
      <trkpt lat="45.70607" lon="5.74146">
        <ele>245</ele>
        <time>2020-09-14T17:48:49Z</time>
      </trkpt>
      <trkpt lat="45.70579" lon="5.74307">
        <ele>243</ele>
        <time>2020-09-14T17:49:09Z</time>
      </trkpt>
      <trkpt lat="45.70572" lon="5.74361">
        <ele>248</ele>
        <time>2020-09-14T17:49:16Z</time>
      </trkpt>
      <trkpt lat="45.70552" lon="5.7448">
        <ele>256</ele>
        <time>2020-09-14T17:49:31Z</time>
      </trkpt>
      <trkpt lat="45.70546" lon="5.74528">
        <ele>254</ele>
        <time>2020-09-14T17:49:37Z</time>
      </trkpt>
      <trkpt lat="45.70519" lon="5.74594">
        <ele>253</ele>
        <time>2020-09-14T17:49:47Z</time>
      </trkpt>
      <trkpt lat="45.7047" lon="5.74762">
        <ele>255</ele>
        <time>2020-09-14T17:50:10Z</time>
      </trkpt>
      <trkpt lat="45.70468" lon="5.74817">
        <ele>254</ele>
        <time>2020-09-14T17:50:16Z</time>
      </trkpt>
      <trkpt lat="45.7049" lon="5.7488">
        <ele>245</ele>
        <time>2020-09-14T17:50:25Z</time>
      </trkpt>
      <trkpt lat="45.70521" lon="5.74972">
        <ele>241</ele>
        <time>2020-09-14T17:50:38Z</time>
      </trkpt>
      <trkpt lat="45.70535" lon="5.75044">
        <ele>234</ele>
        <time>2020-09-14T17:50:47Z</time>
      </trkpt>
      <trkpt lat="45.70537" lon="5.75088">
        <ele>230</ele>
        <time>2020-09-14T17:50:53Z</time>
      </trkpt>
      <trkpt lat="45.70535" lon="5.75121">
        <ele>230</ele>
        <time>2020-09-14T17:50:57Z</time>
      </trkpt>
      <trkpt lat="45.7053" lon="5.75161">
        <ele>230</ele>
        <time>2020-09-14T17:51:02Z</time>
      </trkpt>
      <trkpt lat="45.70524" lon="5.75208">
        <ele>230</ele>
        <time>2020-09-14T17:51:08Z</time>
      </trkpt>
      <trkpt lat="45.70519" lon="5.7523">
        <ele>231</ele>
        <time>2020-09-14T17:51:11Z</time>
      </trkpt>
      <trkpt lat="45.70514" lon="5.75241">
        <ele>231</ele>
        <time>2020-09-14T17:51:12Z</time>
      </trkpt>
      <trkpt lat="45.70508" lon="5.75249">
        <ele>231</ele>
        <time>2020-09-14T17:51:14Z</time>
      </trkpt>
      <trkpt lat="45.70503" lon="5.75266">
        <ele>230</ele>
        <time>2020-09-14T17:51:16Z</time>
      </trkpt>
      <trkpt lat="45.70501" lon="5.75274">
        <ele>230</ele>
        <time>2020-09-14T17:51:17Z</time>
      </trkpt>
      <trkpt lat="45.70496" lon="5.75295">
        <ele>229</ele>
        <time>2020-09-14T17:51:20Z</time>
      </trkpt>
      <trkpt lat="45.70486" lon="5.75355">
        <ele>227</ele>
        <time>2020-09-14T17:51:27Z</time>
      </trkpt>
      <trkpt lat="45.70483" lon="5.75377">
        <ele>228</ele>
        <time>2020-09-14T17:51:30Z</time>
      </trkpt>
      <trkpt lat="45.7047" lon="5.7545">
        <ele>229</ele>
        <time>2020-09-14T17:51:40Z</time>
      </trkpt>
      <trkpt lat="45.70462" lon="5.75491">
        <ele>229</ele>
        <time>2020-09-14T17:51:45Z</time>
      </trkpt>
      <trkpt lat="45.70437" lon="5.7563">
        <ele>232</ele>
        <time>2020-09-14T17:52:03Z</time>
      </trkpt>
      <trkpt lat="45.70421" lon="5.7563">
        <ele>233</ele>
        <time>2020-09-14T17:52:06Z</time>
      </trkpt>
      <trkpt lat="45.70401" lon="5.75632">
        <ele>233</ele>
        <time>2020-09-14T17:52:09Z</time>
      </trkpt>
      <trkpt lat="45.70394" lon="5.75634">
        <ele>233</ele>
        <time>2020-09-14T17:52:10Z</time>
      </trkpt>
      <trkpt lat="45.70373" lon="5.75643">
        <ele>233</ele>
        <time>2020-09-14T17:52:14Z</time>
      </trkpt>
      <trkpt lat="45.70352" lon="5.75654">
        <ele>233</ele>
        <time>2020-09-14T17:52:18Z</time>
      </trkpt>
      <trkpt lat="45.7034" lon="5.75667">
        <ele>233</ele>
        <time>2020-09-14T17:52:21Z</time>
      </trkpt>
      <trkpt lat="45.7032" lon="5.75696">
        <ele>234</ele>
        <time>2020-09-14T17:52:26Z</time>
      </trkpt>
      <trkpt lat="45.70305" lon="5.75726">
        <ele>235</ele>
        <time>2020-09-14T17:52:31Z</time>
      </trkpt>
      <trkpt lat="45.70292" lon="5.75758">
        <ele>235</ele>
        <time>2020-09-14T17:52:35Z</time>
      </trkpt>
      <trkpt lat="45.70277" lon="5.7585">
        <ele>235</ele>
        <time>2020-09-14T17:52:47Z</time>
      </trkpt>
      <trkpt lat="45.70277" lon="5.75885">
        <ele>234</ele>
        <time>2020-09-14T17:52:51Z</time>
      </trkpt>
      <trkpt lat="45.70282" lon="5.75928">
        <ele>234</ele>
        <time>2020-09-14T17:52:57Z</time>
      </trkpt>
      <trkpt lat="45.70283" lon="5.75968">
        <ele>234</ele>
        <time>2020-09-14T17:53:02Z</time>
      </trkpt>
      <trkpt lat="45.70284" lon="5.75971">
        <ele>234</ele>
        <time>2020-09-14T17:53:02Z</time>
      </trkpt>
      <trkpt lat="45.70289" lon="5.75973">
        <ele>234</ele>
        <time>2020-09-14T17:53:03Z</time>
      </trkpt>
      <trkpt lat="45.70298" lon="5.75967">
        <ele>234</ele>
        <time>2020-09-14T17:53:05Z</time>
      </trkpt>
      <trkpt lat="45.70304" lon="5.75967">
        <ele>234</ele>
        <time>2020-09-14T17:53:06Z</time>
      </trkpt>
      <trkpt lat="45.70332" lon="5.75979">
        <ele>234</ele>
        <time>2020-09-14T17:53:11Z</time>
      </trkpt>
      <trkpt lat="45.7035" lon="5.75983">
        <ele>234</ele>
        <time>2020-09-14T17:53:14Z</time>
      </trkpt>
      <trkpt lat="45.70347" lon="5.75993">
        <ele>234</ele>
        <time>2020-09-14T17:53:16Z</time>
      </trkpt>
      <trkpt lat="45.70346" lon="5.76014">
        <ele>233</ele>
        <time>2020-09-14T17:53:18Z</time>
      </trkpt>
      <trkpt lat="45.70349" lon="5.76104">
        <ele>231</ele>
        <time>2020-09-14T17:53:29Z</time>
      </trkpt>
      <trkpt lat="45.70357" lon="5.76273">
        <ele>231</ele>
        <time>2020-09-14T17:53:50Z</time>
      </trkpt>
      <trkpt lat="45.70365" lon="5.76393">
        <ele>228</ele>
        <time>2020-09-14T17:54:05Z</time>
      </trkpt>
      <trkpt lat="45.7039" lon="5.76965">
        <ele>233</ele>
        <time>2020-09-14T17:55:17Z</time>
      </trkpt>
      <trkpt lat="45.70392" lon="5.77017">
        <ele>234</ele>
        <time>2020-09-14T17:55:23Z</time>
      </trkpt>
      <trkpt lat="45.7039" lon="5.7709">
        <ele>234</ele>
        <time>2020-09-14T17:55:32Z</time>
      </trkpt>
      <trkpt lat="45.70385" lon="5.77156">
        <ele>236</ele>
        <time>2020-09-14T17:55:40Z</time>
      </trkpt>
      <trkpt lat="45.70389" lon="5.77168">
        <ele>236</ele>
        <time>2020-09-14T17:55:42Z</time>
      </trkpt>
      <trkpt lat="45.70385" lon="5.77169">
        <ele>236</ele>
        <time>2020-09-14T17:55:43Z</time>
      </trkpt>
      <trkpt lat="45.70378" lon="5.77176">
        <ele>237</ele>
        <time>2020-09-14T17:55:44Z</time>
      </trkpt>
      <trkpt lat="45.70376" lon="5.77181">
        <ele>237</ele>
        <time>2020-09-14T17:55:45Z</time>
      </trkpt>
      <trkpt lat="45.70375" lon="5.77193">
        <ele>237</ele>
        <time>2020-09-14T17:55:47Z</time>
      </trkpt>
      <trkpt lat="45.70379" lon="5.77205">
        <ele>237</ele>
        <time>2020-09-14T17:55:48Z</time>
      </trkpt>
      <trkpt lat="45.70366" lon="5.77241">
        <ele>238</ele>
        <time>2020-09-14T17:55:53Z</time>
      </trkpt>
      <trkpt lat="45.7035" lon="5.77305">
        <ele>239</ele>
        <time>2020-09-14T17:56:02Z</time>
      </trkpt>
      <trkpt lat="45.70322" lon="5.77431">
        <ele>244</ele>
        <time>2020-09-14T17:56:18Z</time>
      </trkpt>
      <trkpt lat="45.70309" lon="5.77517">
        <ele>248</ele>
        <time>2020-09-14T17:56:29Z</time>
      </trkpt>
      <trkpt lat="45.703" lon="5.77582">
        <ele>252</ele>
        <time>2020-09-14T17:56:37Z</time>
      </trkpt>
      <trkpt lat="45.70292" lon="5.77656">
        <ele>253</ele>
        <time>2020-09-14T17:56:47Z</time>
      </trkpt>
      <trkpt lat="45.70293" lon="5.77707">
        <ele>255</ele>
        <time>2020-09-14T17:56:53Z</time>
      </trkpt>
      <trkpt lat="45.70316" lon="5.7786">
        <ele>257</ele>
        <time>2020-09-14T17:57:12Z</time>
      </trkpt>
      <trkpt lat="45.70352" lon="5.78091">
        <ele>264</ele>
        <time>2020-09-14T17:57:42Z</time>
      </trkpt>
      <trkpt lat="45.70374" lon="5.78247">
        <ele>264</ele>
        <time>2020-09-14T17:58:02Z</time>
      </trkpt>
      <trkpt lat="45.70377" lon="5.78302">
        <ele>266</ele>
        <time>2020-09-14T17:58:08Z</time>
      </trkpt>
      <trkpt lat="45.70372" lon="5.78351">
        <ele>267</ele>
        <time>2020-09-14T17:58:15Z</time>
      </trkpt>
      <trkpt lat="45.7035" lon="5.78496">
        <ele>271</ele>
        <time>2020-09-14T17:58:33Z</time>
      </trkpt>
      <trkpt lat="45.70342" lon="5.7855">
        <ele>269</ele>
        <time>2020-09-14T17:58:40Z</time>
      </trkpt>
      <trkpt lat="45.70336" lon="5.78705">
        <ele>271</ele>
        <time>2020-09-14T17:58:59Z</time>
      </trkpt>
      <trkpt lat="45.70329" lon="5.78762">
        <ele>273</ele>
        <time>2020-09-14T17:59:06Z</time>
      </trkpt>
      <trkpt lat="45.70216" lon="5.79157">
        <ele>279</ele>
        <time>2020-09-14T17:59:59Z</time>
      </trkpt>
      <trkpt lat="45.70199" lon="5.79213">
        <ele>281</ele>
        <time>2020-09-14T18:00:07Z</time>
      </trkpt>
      <trkpt lat="45.70183" lon="5.79239">
        <ele>281</ele>
        <time>2020-09-14T18:00:11Z</time>
      </trkpt>
      <trkpt lat="45.70163" lon="5.79257">
        <ele>280</ele>
        <time>2020-09-14T18:00:16Z</time>
      </trkpt>
      <trkpt lat="45.70111" lon="5.79288">
        <ele>285</ele>
        <time>2020-09-14T18:00:26Z</time>
      </trkpt>
      <trkpt lat="45.70026" lon="5.7938">
        <ele>289</ele>
        <time>2020-09-14T18:00:44Z</time>
      </trkpt>
      <trkpt lat="45.70003" lon="5.79394">
        <ele>289</ele>
        <time>2020-09-14T18:00:49Z</time>
      </trkpt>
      <trkpt lat="45.69979" lon="5.79397">
        <ele>290</ele>
        <time>2020-09-14T18:00:53Z</time>
      </trkpt>
      <trkpt lat="45.69925" lon="5.79384">
        <ele>292</ele>
        <time>2020-09-14T18:01:03Z</time>
      </trkpt>
      <trkpt lat="45.69898" lon="5.79393">
        <ele>293</ele>
        <time>2020-09-14T18:01:08Z</time>
      </trkpt>
      <trkpt lat="45.69857" lon="5.7941">
        <ele>296</ele>
        <time>2020-09-14T18:01:15Z</time>
      </trkpt>
      <trkpt lat="45.69814" lon="5.79405">
        <ele>298</ele>
        <time>2020-09-14T18:01:23Z</time>
      </trkpt>
      <trkpt lat="45.69792" lon="5.79384">
        <ele>296</ele>
        <time>2020-09-14T18:01:28Z</time>
      </trkpt>
      <trkpt lat="45.6977" lon="5.7935">
        <ele>292</ele>
        <time>2020-09-14T18:01:34Z</time>
      </trkpt>
      <trkpt lat="45.69752" lon="5.79335">
        <ele>289</ele>
        <time>2020-09-14T18:01:37Z</time>
      </trkpt>
      <trkpt lat="45.69725" lon="5.79332">
        <ele>288</ele>
        <time>2020-09-14T18:01:42Z</time>
      </trkpt>
      <trkpt lat="45.69701" lon="5.79332">
        <ele>288</ele>
        <time>2020-09-14T18:01:46Z</time>
      </trkpt>
      <trkpt lat="45.69679" lon="5.79342">
        <ele>288</ele>
        <time>2020-09-14T18:01:51Z</time>
      </trkpt>
      <trkpt lat="45.69655" lon="5.79363">
        <ele>289</ele>
        <time>2020-09-14T18:01:56Z</time>
      </trkpt>
      <trkpt lat="45.6964" lon="5.79393">
        <ele>292</ele>
        <time>2020-09-14T18:02:00Z</time>
      </trkpt>
      <trkpt lat="45.69634" lon="5.79441">
        <ele>295</ele>
        <time>2020-09-14T18:02:06Z</time>
      </trkpt>
      <trkpt lat="45.6964" lon="5.79527">
        <ele>299</ele>
        <time>2020-09-14T18:02:17Z</time>
      </trkpt>
      <trkpt lat="45.69678" lon="5.79973">
        <ele>306</ele>
        <time>2020-09-14T18:03:13Z</time>
      </trkpt>
      <trkpt lat="45.69688" lon="5.80053">
        <ele>307</ele>
        <time>2020-09-14T18:03:23Z</time>
      </trkpt>
      <trkpt lat="45.69711" lon="5.80152">
        <ele>306</ele>
        <time>2020-09-14T18:03:36Z</time>
      </trkpt>
      <trkpt lat="45.69709" lon="5.80181">
        <ele>305</ele>
        <time>2020-09-14T18:03:39Z</time>
      </trkpt>
      <trkpt lat="45.69707" lon="5.80192">
        <ele>304</ele>
        <time>2020-09-14T18:03:41Z</time>
      </trkpt>
      <trkpt lat="45.69701" lon="5.80212">
        <ele>303</ele>
        <time>2020-09-14T18:03:44Z</time>
      </trkpt>
      <trkpt lat="45.69696" lon="5.80224">
        <ele>303</ele>
        <time>2020-09-14T18:03:45Z</time>
      </trkpt>
      <trkpt lat="45.69177" lon="5.81226">
        <ele>317</ele>
        <time>2020-09-14T18:06:20Z</time>
      </trkpt>
      <trkpt lat="45.69087" lon="5.81397">
        <ele>316</ele>
        <time>2020-09-14T18:06:47Z</time>
      </trkpt>
      <trkpt lat="45.69077" lon="5.81419">
        <ele>316</ele>
        <time>2020-09-14T18:06:50Z</time>
      </trkpt>
      <trkpt lat="45.69046" lon="5.8148">
        <ele>318</ele>
        <time>2020-09-14T18:07:00Z</time>
      </trkpt>
      <trkpt lat="45.69032" lon="5.81527">
        <ele>319</ele>
        <time>2020-09-14T18:07:06Z</time>
      </trkpt>
      <trkpt lat="45.69028" lon="5.81527">
        <ele>319</ele>
        <time>2020-09-14T18:07:07Z</time>
      </trkpt>
      <trkpt lat="45.69024" lon="5.81529">
        <ele>319</ele>
        <time>2020-09-14T18:07:07Z</time>
      </trkpt>
      <trkpt lat="45.69021" lon="5.81534">
        <ele>320</ele>
        <time>2020-09-14T18:07:08Z</time>
      </trkpt>
      <trkpt lat="45.6902" lon="5.81541">
        <ele>320</ele>
        <time>2020-09-14T18:07:09Z</time>
      </trkpt>
      <trkpt lat="45.69021" lon="5.81548">
        <ele>320</ele>
        <time>2020-09-14T18:07:10Z</time>
      </trkpt>
      <trkpt lat="45.69024" lon="5.81553">
        <ele>320</ele>
        <time>2020-09-14T18:07:11Z</time>
      </trkpt>
      <trkpt lat="45.69029" lon="5.81555">
        <ele>320</ele>
        <time>2020-09-14T18:07:12Z</time>
      </trkpt>
      <trkpt lat="45.69029" lon="5.81599">
        <ele>321</ele>
        <time>2020-09-14T18:07:17Z</time>
      </trkpt>
      <trkpt lat="45.69042" lon="5.81671">
        <ele>322</ele>
        <time>2020-09-14T18:07:26Z</time>
      </trkpt>
      <trkpt lat="45.69045" lon="5.81689">
        <ele>322</ele>
        <time>2020-09-14T18:07:29Z</time>
      </trkpt>
      <trkpt lat="45.69064" lon="5.81831">
        <ele>325</ele>
        <time>2020-09-14T18:07:47Z</time>
      </trkpt>
      <trkpt lat="45.6906" lon="5.81882">
        <ele>326</ele>
        <time>2020-09-14T18:07:53Z</time>
      </trkpt>
      <trkpt lat="45.69054" lon="5.81916">
        <ele>328</ele>
        <time>2020-09-14T18:07:57Z</time>
      </trkpt>
      <trkpt lat="45.69051" lon="5.81936">
        <ele>328</ele>
        <time>2020-09-14T18:08:00Z</time>
      </trkpt>
      <trkpt lat="45.69034" lon="5.81961">
        <ele>329</ele>
        <time>2020-09-14T18:08:04Z</time>
      </trkpt>
      <trkpt lat="45.69024" lon="5.81972">
        <ele>330</ele>
        <time>2020-09-14T18:08:07Z</time>
      </trkpt>
      <trkpt lat="45.69013" lon="5.81981">
        <ele>331</ele>
        <time>2020-09-14T18:08:09Z</time>
      </trkpt>
      <trkpt lat="45.69007" lon="5.81969">
        <ele>332</ele>
        <time>2020-09-14T18:08:11Z</time>
      </trkpt>
      <trkpt lat="45.68999" lon="5.81963">
        <ele>333</ele>
        <time>2020-09-14T18:08:12Z</time>
      </trkpt>
      <trkpt lat="45.68961" lon="5.8195">
        <ele>335</ele>
        <time>2020-09-14T18:08:19Z</time>
      </trkpt>
      <trkpt lat="45.68903" lon="5.81951">
        <ele>339</ele>
        <time>2020-09-14T18:08:30Z</time>
      </trkpt>
      <trkpt lat="45.68891" lon="5.81955">
        <ele>340</ele>
        <time>2020-09-14T18:08:32Z</time>
      </trkpt>
      <trkpt lat="45.68881" lon="5.8196">
        <ele>340</ele>
        <time>2020-09-14T18:08:34Z</time>
      </trkpt>
      <trkpt lat="45.68861" lon="5.81978">
        <ele>342</ele>
        <time>2020-09-14T18:08:38Z</time>
      </trkpt>
      <trkpt lat="45.68763" lon="5.82074">
        <ele>356</ele>
        <time>2020-09-14T18:08:59Z</time>
      </trkpt>
      <trkpt lat="45.68749" lon="5.82082">
        <ele>356</ele>
        <time>2020-09-14T18:09:02Z</time>
      </trkpt>
      <trkpt lat="45.68738" lon="5.82084">
        <ele>357</ele>
        <time>2020-09-14T18:09:04Z</time>
      </trkpt>
      <trkpt lat="45.68692" lon="5.82073">
        <ele>360</ele>
        <time>2020-09-14T18:09:12Z</time>
      </trkpt>
      <trkpt lat="45.68683" lon="5.82073">
        <ele>361</ele>
        <time>2020-09-14T18:09:14Z</time>
      </trkpt>
      <trkpt lat="45.68653" lon="5.82082">
        <ele>366</ele>
        <time>2020-09-14T18:09:19Z</time>
      </trkpt>
      <trkpt lat="45.68643" lon="5.82079">
        <ele>368</ele>
        <time>2020-09-14T18:09:21Z</time>
      </trkpt>
      <trkpt lat="45.68625" lon="5.82065">
        <ele>373</ele>
        <time>2020-09-14T18:09:24Z</time>
      </trkpt>
      <trkpt lat="45.68616" lon="5.8205">
        <ele>374</ele>
        <time>2020-09-14T18:09:27Z</time>
      </trkpt>
      <trkpt lat="45.68606" lon="5.82025">
        <ele>374</ele>
        <time>2020-09-14T18:09:30Z</time>
      </trkpt>
      <trkpt lat="45.68588" lon="5.8197">
        <ele>375</ele>
        <time>2020-09-14T18:09:38Z</time>
      </trkpt>
      <trkpt lat="45.68584" lon="5.81969">
        <ele>375</ele>
        <time>2020-09-14T18:09:39Z</time>
      </trkpt>
      <trkpt lat="45.68579" lon="5.81972">
        <ele>376</ele>
        <time>2020-09-14T18:09:40Z</time>
      </trkpt>
      <trkpt lat="45.68578" lon="5.8198">
        <ele>376</ele>
        <time>2020-09-14T18:09:41Z</time>
      </trkpt>
      <trkpt lat="45.68584" lon="5.8218">
        <ele>395</ele>
        <time>2020-09-14T18:10:06Z</time>
      </trkpt>
      <trkpt lat="45.68618" lon="5.82285">
        <ele>399</ele>
        <time>2020-09-14T18:10:20Z</time>
      </trkpt>
      <trkpt lat="45.68634" lon="5.8237">
        <ele>406</ele>
        <time>2020-09-14T18:10:31Z</time>
      </trkpt>
      <trkpt lat="45.68653" lon="5.82453">
        <ele>412</ele>
        <time>2020-09-14T18:10:42Z</time>
      </trkpt>
      <trkpt lat="45.68669" lon="5.82505">
        <ele>415</ele>
        <time>2020-09-14T18:10:49Z</time>
      </trkpt>
      <trkpt lat="45.68697" lon="5.82551">
        <ele>417</ele>
        <time>2020-09-14T18:10:56Z</time>
      </trkpt>
      <trkpt lat="45.68709" lon="5.82621">
        <ele>423</ele>
        <time>2020-09-14T18:11:05Z</time>
      </trkpt>
      <trkpt lat="45.68723" lon="5.82728">
        <ele>427</ele>
        <time>2020-09-14T18:11:19Z</time>
      </trkpt>
      <trkpt lat="45.68724" lon="5.82744">
        <ele>427</ele>
        <time>2020-09-14T18:11:21Z</time>
      </trkpt>
      <trkpt lat="45.6872" lon="5.82758">
        <ele>428</ele>
        <time>2020-09-14T18:11:23Z</time>
      </trkpt>
      <trkpt lat="45.68701" lon="5.82796">
        <ele>432</ele>
        <time>2020-09-14T18:11:29Z</time>
      </trkpt>
      <trkpt lat="45.68686" lon="5.8282">
        <ele>436</ele>
        <time>2020-09-14T18:11:33Z</time>
      </trkpt>
      <trkpt lat="45.68676" lon="5.82841">
        <ele>438</ele>
        <time>2020-09-14T18:11:36Z</time>
      </trkpt>
      <trkpt lat="45.6867" lon="5.82864">
        <ele>440</ele>
        <time>2020-09-14T18:11:39Z</time>
      </trkpt>
      <trkpt lat="45.68667" lon="5.82891">
        <ele>442</ele>
        <time>2020-09-14T18:11:42Z</time>
      </trkpt>
      <trkpt lat="45.68669" lon="5.82918">
        <ele>442</ele>
        <time>2020-09-14T18:11:46Z</time>
      </trkpt>
      <trkpt lat="45.68679" lon="5.82947">
        <ele>444</ele>
        <time>2020-09-14T18:11:50Z</time>
      </trkpt>
      <trkpt lat="45.6869" lon="5.82975">
        <ele>446</ele>
        <time>2020-09-14T18:11:54Z</time>
      </trkpt>
      <trkpt lat="45.68717" lon="5.83024">
        <ele>445</ele>
        <time>2020-09-14T18:12:01Z</time>
      </trkpt>
      <trkpt lat="45.68728" lon="5.8307">
        <ele>449</ele>
        <time>2020-09-14T18:12:07Z</time>
      </trkpt>
      <trkpt lat="45.6873" lon="5.83108">
        <ele>457</ele>
        <time>2020-09-14T18:12:12Z</time>
      </trkpt>
      <trkpt lat="45.68752" lon="5.8315">
        <ele>457</ele>
        <time>2020-09-14T18:12:19Z</time>
      </trkpt>
      <trkpt lat="45.68785" lon="5.83227">
        <ele>465</ele>
        <time>2020-09-14T18:12:30Z</time>
      </trkpt>
      <trkpt lat="45.68823" lon="5.83306">
        <ele>470</ele>
        <time>2020-09-14T18:12:42Z</time>
      </trkpt>
      <trkpt lat="45.68843" lon="5.83339">
        <ele>472</ele>
        <time>2020-09-14T18:12:47Z</time>
      </trkpt>
      <trkpt lat="45.68863" lon="5.83354">
        <ele>469</ele>
        <time>2020-09-14T18:12:51Z</time>
      </trkpt>
      <trkpt lat="45.6889" lon="5.83427">
        <ele>480</ele>
        <time>2020-09-14T18:13:02Z</time>
      </trkpt>
      <trkpt lat="45.68941" lon="5.83488">
        <ele>482</ele>
        <time>2020-09-14T18:13:13Z</time>
      </trkpt>
      <trkpt lat="45.69001" lon="5.83537">
        <ele>485</ele>
        <time>2020-09-14T18:13:26Z</time>
      </trkpt>
      <trkpt lat="45.69075" lon="5.83578">
        <ele>492</ele>
        <time>2020-09-14T18:13:40Z</time>
      </trkpt>
      <trkpt lat="45.69106" lon="5.83587">
        <ele>493</ele>
        <time>2020-09-14T18:13:45Z</time>
      </trkpt>
      <trkpt lat="45.6921" lon="5.83597">
        <ele>489</ele>
        <time>2020-09-14T18:14:04Z</time>
      </trkpt>
      <trkpt lat="45.69219" lon="5.83602">
        <ele>490</ele>
        <time>2020-09-14T18:14:06Z</time>
      </trkpt>
      <trkpt lat="45.69239" lon="5.83619">
        <ele>497</ele>
        <time>2020-09-14T18:14:10Z</time>
      </trkpt>
      <trkpt lat="45.69275" lon="5.83628">
        <ele>496</ele>
        <time>2020-09-14T18:14:16Z</time>
      </trkpt>
      <trkpt lat="45.69282" lon="5.83632">
        <ele>497</ele>
        <time>2020-09-14T18:14:18Z</time>
      </trkpt>
      <trkpt lat="45.69296" lon="5.83657">
        <ele>505</ele>
        <time>2020-09-14T18:14:22Z</time>
      </trkpt>
      <trkpt lat="45.69324" lon="5.83721">
        <ele>523</ele>
        <time>2020-09-14T18:14:31Z</time>
      </trkpt>
      <trkpt lat="45.6935" lon="5.83766">
        <ele>534</ele>
        <time>2020-09-14T18:14:38Z</time>
      </trkpt>
      <trkpt lat="45.6939" lon="5.83792">
        <ele>535</ele>
        <time>2020-09-14T18:14:46Z</time>
      </trkpt>
      <trkpt lat="45.69466" lon="5.83803">
        <ele>533</ele>
        <time>2020-09-14T18:15:00Z</time>
      </trkpt>
      <trkpt lat="45.6948" lon="5.83802">
        <ele>533</ele>
        <time>2020-09-14T18:15:02Z</time>
      </trkpt>
      <trkpt lat="45.69492" lon="5.83798">
        <ele>532</ele>
        <time>2020-09-14T18:15:04Z</time>
      </trkpt>
      <trkpt lat="45.69515" lon="5.83782">
        <ele>525</ele>
        <time>2020-09-14T18:15:09Z</time>
      </trkpt>
      <trkpt lat="45.69519" lon="5.83781">
        <ele>524</ele>
        <time>2020-09-14T18:15:10Z</time>
      </trkpt>
      <trkpt lat="45.6954" lon="5.83789">
        <ele>524</ele>
        <time>2020-09-14T18:15:14Z</time>
      </trkpt>
      <trkpt lat="45.69575" lon="5.83809">
        <ele>528</ele>
        <time>2020-09-14T18:15:20Z</time>
      </trkpt>
      <trkpt lat="45.6961" lon="5.83859">
        <ele>536</ele>
        <time>2020-09-14T18:15:29Z</time>
      </trkpt>
      <trkpt lat="45.6962" lon="5.839">
        <ele>546</ele>
        <time>2020-09-14T18:15:34Z</time>
      </trkpt>
      <trkpt lat="45.69634" lon="5.84016">
        <ele>560</ele>
        <time>2020-09-14T18:15:49Z</time>
      </trkpt>
      <trkpt lat="45.6965" lon="5.84054">
        <ele>561</ele>
        <time>2020-09-14T18:15:55Z</time>
      </trkpt>
      <trkpt lat="45.69665" lon="5.84082">
        <ele>560</ele>
        <time>2020-09-14T18:15:59Z</time>
      </trkpt>
      <trkpt lat="45.6967" lon="5.84095">
        <ele>560</ele>
        <time>2020-09-14T18:16:01Z</time>
      </trkpt>
      <trkpt lat="45.69682" lon="5.8414">
        <ele>561</ele>
        <time>2020-09-14T18:16:07Z</time>
      </trkpt>
      <trkpt lat="45.69696" lon="5.84165">
        <ele>561</ele>
        <time>2020-09-14T18:16:11Z</time>
      </trkpt>
      <trkpt lat="45.69799" lon="5.84283">
        <ele>568</ele>
        <time>2020-09-14T18:16:34Z</time>
      </trkpt>
      <trkpt lat="45.69805" lon="5.84295">
        <ele>570</ele>
        <time>2020-09-14T18:16:36Z</time>
      </trkpt>
      <trkpt lat="45.69808" lon="5.8431">
        <ele>572</ele>
        <time>2020-09-14T18:16:38Z</time>
      </trkpt>
      <trkpt lat="45.69807" lon="5.84328">
        <ele>574</ele>
        <time>2020-09-14T18:16:40Z</time>
      </trkpt>
      <trkpt lat="45.698" lon="5.84344">
        <ele>576</ele>
        <time>2020-09-14T18:16:43Z</time>
      </trkpt>
      <trkpt lat="45.69741" lon="5.84419">
        <ele>581</ele>
        <time>2020-09-14T18:16:57Z</time>
      </trkpt>
      <trkpt lat="45.6973" lon="5.84427">
        <ele>583</ele>
        <time>2020-09-14T18:16:59Z</time>
      </trkpt>
      <trkpt lat="45.69719" lon="5.84429">
        <ele>583</ele>
        <time>2020-09-14T18:17:01Z</time>
      </trkpt>
      <trkpt lat="45.69639" lon="5.84409">
        <ele>576</ele>
        <time>2020-09-14T18:17:15Z</time>
      </trkpt>
      <trkpt lat="45.69631" lon="5.8441">
        <ele>576</ele>
        <time>2020-09-14T18:17:17Z</time>
      </trkpt>
      <trkpt lat="45.69624" lon="5.84412">
        <ele>577</ele>
        <time>2020-09-14T18:17:18Z</time>
      </trkpt>
      <trkpt lat="45.69607" lon="5.84426">
        <ele>581</ele>
        <time>2020-09-14T18:17:21Z</time>
      </trkpt>
      <trkpt lat="45.69585" lon="5.8445">
        <ele>593</ele>
        <time>2020-09-14T18:17:26Z</time>
      </trkpt>
      <trkpt lat="45.69571" lon="5.84456">
        <ele>597</ele>
        <time>2020-09-14T18:17:29Z</time>
      </trkpt>
      <trkpt lat="45.69552" lon="5.84456">
        <ele>600</ele>
        <time>2020-09-14T18:17:32Z</time>
      </trkpt>
      <trkpt lat="45.69474" lon="5.8445">
        <ele>606</ele>
        <time>2020-09-14T18:17:46Z</time>
      </trkpt>
      <trkpt lat="45.69447" lon="5.84416">
        <ele>598</ele>
        <time>2020-09-14T18:17:53Z</time>
      </trkpt>
      <trkpt lat="45.69438" lon="5.84408">
        <ele>599</ele>
        <time>2020-09-14T18:17:55Z</time>
      </trkpt>
      <trkpt lat="45.69428" lon="5.84404">
        <ele>600</ele>
        <time>2020-09-14T18:17:56Z</time>
      </trkpt>
      <trkpt lat="45.69419" lon="5.84404">
        <ele>601</ele>
        <time>2020-09-14T18:17:58Z</time>
      </trkpt>
      <trkpt lat="45.6939" lon="5.8441">
        <ele>610</ele>
        <time>2020-09-14T18:18:03Z</time>
      </trkpt>
      <trkpt lat="45.69383" lon="5.84408">
        <ele>612</ele>
        <time>2020-09-14T18:18:04Z</time>
      </trkpt>
      <trkpt lat="45.69378" lon="5.84403">
        <ele>613</ele>
        <time>2020-09-14T18:18:06Z</time>
      </trkpt>
      <trkpt lat="45.6934" lon="5.84303">
        <ele>612</ele>
        <time>2020-09-14T18:18:20Z</time>
      </trkpt>
      <trkpt lat="45.69325" lon="5.84268">
        <ele>616</ele>
        <time>2020-09-14T18:18:25Z</time>
      </trkpt>
      <trkpt lat="45.6932" lon="5.84267">
        <ele>618</ele>
        <time>2020-09-14T18:18:26Z</time>
      </trkpt>
      <trkpt lat="45.69316" lon="5.84268">
        <ele>619</ele>
        <time>2020-09-14T18:18:26Z</time>
      </trkpt>
      <trkpt lat="45.69314" lon="5.84276">
        <ele>620</ele>
        <time>2020-09-14T18:18:27Z</time>
      </trkpt>
      <trkpt lat="45.69333" lon="5.84324">
        <ele>614</ele>
        <time>2020-09-14T18:18:34Z</time>
      </trkpt>
      <trkpt lat="45.69339" lon="5.84362">
        <ele>617</ele>
        <time>2020-09-14T18:18:39Z</time>
      </trkpt>
      <trkpt lat="45.6934" lon="5.84401">
        <ele>623</ele>
        <time>2020-09-14T18:18:44Z</time>
      </trkpt>
      <trkpt lat="45.69332" lon="5.84451">
        <ele>634</ele>
        <time>2020-09-14T18:18:50Z</time>
      </trkpt>
      <trkpt lat="45.69331" lon="5.84462">
        <ele>636</ele>
        <time>2020-09-14T18:18:52Z</time>
      </trkpt>
      <trkpt lat="45.69334" lon="5.84474">
        <ele>637</ele>
        <time>2020-09-14T18:18:53Z</time>
      </trkpt>
      <trkpt lat="45.6934" lon="5.84483">
        <ele>637</ele>
        <time>2020-09-14T18:18:55Z</time>
      </trkpt>
      <trkpt lat="45.69346" lon="5.84489">
        <ele>637</ele>
        <time>2020-09-14T18:18:56Z</time>
      </trkpt>
      <trkpt lat="45.69366" lon="5.84491">
        <ele>633</ele>
        <time>2020-09-14T18:19:00Z</time>
      </trkpt>
      <trkpt lat="45.69374" lon="5.84495">
        <ele>632</ele>
        <time>2020-09-14T18:19:01Z</time>
      </trkpt>
      <trkpt lat="45.69377" lon="5.84501">
        <ele>632</ele>
        <time>2020-09-14T18:19:02Z</time>
      </trkpt>
      <trkpt lat="45.69379" lon="5.84511">
        <ele>634</ele>
        <time>2020-09-14T18:19:03Z</time>
      </trkpt>
      <trkpt lat="45.69379" lon="5.84524">
        <ele>636</ele>
        <time>2020-09-14T18:19:05Z</time>
      </trkpt>
      <trkpt lat="45.69367" lon="5.8455">
        <ele>642</ele>
        <time>2020-09-14T18:19:09Z</time>
      </trkpt>
      <trkpt lat="45.69296" lon="5.84683">
        <ele>663</ele>
        <time>2020-09-14T18:19:30Z</time>
      </trkpt>
      <trkpt lat="45.69286" lon="5.84707">
        <ele>665</ele>
        <time>2020-09-14T18:19:33Z</time>
      </trkpt>
      <trkpt lat="45.69258" lon="5.84788">
        <ele>655</ele>
        <time>2020-09-14T18:19:44Z</time>
      </trkpt>
      <trkpt lat="45.69203" lon="5.84892">
        <ele>643</ele>
        <time>2020-09-14T18:20:01Z</time>
      </trkpt>
      <trkpt lat="45.69197" lon="5.84916">
        <ele>639</ele>
        <time>2020-09-14T18:20:04Z</time>
      </trkpt>
      <trkpt lat="45.69203" lon="5.84955">
        <ele>636</ele>
        <time>2020-09-14T18:20:09Z</time>
      </trkpt>
      <trkpt lat="45.69203" lon="5.84964">
        <ele>635</ele>
        <time>2020-09-14T18:20:10Z</time>
      </trkpt>
      <trkpt lat="45.692" lon="5.84982">
        <ele>632</ele>
        <time>2020-09-14T18:20:12Z</time>
      </trkpt>
      <trkpt lat="45.69189" lon="5.85009">
        <ele>627</ele>
        <time>2020-09-14T18:20:16Z</time>
      </trkpt>
      <trkpt lat="45.69185" lon="5.85022">
        <ele>625</ele>
        <time>2020-09-14T18:20:18Z</time>
      </trkpt>
      <trkpt lat="45.69184" lon="5.85038">
        <ele>625</ele>
        <time>2020-09-14T18:20:20Z</time>
      </trkpt>
      <trkpt lat="45.69186" lon="5.85068">
        <ele>626</ele>
        <time>2020-09-14T18:20:24Z</time>
      </trkpt>
      <trkpt lat="45.69183" lon="5.85084">
        <ele>625</ele>
        <time>2020-09-14T18:20:26Z</time>
      </trkpt>
      <trkpt lat="45.69177" lon="5.85105">
        <ele>623</ele>
        <time>2020-09-14T18:20:29Z</time>
      </trkpt>
      <trkpt lat="45.69157" lon="5.85154">
        <ele>619</ele>
        <time>2020-09-14T18:20:36Z</time>
      </trkpt>
      <trkpt lat="45.69139" lon="5.8518">
        <ele>615</ele>
        <time>2020-09-14T18:20:40Z</time>
      </trkpt>
      <trkpt lat="45.69119" lon="5.85204">
        <ele>608</ele>
        <time>2020-09-14T18:20:45Z</time>
      </trkpt>
      <trkpt lat="45.69116" lon="5.85211">
        <ele>606</ele>
        <time>2020-09-14T18:20:46Z</time>
      </trkpt>
      <trkpt lat="45.69117" lon="5.85224">
        <ele>604</ele>
        <time>2020-09-14T18:20:47Z</time>
      </trkpt>
      <trkpt lat="45.6912" lon="5.85233">
        <ele>603</ele>
        <time>2020-09-14T18:20:49Z</time>
      </trkpt>
      <trkpt lat="45.69167" lon="5.85292">
        <ele>601</ele>
        <time>2020-09-14T18:21:00Z</time>
      </trkpt>
      <trkpt lat="45.69198" lon="5.85334">
        <ele>597</ele>
        <time>2020-09-14T18:21:07Z</time>
      </trkpt>
      <trkpt lat="45.69207" lon="5.85357">
        <ele>597</ele>
        <time>2020-09-14T18:21:11Z</time>
      </trkpt>
      <trkpt lat="45.69245" lon="5.85481">
        <ele>582</ele>
        <time>2020-09-14T18:21:27Z</time>
      </trkpt>
      <trkpt lat="45.69257" lon="5.85505">
        <ele>578</ele>
        <time>2020-09-14T18:21:31Z</time>
      </trkpt>
      <trkpt lat="45.6927" lon="5.8552">
        <ele>578</ele>
        <time>2020-09-14T18:21:34Z</time>
      </trkpt>
      <trkpt lat="45.69292" lon="5.85537">
        <ele>580</ele>
        <time>2020-09-14T18:21:39Z</time>
      </trkpt>
      <trkpt lat="45.6932" lon="5.8557">
        <ele>583</ele>
        <time>2020-09-14T18:21:45Z</time>
      </trkpt>
      <trkpt lat="45.69322" lon="5.85576">
        <ele>583</ele>
        <time>2020-09-14T18:21:46Z</time>
      </trkpt>
      <trkpt lat="45.69322" lon="5.85581">
        <ele>582</ele>
        <time>2020-09-14T18:21:46Z</time>
      </trkpt>
      <trkpt lat="45.6932" lon="5.85583">
        <ele>581</ele>
        <time>2020-09-14T18:21:47Z</time>
      </trkpt>
      <trkpt lat="45.69313" lon="5.85585">
        <ele>578</ele>
        <time>2020-09-14T18:21:48Z</time>
      </trkpt>
      <trkpt lat="45.69276" lon="5.8555">
        <ele>573</ele>
        <time>2020-09-14T18:21:56Z</time>
      </trkpt>
      <trkpt lat="45.69221" lon="5.85513">
        <ele>576</ele>
        <time>2020-09-14T18:22:07Z</time>
      </trkpt>
      <trkpt lat="45.69209" lon="5.85509">
        <ele>578</ele>
        <time>2020-09-14T18:22:09Z</time>
      </trkpt>
      <trkpt lat="45.69199" lon="5.85508">
        <ele>579</ele>
        <time>2020-09-14T18:22:11Z</time>
      </trkpt>
      <trkpt lat="45.69189" lon="5.85511">
        <ele>579</ele>
        <time>2020-09-14T18:22:13Z</time>
      </trkpt>
      <trkpt lat="45.69179" lon="5.85519">
        <ele>576</ele>
        <time>2020-09-14T18:22:15Z</time>
      </trkpt>
      <trkpt lat="45.69161" lon="5.85547">
        <ele>565</ele>
        <time>2020-09-14T18:22:19Z</time>
      </trkpt>
      <trkpt lat="45.69151" lon="5.85558">
        <ele>560</ele>
        <time>2020-09-14T18:22:22Z</time>
      </trkpt>
      <trkpt lat="45.69132" lon="5.85568">
        <ele>555</ele>
        <time>2020-09-14T18:22:25Z</time>
      </trkpt>
      <trkpt lat="45.69119" lon="5.85569">
        <ele>553</ele>
        <time>2020-09-14T18:22:28Z</time>
      </trkpt>
      <trkpt lat="45.69048" lon="5.85563">
        <ele>544</ele>
        <time>2020-09-14T18:22:40Z</time>
      </trkpt>
      <trkpt lat="45.69033" lon="5.85559">
        <ele>541</ele>
        <time>2020-09-14T18:22:43Z</time>
      </trkpt>
      <trkpt lat="45.69025" lon="5.85552">
        <ele>542</ele>
        <time>2020-09-14T18:22:45Z</time>
      </trkpt>
      <trkpt lat="45.69012" lon="5.8553">
        <ele>548</ele>
        <time>2020-09-14T18:22:48Z</time>
      </trkpt>
      <trkpt lat="45.69005" lon="5.85522">
        <ele>550</ele>
        <time>2020-09-14T18:22:50Z</time>
      </trkpt>
      <trkpt lat="45.68995" lon="5.85517">
        <ele>548</ele>
        <time>2020-09-14T18:22:52Z</time>
      </trkpt>
      <trkpt lat="45.68979" lon="5.85519">
        <ele>539</ele>
        <time>2020-09-14T18:22:55Z</time>
      </trkpt>
      <trkpt lat="45.68968" lon="5.85517">
        <ele>535</ele>
        <time>2020-09-14T18:22:57Z</time>
      </trkpt>
      <trkpt lat="45.68927" lon="5.85493">
        <ele>522</ele>
        <time>2020-09-14T18:23:04Z</time>
      </trkpt>
      <trkpt lat="45.68919" lon="5.85475">
        <ele>518</ele>
        <time>2020-09-14T18:23:07Z</time>
      </trkpt>
      <trkpt lat="45.68918" lon="5.85462">
        <ele>518</ele>
        <time>2020-09-14T18:23:09Z</time>
      </trkpt>
      <trkpt lat="45.68934" lon="5.85409">
        <ele>529</ele>
        <time>2020-09-14T18:23:16Z</time>
      </trkpt>
      <trkpt lat="45.68937" lon="5.85348">
        <ele>530</ele>
        <time>2020-09-14T18:23:23Z</time>
      </trkpt>
      <trkpt lat="45.68948" lon="5.85324">
        <ele>535</ele>
        <time>2020-09-14T18:23:27Z</time>
      </trkpt>
      <trkpt lat="45.68954" lon="5.85305">
        <ele>538</ele>
        <time>2020-09-14T18:23:30Z</time>
      </trkpt>
      <trkpt lat="45.6895" lon="5.85267">
        <ele>535</ele>
        <time>2020-09-14T18:23:34Z</time>
      </trkpt>
      <trkpt lat="45.6895" lon="5.85239">
        <ele>538</ele>
        <time>2020-09-14T18:23:38Z</time>
      </trkpt>
      <trkpt lat="45.68949" lon="5.85233">
        <ele>539</ele>
        <time>2020-09-14T18:23:39Z</time>
      </trkpt>
      <trkpt lat="45.68945" lon="5.8523">
        <ele>538</ele>
        <time>2020-09-14T18:23:39Z</time>
      </trkpt>
      <trkpt lat="45.68941" lon="5.85231">
        <ele>536</ele>
        <time>2020-09-14T18:23:40Z</time>
      </trkpt>
      <trkpt lat="45.68938" lon="5.85235">
        <ele>533</ele>
        <time>2020-09-14T18:23:41Z</time>
      </trkpt>
      <trkpt lat="45.68938" lon="5.85293">
        <ele>530</ele>
        <time>2020-09-14T18:23:48Z</time>
      </trkpt>
      <trkpt lat="45.68935" lon="5.85311">
        <ele>529</ele>
        <time>2020-09-14T18:23:50Z</time>
      </trkpt>
      <trkpt lat="45.68913" lon="5.85365">
        <ele>519</ele>
        <time>2020-09-14T18:23:58Z</time>
      </trkpt>
      <trkpt lat="45.68898" lon="5.85425">
        <ele>509</ele>
        <time>2020-09-14T18:24:06Z</time>
      </trkpt>
      <trkpt lat="45.68886" lon="5.85465">
        <ele>499</ele>
        <time>2020-09-14T18:24:11Z</time>
      </trkpt>
      <trkpt lat="45.68884" lon="5.85476">
        <ele>496</ele>
        <time>2020-09-14T18:24:13Z</time>
      </trkpt>
      <trkpt lat="45.68883" lon="5.85505">
        <ele>492</ele>
        <time>2020-09-14T18:24:17Z</time>
      </trkpt>
      <trkpt lat="45.68878" lon="5.85512">
        <ele>487</ele>
        <time>2020-09-14T18:24:18Z</time>
      </trkpt>
      <trkpt lat="45.68874" lon="5.85511">
        <ele>485</ele>
        <time>2020-09-14T18:24:18Z</time>
      </trkpt>
      <trkpt lat="45.6887" lon="5.85505">
        <ele>484</ele>
        <time>2020-09-14T18:24:20Z</time>
      </trkpt>
      <trkpt lat="45.6887" lon="5.85492">
        <ele>486</ele>
        <time>2020-09-14T18:24:21Z</time>
      </trkpt>
      <trkpt lat="45.68889" lon="5.85405">
        <ele>505</ele>
        <time>2020-09-14T18:24:32Z</time>
      </trkpt>
      <trkpt lat="45.68889" lon="5.8539">
        <ele>505</ele>
        <time>2020-09-14T18:24:34Z</time>
      </trkpt>
      <trkpt lat="45.68884" lon="5.85366">
        <ele>503</ele>
        <time>2020-09-14T18:24:37Z</time>
      </trkpt>
      <trkpt lat="45.68885" lon="5.85359">
        <ele>503</ele>
        <time>2020-09-14T18:24:38Z</time>
      </trkpt>
      <trkpt lat="45.68894" lon="5.85333">
        <ele>509</ele>
        <time>2020-09-14T18:24:42Z</time>
      </trkpt>
      <trkpt lat="45.68895" lon="5.85322">
        <ele>509</ele>
        <time>2020-09-14T18:24:43Z</time>
      </trkpt>
      <trkpt lat="45.68892" lon="5.85255">
        <ele>508</ele>
        <time>2020-09-14T18:24:52Z</time>
      </trkpt>
      <trkpt lat="45.68888" lon="5.85236">
        <ele>512</ele>
        <time>2020-09-14T18:24:54Z</time>
      </trkpt>
      <trkpt lat="45.68882" lon="5.85225">
        <ele>514</ele>
        <time>2020-09-14T18:24:56Z</time>
      </trkpt>
      <trkpt lat="45.6887" lon="5.85215">
        <ele>514</ele>
        <time>2020-09-14T18:24:58Z</time>
      </trkpt>
      <trkpt lat="45.68864" lon="5.85213">
        <ele>513</ele>
        <time>2020-09-14T18:24:59Z</time>
      </trkpt>
      <trkpt lat="45.68831" lon="5.85212">
        <ele>502</ele>
        <time>2020-09-14T18:25:05Z</time>
      </trkpt>
      <trkpt lat="45.68822" lon="5.85213">
        <ele>500</ele>
        <time>2020-09-14T18:25:07Z</time>
      </trkpt>
      <trkpt lat="45.68799" lon="5.85224">
        <ele>491</ele>
        <time>2020-09-14T18:25:11Z</time>
      </trkpt>
      <trkpt lat="45.68786" lon="5.85228">
        <ele>486</ele>
        <time>2020-09-14T18:25:14Z</time>
      </trkpt>
      <trkpt lat="45.68747" lon="5.85219">
        <ele>483</ele>
        <time>2020-09-14T18:25:21Z</time>
      </trkpt>
      <trkpt lat="45.68683" lon="5.85228">
        <ele>468</ele>
        <time>2020-09-14T18:25:32Z</time>
      </trkpt>
      <trkpt lat="45.6865" lon="5.8523">
        <ele>458</ele>
        <time>2020-09-14T18:25:38Z</time>
      </trkpt>
      <trkpt lat="45.68647" lon="5.85232">
        <ele>456</ele>
        <time>2020-09-14T18:25:39Z</time>
      </trkpt>
      <trkpt lat="45.68645" lon="5.85237">
        <ele>454</ele>
        <time>2020-09-14T18:25:39Z</time>
      </trkpt>
      <trkpt lat="45.68647" lon="5.85243">
        <ele>453</ele>
        <time>2020-09-14T18:25:40Z</time>
      </trkpt>
      <trkpt lat="45.68651" lon="5.85246">
        <ele>454</ele>
        <time>2020-09-14T18:25:41Z</time>
      </trkpt>
      <trkpt lat="45.68723" lon="5.85257">
        <ele>464</ele>
        <time>2020-09-14T18:25:54Z</time>
      </trkpt>
      <trkpt lat="45.68779" lon="5.85268">
        <ele>471</ele>
        <time>2020-09-14T18:26:04Z</time>
      </trkpt>
      <trkpt lat="45.68808" lon="5.85267">
        <ele>478</ele>
        <time>2020-09-14T18:26:09Z</time>
      </trkpt>
      <trkpt lat="45.68816" lon="5.8527">
        <ele>479</ele>
        <time>2020-09-14T18:26:10Z</time>
      </trkpt>
      <trkpt lat="45.68819" lon="5.85276">
        <ele>479</ele>
        <time>2020-09-14T18:26:11Z</time>
      </trkpt>
      <trkpt lat="45.6882" lon="5.85284">
        <ele>478</ele>
        <time>2020-09-14T18:26:12Z</time>
      </trkpt>
      <trkpt lat="45.68818" lon="5.85288">
        <ele>477</ele>
        <time>2020-09-14T18:26:13Z</time>
      </trkpt>
      <trkpt lat="45.68815" lon="5.85292">
        <ele>476</ele>
        <time>2020-09-14T18:26:14Z</time>
      </trkpt>
      <trkpt lat="45.68778" lon="5.85283">
        <ele>468</ele>
        <time>2020-09-14T18:26:20Z</time>
      </trkpt>
      <trkpt lat="45.68756" lon="5.85282">
        <ele>462</ele>
        <time>2020-09-14T18:26:24Z</time>
      </trkpt>
      <trkpt lat="45.68741" lon="5.85287">
        <ele>458</ele>
        <time>2020-09-14T18:26:27Z</time>
      </trkpt>
      <trkpt lat="45.68717" lon="5.85301">
        <ele>449</ele>
        <time>2020-09-14T18:26:32Z</time>
      </trkpt>
      <trkpt lat="45.68704" lon="5.853">
        <ele>447</ele>
        <time>2020-09-14T18:26:34Z</time>
      </trkpt>
      <trkpt lat="45.68604" lon="5.85268">
        <ele>428</ele>
        <time>2020-09-14T18:26:52Z</time>
      </trkpt>
      <trkpt lat="45.686" lon="5.85263">
        <ele>428</ele>
        <time>2020-09-14T18:26:53Z</time>
      </trkpt>
      <trkpt lat="45.68596" lon="5.85252">
        <ele>430</ele>
        <time>2020-09-14T18:26:55Z</time>
      </trkpt>
      <trkpt lat="45.68592" lon="5.85204">
        <ele>439</ele>
        <time>2020-09-14T18:27:01Z</time>
      </trkpt>
      <trkpt lat="45.68583" lon="5.85177">
        <ele>441</ele>
        <time>2020-09-14T18:27:04Z</time>
      </trkpt>
      <trkpt lat="45.68572" lon="5.85158">
        <ele>442</ele>
        <time>2020-09-14T18:27:07Z</time>
      </trkpt>
      <trkpt lat="45.6853" lon="5.8513">
        <ele>438</ele>
        <time>2020-09-14T18:27:16Z</time>
      </trkpt>
      <trkpt lat="45.68512" lon="5.85112">
        <ele>441</ele>
        <time>2020-09-14T18:27:20Z</time>
      </trkpt>
      <trkpt lat="45.68503" lon="5.85106">
        <ele>440</ele>
        <time>2020-09-14T18:27:21Z</time>
      </trkpt>
      <trkpt lat="45.68433" lon="5.8508">
        <ele>431</ele>
        <time>2020-09-14T18:27:34Z</time>
      </trkpt>
      <trkpt lat="45.68313" lon="5.85062">
        <ele>419</ele>
        <time>2020-09-14T18:27:56Z</time>
      </trkpt>
      <trkpt lat="45.68257" lon="5.85047">
        <ele>419</ele>
        <time>2020-09-14T18:28:06Z</time>
      </trkpt>
      <trkpt lat="45.68117" lon="5.8505">
        <ele>397</ele>
        <time>2020-09-14T18:28:31Z</time>
      </trkpt>
      <trkpt lat="45.68071" lon="5.85043">
        <ele>397</ele>
        <time>2020-09-14T18:28:39Z</time>
      </trkpt>
      <trkpt lat="45.68006" lon="5.85055">
        <ele>385</ele>
        <time>2020-09-14T18:28:51Z</time>
      </trkpt>
      <trkpt lat="45.67992" lon="5.85049">
        <ele>386</ele>
        <time>2020-09-14T18:28:53Z</time>
      </trkpt>
      <trkpt lat="45.67965" lon="5.85024">
        <ele>393</ele>
        <time>2020-09-14T18:28:59Z</time>
      </trkpt>
      <trkpt lat="45.67957" lon="5.85018">
        <ele>394</ele>
        <time>2020-09-14T18:29:01Z</time>
      </trkpt>
      <trkpt lat="45.6793" lon="5.85007">
        <ele>395</ele>
        <time>2020-09-14T18:29:06Z</time>
      </trkpt>
      <trkpt lat="45.67915" lon="5.85005">
        <ele>393</ele>
        <time>2020-09-14T18:29:08Z</time>
      </trkpt>
      <trkpt lat="45.67737" lon="5.85014">
        <ele>371</ele>
        <time>2020-09-14T18:29:40Z</time>
      </trkpt>
      <trkpt lat="45.67724" lon="5.85018">
        <ele>371</ele>
        <time>2020-09-14T18:29:42Z</time>
      </trkpt>
      <trkpt lat="45.67713" lon="5.85024">
        <ele>370</ele>
        <time>2020-09-14T18:29:44Z</time>
      </trkpt>
      <trkpt lat="45.67694" lon="5.8504">
        <ele>367</ele>
        <time>2020-09-14T18:29:48Z</time>
      </trkpt>
      <trkpt lat="45.67681" lon="5.85057">
        <ele>364</ele>
        <time>2020-09-14T18:29:51Z</time>
      </trkpt>
      <trkpt lat="45.67631" lon="5.85146">
        <ele>355</ele>
        <time>2020-09-14T18:30:06Z</time>
      </trkpt>
      <trkpt lat="45.67627" lon="5.85158">
        <ele>354</ele>
        <time>2020-09-14T18:30:07Z</time>
      </trkpt>
      <trkpt lat="45.67632" lon="5.85168">
        <ele>352</ele>
        <time>2020-09-14T18:30:09Z</time>
      </trkpt>
      <trkpt lat="45.67639" lon="5.85169">
        <ele>351</ele>
        <time>2020-09-14T18:30:10Z</time>
      </trkpt>
      <trkpt lat="45.67642" lon="5.85167">
        <ele>351</ele>
        <time>2020-09-14T18:30:11Z</time>
      </trkpt>
      <trkpt lat="45.67652" lon="5.85149">
        <ele>352</ele>
        <time>2020-09-14T18:30:14Z</time>
      </trkpt>
      <trkpt lat="45.67655" lon="5.85147">
        <ele>352</ele>
        <time>2020-09-14T18:30:14Z</time>
      </trkpt>
      <trkpt lat="45.67658" lon="5.85147">
        <ele>351</ele>
        <time>2020-09-14T18:30:15Z</time>
      </trkpt>
      <trkpt lat="45.6767" lon="5.85155">
        <ele>349</ele>
        <time>2020-09-14T18:30:17Z</time>
      </trkpt>
      <trkpt lat="45.67668" lon="5.8516">
        <ele>349</ele>
        <time>2020-09-14T18:30:18Z</time>
      </trkpt>
      <trkpt lat="45.67667" lon="5.85171">
        <ele>348</ele>
        <time>2020-09-14T18:30:19Z</time>
      </trkpt>
      <trkpt lat="45.67671" lon="5.8518">
        <ele>346</ele>
        <time>2020-09-14T18:30:20Z</time>
      </trkpt>
      <trkpt lat="45.67674" lon="5.85183">
        <ele>346</ele>
        <time>2020-09-14T18:30:21Z</time>
      </trkpt>
      <trkpt lat="45.67666" lon="5.85202">
        <ele>345</ele>
        <time>2020-09-14T18:30:24Z</time>
      </trkpt>
      <trkpt lat="45.67656" lon="5.8522">
        <ele>344</ele>
        <time>2020-09-14T18:30:27Z</time>
      </trkpt>
      <trkpt lat="45.67642" lon="5.85236">
        <ele>343</ele>
        <time>2020-09-14T18:30:30Z</time>
      </trkpt>
      <trkpt lat="45.67559" lon="5.85296">
        <ele>340</ele>
        <time>2020-09-14T18:30:46Z</time>
      </trkpt>
      <trkpt lat="45.67529" lon="5.85314">
        <ele>338</ele>
        <time>2020-09-14T18:30:52Z</time>
      </trkpt>
      <trkpt lat="45.67522" lon="5.85316">
        <ele>338</ele>
        <time>2020-09-14T18:30:54Z</time>
      </trkpt>
      <trkpt lat="45.67497" lon="5.85317">
        <ele>339</ele>
        <time>2020-09-14T18:30:58Z</time>
      </trkpt>
      <trkpt lat="45.6745" lon="5.85316">
        <ele>339</ele>
        <time>2020-09-14T18:31:06Z</time>
      </trkpt>
      <trkpt lat="45.67424" lon="5.85318">
        <ele>339</ele>
        <time>2020-09-14T18:31:11Z</time>
      </trkpt>
      <trkpt lat="45.67411" lon="5.85322">
        <ele>339</ele>
        <time>2020-09-14T18:31:13Z</time>
      </trkpt>
      <trkpt lat="45.67391" lon="5.85333">
        <ele>338</ele>
        <time>2020-09-14T18:31:17Z</time>
      </trkpt>
      <trkpt lat="45.67299" lon="5.85394">
        <ele>333</ele>
        <time>2020-09-14T18:31:35Z</time>
      </trkpt>
      <trkpt lat="45.67221" lon="5.8541">
        <ele>334</ele>
        <time>2020-09-14T18:31:49Z</time>
      </trkpt>
      <trkpt lat="45.67143" lon="5.85447">
        <ele>329</ele>
        <time>2020-09-14T18:32:04Z</time>
      </trkpt>
      <trkpt lat="45.67129" lon="5.85452">
        <ele>327</ele>
        <time>2020-09-14T18:32:06Z</time>
      </trkpt>
      <trkpt lat="45.67108" lon="5.85453">
        <ele>326</ele>
        <time>2020-09-14T18:32:10Z</time>
      </trkpt>
      <trkpt lat="45.67061" lon="5.85451">
        <ele>326</ele>
        <time>2020-09-14T18:32:19Z</time>
      </trkpt>
      <trkpt lat="45.67044" lon="5.85453">
        <ele>326</ele>
        <time>2020-09-14T18:32:22Z</time>
      </trkpt>
      <trkpt lat="45.66991" lon="5.85473">
        <ele>321</ele>
        <time>2020-09-14T18:32:31Z</time>
      </trkpt>
      <trkpt lat="45.66954" lon="5.85474">
        <ele>321</ele>
        <time>2020-09-14T18:32:38Z</time>
      </trkpt>
      <trkpt lat="45.66881" lon="5.85472">
        <ele>317</ele>
        <time>2020-09-14T18:32:51Z</time>
      </trkpt>
      <trkpt lat="45.66641" lon="5.85395">
        <ele>313</ele>
        <time>2020-09-14T18:33:35Z</time>
      </trkpt>
      <trkpt lat="45.66567" lon="5.85388">
        <ele>311</ele>
        <time>2020-09-14T18:33:48Z</time>
      </trkpt>
      <trkpt lat="45.66539" lon="5.85389">
        <ele>309</ele>
        <time>2020-09-14T18:33:53Z</time>
      </trkpt>
      <trkpt lat="45.66502" lon="5.854">
        <ele>305</ele>
        <time>2020-09-14T18:34:00Z</time>
      </trkpt>
      <trkpt lat="45.66356" lon="5.85453">
        <ele>296</ele>
        <time>2020-09-14T18:34:26Z</time>
      </trkpt>
      <trkpt lat="45.66333" lon="5.85467">
        <ele>292</ele>
        <time>2020-09-14T18:34:31Z</time>
      </trkpt>
      <trkpt lat="45.6632" lon="5.85477">
        <ele>292</ele>
        <time>2020-09-14T18:34:33Z</time>
      </trkpt>
      <trkpt lat="45.66295" lon="5.85504">
        <ele>291</ele>
        <time>2020-09-14T18:34:39Z</time>
      </trkpt>
      <trkpt lat="45.66269" lon="5.85538">
        <ele>290</ele>
        <time>2020-09-14T18:34:45Z</time>
      </trkpt>
      <trkpt lat="45.66238" lon="5.8557">
        <ele>289</ele>
        <time>2020-09-14T18:34:52Z</time>
      </trkpt>
      <trkpt lat="45.66205" lon="5.85589">
        <ele>287</ele>
        <time>2020-09-14T18:34:58Z</time>
      </trkpt>
      <trkpt lat="45.66189" lon="5.85594">
        <ele>287</ele>
        <time>2020-09-14T18:35:01Z</time>
      </trkpt>
      <trkpt lat="45.66153" lon="5.85599">
        <ele>286</ele>
        <time>2020-09-14T18:35:08Z</time>
      </trkpt>
      <trkpt lat="45.66119" lon="5.85596">
        <ele>283</ele>
        <time>2020-09-14T18:35:14Z</time>
      </trkpt>
      <trkpt lat="45.66104" lon="5.85591">
        <ele>283</ele>
        <time>2020-09-14T18:35:17Z</time>
      </trkpt>
      <trkpt lat="45.66037" lon="5.85554">
        <ele>284</ele>
        <time>2020-09-14T18:35:29Z</time>
      </trkpt>
      <trkpt lat="45.66013" lon="5.85548">
        <ele>283</ele>
        <time>2020-09-14T18:35:34Z</time>
      </trkpt>
      <trkpt lat="45.65971" lon="5.85543">
        <ele>281</ele>
        <time>2020-09-14T18:35:41Z</time>
      </trkpt>
      <trkpt lat="45.65939" lon="5.85547">
        <ele>278</ele>
        <time>2020-09-14T18:35:47Z</time>
      </trkpt>
      <trkpt lat="45.65876" lon="5.85577">
        <ele>271</ele>
        <time>2020-09-14T18:35:59Z</time>
      </trkpt>
      <trkpt lat="45.65779" lon="5.85618">
        <ele>266</ele>
        <time>2020-09-14T18:36:17Z</time>
      </trkpt>
      <trkpt lat="45.65731" lon="5.85641">
        <ele>263</ele>
        <time>2020-09-14T18:36:26Z</time>
      </trkpt>
      <trkpt lat="45.65679" lon="5.85685">
        <ele>255</ele>
        <time>2020-09-14T18:36:36Z</time>
      </trkpt>
      <trkpt lat="45.65508" lon="5.85842">
        <ele>243</ele>
        <time>2020-09-14T18:37:13Z</time>
      </trkpt>
      <trkpt lat="45.65488" lon="5.85854">
        <ele>243</ele>
        <time>2020-09-14T18:37:16Z</time>
      </trkpt>
      <trkpt lat="45.65304" lon="5.85902">
        <ele>241</ele>
        <time>2020-09-14T18:37:50Z</time>
      </trkpt>
      <trkpt lat="45.65246" lon="5.85934">
        <ele>240</ele>
        <time>2020-09-14T18:38:01Z</time>
      </trkpt>
      <trkpt lat="45.65225" lon="5.85955">
        <ele>239</ele>
        <time>2020-09-14T18:38:05Z</time>
      </trkpt>
      <trkpt lat="45.65208" lon="5.85966">
        <ele>239</ele>
        <time>2020-09-14T18:38:09Z</time>
      </trkpt>
      <trkpt lat="45.65175" lon="5.85976">
        <ele>239</ele>
        <time>2020-09-14T18:38:15Z</time>
      </trkpt>
      <trkpt lat="45.65164" lon="5.85956">
        <ele>240</ele>
        <time>2020-09-14T18:38:18Z</time>
      </trkpt>
      <trkpt lat="45.65158" lon="5.85949">
        <ele>240</ele>
        <time>2020-09-14T18:38:19Z</time>
      </trkpt>
      <trkpt lat="45.65144" lon="5.85945">
        <ele>240</ele>
        <time>2020-09-14T18:38:22Z</time>
      </trkpt>
      <trkpt lat="45.65114" lon="5.85951">
        <ele>241</ele>
        <time>2020-09-14T18:38:27Z</time>
      </trkpt>
      <trkpt lat="45.64918" lon="5.85978">
        <ele>245</ele>
        <time>2020-09-14T18:39:02Z</time>
      </trkpt>
      <trkpt lat="45.64907" lon="5.85978">
        <ele>245</ele>
        <time>2020-09-14T18:39:04Z</time>
      </trkpt>
      <trkpt lat="45.64897" lon="5.85974">
        <ele>245</ele>
        <time>2020-09-14T18:39:06Z</time>
      </trkpt>
      <trkpt lat="45.64862" lon="5.85987">
        <ele>244</ele>
        <time>2020-09-14T18:39:12Z</time>
      </trkpt>
      <trkpt lat="45.64775" lon="5.86009">
        <ele>244</ele>
        <time>2020-09-14T18:39:28Z</time>
      </trkpt>
      <trkpt lat="45.6477" lon="5.86016">
        <ele>244</ele>
        <time>2020-09-14T18:39:29Z</time>
      </trkpt>
      <trkpt lat="45.64777" lon="5.86113">
        <ele>240</ele>
        <time>2020-09-14T18:39:41Z</time>
      </trkpt>
      <trkpt lat="45.64785" lon="5.86297">
        <ele>237</ele>
        <time>2020-09-14T18:40:04Z</time>
      </trkpt>
      <trkpt lat="45.64783" lon="5.86301">
        <ele>237</ele>
        <time>2020-09-14T18:40:05Z</time>
      </trkpt>
      <trkpt lat="45.64778" lon="5.86312">
        <ele>238</ele>
        <time>2020-09-14T18:40:07Z</time>
      </trkpt>
      <trkpt lat="45.64768" lon="5.86336">
        <ele>238</ele>
        <time>2020-09-14T18:40:10Z</time>
      </trkpt>
      <trkpt lat="45.64743" lon="5.86361">
        <ele>239</ele>
        <time>2020-09-14T18:40:16Z</time>
      </trkpt>
      <trkpt lat="45.64665" lon="5.86448">
        <ele>240</ele>
        <time>2020-09-14T18:40:33Z</time>
      </trkpt>
      <trkpt lat="45.64652" lon="5.86465">
        <ele>240</ele>
        <time>2020-09-14T18:40:36Z</time>
      </trkpt>
      <trkpt lat="45.64648" lon="5.86471">
        <ele>240</ele>
        <time>2020-09-14T18:40:37Z</time>
      </trkpt>
      <trkpt lat="45.64619" lon="5.86508">
        <ele>239</ele>
        <time>2020-09-14T18:40:44Z</time>
      </trkpt>
      <trkpt lat="45.64581" lon="5.86555">
        <ele>239</ele>
        <time>2020-09-14T18:40:53Z</time>
      </trkpt>
      <trkpt lat="45.64554" lon="5.86577">
        <ele>239</ele>
        <time>2020-09-14T18:40:59Z</time>
      </trkpt>
      <trkpt lat="45.64548" lon="5.86582">
        <ele>239</ele>
        <time>2020-09-14T18:41:00Z</time>
      </trkpt>
      <trkpt lat="45.64536" lon="5.86591">
        <ele>239</ele>
        <time>2020-09-14T18:41:02Z</time>
      </trkpt>
      <trkpt lat="45.6449" lon="5.86611">
        <ele>239</ele>
        <time>2020-09-14T18:41:11Z</time>
      </trkpt>
      <trkpt lat="45.64408" lon="5.86615">
        <ele>238</ele>
        <time>2020-09-14T18:41:26Z</time>
      </trkpt>
      <trkpt lat="45.64404" lon="5.86621">
        <ele>238</ele>
        <time>2020-09-14T18:41:27Z</time>
      </trkpt>
      <trkpt lat="45.64404" lon="5.86627">
        <ele>238</ele>
        <time>2020-09-14T18:41:27Z</time>
      </trkpt>
      <trkpt lat="45.64404" lon="5.86628">
        <ele>238</ele>
        <time>2020-09-14T18:41:27Z</time>
      </trkpt>
      <trkpt lat="45.64405" lon="5.86632">
        <ele>238</ele>
        <time>2020-09-14T18:41:28Z</time>
      </trkpt>
      <trkpt lat="45.64412" lon="5.86664">
        <ele>238</ele>
        <time>2020-09-14T18:41:32Z</time>
      </trkpt>
      <trkpt lat="45.64413" lon="5.86668">
        <ele>238</ele>
        <time>2020-09-14T18:41:33Z</time>
      </trkpt>
      <trkpt lat="45.64389" lon="5.86676">
        <ele>238</ele>
        <time>2020-09-14T18:41:37Z</time>
      </trkpt>
      <trkpt lat="45.64347" lon="5.86694">
        <ele>237</ele>
        <time>2020-09-14T18:41:45Z</time>
      </trkpt>
      <trkpt lat="45.64225" lon="5.86759">
        <ele>238</ele>
        <time>2020-09-14T18:42:08Z</time>
      </trkpt>
      <trkpt lat="45.64171" lon="5.86785">
        <ele>240</ele>
        <time>2020-09-14T18:42:18Z</time>
      </trkpt>
      <trkpt lat="45.64096" lon="5.86833">
        <ele>241</ele>
        <time>2020-09-14T18:42:33Z</time>
      </trkpt>
      <trkpt lat="45.64075" lon="5.86848">
        <ele>241</ele>
        <time>2020-09-14T18:42:37Z</time>
      </trkpt>
      <trkpt lat="45.64023" lon="5.86874">
        <ele>240</ele>
        <time>2020-09-14T18:42:47Z</time>
      </trkpt>
      <trkpt lat="45.63993" lon="5.86886">
        <ele>240</ele>
        <time>2020-09-14T18:42:52Z</time>
      </trkpt>
      <trkpt lat="45.63937" lon="5.86897">
        <ele>239</ele>
        <time>2020-09-14T18:43:02Z</time>
      </trkpt>
      <trkpt lat="45.63927" lon="5.86903">
        <ele>239</ele>
        <time>2020-09-14T18:43:04Z</time>
      </trkpt>
      <trkpt lat="45.63919" lon="5.86913">
        <ele>238</ele>
        <time>2020-09-14T18:43:06Z</time>
      </trkpt>
      <trkpt lat="45.63914" lon="5.86923">
        <ele>238</ele>
        <time>2020-09-14T18:43:08Z</time>
      </trkpt>
      <trkpt lat="45.63903" lon="5.86937">
        <ele>238</ele>
        <time>2020-09-14T18:43:10Z</time>
      </trkpt>
      <trkpt lat="45.6384" lon="5.86969">
        <ele>240</ele>
        <time>2020-09-14T18:43:22Z</time>
      </trkpt>
      <trkpt lat="45.6381" lon="5.86974">
        <ele>240</ele>
        <time>2020-09-14T18:43:28Z</time>
      </trkpt>
      <trkpt lat="45.63757" lon="5.86976">
        <ele>240</ele>
        <time>2020-09-14T18:43:37Z</time>
      </trkpt>
      <trkpt lat="45.63671" lon="5.86989">
        <ele>241</ele>
        <time>2020-09-14T18:43:52Z</time>
      </trkpt>
      <trkpt lat="45.6354" lon="5.8702">
        <ele>242</ele>
        <time>2020-09-14T18:44:16Z</time>
      </trkpt>
      <trkpt lat="45.63463" lon="5.8707">
        <ele>240</ele>
        <time>2020-09-14T18:44:31Z</time>
      </trkpt>
      <trkpt lat="45.63433" lon="5.87082">
        <ele>240</ele>
        <time>2020-09-14T18:44:37Z</time>
      </trkpt>
      <trkpt lat="45.63323" lon="5.87096">
        <ele>239</ele>
        <time>2020-09-14T18:44:56Z</time>
      </trkpt>
      <trkpt lat="45.63276" lon="5.871">
        <ele>239</ele>
        <time>2020-09-14T18:45:05Z</time>
      </trkpt>
      <trkpt lat="45.63229" lon="5.87118">
        <ele>240</ele>
        <time>2020-09-14T18:45:13Z</time>
      </trkpt>
      <trkpt lat="45.63193" lon="5.87147">
        <ele>239</ele>
        <time>2020-09-14T18:45:21Z</time>
      </trkpt>
      <trkpt lat="45.6313" lon="5.87182">
        <ele>239</ele>
        <time>2020-09-14T18:45:33Z</time>
      </trkpt>
      <trkpt lat="45.63088" lon="5.87198">
        <ele>239</ele>
        <time>2020-09-14T18:45:40Z</time>
      </trkpt>
      <trkpt lat="45.63073" lon="5.87202">
        <ele>239</ele>
        <time>2020-09-14T18:45:43Z</time>
      </trkpt>
      <trkpt lat="45.63054" lon="5.87201">
        <ele>239</ele>
        <time>2020-09-14T18:45:46Z</time>
      </trkpt>
      <trkpt lat="45.6302" lon="5.87203">
        <ele>240</ele>
        <time>2020-09-14T18:45:53Z</time>
      </trkpt>
      <trkpt lat="45.63006" lon="5.87209">
        <ele>240</ele>
        <time>2020-09-14T18:45:55Z</time>
      </trkpt>
      <trkpt lat="45.62986" lon="5.87226">
        <ele>240</ele>
        <time>2020-09-14T18:45:59Z</time>
      </trkpt>
      <trkpt lat="45.62934" lon="5.87279">
        <ele>240</ele>
        <time>2020-09-14T18:46:11Z</time>
      </trkpt>
      <trkpt lat="45.62914" lon="5.87301">
        <ele>240</ele>
        <time>2020-09-14T18:46:15Z</time>
      </trkpt>
      <trkpt lat="45.62892" lon="5.87325">
        <ele>240</ele>
        <time>2020-09-14T18:46:20Z</time>
      </trkpt>
      <trkpt lat="45.62868" lon="5.87354">
        <ele>240</ele>
        <time>2020-09-14T18:46:26Z</time>
      </trkpt>
      <trkpt lat="45.62858" lon="5.8736">
        <ele>240</ele>
        <time>2020-09-14T18:46:28Z</time>
      </trkpt>
      <trkpt lat="45.62839" lon="5.87366">
        <ele>240</ele>
        <time>2020-09-14T18:46:31Z</time>
      </trkpt>
      <trkpt lat="45.62804" lon="5.8737">
        <ele>240</ele>
        <time>2020-09-14T18:46:37Z</time>
      </trkpt>
      <trkpt lat="45.62791" lon="5.87371">
        <ele>239</ele>
        <time>2020-09-14T18:46:40Z</time>
      </trkpt>
      <trkpt lat="45.62714" lon="5.87325">
        <ele>240</ele>
        <time>2020-09-14T18:46:54Z</time>
      </trkpt>
      <trkpt lat="45.62685" lon="5.87317">
        <ele>240</ele>
        <time>2020-09-14T18:47:00Z</time>
      </trkpt>
      <trkpt lat="45.62641" lon="5.87317">
        <ele>240</ele>
        <time>2020-09-14T18:47:08Z</time>
      </trkpt>
      <trkpt lat="45.62595" lon="5.87327">
        <ele>240</ele>
        <time>2020-09-14T18:47:16Z</time>
      </trkpt>
      <trkpt lat="45.62555" lon="5.87346">
        <ele>241</ele>
        <time>2020-09-14T18:47:23Z</time>
      </trkpt>
      <trkpt lat="45.62506" lon="5.87389">
        <ele>241</ele>
        <time>2020-09-14T18:47:34Z</time>
      </trkpt>
      <trkpt lat="45.62454" lon="5.87431">
        <ele>242</ele>
        <time>2020-09-14T18:47:44Z</time>
      </trkpt>
      <trkpt lat="45.62373" lon="5.87503">
        <ele>240</ele>
        <time>2020-09-14T18:48:01Z</time>
      </trkpt>
      <trkpt lat="45.62323" lon="5.87553">
        <ele>240</ele>
        <time>2020-09-14T18:48:12Z</time>
      </trkpt>
      <trkpt lat="45.62308" lon="5.87575">
        <ele>241</ele>
        <time>2020-09-14T18:48:16Z</time>
      </trkpt>
      <trkpt lat="45.62232" lon="5.87657">
        <ele>241</ele>
        <time>2020-09-14T18:48:33Z</time>
      </trkpt>
      <trkpt lat="45.62212" lon="5.87673">
        <ele>241</ele>
        <time>2020-09-14T18:48:37Z</time>
      </trkpt>
      <trkpt lat="45.62175" lon="5.8772">
        <ele>240</ele>
        <time>2020-09-14T18:48:46Z</time>
      </trkpt>
      <trkpt lat="45.6213" lon="5.87766">
        <ele>241</ele>
        <time>2020-09-14T18:48:55Z</time>
      </trkpt>
      <trkpt lat="45.62002" lon="5.87887">
        <ele>244</ele>
        <time>2020-09-14T18:49:23Z</time>
      </trkpt>
      <trkpt lat="45.61863" lon="5.88024">
        <ele>245</ele>
        <time>2020-09-14T18:49:53Z</time>
      </trkpt>
      <trkpt lat="45.61819" lon="5.88063">
        <ele>246</ele>
        <time>2020-09-14T18:50:02Z</time>
      </trkpt>
      <trkpt lat="45.61783" lon="5.88098">
        <ele>246</ele>
        <time>2020-09-14T18:50:10Z</time>
      </trkpt>
      <trkpt lat="45.61758" lon="5.88133">
        <ele>245</ele>
        <time>2020-09-14T18:50:16Z</time>
      </trkpt>
      <trkpt lat="45.61712" lon="5.8822">
        <ele>244</ele>
        <time>2020-09-14T18:50:30Z</time>
      </trkpt>
      <trkpt lat="45.61688" lon="5.88258">
        <ele>245</ele>
        <time>2020-09-14T18:50:36Z</time>
      </trkpt>
      <trkpt lat="45.61673" lon="5.88277">
        <ele>245</ele>
        <time>2020-09-14T18:50:40Z</time>
      </trkpt>
      <trkpt lat="45.61649" lon="5.88299">
        <ele>245</ele>
        <time>2020-09-14T18:50:45Z</time>
      </trkpt>
      <trkpt lat="45.61631" lon="5.88312">
        <ele>245</ele>
        <time>2020-09-14T18:50:48Z</time>
      </trkpt>
      <trkpt lat="45.61594" lon="5.88331">
        <ele>245</ele>
        <time>2020-09-14T18:50:55Z</time>
      </trkpt>
      <trkpt lat="45.61556" lon="5.88335">
        <ele>246</ele>
        <time>2020-09-14T18:51:02Z</time>
      </trkpt>
      <trkpt lat="45.61499" lon="5.88333">
        <ele>247</ele>
        <time>2020-09-14T18:51:12Z</time>
      </trkpt>
      <trkpt lat="45.61448" lon="5.88336">
        <ele>246</ele>
        <time>2020-09-14T18:51:21Z</time>
      </trkpt>
      <trkpt lat="45.61287" lon="5.88335">
        <ele>248</ele>
        <time>2020-09-14T18:51:50Z</time>
      </trkpt>
      <trkpt lat="45.61216" lon="5.8834">
        <ele>248</ele>
        <time>2020-09-14T18:52:02Z</time>
      </trkpt>
      <trkpt lat="45.61148" lon="5.88354">
        <ele>247</ele>
        <time>2020-09-14T18:52:15Z</time>
      </trkpt>
      <trkpt lat="45.61034" lon="5.88387">
        <ele>247</ele>
        <time>2020-09-14T18:52:35Z</time>
      </trkpt>
      <trkpt lat="45.60875" lon="5.88462">
        <ele>248</ele>
        <time>2020-09-14T18:53:05Z</time>
      </trkpt>
      <trkpt lat="45.60796" lon="5.88496">
        <ele>250</ele>
        <time>2020-09-14T18:53:20Z</time>
      </trkpt>
      <trkpt lat="45.60647" lon="5.88565">
        <ele>249</ele>
        <time>2020-09-14T18:53:48Z</time>
      </trkpt>
      <trkpt lat="45.60623" lon="5.88577">
        <ele>249</ele>
        <time>2020-09-14T18:53:52Z</time>
      </trkpt>
      <trkpt lat="45.6061" lon="5.88587">
        <ele>249</ele>
        <time>2020-09-14T18:53:55Z</time>
      </trkpt>
      <trkpt lat="45.60584" lon="5.88598">
        <ele>250</ele>
        <time>2020-09-14T18:54:00Z</time>
      </trkpt>
      <trkpt lat="45.60573" lon="5.88609">
        <ele>250</ele>
        <time>2020-09-14T18:54:02Z</time>
      </trkpt>
      <trkpt lat="45.60556" lon="5.88612">
        <ele>250</ele>
        <time>2020-09-14T18:54:05Z</time>
      </trkpt>
      <trkpt lat="45.60512" lon="5.88632">
        <ele>249</ele>
        <time>2020-09-14T18:54:13Z</time>
      </trkpt>
      <trkpt lat="45.60468" lon="5.88659">
        <ele>249</ele>
        <time>2020-09-14T18:54:22Z</time>
      </trkpt>
      <trkpt lat="45.60427" lon="5.88701">
        <ele>250</ele>
        <time>2020-09-14T18:54:31Z</time>
      </trkpt>
      <trkpt lat="45.60259" lon="5.88891">
        <ele>250</ele>
        <time>2020-09-14T18:55:09Z</time>
      </trkpt>
      <trkpt lat="45.6024" lon="5.88908">
        <ele>250</ele>
        <time>2020-09-14T18:55:13Z</time>
      </trkpt>
      <trkpt lat="45.60236" lon="5.88905">
        <ele>250</ele>
        <time>2020-09-14T18:55:14Z</time>
      </trkpt>
      <trkpt lat="45.60221" lon="5.88881">
        <ele>251</ele>
        <time>2020-09-14T18:55:18Z</time>
      </trkpt>
      <trkpt lat="45.60219" lon="5.88878">
        <ele>251</ele>
        <time>2020-09-14T18:55:18Z</time>
      </trkpt>
      <trkpt lat="45.60216" lon="5.88881">
        <ele>251</ele>
        <time>2020-09-14T18:55:19Z</time>
      </trkpt>
      <trkpt lat="45.60171" lon="5.88937">
        <ele>253</ele>
        <time>2020-09-14T18:55:30Z</time>
      </trkpt>
      <trkpt lat="45.60138" lon="5.88974">
        <ele>253</ele>
        <time>2020-09-14T18:55:37Z</time>
      </trkpt>
      <trkpt lat="45.60101" lon="5.89026">
        <ele>253</ele>
        <time>2020-09-14T18:55:46Z</time>
      </trkpt>
      <trkpt lat="45.60056" lon="5.89065">
        <ele>253</ele>
        <time>2020-09-14T18:55:56Z</time>
      </trkpt>
      <trkpt lat="45.60011" lon="5.89088">
        <ele>253</ele>
        <time>2020-09-14T18:56:04Z</time>
      </trkpt>
      <trkpt lat="45.59963" lon="5.89109">
        <ele>255</ele>
        <time>2020-09-14T18:56:13Z</time>
      </trkpt>
      <trkpt lat="45.59917" lon="5.89127">
        <ele>256</ele>
        <time>2020-09-14T18:56:22Z</time>
      </trkpt>
      <trkpt lat="45.59864" lon="5.89142">
        <ele>254</ele>
        <time>2020-09-14T18:56:31Z</time>
      </trkpt>
      <trkpt lat="45.59784" lon="5.89182">
        <ele>253</ele>
        <time>2020-09-14T18:56:46Z</time>
      </trkpt>
      <trkpt lat="45.597" lon="5.89228">
        <ele>253</ele>
        <time>2020-09-14T18:57:02Z</time>
      </trkpt>
      <trkpt lat="45.59635" lon="5.89249">
        <ele>253</ele>
        <time>2020-09-14T18:57:14Z</time>
      </trkpt>
      <trkpt lat="45.59615" lon="5.8925">
        <ele>253</ele>
        <time>2020-09-14T18:57:18Z</time>
      </trkpt>
      <trkpt lat="45.59582" lon="5.89255">
        <ele>253</ele>
        <time>2020-09-14T18:57:24Z</time>
      </trkpt>
      <trkpt lat="45.59517" lon="5.89272">
        <ele>253</ele>
        <time>2020-09-14T18:57:35Z</time>
      </trkpt>
      <trkpt lat="45.59493" lon="5.89281">
        <ele>253</ele>
        <time>2020-09-14T18:57:40Z</time>
      </trkpt>
      <trkpt lat="45.59463" lon="5.89296">
        <ele>253</ele>
        <time>2020-09-14T18:57:45Z</time>
      </trkpt>
      <trkpt lat="45.59456" lon="5.89299">
        <ele>253</ele>
        <time>2020-09-14T18:57:47Z</time>
      </trkpt>
      <trkpt lat="45.59421" lon="5.89338">
        <ele>255</ele>
        <time>2020-09-14T18:57:55Z</time>
      </trkpt>
      <trkpt lat="45.59351" lon="5.89423">
        <ele>255</ele>
        <time>2020-09-14T18:58:11Z</time>
      </trkpt>
      <trkpt lat="45.59343" lon="5.89434">
        <ele>255</ele>
        <time>2020-09-14T18:58:13Z</time>
      </trkpt>
      <trkpt lat="45.59287" lon="5.89513">
        <ele>255</ele>
        <time>2020-09-14T18:58:27Z</time>
      </trkpt>
      <trkpt lat="45.5922" lon="5.89605">
        <ele>256</ele>
        <time>2020-09-14T18:58:43Z</time>
      </trkpt>
      <trkpt lat="45.59147" lon="5.89712">
        <ele>255</ele>
        <time>2020-09-14T18:59:02Z</time>
      </trkpt>
      <trkpt lat="45.59119" lon="5.89737">
        <ele>255</ele>
        <time>2020-09-14T18:59:08Z</time>
      </trkpt>
      <trkpt lat="45.59072" lon="5.89794">
        <ele>255</ele>
        <time>2020-09-14T18:59:19Z</time>
      </trkpt>
      <trkpt lat="45.59031" lon="5.89852">
        <ele>255</ele>
        <time>2020-09-14T18:59:29Z</time>
      </trkpt>
      <trkpt lat="45.58953" lon="5.89956">
        <ele>257</ele>
        <time>2020-09-14T18:59:48Z</time>
      </trkpt>
      <trkpt lat="45.58912" lon="5.90018">
        <ele>257</ele>
        <time>2020-09-14T18:59:59Z</time>
      </trkpt>
      <trkpt lat="45.58911" lon="5.90021">
        <ele>257</ele>
        <time>2020-09-14T18:59:59Z</time>
      </trkpt>
      <trkpt lat="45.58905" lon="5.90035">
        <ele>257</ele>
        <time>2020-09-14T19:00:01Z</time>
      </trkpt>
      <trkpt lat="45.58899" lon="5.90051">
        <ele>257</ele>
        <time>2020-09-14T19:00:03Z</time>
      </trkpt>
      <trkpt lat="45.58893" lon="5.9006">
        <ele>257</ele>
        <time>2020-09-14T19:00:05Z</time>
      </trkpt>
      <trkpt lat="45.58882" lon="5.90073">
        <ele>257</ele>
        <time>2020-09-14T19:00:08Z</time>
      </trkpt>
      <trkpt lat="45.58847" lon="5.90104">
        <ele>259</ele>
        <time>2020-09-14T19:00:15Z</time>
      </trkpt>
      <trkpt lat="45.58825" lon="5.90114">
        <ele>259</ele>
        <time>2020-09-14T19:00:19Z</time>
      </trkpt>
      <trkpt lat="45.58683" lon="5.90307">
        <ele>263</ele>
        <time>2020-09-14T19:00:54Z</time>
      </trkpt>
      <trkpt lat="45.58659" lon="5.90342">
        <ele>262</ele>
        <time>2020-09-14T19:01:00Z</time>
      </trkpt>
      <trkpt lat="45.58613" lon="5.90423">
        <ele>260</ele>
        <time>2020-09-14T19:01:13Z</time>
      </trkpt>
      <trkpt lat="45.58513" lon="5.90517">
        <ele>259</ele>
        <time>2020-09-14T19:01:34Z</time>
      </trkpt>
      <trkpt lat="45.58489" lon="5.90549">
        <ele>260</ele>
        <time>2020-09-14T19:01:40Z</time>
      </trkpt>
      <trkpt lat="45.58434" lon="5.90636">
        <ele>261</ele>
        <time>2020-09-14T19:01:55Z</time>
      </trkpt>
      <trkpt lat="45.58418" lon="5.90648">
        <ele>261</ele>
        <time>2020-09-14T19:01:58Z</time>
      </trkpt>
      <trkpt lat="45.58385" lon="5.90651">
        <ele>261</ele>
        <time>2020-09-14T19:02:04Z</time>
      </trkpt>
      <trkpt lat="45.58338" lon="5.90667">
        <ele>262</ele>
        <time>2020-09-14T19:02:12Z</time>
      </trkpt>
      <trkpt lat="45.58266" lon="5.90684">
        <ele>262</ele>
        <time>2020-09-14T19:02:25Z</time>
      </trkpt>
      <trkpt lat="45.58252" lon="5.90689">
        <ele>262</ele>
        <time>2020-09-14T19:02:28Z</time>
      </trkpt>
      <trkpt lat="45.58232" lon="5.90698">
        <ele>262</ele>
        <time>2020-09-14T19:02:32Z</time>
      </trkpt>
      <trkpt lat="45.58219" lon="5.90703">
        <ele>262</ele>
        <time>2020-09-14T19:02:34Z</time>
      </trkpt>
      <trkpt lat="45.582" lon="5.90725">
        <ele>262</ele>
        <time>2020-09-14T19:02:38Z</time>
      </trkpt>
      <trkpt lat="45.58065" lon="5.90778">
        <ele>263</ele>
        <time>2020-09-14T19:03:03Z</time>
      </trkpt>
      <trkpt lat="45.58066" lon="5.90784">
        <ele>263</ele>
        <time>2020-09-14T19:03:04Z</time>
      </trkpt>
      <trkpt lat="45.58069" lon="5.9082">
        <ele>263</ele>
        <time>2020-09-14T19:03:09Z</time>
      </trkpt>
      <trkpt lat="45.58073" lon="5.90885">
        <ele>264</ele>
        <time>2020-09-14T19:03:17Z</time>
      </trkpt>
      <trkpt lat="45.5808" lon="5.90895">
        <ele>264</ele>
        <time>2020-09-14T19:03:19Z</time>
      </trkpt>
      <trkpt lat="45.58062" lon="5.90891">
        <ele>264</ele>
        <time>2020-09-14T19:03:22Z</time>
      </trkpt>
      <trkpt lat="45.58055" lon="5.90896">
        <ele>264</ele>
        <time>2020-09-14T19:03:23Z</time>
      </trkpt>
      <trkpt lat="45.58053" lon="5.90901">
        <ele>264</ele>
        <time>2020-09-14T19:03:24Z</time>
      </trkpt>
      <trkpt lat="45.58038" lon="5.90905">
        <ele>264</ele>
        <time>2020-09-14T19:03:27Z</time>
      </trkpt>
      <trkpt lat="45.58024" lon="5.90903">
        <ele>264</ele>
        <time>2020-09-14T19:03:29Z</time>
      </trkpt>
      <trkpt lat="45.58011" lon="5.90899">
        <ele>264</ele>
        <time>2020-09-14T19:03:31Z</time>
      </trkpt>
      <trkpt lat="45.57936" lon="5.90909">
        <ele>265</ele>
        <time>2020-09-14T19:03:45Z</time>
      </trkpt>
      <trkpt lat="45.57918" lon="5.90908">
        <ele>265</ele>
        <time>2020-09-14T19:03:48Z</time>
      </trkpt>
      <trkpt lat="45.57885" lon="5.90905">
        <ele>265</ele>
        <time>2020-09-14T19:03:54Z</time>
      </trkpt>
      <trkpt lat="45.57872" lon="5.909">
        <ele>266</ele>
        <time>2020-09-14T19:03:56Z</time>
      </trkpt>
      <trkpt lat="45.57862" lon="5.90886">
        <ele>266</ele>
        <time>2020-09-14T19:03:59Z</time>
      </trkpt>
      <trkpt lat="45.57855" lon="5.90882">
        <ele>266</ele>
        <time>2020-09-14T19:04:00Z</time>
      </trkpt>
      <trkpt lat="45.5785" lon="5.90883">
        <ele>266</ele>
        <time>2020-09-14T19:04:01Z</time>
      </trkpt>
      <trkpt lat="45.57845" lon="5.90885">
        <ele>266</ele>
        <time>2020-09-14T19:04:02Z</time>
      </trkpt>
      <trkpt lat="45.57839" lon="5.90895">
        <ele>266</ele>
        <time>2020-09-14T19:04:04Z</time>
      </trkpt>
      <trkpt lat="45.57837" lon="5.90906">
        <ele>266</ele>
        <time>2020-09-14T19:04:05Z</time>
      </trkpt>
      <trkpt lat="45.57841" lon="5.90919">
        <ele>266</ele>
        <time>2020-09-14T19:04:07Z</time>
      </trkpt>
      <trkpt lat="45.57837" lon="5.90935">
        <ele>266</ele>
        <time>2020-09-14T19:04:09Z</time>
      </trkpt>
      <trkpt lat="45.57756" lon="5.91044">
        <ele>266</ele>
        <time>2020-09-14T19:04:29Z</time>
      </trkpt>
      <trkpt lat="45.57747" lon="5.91051">
        <ele>266</ele>
        <time>2020-09-14T19:04:31Z</time>
      </trkpt>
      <trkpt lat="45.5775" lon="5.91071">
        <ele>266</ele>
        <time>2020-09-14T19:04:33Z</time>
      </trkpt>
      <trkpt lat="45.57743" lon="5.91087">
        <ele>266</ele>
        <time>2020-09-14T19:04:35Z</time>
      </trkpt>
      <trkpt lat="45.57688" lon="5.91096">
        <ele>265</ele>
        <time>2020-09-14T19:04:45Z</time>
      </trkpt>
      <trkpt lat="45.5767" lon="5.911">
        <ele>265</ele>
        <time>2020-09-14T19:04:49Z</time>
      </trkpt>
      <trkpt lat="45.57593" lon="5.91119">
        <ele>266</ele>
        <time>2020-09-14T19:05:02Z</time>
      </trkpt>
      <trkpt lat="45.57576" lon="5.91128">
        <ele>267</ele>
        <time>2020-09-14T19:05:06Z</time>
      </trkpt>
      <trkpt lat="45.57567" lon="5.91136">
        <ele>266</ele>
        <time>2020-09-14T19:05:08Z</time>
      </trkpt>
      <trkpt lat="45.57554" lon="5.91153">
        <ele>266</ele>
        <time>2020-09-14T19:05:11Z</time>
      </trkpt>
      <trkpt lat="45.57542" lon="5.91172">
        <ele>267</ele>
        <time>2020-09-14T19:05:14Z</time>
      </trkpt>
      <trkpt lat="45.57519" lon="5.9121">
        <ele>267</ele>
        <time>2020-09-14T19:05:20Z</time>
      </trkpt>
      <trkpt lat="45.57506" lon="5.91225">
        <ele>267</ele>
        <time>2020-09-14T19:05:23Z</time>
      </trkpt>
      <trkpt lat="45.57505" lon="5.91223">
        <ele>267</ele>
        <time>2020-09-14T19:05:23Z</time>
      </trkpt>
      <trkpt lat="45.57501" lon="5.91222">
        <ele>267</ele>
        <time>2020-09-14T19:05:24Z</time>
      </trkpt>
      <trkpt lat="45.575" lon="5.91223">
        <ele>267</ele>
        <time>2020-09-14T19:05:24Z</time>
      </trkpt>
      <trkpt lat="45.57499" lon="5.91225">
        <ele>267</ele>
        <time>2020-09-14T19:05:25Z</time>
      </trkpt>
      <trkpt lat="45.57498" lon="5.91229">
        <ele>267</ele>
        <time>2020-09-14T19:05:25Z</time>
      </trkpt>
      <trkpt lat="45.57499" lon="5.91233">
        <ele>267</ele>
        <time>2020-09-14T19:05:26Z</time>
      </trkpt>
      <trkpt lat="45.575" lon="5.91235">
        <ele>267</ele>
        <time>2020-09-14T19:05:26Z</time>
      </trkpt>
      <trkpt lat="45.57495" lon="5.91247">
        <ele>267</ele>
        <time>2020-09-14T19:05:28Z</time>
      </trkpt>
      <trkpt lat="45.57487" lon="5.91259">
        <ele>267</ele>
        <time>2020-09-14T19:05:30Z</time>
      </trkpt>
      <trkpt lat="45.57365" lon="5.91362">
        <ele>268</ele>
        <time>2020-09-14T19:05:55Z</time>
      </trkpt>
      <trkpt lat="45.57324" lon="5.91404">
        <ele>270</ele>
        <time>2020-09-14T19:06:04Z</time>
      </trkpt>
      <trkpt lat="45.57268" lon="5.91455">
        <ele>271</ele>
        <time>2020-09-14T19:06:16Z</time>
      </trkpt>
      <trkpt lat="45.5708" lon="5.91625">
        <ele>275</ele>
        <time>2020-09-14T19:06:55Z</time>
      </trkpt>
      <trkpt lat="45.57028" lon="5.91669">
        <ele>274</ele>
        <time>2020-09-14T19:07:06Z</time>
      </trkpt>
      <trkpt lat="45.57049" lon="5.91748">
        <ele>275</ele>
        <time>2020-09-14T19:07:17Z</time>
      </trkpt>
      <trkpt lat="45.57044" lon="5.91753">
        <ele>275</ele>
        <time>2020-09-14T19:07:18Z</time>
      </trkpt>
      <trkpt lat="45.57005" lon="5.91784">
        <ele>275</ele>
        <time>2020-09-14T19:07:26Z</time>
      </trkpt>
      <trkpt lat="45.56996" lon="5.91794">
        <ele>276</ele>
        <time>2020-09-14T19:07:28Z</time>
      </trkpt>
      <trkpt lat="45.56949" lon="5.91834">
        <ele>277</ele>
        <time>2020-09-14T19:07:37Z</time>
      </trkpt>
      <trkpt lat="45.56929" lon="5.91855">
        <ele>277</ele>
        <time>2020-09-14T19:07:42Z</time>
      </trkpt>
      <trkpt lat="45.56899" lon="5.91892">
        <ele>277</ele>
        <time>2020-09-14T19:07:49Z</time>
      </trkpt>
      <trkpt lat="45.56885" lon="5.91913">
        <ele>277</ele>
        <time>2020-09-14T19:07:53Z</time>
      </trkpt>
      <trkpt lat="45.56877" lon="5.91916">
        <ele>277</ele>
        <time>2020-09-14T19:07:54Z</time>
      </trkpt>
      <trkpt lat="45.56851" lon="5.91976">
        <ele>277</ele>
        <time>2020-09-14T19:08:03Z</time>
      </trkpt>
      <trkpt lat="45.56817" lon="5.92067">
        <ele>280</ele>
        <time>2020-09-14T19:08:16Z</time>
      </trkpt>
      <trkpt lat="45.56819" lon="5.9208">
        <ele>280</ele>
        <time>2020-09-14T19:08:17Z</time>
      </trkpt>
      <trkpt lat="45.56819" lon="5.92116">
        <ele>280</ele>
        <time>2020-09-14T19:08:22Z</time>
      </trkpt>
      <trkpt lat="45.5683" lon="5.92131">
        <ele>280</ele>
        <time>2020-09-14T19:08:25Z</time>
      </trkpt>
      <trkpt lat="45.56803" lon="5.92203">
        <ele>282</ele>
        <time>2020-09-14T19:08:35Z</time>
      </trkpt>
      <trkpt lat="45.56751" lon="5.92323">
        <ele>281</ele>
        <time>2020-09-14T19:08:52Z</time>
      </trkpt>
      <trkpt lat="45.5674" lon="5.92353">
        <ele>281</ele>
        <time>2020-09-14T19:08:56Z</time>
      </trkpt>
      <trkpt lat="45.56737" lon="5.92364">
        <ele>281</ele>
        <time>2020-09-14T19:08:58Z</time>
      </trkpt>
      <trkpt lat="45.56735" lon="5.92375">
        <ele>281</ele>
        <time>2020-09-14T19:08:59Z</time>
      </trkpt>
      <trkpt lat="45.56731" lon="5.92401">
        <ele>281</ele>
        <time>2020-09-14T19:09:03Z</time>
      </trkpt>
      <trkpt lat="45.56731" lon="5.92408">
        <ele>281</ele>
        <time>2020-09-14T19:09:04Z</time>
      </trkpt>
      <trkpt lat="45.5673" lon="5.92415">
        <ele>281</ele>
        <time>2020-09-14T19:09:04Z</time>
      </trkpt>
      <trkpt lat="45.56727" lon="5.92422">
        <ele>281</ele>
        <time>2020-09-14T19:09:05Z</time>
      </trkpt>
      <trkpt lat="45.56737" lon="5.9262">
        <ele>277</ele>
        <time>2020-09-14T19:09:30Z</time>
      </trkpt>
      <trkpt lat="45.56735" lon="5.92678">
        <ele>278</ele>
        <time>2020-09-14T19:09:37Z</time>
      </trkpt>
      <trkpt lat="45.56715" lon="5.92863">
        <ele>280</ele>
        <time>2020-09-14T19:10:01Z</time>
      </trkpt>
      <trkpt lat="45.56707" lon="5.92911">
        <ele>280</ele>
        <time>2020-09-14T19:10:07Z</time>
      </trkpt>
      <trkpt lat="45.56705" lon="5.92969">
        <ele>279</ele>
        <time>2020-09-14T19:10:14Z</time>
      </trkpt>
      <trkpt lat="45.56697" lon="5.92968">
        <ele>279</ele>
        <time>2020-09-14T19:10:16Z</time>
      </trkpt>
      <trkpt lat="45.56662" lon="5.92965">
        <ele>280</ele>
        <time>2020-09-14T19:10:22Z</time>
      </trkpt>
      <trkpt lat="45.5666" lon="5.92965">
        <ele>280</ele>
        <time>2020-09-14T19:10:22Z</time>
      </trkpt>
      <trkpt lat="45.56634" lon="5.92962">
        <ele>279</ele>
        <time>2020-09-14T19:10:27Z</time>
      </trkpt>
      <trkpt lat="45.56631" lon="5.93038">
        <ele>280</ele>
        <time>2020-09-14T19:10:36Z</time>
      </trkpt>
      <trkpt lat="45.5663" lon="5.93079">
        <ele>280</ele>
        <time>2020-09-14T19:10:41Z</time>
      </trkpt>
      <trkpt lat="45.56629" lon="5.93099">
        <ele>280</ele>
        <time>2020-09-14T19:10:44Z</time>
      </trkpt>
      <trkpt lat="45.56629" lon="5.93122">
        <ele>280</ele>
        <time>2020-09-14T19:10:47Z</time>
      </trkpt>
      <trkpt lat="45.56627" lon="5.93143">
        <ele>279</ele>
        <time>2020-09-14T19:10:49Z</time>
      </trkpt>
      <trkpt lat="45.56625" lon="5.93188">
        <ele>279</ele>
        <time>2020-09-14T19:10:55Z</time>
      </trkpt>
      <trkpt lat="45.56624" lon="5.9323">
        <ele>278</ele>
        <time>2020-09-14T19:11:00Z</time>
      </trkpt>
      <trkpt lat="45.56623" lon="5.93234">
        <ele>278</ele>
        <time>2020-09-14T19:11:01Z</time>
      </trkpt>
      <trkpt lat="45.56622" lon="5.93253">
        <ele>278</ele>
        <time>2020-09-14T19:11:03Z</time>
      </trkpt>
      <trkpt lat="45.56621" lon="5.93274">
        <ele>279</ele>
        <time>2020-09-14T19:11:06Z</time>
      </trkpt>
      <trkpt lat="45.56619" lon="5.93309">
        <ele>280</ele>
        <time>2020-09-14T19:11:10Z</time>
      </trkpt>
      <trkpt lat="45.56618" lon="5.93336">
        <ele>280</ele>
        <time>2020-09-14T19:11:14Z</time>
      </trkpt>
      <trkpt lat="45.56618" lon="5.93361">
        <ele>280</ele>
        <time>2020-09-14T19:11:17Z</time>
      </trkpt>
      <trkpt lat="45.56619" lon="5.93399">
        <ele>280</ele>
        <time>2020-09-14T19:11:21Z</time>
      </trkpt>
      <trkpt lat="45.56614" lon="5.93401">
        <ele>280</ele>
        <time>2020-09-14T19:11:22Z</time>
      </trkpt>
      <trkpt lat="45.56609" lon="5.93407">
        <ele>280</ele>
        <time>2020-09-14T19:11:23Z</time>
      </trkpt>
      <trkpt lat="45.56607" lon="5.93413">
        <ele>280</ele>
        <time>2020-09-14T19:11:24Z</time>
      </trkpt>
      <trkpt lat="45.56607" lon="5.93422">
        <ele>280</ele>
        <time>2020-09-14T19:11:25Z</time>
      </trkpt>
      <trkpt lat="45.56612" lon="5.93432">
        <ele>280</ele>
        <time>2020-09-14T19:11:27Z</time>
      </trkpt>
      <trkpt lat="45.5662" lon="5.93435">
        <ele>280</ele>
        <time>2020-09-14T19:11:28Z</time>
      </trkpt>
      <trkpt lat="45.56622" lon="5.93455">
        <ele>280</ele>
        <time>2020-09-14T19:11:31Z</time>
      </trkpt>
      <trkpt lat="45.56632" lon="5.9361">
        <ele>280</ele>
        <time>2020-09-14T19:11:50Z</time>
      </trkpt>
      <trkpt lat="45.56635" lon="5.93684">
        <ele>281</ele>
        <time>2020-09-14T19:12:00Z</time>
      </trkpt>
      <trkpt lat="45.56635" lon="5.9377">
        <ele>282</ele>
        <time>2020-09-14T19:12:10Z</time>
      </trkpt>
      <trkpt lat="45.56633" lon="5.93806">
        <ele>282</ele>
        <time>2020-09-14T19:12:15Z</time>
      </trkpt>
      <trkpt lat="45.56631" lon="5.93825">
        <ele>283</ele>
        <time>2020-09-14T19:12:17Z</time>
      </trkpt>
      <trkpt lat="45.56604" lon="5.93927">
        <ele>287</ele>
        <time>2020-09-14T19:12:31Z</time>
      </trkpt>
      <trkpt lat="45.56536" lon="5.94171">
        <ele>281</ele>
        <time>2020-09-14T19:13:03Z</time>
      </trkpt>
      <trkpt lat="45.56525" lon="5.94195">
        <ele>281</ele>
        <time>2020-09-14T19:13:07Z</time>
      </trkpt>
      <trkpt lat="45.5652" lon="5.94199">
        <ele>281</ele>
        <time>2020-09-14T19:13:08Z</time>
      </trkpt>
      <trkpt lat="45.56505" lon="5.94223">
        <ele>282</ele>
        <time>2020-09-14T19:13:12Z</time>
      </trkpt>
      <trkpt lat="45.5648" lon="5.94265">
        <ele>281</ele>
        <time>2020-09-14T19:13:19Z</time>
      </trkpt>
      <trkpt lat="45.56434" lon="5.94371">
        <ele>282</ele>
        <time>2020-09-14T19:13:34Z</time>
      </trkpt>
      <trkpt lat="45.56427" lon="5.94385">
        <ele>282</ele>
        <time>2020-09-14T19:13:37Z</time>
      </trkpt>
      <trkpt lat="45.56423" lon="5.94385">
        <ele>281</ele>
        <time>2020-09-14T19:13:37Z</time>
      </trkpt>
      <trkpt lat="45.56419" lon="5.94389">
        <ele>281</ele>
        <time>2020-09-14T19:13:38Z</time>
      </trkpt>
      <trkpt lat="45.56418" lon="5.94396">
        <ele>281</ele>
        <time>2020-09-14T19:13:39Z</time>
      </trkpt>
      <trkpt lat="45.5642" lon="5.94405">
        <ele>281</ele>
        <time>2020-09-14T19:13:40Z</time>
      </trkpt>
      <trkpt lat="45.56427" lon="5.94407">
        <ele>281</ele>
        <time>2020-09-14T19:13:42Z</time>
      </trkpt>
      <trkpt lat="45.56431" lon="5.94405">
        <ele>281</ele>
        <time>2020-09-14T19:13:42Z</time>
      </trkpt>
      <trkpt lat="45.56442" lon="5.94411">
        <ele>282</ele>
        <time>2020-09-14T19:13:44Z</time>
      </trkpt>
      <trkpt lat="45.5645" lon="5.9442">
        <ele>282</ele>
        <time>2020-09-14T19:13:46Z</time>
      </trkpt>
      <trkpt lat="45.56458" lon="5.94433">
        <ele>282</ele>
        <time>2020-09-14T19:13:48Z</time>
      </trkpt>
      <trkpt lat="45.56463" lon="5.9445">
        <ele>283</ele>
        <time>2020-09-14T19:13:51Z</time>
      </trkpt>
      <trkpt lat="45.56466" lon="5.94467">
        <ele>283</ele>
        <time>2020-09-14T19:13:53Z</time>
      </trkpt>
      <trkpt lat="45.56465" lon="5.94516">
        <ele>283</ele>
        <time>2020-09-14T19:13:59Z</time>
      </trkpt>
      <trkpt lat="45.56456" lon="5.94676">
        <ele>284</ele>
        <time>2020-09-14T19:14:19Z</time>
      </trkpt>
      <trkpt lat="45.56451" lon="5.94677">
        <ele>284</ele>
        <time>2020-09-14T19:14:20Z</time>
      </trkpt>
      <trkpt lat="45.56448" lon="5.94683">
        <ele>284</ele>
        <time>2020-09-14T19:14:21Z</time>
      </trkpt>
      <trkpt lat="45.56448" lon="5.9469">
        <ele>284</ele>
        <time>2020-09-14T19:14:22Z</time>
      </trkpt>
      <trkpt lat="45.5645" lon="5.94693">
        <ele>284</ele>
        <time>2020-09-14T19:14:22Z</time>
      </trkpt>
      <trkpt lat="45.56438" lon="5.94706">
        <ele>284</ele>
        <time>2020-09-14T19:14:25Z</time>
      </trkpt>
      <trkpt lat="45.56339" lon="5.94779">
        <ele>284</ele>
        <time>2020-09-14T19:14:45Z</time>
      </trkpt>
      <trkpt lat="45.56271" lon="5.94816">
        <ele>284</ele>
        <time>2020-09-14T19:14:58Z</time>
      </trkpt>
      <trkpt lat="45.56256" lon="5.94822">
        <ele>285</ele>
        <time>2020-09-14T19:15:00Z</time>
      </trkpt>
      <trkpt lat="45.56249" lon="5.94824">
        <ele>285</ele>
        <time>2020-09-14T19:15:02Z</time>
      </trkpt>
      <trkpt lat="45.56234" lon="5.94822">
        <ele>284</ele>
        <time>2020-09-14T19:15:04Z</time>
      </trkpt>
      <trkpt lat="45.56219" lon="5.94816">
        <ele>284</ele>
        <time>2020-09-14T19:15:07Z</time>
      </trkpt>
      <trkpt lat="45.56213" lon="5.94817">
        <ele>284</ele>
        <time>2020-09-14T19:15:08Z</time>
      </trkpt>
      <trkpt lat="45.56192" lon="5.94834">
        <ele>284</ele>
        <time>2020-09-14T19:15:12Z</time>
      </trkpt>
      <trkpt lat="45.56175" lon="5.94837">
        <ele>284</ele>
        <time>2020-09-14T19:15:15Z</time>
      </trkpt>
      <trkpt lat="45.56061" lon="5.94838">
        <ele>284</ele>
        <time>2020-09-14T19:15:36Z</time>
      </trkpt>
      <trkpt lat="45.55973" lon="5.94831">
        <ele>284</ele>
        <time>2020-09-14T19:15:51Z</time>
      </trkpt>
      <trkpt lat="45.5596" lon="5.94835">
        <ele>285</ele>
        <time>2020-09-14T19:15:54Z</time>
      </trkpt>
      <trkpt lat="45.55946" lon="5.94858">
        <ele>286</ele>
        <time>2020-09-14T19:15:58Z</time>
      </trkpt>
      <trkpt lat="45.55947" lon="5.94866">
        <ele>286</ele>
        <time>2020-09-14T19:15:59Z</time>
      </trkpt>
      <trkpt lat="45.55952" lon="5.94915">
        <ele>288</ele>
        <time>2020-09-14T19:16:05Z</time>
      </trkpt>
      <trkpt lat="45.55955" lon="5.94947">
        <ele>289</ele>
        <time>2020-09-14T19:16:09Z</time>
      </trkpt>
      <trkpt lat="45.55957" lon="5.94969">
        <ele>291</ele>
        <time>2020-09-14T19:16:12Z</time>
      </trkpt>
      <trkpt lat="45.55963" lon="5.95018">
        <ele>293</ele>
        <time>2020-09-14T19:16:18Z</time>
      </trkpt>
      <trkpt lat="45.55965" lon="5.95035">
        <ele>293</ele>
        <time>2020-09-14T19:16:20Z</time>
      </trkpt>
      <trkpt lat="45.55967" lon="5.95082">
        <ele>295</ele>
        <time>2020-09-14T19:16:26Z</time>
      </trkpt>
      <trkpt lat="45.55968" lon="5.95107">
        <ele>295</ele>
        <time>2020-09-14T19:16:29Z</time>
      </trkpt>
      <trkpt lat="45.55963" lon="5.95163">
        <ele>296</ele>
        <time>2020-09-14T19:16:36Z</time>
      </trkpt>
      <trkpt lat="45.55959" lon="5.95175">
        <ele>297</ele>
        <time>2020-09-14T19:16:38Z</time>
      </trkpt>
      <trkpt lat="45.55956" lon="5.95177">
        <ele>297</ele>
        <time>2020-09-14T19:16:38Z</time>
      </trkpt>
      <trkpt lat="45.55954" lon="5.95181">
        <ele>297</ele>
        <time>2020-09-14T19:16:39Z</time>
      </trkpt>
      <trkpt lat="45.55953" lon="5.95184">
        <ele>297</ele>
        <time>2020-09-14T19:16:39Z</time>
      </trkpt>
      <trkpt lat="45.55953" lon="5.95188">
        <ele>297</ele>
        <time>2020-09-14T19:16:40Z</time>
      </trkpt>
      <trkpt lat="45.55954" lon="5.95196">
        <ele>298</ele>
        <time>2020-09-14T19:16:41Z</time>
      </trkpt>
      <trkpt lat="45.55956" lon="5.95199">
        <ele>298</ele>
        <time>2020-09-14T19:16:41Z</time>
      </trkpt>
      <trkpt lat="45.55955" lon="5.95205">
        <ele>298</ele>
        <time>2020-09-14T19:16:42Z</time>
      </trkpt>
      <trkpt lat="45.55953" lon="5.95211">
        <ele>298</ele>
        <time>2020-09-14T19:16:43Z</time>
      </trkpt>
      <trkpt lat="45.55941" lon="5.95251">
        <ele>299</ele>
        <time>2020-09-14T19:16:48Z</time>
      </trkpt>
      <trkpt lat="45.55931" lon="5.95278">
        <ele>300</ele>
        <time>2020-09-14T19:16:52Z</time>
      </trkpt>
      <trkpt lat="45.55926" lon="5.95296">
        <ele>300</ele>
        <time>2020-09-14T19:16:54Z</time>
      </trkpt>
      <trkpt lat="45.55925" lon="5.95311">
        <ele>301</ele>
        <time>2020-09-14T19:16:56Z</time>
      </trkpt>
      <trkpt lat="45.55919" lon="5.95325">
        <ele>302</ele>
        <time>2020-09-14T19:16:58Z</time>
      </trkpt>
      <trkpt lat="45.55916" lon="5.95328">
        <ele>302</ele>
        <time>2020-09-14T19:16:59Z</time>
      </trkpt>
      <trkpt lat="45.55912" lon="5.95336">
        <ele>302</ele>
        <time>2020-09-14T19:17:00Z</time>
      </trkpt>
      <trkpt lat="45.55912" lon="5.95346">
        <ele>302</ele>
        <time>2020-09-14T19:17:02Z</time>
      </trkpt>
      <trkpt lat="45.55914" lon="5.95351">
        <ele>302</ele>
        <time>2020-09-14T19:17:02Z</time>
      </trkpt>
      <trkpt lat="45.55914" lon="5.95369">
        <ele>302</ele>
        <time>2020-09-14T19:17:04Z</time>
      </trkpt>
      <trkpt lat="45.55911" lon="5.95379">
        <ele>302</ele>
        <time>2020-09-14T19:17:06Z</time>
      </trkpt>
      <trkpt lat="45.55907" lon="5.95392">
        <ele>302</ele>
        <time>2020-09-14T19:17:08Z</time>
      </trkpt>
      <trkpt lat="45.55901" lon="5.9541">
        <ele>302</ele>
        <time>2020-09-14T19:17:10Z</time>
      </trkpt>
      <trkpt lat="45.55874" lon="5.95557">
        <ele>302</ele>
        <time>2020-09-14T19:17:29Z</time>
      </trkpt>
      <trkpt lat="45.55859" lon="5.95671">
        <ele>298</ele>
        <time>2020-09-14T19:17:43Z</time>
      </trkpt>
      <trkpt lat="45.55854" lon="5.95699">
        <ele>297</ele>
        <time>2020-09-14T19:17:47Z</time>
      </trkpt>
      <trkpt lat="45.55851" lon="5.95713">
        <ele>296</ele>
        <time>2020-09-14T19:17:49Z</time>
      </trkpt>
      <trkpt lat="45.55848" lon="5.95727">
        <ele>296</ele>
        <time>2020-09-14T19:17:51Z</time>
      </trkpt>
      <trkpt lat="45.55825" lon="5.95791">
        <ele>292</ele>
        <time>2020-09-14T19:18:00Z</time>
      </trkpt>
      <trkpt lat="45.55817" lon="5.95814">
        <ele>291</ele>
        <time>2020-09-14T19:18:03Z</time>
      </trkpt>
      <trkpt lat="45.55778" lon="5.95957">
        <ele>290</ele>
        <time>2020-09-14T19:18:22Z</time>
      </trkpt>
      <trkpt lat="45.55753" lon="5.96033">
        <ele>290</ele>
        <time>2020-09-14T19:18:32Z</time>
      </trkpt>
      <trkpt lat="45.55741" lon="5.96062">
        <ele>290</ele>
        <time>2020-09-14T19:18:37Z</time>
      </trkpt>
      <trkpt lat="45.55693" lon="5.96163">
        <ele>289</ele>
        <time>2020-09-14T19:18:52Z</time>
      </trkpt>
      <trkpt lat="45.55625" lon="5.96296">
        <ele>295</ele>
        <time>2020-09-14T19:19:12Z</time>
      </trkpt>
      <trkpt lat="45.55579" lon="5.96365">
        <ele>298</ele>
        <time>2020-09-14T19:19:24Z</time>
      </trkpt>
      <trkpt lat="45.55537" lon="5.96424">
        <ele>298</ele>
        <time>2020-09-14T19:19:35Z</time>
      </trkpt>
      <trkpt lat="45.55502" lon="5.96459">
        <ele>297</ele>
        <time>2020-09-14T19:19:42Z</time>
      </trkpt>
      <trkpt lat="45.55432" lon="5.96618">
        <ele>298</ele>
        <time>2020-09-14T19:20:06Z</time>
      </trkpt>
      <trkpt lat="45.55427" lon="5.96632">
        <ele>298</ele>
        <time>2020-09-14T19:20:08Z</time>
      </trkpt>
      <trkpt lat="45.5542" lon="5.96665">
        <ele>299</ele>
        <time>2020-09-14T19:20:12Z</time>
      </trkpt>
      <trkpt lat="45.5541" lon="5.96688">
        <ele>299</ele>
        <time>2020-09-14T19:20:15Z</time>
      </trkpt>
      <trkpt lat="45.55397" lon="5.96706">
        <ele>299</ele>
        <time>2020-09-14T19:20:19Z</time>
      </trkpt>
      <trkpt lat="45.55329" lon="5.96768">
        <ele>300</ele>
        <time>2020-09-14T19:20:33Z</time>
      </trkpt>
      <trkpt lat="45.55228" lon="5.96846">
        <ele>302</ele>
        <time>2020-09-14T19:20:53Z</time>
      </trkpt>
      <trkpt lat="45.55213" lon="5.96861">
        <ele>302</ele>
        <time>2020-09-14T19:20:57Z</time>
      </trkpt>
      <trkpt lat="45.55184" lon="5.96902">
        <ele>304</ele>
        <time>2020-09-14T19:21:04Z</time>
      </trkpt>
      <trkpt lat="45.55157" lon="5.96931">
        <ele>304</ele>
        <time>2020-09-14T19:21:10Z</time>
      </trkpt>
      <trkpt lat="45.55152" lon="5.96919">
        <ele>305</ele>
        <time>2020-09-14T19:21:12Z</time>
      </trkpt>
      <trkpt lat="45.55147" lon="5.96915">
        <ele>305</ele>
        <time>2020-09-14T19:21:13Z</time>
      </trkpt>
      <trkpt lat="45.5514" lon="5.96915">
        <ele>305</ele>
        <time>2020-09-14T19:21:14Z</time>
      </trkpt>
      <trkpt lat="45.55134" lon="5.9692">
        <ele>305</ele>
        <time>2020-09-14T19:21:15Z</time>
      </trkpt>
      <trkpt lat="45.55112" lon="5.96955">
        <ele>304</ele>
        <time>2020-09-14T19:21:21Z</time>
      </trkpt>
      <trkpt lat="45.55092" lon="5.96976">
        <ele>304</ele>
        <time>2020-09-14T19:21:25Z</time>
      </trkpt>
      <trkpt lat="45.54962" lon="5.97049">
        <ele>305</ele>
        <time>2020-09-14T19:21:50Z</time>
      </trkpt>
      <trkpt lat="45.5468" lon="5.97219">
        <ele>309</ele>
        <time>2020-09-14T19:22:45Z</time>
      </trkpt>
      <trkpt lat="45.54636" lon="5.97267">
        <ele>310</ele>
        <time>2020-09-14T19:22:55Z</time>
      </trkpt>
      <trkpt lat="45.54607" lon="5.97308">
        <ele>310</ele>
        <time>2020-09-14T19:23:02Z</time>
      </trkpt>
      <trkpt lat="45.54577" lon="5.97367">
        <ele>310</ele>
        <time>2020-09-14T19:23:11Z</time>
      </trkpt>
      <trkpt lat="45.54562" lon="5.9741">
        <ele>311</ele>
        <time>2020-09-14T19:23:17Z</time>
      </trkpt>
      <trkpt lat="45.54553" lon="5.97451">
        <ele>311</ele>
        <time>2020-09-14T19:23:22Z</time>
      </trkpt>
      <trkpt lat="45.54547" lon="5.97477">
        <ele>311</ele>
        <time>2020-09-14T19:23:26Z</time>
      </trkpt>
      <trkpt lat="45.54543" lon="5.97489">
        <ele>311</ele>
        <time>2020-09-14T19:23:27Z</time>
      </trkpt>
      <trkpt lat="45.54539" lon="5.9749">
        <ele>311</ele>
        <time>2020-09-14T19:23:28Z</time>
      </trkpt>
      <trkpt lat="45.54536" lon="5.97492">
        <ele>311</ele>
        <time>2020-09-14T19:23:29Z</time>
      </trkpt>
      <trkpt lat="45.54531" lon="5.975">
        <ele>312</ele>
        <time>2020-09-14T19:23:30Z</time>
      </trkpt>
      <trkpt lat="45.54531" lon="5.97505">
        <ele>311</ele>
        <time>2020-09-14T19:23:31Z</time>
      </trkpt>
      <trkpt lat="45.54531" lon="5.9751">
        <ele>311</ele>
        <time>2020-09-14T19:23:31Z</time>
      </trkpt>
      <trkpt lat="45.54532" lon="5.97515">
        <ele>311</ele>
        <time>2020-09-14T19:23:32Z</time>
      </trkpt>
      <trkpt lat="45.54525" lon="5.97549">
        <ele>310</ele>
        <time>2020-09-14T19:23:36Z</time>
      </trkpt>
      <trkpt lat="45.54516" lon="5.97579">
        <ele>310</ele>
        <time>2020-09-14T19:23:40Z</time>
      </trkpt>
      <trkpt lat="45.54495" lon="5.97645">
        <ele>307</ele>
        <time>2020-09-14T19:23:49Z</time>
      </trkpt>
      <trkpt lat="45.54471" lon="5.9771">
        <ele>307</ele>
        <time>2020-09-14T19:23:59Z</time>
      </trkpt>
      <trkpt lat="45.54439" lon="5.97793">
        <ele>309</ele>
        <time>2020-09-14T19:24:10Z</time>
      </trkpt>
      <trkpt lat="45.54434" lon="5.978">
        <ele>309</ele>
        <time>2020-09-14T19:24:12Z</time>
      </trkpt>
      <trkpt lat="45.54406" lon="5.97872">
        <ele>311</ele>
        <time>2020-09-14T19:24:22Z</time>
      </trkpt>
      <trkpt lat="45.54403" lon="5.97883">
        <ele>312</ele>
        <time>2020-09-14T19:24:23Z</time>
      </trkpt>
      <trkpt lat="45.544" lon="5.97886">
        <ele>312</ele>
        <time>2020-09-14T19:24:24Z</time>
      </trkpt>
      <trkpt lat="45.54391" lon="5.97906">
        <ele>313</ele>
        <time>2020-09-14T19:24:27Z</time>
      </trkpt>
      <trkpt lat="45.54379" lon="5.97946">
        <ele>314</ele>
        <time>2020-09-14T19:24:32Z</time>
      </trkpt>
      <trkpt lat="45.54376" lon="5.97963">
        <ele>314</ele>
        <time>2020-09-14T19:24:35Z</time>
      </trkpt>
      <trkpt lat="45.54372" lon="5.97986">
        <ele>315</ele>
        <time>2020-09-14T19:24:38Z</time>
      </trkpt>
      <trkpt lat="45.54369" lon="5.98009">
        <ele>316</ele>
        <time>2020-09-14T19:24:40Z</time>
      </trkpt>
      <trkpt lat="45.54367" lon="5.98054">
        <ele>318</ele>
        <time>2020-09-14T19:24:46Z</time>
      </trkpt>
      <trkpt lat="45.54369" lon="5.98077">
        <ele>319</ele>
        <time>2020-09-14T19:24:49Z</time>
      </trkpt>
      <trkpt lat="45.54369" lon="5.98078">
        <ele>319</ele>
        <time>2020-09-14T19:24:49Z</time>
      </trkpt>
      <trkpt lat="45.54378" lon="5.98141">
        <ele>323</ele>
        <time>2020-09-14T19:24:57Z</time>
      </trkpt>
      <trkpt lat="45.54377" lon="5.98148">
        <ele>323</ele>
        <time>2020-09-14T19:24:58Z</time>
      </trkpt>
      <trkpt lat="45.5438" lon="5.98168">
        <ele>324</ele>
        <time>2020-09-14T19:25:01Z</time>
      </trkpt>
      <trkpt lat="45.54383" lon="5.98184">
        <ele>324</ele>
        <time>2020-09-14T19:25:03Z</time>
      </trkpt>
      <trkpt lat="45.54392" lon="5.98238">
        <ele>325</ele>
        <time>2020-09-14T19:25:09Z</time>
      </trkpt>
      <trkpt lat="45.54397" lon="5.98239">
        <ele>324</ele>
        <time>2020-09-14T19:25:10Z</time>
      </trkpt>
      <trkpt lat="45.54397" lon="5.9828">
        <ele>324</ele>
        <time>2020-09-14T19:25:16Z</time>
      </trkpt>
      <trkpt lat="45.54395" lon="5.98305">
        <ele>324</ele>
        <time>2020-09-14T19:25:19Z</time>
      </trkpt>
      <trkpt lat="45.5439" lon="5.9833">
        <ele>324</ele>
        <time>2020-09-14T19:25:22Z</time>
      </trkpt>
      <trkpt lat="45.54385" lon="5.98349">
        <ele>323</ele>
        <time>2020-09-14T19:25:24Z</time>
      </trkpt>
      <trkpt lat="45.54372" lon="5.98385">
        <ele>322</ele>
        <time>2020-09-14T19:25:29Z</time>
      </trkpt>
      <trkpt lat="45.54278" lon="5.98518">
        <ele>318</ele>
        <time>2020-09-14T19:25:53Z</time>
      </trkpt>
      <trkpt lat="45.54237" lon="5.9858">
        <ele>316</ele>
        <time>2020-09-14T19:26:04Z</time>
      </trkpt>
      <trkpt lat="45.54197" lon="5.98636">
        <ele>316</ele>
        <time>2020-09-14T19:26:14Z</time>
      </trkpt>
      <trkpt lat="45.54195" lon="5.98638">
        <ele>316</ele>
        <time>2020-09-14T19:26:14Z</time>
      </trkpt>
      <trkpt lat="45.54094" lon="5.98784">
        <ele>317</ele>
        <time>2020-09-14T19:26:40Z</time>
      </trkpt>
      <trkpt lat="45.5404" lon="5.98864">
        <ele>320</ele>
        <time>2020-09-14T19:26:53Z</time>
      </trkpt>
      <trkpt lat="45.54027" lon="5.98881">
        <ele>320</ele>
        <time>2020-09-14T19:26:57Z</time>
      </trkpt>
      <trkpt lat="45.54024" lon="5.98886">
        <ele>320</ele>
        <time>2020-09-14T19:26:57Z</time>
      </trkpt>
      <trkpt lat="45.54005" lon="5.98908">
        <ele>321</ele>
        <time>2020-09-14T19:27:02Z</time>
      </trkpt>
      <trkpt lat="45.53998" lon="5.98919">
        <ele>321</ele>
        <time>2020-09-14T19:27:04Z</time>
      </trkpt>
      <trkpt lat="45.53983" lon="5.98941">
        <ele>322</ele>
        <time>2020-09-14T19:27:07Z</time>
      </trkpt>
      <trkpt lat="45.53971" lon="5.98966">
        <ele>323</ele>
        <time>2020-09-14T19:27:11Z</time>
      </trkpt>
      <trkpt lat="45.53966" lon="5.98967">
        <ele>323</ele>
        <time>2020-09-14T19:27:12Z</time>
      </trkpt>
      <trkpt lat="45.53962" lon="5.98971">
        <ele>323</ele>
        <time>2020-09-14T19:27:13Z</time>
      </trkpt>
      <trkpt lat="45.53956" lon="5.98982">
        <ele>323</ele>
        <time>2020-09-14T19:27:15Z</time>
      </trkpt>
      <trkpt lat="45.53955" lon="5.98989">
        <ele>323</ele>
        <time>2020-09-14T19:27:16Z</time>
      </trkpt>
      <trkpt lat="45.5395" lon="5.99001">
        <ele>323</ele>
        <time>2020-09-14T19:27:17Z</time>
      </trkpt>
      <trkpt lat="45.53942" lon="5.99009">
        <ele>323</ele>
        <time>2020-09-14T19:27:19Z</time>
      </trkpt>
      <trkpt lat="45.53876" lon="5.99049">
        <ele>325</ele>
        <time>2020-09-14T19:27:32Z</time>
      </trkpt>
      <trkpt lat="45.53865" lon="5.9906">
        <ele>326</ele>
        <time>2020-09-14T19:27:34Z</time>
      </trkpt>
      <trkpt lat="45.53798" lon="5.99095">
        <ele>327</ele>
        <time>2020-09-14T19:27:47Z</time>
      </trkpt>
      <trkpt lat="45.53662" lon="5.99167">
        <ele>328</ele>
        <time>2020-09-14T19:28:13Z</time>
      </trkpt>
      <trkpt lat="45.53654" lon="5.99171">
        <ele>328</ele>
        <time>2020-09-14T19:28:14Z</time>
      </trkpt>
      <trkpt lat="45.53644" lon="5.99176">
        <ele>328</ele>
        <time>2020-09-14T19:28:16Z</time>
      </trkpt>
      <trkpt lat="45.53626" lon="5.99186">
        <ele>329</ele>
        <time>2020-09-14T19:28:20Z</time>
      </trkpt>
      <trkpt lat="45.5355" lon="5.99227">
        <ele>330</ele>
        <time>2020-09-14T19:28:34Z</time>
      </trkpt>
      <trkpt lat="45.53517" lon="5.99237">
        <ele>331</ele>
        <time>2020-09-14T19:28:40Z</time>
      </trkpt>
      <trkpt lat="45.53491" lon="5.99239">
        <ele>332</ele>
        <time>2020-09-14T19:28:45Z</time>
      </trkpt>
      <trkpt lat="45.53466" lon="5.99235">
        <ele>333</ele>
        <time>2020-09-14T19:28:49Z</time>
      </trkpt>
      <trkpt lat="45.53394" lon="5.99213">
        <ele>334</ele>
        <time>2020-09-14T19:29:02Z</time>
      </trkpt>
      <trkpt lat="45.53369" lon="5.99206">
        <ele>332</ele>
        <time>2020-09-14T19:29:07Z</time>
      </trkpt>
      <trkpt lat="45.53353" lon="5.99204">
        <ele>330</ele>
        <time>2020-09-14T19:29:10Z</time>
      </trkpt>
      <trkpt lat="45.53343" lon="5.99204">
        <ele>329</ele>
        <time>2020-09-14T19:29:11Z</time>
      </trkpt>
      <trkpt lat="45.53337" lon="5.99204">
        <ele>328</ele>
        <time>2020-09-14T19:29:12Z</time>
      </trkpt>
      <trkpt lat="45.53327" lon="5.99204">
        <ele>327</ele>
        <time>2020-09-14T19:29:14Z</time>
      </trkpt>
      <trkpt lat="45.53302" lon="5.99208">
        <ele>325</ele>
        <time>2020-09-14T19:29:19Z</time>
      </trkpt>
      <trkpt lat="45.53292" lon="5.99214">
        <ele>325</ele>
        <time>2020-09-14T19:29:21Z</time>
      </trkpt>
      <trkpt lat="45.53285" lon="5.99216">
        <ele>324</ele>
        <time>2020-09-14T19:29:22Z</time>
      </trkpt>
      <trkpt lat="45.53272" lon="5.99218">
        <ele>323</ele>
        <time>2020-09-14T19:29:24Z</time>
      </trkpt>
      <trkpt lat="45.5324" lon="5.99219">
        <ele>321</ele>
        <time>2020-09-14T19:29:30Z</time>
      </trkpt>
      <trkpt lat="45.53113" lon="5.99236">
        <ele>318</ele>
        <time>2020-09-14T19:29:53Z</time>
      </trkpt>
      <trkpt lat="45.53071" lon="5.99242">
        <ele>317</ele>
        <time>2020-09-14T19:30:00Z</time>
      </trkpt>
      <trkpt lat="45.53064" lon="5.99244">
        <ele>317</ele>
        <time>2020-09-14T19:30:01Z</time>
      </trkpt>
      <trkpt lat="45.53063" lon="5.99244">
        <ele>317</ele>
        <time>2020-09-14T19:30:02Z</time>
      </trkpt>
      <trkpt lat="45.5305" lon="5.99246">
        <ele>317</ele>
        <time>2020-09-14T19:30:04Z</time>
      </trkpt>
      <trkpt lat="45.53027" lon="5.9925">
        <ele>317</ele>
        <time>2020-09-14T19:30:08Z</time>
      </trkpt>
      <trkpt lat="45.53001" lon="5.99256">
        <ele>318</ele>
        <time>2020-09-14T19:30:13Z</time>
      </trkpt>
      <trkpt lat="45.52904" lon="5.99263">
        <ele>316</ele>
        <time>2020-09-14T19:30:30Z</time>
      </trkpt>
      <trkpt lat="45.52743" lon="5.99275">
        <ele>313</ele>
        <time>2020-09-14T19:30:59Z</time>
      </trkpt>
      <trkpt lat="45.52716" lon="5.99281">
        <ele>314</ele>
        <time>2020-09-14T19:31:04Z</time>
      </trkpt>
      <trkpt lat="45.52678" lon="5.99289">
        <ele>314</ele>
        <time>2020-09-14T19:31:10Z</time>
      </trkpt>
      <trkpt lat="45.5259" lon="5.99325">
        <ele>313</ele>
        <time>2020-09-14T19:31:27Z</time>
      </trkpt>
      <trkpt lat="45.52508" lon="5.9937">
        <ele>309</ele>
        <time>2020-09-14T19:31:42Z</time>
      </trkpt>
      <trkpt lat="45.52281" lon="5.99513">
        <ele>304</ele>
        <time>2020-09-14T19:32:26Z</time>
      </trkpt>
      <trkpt lat="45.52216" lon="5.99568">
        <ele>304</ele>
        <time>2020-09-14T19:32:40Z</time>
      </trkpt>
      <trkpt lat="45.52161" lon="5.99629">
        <ele>302</ele>
        <time>2020-09-14T19:32:52Z</time>
      </trkpt>
      <trkpt lat="45.51982" lon="5.99889">
        <ele>296</ele>
        <time>2020-09-14T19:33:38Z</time>
      </trkpt>
      <trkpt lat="45.51858" lon="6.00066">
        <ele>298</ele>
        <time>2020-09-14T19:34:09Z</time>
      </trkpt>
      <trkpt lat="45.5184" lon="6.0009">
        <ele>298</ele>
        <time>2020-09-14T19:34:13Z</time>
      </trkpt>
      <trkpt lat="45.51818" lon="6.00123">
        <ele>298</ele>
        <time>2020-09-14T19:34:19Z</time>
      </trkpt>
      <trkpt lat="45.51788" lon="6.00164">
        <ele>297</ele>
        <time>2020-09-14T19:34:26Z</time>
      </trkpt>
      <trkpt lat="45.51772" lon="6.00188">
        <ele>297</ele>
        <time>2020-09-14T19:34:31Z</time>
      </trkpt>
      <trkpt lat="45.51661" lon="6.00346">
        <ele>298</ele>
        <time>2020-09-14T19:34:58Z</time>
      </trkpt>
      <trkpt lat="45.51607" lon="6.00422">
        <ele>297</ele>
        <time>2020-09-14T19:35:12Z</time>
      </trkpt>
      <trkpt lat="45.51594" lon="6.00447">
        <ele>298</ele>
        <time>2020-09-14T19:35:16Z</time>
      </trkpt>
      <trkpt lat="45.51583" lon="6.00476">
        <ele>298</ele>
        <time>2020-09-14T19:35:20Z</time>
      </trkpt>
      <trkpt lat="45.5157" lon="6.00523">
        <ele>298</ele>
        <time>2020-09-14T19:35:26Z</time>
      </trkpt>
      <trkpt lat="45.51555" lon="6.00564">
        <ele>299</ele>
        <time>2020-09-14T19:35:32Z</time>
      </trkpt>
      <trkpt lat="45.5155" lon="6.00575">
        <ele>299</ele>
        <time>2020-09-14T19:35:34Z</time>
      </trkpt>
      <trkpt lat="45.51543" lon="6.00585">
        <ele>299</ele>
        <time>2020-09-14T19:35:35Z</time>
      </trkpt>
      <trkpt lat="45.51526" lon="6.0061">
        <ele>299</ele>
        <time>2020-09-14T19:35:40Z</time>
      </trkpt>
      <trkpt lat="45.51517" lon="6.00619">
        <ele>299</ele>
        <time>2020-09-14T19:35:42Z</time>
      </trkpt>
      <trkpt lat="45.51479" lon="6.0066">
        <ele>300</ele>
        <time>2020-09-14T19:35:50Z</time>
      </trkpt>
      <trkpt lat="45.51464" lon="6.00676">
        <ele>300</ele>
        <time>2020-09-14T19:35:53Z</time>
      </trkpt>
      <trkpt lat="45.51443" lon="6.00707">
        <ele>299</ele>
        <time>2020-09-14T19:35:59Z</time>
      </trkpt>
      <trkpt lat="45.51429" lon="6.00727">
        <ele>299</ele>
        <time>2020-09-14T19:36:02Z</time>
      </trkpt>
      <trkpt lat="45.51386" lon="6.00797">
        <ele>299</ele>
        <time>2020-09-14T19:36:14Z</time>
      </trkpt>
      <trkpt lat="45.51375" lon="6.00811">
        <ele>298</ele>
        <time>2020-09-14T19:36:17Z</time>
      </trkpt>
      <trkpt lat="45.51359" lon="6.00823">
        <ele>298</ele>
        <time>2020-09-14T19:36:20Z</time>
      </trkpt>
      <trkpt lat="45.51346" lon="6.00831">
        <ele>297</ele>
        <time>2020-09-14T19:36:22Z</time>
      </trkpt>
      <trkpt lat="45.51333" lon="6.00839">
        <ele>297</ele>
        <time>2020-09-14T19:36:25Z</time>
      </trkpt>
      <trkpt lat="45.5132" lon="6.00826">
        <ele>297</ele>
        <time>2020-09-14T19:36:28Z</time>
      </trkpt>
      <trkpt lat="45.51301" lon="6.00822">
        <ele>296</ele>
        <time>2020-09-14T19:36:31Z</time>
      </trkpt>
      <trkpt lat="45.51286" lon="6.0083">
        <ele>295</ele>
        <time>2020-09-14T19:36:34Z</time>
      </trkpt>
      <trkpt lat="45.51276" lon="6.00841">
        <ele>295</ele>
        <time>2020-09-14T19:36:36Z</time>
      </trkpt>
      <trkpt lat="45.51268" lon="6.00862">
        <ele>295</ele>
        <time>2020-09-14T19:36:39Z</time>
      </trkpt>
      <trkpt lat="45.51267" lon="6.00888">
        <ele>295</ele>
        <time>2020-09-14T19:36:42Z</time>
      </trkpt>
      <trkpt lat="45.51272" lon="6.00908">
        <ele>295</ele>
        <time>2020-09-14T19:36:45Z</time>
      </trkpt>
      <trkpt lat="45.51281" lon="6.00921">
        <ele>295</ele>
        <time>2020-09-14T19:36:47Z</time>
      </trkpt>
      <trkpt lat="45.51283" lon="6.0094">
        <ele>296</ele>
        <time>2020-09-14T19:36:50Z</time>
      </trkpt>
      <trkpt lat="45.51281" lon="6.00958">
        <ele>295</ele>
        <time>2020-09-14T19:36:52Z</time>
      </trkpt>
      <trkpt lat="45.51249" lon="6.01037">
        <ele>294</ele>
        <time>2020-09-14T19:37:03Z</time>
      </trkpt>
      <trkpt lat="45.51194" lon="6.01175">
        <ele>292</ele>
        <time>2020-09-14T19:37:23Z</time>
      </trkpt>
      <trkpt lat="45.51146" lon="6.01276">
        <ele>293</ele>
        <time>2020-09-14T19:37:38Z</time>
      </trkpt>
      <trkpt lat="45.50916" lon="6.01713">
        <ele>289</ele>
        <time>2020-09-14T19:38:47Z</time>
      </trkpt>
      <trkpt lat="45.50854" lon="6.01847">
        <ele>287</ele>
        <time>2020-09-14T19:39:07Z</time>
      </trkpt>
      <trkpt lat="45.50836" lon="6.01891">
        <ele>288</ele>
        <time>2020-09-14T19:39:13Z</time>
      </trkpt>
      <trkpt lat="45.50817" lon="6.01949">
        <ele>289</ele>
        <time>2020-09-14T19:39:21Z</time>
      </trkpt>
      <trkpt lat="45.50807" lon="6.01986">
        <ele>288</ele>
        <time>2020-09-14T19:39:26Z</time>
      </trkpt>
      <trkpt lat="45.5073" lon="6.02365">
        <ele>286</ele>
        <time>2020-09-14T19:40:15Z</time>
      </trkpt>
      <trkpt lat="45.50673" lon="6.02639">
        <ele>289</ele>
        <time>2020-09-14T19:40:51Z</time>
      </trkpt>
      <trkpt lat="45.50512" lon="6.03433">
        <ele>283</ele>
        <time>2020-09-14T19:42:34Z</time>
      </trkpt>
      <trkpt lat="45.50457" lon="6.03701">
        <ele>284</ele>
        <time>2020-09-14T19:43:09Z</time>
      </trkpt>
      <trkpt lat="45.50434" lon="6.03811">
        <ele>284</ele>
        <time>2020-09-14T19:43:23Z</time>
      </trkpt>
      <trkpt lat="45.50431" lon="6.03828">
        <ele>284</ele>
        <time>2020-09-14T19:43:25Z</time>
      </trkpt>
      <trkpt lat="45.50424" lon="6.03845">
        <ele>283</ele>
        <time>2020-09-14T19:43:28Z</time>
      </trkpt>
      <trkpt lat="45.50414" lon="6.03865">
        <ele>282</ele>
        <time>2020-09-14T19:43:31Z</time>
      </trkpt>
      <trkpt lat="45.50404" lon="6.03872">
        <ele>283</ele>
        <time>2020-09-14T19:43:33Z</time>
      </trkpt>
      <trkpt lat="45.50399" lon="6.03874">
        <ele>283</ele>
        <time>2020-09-14T19:43:34Z</time>
      </trkpt>
      <trkpt lat="45.50395" lon="6.03874">
        <ele>283</ele>
        <time>2020-09-14T19:43:34Z</time>
      </trkpt>
      <trkpt lat="45.50392" lon="6.03874">
        <ele>283</ele>
        <time>2020-09-14T19:43:35Z</time>
      </trkpt>
      <trkpt lat="45.50387" lon="6.03876">
        <ele>283</ele>
        <time>2020-09-14T19:43:36Z</time>
      </trkpt>
      <trkpt lat="45.50382" lon="6.0388">
        <ele>283</ele>
        <time>2020-09-14T19:43:37Z</time>
      </trkpt>
      <trkpt lat="45.50379" lon="6.03886">
        <ele>283</ele>
        <time>2020-09-14T19:43:38Z</time>
      </trkpt>
      <trkpt lat="45.50377" lon="6.0389">
        <ele>283</ele>
        <time>2020-09-14T19:43:38Z</time>
      </trkpt>
      <trkpt lat="45.50376" lon="6.03895">
        <ele>283</ele>
        <time>2020-09-14T19:43:39Z</time>
      </trkpt>
      <trkpt lat="45.50375" lon="6.039">
        <ele>283</ele>
        <time>2020-09-14T19:43:40Z</time>
      </trkpt>
      <trkpt lat="45.50372" lon="6.03905">
        <ele>283</ele>
        <time>2020-09-14T19:43:40Z</time>
      </trkpt>
      <trkpt lat="45.50369" lon="6.03909">
        <ele>283</ele>
        <time>2020-09-14T19:43:41Z</time>
      </trkpt>
      <trkpt lat="45.5036" lon="6.03916">
        <ele>284</ele>
        <time>2020-09-14T19:43:43Z</time>
      </trkpt>
      <trkpt lat="45.50352" lon="6.0392">
        <ele>284</ele>
        <time>2020-09-14T19:43:44Z</time>
      </trkpt>
      <trkpt lat="45.50345" lon="6.0392">
        <ele>284</ele>
        <time>2020-09-14T19:43:46Z</time>
      </trkpt>
      <trkpt lat="45.50343" lon="6.03921">
        <ele>284</ele>
        <time>2020-09-14T19:43:46Z</time>
      </trkpt>
      <trkpt lat="45.5034" lon="6.03918">
        <ele>284</ele>
        <time>2020-09-14T19:43:47Z</time>
      </trkpt>
      <trkpt lat="45.50336" lon="6.03917">
        <ele>284</ele>
        <time>2020-09-14T19:43:47Z</time>
      </trkpt>
      <trkpt lat="45.50332" lon="6.03917">
        <ele>284</ele>
        <time>2020-09-14T19:43:48Z</time>
      </trkpt>
      <trkpt lat="45.50328" lon="6.0392">
        <ele>284</ele>
        <time>2020-09-14T19:43:49Z</time>
      </trkpt>
      <trkpt lat="45.50325" lon="6.03924">
        <ele>284</ele>
        <time>2020-09-14T19:43:50Z</time>
      </trkpt>
      <trkpt lat="45.50323" lon="6.0393">
        <ele>285</ele>
        <time>2020-09-14T19:43:51Z</time>
      </trkpt>
      <trkpt lat="45.50323" lon="6.03936">
        <ele>285</ele>
        <time>2020-09-14T19:43:51Z</time>
      </trkpt>
      <trkpt lat="45.50324" lon="6.03941">
        <ele>285</ele>
        <time>2020-09-14T19:43:52Z</time>
      </trkpt>
      <trkpt lat="45.5032" lon="6.03943">
        <ele>285</ele>
        <time>2020-09-14T19:43:53Z</time>
      </trkpt>
      <trkpt lat="45.50319" lon="6.03946">
        <ele>285</ele>
        <time>2020-09-14T19:43:53Z</time>
      </trkpt>
      <trkpt lat="45.50307" lon="6.03964">
        <ele>286</ele>
        <time>2020-09-14T19:43:56Z</time>
      </trkpt>
      <trkpt lat="45.50261" lon="6.04027">
        <ele>289</ele>
        <time>2020-09-14T19:44:08Z</time>
      </trkpt>
      <trkpt lat="45.5019" lon="6.0413">
        <ele>292</ele>
        <time>2020-09-14T19:44:26Z</time>
      </trkpt>
      <trkpt lat="45.50174" lon="6.04152">
        <ele>291</ele>
        <time>2020-09-14T19:44:29Z</time>
      </trkpt>
      <trkpt lat="45.50144" lon="6.04205">
        <ele>288</ele>
        <time>2020-09-14T19:44:38Z</time>
      </trkpt>
      <trkpt lat="45.50119" lon="6.04261">
        <ele>283</ele>
        <time>2020-09-14T19:44:46Z</time>
      </trkpt>
      <trkpt lat="45.50087" lon="6.04339">
        <ele>281</ele>
        <time>2020-09-14T19:44:58Z</time>
      </trkpt>
      <trkpt lat="45.50041" lon="6.0445">
        <ele>287</ele>
        <time>2020-09-14T19:45:14Z</time>
      </trkpt>
      <trkpt lat="45.50026" lon="6.04487">
        <ele>288</ele>
        <time>2020-09-14T19:45:19Z</time>
      </trkpt>
      <trkpt lat="45.50019" lon="6.04497">
        <ele>288</ele>
        <time>2020-09-14T19:45:21Z</time>
      </trkpt>
      <trkpt lat="45.50009" lon="6.04511">
        <ele>288</ele>
        <time>2020-09-14T19:45:23Z</time>
      </trkpt>
      <trkpt lat="45.50003" lon="6.04521">
        <ele>288</ele>
        <time>2020-09-14T19:45:25Z</time>
      </trkpt>
      <trkpt lat="45.49999" lon="6.04526">
        <ele>288</ele>
        <time>2020-09-14T19:45:26Z</time>
      </trkpt>
      <trkpt lat="45.49995" lon="6.04538">
        <ele>288</ele>
        <time>2020-09-14T19:45:27Z</time>
      </trkpt>
      <trkpt lat="45.49995" lon="6.04544">
        <ele>288</ele>
        <time>2020-09-14T19:45:28Z</time>
      </trkpt>
      <trkpt lat="45.49995" lon="6.04551">
        <ele>288</ele>
        <time>2020-09-14T19:45:29Z</time>
      </trkpt>
      <trkpt lat="45.49998" lon="6.04557">
        <ele>289</ele>
        <time>2020-09-14T19:45:30Z</time>
      </trkpt>
      <trkpt lat="45.5" lon="6.0456">
        <ele>289</ele>
        <time>2020-09-14T19:45:31Z</time>
      </trkpt>
      <trkpt lat="45.50007" lon="6.04574">
        <ele>289</ele>
        <time>2020-09-14T19:45:33Z</time>
      </trkpt>
      <trkpt lat="45.50009" lon="6.04583">
        <ele>289</ele>
        <time>2020-09-14T19:45:34Z</time>
      </trkpt>
      <trkpt lat="45.50011" lon="6.0459">
        <ele>289</ele>
        <time>2020-09-14T19:45:35Z</time>
      </trkpt>
      <trkpt lat="45.50015" lon="6.04614">
        <ele>289</ele>
        <time>2020-09-14T19:45:38Z</time>
      </trkpt>
      <trkpt lat="45.50031" lon="6.04758">
        <ele>291</ele>
        <time>2020-09-14T19:45:56Z</time>
      </trkpt>
      <trkpt lat="45.50032" lon="6.0479">
        <ele>291</ele>
        <time>2020-09-14T19:46:00Z</time>
      </trkpt>
      <trkpt lat="45.50032" lon="6.04803">
        <ele>292</ele>
        <time>2020-09-14T19:46:02Z</time>
      </trkpt>
      <trkpt lat="45.50033" lon="6.04816">
        <ele>292</ele>
        <time>2020-09-14T19:46:03Z</time>
      </trkpt>
      <trkpt lat="45.50034" lon="6.04824">
        <ele>292</ele>
        <time>2020-09-14T19:46:04Z</time>
      </trkpt>
      <trkpt lat="45.50035" lon="6.04842">
        <ele>293</ele>
        <time>2020-09-14T19:46:07Z</time>
      </trkpt>
      <trkpt lat="45.50035" lon="6.04846">
        <ele>293</ele>
        <time>2020-09-14T19:46:07Z</time>
      </trkpt>
      <trkpt lat="45.50032" lon="6.04849">
        <ele>293</ele>
        <time>2020-09-14T19:46:08Z</time>
      </trkpt>
      <trkpt lat="45.5003" lon="6.04853">
        <ele>293</ele>
        <time>2020-09-14T19:46:08Z</time>
      </trkpt>
      <trkpt lat="45.50027" lon="6.04857">
        <ele>293</ele>
        <time>2020-09-14T19:46:09Z</time>
      </trkpt>
      <trkpt lat="45.50024" lon="6.04859">
        <ele>293</ele>
        <time>2020-09-14T19:46:10Z</time>
      </trkpt>
      <trkpt lat="45.5002" lon="6.04861">
        <ele>293</ele>
        <time>2020-09-14T19:46:10Z</time>
      </trkpt>
      <trkpt lat="45.50014" lon="6.04862">
        <ele>293</ele>
        <time>2020-09-14T19:46:11Z</time>
      </trkpt>
      <trkpt lat="45.49984" lon="6.04868">
        <ele>293</ele>
        <time>2020-09-14T19:46:17Z</time>
      </trkpt>
      <trkpt lat="45.49965" lon="6.0487">
        <ele>292</ele>
        <time>2020-09-14T19:46:20Z</time>
      </trkpt>
      <trkpt lat="45.4996" lon="6.0487">
        <ele>292</ele>
        <time>2020-09-14T19:46:21Z</time>
      </trkpt>
      <trkpt lat="45.4996" lon="6.04866">
        <ele>292</ele>
        <time>2020-09-14T19:46:22Z</time>
      </trkpt>
      <trkpt lat="45.49956" lon="6.04859">
        <ele>292</ele>
        <time>2020-09-14T19:46:23Z</time>
      </trkpt>
      <trkpt lat="45.49949" lon="6.04858">
        <ele>292</ele>
        <time>2020-09-14T19:46:24Z</time>
      </trkpt>
      <trkpt lat="45.49946" lon="6.04861">
        <ele>292</ele>
        <time>2020-09-14T19:46:25Z</time>
      </trkpt>
      <trkpt lat="45.49944" lon="6.04855">
        <ele>292</ele>
        <time>2020-09-14T19:46:25Z</time>
      </trkpt>
      <trkpt lat="45.49936" lon="6.04845">
        <ele>292</ele>
        <time>2020-09-14T19:46:27Z</time>
      </trkpt>
      <trkpt lat="45.4993" lon="6.04841">
        <ele>291</ele>
        <time>2020-09-14T19:46:29Z</time>
      </trkpt>
      <trkpt lat="45.4992" lon="6.04842">
        <ele>291</ele>
        <time>2020-09-14T19:46:30Z</time>
      </trkpt>
      <trkpt lat="45.49913" lon="6.04848">
        <ele>291</ele>
        <time>2020-09-14T19:46:32Z</time>
      </trkpt>
      <trkpt lat="45.49888" lon="6.04914">
        <ele>286</ele>
        <time>2020-09-14T19:46:41Z</time>
      </trkpt>
      <trkpt lat="45.49884" lon="6.04928">
        <ele>286</ele>
        <time>2020-09-14T19:46:43Z</time>
      </trkpt>
      <trkpt lat="45.49876" lon="6.04977">
        <ele>287</ele>
        <time>2020-09-14T19:46:49Z</time>
      </trkpt>
      <trkpt lat="45.4986" lon="6.05043">
        <ele>288</ele>
        <time>2020-09-14T19:46:58Z</time>
      </trkpt>
      <trkpt lat="45.49836" lon="6.05118">
        <ele>285</ele>
        <time>2020-09-14T19:47:08Z</time>
      </trkpt>
      <trkpt lat="45.49824" lon="6.05176">
        <ele>285</ele>
        <time>2020-09-14T19:47:16Z</time>
      </trkpt>
      <trkpt lat="45.49801" lon="6.05325">
        <ele>283</ele>
        <time>2020-09-14T19:47:35Z</time>
      </trkpt>
      <trkpt lat="45.49799" lon="6.05358">
        <ele>282</ele>
        <time>2020-09-14T19:47:39Z</time>
      </trkpt>
      <trkpt lat="45.498" lon="6.05454">
        <ele>280</ele>
        <time>2020-09-14T19:47:51Z</time>
      </trkpt>
      <trkpt lat="45.49795" lon="6.05465">
        <ele>278</ele>
        <time>2020-09-14T19:47:53Z</time>
      </trkpt>
      <trkpt lat="45.49788" lon="6.05467">
        <ele>277</ele>
        <time>2020-09-14T19:47:54Z</time>
      </trkpt>
      <trkpt lat="45.49735" lon="6.05468">
        <ele>268</ele>
        <time>2020-09-14T19:48:03Z</time>
      </trkpt>
      <trkpt lat="45.49706" lon="6.05465">
        <ele>267</ele>
        <time>2020-09-14T19:48:08Z</time>
      </trkpt>
      <trkpt lat="45.49698" lon="6.05456">
        <ele>267</ele>
        <time>2020-09-14T19:48:10Z</time>
      </trkpt>
      <trkpt lat="45.49693" lon="6.05453">
        <ele>267</ele>
        <time>2020-09-14T19:48:11Z</time>
      </trkpt>
      <trkpt lat="45.49687" lon="6.05455">
        <ele>267</ele>
        <time>2020-09-14T19:48:12Z</time>
      </trkpt>
      <trkpt lat="45.49679" lon="6.05462">
        <ele>267</ele>
        <time>2020-09-14T19:48:14Z</time>
      </trkpt>
      <trkpt lat="45.49676" lon="6.05467">
        <ele>267</ele>
        <time>2020-09-14T19:48:15Z</time>
      </trkpt>
      <trkpt lat="45.49674" lon="6.05477">
        <ele>266</ele>
        <time>2020-09-14T19:48:16Z</time>
      </trkpt>
      <trkpt lat="45.49668" lon="6.05488">
        <ele>266</ele>
        <time>2020-09-14T19:48:18Z</time>
      </trkpt>
      <trkpt lat="45.49661" lon="6.05498">
        <ele>266</ele>
        <time>2020-09-14T19:48:20Z</time>
      </trkpt>
      <trkpt lat="45.49647" lon="6.05518">
        <ele>265</ele>
        <time>2020-09-14T19:48:23Z</time>
      </trkpt>
      <trkpt lat="45.49638" lon="6.0553">
        <ele>265</ele>
        <time>2020-09-14T19:48:25Z</time>
      </trkpt>
      <trkpt lat="45.49632" lon="6.05538">
        <ele>265</ele>
        <time>2020-09-14T19:48:27Z</time>
      </trkpt>
      <trkpt lat="45.49561" lon="6.05624">
        <ele>263</ele>
        <time>2020-09-14T19:48:43Z</time>
      </trkpt>
      <trkpt lat="45.49554" lon="6.05628">
        <ele>263</ele>
        <time>2020-09-14T19:48:45Z</time>
      </trkpt>
      <trkpt lat="45.49546" lon="6.05631">
        <ele>264</ele>
        <time>2020-09-14T19:48:46Z</time>
      </trkpt>
      <trkpt lat="45.49539" lon="6.05631">
        <ele>264</ele>
        <time>2020-09-14T19:48:47Z</time>
      </trkpt>
      <trkpt lat="45.49534" lon="6.05629">
        <ele>264</ele>
        <time>2020-09-14T19:48:48Z</time>
      </trkpt>
      <trkpt lat="45.49528" lon="6.0563">
        <ele>264</ele>
        <time>2020-09-14T19:48:49Z</time>
      </trkpt>
      <trkpt lat="45.49522" lon="6.05633">
        <ele>265</ele>
        <time>2020-09-14T19:48:51Z</time>
      </trkpt>
      <trkpt lat="45.49517" lon="6.0564">
        <ele>265</ele>
        <time>2020-09-14T19:48:52Z</time>
      </trkpt>
      <trkpt lat="45.49514" lon="6.05649">
        <ele>265</ele>
        <time>2020-09-14T19:48:53Z</time>
      </trkpt>
      <trkpt lat="45.49514" lon="6.05658">
        <ele>265</ele>
        <time>2020-09-14T19:48:54Z</time>
      </trkpt>
      <trkpt lat="45.49516" lon="6.05667">
        <ele>265</ele>
        <time>2020-09-14T19:48:55Z</time>
      </trkpt>
      <trkpt lat="45.4952" lon="6.05674">
        <ele>266</ele>
        <time>2020-09-14T19:48:57Z</time>
      </trkpt>
      <trkpt lat="45.49525" lon="6.05679">
        <ele>266</ele>
        <time>2020-09-14T19:48:58Z</time>
      </trkpt>
      <trkpt lat="45.49532" lon="6.0568">
        <ele>265</ele>
        <time>2020-09-14T19:48:59Z</time>
      </trkpt>
      <trkpt lat="45.49538" lon="6.05679">
        <ele>265</ele>
        <time>2020-09-14T19:49:00Z</time>
      </trkpt>
      <trkpt lat="45.49544" lon="6.05679">
        <ele>265</ele>
        <time>2020-09-14T19:49:01Z</time>
      </trkpt>
      <trkpt lat="45.49554" lon="6.05685">
        <ele>265</ele>
        <time>2020-09-14T19:49:03Z</time>
      </trkpt>
      <trkpt lat="45.49563" lon="6.05695">
        <ele>265</ele>
        <time>2020-09-14T19:49:05Z</time>
      </trkpt>
      <trkpt lat="45.49605" lon="6.05742">
        <ele>266</ele>
        <time>2020-09-14T19:49:14Z</time>
      </trkpt>
      <trkpt lat="45.49614" lon="6.05761">
        <ele>266</ele>
        <time>2020-09-14T19:49:17Z</time>
      </trkpt>
      <trkpt lat="45.49622" lon="6.05786">
        <ele>266</ele>
        <time>2020-09-14T19:49:21Z</time>
      </trkpt>
      <trkpt lat="45.49625" lon="6.05809">
        <ele>266</ele>
        <time>2020-09-14T19:49:24Z</time>
      </trkpt>
      <trkpt lat="45.49624" lon="6.05841">
        <ele>266</ele>
        <time>2020-09-14T19:49:28Z</time>
      </trkpt>
      <trkpt lat="45.49621" lon="6.05862">
        <ele>266</ele>
        <time>2020-09-14T19:49:30Z</time>
      </trkpt>
      <trkpt lat="45.49616" lon="6.05883">
        <ele>266</ele>
        <time>2020-09-14T19:49:33Z</time>
      </trkpt>
      <trkpt lat="45.49605" lon="6.05906">
        <ele>266</ele>
        <time>2020-09-14T19:49:37Z</time>
      </trkpt>
      <trkpt lat="45.49597" lon="6.05918">
        <ele>266</ele>
        <time>2020-09-14T19:49:39Z</time>
      </trkpt>
      <trkpt lat="45.49585" lon="6.05928">
        <ele>267</ele>
        <time>2020-09-14T19:49:41Z</time>
      </trkpt>
      <trkpt lat="45.49573" lon="6.05933">
        <ele>267</ele>
        <time>2020-09-14T19:49:43Z</time>
      </trkpt>
      <trkpt lat="45.49566" lon="6.05935">
        <ele>267</ele>
        <time>2020-09-14T19:49:45Z</time>
      </trkpt>
      <trkpt lat="45.49558" lon="6.05934">
        <ele>267</ele>
        <time>2020-09-14T19:49:46Z</time>
      </trkpt>
      <trkpt lat="45.49549" lon="6.05941">
        <ele>267</ele>
        <time>2020-09-14T19:49:48Z</time>
      </trkpt>
      <trkpt lat="45.49545" lon="6.05949">
        <ele>267</ele>
        <time>2020-09-14T19:49:49Z</time>
      </trkpt>
      <trkpt lat="45.49544" lon="6.05958">
        <ele>267</ele>
        <time>2020-09-14T19:49:50Z</time>
      </trkpt>
      <trkpt lat="45.49547" lon="6.05973">
        <ele>266</ele>
        <time>2020-09-14T19:49:52Z</time>
      </trkpt>
      <trkpt lat="45.49549" lon="6.05978">
        <ele>266</ele>
        <time>2020-09-14T19:49:53Z</time>
      </trkpt>
      <trkpt lat="45.49549" lon="6.05991">
        <ele>266</ele>
        <time>2020-09-14T19:49:54Z</time>
      </trkpt>
      <trkpt lat="45.49544" lon="6.0602">
        <ele>267</ele>
        <time>2020-09-14T19:49:58Z</time>
      </trkpt>
      <trkpt lat="45.49536" lon="6.06041">
        <ele>267</ele>
        <time>2020-09-14T19:50:01Z</time>
      </trkpt>
      <trkpt lat="45.49521" lon="6.06072">
        <ele>269</ele>
        <time>2020-09-14T19:50:06Z</time>
      </trkpt>
      <trkpt lat="45.49518" lon="6.06081">
        <ele>269</ele>
        <time>2020-09-14T19:50:07Z</time>
      </trkpt>
      <trkpt lat="45.49506" lon="6.06101">
        <ele>270</ele>
        <time>2020-09-14T19:50:10Z</time>
      </trkpt>
      <trkpt lat="45.49482" lon="6.06146">
        <ele>276</ele>
        <time>2020-09-14T19:50:17Z</time>
      </trkpt>
      <trkpt lat="45.49469" lon="6.06175">
        <ele>282</ele>
        <time>2020-09-14T19:50:22Z</time>
      </trkpt>
      <trkpt lat="45.49469" lon="6.06199">
        <ele>284</ele>
        <time>2020-09-14T19:50:25Z</time>
      </trkpt>
      <trkpt lat="45.4947" lon="6.06231">
        <ele>286</ele>
        <time>2020-09-14T19:50:29Z</time>
      </trkpt>
      <trkpt lat="45.49475" lon="6.06263">
        <ele>286</ele>
        <time>2020-09-14T19:50:33Z</time>
      </trkpt>
      <trkpt lat="45.49481" lon="6.06295">
        <ele>286</ele>
        <time>2020-09-14T19:50:37Z</time>
      </trkpt>
      <trkpt lat="45.49484" lon="6.06315">
        <ele>286</ele>
        <time>2020-09-14T19:50:40Z</time>
      </trkpt>
      <trkpt lat="45.49491" lon="6.06351">
        <ele>284</ele>
        <time>2020-09-14T19:50:44Z</time>
      </trkpt>
      <trkpt lat="45.49492" lon="6.0642">
        <ele>283</ele>
        <time>2020-09-14T19:50:53Z</time>
      </trkpt>
      <trkpt lat="45.49481" lon="6.06668">
        <ele>294</ele>
        <time>2020-09-14T19:51:24Z</time>
      </trkpt>
      <trkpt lat="45.49483" lon="6.06746">
        <ele>292</ele>
        <time>2020-09-14T19:51:34Z</time>
      </trkpt>
      <trkpt lat="45.49488" lon="6.06852">
        <ele>300</ele>
        <time>2020-09-14T19:51:47Z</time>
      </trkpt>
      <trkpt lat="45.49492" lon="6.06878">
        <ele>302</ele>
        <time>2020-09-14T19:51:50Z</time>
      </trkpt>
      <trkpt lat="45.4951" lon="6.06965">
        <ele>306</ele>
        <time>2020-09-14T19:52:01Z</time>
      </trkpt>
      <trkpt lat="45.49513" lon="6.0699">
        <ele>307</ele>
        <time>2020-09-14T19:52:05Z</time>
      </trkpt>
      <trkpt lat="45.49511" lon="6.07004">
        <ele>308</ele>
        <time>2020-09-14T19:52:06Z</time>
      </trkpt>
      <trkpt lat="45.49494" lon="6.07069">
        <ele>312</ele>
        <time>2020-09-14T19:52:15Z</time>
      </trkpt>
      <trkpt lat="45.49482" lon="6.07215">
        <ele>316</ele>
        <time>2020-09-14T19:52:33Z</time>
      </trkpt>
      <trkpt lat="45.49496" lon="6.07267">
        <ele>318</ele>
        <time>2020-09-14T19:52:40Z</time>
      </trkpt>
      <trkpt lat="45.49525" lon="6.07335">
        <ele>318</ele>
        <time>2020-09-14T19:52:50Z</time>
      </trkpt>
      <trkpt lat="45.49535" lon="6.07365">
        <ele>320</ele>
        <time>2020-09-14T19:52:54Z</time>
      </trkpt>
      <trkpt lat="45.49533" lon="6.07383">
        <ele>322</ele>
        <time>2020-09-14T19:52:57Z</time>
      </trkpt>
      <trkpt lat="45.49525" lon="6.07401">
        <ele>324</ele>
        <time>2020-09-14T19:52:59Z</time>
      </trkpt>
      <trkpt lat="45.49514" lon="6.07418">
        <ele>325</ele>
        <time>2020-09-14T19:53:02Z</time>
      </trkpt>
      <trkpt lat="45.49501" lon="6.07449">
        <ele>326</ele>
        <time>2020-09-14T19:53:07Z</time>
      </trkpt>
      <trkpt lat="45.49496" lon="6.07469">
        <ele>326</ele>
        <time>2020-09-14T19:53:09Z</time>
      </trkpt>
      <trkpt lat="45.49495" lon="6.0749">
        <ele>326</ele>
        <time>2020-09-14T19:53:12Z</time>
      </trkpt>
      <trkpt lat="45.49501" lon="6.07517">
        <ele>327</ele>
        <time>2020-09-14T19:53:15Z</time>
      </trkpt>
      <trkpt lat="45.49504" lon="6.07523">
        <ele>327</ele>
        <time>2020-09-14T19:53:16Z</time>
      </trkpt>
      <trkpt lat="45.49523" lon="6.07538">
        <ele>327</ele>
        <time>2020-09-14T19:53:20Z</time>
      </trkpt>
      <trkpt lat="45.49527" lon="6.07546">
        <ele>327</ele>
        <time>2020-09-14T19:53:21Z</time>
      </trkpt>
      <trkpt lat="45.49531" lon="6.07556">
        <ele>327</ele>
        <time>2020-09-14T19:53:23Z</time>
      </trkpt>
      <trkpt lat="45.4953" lon="6.07571">
        <ele>326</ele>
        <time>2020-09-14T19:53:25Z</time>
      </trkpt>
      <trkpt lat="45.49531" lon="6.07578">
        <ele>326</ele>
        <time>2020-09-14T19:53:26Z</time>
      </trkpt>
      <trkpt lat="45.49528" lon="6.0758">
        <ele>326</ele>
        <time>2020-09-14T19:53:26Z</time>
      </trkpt>
      <trkpt lat="45.49528" lon="6.0759">
        <ele>326</ele>
        <time>2020-09-14T19:53:28Z</time>
      </trkpt>
      <trkpt lat="45.49531" lon="6.07595">
        <ele>326</ele>
        <time>2020-09-14T19:53:28Z</time>
      </trkpt>
      <trkpt lat="45.49536" lon="6.07594">
        <ele>326</ele>
        <time>2020-09-14T19:53:29Z</time>
      </trkpt>
      <trkpt lat="45.49643" lon="6.07856">
        <ele>332</ele>
        <time>2020-09-14T19:54:07Z</time>
      </trkpt>
      <trkpt lat="45.49648" lon="6.07879">
        <ele>333</ele>
        <time>2020-09-14T19:54:10Z</time>
      </trkpt>
      <trkpt lat="45.49648" lon="6.0794">
        <ele>334</ele>
        <time>2020-09-14T19:54:18Z</time>
      </trkpt>
      <trkpt lat="45.49655" lon="6.08095">
        <ele>330</ele>
        <time>2020-09-14T19:54:37Z</time>
      </trkpt>
      <trkpt lat="45.49652" lon="6.08162">
        <ele>331</ele>
        <time>2020-09-14T19:54:45Z</time>
      </trkpt>
      <trkpt lat="45.49654" lon="6.08186">
        <ele>331</ele>
        <time>2020-09-14T19:54:48Z</time>
      </trkpt>
      <trkpt lat="45.49669" lon="6.08222">
        <ele>331</ele>
        <time>2020-09-14T19:54:54Z</time>
      </trkpt>
      <trkpt lat="45.49687" lon="6.08256">
        <ele>331</ele>
        <time>2020-09-14T19:54:59Z</time>
      </trkpt>
      <trkpt lat="45.49709" lon="6.08306">
        <ele>332</ele>
        <time>2020-09-14T19:55:06Z</time>
      </trkpt>
      <trkpt lat="45.49734" lon="6.08376">
        <ele>332</ele>
        <time>2020-09-14T19:55:16Z</time>
      </trkpt>
      <trkpt lat="45.49771" lon="6.08459">
        <ele>333</ele>
        <time>2020-09-14T19:55:28Z</time>
      </trkpt>
      <trkpt lat="45.49802" lon="6.08513">
        <ele>335</ele>
        <time>2020-09-14T19:55:37Z</time>
      </trkpt>
      <trkpt lat="45.49923" lon="6.08656">
        <ele>332</ele>
        <time>2020-09-14T19:56:05Z</time>
      </trkpt>
      <trkpt lat="45.49995" lon="6.08721">
        <ele>333</ele>
        <time>2020-09-14T19:56:20Z</time>
      </trkpt>
      <trkpt lat="45.50049" lon="6.088">
        <ele>331</ele>
        <time>2020-09-14T19:56:34Z</time>
      </trkpt>
      <trkpt lat="45.50068" lon="6.08823">
        <ele>331</ele>
        <time>2020-09-14T19:56:38Z</time>
      </trkpt>
      <trkpt lat="45.50082" lon="6.08834">
        <ele>331</ele>
        <time>2020-09-14T19:56:41Z</time>
      </trkpt>
      <trkpt lat="45.501" lon="6.08842">
        <ele>329</ele>
        <time>2020-09-14T19:56:45Z</time>
      </trkpt>
      <trkpt lat="45.50117" lon="6.08836">
        <ele>328</ele>
        <time>2020-09-14T19:56:48Z</time>
      </trkpt>
      <trkpt lat="45.50134" lon="6.08823">
        <ele>327</ele>
        <time>2020-09-14T19:56:51Z</time>
      </trkpt>
      <trkpt lat="45.50148" lon="6.08822">
        <ele>326</ele>
        <time>2020-09-14T19:56:54Z</time>
      </trkpt>
      <trkpt lat="45.50163" lon="6.08831">
        <ele>325</ele>
        <time>2020-09-14T19:56:57Z</time>
      </trkpt>
      <trkpt lat="45.50171" lon="6.08839">
        <ele>325</ele>
        <time>2020-09-14T19:56:58Z</time>
      </trkpt>
      <trkpt lat="45.50232" lon="6.08938">
        <ele>321</ele>
        <time>2020-09-14T19:57:15Z</time>
      </trkpt>
      <trkpt lat="45.50242" lon="6.08961">
        <ele>321</ele>
        <time>2020-09-14T19:57:18Z</time>
      </trkpt>
      <trkpt lat="45.50257" lon="6.0901">
        <ele>321</ele>
        <time>2020-09-14T19:57:25Z</time>
      </trkpt>
      <trkpt lat="45.5027" lon="6.09035">
        <ele>320</ele>
        <time>2020-09-14T19:57:29Z</time>
      </trkpt>
      <trkpt lat="45.50329" lon="6.091">
        <ele>317</ele>
        <time>2020-09-14T19:57:42Z</time>
      </trkpt>
      <trkpt lat="45.50417" lon="6.0918">
        <ele>312</ele>
        <time>2020-09-14T19:58:00Z</time>
      </trkpt>
      <trkpt lat="45.50433" lon="6.09202">
        <ele>312</ele>
        <time>2020-09-14T19:58:04Z</time>
      </trkpt>
      <trkpt lat="45.50464" lon="6.09377">
        <ele>313</ele>
        <time>2020-09-14T19:58:27Z</time>
      </trkpt>
      <trkpt lat="45.50466" lon="6.09402">
        <ele>313</ele>
        <time>2020-09-14T19:58:30Z</time>
      </trkpt>
      <trkpt lat="45.50466" lon="6.09417">
        <ele>313</ele>
        <time>2020-09-14T19:58:32Z</time>
      </trkpt>
      <trkpt lat="45.50463" lon="6.09441">
        <ele>314</ele>
        <time>2020-09-14T19:58:35Z</time>
      </trkpt>
      <trkpt lat="45.50384" lon="6.09644">
        <ele>316</ele>
        <time>2020-09-14T19:59:04Z</time>
      </trkpt>
      <trkpt lat="45.50378" lon="6.09661">
        <ele>317</ele>
        <time>2020-09-14T19:59:06Z</time>
      </trkpt>
      <trkpt lat="45.50376" lon="6.09685">
        <ele>318</ele>
        <time>2020-09-14T19:59:09Z</time>
      </trkpt>
      <trkpt lat="45.50377" lon="6.09713">
        <ele>318</ele>
        <time>2020-09-14T19:59:13Z</time>
      </trkpt>
      <trkpt lat="45.50403" lon="6.10052">
        <ele>314</ele>
        <time>2020-09-14T19:59:55Z</time>
      </trkpt>
      <trkpt lat="45.50402" lon="6.1008">
        <ele>314</ele>
        <time>2020-09-14T19:59:59Z</time>
      </trkpt>
      <trkpt lat="45.504" lon="6.10107">
        <ele>315</ele>
        <time>2020-09-14T20:00:02Z</time>
      </trkpt>
      <trkpt lat="45.50394" lon="6.10141">
        <ele>316</ele>
        <time>2020-09-14T20:00:07Z</time>
      </trkpt>
      <trkpt lat="45.5036" lon="6.10266">
        <ele>311</ele>
        <time>2020-09-14T20:00:23Z</time>
      </trkpt>
      <trkpt lat="45.50357" lon="6.10298">
        <ele>310</ele>
        <time>2020-09-14T20:00:27Z</time>
      </trkpt>
      <trkpt lat="45.5036" lon="6.10335">
        <ele>310</ele>
        <time>2020-09-14T20:00:32Z</time>
      </trkpt>
      <trkpt lat="45.50397" lon="6.10533">
        <ele>307</ele>
        <time>2020-09-14T20:00:58Z</time>
      </trkpt>
      <trkpt lat="45.50413" lon="6.10575">
        <ele>305</ele>
        <time>2020-09-14T20:01:04Z</time>
      </trkpt>
      <trkpt lat="45.50462" lon="6.10657">
        <ele>298</ele>
        <time>2020-09-14T20:01:17Z</time>
      </trkpt>
      <trkpt lat="45.50468" lon="6.10671">
        <ele>297</ele>
        <time>2020-09-14T20:01:19Z</time>
      </trkpt>
      <trkpt lat="45.50474" lon="6.1069">
        <ele>297</ele>
        <time>2020-09-14T20:01:22Z</time>
      </trkpt>
      <trkpt lat="45.50481" lon="6.10725">
        <ele>295</ele>
        <time>2020-09-14T20:01:26Z</time>
      </trkpt>
      <trkpt lat="45.5049" lon="6.10802">
        <ele>295</ele>
        <time>2020-09-14T20:01:36Z</time>
      </trkpt>
      <trkpt lat="45.50494" lon="6.10826">
        <ele>296</ele>
        <time>2020-09-14T20:01:39Z</time>
      </trkpt>
      <trkpt lat="45.50508" lon="6.1087">
        <ele>294</ele>
        <time>2020-09-14T20:01:45Z</time>
      </trkpt>
      <trkpt lat="45.50637" lon="6.11146">
        <ele>286</ele>
        <time>2020-09-14T20:02:26Z</time>
      </trkpt>
      <trkpt lat="45.50645" lon="6.11171">
        <ele>284</ele>
        <time>2020-09-14T20:02:30Z</time>
      </trkpt>
      <trkpt lat="45.50719" lon="6.11438">
        <ele>271</ele>
        <time>2020-09-14T20:03:06Z</time>
      </trkpt>
      <trkpt lat="45.50732" lon="6.11475">
        <ele>269</ele>
        <time>2020-09-14T20:03:11Z</time>
      </trkpt>
      <trkpt lat="45.50748" lon="6.11499">
        <ele>268</ele>
        <time>2020-09-14T20:03:15Z</time>
      </trkpt>
      <trkpt lat="45.50772" lon="6.11526">
        <ele>269</ele>
        <time>2020-09-14T20:03:20Z</time>
      </trkpt>
      <trkpt lat="45.50818" lon="6.11569">
        <ele>270</ele>
        <time>2020-09-14T20:03:30Z</time>
      </trkpt>
      <trkpt lat="45.50903" lon="6.1166">
        <ele>272</ele>
        <time>2020-09-14T20:03:49Z</time>
      </trkpt>
      <trkpt lat="45.50982" lon="6.11723">
        <ele>273</ele>
        <time>2020-09-14T20:04:05Z</time>
      </trkpt>
      <trkpt lat="45.51017" lon="6.11754">
        <ele>272</ele>
        <time>2020-09-14T20:04:12Z</time>
      </trkpt>
      <trkpt lat="45.51086" lon="6.11837">
        <ele>269</ele>
        <time>2020-09-14T20:04:28Z</time>
      </trkpt>
      <trkpt lat="45.51116" lon="6.11866">
        <ele>271</ele>
        <time>2020-09-14T20:04:35Z</time>
      </trkpt>
      <trkpt lat="45.51144" lon="6.11889">
        <ele>272</ele>
        <time>2020-09-14T20:04:41Z</time>
      </trkpt>
      <trkpt lat="45.51168" lon="6.11919">
        <ele>272</ele>
        <time>2020-09-14T20:04:46Z</time>
      </trkpt>
      <trkpt lat="45.51199" lon="6.1197">
        <ele>272</ele>
        <time>2020-09-14T20:04:55Z</time>
      </trkpt>
      <trkpt lat="45.51226" lon="6.12035">
        <ele>272</ele>
        <time>2020-09-14T20:05:04Z</time>
      </trkpt>
      <trkpt lat="45.5124" lon="6.12061">
        <ele>273</ele>
        <time>2020-09-14T20:05:08Z</time>
      </trkpt>
      <trkpt lat="45.51251" lon="6.12079">
        <ele>273</ele>
        <time>2020-09-14T20:05:11Z</time>
      </trkpt>
      <trkpt lat="45.5128" lon="6.12115">
        <ele>273</ele>
        <time>2020-09-14T20:05:18Z</time>
      </trkpt>
      <trkpt lat="45.51293" lon="6.12128">
        <ele>273</ele>
        <time>2020-09-14T20:05:21Z</time>
      </trkpt>
      <trkpt lat="45.51346" lon="6.12166">
        <ele>274</ele>
        <time>2020-09-14T20:05:31Z</time>
      </trkpt>
      <trkpt lat="45.51361" lon="6.1218">
        <ele>275</ele>
        <time>2020-09-14T20:05:35Z</time>
      </trkpt>
      <trkpt lat="45.51425" lon="6.12263">
        <ele>275</ele>
        <time>2020-09-14T20:05:50Z</time>
      </trkpt>
      <trkpt lat="45.51495" lon="6.12325">
        <ele>275</ele>
        <time>2020-09-14T20:06:05Z</time>
      </trkpt>
      <trkpt lat="45.51526" lon="6.1235">
        <ele>275</ele>
        <time>2020-09-14T20:06:11Z</time>
      </trkpt>
      <trkpt lat="45.51588" lon="6.12406">
        <ele>274</ele>
        <time>2020-09-14T20:06:24Z</time>
      </trkpt>
      <trkpt lat="45.51607" lon="6.1242">
        <ele>274</ele>
        <time>2020-09-14T20:06:28Z</time>
      </trkpt>
      <trkpt lat="45.51661" lon="6.12451">
        <ele>274</ele>
        <time>2020-09-14T20:06:38Z</time>
      </trkpt>
      <trkpt lat="45.51733" lon="6.12505">
        <ele>276</ele>
        <time>2020-09-14T20:06:53Z</time>
      </trkpt>
      <trkpt lat="45.5175" lon="6.12524">
        <ele>276</ele>
        <time>2020-09-14T20:06:57Z</time>
      </trkpt>
      <trkpt lat="45.51818" lon="6.1262">
        <ele>277</ele>
        <time>2020-09-14T20:07:14Z</time>
      </trkpt>
      <trkpt lat="45.51853" lon="6.12663">
        <ele>276</ele>
        <time>2020-09-14T20:07:22Z</time>
      </trkpt>
      <trkpt lat="45.51924" lon="6.12726">
        <ele>282</ele>
        <time>2020-09-14T20:07:37Z</time>
      </trkpt>
      <trkpt lat="45.51934" lon="6.12743">
        <ele>282</ele>
        <time>2020-09-14T20:07:39Z</time>
      </trkpt>
      <trkpt lat="45.5195" lon="6.12786">
        <ele>282</ele>
        <time>2020-09-14T20:07:46Z</time>
      </trkpt>
      <trkpt lat="45.52061" lon="6.13074">
        <ele>278</ele>
        <time>2020-09-14T20:08:27Z</time>
      </trkpt>
      <trkpt lat="45.5208" lon="6.13106">
        <ele>278</ele>
        <time>2020-09-14T20:08:32Z</time>
      </trkpt>
      <trkpt lat="45.52156" lon="6.13194">
        <ele>282</ele>
        <time>2020-09-14T20:08:49Z</time>
      </trkpt>
      <trkpt lat="45.52188" lon="6.13241">
        <ele>284</ele>
        <time>2020-09-14T20:08:57Z</time>
      </trkpt>
      <trkpt lat="45.52205" lon="6.1328">
        <ele>286</ele>
        <time>2020-09-14T20:09:03Z</time>
      </trkpt>
      <trkpt lat="45.52217" lon="6.13315">
        <ele>287</ele>
        <time>2020-09-14T20:09:08Z</time>
      </trkpt>
      <trkpt lat="45.52228" lon="6.13363">
        <ele>290</ele>
        <time>2020-09-14T20:09:14Z</time>
      </trkpt>
      <trkpt lat="45.52261" lon="6.13534">
        <ele>297</ele>
        <time>2020-09-14T20:09:36Z</time>
      </trkpt>
      <trkpt lat="45.52275" lon="6.13582">
        <ele>299</ele>
        <time>2020-09-14T20:09:43Z</time>
      </trkpt>
      <trkpt lat="45.52289" lon="6.13621">
        <ele>303</ele>
        <time>2020-09-14T20:09:48Z</time>
      </trkpt>
      <trkpt lat="45.52488" lon="6.14004">
        <ele>311</ele>
        <time>2020-09-14T20:10:48Z</time>
      </trkpt>
      <trkpt lat="45.52508" lon="6.14034">
        <ele>310</ele>
        <time>2020-09-14T20:10:53Z</time>
      </trkpt>
      <trkpt lat="45.52525" lon="6.14056">
        <ele>309</ele>
        <time>2020-09-14T20:10:57Z</time>
      </trkpt>
      <trkpt lat="45.52586" lon="6.14123">
        <ele>306</ele>
        <time>2020-09-14T20:11:11Z</time>
      </trkpt>
      <trkpt lat="45.52604" lon="6.14152">
        <ele>306</ele>
        <time>2020-09-14T20:11:15Z</time>
      </trkpt>
      <trkpt lat="45.52617" lon="6.14182">
        <ele>305</ele>
        <time>2020-09-14T20:11:20Z</time>
      </trkpt>
      <trkpt lat="45.52636" lon="6.14242">
        <ele>301</ele>
        <time>2020-09-14T20:11:28Z</time>
      </trkpt>
      <trkpt lat="45.52679" lon="6.14352">
        <ele>300</ele>
        <time>2020-09-14T20:11:44Z</time>
      </trkpt>
      <trkpt lat="45.5271" lon="6.14418">
        <ele>301</ele>
        <time>2020-09-14T20:11:54Z</time>
      </trkpt>
      <trkpt lat="45.52757" lon="6.14527">
        <ele>302</ele>
        <time>2020-09-14T20:12:10Z</time>
      </trkpt>
      <trkpt lat="45.5277" lon="6.14564">
        <ele>303</ele>
        <time>2020-09-14T20:12:15Z</time>
      </trkpt>
      <trkpt lat="45.52792" lon="6.14639">
        <ele>304</ele>
        <time>2020-09-14T20:12:25Z</time>
      </trkpt>
      <trkpt lat="45.52837" lon="6.14757">
        <ele>309</ele>
        <time>2020-09-14T20:12:42Z</time>
      </trkpt>
      <trkpt lat="45.52871" lon="6.14854">
        <ele>312</ele>
        <time>2020-09-14T20:12:55Z</time>
      </trkpt>
      <trkpt lat="45.52875" lon="6.1487">
        <ele>312</ele>
        <time>2020-09-14T20:12:57Z</time>
      </trkpt>
      <trkpt lat="45.52888" lon="6.1498">
        <ele>312</ele>
        <time>2020-09-14T20:13:11Z</time>
      </trkpt>
      <trkpt lat="45.52894" lon="6.15012">
        <ele>312</ele>
        <time>2020-09-14T20:13:15Z</time>
      </trkpt>
      <trkpt lat="45.52949" lon="6.15185">
        <ele>314</ele>
        <time>2020-09-14T20:13:39Z</time>
      </trkpt>
      <trkpt lat="45.52981" lon="6.15301">
        <ele>313</ele>
        <time>2020-09-14T20:13:55Z</time>
      </trkpt>
      <trkpt lat="45.5302" lon="6.15419">
        <ele>316</ele>
        <time>2020-09-14T20:14:11Z</time>
      </trkpt>
      <trkpt lat="45.53056" lon="6.15521">
        <ele>320</ele>
        <time>2020-09-14T20:14:25Z</time>
      </trkpt>
      <trkpt lat="45.53084" lon="6.15583">
        <ele>320</ele>
        <time>2020-09-14T20:14:34Z</time>
      </trkpt>
      <trkpt lat="45.53112" lon="6.1564">
        <ele>322</ele>
        <time>2020-09-14T20:14:43Z</time>
      </trkpt>
      <trkpt lat="45.53146" lon="6.15694">
        <ele>323</ele>
        <time>2020-09-14T20:14:52Z</time>
      </trkpt>
      <trkpt lat="45.53203" lon="6.15776">
        <ele>326</ele>
        <time>2020-09-14T20:15:06Z</time>
      </trkpt>
      <trkpt lat="45.53269" lon="6.15859">
        <ele>329</ele>
        <time>2020-09-14T20:15:22Z</time>
      </trkpt>
      <trkpt lat="45.53298" lon="6.15894">
        <ele>332</ele>
        <time>2020-09-14T20:15:29Z</time>
      </trkpt>
      <trkpt lat="45.53315" lon="6.15922">
        <ele>333</ele>
        <time>2020-09-14T20:15:33Z</time>
      </trkpt>
      <trkpt lat="45.53345" lon="6.15983">
        <ele>338</ele>
        <time>2020-09-14T20:15:43Z</time>
      </trkpt>
      <trkpt lat="45.53364" lon="6.16011">
        <ele>340</ele>
        <time>2020-09-14T20:15:48Z</time>
      </trkpt>
      <trkpt lat="45.53394" lon="6.16037">
        <ele>343</ele>
        <time>2020-09-14T20:15:54Z</time>
      </trkpt>
      <trkpt lat="45.53415" lon="6.16051">
        <ele>346</ele>
        <time>2020-09-14T20:15:58Z</time>
      </trkpt>
      <trkpt lat="45.53443" lon="6.16059">
        <ele>349</ele>
        <time>2020-09-14T20:16:03Z</time>
      </trkpt>
      <trkpt lat="45.5353" lon="6.16079">
        <ele>353</ele>
        <time>2020-09-14T20:16:19Z</time>
      </trkpt>
      <trkpt lat="45.53597" lon="6.16125">
        <ele>356</ele>
        <time>2020-09-14T20:16:32Z</time>
      </trkpt>
      <trkpt lat="45.53625" lon="6.16157">
        <ele>355</ele>
        <time>2020-09-14T20:16:38Z</time>
      </trkpt>
      <trkpt lat="45.53643" lon="6.16191">
        <ele>355</ele>
        <time>2020-09-14T20:16:44Z</time>
      </trkpt>
      <trkpt lat="45.53687" lon="6.16298">
        <ele>351</ele>
        <time>2020-09-14T20:16:59Z</time>
      </trkpt>
      <trkpt lat="45.537" lon="6.16336">
        <ele>351</ele>
        <time>2020-09-14T20:17:04Z</time>
      </trkpt>
      <trkpt lat="45.53705" lon="6.16374">
        <ele>352</ele>
        <time>2020-09-14T20:17:09Z</time>
      </trkpt>
      <trkpt lat="45.53709" lon="6.16476">
        <ele>350</ele>
        <time>2020-09-14T20:17:22Z</time>
      </trkpt>
      <trkpt lat="45.53719" lon="6.16541">
        <ele>347</ele>
        <time>2020-09-14T20:17:30Z</time>
      </trkpt>
      <trkpt lat="45.53791" lon="6.16895">
        <ele>354</ele>
        <time>2020-09-14T20:18:16Z</time>
      </trkpt>
      <trkpt lat="45.53812" lon="6.16956">
        <ele>353</ele>
        <time>2020-09-14T20:18:25Z</time>
      </trkpt>
      <trkpt lat="45.5383" lon="6.16999">
        <ele>351</ele>
        <time>2020-09-14T20:18:31Z</time>
      </trkpt>
      <trkpt lat="45.53866" lon="6.17066">
        <ele>351</ele>
        <time>2020-09-14T20:18:41Z</time>
      </trkpt>
      <trkpt lat="45.53931" lon="6.17198">
        <ele>352</ele>
        <time>2020-09-14T20:19:01Z</time>
      </trkpt>
      <trkpt lat="45.53948" lon="6.17234">
        <ele>354</ele>
        <time>2020-09-14T20:19:07Z</time>
      </trkpt>
      <trkpt lat="45.53988" lon="6.17342">
        <ele>356</ele>
        <time>2020-09-14T20:19:22Z</time>
      </trkpt>
      <trkpt lat="45.54007" lon="6.17366">
        <ele>355</ele>
        <time>2020-09-14T20:19:27Z</time>
      </trkpt>
      <trkpt lat="45.54094" lon="6.17433">
        <ele>351</ele>
        <time>2020-09-14T20:19:44Z</time>
      </trkpt>
      <trkpt lat="45.54162" lon="6.17496">
        <ele>349</ele>
        <time>2020-09-14T20:19:59Z</time>
      </trkpt>
      <trkpt lat="45.54203" lon="6.17543">
        <ele>351</ele>
        <time>2020-09-14T20:20:08Z</time>
      </trkpt>
      <trkpt lat="45.54263" lon="6.17621">
        <ele>350</ele>
        <time>2020-09-14T20:20:22Z</time>
      </trkpt>
      <trkpt lat="45.54277" lon="6.17644">
        <ele>350</ele>
        <time>2020-09-14T20:20:26Z</time>
      </trkpt>
      <trkpt lat="45.54293" lon="6.17676">
        <ele>350</ele>
        <time>2020-09-14T20:20:31Z</time>
      </trkpt>
      <trkpt lat="45.5432" lon="6.17739">
        <ele>350</ele>
        <time>2020-09-14T20:20:40Z</time>
      </trkpt>
      <trkpt lat="45.54395" lon="6.17938">
        <ele>351</ele>
        <time>2020-09-14T20:21:09Z</time>
      </trkpt>
      <trkpt lat="45.54451" lon="6.18113">
        <ele>351</ele>
        <time>2020-09-14T20:21:32Z</time>
      </trkpt>
      <trkpt lat="45.54464" lon="6.18165">
        <ele>351</ele>
        <time>2020-09-14T20:21:39Z</time>
      </trkpt>
      <trkpt lat="45.54472" lon="6.18183">
        <ele>351</ele>
        <time>2020-09-14T20:21:42Z</time>
      </trkpt>
      <trkpt lat="45.54474" lon="6.18193">
        <ele>351</ele>
        <time>2020-09-14T20:21:43Z</time>
      </trkpt>
      <trkpt lat="45.54494" lon="6.18263">
        <ele>351</ele>
        <time>2020-09-14T20:21:53Z</time>
      </trkpt>
      <trkpt lat="45.54547" lon="6.18546">
        <ele>348</ele>
        <time>2020-09-14T20:22:29Z</time>
      </trkpt>
      <trkpt lat="45.54562" lon="6.18598">
        <ele>347</ele>
        <time>2020-09-14T20:22:36Z</time>
      </trkpt>
      <trkpt lat="45.54644" lon="6.1881">
        <ele>346</ele>
        <time>2020-09-14T20:23:06Z</time>
      </trkpt>
      <trkpt lat="45.54665" lon="6.18858">
        <ele>344</ele>
        <time>2020-09-14T20:23:13Z</time>
      </trkpt>
      <trkpt lat="45.5469" lon="6.18909">
        <ele>341</ele>
        <time>2020-09-14T20:23:21Z</time>
      </trkpt>
      <trkpt lat="45.54723" lon="6.18966">
        <ele>334</ele>
        <time>2020-09-14T20:23:30Z</time>
      </trkpt>
      <trkpt lat="45.54767" lon="6.19031">
        <ele>322</ele>
        <time>2020-09-14T20:23:42Z</time>
      </trkpt>
      <trkpt lat="45.5479" lon="6.1907">
        <ele>316</ele>
        <time>2020-09-14T20:23:48Z</time>
      </trkpt>
      <trkpt lat="45.54805" lon="6.19099">
        <ele>311</ele>
        <time>2020-09-14T20:23:53Z</time>
      </trkpt>
      <trkpt lat="45.54832" lon="6.19158">
        <ele>302</ele>
        <time>2020-09-14T20:24:01Z</time>
      </trkpt>
      <trkpt lat="45.54842" lon="6.19206">
        <ele>301</ele>
        <time>2020-09-14T20:24:08Z</time>
      </trkpt>
      <trkpt lat="45.54871" lon="6.19375">
        <ele>303</ele>
        <time>2020-09-14T20:24:29Z</time>
      </trkpt>
      <trkpt lat="45.54884" lon="6.19416">
        <ele>303</ele>
        <time>2020-09-14T20:24:35Z</time>
      </trkpt>
      <trkpt lat="45.54899" lon="6.19451">
        <ele>303</ele>
        <time>2020-09-14T20:24:40Z</time>
      </trkpt>
      <trkpt lat="45.54955" lon="6.19562">
        <ele>302</ele>
        <time>2020-09-14T20:24:57Z</time>
      </trkpt>
      <trkpt lat="45.54971" lon="6.19602">
        <ele>302</ele>
        <time>2020-09-14T20:25:03Z</time>
      </trkpt>
      <trkpt lat="45.54987" lon="6.19652">
        <ele>302</ele>
        <time>2020-09-14T20:25:10Z</time>
      </trkpt>
      <trkpt lat="45.55005" lon="6.19721">
        <ele>300</ele>
        <time>2020-09-14T20:25:19Z</time>
      </trkpt>
      <trkpt lat="45.55022" lon="6.19793">
        <ele>300</ele>
        <time>2020-09-14T20:25:28Z</time>
      </trkpt>
      <trkpt lat="45.55044" lon="6.19858">
        <ele>300</ele>
        <time>2020-09-14T20:25:37Z</time>
      </trkpt>
      <trkpt lat="45.55054" lon="6.19899">
        <ele>300</ele>
        <time>2020-09-14T20:25:43Z</time>
      </trkpt>
      <trkpt lat="45.55057" lon="6.1994">
        <ele>299</ele>
        <time>2020-09-14T20:25:48Z</time>
      </trkpt>
      <trkpt lat="45.55045" lon="6.20006">
        <ele>298</ele>
        <time>2020-09-14T20:25:56Z</time>
      </trkpt>
      <trkpt lat="45.55043" lon="6.20033">
        <ele>298</ele>
        <time>2020-09-14T20:26:00Z</time>
      </trkpt>
      <trkpt lat="45.55043" lon="6.20062">
        <ele>297</ele>
        <time>2020-09-14T20:26:03Z</time>
      </trkpt>
      <trkpt lat="45.5505" lon="6.20088">
        <ele>296</ele>
        <time>2020-09-14T20:26:07Z</time>
      </trkpt>
      <trkpt lat="45.55101" lon="6.20337">
        <ele>292</ele>
        <time>2020-09-14T20:26:39Z</time>
      </trkpt>
      <trkpt lat="45.55117" lon="6.20433">
        <ele>293</ele>
        <time>2020-09-14T20:26:51Z</time>
      </trkpt>
      <trkpt lat="45.55122" lon="6.20495">
        <ele>294</ele>
        <time>2020-09-14T20:26:59Z</time>
      </trkpt>
      <trkpt lat="45.55119" lon="6.2058">
        <ele>294</ele>
        <time>2020-09-14T20:27:10Z</time>
      </trkpt>
      <trkpt lat="45.55119" lon="6.2067">
        <ele>294</ele>
        <time>2020-09-14T20:27:21Z</time>
      </trkpt>
      <trkpt lat="45.55122" lon="6.2073">
        <ele>294</ele>
        <time>2020-09-14T20:27:28Z</time>
      </trkpt>
      <trkpt lat="45.55129" lon="6.20776">
        <ele>293</ele>
        <time>2020-09-14T20:27:34Z</time>
      </trkpt>
      <trkpt lat="45.55136" lon="6.20838">
        <ele>292</ele>
        <time>2020-09-14T20:27:42Z</time>
      </trkpt>
      <trkpt lat="45.55131" lon="6.20847">
        <ele>291</ele>
        <time>2020-09-14T20:27:44Z</time>
      </trkpt>
      <trkpt lat="45.55131" lon="6.20852">
        <ele>291</ele>
        <time>2020-09-14T20:27:44Z</time>
      </trkpt>
      <trkpt lat="45.55131" lon="6.20854">
        <ele>291</ele>
        <time>2020-09-14T20:27:44Z</time>
      </trkpt>
      <trkpt lat="45.55131" lon="6.20862">
        <ele>291</ele>
        <time>2020-09-14T20:27:45Z</time>
      </trkpt>
      <trkpt lat="45.55137" lon="6.20869">
        <ele>291</ele>
        <time>2020-09-14T20:27:47Z</time>
      </trkpt>
      <trkpt lat="45.55141" lon="6.20871">
        <ele>291</ele>
        <time>2020-09-14T20:27:48Z</time>
      </trkpt>
      <trkpt lat="45.55147" lon="6.20869">
        <ele>291</ele>
        <time>2020-09-14T20:27:49Z</time>
      </trkpt>
      <trkpt lat="45.55157" lon="6.20879">
        <ele>290</ele>
        <time>2020-09-14T20:27:51Z</time>
      </trkpt>
      <trkpt lat="45.55161" lon="6.20891">
        <ele>290</ele>
        <time>2020-09-14T20:27:53Z</time>
      </trkpt>
      <trkpt lat="45.55168" lon="6.20916">
        <ele>289</ele>
        <time>2020-09-14T20:27:56Z</time>
      </trkpt>
      <trkpt lat="45.5521" lon="6.21046">
        <ele>290</ele>
        <time>2020-09-14T20:28:14Z</time>
      </trkpt>
      <trkpt lat="45.55214" lon="6.21177">
        <ele>292</ele>
        <time>2020-09-14T20:28:30Z</time>
      </trkpt>
      <trkpt lat="45.5522" lon="6.21377">
        <ele>290</ele>
        <time>2020-09-14T20:28:55Z</time>
      </trkpt>
      <trkpt lat="45.55217" lon="6.21411">
        <ele>290</ele>
        <time>2020-09-14T20:28:59Z</time>
      </trkpt>
      <trkpt lat="45.55212" lon="6.21435">
        <ele>290</ele>
        <time>2020-09-14T20:29:02Z</time>
      </trkpt>
      <trkpt lat="45.55205" lon="6.21436">
        <ele>290</ele>
        <time>2020-09-14T20:29:04Z</time>
      </trkpt>
      <trkpt lat="45.552" lon="6.21443">
        <ele>290</ele>
        <time>2020-09-14T20:29:05Z</time>
      </trkpt>
      <trkpt lat="45.55198" lon="6.21455">
        <ele>290</ele>
        <time>2020-09-14T20:29:06Z</time>
      </trkpt>
      <trkpt lat="45.55202" lon="6.21464">
        <ele>291</ele>
        <time>2020-09-14T20:29:08Z</time>
      </trkpt>
      <trkpt lat="45.55208" lon="6.21468">
        <ele>291</ele>
        <time>2020-09-14T20:29:09Z</time>
      </trkpt>
      <trkpt lat="45.55211" lon="6.21489">
        <ele>291</ele>
        <time>2020-09-14T20:29:12Z</time>
      </trkpt>
      <trkpt lat="45.55211" lon="6.21522">
        <ele>291</ele>
        <time>2020-09-14T20:29:16Z</time>
      </trkpt>
      <trkpt lat="45.55189" lon="6.21675">
        <ele>291</ele>
        <time>2020-09-14T20:29:35Z</time>
      </trkpt>
      <trkpt lat="45.55186" lon="6.21704">
        <ele>292</ele>
        <time>2020-09-14T20:29:39Z</time>
      </trkpt>
      <trkpt lat="45.55185" lon="6.21832">
        <ele>293</ele>
        <time>2020-09-14T20:29:55Z</time>
      </trkpt>
      <trkpt lat="45.55179" lon="6.21837">
        <ele>293</ele>
        <time>2020-09-14T20:29:56Z</time>
      </trkpt>
      <trkpt lat="45.55178" lon="6.21844">
        <ele>293</ele>
        <time>2020-09-14T20:29:57Z</time>
      </trkpt>
      <trkpt lat="45.5518" lon="6.21851">
        <ele>292</ele>
        <time>2020-09-14T20:29:58Z</time>
      </trkpt>
      <trkpt lat="45.55187" lon="6.21855">
        <ele>292</ele>
        <time>2020-09-14T20:29:59Z</time>
      </trkpt>
      <trkpt lat="45.55191" lon="6.22107">
        <ele>293</ele>
        <time>2020-09-14T20:30:31Z</time>
      </trkpt>
      <trkpt lat="45.55213" lon="6.22527">
        <ele>293</ele>
        <time>2020-09-14T20:31:23Z</time>
      </trkpt>
      <trkpt lat="45.55213" lon="6.22573">
        <ele>293</ele>
        <time>2020-09-14T20:31:29Z</time>
      </trkpt>
      <trkpt lat="45.55206" lon="6.22628">
        <ele>294</ele>
        <time>2020-09-14T20:31:36Z</time>
      </trkpt>
      <trkpt lat="45.55181" lon="6.22767">
        <ele>296</ele>
        <time>2020-09-14T20:31:54Z</time>
      </trkpt>
      <trkpt lat="45.55109" lon="6.23107">
        <ele>296</ele>
        <time>2020-09-14T20:32:38Z</time>
      </trkpt>
      <trkpt lat="45.55045" lon="6.23359">
        <ele>297</ele>
        <time>2020-09-14T20:33:11Z</time>
      </trkpt>
      <trkpt lat="45.55012" lon="6.23462">
        <ele>297</ele>
        <time>2020-09-14T20:33:25Z</time>
      </trkpt>
      <trkpt lat="45.54957" lon="6.23615">
        <ele>298</ele>
        <time>2020-09-14T20:33:47Z</time>
      </trkpt>
      <trkpt lat="45.54909" lon="6.23802">
        <ele>295</ele>
        <time>2020-09-14T20:34:12Z</time>
      </trkpt>
      <trkpt lat="45.54897" lon="6.23855">
        <ele>296</ele>
        <time>2020-09-14T20:34:19Z</time>
      </trkpt>
      <trkpt lat="45.54883" lon="6.23917">
        <ele>297</ele>
        <time>2020-09-14T20:34:27Z</time>
      </trkpt>
      <trkpt lat="45.54877" lon="6.23982">
        <ele>299</ele>
        <time>2020-09-14T20:34:35Z</time>
      </trkpt>
      <trkpt lat="45.54879" lon="6.24029">
        <ele>298</ele>
        <time>2020-09-14T20:34:41Z</time>
      </trkpt>
      <trkpt lat="45.54888" lon="6.24107">
        <ele>298</ele>
        <time>2020-09-14T20:34:51Z</time>
      </trkpt>
      <trkpt lat="45.54912" lon="6.2427">
        <ele>299</ele>
        <time>2020-09-14T20:35:11Z</time>
      </trkpt>
      <trkpt lat="45.5497" lon="6.24589">
        <ele>300</ele>
        <time>2020-09-14T20:35:52Z</time>
      </trkpt>
      <trkpt lat="45.54983" lon="6.2468">
        <ele>301</ele>
        <time>2020-09-14T20:36:04Z</time>
      </trkpt>
      <trkpt lat="45.55013" lon="6.24963">
        <ele>300</ele>
        <time>2020-09-14T20:36:40Z</time>
      </trkpt>
      <trkpt lat="45.55032" lon="6.25076">
        <ele>305</ele>
        <time>2020-09-14T20:36:54Z</time>
      </trkpt>
      <trkpt lat="45.55049" lon="6.25148">
        <ele>307</ele>
        <time>2020-09-14T20:37:04Z</time>
      </trkpt>
      <trkpt lat="45.55072" lon="6.25208">
        <ele>304</ele>
        <time>2020-09-14T20:37:12Z</time>
      </trkpt>
      <trkpt lat="45.55096" lon="6.2525">
        <ele>301</ele>
        <time>2020-09-14T20:37:19Z</time>
      </trkpt>
      <trkpt lat="45.55087" lon="6.25272">
        <ele>303</ele>
        <time>2020-09-14T20:37:22Z</time>
      </trkpt>
      <trkpt lat="45.55089" lon="6.25284">
        <ele>304</ele>
        <time>2020-09-14T20:37:24Z</time>
      </trkpt>
      <trkpt lat="45.55099" lon="6.25297">
        <ele>305</ele>
        <time>2020-09-14T20:37:26Z</time>
      </trkpt>
      <trkpt lat="45.55111" lon="6.25325">
        <ele>306</ele>
        <time>2020-09-14T20:37:30Z</time>
      </trkpt>
      <trkpt lat="45.55142" lon="6.25412">
        <ele>311</ele>
        <time>2020-09-14T20:37:42Z</time>
      </trkpt>
      <trkpt lat="45.55162" lon="6.25488">
        <ele>313</ele>
        <time>2020-09-14T20:37:52Z</time>
      </trkpt>
      <trkpt lat="45.55167" lon="6.2552">
        <ele>313</ele>
        <time>2020-09-14T20:37:56Z</time>
      </trkpt>
      <trkpt lat="45.55179" lon="6.25586">
        <ele>311</ele>
        <time>2020-09-14T20:38:05Z</time>
      </trkpt>
      <trkpt lat="45.55165" lon="6.25642">
        <ele>311</ele>
        <time>2020-09-14T20:38:12Z</time>
      </trkpt>
      <trkpt lat="45.55139" lon="6.25712">
        <ele>310</ele>
        <time>2020-09-14T20:38:22Z</time>
      </trkpt>
      <trkpt lat="45.55093" lon="6.25809">
        <ele>310</ele>
        <time>2020-09-14T20:38:37Z</time>
      </trkpt>
      <trkpt lat="45.55081" lon="6.25862">
        <ele>309</ele>
        <time>2020-09-14T20:38:44Z</time>
      </trkpt>
      <trkpt lat="45.55073" lon="6.25939">
        <ele>310</ele>
        <time>2020-09-14T20:38:53Z</time>
      </trkpt>
      <trkpt lat="45.55079" lon="6.2605">
        <ele>307</ele>
        <time>2020-09-14T20:39:07Z</time>
      </trkpt>
      <trkpt lat="45.55129" lon="6.26389">
        <ele>312</ele>
        <time>2020-09-14T20:39:51Z</time>
      </trkpt>
      <trkpt lat="45.55121" lon="6.26662">
        <ele>319</ele>
        <time>2020-09-14T20:40:25Z</time>
      </trkpt>
      <trkpt lat="45.5511" lon="6.26775">
        <ele>330</ele>
        <time>2020-09-14T20:40:39Z</time>
      </trkpt>
      <trkpt lat="45.55126" lon="6.26848">
        <ele>333</ele>
        <time>2020-09-14T20:40:48Z</time>
      </trkpt>
      <trkpt lat="45.5516" lon="6.2693">
        <ele>324</ele>
        <time>2020-09-14T20:41:00Z</time>
      </trkpt>
      <trkpt lat="45.55176" lon="6.27009">
        <ele>324</ele>
        <time>2020-09-14T20:41:10Z</time>
      </trkpt>
      <trkpt lat="45.55228" lon="6.27376">
        <ele>321</ele>
        <time>2020-09-14T20:41:57Z</time>
      </trkpt>
      <trkpt lat="45.55431" lon="6.28283">
        <ele>322</ele>
        <time>2020-09-14T20:43:56Z</time>
      </trkpt>
      <trkpt lat="45.55436" lon="6.28292">
        <ele>322</ele>
        <time>2020-09-14T20:43:57Z</time>
      </trkpt>
      <trkpt lat="45.5544" lon="6.28293">
        <ele>321</ele>
        <time>2020-09-14T20:43:58Z</time>
      </trkpt>
      <trkpt lat="45.55444" lon="6.28293">
        <ele>321</ele>
        <time>2020-09-14T20:43:59Z</time>
      </trkpt>
      <trkpt lat="45.55462" lon="6.28293">
        <ele>318</ele>
        <time>2020-09-14T20:44:02Z</time>
      </trkpt>
      <trkpt lat="45.55522" lon="6.2829">
        <ele>313</ele>
        <time>2020-09-14T20:44:12Z</time>
      </trkpt>
      <trkpt lat="45.55523" lon="6.28293">
        <ele>313</ele>
        <time>2020-09-14T20:44:13Z</time>
      </trkpt>
      <trkpt lat="45.55525" lon="6.28297">
        <ele>313</ele>
        <time>2020-09-14T20:44:13Z</time>
      </trkpt>
      <trkpt lat="45.55525" lon="6.28322">
        <ele>313</ele>
        <time>2020-09-14T20:44:17Z</time>
      </trkpt>
      <trkpt lat="45.55515" lon="6.28426">
        <ele>314</ele>
        <time>2020-09-14T20:44:30Z</time>
      </trkpt>
      <trkpt lat="45.55503" lon="6.28519">
        <ele>315</ele>
        <time>2020-09-14T20:44:41Z</time>
      </trkpt>
      <trkpt lat="45.55491" lon="6.28578">
        <ele>316</ele>
        <time>2020-09-14T20:44:49Z</time>
      </trkpt>
      <trkpt lat="45.55456" lon="6.28719">
        <ele>319</ele>
        <time>2020-09-14T20:45:08Z</time>
      </trkpt>
      <trkpt lat="45.55449" lon="6.28776">
        <ele>318</ele>
        <time>2020-09-14T20:45:15Z</time>
      </trkpt>
      <trkpt lat="45.55446" lon="6.28796">
        <ele>318</ele>
        <time>2020-09-14T20:45:18Z</time>
      </trkpt>
      <trkpt lat="45.55439" lon="6.28826">
        <ele>318</ele>
        <time>2020-09-14T20:45:21Z</time>
      </trkpt>
      <trkpt lat="45.55434" lon="6.28842">
        <ele>319</ele>
        <time>2020-09-14T20:45:24Z</time>
      </trkpt>
      <trkpt lat="45.55412" lon="6.28892">
        <ele>323</ele>
        <time>2020-09-14T20:45:31Z</time>
      </trkpt>
      <trkpt lat="45.55402" lon="6.2892">
        <ele>326</ele>
        <time>2020-09-14T20:45:35Z</time>
      </trkpt>
      <trkpt lat="45.55399" lon="6.28942">
        <ele>325</ele>
        <time>2020-09-14T20:45:38Z</time>
      </trkpt>
      <trkpt lat="45.554" lon="6.28961">
        <ele>324</ele>
        <time>2020-09-14T20:45:40Z</time>
      </trkpt>
      <trkpt lat="45.55403" lon="6.28974">
        <ele>322</ele>
        <time>2020-09-14T20:45:42Z</time>
      </trkpt>
      <trkpt lat="45.55407" lon="6.28988">
        <ele>321</ele>
        <time>2020-09-14T20:45:44Z</time>
      </trkpt>
      <trkpt lat="45.5542" lon="6.29027">
        <ele>319</ele>
        <time>2020-09-14T20:45:49Z</time>
      </trkpt>
      <trkpt lat="45.55432" lon="6.29052">
        <ele>318</ele>
        <time>2020-09-14T20:45:53Z</time>
      </trkpt>
      <trkpt lat="45.55238" lon="6.29327">
        <ele>319</ele>
        <time>2020-09-14T20:46:41Z</time>
      </trkpt>
      <trkpt lat="45.55214" lon="6.29361">
        <ele>319</ele>
        <time>2020-09-14T20:46:47Z</time>
      </trkpt>
      <trkpt lat="45.55192" lon="6.29395">
        <ele>321</ele>
        <time>2020-09-14T20:46:53Z</time>
      </trkpt>
      <trkpt lat="45.55149" lon="6.29443">
        <ele>321</ele>
        <time>2020-09-14T20:47:03Z</time>
      </trkpt>
      <trkpt lat="45.5512" lon="6.29469">
        <ele>321</ele>
        <time>2020-09-14T20:47:09Z</time>
      </trkpt>
      <trkpt lat="45.55083" lon="6.29496">
        <ele>322</ele>
        <time>2020-09-14T20:47:16Z</time>
      </trkpt>
      <trkpt lat="45.55046" lon="6.29512">
        <ele>321</ele>
        <time>2020-09-14T20:47:23Z</time>
      </trkpt>
      <trkpt lat="45.55002" lon="6.29531">
        <ele>320</ele>
        <time>2020-09-14T20:47:31Z</time>
      </trkpt>
      <trkpt lat="45.54977" lon="6.29542">
        <ele>321</ele>
        <time>2020-09-14T20:47:36Z</time>
      </trkpt>
      <trkpt lat="45.5487" lon="6.29581">
        <ele>324</ele>
        <time>2020-09-14T20:47:56Z</time>
      </trkpt>
      <trkpt lat="45.54815" lon="6.29601">
        <ele>323</ele>
        <time>2020-09-14T20:48:06Z</time>
      </trkpt>
      <trkpt lat="45.54725" lon="6.29635">
        <ele>321</ele>
        <time>2020-09-14T20:48:22Z</time>
      </trkpt>
      <trkpt lat="45.54686" lon="6.29653">
        <ele>320</ele>
        <time>2020-09-14T20:48:30Z</time>
      </trkpt>
      <trkpt lat="45.54664" lon="6.29666">
        <ele>320</ele>
        <time>2020-09-14T20:48:34Z</time>
      </trkpt>
      <trkpt lat="45.5464" lon="6.2968">
        <ele>320</ele>
        <time>2020-09-14T20:48:39Z</time>
      </trkpt>
      <trkpt lat="45.54598" lon="6.29713">
        <ele>319</ele>
        <time>2020-09-14T20:48:47Z</time>
      </trkpt>
      <trkpt lat="45.54571" lon="6.29733">
        <ele>319</ele>
        <time>2020-09-14T20:48:53Z</time>
      </trkpt>
      <trkpt lat="45.54549" lon="6.29757">
        <ele>319</ele>
        <time>2020-09-14T20:48:57Z</time>
      </trkpt>
      <trkpt lat="45.5452" lon="6.29792">
        <ele>319</ele>
        <time>2020-09-14T20:49:04Z</time>
      </trkpt>
      <trkpt lat="45.54515" lon="6.29798">
        <ele>319</ele>
        <time>2020-09-14T20:49:05Z</time>
      </trkpt>
      <trkpt lat="45.54508" lon="6.29807">
        <ele>319</ele>
        <time>2020-09-14T20:49:07Z</time>
      </trkpt>
      <trkpt lat="45.54499" lon="6.29819">
        <ele>319</ele>
        <time>2020-09-14T20:49:09Z</time>
      </trkpt>
      <trkpt lat="45.54482" lon="6.29847">
        <ele>319</ele>
        <time>2020-09-14T20:49:14Z</time>
      </trkpt>
      <trkpt lat="45.54467" lon="6.29874">
        <ele>320</ele>
        <time>2020-09-14T20:49:18Z</time>
      </trkpt>
      <trkpt lat="45.54452" lon="6.29903">
        <ele>320</ele>
        <time>2020-09-14T20:49:23Z</time>
      </trkpt>
      <trkpt lat="45.54442" lon="6.2993">
        <ele>320</ele>
        <time>2020-09-14T20:49:26Z</time>
      </trkpt>
      <trkpt lat="45.54396" lon="6.30046">
        <ele>321</ele>
        <time>2020-09-14T20:49:43Z</time>
      </trkpt>
      <trkpt lat="45.54394" lon="6.30052">
        <ele>321</ele>
        <time>2020-09-14T20:49:44Z</time>
      </trkpt>
      <trkpt lat="45.54368" lon="6.30115">
        <ele>321</ele>
        <time>2020-09-14T20:49:53Z</time>
      </trkpt>
      <trkpt lat="45.54359" lon="6.30137">
        <ele>321</ele>
        <time>2020-09-14T20:49:56Z</time>
      </trkpt>
      <trkpt lat="45.5434" lon="6.30184">
        <ele>322</ele>
        <time>2020-09-14T20:50:03Z</time>
      </trkpt>
      <trkpt lat="45.54321" lon="6.30227">
        <ele>322</ele>
        <time>2020-09-14T20:50:09Z</time>
      </trkpt>
      <trkpt lat="45.5429" lon="6.30297">
        <ele>323</ele>
        <time>2020-09-14T20:50:20Z</time>
      </trkpt>
      <trkpt lat="45.54273" lon="6.30334">
        <ele>323</ele>
        <time>2020-09-14T20:50:25Z</time>
      </trkpt>
      <trkpt lat="45.54227" lon="6.30451">
        <ele>323</ele>
        <time>2020-09-14T20:50:42Z</time>
      </trkpt>
      <trkpt lat="45.54202" lon="6.30505">
        <ele>324</ele>
        <time>2020-09-14T20:50:50Z</time>
      </trkpt>
      <trkpt lat="45.54168" lon="6.3057">
        <ele>326</ele>
        <time>2020-09-14T20:51:00Z</time>
      </trkpt>
      <trkpt lat="45.5415" lon="6.30604">
        <ele>326</ele>
        <time>2020-09-14T20:51:05Z</time>
      </trkpt>
      <trkpt lat="45.54141" lon="6.30626">
        <ele>326</ele>
        <time>2020-09-14T20:51:09Z</time>
      </trkpt>
      <trkpt lat="45.54126" lon="6.3067">
        <ele>326</ele>
        <time>2020-09-14T20:51:15Z</time>
      </trkpt>
      <trkpt lat="45.54123" lon="6.30691">
        <ele>326</ele>
        <time>2020-09-14T20:51:17Z</time>
      </trkpt>
      <trkpt lat="45.54123" lon="6.30704">
        <ele>326</ele>
        <time>2020-09-14T20:51:19Z</time>
      </trkpt>
      <trkpt lat="45.54123" lon="6.30752">
        <ele>326</ele>
        <time>2020-09-14T20:51:25Z</time>
      </trkpt>
      <trkpt lat="45.54126" lon="6.30817">
        <ele>334</ele>
        <time>2020-09-14T20:51:33Z</time>
      </trkpt>
      <trkpt lat="45.54126" lon="6.30833">
        <ele>336</ele>
        <time>2020-09-14T20:51:35Z</time>
      </trkpt>
      <trkpt lat="45.54127" lon="6.30853">
        <ele>337</ele>
        <time>2020-09-14T20:51:37Z</time>
      </trkpt>
      <trkpt lat="45.54128" lon="6.30901">
        <ele>340</ele>
        <time>2020-09-14T20:51:43Z</time>
      </trkpt>
      <trkpt lat="45.54127" lon="6.30954">
        <ele>340</ele>
        <time>2020-09-14T20:51:50Z</time>
      </trkpt>
      <trkpt lat="45.5412" lon="6.31003">
        <ele>340</ele>
        <time>2020-09-14T20:51:56Z</time>
      </trkpt>
      <trkpt lat="45.54105" lon="6.31055">
        <ele>335</ele>
        <time>2020-09-14T20:52:03Z</time>
      </trkpt>
      <trkpt lat="45.54093" lon="6.31082">
        <ele>330</ele>
        <time>2020-09-14T20:52:07Z</time>
      </trkpt>
      <trkpt lat="45.5408" lon="6.31109">
        <ele>330</ele>
        <time>2020-09-14T20:52:11Z</time>
      </trkpt>
      <trkpt lat="45.54054" lon="6.31139">
        <ele>334</ele>
        <time>2020-09-14T20:52:17Z</time>
      </trkpt>
      <trkpt lat="45.53966" lon="6.31214">
        <ele>335</ele>
        <time>2020-09-14T20:52:36Z</time>
      </trkpt>
      <trkpt lat="45.5389" lon="6.31255">
        <ele>332</ele>
        <time>2020-09-14T20:52:50Z</time>
      </trkpt>
      <trkpt lat="45.53823" lon="6.31275">
        <ele>337</ele>
        <time>2020-09-14T20:53:02Z</time>
      </trkpt>
      <trkpt lat="45.53753" lon="6.31288">
        <ele>338</ele>
        <time>2020-09-14T20:53:15Z</time>
      </trkpt>
      <trkpt lat="45.53668" lon="6.31292">
        <ele>342</ele>
        <time>2020-09-14T20:53:30Z</time>
      </trkpt>
      <trkpt lat="45.53409" lon="6.31287">
        <ele>333</ele>
        <time>2020-09-14T20:54:16Z</time>
      </trkpt>
      <trkpt lat="45.53331" lon="6.3128">
        <ele>328</ele>
        <time>2020-09-14T20:54:30Z</time>
      </trkpt>
      <trkpt lat="45.53161" lon="6.31254">
        <ele>328</ele>
        <time>2020-09-14T20:55:00Z</time>
      </trkpt>
      <trkpt lat="45.52804" lon="6.31199">
        <ele>331</ele>
        <time>2020-09-14T20:56:04Z</time>
      </trkpt>
      <trkpt lat="45.52646" lon="6.31173">
        <ele>331</ele>
        <time>2020-09-14T20:56:33Z</time>
      </trkpt>
      <trkpt lat="45.52642" lon="6.31172">
        <ele>331</ele>
        <time>2020-09-14T20:56:33Z</time>
      </trkpt>
      <trkpt lat="45.52563" lon="6.3116">
        <ele>331</ele>
        <time>2020-09-14T20:56:47Z</time>
      </trkpt>
      <trkpt lat="45.52483" lon="6.3115">
        <ele>329</ele>
        <time>2020-09-14T20:57:02Z</time>
      </trkpt>
      <trkpt lat="45.52436" lon="6.31148">
        <ele>330</ele>
        <time>2020-09-14T20:57:10Z</time>
      </trkpt>
      <trkpt lat="45.524" lon="6.31151">
        <ele>331</ele>
        <time>2020-09-14T20:57:16Z</time>
      </trkpt>
      <trkpt lat="45.52357" lon="6.31158">
        <ele>332</ele>
        <time>2020-09-14T20:57:24Z</time>
      </trkpt>
      <trkpt lat="45.52176" lon="6.31194">
        <ele>333</ele>
        <time>2020-09-14T20:57:57Z</time>
      </trkpt>
      <trkpt lat="45.52162" lon="6.31197">
        <ele>333</ele>
        <time>2020-09-14T20:57:59Z</time>
      </trkpt>
      <trkpt lat="45.52085" lon="6.31219">
        <ele>333</ele>
        <time>2020-09-14T20:58:13Z</time>
      </trkpt>
      <trkpt lat="45.52019" lon="6.31243">
        <ele>334</ele>
        <time>2020-09-14T20:58:25Z</time>
      </trkpt>
      <trkpt lat="45.51986" lon="6.31257">
        <ele>334</ele>
        <time>2020-09-14T20:58:31Z</time>
      </trkpt>
      <trkpt lat="45.51925" lon="6.31293">
        <ele>334</ele>
        <time>2020-09-14T20:58:43Z</time>
      </trkpt>
      <trkpt lat="45.51886" lon="6.31312">
        <ele>334</ele>
        <time>2020-09-14T20:58:50Z</time>
      </trkpt>
      <trkpt lat="45.51871" lon="6.31322">
        <ele>334</ele>
        <time>2020-09-14T20:58:53Z</time>
      </trkpt>
      <trkpt lat="45.51863" lon="6.31327">
        <ele>333</ele>
        <time>2020-09-14T20:58:55Z</time>
      </trkpt>
      <trkpt lat="45.51807" lon="6.31363">
        <ele>334</ele>
        <time>2020-09-14T20:59:06Z</time>
      </trkpt>
      <trkpt lat="45.51798" lon="6.31368">
        <ele>334</ele>
        <time>2020-09-14T20:59:08Z</time>
      </trkpt>
      <trkpt lat="45.51748" lon="6.31389">
        <ele>335</ele>
        <time>2020-09-14T20:59:17Z</time>
      </trkpt>
      <trkpt lat="45.51695" lon="6.31396">
        <ele>337</ele>
        <time>2020-09-14T20:59:26Z</time>
      </trkpt>
      <trkpt lat="45.51667" lon="6.31396">
        <ele>338</ele>
        <time>2020-09-14T20:59:31Z</time>
      </trkpt>
      <trkpt lat="45.51637" lon="6.31393">
        <ele>338</ele>
        <time>2020-09-14T20:59:37Z</time>
      </trkpt>
      <trkpt lat="45.5156" lon="6.31376">
        <ele>339</ele>
        <time>2020-09-14T20:59:51Z</time>
      </trkpt>
      <trkpt lat="45.5154" lon="6.31372">
        <ele>339</ele>
        <time>2020-09-14T20:59:54Z</time>
      </trkpt>
      <trkpt lat="45.51384" lon="6.31337">
        <ele>333</ele>
        <time>2020-09-14T21:00:22Z</time>
      </trkpt>
      <trkpt lat="45.51352" lon="6.31325">
        <ele>333</ele>
        <time>2020-09-14T21:00:28Z</time>
      </trkpt>
      <trkpt lat="45.51325" lon="6.31311">
        <ele>333</ele>
        <time>2020-09-14T21:00:33Z</time>
      </trkpt>
      <trkpt lat="45.51269" lon="6.31274">
        <ele>334</ele>
        <time>2020-09-14T21:00:44Z</time>
      </trkpt>
      <trkpt lat="45.50593" lon="6.30768">
        <ele>339</ele>
        <time>2020-09-14T21:03:00Z</time>
      </trkpt>
      <trkpt lat="45.50575" lon="6.30754">
        <ele>338</ele>
        <time>2020-09-14T21:03:04Z</time>
      </trkpt>
      <trkpt lat="45.50297" lon="6.30542">
        <ele>341</ele>
        <time>2020-09-14T21:04:00Z</time>
      </trkpt>
      <trkpt lat="45.50076" lon="6.30378">
        <ele>341</ele>
        <time>2020-09-14T21:04:44Z</time>
      </trkpt>
      <trkpt lat="45.4964" lon="6.30051">
        <ele>345</ele>
        <time>2020-09-14T21:06:12Z</time>
      </trkpt>
      <trkpt lat="45.4955" lon="6.29991">
        <ele>346</ele>
        <time>2020-09-14T21:06:29Z</time>
      </trkpt>
      <trkpt lat="45.49386" lon="6.29904">
        <ele>347</ele>
        <time>2020-09-14T21:07:01Z</time>
      </trkpt>
      <trkpt lat="45.49365" lon="6.29892">
        <ele>347</ele>
        <time>2020-09-14T21:07:05Z</time>
      </trkpt>
      <trkpt lat="45.48824" lon="6.29608">
        <ele>348</ele>
        <time>2020-09-14T21:08:47Z</time>
      </trkpt>
      <trkpt lat="45.48456" lon="6.29412">
        <ele>350</ele>
        <time>2020-09-14T21:09:57Z</time>
      </trkpt>
      <trkpt lat="45.47762" lon="6.29051">
        <ele>355</ele>
        <time>2020-09-14T21:12:08Z</time>
      </trkpt>
      <trkpt lat="45.47693" lon="6.29024">
        <ele>355</ele>
        <time>2020-09-14T21:12:21Z</time>
      </trkpt>
      <trkpt lat="45.47632" lon="6.29007">
        <ele>354</ele>
        <time>2020-09-14T21:12:32Z</time>
      </trkpt>
      <trkpt lat="45.47562" lon="6.29">
        <ele>353</ele>
        <time>2020-09-14T21:12:45Z</time>
      </trkpt>
      <trkpt lat="45.47498" lon="6.29009">
        <ele>354</ele>
        <time>2020-09-14T21:12:56Z</time>
      </trkpt>
      <trkpt lat="45.47259" lon="6.29049">
        <ele>356</ele>
        <time>2020-09-14T21:13:39Z</time>
      </trkpt>
      <trkpt lat="45.46996" lon="6.291">
        <ele>359</ele>
        <time>2020-09-14T21:14:26Z</time>
      </trkpt>
      <trkpt lat="45.4619" lon="6.29241">
        <ele>363</ele>
        <time>2020-09-14T21:16:51Z</time>
      </trkpt>
      <trkpt lat="45.46135" lon="6.29243">
        <ele>364</ele>
        <time>2020-09-14T21:17:01Z</time>
      </trkpt>
      <trkpt lat="45.46036" lon="6.29242">
        <ele>364</ele>
        <time>2020-09-14T21:17:18Z</time>
      </trkpt>
      <trkpt lat="45.46038" lon="6.29265">
        <ele>364</ele>
        <time>2020-09-14T21:17:21Z</time>
      </trkpt>
      <trkpt lat="45.46041" lon="6.29288">
        <ele>364</ele>
        <time>2020-09-14T21:17:24Z</time>
      </trkpt>
      <trkpt lat="45.46041" lon="6.29297">
        <ele>364</ele>
        <time>2020-09-14T21:17:25Z</time>
      </trkpt>
      <trkpt lat="45.46041" lon="6.29303">
        <ele>364</ele>
        <time>2020-09-14T21:17:26Z</time>
      </trkpt>
      <trkpt lat="45.46041" lon="6.29308">
        <ele>364</ele>
        <time>2020-09-14T21:17:26Z</time>
      </trkpt>
      <trkpt lat="45.46037" lon="6.29349">
        <ele>365</ele>
        <time>2020-09-14T21:17:32Z</time>
      </trkpt>
      <trkpt lat="45.46034" lon="6.29362">
        <ele>366</ele>
        <time>2020-09-14T21:17:33Z</time>
      </trkpt>
      <trkpt lat="45.46024" lon="6.29387">
        <ele>367</ele>
        <time>2020-09-14T21:17:37Z</time>
      </trkpt>
      <trkpt lat="45.46017" lon="6.29396">
        <ele>367</ele>
        <time>2020-09-14T21:17:39Z</time>
      </trkpt>
      <trkpt lat="45.46005" lon="6.29406">
        <ele>368</ele>
        <time>2020-09-14T21:17:41Z</time>
      </trkpt>
      <trkpt lat="45.45995" lon="6.29407">
        <ele>369</ele>
        <time>2020-09-14T21:17:43Z</time>
      </trkpt>
      <trkpt lat="45.45989" lon="6.29405">
        <ele>369</ele>
        <time>2020-09-14T21:17:44Z</time>
      </trkpt>
      <trkpt lat="45.45983" lon="6.29401">
        <ele>369</ele>
        <time>2020-09-14T21:17:45Z</time>
      </trkpt>
      <trkpt lat="45.45916" lon="6.2933">
        <ele>368</ele>
        <time>2020-09-14T21:18:00Z</time>
      </trkpt>
      <trkpt lat="45.45892" lon="6.29308">
        <ele>367</ele>
        <time>2020-09-14T21:18:05Z</time>
      </trkpt>
      <trkpt lat="45.45882" lon="6.29303">
        <ele>367</ele>
        <time>2020-09-14T21:18:07Z</time>
      </trkpt>
      <trkpt lat="45.45818" lon="6.29285">
        <ele>367</ele>
        <time>2020-09-14T21:18:19Z</time>
      </trkpt>
      <trkpt lat="45.45804" lon="6.29284">
        <ele>367</ele>
        <time>2020-09-14T21:18:21Z</time>
      </trkpt>
      <trkpt lat="45.45761" lon="6.29292">
        <ele>368</ele>
        <time>2020-09-14T21:18:29Z</time>
      </trkpt>
      <trkpt lat="45.45747" lon="6.29295">
        <ele>369</ele>
        <time>2020-09-14T21:18:31Z</time>
      </trkpt>
      <trkpt lat="45.45613" lon="6.2932">
        <ele>369</ele>
        <time>2020-09-14T21:18:55Z</time>
      </trkpt>
      <trkpt lat="45.45525" lon="6.29333">
        <ele>368</ele>
        <time>2020-09-14T21:19:11Z</time>
      </trkpt>
      <trkpt lat="45.45479" lon="6.29336">
        <ele>367</ele>
        <time>2020-09-14T21:19:19Z</time>
      </trkpt>
      <trkpt lat="45.4547" lon="6.29339">
        <ele>367</ele>
        <time>2020-09-14T21:19:21Z</time>
      </trkpt>
      <trkpt lat="45.4544" lon="6.29379">
        <ele>370</ele>
        <time>2020-09-14T21:19:28Z</time>
      </trkpt>
      <trkpt lat="45.45392" lon="6.29467">
        <ele>373</ele>
        <time>2020-09-14T21:19:42Z</time>
      </trkpt>
      <trkpt lat="45.45373" lon="6.29488">
        <ele>373</ele>
        <time>2020-09-14T21:19:46Z</time>
      </trkpt>
      <trkpt lat="45.45348" lon="6.29507">
        <ele>374</ele>
        <time>2020-09-14T21:19:51Z</time>
      </trkpt>
      <trkpt lat="45.45329" lon="6.2951">
        <ele>374</ele>
        <time>2020-09-14T21:19:55Z</time>
      </trkpt>
      <trkpt lat="45.45297" lon="6.29513">
        <ele>374</ele>
        <time>2020-09-14T21:20:01Z</time>
      </trkpt>
      <trkpt lat="45.45254" lon="6.29496">
        <ele>375</ele>
        <time>2020-09-14T21:20:08Z</time>
      </trkpt>
      <trkpt lat="45.45248" lon="6.29492">
        <ele>375</ele>
        <time>2020-09-14T21:20:10Z</time>
      </trkpt>
      <trkpt lat="45.45245" lon="6.29488">
        <ele>374</ele>
        <time>2020-09-14T21:20:10Z</time>
      </trkpt>
      <trkpt lat="45.4521" lon="6.29451">
        <ele>372</ele>
        <time>2020-09-14T21:20:18Z</time>
      </trkpt>
      <trkpt lat="45.45095" lon="6.29366">
        <ele>372</ele>
        <time>2020-09-14T21:20:41Z</time>
      </trkpt>
      <trkpt lat="45.45079" lon="6.29352">
        <ele>372</ele>
        <time>2020-09-14T21:20:45Z</time>
      </trkpt>
      <trkpt lat="45.45035" lon="6.29321">
        <ele>371</ele>
        <time>2020-09-14T21:20:53Z</time>
      </trkpt>
      <trkpt lat="45.44959" lon="6.29339">
        <ele>371</ele>
        <time>2020-09-14T21:21:07Z</time>
      </trkpt>
      <trkpt lat="45.44938" lon="6.29336">
        <ele>370</ele>
        <time>2020-09-14T21:21:11Z</time>
      </trkpt>
      <trkpt lat="45.44935" lon="6.29328">
        <ele>370</ele>
        <time>2020-09-14T21:21:12Z</time>
      </trkpt>
      <trkpt lat="45.44932" lon="6.29327">
        <ele>370</ele>
        <time>2020-09-14T21:21:12Z</time>
      </trkpt>
      <trkpt lat="45.44929" lon="6.29328">
        <ele>370</ele>
        <time>2020-09-14T21:21:13Z</time>
      </trkpt>
      <trkpt lat="45.44925" lon="6.29335">
        <ele>370</ele>
        <time>2020-09-14T21:21:14Z</time>
      </trkpt>
      <trkpt lat="45.44926" lon="6.2934">
        <ele>371</ele>
        <time>2020-09-14T21:21:15Z</time>
      </trkpt>
      <trkpt lat="45.449" lon="6.29348">
        <ele>372</ele>
        <time>2020-09-14T21:21:19Z</time>
      </trkpt>
      <trkpt lat="45.44884" lon="6.2935">
        <ele>372</ele>
        <time>2020-09-14T21:21:22Z</time>
      </trkpt>
      <trkpt lat="45.44839" lon="6.29351">
        <ele>373</ele>
        <time>2020-09-14T21:21:30Z</time>
      </trkpt>
      <trkpt lat="45.44815" lon="6.29348">
        <ele>373</ele>
        <time>2020-09-14T21:21:35Z</time>
      </trkpt>
      <trkpt lat="45.44797" lon="6.29342">
        <ele>373</ele>
        <time>2020-09-14T21:21:38Z</time>
      </trkpt>
      <trkpt lat="45.44789" lon="6.29338">
        <ele>372</ele>
        <time>2020-09-14T21:21:39Z</time>
      </trkpt>
      <trkpt lat="45.44783" lon="6.29334">
        <ele>372</ele>
        <time>2020-09-14T21:21:41Z</time>
      </trkpt>
      <trkpt lat="45.44606" lon="6.29208">
        <ele>372</ele>
        <time>2020-09-14T21:22:16Z</time>
      </trkpt>
      <trkpt lat="45.4454" lon="6.2916">
        <ele>372</ele>
        <time>2020-09-14T21:22:29Z</time>
      </trkpt>
      <trkpt lat="45.4439" lon="6.29051">
        <ele>372</ele>
        <time>2020-09-14T21:22:59Z</time>
      </trkpt>
      <trkpt lat="45.44237" lon="6.28939">
        <ele>372</ele>
        <time>2020-09-14T21:23:30Z</time>
      </trkpt>
      <trkpt lat="45.4397" lon="6.28746">
        <ele>377</ele>
        <time>2020-09-14T21:24:23Z</time>
      </trkpt>
      <trkpt lat="45.43912" lon="6.28714">
        <ele>381</ele>
        <time>2020-09-14T21:24:34Z</time>
      </trkpt>
      <trkpt lat="45.43893" lon="6.287">
        <ele>382</ele>
        <time>2020-09-14T21:24:38Z</time>
      </trkpt>
      <trkpt lat="45.43869" lon="6.28682">
        <ele>382</ele>
        <time>2020-09-14T21:24:43Z</time>
      </trkpt>
      <trkpt lat="45.43791" lon="6.28615">
        <ele>380</ele>
        <time>2020-09-14T21:24:59Z</time>
      </trkpt>
      <trkpt lat="45.43765" lon="6.28597">
        <ele>380</ele>
        <time>2020-09-14T21:25:04Z</time>
      </trkpt>
      <trkpt lat="45.43714" lon="6.28571">
        <ele>380</ele>
        <time>2020-09-14T21:25:13Z</time>
      </trkpt>
      <trkpt lat="45.43618" lon="6.28532">
        <ele>383</ele>
        <time>2020-09-14T21:25:31Z</time>
      </trkpt>
      <trkpt lat="45.43533" lon="6.28508">
        <ele>389</ele>
        <time>2020-09-14T21:25:47Z</time>
      </trkpt>
      <trkpt lat="45.43511" lon="6.285">
        <ele>391</ele>
        <time>2020-09-14T21:25:51Z</time>
      </trkpt>
      <trkpt lat="45.43459" lon="6.28486">
        <ele>395</ele>
        <time>2020-09-14T21:26:00Z</time>
      </trkpt>
      <trkpt lat="45.43443" lon="6.28475">
        <ele>396</ele>
        <time>2020-09-14T21:26:03Z</time>
      </trkpt>
      <trkpt lat="45.43396" lon="6.2843">
        <ele>399</ele>
        <time>2020-09-14T21:26:13Z</time>
      </trkpt>
      <trkpt lat="45.43361" lon="6.28392">
        <ele>402</ele>
        <time>2020-09-14T21:26:21Z</time>
      </trkpt>
      <trkpt lat="45.43349" lon="6.28382">
        <ele>402</ele>
        <time>2020-09-14T21:26:24Z</time>
      </trkpt>
      <trkpt lat="45.43233" lon="6.28331">
        <ele>413</ele>
        <time>2020-09-14T21:26:45Z</time>
      </trkpt>
      <trkpt lat="45.43194" lon="6.28314">
        <ele>418</ele>
        <time>2020-09-14T21:26:53Z</time>
      </trkpt>
      <trkpt lat="45.43155" lon="6.28293">
        <ele>422</ele>
        <time>2020-09-14T21:27:00Z</time>
      </trkpt>
      <trkpt lat="45.43056" lon="6.28202">
        <ele>428</ele>
        <time>2020-09-14T21:27:21Z</time>
      </trkpt>
      <trkpt lat="45.43013" lon="6.28159">
        <ele>430</ele>
        <time>2020-09-14T21:27:30Z</time>
      </trkpt>
      <trkpt lat="45.42974" lon="6.28109">
        <ele>430</ele>
        <time>2020-09-14T21:27:40Z</time>
      </trkpt>
      <trkpt lat="45.42947" lon="6.28085">
        <ele>431</ele>
        <time>2020-09-14T21:27:45Z</time>
      </trkpt>
      <trkpt lat="45.4292" lon="6.28072">
        <ele>432</ele>
        <time>2020-09-14T21:27:50Z</time>
      </trkpt>
      <trkpt lat="45.42864" lon="6.28072">
        <ele>437</ele>
        <time>2020-09-14T21:28:00Z</time>
      </trkpt>
      <trkpt lat="45.42815" lon="6.28056">
        <ele>438</ele>
        <time>2020-09-14T21:28:09Z</time>
      </trkpt>
      <trkpt lat="45.42773" lon="6.28052">
        <ele>442</ele>
        <time>2020-09-14T21:28:17Z</time>
      </trkpt>
      <trkpt lat="45.42738" lon="6.28053">
        <ele>446</ele>
        <time>2020-09-14T21:28:23Z</time>
      </trkpt>
      <trkpt lat="45.42719" lon="6.28049">
        <ele>448</ele>
        <time>2020-09-14T21:28:26Z</time>
      </trkpt>
      <trkpt lat="45.42661" lon="6.27996">
        <ele>450</ele>
        <time>2020-09-14T21:28:39Z</time>
      </trkpt>
      <trkpt lat="45.42593" lon="6.27947">
        <ele>455</ele>
        <time>2020-09-14T21:28:52Z</time>
      </trkpt>
      <trkpt lat="45.4255" lon="6.2792">
        <ele>456</ele>
        <time>2020-09-14T21:29:01Z</time>
      </trkpt>
      <trkpt lat="45.4247" lon="6.2788">
        <ele>459</ele>
        <time>2020-09-14T21:29:16Z</time>
      </trkpt>
      <trkpt lat="45.42385" lon="6.27819">
        <ele>460</ele>
        <time>2020-09-14T21:29:33Z</time>
      </trkpt>
      <trkpt lat="45.42344" lon="6.27799">
        <ele>462</ele>
        <time>2020-09-14T21:29:40Z</time>
      </trkpt>
      <trkpt lat="45.42304" lon="6.27783">
        <ele>463</ele>
        <time>2020-09-14T21:29:48Z</time>
      </trkpt>
      <trkpt lat="45.42227" lon="6.27743">
        <ele>464</ele>
        <time>2020-09-14T21:30:02Z</time>
      </trkpt>
      <trkpt lat="45.42215" lon="6.27737">
        <ele>464</ele>
        <time>2020-09-14T21:30:05Z</time>
      </trkpt>
      <trkpt lat="45.42174" lon="6.27726">
        <ele>466</ele>
        <time>2020-09-14T21:30:12Z</time>
      </trkpt>
      <trkpt lat="45.42143" lon="6.27714">
        <ele>465</ele>
        <time>2020-09-14T21:30:18Z</time>
      </trkpt>
      <trkpt lat="45.42105" lon="6.277">
        <ele>462</ele>
        <time>2020-09-14T21:30:25Z</time>
      </trkpt>
      <trkpt lat="45.42053" lon="6.27707">
        <ele>462</ele>
        <time>2020-09-14T21:30:34Z</time>
      </trkpt>
      <trkpt lat="45.42045" lon="6.27709">
        <ele>462</ele>
        <time>2020-09-14T21:30:35Z</time>
      </trkpt>
      <trkpt lat="45.42025" lon="6.2772">
        <ele>463</ele>
        <time>2020-09-14T21:30:39Z</time>
      </trkpt>
      <trkpt lat="45.42022" lon="6.27721">
        <ele>463</ele>
        <time>2020-09-14T21:30:40Z</time>
      </trkpt>
      <trkpt lat="45.41998" lon="6.27731">
        <ele>463</ele>
        <time>2020-09-14T21:30:44Z</time>
      </trkpt>
      <trkpt lat="45.4199" lon="6.27736">
        <ele>464</ele>
        <time>2020-09-14T21:30:46Z</time>
      </trkpt>
      <trkpt lat="45.41985" lon="6.2774">
        <ele>464</ele>
        <time>2020-09-14T21:30:47Z</time>
      </trkpt>
      <trkpt lat="45.41977" lon="6.27746">
        <ele>465</ele>
        <time>2020-09-14T21:30:48Z</time>
      </trkpt>
      <trkpt lat="45.41919" lon="6.27765">
        <ele>467</ele>
        <time>2020-09-14T21:30:59Z</time>
      </trkpt>
      <trkpt lat="45.41827" lon="6.27756">
        <ele>460</ele>
        <time>2020-09-14T21:31:15Z</time>
      </trkpt>
      <trkpt lat="45.41756" lon="6.27775">
        <ele>460</ele>
        <time>2020-09-14T21:31:28Z</time>
      </trkpt>
      <trkpt lat="45.41746" lon="6.27778">
        <ele>460</ele>
        <time>2020-09-14T21:31:30Z</time>
      </trkpt>
      <trkpt lat="45.41693" lon="6.27798">
        <ele>459</ele>
        <time>2020-09-14T21:31:40Z</time>
      </trkpt>
      <trkpt lat="45.4167" lon="6.27825">
        <ele>460</ele>
        <time>2020-09-14T21:31:45Z</time>
      </trkpt>
      <trkpt lat="45.41644" lon="6.27844">
        <ele>460</ele>
        <time>2020-09-14T21:31:50Z</time>
      </trkpt>
      <trkpt lat="45.41604" lon="6.27848">
        <ele>457</ele>
        <time>2020-09-14T21:31:57Z</time>
      </trkpt>
      <trkpt lat="45.41572" lon="6.27858">
        <ele>456</ele>
        <time>2020-09-14T21:32:03Z</time>
      </trkpt>
      <trkpt lat="45.41463" lon="6.27948">
        <ele>452</ele>
        <time>2020-09-14T21:32:26Z</time>
      </trkpt>
      <trkpt lat="45.41432" lon="6.27986">
        <ele>452</ele>
        <time>2020-09-14T21:32:33Z</time>
      </trkpt>
      <trkpt lat="45.41389" lon="6.28075">
        <ele>454</ele>
        <time>2020-09-14T21:32:46Z</time>
      </trkpt>
      <trkpt lat="45.41374" lon="6.28099">
        <ele>453</ele>
        <time>2020-09-14T21:32:50Z</time>
      </trkpt>
      <trkpt lat="45.4134" lon="6.28134">
        <ele>451</ele>
        <time>2020-09-14T21:32:58Z</time>
      </trkpt>
      <trkpt lat="45.41311" lon="6.28184">
        <ele>450</ele>
        <time>2020-09-14T21:33:06Z</time>
      </trkpt>
      <trkpt lat="45.41309" lon="6.28188">
        <ele>450</ele>
        <time>2020-09-14T21:33:07Z</time>
      </trkpt>
      <trkpt lat="45.41306" lon="6.28191">
        <ele>450</ele>
        <time>2020-09-14T21:33:07Z</time>
      </trkpt>
      <trkpt lat="45.413" lon="6.28199">
        <ele>450</ele>
        <time>2020-09-14T21:33:09Z</time>
      </trkpt>
      <trkpt lat="45.41291" lon="6.2821">
        <ele>450</ele>
        <time>2020-09-14T21:33:11Z</time>
      </trkpt>
      <trkpt lat="45.41275" lon="6.28222">
        <ele>449</ele>
        <time>2020-09-14T21:33:14Z</time>
      </trkpt>
      <trkpt lat="45.41258" lon="6.28227">
        <ele>448</ele>
        <time>2020-09-14T21:33:17Z</time>
      </trkpt>
      <trkpt lat="45.41218" lon="6.28235">
        <ele>443</ele>
        <time>2020-09-14T21:33:24Z</time>
      </trkpt>
      <trkpt lat="45.41191" lon="6.28254">
        <ele>440</ele>
        <time>2020-09-14T21:33:30Z</time>
      </trkpt>
      <trkpt lat="45.41149" lon="6.28294">
        <ele>436</ele>
        <time>2020-09-14T21:33:39Z</time>
      </trkpt>
      <trkpt lat="45.41104" lon="6.28346">
        <ele>434</ele>
        <time>2020-09-14T21:33:49Z</time>
      </trkpt>
      <trkpt lat="45.41079" lon="6.28354">
        <ele>433</ele>
        <time>2020-09-14T21:33:54Z</time>
      </trkpt>
      <trkpt lat="45.40997" lon="6.28329">
        <ele>426</ele>
        <time>2020-09-14T21:34:08Z</time>
      </trkpt>
      <trkpt lat="45.40959" lon="6.28327">
        <ele>423</ele>
        <time>2020-09-14T21:34:15Z</time>
      </trkpt>
      <trkpt lat="45.40887" lon="6.28333">
        <ele>417</ele>
        <time>2020-09-14T21:34:28Z</time>
      </trkpt>
      <trkpt lat="45.40862" lon="6.28345">
        <ele>416</ele>
        <time>2020-09-14T21:34:33Z</time>
      </trkpt>
      <trkpt lat="45.40817" lon="6.28367">
        <ele>418</ele>
        <time>2020-09-14T21:34:41Z</time>
      </trkpt>
      <trkpt lat="45.40797" lon="6.2837">
        <ele>418</ele>
        <time>2020-09-14T21:34:45Z</time>
      </trkpt>
      <trkpt lat="45.40786" lon="6.2837">
        <ele>418</ele>
        <time>2020-09-14T21:34:47Z</time>
      </trkpt>
      <trkpt lat="45.40705" lon="6.2835">
        <ele>413</ele>
        <time>2020-09-14T21:35:01Z</time>
      </trkpt>
      <trkpt lat="45.40613" lon="6.28324">
        <ele>412</ele>
        <time>2020-09-14T21:35:18Z</time>
      </trkpt>
      <trkpt lat="45.40535" lon="6.28317">
        <ele>415</ele>
        <time>2020-09-14T21:35:32Z</time>
      </trkpt>
      <trkpt lat="45.40511" lon="6.28302">
        <ele>413</ele>
        <time>2020-09-14T21:35:37Z</time>
      </trkpt>
      <trkpt lat="45.40423" lon="6.2823">
        <ele>408</ele>
        <time>2020-09-14T21:35:55Z</time>
      </trkpt>
      <trkpt lat="45.40333" lon="6.2818">
        <ele>412</ele>
        <time>2020-09-14T21:36:12Z</time>
      </trkpt>
      <trkpt lat="45.40308" lon="6.28162">
        <ele>410</ele>
        <time>2020-09-14T21:36:17Z</time>
      </trkpt>
      <trkpt lat="45.40303" lon="6.28166">
        <ele>410</ele>
        <time>2020-09-14T21:36:18Z</time>
      </trkpt>
      <trkpt lat="45.40294" lon="6.28169">
        <ele>410</ele>
        <time>2020-09-14T21:36:20Z</time>
      </trkpt>
      <trkpt lat="45.40267" lon="6.28167">
        <ele>410</ele>
        <time>2020-09-14T21:36:24Z</time>
      </trkpt>
      <trkpt lat="45.40228" lon="6.28164">
        <ele>409</ele>
        <time>2020-09-14T21:36:31Z</time>
      </trkpt>
      <trkpt lat="45.40124" lon="6.2817">
        <ele>410</ele>
        <time>2020-09-14T21:36:50Z</time>
      </trkpt>
      <trkpt lat="45.40023" lon="6.28177">
        <ele>417</ele>
        <time>2020-09-14T21:37:08Z</time>
      </trkpt>
      <trkpt lat="45.40019" lon="6.28177">
        <ele>418</ele>
        <time>2020-09-14T21:37:09Z</time>
      </trkpt>
      <trkpt lat="45.40005" lon="6.28178">
        <ele>419</ele>
        <time>2020-09-14T21:37:11Z</time>
      </trkpt>
      <trkpt lat="45.39987" lon="6.28171">
        <ele>417</ele>
        <time>2020-09-14T21:37:14Z</time>
      </trkpt>
      <trkpt lat="45.3983" lon="6.28086">
        <ele>412</ele>
        <time>2020-09-14T21:37:44Z</time>
      </trkpt>
      <trkpt lat="45.39798" lon="6.28076">
        <ele>412</ele>
        <time>2020-09-14T21:37:50Z</time>
      </trkpt>
      <trkpt lat="45.3972" lon="6.28074">
        <ele>413</ele>
        <time>2020-09-14T21:38:04Z</time>
      </trkpt>
      <trkpt lat="45.39666" lon="6.2807">
        <ele>413</ele>
        <time>2020-09-14T21:38:14Z</time>
      </trkpt>
      <trkpt lat="45.39614" lon="6.28072">
        <ele>414</ele>
        <time>2020-09-14T21:38:23Z</time>
      </trkpt>
      <trkpt lat="45.39588" lon="6.28076">
        <ele>414</ele>
        <time>2020-09-14T21:38:27Z</time>
      </trkpt>
      <trkpt lat="45.39563" lon="6.28084">
        <ele>414</ele>
        <time>2020-09-14T21:38:32Z</time>
      </trkpt>
      <trkpt lat="45.3953" lon="6.28099">
        <ele>414</ele>
        <time>2020-09-14T21:38:38Z</time>
      </trkpt>
      <trkpt lat="45.39491" lon="6.28119">
        <ele>414</ele>
        <time>2020-09-14T21:38:46Z</time>
      </trkpt>
      <trkpt lat="45.39409" lon="6.28152">
        <ele>425</ele>
        <time>2020-09-14T21:39:01Z</time>
      </trkpt>
      <trkpt lat="45.39383" lon="6.28157">
        <ele>431</ele>
        <time>2020-09-14T21:39:05Z</time>
      </trkpt>
      <trkpt lat="45.3934" lon="6.28142">
        <ele>436</ele>
        <time>2020-09-14T21:39:13Z</time>
      </trkpt>
      <trkpt lat="45.39255" lon="6.28086">
        <ele>434</ele>
        <time>2020-09-14T21:39:30Z</time>
      </trkpt>
      <trkpt lat="45.39221" lon="6.28072">
        <ele>434</ele>
        <time>2020-09-14T21:39:36Z</time>
      </trkpt>
      <trkpt lat="45.39179" lon="6.28071">
        <ele>436</ele>
        <time>2020-09-14T21:39:44Z</time>
      </trkpt>
      <trkpt lat="45.39117" lon="6.28059">
        <ele>436</ele>
        <time>2020-09-14T21:39:55Z</time>
      </trkpt>
      <trkpt lat="45.39052" lon="6.28068">
        <ele>442</ele>
        <time>2020-09-14T21:40:06Z</time>
      </trkpt>
      <trkpt lat="45.38983" lon="6.28049">
        <ele>444</ele>
        <time>2020-09-14T21:40:19Z</time>
      </trkpt>
      <trkpt lat="45.38961" lon="6.28034">
        <ele>445</ele>
        <time>2020-09-14T21:40:23Z</time>
      </trkpt>
      <trkpt lat="45.38949" lon="6.28008">
        <ele>440</ele>
        <time>2020-09-14T21:40:27Z</time>
      </trkpt>
      <trkpt lat="45.38934" lon="6.27985">
        <ele>438</ele>
        <time>2020-09-14T21:40:31Z</time>
      </trkpt>
      <trkpt lat="45.38914" lon="6.27969">
        <ele>439</ele>
        <time>2020-09-14T21:40:35Z</time>
      </trkpt>
      <trkpt lat="45.38896" lon="6.27959">
        <ele>443</ele>
        <time>2020-09-14T21:40:39Z</time>
      </trkpt>
      <trkpt lat="45.38856" lon="6.27902">
        <ele>444</ele>
        <time>2020-09-14T21:40:49Z</time>
      </trkpt>
      <trkpt lat="45.38834" lon="6.27868">
        <ele>442</ele>
        <time>2020-09-14T21:40:54Z</time>
      </trkpt>
      <trkpt lat="45.388" lon="6.27822">
        <ele>438</ele>
        <time>2020-09-14T21:41:03Z</time>
      </trkpt>
      <trkpt lat="45.38784" lon="6.27801">
        <ele>437</ele>
        <time>2020-09-14T21:41:07Z</time>
      </trkpt>
      <trkpt lat="45.38779" lon="6.27794">
        <ele>436</ele>
        <time>2020-09-14T21:41:08Z</time>
      </trkpt>
      <trkpt lat="45.38757" lon="6.27751">
        <ele>430</ele>
        <time>2020-09-14T21:41:15Z</time>
      </trkpt>
      <trkpt lat="45.38747" lon="6.27718">
        <ele>427</ele>
        <time>2020-09-14T21:41:19Z</time>
      </trkpt>
      <trkpt lat="45.38738" lon="6.27679">
        <ele>423</ele>
        <time>2020-09-14T21:41:24Z</time>
      </trkpt>
      <trkpt lat="45.38731" lon="6.27683">
        <ele>424</ele>
        <time>2020-09-14T21:41:26Z</time>
      </trkpt>
      <trkpt lat="45.38714" lon="6.27687">
        <ele>425</ele>
        <time>2020-09-14T21:41:29Z</time>
      </trkpt>
      <trkpt lat="45.38664" lon="6.27678">
        <ele>426</ele>
        <time>2020-09-14T21:41:38Z</time>
      </trkpt>
      <trkpt lat="45.38634" lon="6.2768">
        <ele>425</ele>
        <time>2020-09-14T21:41:43Z</time>
      </trkpt>
      <trkpt lat="45.38585" lon="6.2769">
        <ele>422</ele>
        <time>2020-09-14T21:41:52Z</time>
      </trkpt>
      <trkpt lat="45.38471" lon="6.27747">
        <ele>420</ele>
        <time>2020-09-14T21:42:13Z</time>
      </trkpt>
      <trkpt lat="45.38402" lon="6.2779">
        <ele>422</ele>
        <time>2020-09-14T21:42:27Z</time>
      </trkpt>
      <trkpt lat="45.3834" lon="6.27833">
        <ele>421</ele>
        <time>2020-09-14T21:42:39Z</time>
      </trkpt>
      <trkpt lat="45.38278" lon="6.27871">
        <ele>421</ele>
        <time>2020-09-14T21:42:51Z</time>
      </trkpt>
      <trkpt lat="45.38214" lon="6.27916">
        <ele>423</ele>
        <time>2020-09-14T21:43:04Z</time>
      </trkpt>
      <trkpt lat="45.38164" lon="6.27952">
        <ele>424</ele>
        <time>2020-09-14T21:43:14Z</time>
      </trkpt>
      <trkpt lat="45.38158" lon="6.27958">
        <ele>424</ele>
        <time>2020-09-14T21:43:15Z</time>
      </trkpt>
      <trkpt lat="45.38124" lon="6.27988">
        <ele>424</ele>
        <time>2020-09-14T21:43:22Z</time>
      </trkpt>
      <trkpt lat="45.38079" lon="6.28032">
        <ele>424</ele>
        <time>2020-09-14T21:43:32Z</time>
      </trkpt>
      <trkpt lat="45.37938" lon="6.28133">
        <ele>427</ele>
        <time>2020-09-14T21:44:00Z</time>
      </trkpt>
      <trkpt lat="45.37872" lon="6.28177">
        <ele>429</ele>
        <time>2020-09-14T21:44:13Z</time>
      </trkpt>
      <trkpt lat="45.37777" lon="6.28247">
        <ele>429</ele>
        <time>2020-09-14T21:44:32Z</time>
      </trkpt>
      <trkpt lat="45.37721" lon="6.28283">
        <ele>431</ele>
        <time>2020-09-14T21:44:43Z</time>
      </trkpt>
      <trkpt lat="45.37662" lon="6.28326">
        <ele>431</ele>
        <time>2020-09-14T21:44:55Z</time>
      </trkpt>
      <trkpt lat="45.37532" lon="6.2841">
        <ele>433</ele>
        <time>2020-09-14T21:45:20Z</time>
      </trkpt>
      <trkpt lat="45.37427" lon="6.28483">
        <ele>434</ele>
        <time>2020-09-14T21:45:41Z</time>
      </trkpt>
      <trkpt lat="45.37312" lon="6.28567">
        <ele>434</ele>
        <time>2020-09-14T21:46:04Z</time>
      </trkpt>
      <trkpt lat="45.3726" lon="6.28597">
        <ele>433</ele>
        <time>2020-09-14T21:46:14Z</time>
      </trkpt>
      <trkpt lat="45.37189" lon="6.28646">
        <ele>435</ele>
        <time>2020-09-14T21:46:28Z</time>
      </trkpt>
      <trkpt lat="45.3708" lon="6.28725">
        <ele>429</ele>
        <time>2020-09-14T21:46:50Z</time>
      </trkpt>
      <trkpt lat="45.37002" lon="6.28779">
        <ele>431</ele>
        <time>2020-09-14T21:47:05Z</time>
      </trkpt>
      <trkpt lat="45.36967" lon="6.28798">
        <ele>431</ele>
        <time>2020-09-14T21:47:12Z</time>
      </trkpt>
      <trkpt lat="45.36908" lon="6.28822">
        <ele>431</ele>
        <time>2020-09-14T21:47:23Z</time>
      </trkpt>
      <trkpt lat="45.36863" lon="6.28837">
        <ele>432</ele>
        <time>2020-09-14T21:47:31Z</time>
      </trkpt>
      <trkpt lat="45.36822" lon="6.28848">
        <ele>432</ele>
        <time>2020-09-14T21:47:38Z</time>
      </trkpt>
      <trkpt lat="45.36804" lon="6.28858">
        <ele>432</ele>
        <time>2020-09-14T21:47:42Z</time>
      </trkpt>
      <trkpt lat="45.36786" lon="6.28873">
        <ele>432</ele>
        <time>2020-09-14T21:47:45Z</time>
      </trkpt>
      <trkpt lat="45.36765" lon="6.28888">
        <ele>432</ele>
        <time>2020-09-14T21:47:50Z</time>
      </trkpt>
      <trkpt lat="45.36729" lon="6.28908">
        <ele>433</ele>
        <time>2020-09-14T21:47:56Z</time>
      </trkpt>
      <trkpt lat="45.36709" lon="6.28925">
        <ele>433</ele>
        <time>2020-09-14T21:48:01Z</time>
      </trkpt>
      <trkpt lat="45.36659" lon="6.28963">
        <ele>435</ele>
        <time>2020-09-14T21:48:11Z</time>
      </trkpt>
      <trkpt lat="45.36649" lon="6.2897">
        <ele>435</ele>
        <time>2020-09-14T21:48:13Z</time>
      </trkpt>
      <trkpt lat="45.36599" lon="6.29004">
        <ele>438</ele>
        <time>2020-09-14T21:48:22Z</time>
      </trkpt>
      <trkpt lat="45.36595" lon="6.29043">
        <ele>442</ele>
        <time>2020-09-14T21:48:27Z</time>
      </trkpt>
      <trkpt lat="45.36611" lon="6.29075">
        <ele>444</ele>
        <time>2020-09-14T21:48:32Z</time>
      </trkpt>
      <trkpt lat="45.36631" lon="6.29101">
        <ele>445</ele>
        <time>2020-09-14T21:48:37Z</time>
      </trkpt>
      <trkpt lat="45.36661" lon="6.2912">
        <ele>445</ele>
        <time>2020-09-14T21:48:43Z</time>
      </trkpt>
      <trkpt lat="45.36702" lon="6.29139">
        <ele>447</ele>
        <time>2020-09-14T21:48:51Z</time>
      </trkpt>
      <trkpt lat="45.36738" lon="6.29148">
        <ele>447</ele>
        <time>2020-09-14T21:48:57Z</time>
      </trkpt>
      <trkpt lat="45.36767" lon="6.29161">
        <ele>448</ele>
        <time>2020-09-14T21:49:03Z</time>
      </trkpt>
      <trkpt lat="45.36779" lon="6.29193">
        <ele>451</ele>
        <time>2020-09-14T21:49:07Z</time>
      </trkpt>
      <trkpt lat="45.36773" lon="6.29234">
        <ele>453</ele>
        <time>2020-09-14T21:49:12Z</time>
      </trkpt>
      <trkpt lat="45.36756" lon="6.29257">
        <ele>455</ele>
        <time>2020-09-14T21:49:16Z</time>
      </trkpt>
      <trkpt lat="45.36658" lon="6.29341">
        <ele>460</ele>
        <time>2020-09-14T21:49:37Z</time>
      </trkpt>
      <trkpt lat="45.36643" lon="6.29354">
        <ele>460</ele>
        <time>2020-09-14T21:49:40Z</time>
      </trkpt>
      <trkpt lat="45.36586" lon="6.29401">
        <ele>462</ele>
        <time>2020-09-14T21:49:52Z</time>
      </trkpt>
      <trkpt lat="45.36566" lon="6.29417">
        <ele>462</ele>
        <time>2020-09-14T21:49:56Z</time>
      </trkpt>
      <trkpt lat="45.3653" lon="6.29447">
        <ele>463</ele>
        <time>2020-09-14T21:50:03Z</time>
      </trkpt>
      <trkpt lat="45.36496" lon="6.29475">
        <ele>464</ele>
        <time>2020-09-14T21:50:10Z</time>
      </trkpt>
      <trkpt lat="45.36474" lon="6.29495">
        <ele>465</ele>
        <time>2020-09-14T21:50:15Z</time>
      </trkpt>
      <trkpt lat="45.36417" lon="6.29545">
        <ele>466</ele>
        <time>2020-09-14T21:50:27Z</time>
      </trkpt>
      <trkpt lat="45.36354" lon="6.29611">
        <ele>467</ele>
        <time>2020-09-14T21:50:41Z</time>
      </trkpt>
      <trkpt lat="45.3634" lon="6.29627">
        <ele>468</ele>
        <time>2020-09-14T21:50:44Z</time>
      </trkpt>
      <trkpt lat="45.36324" lon="6.2964">
        <ele>469</ele>
        <time>2020-09-14T21:50:47Z</time>
      </trkpt>
      <trkpt lat="45.36309" lon="6.29649">
        <ele>469</ele>
        <time>2020-09-14T21:50:50Z</time>
      </trkpt>
      <trkpt lat="45.36305" lon="6.29652">
        <ele>469</ele>
        <time>2020-09-14T21:50:51Z</time>
      </trkpt>
      <trkpt lat="45.36301" lon="6.2965">
        <ele>469</ele>
        <time>2020-09-14T21:50:52Z</time>
      </trkpt>
      <trkpt lat="45.36293" lon="6.29652">
        <ele>468</ele>
        <time>2020-09-14T21:50:53Z</time>
      </trkpt>
      <trkpt lat="45.3629" lon="6.29655">
        <ele>468</ele>
        <time>2020-09-14T21:50:54Z</time>
      </trkpt>
      <trkpt lat="45.36286" lon="6.29665">
        <ele>469</ele>
        <time>2020-09-14T21:50:55Z</time>
      </trkpt>
      <trkpt lat="45.36286" lon="6.29671">
        <ele>469</ele>
        <time>2020-09-14T21:50:56Z</time>
      </trkpt>
      <trkpt lat="45.36282" lon="6.29686">
        <ele>469</ele>
        <time>2020-09-14T21:50:58Z</time>
      </trkpt>
      <trkpt lat="45.3627" lon="6.29696">
        <ele>469</ele>
        <time>2020-09-14T21:51:00Z</time>
      </trkpt>
      <trkpt lat="45.36258" lon="6.29705">
        <ele>469</ele>
        <time>2020-09-14T21:51:03Z</time>
      </trkpt>
      <trkpt lat="45.36254" lon="6.29708">
        <ele>469</ele>
        <time>2020-09-14T21:51:04Z</time>
      </trkpt>
      <trkpt lat="45.36236" lon="6.29722">
        <ele>469</ele>
        <time>2020-09-14T21:51:07Z</time>
      </trkpt>
      <trkpt lat="45.36232" lon="6.29725">
        <ele>470</ele>
        <time>2020-09-14T21:51:08Z</time>
      </trkpt>
      <trkpt lat="45.36171" lon="6.29772">
        <ele>473</ele>
        <time>2020-09-14T21:51:20Z</time>
      </trkpt>
      <trkpt lat="45.36145" lon="6.29793">
        <ele>473</ele>
        <time>2020-09-14T21:51:26Z</time>
      </trkpt>
      <trkpt lat="45.36083" lon="6.29842">
        <ele>473</ele>
        <time>2020-09-14T21:51:38Z</time>
      </trkpt>
      <trkpt lat="45.36068" lon="6.29854">
        <ele>473</ele>
        <time>2020-09-14T21:51:41Z</time>
      </trkpt>
      <trkpt lat="45.36059" lon="6.2986">
        <ele>473</ele>
        <time>2020-09-14T21:51:43Z</time>
      </trkpt>
      <trkpt lat="45.36052" lon="6.29867">
        <ele>473</ele>
        <time>2020-09-14T21:51:45Z</time>
      </trkpt>
      <trkpt lat="45.36034" lon="6.29883">
        <ele>473</ele>
        <time>2020-09-14T21:51:48Z</time>
      </trkpt>
      <trkpt lat="45.35979" lon="6.29922">
        <ele>473</ele>
        <time>2020-09-14T21:51:59Z</time>
      </trkpt>
      <trkpt lat="45.35969" lon="6.2993">
        <ele>473</ele>
        <time>2020-09-14T21:52:01Z</time>
      </trkpt>
      <trkpt lat="45.35964" lon="6.29933">
        <ele>473</ele>
        <time>2020-09-14T21:52:02Z</time>
      </trkpt>
      <trkpt lat="45.35924" lon="6.29959">
        <ele>473</ele>
        <time>2020-09-14T21:52:10Z</time>
      </trkpt>
      <trkpt lat="45.35922" lon="6.29962">
        <ele>473</ele>
        <time>2020-09-14T21:52:11Z</time>
      </trkpt>
      <trkpt lat="45.35895" lon="6.29981">
        <ele>474</ele>
        <time>2020-09-14T21:52:16Z</time>
      </trkpt>
      <trkpt lat="45.35884" lon="6.29979">
        <ele>473</ele>
        <time>2020-09-14T21:52:18Z</time>
      </trkpt>
      <trkpt lat="45.35879" lon="6.2998">
        <ele>473</ele>
        <time>2020-09-14T21:52:19Z</time>
      </trkpt>
      <trkpt lat="45.35867" lon="6.29987">
        <ele>473</ele>
        <time>2020-09-14T21:52:21Z</time>
      </trkpt>
      <trkpt lat="45.35861" lon="6.29995">
        <ele>473</ele>
        <time>2020-09-14T21:52:23Z</time>
      </trkpt>
      <trkpt lat="45.35856" lon="6.30005">
        <ele>474</ele>
        <time>2020-09-14T21:52:24Z</time>
      </trkpt>
      <trkpt lat="45.35839" lon="6.30021">
        <ele>473</ele>
        <time>2020-09-14T21:52:28Z</time>
      </trkpt>
      <trkpt lat="45.35803" lon="6.30057">
        <ele>472</ele>
        <time>2020-09-14T21:52:36Z</time>
      </trkpt>
      <trkpt lat="45.35796" lon="6.30065">
        <ele>472</ele>
        <time>2020-09-14T21:52:37Z</time>
      </trkpt>
      <trkpt lat="45.35767" lon="6.30092">
        <ele>472</ele>
        <time>2020-09-14T21:52:43Z</time>
      </trkpt>
      <trkpt lat="45.35749" lon="6.30106">
        <ele>472</ele>
        <time>2020-09-14T21:52:47Z</time>
      </trkpt>
      <trkpt lat="45.35716" lon="6.30125">
        <ele>471</ele>
        <time>2020-09-14T21:52:53Z</time>
      </trkpt>
      <trkpt lat="45.35695" lon="6.30145">
        <ele>470</ele>
        <time>2020-09-14T21:52:58Z</time>
      </trkpt>
      <trkpt lat="45.35676" lon="6.30178">
        <ele>468</ele>
        <time>2020-09-14T21:53:03Z</time>
      </trkpt>
      <trkpt lat="45.3567" lon="6.30188">
        <ele>468</ele>
        <time>2020-09-14T21:53:05Z</time>
      </trkpt>
      <trkpt lat="45.35662" lon="6.302">
        <ele>467</ele>
        <time>2020-09-14T21:53:07Z</time>
      </trkpt>
      <trkpt lat="45.3566" lon="6.30204">
        <ele>467</ele>
        <time>2020-09-14T21:53:08Z</time>
      </trkpt>
      <trkpt lat="45.35656" lon="6.30205">
        <ele>466</ele>
        <time>2020-09-14T21:53:08Z</time>
      </trkpt>
      <trkpt lat="45.35653" lon="6.30209">
        <ele>466</ele>
        <time>2020-09-14T21:53:09Z</time>
      </trkpt>
      <trkpt lat="45.35652" lon="6.30213">
        <ele>466</ele>
        <time>2020-09-14T21:53:10Z</time>
      </trkpt>
      <trkpt lat="45.35634" lon="6.30229">
        <ele>465</ele>
        <time>2020-09-14T21:53:13Z</time>
      </trkpt>
      <trkpt lat="45.35624" lon="6.30232">
        <ele>464</ele>
        <time>2020-09-14T21:53:15Z</time>
      </trkpt>
      <trkpt lat="45.35607" lon="6.30237">
        <ele>463</ele>
        <time>2020-09-14T21:53:18Z</time>
      </trkpt>
      <trkpt lat="45.35598" lon="6.30238">
        <ele>463</ele>
        <time>2020-09-14T21:53:20Z</time>
      </trkpt>
      <trkpt lat="45.35583" lon="6.30242">
        <ele>462</ele>
        <time>2020-09-14T21:53:23Z</time>
      </trkpt>
      <trkpt lat="45.35508" lon="6.30256">
        <ele>459</ele>
        <time>2020-09-14T21:53:36Z</time>
      </trkpt>
      <trkpt lat="45.3549" lon="6.3026">
        <ele>458</ele>
        <time>2020-09-14T21:53:39Z</time>
      </trkpt>
      <trkpt lat="45.35485" lon="6.3026">
        <ele>458</ele>
        <time>2020-09-14T21:53:40Z</time>
      </trkpt>
      <trkpt lat="45.35455" lon="6.30264">
        <ele>456</ele>
        <time>2020-09-14T21:53:46Z</time>
      </trkpt>
      <trkpt lat="45.35367" lon="6.3028">
        <ele>452</ele>
        <time>2020-09-14T21:54:01Z</time>
      </trkpt>
      <trkpt lat="45.35354" lon="6.30284">
        <ele>451</ele>
        <time>2020-09-14T21:54:04Z</time>
      </trkpt>
      <trkpt lat="45.35352" lon="6.3028">
        <ele>451</ele>
        <time>2020-09-14T21:54:04Z</time>
      </trkpt>
      <trkpt lat="45.3535" lon="6.30278">
        <ele>450</ele>
        <time>2020-09-14T21:54:05Z</time>
      </trkpt>
      <trkpt lat="45.35347" lon="6.30277">
        <ele>450</ele>
        <time>2020-09-14T21:54:05Z</time>
      </trkpt>
      <trkpt lat="45.35344" lon="6.30279">
        <ele>450</ele>
        <time>2020-09-14T21:54:06Z</time>
      </trkpt>
      <trkpt lat="45.35341" lon="6.30283">
        <ele>450</ele>
        <time>2020-09-14T21:54:07Z</time>
      </trkpt>
      <trkpt lat="45.35341" lon="6.30289">
        <ele>450</ele>
        <time>2020-09-14T21:54:07Z</time>
      </trkpt>
      <trkpt lat="45.35333" lon="6.30293">
        <ele>450</ele>
        <time>2020-09-14T21:54:09Z</time>
      </trkpt>
      <trkpt lat="45.35316" lon="6.30303">
        <ele>450</ele>
        <time>2020-09-14T21:54:12Z</time>
      </trkpt>
      <trkpt lat="45.35307" lon="6.30307">
        <ele>449</ele>
        <time>2020-09-14T21:54:14Z</time>
      </trkpt>
      <trkpt lat="45.35301" lon="6.30318">
        <ele>449</ele>
        <time>2020-09-14T21:54:16Z</time>
      </trkpt>
      <trkpt lat="45.35295" lon="6.3033">
        <ele>449</ele>
        <time>2020-09-14T21:54:17Z</time>
      </trkpt>
      <trkpt lat="45.35281" lon="6.30373">
        <ele>450</ele>
        <time>2020-09-14T21:54:23Z</time>
      </trkpt>
      <trkpt lat="45.35266" lon="6.30397">
        <ele>449</ele>
        <time>2020-09-14T21:54:27Z</time>
      </trkpt>
      <trkpt lat="45.35261" lon="6.30401">
        <ele>449</ele>
        <time>2020-09-14T21:54:28Z</time>
      </trkpt>
      <trkpt lat="45.3523" lon="6.30412">
        <ele>449</ele>
        <time>2020-09-14T21:54:34Z</time>
      </trkpt>
      <trkpt lat="45.3519" lon="6.30458">
        <ele>449</ele>
        <time>2020-09-14T21:54:43Z</time>
      </trkpt>
      <trkpt lat="45.3518" lon="6.30476">
        <ele>449</ele>
        <time>2020-09-14T21:54:46Z</time>
      </trkpt>
      <trkpt lat="45.35173" lon="6.30486">
        <ele>448</ele>
        <time>2020-09-14T21:54:48Z</time>
      </trkpt>
      <trkpt lat="45.35165" lon="6.30494">
        <ele>448</ele>
        <time>2020-09-14T21:54:50Z</time>
      </trkpt>
      <trkpt lat="45.35158" lon="6.30497">
        <ele>448</ele>
        <time>2020-09-14T21:54:51Z</time>
      </trkpt>
      <trkpt lat="45.35154" lon="6.30503">
        <ele>448</ele>
        <time>2020-09-14T21:54:52Z</time>
      </trkpt>
      <trkpt lat="45.35153" lon="6.30507">
        <ele>448</ele>
        <time>2020-09-14T21:54:52Z</time>
      </trkpt>
      <trkpt lat="45.35139" lon="6.30526">
        <ele>449</ele>
        <time>2020-09-14T21:54:56Z</time>
      </trkpt>
      <trkpt lat="45.35128" lon="6.30533">
        <ele>449</ele>
        <time>2020-09-14T21:54:58Z</time>
      </trkpt>
      <trkpt lat="45.35093" lon="6.30573">
        <ele>449</ele>
        <time>2020-09-14T21:55:06Z</time>
      </trkpt>
      <trkpt lat="45.35044" lon="6.3064">
        <ele>450</ele>
        <time>2020-09-14T21:55:18Z</time>
      </trkpt>
      <trkpt lat="45.35032" lon="6.30652">
        <ele>449</ele>
        <time>2020-09-14T21:55:21Z</time>
      </trkpt>
      <trkpt lat="45.35018" lon="6.30659">
        <ele>449</ele>
        <time>2020-09-14T21:55:23Z</time>
      </trkpt>
      <trkpt lat="45.34998" lon="6.3066">
        <ele>448</ele>
        <time>2020-09-14T21:55:27Z</time>
      </trkpt>
      <trkpt lat="45.34988" lon="6.30657">
        <ele>449</ele>
        <time>2020-09-14T21:55:29Z</time>
      </trkpt>
      <trkpt lat="45.34976" lon="6.3065">
        <ele>449</ele>
        <time>2020-09-14T21:55:31Z</time>
      </trkpt>
      <trkpt lat="45.3496" lon="6.30633">
        <ele>449</ele>
        <time>2020-09-14T21:55:35Z</time>
      </trkpt>
      <trkpt lat="45.34948" lon="6.30619">
        <ele>450</ele>
        <time>2020-09-14T21:55:37Z</time>
      </trkpt>
      <trkpt lat="45.3494" lon="6.30611">
        <ele>450</ele>
        <time>2020-09-14T21:55:39Z</time>
      </trkpt>
      <trkpt lat="45.34932" lon="6.30608">
        <ele>450</ele>
        <time>2020-09-14T21:55:41Z</time>
      </trkpt>
      <trkpt lat="45.34924" lon="6.30607">
        <ele>450</ele>
        <time>2020-09-14T21:55:42Z</time>
      </trkpt>
      <trkpt lat="45.34912" lon="6.30611">
        <ele>450</ele>
        <time>2020-09-14T21:55:44Z</time>
      </trkpt>
      <trkpt lat="45.34885" lon="6.30625">
        <ele>450</ele>
        <time>2020-09-14T21:55:49Z</time>
      </trkpt>
      <trkpt lat="45.34859" lon="6.30642">
        <ele>449</ele>
        <time>2020-09-14T21:55:54Z</time>
      </trkpt>
      <trkpt lat="45.34841" lon="6.30649">
        <ele>449</ele>
        <time>2020-09-14T21:55:58Z</time>
      </trkpt>
      <trkpt lat="45.34832" lon="6.3065">
        <ele>449</ele>
        <time>2020-09-14T21:55:59Z</time>
      </trkpt>
      <trkpt lat="45.34828" lon="6.30648">
        <ele>449</ele>
        <time>2020-09-14T21:56:00Z</time>
      </trkpt>
      <trkpt lat="45.34823" lon="6.30641">
        <ele>449</ele>
        <time>2020-09-14T21:56:01Z</time>
      </trkpt>
      <trkpt lat="45.34823" lon="6.30631">
        <ele>449</ele>
        <time>2020-09-14T21:56:03Z</time>
      </trkpt>
      <trkpt lat="45.3482" lon="6.30624">
        <ele>449</ele>
        <time>2020-09-14T21:56:04Z</time>
      </trkpt>
      <trkpt lat="45.34811" lon="6.30614">
        <ele>449</ele>
        <time>2020-09-14T21:56:06Z</time>
      </trkpt>
      <trkpt lat="45.34806" lon="6.30611">
        <ele>449</ele>
        <time>2020-09-14T21:56:07Z</time>
      </trkpt>
      <trkpt lat="45.34798" lon="6.30612">
        <ele>449</ele>
        <time>2020-09-14T21:56:08Z</time>
      </trkpt>
      <trkpt lat="45.34793" lon="6.30615">
        <ele>449</ele>
        <time>2020-09-14T21:56:09Z</time>
      </trkpt>
      <trkpt lat="45.34789" lon="6.30619">
        <ele>449</ele>
        <time>2020-09-14T21:56:10Z</time>
      </trkpt>
      <trkpt lat="45.34784" lon="6.3063">
        <ele>449</ele>
        <time>2020-09-14T21:56:12Z</time>
      </trkpt>
      <trkpt lat="45.34773" lon="6.30641">
        <ele>449</ele>
        <time>2020-09-14T21:56:14Z</time>
      </trkpt>
      <trkpt lat="45.34759" lon="6.30653">
        <ele>450</ele>
        <time>2020-09-14T21:56:17Z</time>
      </trkpt>
      <trkpt lat="45.34715" lon="6.30681">
        <ele>450</ele>
        <time>2020-09-14T21:56:25Z</time>
      </trkpt>
      <trkpt lat="45.34506" lon="6.30806">
        <ele>452</ele>
        <time>2020-09-14T21:57:06Z</time>
      </trkpt>
      <trkpt lat="45.33564" lon="6.3135">
        <ele>461</ele>
        <time>2020-09-14T22:00:07Z</time>
      </trkpt>
      <trkpt lat="45.33361" lon="6.3147">
        <ele>465</ele>
        <time>2020-09-14T22:00:46Z</time>
      </trkpt>
      <trkpt lat="45.33331" lon="6.31488">
        <ele>464</ele>
        <time>2020-09-14T22:00:52Z</time>
      </trkpt>
      <trkpt lat="45.33216" lon="6.3157">
        <ele>467</ele>
        <time>2020-09-14T22:01:14Z</time>
      </trkpt>
      <trkpt lat="45.32887" lon="6.31819">
        <ele>469</ele>
        <time>2020-09-14T22:02:21Z</time>
      </trkpt>
      <trkpt lat="45.32721" lon="6.31915">
        <ele>472</ele>
        <time>2020-09-14T22:02:53Z</time>
      </trkpt>
      <trkpt lat="45.32642" lon="6.31947">
        <ele>475</ele>
        <time>2020-09-14T22:03:07Z</time>
      </trkpt>
      <trkpt lat="45.32515" lon="6.31985">
        <ele>474</ele>
        <time>2020-09-14T22:03:30Z</time>
      </trkpt>
      <trkpt lat="45.32362" lon="6.32037">
        <ele>477</ele>
        <time>2020-09-14T22:03:58Z</time>
      </trkpt>
      <trkpt lat="45.32217" lon="6.32082">
        <ele>486</ele>
        <time>2020-09-14T22:04:25Z</time>
      </trkpt>
      <trkpt lat="45.32106" lon="6.3209">
        <ele>482</ele>
        <time>2020-09-14T22:04:44Z</time>
      </trkpt>
      <trkpt lat="45.3208" lon="6.32096">
        <ele>482</ele>
        <time>2020-09-14T22:04:49Z</time>
      </trkpt>
      <trkpt lat="45.3206" lon="6.32109">
        <ele>484</ele>
        <time>2020-09-14T22:04:53Z</time>
      </trkpt>
      <trkpt lat="45.32043" lon="6.3213">
        <ele>486</ele>
        <time>2020-09-14T22:04:57Z</time>
      </trkpt>
      <trkpt lat="45.32027" lon="6.32164">
        <ele>486</ele>
        <time>2020-09-14T22:05:02Z</time>
      </trkpt>
      <trkpt lat="45.32016" lon="6.32197">
        <ele>487</ele>
        <time>2020-09-14T22:05:07Z</time>
      </trkpt>
      <trkpt lat="45.32005" lon="6.32239">
        <ele>488</ele>
        <time>2020-09-14T22:05:12Z</time>
      </trkpt>
      <trkpt lat="45.31995" lon="6.32328">
        <ele>487</ele>
        <time>2020-09-14T22:05:24Z</time>
      </trkpt>
      <trkpt lat="45.31982" lon="6.32379">
        <ele>487</ele>
        <time>2020-09-14T22:05:30Z</time>
      </trkpt>
      <trkpt lat="45.31926" lon="6.32529">
        <ele>485</ele>
        <time>2020-09-14T22:05:52Z</time>
      </trkpt>
      <trkpt lat="45.3187" lon="6.32655">
        <ele>484</ele>
        <time>2020-09-14T22:06:10Z</time>
      </trkpt>
      <trkpt lat="45.31748" lon="6.32885">
        <ele>481</ele>
        <time>2020-09-14T22:06:46Z</time>
      </trkpt>
      <trkpt lat="45.3168" lon="6.33025">
        <ele>482</ele>
        <time>2020-09-14T22:07:08Z</time>
      </trkpt>
      <trkpt lat="45.31619" lon="6.33185">
        <ele>482</ele>
        <time>2020-09-14T22:07:30Z</time>
      </trkpt>
      <trkpt lat="45.31507" lon="6.33455">
        <ele>488</ele>
        <time>2020-09-14T22:08:10Z</time>
      </trkpt>
      <trkpt lat="45.31489" lon="6.33501">
        <ele>489</ele>
        <time>2020-09-14T22:08:16Z</time>
      </trkpt>
      <trkpt lat="45.31442" lon="6.33618">
        <ele>490</ele>
        <time>2020-09-14T22:08:33Z</time>
      </trkpt>
      <trkpt lat="45.31431" lon="6.33641">
        <ele>490</ele>
        <time>2020-09-14T22:08:37Z</time>
      </trkpt>
      <trkpt lat="45.31368" lon="6.33762">
        <ele>492</ele>
        <time>2020-09-14T22:08:55Z</time>
      </trkpt>
      <trkpt lat="45.31333" lon="6.33827">
        <ele>495</ele>
        <time>2020-09-14T22:09:06Z</time>
      </trkpt>
      <trkpt lat="45.31296" lon="6.33888">
        <ele>493</ele>
        <time>2020-09-14T22:09:16Z</time>
      </trkpt>
      <trkpt lat="45.31286" lon="6.33904">
        <ele>493</ele>
        <time>2020-09-14T22:09:18Z</time>
      </trkpt>
      <trkpt lat="45.31243" lon="6.33968">
        <ele>494</ele>
        <time>2020-09-14T22:09:30Z</time>
      </trkpt>
      <trkpt lat="45.31178" lon="6.34047">
        <ele>497</ele>
        <time>2020-09-14T22:09:45Z</time>
      </trkpt>
      <trkpt lat="45.31164" lon="6.34062">
        <ele>497</ele>
        <time>2020-09-14T22:09:48Z</time>
      </trkpt>
      <trkpt lat="45.30154" lon="6.35201">
        <ele>507</ele>
        <time>2020-09-14T22:13:37Z</time>
      </trkpt>
      <trkpt lat="45.30003" lon="6.35318">
        <ele>509</ele>
        <time>2020-09-14T22:14:08Z</time>
      </trkpt>
      <trkpt lat="45.29923" lon="6.35367">
        <ele>512</ele>
        <time>2020-09-14T22:14:23Z</time>
      </trkpt>
      <trkpt lat="45.29783" lon="6.35437">
        <ele>514</ele>
        <time>2020-09-14T22:14:50Z</time>
      </trkpt>
      <trkpt lat="45.29773" lon="6.35441">
        <ele>514</ele>
        <time>2020-09-14T22:14:52Z</time>
      </trkpt>
      <trkpt lat="45.29721" lon="6.35462">
        <ele>515</ele>
        <time>2020-09-14T22:15:01Z</time>
      </trkpt>
      <trkpt lat="45.2971" lon="6.35466">
        <ele>515</ele>
        <time>2020-09-14T22:15:03Z</time>
      </trkpt>
      <trkpt lat="45.29686" lon="6.35475">
        <ele>515</ele>
        <time>2020-09-14T22:15:08Z</time>
      </trkpt>
      <trkpt lat="45.2967" lon="6.35481">
        <ele>516</ele>
        <time>2020-09-14T22:15:11Z</time>
      </trkpt>
      <trkpt lat="45.29631" lon="6.35491">
        <ele>517</ele>
        <time>2020-09-14T22:15:18Z</time>
      </trkpt>
      <trkpt lat="45.29552" lon="6.35507">
        <ele>518</ele>
        <time>2020-09-14T22:15:32Z</time>
      </trkpt>
      <trkpt lat="45.29488" lon="6.35514">
        <ele>517</ele>
        <time>2020-09-14T22:15:43Z</time>
      </trkpt>
      <trkpt lat="45.29382" lon="6.3551">
        <ele>519</ele>
        <time>2020-09-14T22:16:02Z</time>
      </trkpt>
      <trkpt lat="45.28971" lon="6.35461">
        <ele>519</ele>
        <time>2020-09-14T22:17:15Z</time>
      </trkpt>
      <trkpt lat="45.28908" lon="6.35451">
        <ele>519</ele>
        <time>2020-09-14T22:17:27Z</time>
      </trkpt>
      <trkpt lat="45.28875" lon="6.35443">
        <ele>519</ele>
        <time>2020-09-14T22:17:33Z</time>
      </trkpt>
      <trkpt lat="45.28798" lon="6.35419">
        <ele>520</ele>
        <time>2020-09-14T22:17:47Z</time>
      </trkpt>
      <trkpt lat="45.28752" lon="6.35408">
        <ele>520</ele>
        <time>2020-09-14T22:17:55Z</time>
      </trkpt>
      <trkpt lat="45.28712" lon="6.35407">
        <ele>521</ele>
        <time>2020-09-14T22:18:02Z</time>
      </trkpt>
      <trkpt lat="45.28697" lon="6.35408">
        <ele>521</ele>
        <time>2020-09-14T22:18:05Z</time>
      </trkpt>
      <trkpt lat="45.2868" lon="6.35411">
        <ele>522</ele>
        <time>2020-09-14T22:18:08Z</time>
      </trkpt>
      <trkpt lat="45.28638" lon="6.35426">
        <ele>522</ele>
        <time>2020-09-14T22:18:16Z</time>
      </trkpt>
      <trkpt lat="45.28543" lon="6.35472">
        <ele>523</ele>
        <time>2020-09-14T22:18:33Z</time>
      </trkpt>
      <trkpt lat="45.28225" lon="6.3564">
        <ele>525</ele>
        <time>2020-09-14T22:19:34Z</time>
      </trkpt>
      <trkpt lat="45.28204" lon="6.3565">
        <ele>526</ele>
        <time>2020-09-14T22:19:38Z</time>
      </trkpt>
      <trkpt lat="45.28166" lon="6.35662">
        <ele>528</ele>
        <time>2020-09-14T22:19:45Z</time>
      </trkpt>
      <trkpt lat="45.28121" lon="6.35671">
        <ele>528</ele>
        <time>2020-09-14T22:19:53Z</time>
      </trkpt>
      <trkpt lat="45.28108" lon="6.35671">
        <ele>528</ele>
        <time>2020-09-14T22:19:55Z</time>
      </trkpt>
      <trkpt lat="45.28033" lon="6.35653">
        <ele>528</ele>
        <time>2020-09-14T22:20:09Z</time>
      </trkpt>
      <trkpt lat="45.28009" lon="6.35654">
        <ele>528</ele>
        <time>2020-09-14T22:20:13Z</time>
      </trkpt>
      <trkpt lat="45.28" lon="6.35657">
        <ele>528</ele>
        <time>2020-09-14T22:20:15Z</time>
      </trkpt>
      <trkpt lat="45.27972" lon="6.35671">
        <ele>529</ele>
        <time>2020-09-14T22:20:20Z</time>
      </trkpt>
      <trkpt lat="45.27948" lon="6.35686">
        <ele>530</ele>
        <time>2020-09-14T22:20:24Z</time>
      </trkpt>
      <trkpt lat="45.27924" lon="6.35706">
        <ele>532</ele>
        <time>2020-09-14T22:20:29Z</time>
      </trkpt>
      <trkpt lat="45.27899" lon="6.35732">
        <ele>533</ele>
        <time>2020-09-14T22:20:35Z</time>
      </trkpt>
      <trkpt lat="45.2782" lon="6.35811">
        <ele>538</ele>
        <time>2020-09-14T22:20:52Z</time>
      </trkpt>
      <trkpt lat="45.27734" lon="6.35897">
        <ele>539</ele>
        <time>2020-09-14T22:21:11Z</time>
      </trkpt>
      <trkpt lat="45.27719" lon="6.3591">
        <ele>539</ele>
        <time>2020-09-14T22:21:14Z</time>
      </trkpt>
      <trkpt lat="45.27706" lon="6.35919">
        <ele>538</ele>
        <time>2020-09-14T22:21:17Z</time>
      </trkpt>
      <trkpt lat="45.27692" lon="6.35927">
        <ele>537</ele>
        <time>2020-09-14T22:21:19Z</time>
      </trkpt>
      <trkpt lat="45.27678" lon="6.35932">
        <ele>536</ele>
        <time>2020-09-14T22:21:22Z</time>
      </trkpt>
      <trkpt lat="45.27583" lon="6.35953">
        <ele>535</ele>
        <time>2020-09-14T22:21:39Z</time>
      </trkpt>
      <trkpt lat="45.27566" lon="6.3596">
        <ele>535</ele>
        <time>2020-09-14T22:21:42Z</time>
      </trkpt>
      <trkpt lat="45.27554" lon="6.35969">
        <ele>536</ele>
        <time>2020-09-14T22:21:44Z</time>
      </trkpt>
      <trkpt lat="45.27543" lon="6.35986">
        <ele>536</ele>
        <time>2020-09-14T22:21:47Z</time>
      </trkpt>
      <trkpt lat="45.275" lon="6.36071">
        <ele>537</ele>
        <time>2020-09-14T22:22:00Z</time>
      </trkpt>
      <trkpt lat="45.27439" lon="6.36198">
        <ele>538</ele>
        <time>2020-09-14T22:22:20Z</time>
      </trkpt>
      <trkpt lat="45.27255" lon="6.3658">
        <ele>539</ele>
        <time>2020-09-14T22:23:18Z</time>
      </trkpt>
      <trkpt lat="45.27083" lon="6.36949">
        <ele>539</ele>
        <time>2020-09-14T22:24:13Z</time>
      </trkpt>
      <trkpt lat="45.26822" lon="6.37484">
        <ele>548</ele>
        <time>2020-09-14T22:25:35Z</time>
      </trkpt>
      <trkpt lat="45.26771" lon="6.37595">
        <ele>550</ele>
        <time>2020-09-14T22:25:51Z</time>
      </trkpt>
      <trkpt lat="45.26764" lon="6.37613">
        <ele>550</ele>
        <time>2020-09-14T22:25:54Z</time>
      </trkpt>
      <trkpt lat="45.26755" lon="6.37644">
        <ele>550</ele>
        <time>2020-09-14T22:25:58Z</time>
      </trkpt>
      <trkpt lat="45.26749" lon="6.37681">
        <ele>550</ele>
        <time>2020-09-14T22:26:03Z</time>
      </trkpt>
      <trkpt lat="45.26738" lon="6.37799">
        <ele>552</ele>
        <time>2020-09-14T22:26:18Z</time>
      </trkpt>
      <trkpt lat="45.26728" lon="6.37856">
        <ele>552</ele>
        <time>2020-09-14T22:26:25Z</time>
      </trkpt>
      <trkpt lat="45.26703" lon="6.37955">
        <ele>552</ele>
        <time>2020-09-14T22:26:38Z</time>
      </trkpt>
      <trkpt lat="45.26695" lon="6.37992">
        <ele>554</ele>
        <time>2020-09-14T22:26:43Z</time>
      </trkpt>
      <trkpt lat="45.2667" lon="6.38089">
        <ele>560</ele>
        <time>2020-09-14T22:26:56Z</time>
      </trkpt>
      <trkpt lat="45.26667" lon="6.38099">
        <ele>560</ele>
        <time>2020-09-14T22:26:57Z</time>
      </trkpt>
      <trkpt lat="45.26653" lon="6.38112">
        <ele>559</ele>
        <time>2020-09-14T22:27:00Z</time>
      </trkpt>
      <trkpt lat="45.2665" lon="6.38112">
        <ele>559</ele>
        <time>2020-09-14T22:27:01Z</time>
      </trkpt>
      <trkpt lat="45.26648" lon="6.38113">
        <ele>559</ele>
        <time>2020-09-14T22:27:01Z</time>
      </trkpt>
      <trkpt lat="45.26646" lon="6.38116">
        <ele>559</ele>
        <time>2020-09-14T22:27:02Z</time>
      </trkpt>
      <trkpt lat="45.26645" lon="6.38119">
        <ele>559</ele>
        <time>2020-09-14T22:27:02Z</time>
      </trkpt>
      <trkpt lat="45.26645" lon="6.38123">
        <ele>559</ele>
        <time>2020-09-14T22:27:03Z</time>
      </trkpt>
      <trkpt lat="45.26648" lon="6.38128">
        <ele>559</ele>
        <time>2020-09-14T22:27:03Z</time>
      </trkpt>
      <trkpt lat="45.2665" lon="6.3813">
        <ele>559</ele>
        <time>2020-09-14T22:27:04Z</time>
      </trkpt>
      <trkpt lat="45.26649" lon="6.38146">
        <ele>558</ele>
        <time>2020-09-14T22:27:06Z</time>
      </trkpt>
      <trkpt lat="45.26648" lon="6.38149">
        <ele>558</ele>
        <time>2020-09-14T22:27:06Z</time>
      </trkpt>
      <trkpt lat="45.26641" lon="6.38187">
        <ele>558</ele>
        <time>2020-09-14T22:27:11Z</time>
      </trkpt>
      <trkpt lat="45.26639" lon="6.38208">
        <ele>558</ele>
        <time>2020-09-14T22:27:14Z</time>
      </trkpt>
      <trkpt lat="45.26639" lon="6.38228">
        <ele>558</ele>
        <time>2020-09-14T22:27:16Z</time>
      </trkpt>
      <trkpt lat="45.26637" lon="6.38329">
        <ele>562</ele>
        <time>2020-09-14T22:27:29Z</time>
      </trkpt>
      <trkpt lat="45.26636" lon="6.38338">
        <ele>563</ele>
        <time>2020-09-14T22:27:30Z</time>
      </trkpt>
      <trkpt lat="45.26635" lon="6.38345">
        <ele>563</ele>
        <time>2020-09-14T22:27:31Z</time>
      </trkpt>
      <trkpt lat="45.26634" lon="6.38355">
        <ele>565</ele>
        <time>2020-09-14T22:27:32Z</time>
      </trkpt>
      <trkpt lat="45.26621" lon="6.38394">
        <ele>569</ele>
        <time>2020-09-14T22:27:38Z</time>
      </trkpt>
      <trkpt lat="45.26608" lon="6.38419">
        <ele>570</ele>
        <time>2020-09-14T22:27:42Z</time>
      </trkpt>
      <trkpt lat="45.26603" lon="6.38426">
        <ele>570</ele>
        <time>2020-09-14T22:27:43Z</time>
      </trkpt>
      <trkpt lat="45.26596" lon="6.38434">
        <ele>570</ele>
        <time>2020-09-14T22:27:45Z</time>
      </trkpt>
      <trkpt lat="45.2658" lon="6.38449">
        <ele>569</ele>
        <time>2020-09-14T22:27:48Z</time>
      </trkpt>
      <trkpt lat="45.2656" lon="6.38463">
        <ele>568</ele>
        <time>2020-09-14T22:27:52Z</time>
      </trkpt>
      <trkpt lat="45.26543" lon="6.38475">
        <ele>568</ele>
        <time>2020-09-14T22:27:55Z</time>
      </trkpt>
      <trkpt lat="45.26469" lon="6.38516">
        <ele>567</ele>
        <time>2020-09-14T22:28:09Z</time>
      </trkpt>
      <trkpt lat="45.26431" lon="6.38537">
        <ele>570</ele>
        <time>2020-09-14T22:28:17Z</time>
      </trkpt>
      <trkpt lat="45.26399" lon="6.38551">
        <ele>571</ele>
        <time>2020-09-14T22:28:23Z</time>
      </trkpt>
      <trkpt lat="45.26365" lon="6.3856">
        <ele>569</ele>
        <time>2020-09-14T22:28:29Z</time>
      </trkpt>
      <trkpt lat="45.26263" lon="6.3858">
        <ele>568</ele>
        <time>2020-09-14T22:28:47Z</time>
      </trkpt>
      <trkpt lat="45.26153" lon="6.38623">
        <ele>574</ele>
        <time>2020-09-14T22:29:07Z</time>
      </trkpt>
      <trkpt lat="45.26088" lon="6.38643">
        <ele>579</ele>
        <time>2020-09-14T22:29:19Z</time>
      </trkpt>
      <trkpt lat="45.26055" lon="6.38649">
        <ele>581</ele>
        <time>2020-09-14T22:29:25Z</time>
      </trkpt>
      <trkpt lat="45.25978" lon="6.38668">
        <ele>585</ele>
        <time>2020-09-14T22:29:39Z</time>
      </trkpt>
      <trkpt lat="45.25946" lon="6.38682">
        <ele>584</ele>
        <time>2020-09-14T22:29:45Z</time>
      </trkpt>
      <trkpt lat="45.25903" lon="6.38706">
        <ele>584</ele>
        <time>2020-09-14T22:29:53Z</time>
      </trkpt>
      <trkpt lat="45.25863" lon="6.38736">
        <ele>586</ele>
        <time>2020-09-14T22:30:01Z</time>
      </trkpt>
      <trkpt lat="45.25829" lon="6.38767">
        <ele>588</ele>
        <time>2020-09-14T22:30:08Z</time>
      </trkpt>
      <trkpt lat="45.25565" lon="6.39037">
        <ele>597</ele>
        <time>2020-09-14T22:31:06Z</time>
      </trkpt>
      <trkpt lat="45.25532" lon="6.39079">
        <ele>599</ele>
        <time>2020-09-14T22:31:14Z</time>
      </trkpt>
      <trkpt lat="45.2551" lon="6.39118">
        <ele>600</ele>
        <time>2020-09-14T22:31:20Z</time>
      </trkpt>
      <trkpt lat="45.25493" lon="6.39157">
        <ele>602</ele>
        <time>2020-09-14T22:31:26Z</time>
      </trkpt>
      <trkpt lat="45.2548" lon="6.39193">
        <ele>603</ele>
        <time>2020-09-14T22:31:31Z</time>
      </trkpt>
      <trkpt lat="45.25476" lon="6.39209">
        <ele>603</ele>
        <time>2020-09-14T22:31:33Z</time>
      </trkpt>
      <trkpt lat="45.25462" lon="6.39265">
        <ele>606</ele>
        <time>2020-09-14T22:31:41Z</time>
      </trkpt>
      <trkpt lat="45.25449" lon="6.39328">
        <ele>610</ele>
        <time>2020-09-14T22:31:49Z</time>
      </trkpt>
      <trkpt lat="45.25437" lon="6.39389">
        <ele>615</ele>
        <time>2020-09-14T22:31:57Z</time>
      </trkpt>
      <trkpt lat="45.25424" lon="6.39418">
        <ele>616</ele>
        <time>2020-09-14T22:32:01Z</time>
      </trkpt>
      <trkpt lat="45.2542" lon="6.39424">
        <ele>616</ele>
        <time>2020-09-14T22:32:02Z</time>
      </trkpt>
      <trkpt lat="45.25416" lon="6.39425">
        <ele>616</ele>
        <time>2020-09-14T22:32:03Z</time>
      </trkpt>
      <trkpt lat="45.2541" lon="6.39432">
        <ele>615</ele>
        <time>2020-09-14T22:32:04Z</time>
      </trkpt>
      <trkpt lat="45.25406" lon="6.39443">
        <ele>616</ele>
        <time>2020-09-14T22:32:06Z</time>
      </trkpt>
      <trkpt lat="45.25406" lon="6.39454">
        <ele>617</ele>
        <time>2020-09-14T22:32:07Z</time>
      </trkpt>
      <trkpt lat="45.25409" lon="6.39463">
        <ele>618</ele>
        <time>2020-09-14T22:32:09Z</time>
      </trkpt>
      <trkpt lat="45.2541" lon="6.39466">
        <ele>619</ele>
        <time>2020-09-14T22:32:09Z</time>
      </trkpt>
      <trkpt lat="45.2541" lon="6.39476">
        <ele>620</ele>
        <time>2020-09-14T22:32:10Z</time>
      </trkpt>
      <trkpt lat="45.2541" lon="6.39482">
        <ele>620</ele>
        <time>2020-09-14T22:32:11Z</time>
      </trkpt>
      <trkpt lat="45.25403" lon="6.39524">
        <ele>622</ele>
        <time>2020-09-14T22:32:16Z</time>
      </trkpt>
      <trkpt lat="45.25358" lon="6.39678">
        <ele>626</ele>
        <time>2020-09-14T22:32:37Z</time>
      </trkpt>
      <trkpt lat="45.25303" lon="6.39873">
        <ele>630</ele>
        <time>2020-09-14T22:33:04Z</time>
      </trkpt>
      <trkpt lat="45.25298" lon="6.39893">
        <ele>631</ele>
        <time>2020-09-14T22:33:06Z</time>
      </trkpt>
      <trkpt lat="45.25283" lon="6.39965">
        <ele>633</ele>
        <time>2020-09-14T22:33:16Z</time>
      </trkpt>
      <trkpt lat="45.25273" lon="6.40018">
        <ele>634</ele>
        <time>2020-09-14T22:33:23Z</time>
      </trkpt>
      <trkpt lat="45.25266" lon="6.40064">
        <ele>635</ele>
        <time>2020-09-14T22:33:28Z</time>
      </trkpt>
      <trkpt lat="45.2526" lon="6.40131">
        <ele>635</ele>
        <time>2020-09-14T22:33:37Z</time>
      </trkpt>
      <trkpt lat="45.25258" lon="6.40156">
        <ele>634</ele>
        <time>2020-09-14T22:33:40Z</time>
      </trkpt>
      <trkpt lat="45.25255" lon="6.40291">
        <ele>634</ele>
        <time>2020-09-14T22:33:57Z</time>
      </trkpt>
      <trkpt lat="45.25257" lon="6.40642">
        <ele>636</ele>
        <time>2020-09-14T22:34:41Z</time>
      </trkpt>
      <trkpt lat="45.25247" lon="6.40803">
        <ele>641</ele>
        <time>2020-09-14T22:35:01Z</time>
      </trkpt>
      <trkpt lat="45.2524" lon="6.40868">
        <ele>645</ele>
        <time>2020-09-14T22:35:09Z</time>
      </trkpt>
      <trkpt lat="45.25229" lon="6.40928">
        <ele>648</ele>
        <time>2020-09-14T22:35:17Z</time>
      </trkpt>
      <trkpt lat="45.2522" lon="6.40964">
        <ele>650</ele>
        <time>2020-09-14T22:35:22Z</time>
      </trkpt>
      <trkpt lat="45.25202" lon="6.41031">
        <ele>654</ele>
        <time>2020-09-14T22:35:31Z</time>
      </trkpt>
      <trkpt lat="45.25184" lon="6.41079">
        <ele>656</ele>
        <time>2020-09-14T22:35:38Z</time>
      </trkpt>
      <trkpt lat="45.25167" lon="6.41119">
        <ele>657</ele>
        <time>2020-09-14T22:35:44Z</time>
      </trkpt>
      <trkpt lat="45.25137" lon="6.41181">
        <ele>660</ele>
        <time>2020-09-14T22:35:53Z</time>
      </trkpt>
      <trkpt lat="45.25114" lon="6.41207">
        <ele>661</ele>
        <time>2020-09-14T22:35:58Z</time>
      </trkpt>
      <trkpt lat="45.25101" lon="6.41232">
        <ele>662</ele>
        <time>2020-09-14T22:36:02Z</time>
      </trkpt>
      <trkpt lat="45.25093" lon="6.41253">
        <ele>663</ele>
        <time>2020-09-14T22:36:05Z</time>
      </trkpt>
      <trkpt lat="45.25062" lon="6.41315">
        <ele>665</ele>
        <time>2020-09-14T22:36:15Z</time>
      </trkpt>
      <trkpt lat="45.25042" lon="6.41377">
        <ele>668</ele>
        <time>2020-09-14T22:36:23Z</time>
      </trkpt>
      <trkpt lat="45.25001" lon="6.41473">
        <ele>671</ele>
        <time>2020-09-14T22:36:37Z</time>
      </trkpt>
      <trkpt lat="45.24959" lon="6.41557">
        <ele>672</ele>
        <time>2020-09-14T22:36:50Z</time>
      </trkpt>
      <trkpt lat="45.2491" lon="6.41659">
        <ele>669</ele>
        <time>2020-09-14T22:37:06Z</time>
      </trkpt>
      <trkpt lat="45.24894" lon="6.41696">
        <ele>671</ele>
        <time>2020-09-14T22:37:11Z</time>
      </trkpt>
      <trkpt lat="45.24869" lon="6.41752">
        <ele>674</ele>
        <time>2020-09-14T22:37:19Z</time>
      </trkpt>
      <trkpt lat="45.24839" lon="6.41829">
        <ele>675</ele>
        <time>2020-09-14T22:37:30Z</time>
      </trkpt>
      <trkpt lat="45.24789" lon="6.41997">
        <ele>679</ele>
        <time>2020-09-14T22:37:53Z</time>
      </trkpt>
      <trkpt lat="45.24553" lon="6.4281">
        <ele>675</ele>
        <time>2020-09-14T22:39:43Z</time>
      </trkpt>
      <trkpt lat="45.2452" lon="6.42912">
        <ele>677</ele>
        <time>2020-09-14T22:39:58Z</time>
      </trkpt>
      <trkpt lat="45.24492" lon="6.42982">
        <ele>677</ele>
        <time>2020-09-14T22:40:08Z</time>
      </trkpt>
      <trkpt lat="45.24458" lon="6.43057">
        <ele>677</ele>
        <time>2020-09-14T22:40:19Z</time>
      </trkpt>
      <trkpt lat="45.24435" lon="6.43094">
        <ele>677</ele>
        <time>2020-09-14T22:40:25Z</time>
      </trkpt>
      <trkpt lat="45.24404" lon="6.43142">
        <ele>675</ele>
        <time>2020-09-14T22:40:33Z</time>
      </trkpt>
      <trkpt lat="45.24319" lon="6.43242">
        <ele>678</ele>
        <time>2020-09-14T22:40:53Z</time>
      </trkpt>
      <trkpt lat="45.24229" lon="6.43327">
        <ele>676</ele>
        <time>2020-09-14T22:41:12Z</time>
      </trkpt>
      <trkpt lat="45.23968" lon="6.43564">
        <ele>685</ele>
        <time>2020-09-14T22:42:07Z</time>
      </trkpt>
      <trkpt lat="45.23939" lon="6.43589">
        <ele>686</ele>
        <time>2020-09-14T22:42:13Z</time>
      </trkpt>
      <trkpt lat="45.23905" lon="6.4361">
        <ele>687</ele>
        <time>2020-09-14T22:42:20Z</time>
      </trkpt>
      <trkpt lat="45.23884" lon="6.43619">
        <ele>687</ele>
        <time>2020-09-14T22:42:24Z</time>
      </trkpt>
      <trkpt lat="45.23853" lon="6.43631">
        <ele>686</ele>
        <time>2020-09-14T22:42:29Z</time>
      </trkpt>
      <trkpt lat="45.23823" lon="6.43643">
        <ele>685</ele>
        <time>2020-09-14T22:42:35Z</time>
      </trkpt>
      <trkpt lat="45.23801" lon="6.43653">
        <ele>684</ele>
        <time>2020-09-14T22:42:39Z</time>
      </trkpt>
      <trkpt lat="45.23783" lon="6.43663">
        <ele>683</ele>
        <time>2020-09-14T22:42:42Z</time>
      </trkpt>
      <trkpt lat="45.23773" lon="6.43671">
        <ele>684</ele>
        <time>2020-09-14T22:42:45Z</time>
      </trkpt>
      <trkpt lat="45.2376" lon="6.43681">
        <ele>684</ele>
        <time>2020-09-14T22:42:47Z</time>
      </trkpt>
      <trkpt lat="45.23751" lon="6.43689">
        <ele>684</ele>
        <time>2020-09-14T22:42:49Z</time>
      </trkpt>
      <trkpt lat="45.23732" lon="6.43711">
        <ele>686</ele>
        <time>2020-09-14T22:42:53Z</time>
      </trkpt>
      <trkpt lat="45.23712" lon="6.43739">
        <ele>687</ele>
        <time>2020-09-14T22:42:58Z</time>
      </trkpt>
      <trkpt lat="45.23704" lon="6.43753">
        <ele>687</ele>
        <time>2020-09-14T22:43:01Z</time>
      </trkpt>
      <trkpt lat="45.23696" lon="6.43769">
        <ele>687</ele>
        <time>2020-09-14T22:43:03Z</time>
      </trkpt>
      <trkpt lat="45.2368" lon="6.43813">
        <ele>687</ele>
        <time>2020-09-14T22:43:09Z</time>
      </trkpt>
      <trkpt lat="45.23673" lon="6.43837">
        <ele>688</ele>
        <time>2020-09-14T22:43:13Z</time>
      </trkpt>
      <trkpt lat="45.23664" lon="6.43875">
        <ele>687</ele>
        <time>2020-09-14T22:43:18Z</time>
      </trkpt>
      <trkpt lat="45.23658" lon="6.43911">
        <ele>686</ele>
        <time>2020-09-14T22:43:22Z</time>
      </trkpt>
      <trkpt lat="45.23636" lon="6.44064">
        <ele>683</ele>
        <time>2020-09-14T22:43:42Z</time>
      </trkpt>
      <trkpt lat="45.23624" lon="6.44118">
        <ele>685</ele>
        <time>2020-09-14T22:43:49Z</time>
      </trkpt>
      <trkpt lat="45.23608" lon="6.44166">
        <ele>686</ele>
        <time>2020-09-14T22:43:56Z</time>
      </trkpt>
      <trkpt lat="45.23587" lon="6.44211">
        <ele>685</ele>
        <time>2020-09-14T22:44:02Z</time>
      </trkpt>
      <trkpt lat="45.23574" lon="6.44236">
        <ele>686</ele>
        <time>2020-09-14T22:44:06Z</time>
      </trkpt>
      <trkpt lat="45.23558" lon="6.4426">
        <ele>687</ele>
        <time>2020-09-14T22:44:10Z</time>
      </trkpt>
      <trkpt lat="45.23535" lon="6.44289">
        <ele>688</ele>
        <time>2020-09-14T22:44:16Z</time>
      </trkpt>
      <trkpt lat="45.23494" lon="6.44331">
        <ele>687</ele>
        <time>2020-09-14T22:44:25Z</time>
      </trkpt>
      <trkpt lat="45.23381" lon="6.44432">
        <ele>691</ele>
        <time>2020-09-14T22:44:49Z</time>
      </trkpt>
      <trkpt lat="45.23327" lon="6.44484">
        <ele>690</ele>
        <time>2020-09-14T22:45:00Z</time>
      </trkpt>
      <trkpt lat="45.2329" lon="6.44522">
        <ele>691</ele>
        <time>2020-09-14T22:45:08Z</time>
      </trkpt>
      <trkpt lat="45.23264" lon="6.44547">
        <ele>690</ele>
        <time>2020-09-14T22:45:14Z</time>
      </trkpt>
      <trkpt lat="45.2324" lon="6.44574">
        <ele>687</ele>
        <time>2020-09-14T22:45:19Z</time>
      </trkpt>
      <trkpt lat="45.23207" lon="6.44615">
        <ele>687</ele>
        <time>2020-09-14T22:45:27Z</time>
      </trkpt>
      <trkpt lat="45.23179" lon="6.44657">
        <ele>687</ele>
        <time>2020-09-14T22:45:34Z</time>
      </trkpt>
      <trkpt lat="45.23169" lon="6.44673">
        <ele>686</ele>
        <time>2020-09-14T22:45:37Z</time>
      </trkpt>
      <trkpt lat="45.23157" lon="6.44693">
        <ele>687</ele>
        <time>2020-09-14T22:45:40Z</time>
      </trkpt>
      <trkpt lat="45.23152" lon="6.44701">
        <ele>688</ele>
        <time>2020-09-14T22:45:42Z</time>
      </trkpt>
      <trkpt lat="45.23128" lon="6.44741">
        <ele>689</ele>
        <time>2020-09-14T22:45:48Z</time>
      </trkpt>
      <trkpt lat="45.23091" lon="6.448">
        <ele>690</ele>
        <time>2020-09-14T22:45:58Z</time>
      </trkpt>
      <trkpt lat="45.23075" lon="6.44826">
        <ele>689</ele>
        <time>2020-09-14T22:46:03Z</time>
      </trkpt>
      <trkpt lat="45.23044" lon="6.44863">
        <ele>689</ele>
        <time>2020-09-14T22:46:10Z</time>
      </trkpt>
      <trkpt lat="45.23025" lon="6.44883">
        <ele>689</ele>
        <time>2020-09-14T22:46:14Z</time>
      </trkpt>
      <trkpt lat="45.22986" lon="6.44912">
        <ele>688</ele>
        <time>2020-09-14T22:46:22Z</time>
      </trkpt>
      <trkpt lat="45.22957" lon="6.44932">
        <ele>688</ele>
        <time>2020-09-14T22:46:28Z</time>
      </trkpt>
      <trkpt lat="45.22924" lon="6.44954">
        <ele>688</ele>
        <time>2020-09-14T22:46:34Z</time>
      </trkpt>
      <trkpt lat="45.22876" lon="6.44979">
        <ele>688</ele>
        <time>2020-09-14T22:46:43Z</time>
      </trkpt>
      <trkpt lat="45.22825" lon="6.45">
        <ele>687</ele>
        <time>2020-09-14T22:46:53Z</time>
      </trkpt>
      <trkpt lat="45.22791" lon="6.45009">
        <ele>689</ele>
        <time>2020-09-14T22:46:59Z</time>
      </trkpt>
      <trkpt lat="45.22769" lon="6.45017">
        <ele>690</ele>
        <time>2020-09-14T22:47:03Z</time>
      </trkpt>
      <trkpt lat="45.22742" lon="6.45022">
        <ele>690</ele>
        <time>2020-09-14T22:47:08Z</time>
      </trkpt>
      <trkpt lat="45.22463" lon="6.45049">
        <ele>695</ele>
        <time>2020-09-14T22:47:57Z</time>
      </trkpt>
      <trkpt lat="45.22432" lon="6.45055">
        <ele>694</ele>
        <time>2020-09-14T22:48:03Z</time>
      </trkpt>
      <trkpt lat="45.22407" lon="6.45063">
        <ele>693</ele>
        <time>2020-09-14T22:48:07Z</time>
      </trkpt>
      <trkpt lat="45.22389" lon="6.4507">
        <ele>692</ele>
        <time>2020-09-14T22:48:11Z</time>
      </trkpt>
      <trkpt lat="45.22364" lon="6.45081">
        <ele>691</ele>
        <time>2020-09-14T22:48:15Z</time>
      </trkpt>
      <trkpt lat="45.22338" lon="6.45095">
        <ele>692</ele>
        <time>2020-09-14T22:48:20Z</time>
      </trkpt>
      <trkpt lat="45.22315" lon="6.45111">
        <ele>696</ele>
        <time>2020-09-14T22:48:25Z</time>
      </trkpt>
      <trkpt lat="45.22296" lon="6.45134">
        <ele>700</ele>
        <time>2020-09-14T22:48:29Z</time>
      </trkpt>
      <trkpt lat="45.22289" lon="6.45147">
        <ele>701</ele>
        <time>2020-09-14T22:48:31Z</time>
      </trkpt>
      <trkpt lat="45.22282" lon="6.45161">
        <ele>702</ele>
        <time>2020-09-14T22:48:34Z</time>
      </trkpt>
      <trkpt lat="45.2227" lon="6.45194">
        <ele>705</ele>
        <time>2020-09-14T22:48:38Z</time>
      </trkpt>
      <trkpt lat="45.22255" lon="6.45239">
        <ele>705</ele>
        <time>2020-09-14T22:48:44Z</time>
      </trkpt>
      <trkpt lat="45.22244" lon="6.45265">
        <ele>703</ele>
        <time>2020-09-14T22:48:48Z</time>
      </trkpt>
      <trkpt lat="45.22232" lon="6.45288">
        <ele>702</ele>
        <time>2020-09-14T22:48:52Z</time>
      </trkpt>
      <trkpt lat="45.22217" lon="6.45314">
        <ele>701</ele>
        <time>2020-09-14T22:48:56Z</time>
      </trkpt>
      <trkpt lat="45.22184" lon="6.45368">
        <ele>703</ele>
        <time>2020-09-14T22:49:05Z</time>
      </trkpt>
      <trkpt lat="45.22139" lon="6.45443">
        <ele>707</ele>
        <time>2020-09-14T22:49:17Z</time>
      </trkpt>
      <trkpt lat="45.22116" lon="6.45493">
        <ele>719</ele>
        <time>2020-09-14T22:49:25Z</time>
      </trkpt>
      <trkpt lat="45.22096" lon="6.45552">
        <ele>716</ele>
        <time>2020-09-14T22:49:33Z</time>
      </trkpt>
      <trkpt lat="45.22088" lon="6.45589">
        <ele>713</ele>
        <time>2020-09-14T22:49:38Z</time>
      </trkpt>
      <trkpt lat="45.2208" lon="6.4564">
        <ele>703</ele>
        <time>2020-09-14T22:49:44Z</time>
      </trkpt>
      <trkpt lat="45.22046" lon="6.45985">
        <ele>699</ele>
        <time>2020-09-14T22:50:28Z</time>
      </trkpt>
      <trkpt lat="45.22048" lon="6.46044">
        <ele>699</ele>
        <time>2020-09-14T22:50:36Z</time>
      </trkpt>
      <trkpt lat="45.22042" lon="6.46048">
        <ele>699</ele>
        <time>2020-09-14T22:50:37Z</time>
      </trkpt>
      <trkpt lat="45.22038" lon="6.46056">
        <ele>699</ele>
        <time>2020-09-14T22:50:38Z</time>
      </trkpt>
      <trkpt lat="45.22038" lon="6.46065">
        <ele>699</ele>
        <time>2020-09-14T22:50:39Z</time>
      </trkpt>
      <trkpt lat="45.22043" lon="6.46075">
        <ele>699</ele>
        <time>2020-09-14T22:50:41Z</time>
      </trkpt>
      <trkpt lat="45.22032" lon="6.46104">
        <ele>699</ele>
        <time>2020-09-14T22:50:45Z</time>
      </trkpt>
      <trkpt lat="45.22008" lon="6.46244">
        <ele>702</ele>
        <time>2020-09-14T22:51:03Z</time>
      </trkpt>
      <trkpt lat="45.2199" lon="6.46412">
        <ele>705</ele>
        <time>2020-09-14T22:51:24Z</time>
      </trkpt>
      <trkpt lat="45.21983" lon="6.46458">
        <ele>705</ele>
        <time>2020-09-14T22:51:30Z</time>
      </trkpt>
      <trkpt lat="45.2198" lon="6.4647">
        <ele>705</ele>
        <time>2020-09-14T22:51:32Z</time>
      </trkpt>
      <trkpt lat="45.21973" lon="6.46476">
        <ele>705</ele>
        <time>2020-09-14T22:51:33Z</time>
      </trkpt>
      <trkpt lat="45.2197" lon="6.46485">
        <ele>705</ele>
        <time>2020-09-14T22:51:34Z</time>
      </trkpt>
      <trkpt lat="45.2197" lon="6.4649">
        <ele>705</ele>
        <time>2020-09-14T22:51:35Z</time>
      </trkpt>
      <trkpt lat="45.21975" lon="6.46503">
        <ele>705</ele>
        <time>2020-09-14T22:51:37Z</time>
      </trkpt>
      <trkpt lat="45.21977" lon="6.46516">
        <ele>705</ele>
        <time>2020-09-14T22:51:38Z</time>
      </trkpt>
      <trkpt lat="45.21975" lon="6.46562">
        <ele>705</ele>
        <time>2020-09-14T22:51:44Z</time>
      </trkpt>
      <trkpt lat="45.2194" lon="6.46893">
        <ele>710</ele>
        <time>2020-09-14T22:52:26Z</time>
      </trkpt>
      <trkpt lat="45.21935" lon="6.46908">
        <ele>710</ele>
        <time>2020-09-14T22:52:28Z</time>
      </trkpt>
      <trkpt lat="45.21913" lon="6.46943">
        <ele>709</ele>
        <time>2020-09-14T22:52:34Z</time>
      </trkpt>
      <trkpt lat="45.21795" lon="6.47116">
        <ele>711</ele>
        <time>2020-09-14T22:53:04Z</time>
      </trkpt>
      <trkpt lat="45.21767" lon="6.47141">
        <ele>711</ele>
        <time>2020-09-14T22:53:10Z</time>
      </trkpt>
      <trkpt lat="45.21758" lon="6.47156">
        <ele>711</ele>
        <time>2020-09-14T22:53:13Z</time>
      </trkpt>
      <trkpt lat="45.21744" lon="6.47184">
        <ele>711</ele>
        <time>2020-09-14T22:53:17Z</time>
      </trkpt>
      <trkpt lat="45.21732" lon="6.47207">
        <ele>712</ele>
        <time>2020-09-14T22:53:21Z</time>
      </trkpt>
      <trkpt lat="45.21667" lon="6.47311">
        <ele>714</ele>
        <time>2020-09-14T22:53:38Z</time>
      </trkpt>
      <trkpt lat="45.21643" lon="6.47352">
        <ele>714</ele>
        <time>2020-09-14T22:53:45Z</time>
      </trkpt>
      <trkpt lat="45.21569" lon="6.4749">
        <ele>717</ele>
        <time>2020-09-14T22:54:06Z</time>
      </trkpt>
      <trkpt lat="45.2156" lon="6.47504">
        <ele>718</ele>
        <time>2020-09-14T22:54:09Z</time>
      </trkpt>
      <trkpt lat="45.21544" lon="6.47522">
        <ele>720</ele>
        <time>2020-09-14T22:54:12Z</time>
      </trkpt>
      <trkpt lat="45.21471" lon="6.47615">
        <ele>727</ele>
        <time>2020-09-14T22:54:30Z</time>
      </trkpt>
      <trkpt lat="45.21446" lon="6.47641">
        <ele>728</ele>
        <time>2020-09-14T22:54:35Z</time>
      </trkpt>
      <trkpt lat="45.21392" lon="6.47685">
        <ele>727</ele>
        <time>2020-09-14T22:54:46Z</time>
      </trkpt>
      <trkpt lat="45.21177" lon="6.47835">
        <ele>729</ele>
        <time>2020-09-14T22:55:29Z</time>
      </trkpt>
      <trkpt lat="45.21137" lon="6.47862">
        <ele>729</ele>
        <time>2020-09-14T22:55:37Z</time>
      </trkpt>
      <trkpt lat="45.21063" lon="6.47912">
        <ele>730</ele>
        <time>2020-09-14T22:55:52Z</time>
      </trkpt>
      <trkpt lat="45.21052" lon="6.47923">
        <ele>730</ele>
        <time>2020-09-14T22:55:54Z</time>
      </trkpt>
      <trkpt lat="45.21044" lon="6.47933">
        <ele>730</ele>
        <time>2020-09-14T22:55:56Z</time>
      </trkpt>
      <trkpt lat="45.21038" lon="6.47942">
        <ele>730</ele>
        <time>2020-09-14T22:55:57Z</time>
      </trkpt>
      <trkpt lat="45.21034" lon="6.4795">
        <ele>730</ele>
        <time>2020-09-14T22:55:59Z</time>
      </trkpt>
      <trkpt lat="45.2103" lon="6.47961">
        <ele>730</ele>
        <time>2020-09-14T22:56:00Z</time>
      </trkpt>
      <trkpt lat="45.21026" lon="6.47976">
        <ele>730</ele>
        <time>2020-09-14T22:56:02Z</time>
      </trkpt>
      <trkpt lat="45.21023" lon="6.48004">
        <ele>731</ele>
        <time>2020-09-14T22:56:06Z</time>
      </trkpt>
      <trkpt lat="45.21026" lon="6.48039">
        <ele>733</ele>
        <time>2020-09-14T22:56:10Z</time>
      </trkpt>
      <trkpt lat="45.21058" lon="6.48182">
        <ele>739</ele>
        <time>2020-09-14T22:56:29Z</time>
      </trkpt>
      <trkpt lat="45.21066" lon="6.48221">
        <ele>739</ele>
        <time>2020-09-14T22:56:34Z</time>
      </trkpt>
      <trkpt lat="45.2107" lon="6.48259">
        <ele>740</ele>
        <time>2020-09-14T22:56:39Z</time>
      </trkpt>
      <trkpt lat="45.21073" lon="6.48301">
        <ele>742</ele>
        <time>2020-09-14T22:56:44Z</time>
      </trkpt>
      <trkpt lat="45.21075" lon="6.48404">
        <ele>750</ele>
        <time>2020-09-14T22:56:57Z</time>
      </trkpt>
      <trkpt lat="45.21075" lon="6.48426">
        <ele>751</ele>
        <time>2020-09-14T22:57:00Z</time>
      </trkpt>
      <trkpt lat="45.21075" lon="6.48452">
        <ele>752</ele>
        <time>2020-09-14T22:57:03Z</time>
      </trkpt>
      <trkpt lat="45.21073" lon="6.48472">
        <ele>752</ele>
        <time>2020-09-14T22:57:06Z</time>
      </trkpt>
      <trkpt lat="45.21064" lon="6.4851">
        <ele>752</ele>
        <time>2020-09-14T22:57:11Z</time>
      </trkpt>
      <trkpt lat="45.21055" lon="6.48535">
        <ele>751</ele>
        <time>2020-09-14T22:57:14Z</time>
      </trkpt>
      <trkpt lat="45.21031" lon="6.48604">
        <ele>752</ele>
        <time>2020-09-14T22:57:24Z</time>
      </trkpt>
      <trkpt lat="45.21024" lon="6.48628">
        <ele>752</ele>
        <time>2020-09-14T22:57:27Z</time>
      </trkpt>
      <trkpt lat="45.21022" lon="6.48636">
        <ele>753</ele>
        <time>2020-09-14T22:57:28Z</time>
      </trkpt>
      <trkpt lat="45.21019" lon="6.48653">
        <ele>753</ele>
        <time>2020-09-14T22:57:30Z</time>
      </trkpt>
      <trkpt lat="45.21016" lon="6.48673">
        <ele>753</ele>
        <time>2020-09-14T22:57:33Z</time>
      </trkpt>
      <trkpt lat="45.21016" lon="6.48706">
        <ele>754</ele>
        <time>2020-09-14T22:57:37Z</time>
      </trkpt>
      <trkpt lat="45.21018" lon="6.48767">
        <ele>754</ele>
        <time>2020-09-14T22:57:45Z</time>
      </trkpt>
      <trkpt lat="45.2102" lon="6.48793">
        <ele>754</ele>
        <time>2020-09-14T22:57:48Z</time>
      </trkpt>
      <trkpt lat="45.21022" lon="6.48823">
        <ele>755</ele>
        <time>2020-09-14T22:57:52Z</time>
      </trkpt>
      <trkpt lat="45.21032" lon="6.48898">
        <ele>759</ele>
        <time>2020-09-14T22:58:01Z</time>
      </trkpt>
      <trkpt lat="45.21039" lon="6.48938">
        <ele>761</ele>
        <time>2020-09-14T22:58:06Z</time>
      </trkpt>
      <trkpt lat="45.21048" lon="6.48983">
        <ele>762</ele>
        <time>2020-09-14T22:58:12Z</time>
      </trkpt>
      <trkpt lat="45.21058" lon="6.49027">
        <ele>762</ele>
        <time>2020-09-14T22:58:18Z</time>
      </trkpt>
      <trkpt lat="45.21069" lon="6.49091">
        <ele>761</ele>
        <time>2020-09-14T22:58:26Z</time>
      </trkpt>
      <trkpt lat="45.21073" lon="6.49133">
        <ele>759</ele>
        <time>2020-09-14T22:58:32Z</time>
      </trkpt>
      <trkpt lat="45.21095" lon="6.49909">
        <ele>777</ele>
        <time>2020-09-14T23:00:09Z</time>
      </trkpt>
      <trkpt lat="45.21123" lon="6.50445">
        <ele>791</ele>
        <time>2020-09-14T23:01:16Z</time>
      </trkpt>
      <trkpt lat="45.21126" lon="6.50565">
        <ele>795</ele>
        <time>2020-09-14T23:01:31Z</time>
      </trkpt>
      <trkpt lat="45.21114" lon="6.50905">
        <ele>818</ele>
        <time>2020-09-14T23:02:14Z</time>
      </trkpt>
      <trkpt lat="45.21108" lon="6.50956">
        <ele>820</ele>
        <time>2020-09-14T23:02:21Z</time>
      </trkpt>
      <trkpt lat="45.21093" lon="6.51023">
        <ele>820</ele>
        <time>2020-09-14T23:02:29Z</time>
      </trkpt>
      <trkpt lat="45.21086" lon="6.51048">
        <ele>820</ele>
        <time>2020-09-14T23:02:33Z</time>
      </trkpt>
      <trkpt lat="45.21018" lon="6.51242">
        <ele>840</ele>
        <time>2020-09-14T23:03:00Z</time>
      </trkpt>
      <trkpt lat="45.21011" lon="6.51271">
        <ele>837</ele>
        <time>2020-09-14T23:03:04Z</time>
      </trkpt>
      <trkpt lat="45.21005" lon="6.51317">
        <ele>830</ele>
        <time>2020-09-14T23:03:10Z</time>
      </trkpt>
      <trkpt lat="45.21003" lon="6.51338">
        <ele>827</ele>
        <time>2020-09-14T23:03:12Z</time>
      </trkpt>
      <trkpt lat="45.20982" lon="6.51522">
        <ele>836</ele>
        <time>2020-09-14T23:03:36Z</time>
      </trkpt>
      <trkpt lat="45.20975" lon="6.51562">
        <ele>839</ele>
        <time>2020-09-14T23:03:41Z</time>
      </trkpt>
      <trkpt lat="45.20963" lon="6.516">
        <ele>841</ele>
        <time>2020-09-14T23:03:46Z</time>
      </trkpt>
      <trkpt lat="45.20934" lon="6.51679">
        <ele>838</ele>
        <time>2020-09-14T23:03:57Z</time>
      </trkpt>
      <trkpt lat="45.20929" lon="6.51697">
        <ele>836</ele>
        <time>2020-09-14T23:04:00Z</time>
      </trkpt>
      <trkpt lat="45.20926" lon="6.51714">
        <ele>834</ele>
        <time>2020-09-14T23:04:02Z</time>
      </trkpt>
      <trkpt lat="45.20928" lon="6.51821">
        <ele>834</ele>
        <time>2020-09-14T23:04:15Z</time>
      </trkpt>
      <trkpt lat="45.20924" lon="6.51853">
        <ele>837</ele>
        <time>2020-09-14T23:04:19Z</time>
      </trkpt>
      <trkpt lat="45.20912" lon="6.51888">
        <ele>841</ele>
        <time>2020-09-14T23:04:24Z</time>
      </trkpt>
      <trkpt lat="45.20837" lon="6.52055">
        <ele>841</ele>
        <time>2020-09-14T23:04:49Z</time>
      </trkpt>
      <trkpt lat="45.20819" lon="6.52105">
        <ele>845</ele>
        <time>2020-09-14T23:04:56Z</time>
      </trkpt>
      <trkpt lat="45.20811" lon="6.52158">
        <ele>847</ele>
        <time>2020-09-14T23:05:03Z</time>
      </trkpt>
      <trkpt lat="45.20761" lon="6.52531">
        <ele>844</ele>
        <time>2020-09-14T23:05:51Z</time>
      </trkpt>
      <trkpt lat="45.20758" lon="6.52565">
        <ele>842</ele>
        <time>2020-09-14T23:05:55Z</time>
      </trkpt>
      <trkpt lat="45.20759" lon="6.52604">
        <ele>842</ele>
        <time>2020-09-14T23:06:00Z</time>
      </trkpt>
      <trkpt lat="45.2078" lon="6.52974">
        <ele>845</ele>
        <time>2020-09-14T23:06:46Z</time>
      </trkpt>
      <trkpt lat="45.20782" lon="6.53021">
        <ele>847</ele>
        <time>2020-09-14T23:06:52Z</time>
      </trkpt>
      <trkpt lat="45.2078" lon="6.53049">
        <ele>847</ele>
        <time>2020-09-14T23:06:56Z</time>
      </trkpt>
      <trkpt lat="45.20777" lon="6.5308">
        <ele>848</ele>
        <time>2020-09-14T23:07:00Z</time>
      </trkpt>
      <trkpt lat="45.20762" lon="6.53154">
        <ele>850</ele>
        <time>2020-09-14T23:07:09Z</time>
      </trkpt>
      <trkpt lat="45.20752" lon="6.53192">
        <ele>849</ele>
        <time>2020-09-14T23:07:14Z</time>
      </trkpt>
      <trkpt lat="45.2075" lon="6.5321">
        <ele>849</ele>
        <time>2020-09-14T23:07:17Z</time>
      </trkpt>
      <trkpt lat="45.20769" lon="6.53534">
        <ele>867</ele>
        <time>2020-09-14T23:07:57Z</time>
      </trkpt>
      <trkpt lat="45.20766" lon="6.53576">
        <ele>868</ele>
        <time>2020-09-14T23:08:03Z</time>
      </trkpt>
      <trkpt lat="45.20761" lon="6.53612">
        <ele>869</ele>
        <time>2020-09-14T23:08:07Z</time>
      </trkpt>
      <trkpt lat="45.20733" lon="6.53784">
        <ele>883</ele>
        <time>2020-09-14T23:08:29Z</time>
      </trkpt>
      <trkpt lat="45.20707" lon="6.53918">
        <ele>896</ele>
        <time>2020-09-14T23:08:47Z</time>
      </trkpt>
      <trkpt lat="45.20705" lon="6.53939">
        <ele>896</ele>
        <time>2020-09-14T23:08:49Z</time>
      </trkpt>
      <trkpt lat="45.20705" lon="6.53955">
        <ele>896</ele>
        <time>2020-09-14T23:08:51Z</time>
      </trkpt>
      <trkpt lat="45.2071" lon="6.54033">
        <ele>895</ele>
        <time>2020-09-14T23:09:01Z</time>
      </trkpt>
      <trkpt lat="45.20711" lon="6.54082">
        <ele>895</ele>
        <time>2020-09-14T23:09:07Z</time>
      </trkpt>
      <trkpt lat="45.20707" lon="6.54131">
        <ele>890</ele>
        <time>2020-09-14T23:09:14Z</time>
      </trkpt>
      <trkpt lat="45.20699" lon="6.54208">
        <ele>886</ele>
        <time>2020-09-14T23:09:23Z</time>
      </trkpt>
      <trkpt lat="45.207" lon="6.54241">
        <ele>886</ele>
        <time>2020-09-14T23:09:28Z</time>
      </trkpt>
      <trkpt lat="45.20736" lon="6.54423">
        <ele>876</ele>
        <time>2020-09-14T23:09:51Z</time>
      </trkpt>
      <trkpt lat="45.20748" lon="6.54498">
        <ele>875</ele>
        <time>2020-09-14T23:10:01Z</time>
      </trkpt>
      <trkpt lat="45.2075" lon="6.54542">
        <ele>877</ele>
        <time>2020-09-14T23:10:06Z</time>
      </trkpt>
      <trkpt lat="45.20742" lon="6.5471">
        <ele>880</ele>
        <time>2020-09-14T23:10:28Z</time>
      </trkpt>
      <trkpt lat="45.20741" lon="6.54725">
        <ele>880</ele>
        <time>2020-09-14T23:10:29Z</time>
      </trkpt>
      <trkpt lat="45.20726" lon="6.5494">
        <ele>889</ele>
        <time>2020-09-14T23:10:56Z</time>
      </trkpt>
      <trkpt lat="45.20709" lon="6.55012">
        <ele>894</ele>
        <time>2020-09-14T23:11:06Z</time>
      </trkpt>
      <trkpt lat="45.20712" lon="6.55034">
        <ele>896</ele>
        <time>2020-09-14T23:11:09Z</time>
      </trkpt>
      <trkpt lat="45.20705" lon="6.55041">
        <ele>895</ele>
        <time>2020-09-14T23:11:10Z</time>
      </trkpt>
      <trkpt lat="45.20704" lon="6.55051">
        <ele>896</ele>
        <time>2020-09-14T23:11:12Z</time>
      </trkpt>
      <trkpt lat="45.20707" lon="6.55059">
        <ele>898</ele>
        <time>2020-09-14T23:11:13Z</time>
      </trkpt>
      <trkpt lat="45.20711" lon="6.55063">
        <ele>899</ele>
        <time>2020-09-14T23:11:14Z</time>
      </trkpt>
      <trkpt lat="45.20716" lon="6.55064">
        <ele>900</ele>
        <time>2020-09-14T23:11:15Z</time>
      </trkpt>
      <trkpt lat="45.20713" lon="6.55095">
        <ele>902</ele>
        <time>2020-09-14T23:11:18Z</time>
      </trkpt>
      <trkpt lat="45.20667" lon="6.55453">
        <ele>916</ele>
        <time>2020-09-14T23:12:04Z</time>
      </trkpt>
      <trkpt lat="45.20662" lon="6.55499">
        <ele>921</ele>
        <time>2020-09-14T23:12:10Z</time>
      </trkpt>
      <trkpt lat="45.20661" lon="6.55529">
        <ele>920</ele>
        <time>2020-09-14T23:12:14Z</time>
      </trkpt>
      <trkpt lat="45.20665" lon="6.55577">
        <ele>917</ele>
        <time>2020-09-14T23:12:20Z</time>
      </trkpt>
      <trkpt lat="45.2069" lon="6.55695">
        <ele>922</ele>
        <time>2020-09-14T23:12:35Z</time>
      </trkpt>
      <trkpt lat="45.20701" lon="6.55759">
        <ele>927</ele>
        <time>2020-09-14T23:12:43Z</time>
      </trkpt>
      <trkpt lat="45.20706" lon="6.55792">
        <ele>932</ele>
        <time>2020-09-14T23:12:48Z</time>
      </trkpt>
      <trkpt lat="45.20704" lon="6.55825">
        <ele>935</ele>
        <time>2020-09-14T23:12:52Z</time>
      </trkpt>
      <trkpt lat="45.20682" lon="6.55981">
        <ele>937</ele>
        <time>2020-09-14T23:13:12Z</time>
      </trkpt>
      <trkpt lat="45.20682" lon="6.56011">
        <ele>937</ele>
        <time>2020-09-14T23:13:15Z</time>
      </trkpt>
      <trkpt lat="45.20685" lon="6.56045">
        <ele>938</ele>
        <time>2020-09-14T23:13:20Z</time>
      </trkpt>
      <trkpt lat="45.20705" lon="6.56104">
        <ele>942</ele>
        <time>2020-09-14T23:13:28Z</time>
      </trkpt>
      <trkpt lat="45.20711" lon="6.56139">
        <ele>941</ele>
        <time>2020-09-14T23:13:33Z</time>
      </trkpt>
      <trkpt lat="45.20714" lon="6.56163">
        <ele>940</ele>
        <time>2020-09-14T23:13:36Z</time>
      </trkpt>
      <trkpt lat="45.20715" lon="6.56213">
        <ele>938</ele>
        <time>2020-09-14T23:13:42Z</time>
      </trkpt>
      <trkpt lat="45.20736" lon="6.56307">
        <ele>934</ele>
        <time>2020-09-14T23:13:54Z</time>
      </trkpt>
      <trkpt lat="45.20742" lon="6.56344">
        <ele>931</ele>
        <time>2020-09-14T23:13:59Z</time>
      </trkpt>
      <trkpt lat="45.20744" lon="6.56375">
        <ele>928</ele>
        <time>2020-09-14T23:14:03Z</time>
      </trkpt>
      <trkpt lat="45.20744" lon="6.56404">
        <ele>924</ele>
        <time>2020-09-14T23:14:06Z</time>
      </trkpt>
      <trkpt lat="45.20741" lon="6.56424">
        <ele>923</ele>
        <time>2020-09-14T23:14:09Z</time>
      </trkpt>
      <trkpt lat="45.20713" lon="6.56524">
        <ele>925</ele>
        <time>2020-09-14T23:14:23Z</time>
      </trkpt>
      <trkpt lat="45.20705" lon="6.56568">
        <ele>927</ele>
        <time>2020-09-14T23:14:28Z</time>
      </trkpt>
      <trkpt lat="45.20701" lon="6.56605">
        <ele>928</ele>
        <time>2020-09-14T23:14:33Z</time>
      </trkpt>
      <trkpt lat="45.20702" lon="6.56676">
        <ele>927</ele>
        <time>2020-09-14T23:14:42Z</time>
      </trkpt>
      <trkpt lat="45.207" lon="6.56725">
        <ele>925</ele>
        <time>2020-09-14T23:14:48Z</time>
      </trkpt>
      <trkpt lat="45.20693" lon="6.56833">
        <ele>924</ele>
        <time>2020-09-14T23:15:02Z</time>
      </trkpt>
      <trkpt lat="45.20672" lon="6.56964">
        <ele>923</ele>
        <time>2020-09-14T23:15:18Z</time>
      </trkpt>
      <trkpt lat="45.20667" lon="6.56994">
        <ele>923</ele>
        <time>2020-09-14T23:15:22Z</time>
      </trkpt>
      <trkpt lat="45.20524" lon="6.57841">
        <ele>923</ele>
        <time>2020-09-14T23:17:11Z</time>
      </trkpt>
      <trkpt lat="45.2051" lon="6.57912">
        <ele>923</ele>
        <time>2020-09-14T23:17:21Z</time>
      </trkpt>
      <trkpt lat="45.20492" lon="6.57975">
        <ele>925</ele>
        <time>2020-09-14T23:17:29Z</time>
      </trkpt>
      <trkpt lat="45.20476" lon="6.58023">
        <ele>929</ele>
        <time>2020-09-14T23:17:36Z</time>
      </trkpt>
      <trkpt lat="45.20373" lon="6.58274">
        <ele>931</ele>
        <time>2020-09-14T23:18:12Z</time>
      </trkpt>
      <trkpt lat="45.20349" lon="6.58337">
        <ele>936</ele>
        <time>2020-09-14T23:18:21Z</time>
      </trkpt>
      <trkpt lat="45.20319" lon="6.58442">
        <ele>936</ele>
        <time>2020-09-14T23:18:36Z</time>
      </trkpt>
      <trkpt lat="45.20265" lon="6.58654">
        <ele>940</ele>
        <time>2020-09-14T23:19:04Z</time>
      </trkpt>
      <trkpt lat="45.20254" lon="6.58691">
        <ele>941</ele>
        <time>2020-09-14T23:19:09Z</time>
      </trkpt>
      <trkpt lat="45.20223" lon="6.58768">
        <ele>945</ele>
        <time>2020-09-14T23:19:20Z</time>
      </trkpt>
      <trkpt lat="45.20197" lon="6.58821">
        <ele>948</ele>
        <time>2020-09-14T23:19:28Z</time>
      </trkpt>
      <trkpt lat="45.20188" lon="6.58847">
        <ele>949</ele>
        <time>2020-09-14T23:19:32Z</time>
      </trkpt>
      <trkpt lat="45.20179" lon="6.58878">
        <ele>949</ele>
        <time>2020-09-14T23:19:36Z</time>
      </trkpt>
      <trkpt lat="45.20166" lon="6.58943">
        <ele>949</ele>
        <time>2020-09-14T23:19:44Z</time>
      </trkpt>
      <trkpt lat="45.20149" lon="6.59112">
        <ele>955</ele>
        <time>2020-09-14T23:20:06Z</time>
      </trkpt>
      <trkpt lat="45.20135" lon="6.59199">
        <ele>958</ele>
        <time>2020-09-14T23:20:17Z</time>
      </trkpt>
      <trkpt lat="45.20121" lon="6.59254">
        <ele>959</ele>
        <time>2020-09-14T23:20:24Z</time>
      </trkpt>
      <trkpt lat="45.20107" lon="6.59301">
        <ele>959</ele>
        <time>2020-09-14T23:20:31Z</time>
      </trkpt>
      <trkpt lat="45.20047" lon="6.59466">
        <ele>974</ele>
        <time>2020-09-14T23:20:54Z</time>
      </trkpt>
      <trkpt lat="45.20028" lon="6.59526">
        <ele>978</ele>
        <time>2020-09-14T23:21:02Z</time>
      </trkpt>
      <trkpt lat="45.20023" lon="6.59551">
        <ele>977</ele>
        <time>2020-09-14T23:21:05Z</time>
      </trkpt>
      <trkpt lat="45.20014" lon="6.59609">
        <ele>974</ele>
        <time>2020-09-14T23:21:13Z</time>
      </trkpt>
      <trkpt lat="45.20011" lon="6.59647">
        <ele>972</ele>
        <time>2020-09-14T23:21:18Z</time>
      </trkpt>
      <trkpt lat="45.20011" lon="6.59677">
        <ele>971</ele>
        <time>2020-09-14T23:21:21Z</time>
      </trkpt>
      <trkpt lat="45.20012" lon="6.59703">
        <ele>970</ele>
        <time>2020-09-14T23:21:25Z</time>
      </trkpt>
      <trkpt lat="45.2002" lon="6.59765">
        <ele>967</ele>
        <time>2020-09-14T23:21:33Z</time>
      </trkpt>
      <trkpt lat="45.20022" lon="6.59794">
        <ele>966</ele>
        <time>2020-09-14T23:21:36Z</time>
      </trkpt>
      <trkpt lat="45.20019" lon="6.59849">
        <ele>966</ele>
        <time>2020-09-14T23:21:43Z</time>
      </trkpt>
      <trkpt lat="45.20012" lon="6.59886">
        <ele>965</ele>
        <time>2020-09-14T23:21:48Z</time>
      </trkpt>
      <trkpt lat="45.20003" lon="6.59917">
        <ele>964</ele>
        <time>2020-09-14T23:21:52Z</time>
      </trkpt>
      <trkpt lat="45.19992" lon="6.59943">
        <ele>967</ele>
        <time>2020-09-14T23:21:56Z</time>
      </trkpt>
      <trkpt lat="45.19973" lon="6.59981">
        <ele>972</ele>
        <time>2020-09-14T23:22:02Z</time>
      </trkpt>
      <trkpt lat="45.19896" lon="6.60111">
        <ele>994</ele>
        <time>2020-09-14T23:22:23Z</time>
      </trkpt>
      <trkpt lat="45.19886" lon="6.60134">
        <ele>1001</ele>
        <time>2020-09-14T23:22:26Z</time>
      </trkpt>
      <trkpt lat="45.19881" lon="6.60152">
        <ele>1003</ele>
        <time>2020-09-14T23:22:29Z</time>
      </trkpt>
      <trkpt lat="45.19875" lon="6.60186">
        <ele>1001</ele>
        <time>2020-09-14T23:22:33Z</time>
      </trkpt>
      <trkpt lat="45.19873" lon="6.60214">
        <ele>997</ele>
        <time>2020-09-14T23:22:37Z</time>
      </trkpt>
      <trkpt lat="45.19874" lon="6.60235">
        <ele>992</ele>
        <time>2020-09-14T23:22:39Z</time>
      </trkpt>
      <trkpt lat="45.19877" lon="6.60264">
        <ele>987</ele>
        <time>2020-09-14T23:22:43Z</time>
      </trkpt>
      <trkpt lat="45.19895" lon="6.60349">
        <ele>982</ele>
        <time>2020-09-14T23:22:54Z</time>
      </trkpt>
      <trkpt lat="45.19897" lon="6.60367">
        <ele>982</ele>
        <time>2020-09-14T23:22:57Z</time>
      </trkpt>
      <trkpt lat="45.19901" lon="6.6046">
        <ele>988</ele>
        <time>2020-09-14T23:23:08Z</time>
      </trkpt>
      <trkpt lat="45.19903" lon="6.60649">
        <ele>990</ele>
        <time>2020-09-14T23:23:32Z</time>
      </trkpt>
      <trkpt lat="45.199" lon="6.60711">
        <ele>992</ele>
        <time>2020-09-14T23:23:40Z</time>
      </trkpt>
      <trkpt lat="45.19869" lon="6.61008">
        <ele>1007</ele>
        <time>2020-09-14T23:24:17Z</time>
      </trkpt>
      <trkpt lat="45.19866" lon="6.61067">
        <ele>1015</ele>
        <time>2020-09-14T23:24:25Z</time>
      </trkpt>
      <trkpt lat="45.19864" lon="6.61185">
        <ele>1018</ele>
        <time>2020-09-14T23:24:40Z</time>
      </trkpt>
      <trkpt lat="45.1986" lon="6.61224">
        <ele>1019</ele>
        <time>2020-09-14T23:24:45Z</time>
      </trkpt>
      <trkpt lat="45.19857" lon="6.61243">
        <ele>1019</ele>
        <time>2020-09-14T23:24:47Z</time>
      </trkpt>
      <trkpt lat="45.19846" lon="6.61281">
        <ele>1017</ele>
        <time>2020-09-14T23:24:52Z</time>
      </trkpt>
      <trkpt lat="45.19832" lon="6.61318">
        <ele>1013</ele>
        <time>2020-09-14T23:24:57Z</time>
      </trkpt>
      <trkpt lat="45.19801" lon="6.61387">
        <ele>1024</ele>
        <time>2020-09-14T23:25:08Z</time>
      </trkpt>
      <trkpt lat="45.19783" lon="6.61437">
        <ele>1028</ele>
        <time>2020-09-14T23:25:15Z</time>
      </trkpt>
      <trkpt lat="45.19749" lon="6.61573">
        <ele>1021</ele>
        <time>2020-09-14T23:25:33Z</time>
      </trkpt>
      <trkpt lat="45.19741" lon="6.61596">
        <ele>1025</ele>
        <time>2020-09-14T23:25:36Z</time>
      </trkpt>
      <trkpt lat="45.19697" lon="6.61674">
        <ele>1033</ele>
        <time>2020-09-14T23:25:49Z</time>
      </trkpt>
      <trkpt lat="45.19637" lon="6.61761">
        <ele>1032</ele>
        <time>2020-09-14T23:26:04Z</time>
      </trkpt>
      <trkpt lat="45.19626" lon="6.61783">
        <ele>1035</ele>
        <time>2020-09-14T23:26:07Z</time>
      </trkpt>
      <trkpt lat="45.19621" lon="6.61796">
        <ele>1036</ele>
        <time>2020-09-14T23:26:09Z</time>
      </trkpt>
      <trkpt lat="45.19617" lon="6.61822">
        <ele>1035</ele>
        <time>2020-09-14T23:26:12Z</time>
      </trkpt>
      <trkpt lat="45.19605" lon="6.61934">
        <ele>1030</ele>
        <time>2020-09-14T23:26:27Z</time>
      </trkpt>
      <trkpt lat="45.19604" lon="6.61963">
        <ele>1029</ele>
        <time>2020-09-14T23:26:30Z</time>
      </trkpt>
      <trkpt lat="45.19606" lon="6.61987">
        <ele>1027</ele>
        <time>2020-09-14T23:26:33Z</time>
      </trkpt>
      <trkpt lat="45.19611" lon="6.62014">
        <ele>1026</ele>
        <time>2020-09-14T23:26:37Z</time>
      </trkpt>
      <trkpt lat="45.19621" lon="6.62059">
        <ele>1025</ele>
        <time>2020-09-14T23:26:43Z</time>
      </trkpt>
      <trkpt lat="45.19622" lon="6.62077">
        <ele>1025</ele>
        <time>2020-09-14T23:26:45Z</time>
      </trkpt>
      <trkpt lat="45.19622" lon="6.62089">
        <ele>1025</ele>
        <time>2020-09-14T23:26:46Z</time>
      </trkpt>
      <trkpt lat="45.1962" lon="6.62096">
        <ele>1026</ele>
        <time>2020-09-14T23:26:47Z</time>
      </trkpt>
      <trkpt lat="45.19617" lon="6.62101">
        <ele>1026</ele>
        <time>2020-09-14T23:26:48Z</time>
      </trkpt>
      <trkpt lat="45.19615" lon="6.62107">
        <ele>1026</ele>
        <time>2020-09-14T23:26:49Z</time>
      </trkpt>
      <trkpt lat="45.19609" lon="6.6211">
        <ele>1027</ele>
        <time>2020-09-14T23:26:50Z</time>
      </trkpt>
      <trkpt lat="45.196" lon="6.62118">
        <ele>1028</ele>
        <time>2020-09-14T23:26:52Z</time>
      </trkpt>
      <trkpt lat="45.19591" lon="6.62134">
        <ele>1028</ele>
        <time>2020-09-14T23:26:55Z</time>
      </trkpt>
      <trkpt lat="45.19551" lon="6.6229">
        <ele>1035</ele>
        <time>2020-09-14T23:27:15Z</time>
      </trkpt>
      <trkpt lat="45.19544" lon="6.6232">
        <ele>1034</ele>
        <time>2020-09-14T23:27:19Z</time>
      </trkpt>
      <trkpt lat="45.19535" lon="6.62403">
        <ele>1031</ele>
        <time>2020-09-14T23:27:30Z</time>
      </trkpt>
      <trkpt lat="45.19526" lon="6.62476">
        <ele>1031</ele>
        <time>2020-09-14T23:27:39Z</time>
      </trkpt>
      <trkpt lat="45.19517" lon="6.6255">
        <ele>1031</ele>
        <time>2020-09-14T23:27:49Z</time>
      </trkpt>
      <trkpt lat="45.19511" lon="6.62595">
        <ele>1032</ele>
        <time>2020-09-14T23:27:54Z</time>
      </trkpt>
      <trkpt lat="45.19506" lon="6.62622">
        <ele>1032</ele>
        <time>2020-09-14T23:27:58Z</time>
      </trkpt>
      <trkpt lat="45.19484" lon="6.62733">
        <ele>1033</ele>
        <time>2020-09-14T23:28:12Z</time>
      </trkpt>
      <trkpt lat="45.19484" lon="6.62735">
        <ele>1033</ele>
        <time>2020-09-14T23:28:13Z</time>
      </trkpt>
      <trkpt lat="45.19473" lon="6.62782">
        <ele>1033</ele>
        <time>2020-09-14T23:28:19Z</time>
      </trkpt>
      <trkpt lat="45.19463" lon="6.62823">
        <ele>1034</ele>
        <time>2020-09-14T23:28:24Z</time>
      </trkpt>
      <trkpt lat="45.19447" lon="6.6289">
        <ele>1034</ele>
        <time>2020-09-14T23:28:33Z</time>
      </trkpt>
      <trkpt lat="45.19442" lon="6.629">
        <ele>1034</ele>
        <time>2020-09-14T23:28:35Z</time>
      </trkpt>
      <trkpt lat="45.19433" lon="6.62908">
        <ele>1035</ele>
        <time>2020-09-14T23:28:37Z</time>
      </trkpt>
      <trkpt lat="45.19429" lon="6.62909">
        <ele>1035</ele>
        <time>2020-09-14T23:28:37Z</time>
      </trkpt>
      <trkpt lat="45.19423" lon="6.62916">
        <ele>1036</ele>
        <time>2020-09-14T23:28:39Z</time>
      </trkpt>
      <trkpt lat="45.1942" lon="6.62929">
        <ele>1036</ele>
        <time>2020-09-14T23:28:40Z</time>
      </trkpt>
      <trkpt lat="45.19421" lon="6.62938">
        <ele>1036</ele>
        <time>2020-09-14T23:28:42Z</time>
      </trkpt>
      <trkpt lat="45.19421" lon="6.62958">
        <ele>1036</ele>
        <time>2020-09-14T23:28:44Z</time>
      </trkpt>
      <trkpt lat="45.19418" lon="6.6297">
        <ele>1036</ele>
        <time>2020-09-14T23:28:46Z</time>
      </trkpt>
      <trkpt lat="45.19407" lon="6.63023">
        <ele>1038</ele>
        <time>2020-09-14T23:28:53Z</time>
      </trkpt>
      <trkpt lat="45.19399" lon="6.63063">
        <ele>1039</ele>
        <time>2020-09-14T23:28:58Z</time>
      </trkpt>
      <trkpt lat="45.19387" lon="6.63115">
        <ele>1043</ele>
        <time>2020-09-14T23:29:05Z</time>
      </trkpt>
      <trkpt lat="45.19372" lon="6.63163">
        <ele>1049</ele>
        <time>2020-09-14T23:29:11Z</time>
      </trkpt>
      <trkpt lat="45.19349" lon="6.63256">
        <ele>1054</ele>
        <time>2020-09-14T23:29:24Z</time>
      </trkpt>
      <trkpt lat="45.19285" lon="6.63639">
        <ele>1064</ele>
        <time>2020-09-14T23:30:13Z</time>
      </trkpt>
      <trkpt lat="45.1926" lon="6.63744">
        <ele>1058</ele>
        <time>2020-09-14T23:30:27Z</time>
      </trkpt>
      <trkpt lat="45.19243" lon="6.6379">
        <ele>1054</ele>
        <time>2020-09-14T23:30:33Z</time>
      </trkpt>
      <trkpt lat="45.19211" lon="6.63844">
        <ele>1053</ele>
        <time>2020-09-14T23:30:42Z</time>
      </trkpt>
      <trkpt lat="45.19174" lon="6.63891">
        <ele>1051</ele>
        <time>2020-09-14T23:30:51Z</time>
      </trkpt>
      <trkpt lat="45.19118" lon="6.63966">
        <ele>1053</ele>
        <time>2020-09-14T23:31:05Z</time>
      </trkpt>
      <trkpt lat="45.191" lon="6.63994">
        <ele>1053</ele>
        <time>2020-09-14T23:31:09Z</time>
      </trkpt>
      <trkpt lat="45.19085" lon="6.64026">
        <ele>1052</ele>
        <time>2020-09-14T23:31:14Z</time>
      </trkpt>
      <trkpt lat="45.19076" lon="6.64054">
        <ele>1052</ele>
        <time>2020-09-14T23:31:18Z</time>
      </trkpt>
      <trkpt lat="45.1907" lon="6.64081">
        <ele>1051</ele>
        <time>2020-09-14T23:31:22Z</time>
      </trkpt>
      <trkpt lat="45.19068" lon="6.641">
        <ele>1051</ele>
        <time>2020-09-14T23:31:24Z</time>
      </trkpt>
      <trkpt lat="45.19064" lon="6.64142">
        <ele>1052</ele>
        <time>2020-09-14T23:31:29Z</time>
      </trkpt>
      <trkpt lat="45.19064" lon="6.64173">
        <ele>1051</ele>
        <time>2020-09-14T23:31:33Z</time>
      </trkpt>
      <trkpt lat="45.1906" lon="6.64231">
        <ele>1052</ele>
        <time>2020-09-14T23:31:41Z</time>
      </trkpt>
      <trkpt lat="45.19057" lon="6.64349">
        <ele>1052</ele>
        <time>2020-09-14T23:31:55Z</time>
      </trkpt>
      <trkpt lat="45.19061" lon="6.64396">
        <ele>1051</ele>
        <time>2020-09-14T23:32:01Z</time>
      </trkpt>
      <trkpt lat="45.19062" lon="6.64425">
        <ele>1051</ele>
        <time>2020-09-14T23:32:05Z</time>
      </trkpt>
      <trkpt lat="45.19064" lon="6.64446">
        <ele>1051</ele>
        <time>2020-09-14T23:32:08Z</time>
      </trkpt>
      <trkpt lat="45.19104" lon="6.64666">
        <ele>1056</ele>
        <time>2020-09-14T23:32:36Z</time>
      </trkpt>
      <trkpt lat="45.19107" lon="6.64704">
        <ele>1055</ele>
        <time>2020-09-14T23:32:41Z</time>
      </trkpt>
      <trkpt lat="45.19106" lon="6.64715">
        <ele>1055</ele>
        <time>2020-09-14T23:32:42Z</time>
      </trkpt>
      <trkpt lat="45.19109" lon="6.64724">
        <ele>1055</ele>
        <time>2020-09-14T23:32:44Z</time>
      </trkpt>
      <trkpt lat="45.19112" lon="6.64727">
        <ele>1055</ele>
        <time>2020-09-14T23:32:44Z</time>
      </trkpt>
      <trkpt lat="45.19119" lon="6.64752">
        <ele>1054</ele>
        <time>2020-09-14T23:32:48Z</time>
      </trkpt>
      <trkpt lat="45.1913" lon="6.64816">
        <ele>1055</ele>
        <time>2020-09-14T23:32:56Z</time>
      </trkpt>
      <trkpt lat="45.19213" lon="6.65272">
        <ele>1059</ele>
        <time>2020-09-14T23:33:55Z</time>
      </trkpt>
      <trkpt lat="45.19244" lon="6.65444">
        <ele>1058</ele>
        <time>2020-09-14T23:34:17Z</time>
      </trkpt>
      <trkpt lat="45.19258" lon="6.65526">
        <ele>1057</ele>
        <time>2020-09-14T23:34:28Z</time>
      </trkpt>
      <trkpt lat="45.19277" lon="6.65609">
        <ele>1057</ele>
        <time>2020-09-14T23:34:39Z</time>
      </trkpt>
      <trkpt lat="45.19279" lon="6.65625">
        <ele>1058</ele>
        <time>2020-09-14T23:34:41Z</time>
      </trkpt>
      <trkpt lat="45.19289" lon="6.65657">
        <ele>1058</ele>
        <time>2020-09-14T23:34:45Z</time>
      </trkpt>
      <trkpt lat="45.19301" lon="6.65694">
        <ele>1058</ele>
        <time>2020-09-14T23:34:50Z</time>
      </trkpt>
      <trkpt lat="45.19315" lon="6.65731">
        <ele>1059</ele>
        <time>2020-09-14T23:34:55Z</time>
      </trkpt>
      <trkpt lat="45.19322" lon="6.6575">
        <ele>1059</ele>
        <time>2020-09-14T23:34:58Z</time>
      </trkpt>
      <trkpt lat="45.1933" lon="6.65774">
        <ele>1059</ele>
        <time>2020-09-14T23:35:02Z</time>
      </trkpt>
      <trkpt lat="45.19349" lon="6.65827">
        <ele>1060</ele>
        <time>2020-09-14T23:35:09Z</time>
      </trkpt>
      <trkpt lat="45.19358" lon="6.65848">
        <ele>1060</ele>
        <time>2020-09-14T23:35:12Z</time>
      </trkpt>
      <trkpt lat="45.19361" lon="6.65857">
        <ele>1060</ele>
        <time>2020-09-14T23:35:13Z</time>
      </trkpt>
      <trkpt lat="45.19363" lon="6.6586">
        <ele>1060</ele>
        <time>2020-09-14T23:35:14Z</time>
      </trkpt>
      <trkpt lat="45.194" lon="6.65944">
        <ele>1059</ele>
        <time>2020-09-14T23:35:26Z</time>
      </trkpt>
      <trkpt lat="45.19405" lon="6.65954">
        <ele>1059</ele>
        <time>2020-09-14T23:35:28Z</time>
      </trkpt>
      <trkpt lat="45.19415" lon="6.65972">
        <ele>1059</ele>
        <time>2020-09-14T23:35:31Z</time>
      </trkpt>
      <trkpt lat="45.19558" lon="6.66178">
        <ele>1058</ele>
        <time>2020-09-14T23:36:07Z</time>
      </trkpt>
      <trkpt lat="45.19593" lon="6.66223">
        <ele>1058</ele>
        <time>2020-09-14T23:36:15Z</time>
      </trkpt>
      <trkpt lat="45.1962" lon="6.66259">
        <ele>1058</ele>
        <time>2020-09-14T23:36:22Z</time>
      </trkpt>
      <trkpt lat="45.1963" lon="6.66272">
        <ele>1059</ele>
        <time>2020-09-14T23:36:24Z</time>
      </trkpt>
      <trkpt lat="45.1971" lon="6.66377">
        <ele>1061</ele>
        <time>2020-09-14T23:36:44Z</time>
      </trkpt>
      <trkpt lat="45.19771" lon="6.66454">
        <ele>1061</ele>
        <time>2020-09-14T23:36:58Z</time>
      </trkpt>
      <trkpt lat="45.19792" lon="6.66482">
        <ele>1061</ele>
        <time>2020-09-14T23:37:03Z</time>
      </trkpt>
      <trkpt lat="45.19807" lon="6.66511">
        <ele>1061</ele>
        <time>2020-09-14T23:37:08Z</time>
      </trkpt>
      <trkpt lat="45.19821" lon="6.66552">
        <ele>1062</ele>
        <time>2020-09-14T23:37:14Z</time>
      </trkpt>
      <trkpt lat="45.19864" lon="6.66695">
        <ele>1068</ele>
        <time>2020-09-14T23:37:33Z</time>
      </trkpt>
      <trkpt lat="45.19874" lon="6.66715">
        <ele>1068</ele>
        <time>2020-09-14T23:37:36Z</time>
      </trkpt>
      <trkpt lat="45.19885" lon="6.66732">
        <ele>1068</ele>
        <time>2020-09-14T23:37:39Z</time>
      </trkpt>
      <trkpt lat="45.19909" lon="6.66758">
        <ele>1066</ele>
        <time>2020-09-14T23:37:44Z</time>
      </trkpt>
      <trkpt lat="45.19946" lon="6.66797">
        <ele>1066</ele>
        <time>2020-09-14T23:37:53Z</time>
      </trkpt>
      <trkpt lat="45.19971" lon="6.6682">
        <ele>1065</ele>
        <time>2020-09-14T23:37:58Z</time>
      </trkpt>
      <trkpt lat="45.1998" lon="6.6684">
        <ele>1065</ele>
        <time>2020-09-14T23:38:01Z</time>
      </trkpt>
      <trkpt lat="45.19978" lon="6.66843">
        <ele>1065</ele>
        <time>2020-09-14T23:38:01Z</time>
      </trkpt>
      <trkpt lat="45.19977" lon="6.66852">
        <ele>1066</ele>
        <time>2020-09-14T23:38:03Z</time>
      </trkpt>
      <trkpt lat="45.19977" lon="6.66857">
        <ele>1066</ele>
        <time>2020-09-14T23:38:03Z</time>
      </trkpt>
      <trkpt lat="45.19979" lon="6.66861">
        <ele>1066</ele>
        <time>2020-09-14T23:38:04Z</time>
      </trkpt>
      <trkpt lat="45.19981" lon="6.66864">
        <ele>1066</ele>
        <time>2020-09-14T23:38:04Z</time>
      </trkpt>
      <trkpt lat="45.19988" lon="6.66866">
        <ele>1065</ele>
        <time>2020-09-14T23:38:06Z</time>
      </trkpt>
      <trkpt lat="45.19991" lon="6.66866">
        <ele>1064</ele>
        <time>2020-09-14T23:38:06Z</time>
      </trkpt>
      <trkpt lat="45.19994" lon="6.66863">
        <ele>1064</ele>
        <time>2020-09-14T23:38:07Z</time>
      </trkpt>
      <trkpt lat="45.19997" lon="6.66859">
        <ele>1063</ele>
        <time>2020-09-14T23:38:07Z</time>
      </trkpt>
      <trkpt lat="45.19998" lon="6.66855">
        <ele>1063</ele>
        <time>2020-09-14T23:38:08Z</time>
      </trkpt>
      <trkpt lat="45.20016" lon="6.66863">
        <ele>1063</ele>
        <time>2020-09-14T23:38:11Z</time>
      </trkpt>
      <trkpt lat="45.20055" lon="6.66901">
        <ele>1064</ele>
        <time>2020-09-14T23:38:20Z</time>
      </trkpt>
      <trkpt lat="45.20105" lon="6.6695">
        <ele>1064</ele>
        <time>2020-09-14T23:38:31Z</time>
      </trkpt>
      <trkpt lat="45.2017" lon="6.67025">
        <ele>1065</ele>
        <time>2020-09-14T23:38:46Z</time>
      </trkpt>
      <trkpt lat="45.20179" lon="6.67039">
        <ele>1065</ele>
        <time>2020-09-14T23:38:48Z</time>
      </trkpt>
      <trkpt lat="45.20213" lon="6.67092">
        <ele>1065</ele>
        <time>2020-09-14T23:38:57Z</time>
      </trkpt>
      <trkpt lat="45.20215" lon="6.67096">
        <ele>1065</ele>
        <time>2020-09-14T23:38:57Z</time>
      </trkpt>
      <trkpt lat="45.20219" lon="6.67103">
        <ele>1065</ele>
        <time>2020-09-14T23:38:59Z</time>
      </trkpt>
      <trkpt lat="45.20216" lon="6.67109">
        <ele>1066</ele>
        <time>2020-09-14T23:39:00Z</time>
      </trkpt>
      <trkpt lat="45.20215" lon="6.67114">
        <ele>1066</ele>
        <time>2020-09-14T23:39:00Z</time>
      </trkpt>
      <trkpt lat="45.20216" lon="6.6712">
        <ele>1066</ele>
        <time>2020-09-14T23:39:01Z</time>
      </trkpt>
      <trkpt lat="45.20219" lon="6.67125">
        <ele>1066</ele>
        <time>2020-09-14T23:39:02Z</time>
      </trkpt>
      <trkpt lat="45.20225" lon="6.67129">
        <ele>1066</ele>
        <time>2020-09-14T23:39:03Z</time>
      </trkpt>
      <trkpt lat="45.20227" lon="6.6713">
        <ele>1066</ele>
        <time>2020-09-14T23:39:03Z</time>
      </trkpt>
      <trkpt lat="45.20231" lon="6.67128">
        <ele>1066</ele>
        <time>2020-09-14T23:39:04Z</time>
      </trkpt>
      <trkpt lat="45.20235" lon="6.67124">
        <ele>1066</ele>
        <time>2020-09-14T23:39:05Z</time>
      </trkpt>
      <trkpt lat="45.20237" lon="6.67119">
        <ele>1066</ele>
        <time>2020-09-14T23:39:06Z</time>
      </trkpt>
      <trkpt lat="45.20237" lon="6.67108">
        <ele>1065</ele>
        <time>2020-09-14T23:39:07Z</time>
      </trkpt>
      <trkpt lat="45.20235" lon="6.67103">
        <ele>1065</ele>
        <time>2020-09-14T23:39:08Z</time>
      </trkpt>
      <trkpt lat="45.20239" lon="6.67097">
        <ele>1065</ele>
        <time>2020-09-14T23:39:09Z</time>
      </trkpt>
      <trkpt lat="45.20252" lon="6.6708">
        <ele>1064</ele>
        <time>2020-09-14T23:39:12Z</time>
      </trkpt>
      <trkpt lat="45.20261" lon="6.67067">
        <ele>1064</ele>
        <time>2020-09-14T23:39:14Z</time>
      </trkpt>
      <trkpt lat="45.20266" lon="6.67061">
        <ele>1064</ele>
        <time>2020-09-14T23:39:15Z</time>
      </trkpt>
      <trkpt lat="45.20297" lon="6.67026">
        <ele>1066</ele>
        <time>2020-09-14T23:39:22Z</time>
      </trkpt>
      <trkpt lat="45.20318" lon="6.67002">
        <ele>1067</ele>
        <time>2020-09-14T23:39:27Z</time>
      </trkpt>
      <trkpt lat="45.20325" lon="6.6701">
        <ele>1067</ele>
        <time>2020-09-14T23:39:29Z</time>
      </trkpt>
      <trkpt lat="45.20329" lon="6.67019">
        <ele>1067</ele>
        <time>2020-09-14T23:39:30Z</time>
      </trkpt>
      <trkpt lat="45.20353" lon="6.67071">
        <ele>1066</ele>
        <time>2020-09-14T23:39:38Z</time>
      </trkpt>
      <trkpt lat="45.20369" lon="6.67098">
        <ele>1066</ele>
        <time>2020-09-14T23:39:42Z</time>
      </trkpt>
      <trkpt lat="45.20387" lon="6.67124">
        <ele>1067</ele>
        <time>2020-09-14T23:39:47Z</time>
      </trkpt>
      <trkpt lat="45.20456" lon="6.67212">
        <ele>1069</ele>
        <time>2020-09-14T23:40:03Z</time>
      </trkpt>
      <trkpt lat="45.20461" lon="6.6722">
        <ele>1069</ele>
        <time>2020-09-14T23:40:05Z</time>
      </trkpt>
      <trkpt lat="45.20466" lon="6.67226">
        <ele>1069</ele>
        <time>2020-09-14T23:40:06Z</time>
      </trkpt>
      <trkpt lat="45.20485" lon="6.67255">
        <ele>1068</ele>
        <time>2020-09-14T23:40:11Z</time>
      </trkpt>
      <trkpt lat="45.20512" lon="6.67284">
        <ele>1070</ele>
        <time>2020-09-14T23:40:17Z</time>
      </trkpt>
      <trkpt lat="45.20547" lon="6.67313">
        <ele>1076</ele>
        <time>2020-09-14T23:40:24Z</time>
      </trkpt>
      <trkpt lat="45.20559" lon="6.67326">
        <ele>1077</ele>
        <time>2020-09-14T23:40:27Z</time>
      </trkpt>
      <trkpt lat="45.20567" lon="6.6734">
        <ele>1078</ele>
        <time>2020-09-14T23:40:29Z</time>
      </trkpt>
      <trkpt lat="45.20591" lon="6.67401">
        <ele>1081</ele>
        <time>2020-09-14T23:40:38Z</time>
      </trkpt>
      <trkpt lat="45.20636" lon="6.67482">
        <ele>1100</ele>
        <time>2020-09-14T23:40:51Z</time>
      </trkpt>
      <trkpt lat="45.20646" lon="6.67508">
        <ele>1100</ele>
        <time>2020-09-14T23:40:55Z</time>
      </trkpt>
      <trkpt lat="45.20686" lon="6.67631">
        <ele>1102</ele>
        <time>2020-09-14T23:41:12Z</time>
      </trkpt>
      <trkpt lat="45.20697" lon="6.67657">
        <ele>1105</ele>
        <time>2020-09-14T23:41:15Z</time>
      </trkpt>
      <trkpt lat="45.20719" lon="6.67698">
        <ele>1110</ele>
        <time>2020-09-14T23:41:22Z</time>
      </trkpt>
      <trkpt lat="45.20746" lon="6.67779">
        <ele>1103</ele>
        <time>2020-09-14T23:41:33Z</time>
      </trkpt>
      <trkpt lat="45.20776" lon="6.67859">
        <ele>1107</ele>
        <time>2020-09-14T23:41:44Z</time>
      </trkpt>
      <trkpt lat="45.20801" lon="6.67917">
        <ele>1112</ele>
        <time>2020-09-14T23:41:53Z</time>
      </trkpt>
      <trkpt lat="45.20829" lon="6.67972">
        <ele>1117</ele>
        <time>2020-09-14T23:42:01Z</time>
      </trkpt>
      <trkpt lat="45.20914" lon="6.68114">
        <ele>1134</ele>
        <time>2020-09-14T23:42:25Z</time>
      </trkpt>
      <trkpt lat="45.20958" lon="6.68221">
        <ele>1144</ele>
        <time>2020-09-14T23:42:40Z</time>
      </trkpt>
      <trkpt lat="45.20965" lon="6.68247">
        <ele>1146</ele>
        <time>2020-09-14T23:42:44Z</time>
      </trkpt>
      <trkpt lat="45.20966" lon="6.6828">
        <ele>1145</ele>
        <time>2020-09-14T23:42:48Z</time>
      </trkpt>
      <trkpt lat="45.20969" lon="6.68329">
        <ele>1143</ele>
        <time>2020-09-14T23:42:54Z</time>
      </trkpt>
      <trkpt lat="45.20979" lon="6.68357">
        <ele>1143</ele>
        <time>2020-09-14T23:42:58Z</time>
      </trkpt>
      <trkpt lat="45.21009" lon="6.68418">
        <ele>1144</ele>
        <time>2020-09-14T23:43:07Z</time>
      </trkpt>
      <trkpt lat="45.21055" lon="6.685">
        <ele>1151</ele>
        <time>2020-09-14T23:43:21Z</time>
      </trkpt>
      <trkpt lat="45.21086" lon="6.68533">
        <ele>1155</ele>
        <time>2020-09-14T23:43:27Z</time>
      </trkpt>
      <trkpt lat="45.21114" lon="6.68559">
        <ele>1160</ele>
        <time>2020-09-14T23:43:33Z</time>
      </trkpt>
      <trkpt lat="45.21126" lon="6.68574">
        <ele>1161</ele>
        <time>2020-09-14T23:43:36Z</time>
      </trkpt>
      <trkpt lat="45.21159" lon="6.6863">
        <ele>1166</ele>
        <time>2020-09-14T23:43:45Z</time>
      </trkpt>
      <trkpt lat="45.21269" lon="6.68931">
        <ele>1182</ele>
        <time>2020-09-14T23:44:28Z</time>
      </trkpt>
      <trkpt lat="45.21284" lon="6.6898">
        <ele>1187</ele>
        <time>2020-09-14T23:44:35Z</time>
      </trkpt>
      <trkpt lat="45.21285" lon="6.68986">
        <ele>1187</ele>
        <time>2020-09-14T23:44:35Z</time>
      </trkpt>
      <trkpt lat="45.21284" lon="6.68991">
        <ele>1187</ele>
        <time>2020-09-14T23:44:36Z</time>
      </trkpt>
      <trkpt lat="45.21286" lon="6.68999">
        <ele>1188</ele>
        <time>2020-09-14T23:44:37Z</time>
      </trkpt>
      <trkpt lat="45.21288" lon="6.69003">
        <ele>1188</ele>
        <time>2020-09-14T23:44:38Z</time>
      </trkpt>
      <trkpt lat="45.21292" lon="6.69005">
        <ele>1188</ele>
        <time>2020-09-14T23:44:38Z</time>
      </trkpt>
      <trkpt lat="45.21295" lon="6.69006">
        <ele>1188</ele>
        <time>2020-09-14T23:44:39Z</time>
      </trkpt>
      <trkpt lat="45.21299" lon="6.69005">
        <ele>1189</ele>
        <time>2020-09-14T23:44:40Z</time>
      </trkpt>
      <trkpt lat="45.21302" lon="6.69002">
        <ele>1189</ele>
        <time>2020-09-14T23:44:40Z</time>
      </trkpt>
      <trkpt lat="45.21319" lon="6.69006">
        <ele>1191</ele>
        <time>2020-09-14T23:44:43Z</time>
      </trkpt>
      <trkpt lat="45.21392" lon="6.69087">
        <ele>1192</ele>
        <time>2020-09-14T23:45:00Z</time>
      </trkpt>
      <trkpt lat="45.21417" lon="6.69118">
        <ele>1194</ele>
        <time>2020-09-14T23:45:06Z</time>
      </trkpt>
      <trkpt lat="45.21428" lon="6.69141">
        <ele>1196</ele>
        <time>2020-09-14T23:45:09Z</time>
      </trkpt>
      <trkpt lat="45.21433" lon="6.69167">
        <ele>1195</ele>
        <time>2020-09-14T23:45:13Z</time>
      </trkpt>
      <trkpt lat="45.21434" lon="6.69195">
        <ele>1195</ele>
        <time>2020-09-14T23:45:16Z</time>
      </trkpt>
      <trkpt lat="45.21439" lon="6.69233">
        <ele>1195</ele>
        <time>2020-09-14T23:45:21Z</time>
      </trkpt>
      <trkpt lat="45.21444" lon="6.69261">
        <ele>1194</ele>
        <time>2020-09-14T23:45:25Z</time>
      </trkpt>
      <trkpt lat="45.21453" lon="6.69279">
        <ele>1194</ele>
        <time>2020-09-14T23:45:27Z</time>
      </trkpt>
      <trkpt lat="45.21466" lon="6.693">
        <ele>1195</ele>
        <time>2020-09-14T23:45:31Z</time>
      </trkpt>
      <trkpt lat="45.21485" lon="6.69319">
        <ele>1197</ele>
        <time>2020-09-14T23:45:35Z</time>
      </trkpt>
      <trkpt lat="45.21539" lon="6.69351">
        <ele>1209</ele>
        <time>2020-09-14T23:45:45Z</time>
      </trkpt>
      <trkpt lat="45.21555" lon="6.69369">
        <ele>1210</ele>
        <time>2020-09-14T23:45:49Z</time>
      </trkpt>
      <trkpt lat="45.21563" lon="6.69387">
        <ele>1209</ele>
        <time>2020-09-14T23:45:52Z</time>
      </trkpt>
      <trkpt lat="45.21571" lon="6.69409">
        <ele>1207</ele>
        <time>2020-09-14T23:45:55Z</time>
      </trkpt>
      <trkpt lat="45.21597" lon="6.69523">
        <ele>1215</ele>
        <time>2020-09-14T23:46:10Z</time>
      </trkpt>
      <trkpt lat="45.21604" lon="6.69551">
        <ele>1220</ele>
        <time>2020-09-14T23:46:14Z</time>
      </trkpt>
      <trkpt lat="45.21607" lon="6.69581">
        <ele>1223</ele>
        <time>2020-09-14T23:46:17Z</time>
      </trkpt>
      <trkpt lat="45.21605" lon="6.6961">
        <ele>1224</ele>
        <time>2020-09-14T23:46:21Z</time>
      </trkpt>
      <trkpt lat="45.21598" lon="6.69652">
        <ele>1222</ele>
        <time>2020-09-14T23:46:26Z</time>
      </trkpt>
      <trkpt lat="45.21581" lon="6.69719">
        <ele>1218</ele>
        <time>2020-09-14T23:46:35Z</time>
      </trkpt>
      <trkpt lat="45.21579" lon="6.69748">
        <ele>1220</ele>
        <time>2020-09-14T23:46:39Z</time>
      </trkpt>
      <trkpt lat="45.21583" lon="6.69769">
        <ele>1222</ele>
        <time>2020-09-14T23:46:42Z</time>
      </trkpt>
      <trkpt lat="45.21593" lon="6.69804">
        <ele>1227</ele>
        <time>2020-09-14T23:46:46Z</time>
      </trkpt>
      <trkpt lat="45.21634" lon="6.69905">
        <ele>1236</ele>
        <time>2020-09-14T23:47:01Z</time>
      </trkpt>
      <trkpt lat="45.21643" lon="6.69933">
        <ele>1236</ele>
        <time>2020-09-14T23:47:05Z</time>
      </trkpt>
      <trkpt lat="45.21644" lon="6.69936">
        <ele>1236</ele>
        <time>2020-09-14T23:47:05Z</time>
      </trkpt>
      <trkpt lat="45.21659" lon="6.70025">
        <ele>1238</ele>
        <time>2020-09-14T23:47:17Z</time>
      </trkpt>
      <trkpt lat="45.21674" lon="6.70104">
        <ele>1242</ele>
        <time>2020-09-14T23:47:27Z</time>
      </trkpt>
      <trkpt lat="45.21694" lon="6.70171">
        <ele>1244</ele>
        <time>2020-09-14T23:47:36Z</time>
      </trkpt>
      <trkpt lat="45.21761" lon="6.70368">
        <ele>1259</ele>
        <time>2020-09-14T23:48:04Z</time>
      </trkpt>
      <trkpt lat="45.21765" lon="6.7039">
        <ele>1261</ele>
        <time>2020-09-14T23:48:06Z</time>
      </trkpt>
      <trkpt lat="45.21764" lon="6.70413">
        <ele>1260</ele>
        <time>2020-09-14T23:48:09Z</time>
      </trkpt>
      <trkpt lat="45.21746" lon="6.70492">
        <ele>1257</ele>
        <time>2020-09-14T23:48:20Z</time>
      </trkpt>
      <trkpt lat="45.21744" lon="6.70546">
        <ele>1257</ele>
        <time>2020-09-14T23:48:27Z</time>
      </trkpt>
      <trkpt lat="45.2175" lon="6.70611">
        <ele>1260</ele>
        <time>2020-09-14T23:48:35Z</time>
      </trkpt>
      <trkpt lat="45.21762" lon="6.70683">
        <ele>1266</ele>
        <time>2020-09-14T23:48:44Z</time>
      </trkpt>
      <trkpt lat="45.21766" lon="6.70735">
        <ele>1271</ele>
        <time>2020-09-14T23:48:51Z</time>
      </trkpt>
      <trkpt lat="45.21756" lon="6.70918">
        <ele>1274</ele>
        <time>2020-09-14T23:49:14Z</time>
      </trkpt>
      <trkpt lat="45.2176" lon="6.70971">
        <ele>1278</ele>
        <time>2020-09-14T23:49:20Z</time>
      </trkpt>
      <trkpt lat="45.21769" lon="6.71053">
        <ele>1282</ele>
        <time>2020-09-14T23:49:31Z</time>
      </trkpt>
      <trkpt lat="45.2177" lon="6.71106">
        <ele>1275</ele>
        <time>2020-09-14T23:49:37Z</time>
      </trkpt>
      <trkpt lat="45.2178" lon="6.71134">
        <ele>1276</ele>
        <time>2020-09-14T23:49:41Z</time>
      </trkpt>
      <trkpt lat="45.21818" lon="6.71206">
        <ele>1283</ele>
        <time>2020-09-14T23:49:53Z</time>
      </trkpt>
      <trkpt lat="45.21858" lon="6.71258">
        <ele>1291</ele>
        <time>2020-09-14T23:50:02Z</time>
      </trkpt>
      <trkpt lat="45.21914" lon="6.7131">
        <ele>1307</ele>
        <time>2020-09-14T23:50:14Z</time>
      </trkpt>
      <trkpt lat="45.21941" lon="6.71339">
        <ele>1311</ele>
        <time>2020-09-14T23:50:20Z</time>
      </trkpt>
      <trkpt lat="45.21952" lon="6.7136">
        <ele>1314</ele>
        <time>2020-09-14T23:50:23Z</time>
      </trkpt>
      <trkpt lat="45.21957" lon="6.71428">
        <ele>1308</ele>
        <time>2020-09-14T23:50:32Z</time>
      </trkpt>
      <trkpt lat="45.21965" lon="6.7145">
        <ele>1309</ele>
        <time>2020-09-14T23:50:35Z</time>
      </trkpt>
      <trkpt lat="45.22008" lon="6.71502">
        <ele>1323</ele>
        <time>2020-09-14T23:50:45Z</time>
      </trkpt>
      <trkpt lat="45.22028" lon="6.71543">
        <ele>1327</ele>
        <time>2020-09-14T23:50:51Z</time>
      </trkpt>
      <trkpt lat="45.22037" lon="6.71589">
        <ele>1324</ele>
        <time>2020-09-14T23:50:57Z</time>
      </trkpt>
      <trkpt lat="45.22039" lon="6.71664">
        <ele>1317</ele>
        <time>2020-09-14T23:51:07Z</time>
      </trkpt>
      <trkpt lat="45.2204" lon="6.71698">
        <ele>1316</ele>
        <time>2020-09-14T23:51:11Z</time>
      </trkpt>
      <trkpt lat="45.22045" lon="6.71717">
        <ele>1319</ele>
        <time>2020-09-14T23:51:14Z</time>
      </trkpt>
      <trkpt lat="45.22061" lon="6.71771">
        <ele>1328</ele>
        <time>2020-09-14T23:51:21Z</time>
      </trkpt>
      <trkpt lat="45.22065" lon="6.71822">
        <ele>1332</ele>
        <time>2020-09-14T23:51:27Z</time>
      </trkpt>
      <trkpt lat="45.22071" lon="6.71939">
        <ele>1342</ele>
        <time>2020-09-14T23:51:42Z</time>
      </trkpt>
      <trkpt lat="45.22059" lon="6.71987">
        <ele>1341</ele>
        <time>2020-09-14T23:51:48Z</time>
      </trkpt>
      <trkpt lat="45.22053" lon="6.72023">
        <ele>1337</ele>
        <time>2020-09-14T23:51:53Z</time>
      </trkpt>
      <trkpt lat="45.22057" lon="6.72052">
        <ele>1336</ele>
        <time>2020-09-14T23:51:57Z</time>
      </trkpt>
      <trkpt lat="45.22071" lon="6.72087">
        <ele>1341</ele>
        <time>2020-09-14T23:52:02Z</time>
      </trkpt>
      <trkpt lat="45.22092" lon="6.72108">
        <ele>1349</ele>
        <time>2020-09-14T23:52:06Z</time>
      </trkpt>
      <trkpt lat="45.22135" lon="6.72133">
        <ele>1359</ele>
        <time>2020-09-14T23:52:15Z</time>
      </trkpt>
      <trkpt lat="45.22155" lon="6.72153">
        <ele>1361</ele>
        <time>2020-09-14T23:52:19Z</time>
      </trkpt>
      <trkpt lat="45.2219" lon="6.7221">
        <ele>1365</ele>
        <time>2020-09-14T23:52:28Z</time>
      </trkpt>
      <trkpt lat="45.22212" lon="6.72251">
        <ele>1371</ele>
        <time>2020-09-14T23:52:35Z</time>
      </trkpt>
      <trkpt lat="45.22219" lon="6.72271">
        <ele>1374</ele>
        <time>2020-09-14T23:52:38Z</time>
      </trkpt>
      <trkpt lat="45.22221" lon="6.72292">
        <ele>1373</ele>
        <time>2020-09-14T23:52:40Z</time>
      </trkpt>
      <trkpt lat="45.22222" lon="6.72315">
        <ele>1372</ele>
        <time>2020-09-14T23:52:43Z</time>
      </trkpt>
      <trkpt lat="45.22227" lon="6.72339">
        <ele>1373</ele>
        <time>2020-09-14T23:52:46Z</time>
      </trkpt>
      <trkpt lat="45.22258" lon="6.72388">
        <ele>1384</ele>
        <time>2020-09-14T23:52:55Z</time>
      </trkpt>
      <trkpt lat="45.22264" lon="6.72405">
        <ele>1384</ele>
        <time>2020-09-14T23:52:57Z</time>
      </trkpt>
      <trkpt lat="45.22261" lon="6.72432">
        <ele>1384</ele>
        <time>2020-09-14T23:53:00Z</time>
      </trkpt>
      <trkpt lat="45.22252" lon="6.72449">
        <ele>1385</ele>
        <time>2020-09-14T23:53:03Z</time>
      </trkpt>
      <trkpt lat="45.2223" lon="6.72479">
        <ele>1380</ele>
        <time>2020-09-14T23:53:09Z</time>
      </trkpt>
      <trkpt lat="45.22216" lon="6.72508">
        <ele>1375</ele>
        <time>2020-09-14T23:53:13Z</time>
      </trkpt>
      <trkpt lat="45.22213" lon="6.72531">
        <ele>1373</ele>
        <time>2020-09-14T23:53:16Z</time>
      </trkpt>
      <trkpt lat="45.22216" lon="6.72554">
        <ele>1375</ele>
        <time>2020-09-14T23:53:19Z</time>
      </trkpt>
      <trkpt lat="45.22242" lon="6.72604">
        <ele>1391</ele>
        <time>2020-09-14T23:53:27Z</time>
      </trkpt>
      <trkpt lat="45.22252" lon="6.72639">
        <ele>1398</ele>
        <time>2020-09-14T23:53:31Z</time>
      </trkpt>
      <trkpt lat="45.22263" lon="6.72691">
        <ele>1400</ele>
        <time>2020-09-14T23:53:38Z</time>
      </trkpt>
      <trkpt lat="45.22279" lon="6.72736">
        <ele>1405</ele>
        <time>2020-09-14T23:53:45Z</time>
      </trkpt>
      <trkpt lat="45.22301" lon="6.72794">
        <ele>1410</ele>
        <time>2020-09-14T23:53:53Z</time>
      </trkpt>
      <trkpt lat="45.22331" lon="6.72857">
        <ele>1413</ele>
        <time>2020-09-14T23:54:02Z</time>
      </trkpt>
      <trkpt lat="45.2236" lon="6.72899">
        <ele>1417</ele>
        <time>2020-09-14T23:54:10Z</time>
      </trkpt>
      <trkpt lat="45.22406" lon="6.72956">
        <ele>1421</ele>
        <time>2020-09-14T23:54:21Z</time>
      </trkpt>
      <trkpt lat="45.22439" lon="6.73002">
        <ele>1419</ele>
        <time>2020-09-14T23:54:29Z</time>
      </trkpt>
      <trkpt lat="45.22477" lon="6.73074">
        <ele>1418</ele>
        <time>2020-09-14T23:54:40Z</time>
      </trkpt>
      <trkpt lat="45.2251" lon="6.73153">
        <ele>1421</ele>
        <time>2020-09-14T23:54:52Z</time>
      </trkpt>
      <trkpt lat="45.22566" lon="6.73306">
        <ele>1426</ele>
        <time>2020-09-14T23:55:13Z</time>
      </trkpt>
      <trkpt lat="45.22583" lon="6.73338">
        <ele>1425</ele>
        <time>2020-09-14T23:55:18Z</time>
      </trkpt>
      <trkpt lat="45.22594" lon="6.7335">
        <ele>1424</ele>
        <time>2020-09-14T23:55:21Z</time>
      </trkpt>
      <trkpt lat="45.22605" lon="6.73357">
        <ele>1425</ele>
        <time>2020-09-14T23:55:23Z</time>
      </trkpt>
      <trkpt lat="45.22663" lon="6.73379">
        <ele>1429</ele>
        <time>2020-09-14T23:55:33Z</time>
      </trkpt>
      <trkpt lat="45.22676" lon="6.73392">
        <ele>1426</ele>
        <time>2020-09-14T23:55:36Z</time>
      </trkpt>
      <trkpt lat="45.22686" lon="6.7341">
        <ele>1421</ele>
        <time>2020-09-14T23:55:39Z</time>
      </trkpt>
      <trkpt lat="45.2269" lon="6.73431">
        <ele>1420</ele>
        <time>2020-09-14T23:55:42Z</time>
      </trkpt>
      <trkpt lat="45.22691" lon="6.73454">
        <ele>1422</ele>
        <time>2020-09-14T23:55:45Z</time>
      </trkpt>
      <trkpt lat="45.22686" lon="6.73471">
        <ele>1423</ele>
        <time>2020-09-14T23:55:47Z</time>
      </trkpt>
      <trkpt lat="45.22668" lon="6.73491">
        <ele>1423</ele>
        <time>2020-09-14T23:55:51Z</time>
      </trkpt>
      <trkpt lat="45.22641" lon="6.73502">
        <ele>1425</ele>
        <time>2020-09-14T23:55:56Z</time>
      </trkpt>
      <trkpt lat="45.22534" lon="6.73517">
        <ele>1429</ele>
        <time>2020-09-14T23:56:15Z</time>
      </trkpt>
      <trkpt lat="45.22509" lon="6.73526">
        <ele>1430</ele>
        <time>2020-09-14T23:56:20Z</time>
      </trkpt>
      <trkpt lat="45.22495" lon="6.73533">
        <ele>1432</ele>
        <time>2020-09-14T23:56:23Z</time>
      </trkpt>
      <trkpt lat="45.22478" lon="6.73549">
        <ele>1434</ele>
        <time>2020-09-14T23:56:26Z</time>
      </trkpt>
      <trkpt lat="45.22461" lon="6.73575">
        <ele>1438</ele>
        <time>2020-09-14T23:56:31Z</time>
      </trkpt>
      <trkpt lat="45.22452" lon="6.73601">
        <ele>1440</ele>
        <time>2020-09-14T23:56:34Z</time>
      </trkpt>
      <trkpt lat="45.22441" lon="6.73653">
        <ele>1442</ele>
        <time>2020-09-14T23:56:41Z</time>
      </trkpt>
      <trkpt lat="45.22446" lon="6.73696">
        <ele>1446</ele>
        <time>2020-09-14T23:56:46Z</time>
      </trkpt>
      <trkpt lat="45.22461" lon="6.7375">
        <ele>1451</ele>
        <time>2020-09-14T23:56:54Z</time>
      </trkpt>
      <trkpt lat="45.22532" lon="6.73991">
        <ele>1465</ele>
        <time>2020-09-14T23:57:26Z</time>
      </trkpt>
      <trkpt lat="45.22539" lon="6.74015">
        <ele>1466</ele>
        <time>2020-09-14T23:57:30Z</time>
      </trkpt>
      <trkpt lat="45.22548" lon="6.74034">
        <ele>1467</ele>
        <time>2020-09-14T23:57:33Z</time>
      </trkpt>
      <trkpt lat="45.22553" lon="6.74042">
        <ele>1468</ele>
        <time>2020-09-14T23:57:34Z</time>
      </trkpt>
      <trkpt lat="45.22565" lon="6.74057">
        <ele>1469</ele>
        <time>2020-09-14T23:57:37Z</time>
      </trkpt>
      <trkpt lat="45.22584" lon="6.74066">
        <ele>1471</ele>
        <time>2020-09-14T23:57:40Z</time>
      </trkpt>
      <trkpt lat="45.22598" lon="6.7407">
        <ele>1472</ele>
        <time>2020-09-14T23:57:43Z</time>
      </trkpt>
      <trkpt lat="45.22611" lon="6.74072">
        <ele>1473</ele>
        <time>2020-09-14T23:57:45Z</time>
      </trkpt>
      <trkpt lat="45.22624" lon="6.74068">
        <ele>1474</ele>
        <time>2020-09-14T23:57:48Z</time>
      </trkpt>
      <trkpt lat="45.2264" lon="6.74058">
        <ele>1476</ele>
        <time>2020-09-14T23:57:51Z</time>
      </trkpt>
      <trkpt lat="45.22645" lon="6.74053">
        <ele>1476</ele>
        <time>2020-09-14T23:57:52Z</time>
      </trkpt>
      <trkpt lat="45.22651" lon="6.74044">
        <ele>1476</ele>
        <time>2020-09-14T23:57:53Z</time>
      </trkpt>
      <trkpt lat="45.22663" lon="6.74033">
        <ele>1477</ele>
        <time>2020-09-14T23:57:56Z</time>
      </trkpt>
      <trkpt lat="45.22676" lon="6.7402">
        <ele>1478</ele>
        <time>2020-09-14T23:57:59Z</time>
      </trkpt>
      <trkpt lat="45.2272" lon="6.7398">
        <ele>1479</ele>
        <time>2020-09-14T23:58:08Z</time>
      </trkpt>
      <trkpt lat="45.22728" lon="6.73974">
        <ele>1479</ele>
        <time>2020-09-14T23:58:10Z</time>
      </trkpt>
      <trkpt lat="45.22733" lon="6.7397">
        <ele>1479</ele>
        <time>2020-09-14T23:58:11Z</time>
      </trkpt>
      <trkpt lat="45.22741" lon="6.73966">
        <ele>1479</ele>
        <time>2020-09-14T23:58:12Z</time>
      </trkpt>
      <trkpt lat="45.22762" lon="6.73966">
        <ele>1479</ele>
        <time>2020-09-14T23:58:16Z</time>
      </trkpt>
      <trkpt lat="45.22796" lon="6.73984">
        <ele>1480</ele>
        <time>2020-09-14T23:58:22Z</time>
      </trkpt>
      <trkpt lat="45.22804" lon="6.73983">
        <ele>1480</ele>
        <time>2020-09-14T23:58:24Z</time>
      </trkpt>
      <trkpt lat="45.22811" lon="6.73981">
        <ele>1480</ele>
        <time>2020-09-14T23:58:25Z</time>
      </trkpt>
      <trkpt lat="45.22821" lon="6.73979">
        <ele>1480</ele>
        <time>2020-09-14T23:58:27Z</time>
      </trkpt>
      <trkpt lat="45.22843" lon="6.73991">
        <ele>1481</ele>
        <time>2020-09-14T23:58:31Z</time>
      </trkpt>
      <trkpt lat="45.22865" lon="6.74006">
        <ele>1484</ele>
        <time>2020-09-14T23:58:35Z</time>
      </trkpt>
      <trkpt lat="45.22885" lon="6.74038">
        <ele>1487</ele>
        <time>2020-09-14T23:58:41Z</time>
      </trkpt>
      <trkpt lat="45.22902" lon="6.74059">
        <ele>1489</ele>
        <time>2020-09-14T23:58:45Z</time>
      </trkpt>
      <trkpt lat="45.22903" lon="6.74065">
        <ele>1489</ele>
        <time>2020-09-14T23:58:46Z</time>
      </trkpt>
      <trkpt lat="45.2291" lon="6.74102">
        <ele>1489</ele>
        <time>2020-09-14T23:58:50Z</time>
      </trkpt>
      <trkpt lat="45.22913" lon="6.74117">
        <ele>1488</ele>
        <time>2020-09-14T23:58:52Z</time>
      </trkpt>
      <trkpt lat="45.22917" lon="6.74129">
        <ele>1488</ele>
        <time>2020-09-14T23:58:54Z</time>
      </trkpt>
      <trkpt lat="45.22939" lon="6.74152">
        <ele>1488</ele>
        <time>2020-09-14T23:58:59Z</time>
      </trkpt>
      <trkpt lat="45.22962" lon="6.74171">
        <ele>1487</ele>
        <time>2020-09-14T23:59:04Z</time>
      </trkpt>
      <trkpt lat="45.22978" lon="6.74175">
        <ele>1487</ele>
        <time>2020-09-14T23:59:06Z</time>
      </trkpt>
      <trkpt lat="45.22986" lon="6.74177">
        <ele>1487</ele>
        <time>2020-09-14T23:59:08Z</time>
      </trkpt>
      <trkpt lat="45.22996" lon="6.74179">
        <ele>1487</ele>
        <time>2020-09-14T23:59:10Z</time>
      </trkpt>
      <trkpt lat="45.23058" lon="6.74193">
        <ele>1490</ele>
        <time>2020-09-14T23:59:21Z</time>
      </trkpt>
      <trkpt lat="45.23076" lon="6.74204">
        <ele>1490</ele>
        <time>2020-09-14T23:59:24Z</time>
      </trkpt>
      <trkpt lat="45.23151" lon="6.74276">
        <ele>1492</ele>
        <time>2020-09-14T23:59:40Z</time>
      </trkpt>
      <trkpt lat="45.2316" lon="6.74288">
        <ele>1492</ele>
        <time>2020-09-14T23:59:43Z</time>
      </trkpt>
      <trkpt lat="45.23168" lon="6.74303">
        <ele>1492</ele>
        <time>2020-09-14T23:59:45Z</time>
      </trkpt>
      <trkpt lat="45.23173" lon="6.74318">
        <ele>1491</ele>
        <time>2020-09-14T23:59:47Z</time>
      </trkpt>
      <trkpt lat="45.23175" lon="6.74331">
        <ele>1490</ele>
        <time>2020-09-14T23:59:49Z</time>
      </trkpt>
      <trkpt lat="45.23183" lon="6.74526">
        <ele>1480</ele>
        <time>2020-09-15T00:00:13Z</time>
      </trkpt>
      <trkpt lat="45.23189" lon="6.74555">
        <ele>1477</ele>
        <time>2020-09-15T00:00:17Z</time>
      </trkpt>
      <trkpt lat="45.232" lon="6.74581">
        <ele>1476</ele>
        <time>2020-09-15T00:00:21Z</time>
      </trkpt>
      <trkpt lat="45.23223" lon="6.74604">
        <ele>1482</ele>
        <time>2020-09-15T00:00:26Z</time>
      </trkpt>
      <trkpt lat="45.23238" lon="6.74613">
        <ele>1486</ele>
        <time>2020-09-15T00:00:29Z</time>
      </trkpt>
      <trkpt lat="45.23277" lon="6.74627">
        <ele>1494</ele>
        <time>2020-09-15T00:00:36Z</time>
      </trkpt>
      <trkpt lat="45.23291" lon="6.74637">
        <ele>1497</ele>
        <time>2020-09-15T00:00:39Z</time>
      </trkpt>
      <trkpt lat="45.23299" lon="6.74651">
        <ele>1496</ele>
        <time>2020-09-15T00:00:41Z</time>
      </trkpt>
      <trkpt lat="45.23303" lon="6.74664">
        <ele>1495</ele>
        <time>2020-09-15T00:00:43Z</time>
      </trkpt>
      <trkpt lat="45.23302" lon="6.7468">
        <ele>1497</ele>
        <time>2020-09-15T00:00:45Z</time>
      </trkpt>
      <trkpt lat="45.23296" lon="6.74694">
        <ele>1499</ele>
        <time>2020-09-15T00:00:47Z</time>
      </trkpt>
      <trkpt lat="45.23287" lon="6.74703">
        <ele>1498</ele>
        <time>2020-09-15T00:00:49Z</time>
      </trkpt>
      <trkpt lat="45.23259" lon="6.74709">
        <ele>1493</ele>
        <time>2020-09-15T00:00:54Z</time>
      </trkpt>
      <trkpt lat="45.23224" lon="6.74728">
        <ele>1489</ele>
        <time>2020-09-15T00:01:00Z</time>
      </trkpt>
      <trkpt lat="45.23199" lon="6.74753">
        <ele>1488</ele>
        <time>2020-09-15T00:01:06Z</time>
      </trkpt>
      <trkpt lat="45.23195" lon="6.74757">
        <ele>1487</ele>
        <time>2020-09-15T00:01:07Z</time>
      </trkpt>
      <trkpt lat="45.23186" lon="6.7479">
        <ele>1490</ele>
        <time>2020-09-15T00:01:11Z</time>
      </trkpt>
      <trkpt lat="45.23174" lon="6.74905">
        <ele>1502</ele>
        <time>2020-09-15T00:01:26Z</time>
      </trkpt>
      <trkpt lat="45.23168" lon="6.74947">
        <ele>1506</ele>
        <time>2020-09-15T00:01:31Z</time>
      </trkpt>
      <trkpt lat="45.23147" lon="6.75003">
        <ele>1512</ele>
        <time>2020-09-15T00:01:39Z</time>
      </trkpt>
      <trkpt lat="45.23147" lon="6.75006">
        <ele>1512</ele>
        <time>2020-09-15T00:01:39Z</time>
      </trkpt>
      <trkpt lat="45.23144" lon="6.75045">
        <ele>1515</ele>
        <time>2020-09-15T00:01:44Z</time>
      </trkpt>
      <trkpt lat="45.23142" lon="6.75171">
        <ele>1520</ele>
        <time>2020-09-15T00:02:00Z</time>
      </trkpt>
      <trkpt lat="45.2314" lon="6.75199">
        <ele>1520</ele>
        <time>2020-09-15T00:02:04Z</time>
      </trkpt>
      <trkpt lat="45.23135" lon="6.75218">
        <ele>1520</ele>
        <time>2020-09-15T00:02:06Z</time>
      </trkpt>
      <trkpt lat="45.23128" lon="6.75238">
        <ele>1520</ele>
        <time>2020-09-15T00:02:09Z</time>
      </trkpt>
      <trkpt lat="45.23111" lon="6.75265">
        <ele>1519</ele>
        <time>2020-09-15T00:02:14Z</time>
      </trkpt>
      <trkpt lat="45.23089" lon="6.75299">
        <ele>1518</ele>
        <time>2020-09-15T00:02:19Z</time>
      </trkpt>
      <trkpt lat="45.23076" lon="6.75339">
        <ele>1517</ele>
        <time>2020-09-15T00:02:25Z</time>
      </trkpt>
      <trkpt lat="45.23071" lon="6.75379">
        <ele>1513</ele>
        <time>2020-09-15T00:02:30Z</time>
      </trkpt>
      <trkpt lat="45.23071" lon="6.75427">
        <ele>1511</ele>
        <time>2020-09-15T00:02:36Z</time>
      </trkpt>
      <trkpt lat="45.23075" lon="6.75447">
        <ele>1510</ele>
        <time>2020-09-15T00:02:39Z</time>
      </trkpt>
      <trkpt lat="45.23081" lon="6.75478">
        <ele>1508</ele>
        <time>2020-09-15T00:02:43Z</time>
      </trkpt>
      <trkpt lat="45.23088" lon="6.7551">
        <ele>1507</ele>
        <time>2020-09-15T00:02:47Z</time>
      </trkpt>
      <trkpt lat="45.23092" lon="6.75549">
        <ele>1504</ele>
        <time>2020-09-15T00:02:52Z</time>
      </trkpt>
      <trkpt lat="45.23097" lon="6.75575">
        <ele>1502</ele>
        <time>2020-09-15T00:02:55Z</time>
      </trkpt>
      <trkpt lat="45.2311" lon="6.75624">
        <ele>1500</ele>
        <time>2020-09-15T00:03:02Z</time>
      </trkpt>
      <trkpt lat="45.23129" lon="6.75677">
        <ele>1497</ele>
        <time>2020-09-15T00:03:09Z</time>
      </trkpt>
      <trkpt lat="45.23136" lon="6.75693">
        <ele>1496</ele>
        <time>2020-09-15T00:03:11Z</time>
      </trkpt>
      <trkpt lat="45.23147" lon="6.75711">
        <ele>1494</ele>
        <time>2020-09-15T00:03:14Z</time>
      </trkpt>
      <trkpt lat="45.23158" lon="6.75727">
        <ele>1492</ele>
        <time>2020-09-15T00:03:17Z</time>
      </trkpt>
      <trkpt lat="45.232" lon="6.75772">
        <ele>1493</ele>
        <time>2020-09-15T00:03:27Z</time>
      </trkpt>
      <trkpt lat="45.23208" lon="6.75783">
        <ele>1494</ele>
        <time>2020-09-15T00:03:29Z</time>
      </trkpt>
      <trkpt lat="45.23214" lon="6.75796">
        <ele>1494</ele>
        <time>2020-09-15T00:03:31Z</time>
      </trkpt>
      <trkpt lat="45.23218" lon="6.75814">
        <ele>1494</ele>
        <time>2020-09-15T00:03:33Z</time>
      </trkpt>
      <trkpt lat="45.23217" lon="6.75894">
        <ele>1484</ele>
        <time>2020-09-15T00:03:43Z</time>
      </trkpt>
      <trkpt lat="45.2322" lon="6.75909">
        <ele>1483</ele>
        <time>2020-09-15T00:03:45Z</time>
      </trkpt>
      <trkpt lat="45.23224" lon="6.75922">
        <ele>1482</ele>
        <time>2020-09-15T00:03:47Z</time>
      </trkpt>
      <trkpt lat="45.23262" lon="6.75999">
        <ele>1476</ele>
        <time>2020-09-15T00:03:58Z</time>
      </trkpt>
      <trkpt lat="45.23288" lon="6.76036">
        <ele>1475</ele>
        <time>2020-09-15T00:04:05Z</time>
      </trkpt>
      <trkpt lat="45.23301" lon="6.76047">
        <ele>1476</ele>
        <time>2020-09-15T00:04:08Z</time>
      </trkpt>
      <trkpt lat="45.23323" lon="6.76048">
        <ele>1483</ele>
        <time>2020-09-15T00:04:12Z</time>
      </trkpt>
      <trkpt lat="45.23341" lon="6.76054">
        <ele>1487</ele>
        <time>2020-09-15T00:04:15Z</time>
      </trkpt>
      <trkpt lat="45.23352" lon="6.76062">
        <ele>1488</ele>
        <time>2020-09-15T00:04:17Z</time>
      </trkpt>
      <trkpt lat="45.23358" lon="6.76072">
        <ele>1487</ele>
        <time>2020-09-15T00:04:19Z</time>
      </trkpt>
      <trkpt lat="45.23361" lon="6.76088">
        <ele>1485</ele>
        <time>2020-09-15T00:04:21Z</time>
      </trkpt>
      <trkpt lat="45.23359" lon="6.76096">
        <ele>1484</ele>
        <time>2020-09-15T00:04:22Z</time>
      </trkpt>
      <trkpt lat="45.23348" lon="6.76128">
        <ele>1477</ele>
        <time>2020-09-15T00:04:26Z</time>
      </trkpt>
      <trkpt lat="45.23346" lon="6.76141">
        <ele>1476</ele>
        <time>2020-09-15T00:04:28Z</time>
      </trkpt>
      <trkpt lat="45.23347" lon="6.76159">
        <ele>1474</ele>
        <time>2020-09-15T00:04:30Z</time>
      </trkpt>
      <trkpt lat="45.23355" lon="6.76181">
        <ele>1475</ele>
        <time>2020-09-15T00:04:33Z</time>
      </trkpt>
      <trkpt lat="45.23359" lon="6.7619">
        <ele>1476</ele>
        <time>2020-09-15T00:04:35Z</time>
      </trkpt>
      <trkpt lat="45.23389" lon="6.76248">
        <ele>1478</ele>
        <time>2020-09-15T00:04:44Z</time>
      </trkpt>
      <trkpt lat="45.23425" lon="6.76318">
        <ele>1477</ele>
        <time>2020-09-15T00:04:55Z</time>
      </trkpt>
      <trkpt lat="45.23436" lon="6.76336">
        <ele>1477</ele>
        <time>2020-09-15T00:04:58Z</time>
      </trkpt>
      <trkpt lat="45.23447" lon="6.76348">
        <ele>1478</ele>
        <time>2020-09-15T00:05:00Z</time>
      </trkpt>
      <trkpt lat="45.23508" lon="6.76395">
        <ele>1484</ele>
        <time>2020-09-15T00:05:12Z</time>
      </trkpt>
      <trkpt lat="45.2352" lon="6.76409">
        <ele>1485</ele>
        <time>2020-09-15T00:05:15Z</time>
      </trkpt>
      <trkpt lat="45.23576" lon="6.76506">
        <ele>1484</ele>
        <time>2020-09-15T00:05:31Z</time>
      </trkpt>
      <trkpt lat="45.23615" lon="6.76583">
        <ele>1482</ele>
        <time>2020-09-15T00:05:43Z</time>
      </trkpt>
      <trkpt lat="45.23617" lon="6.76586">
        <ele>1482</ele>
        <time>2020-09-15T00:05:43Z</time>
      </trkpt>
      <trkpt lat="45.2363" lon="6.7661">
        <ele>1480</ele>
        <time>2020-09-15T00:05:47Z</time>
      </trkpt>
      <trkpt lat="45.23639" lon="6.76623">
        <ele>1479</ele>
        <time>2020-09-15T00:05:49Z</time>
      </trkpt>
      <trkpt lat="45.23684" lon="6.76666">
        <ele>1483</ele>
        <time>2020-09-15T00:05:59Z</time>
      </trkpt>
      <trkpt lat="45.23693" lon="6.76678">
        <ele>1483</ele>
        <time>2020-09-15T00:06:01Z</time>
      </trkpt>
      <trkpt lat="45.23717" lon="6.76726">
        <ele>1480</ele>
        <time>2020-09-15T00:06:09Z</time>
      </trkpt>
      <trkpt lat="45.23726" lon="6.7674">
        <ele>1479</ele>
        <time>2020-09-15T00:06:11Z</time>
      </trkpt>
      <trkpt lat="45.23777" lon="6.76778">
        <ele>1483</ele>
        <time>2020-09-15T00:06:21Z</time>
      </trkpt>
      <trkpt lat="45.23792" lon="6.76798">
        <ele>1484</ele>
        <time>2020-09-15T00:06:25Z</time>
      </trkpt>
      <trkpt lat="45.23804" lon="6.76823">
        <ele>1483</ele>
        <time>2020-09-15T00:06:29Z</time>
      </trkpt>
      <trkpt lat="45.23808" lon="6.76836">
        <ele>1482</ele>
        <time>2020-09-15T00:06:30Z</time>
      </trkpt>
      <trkpt lat="45.23813" lon="6.7687">
        <ele>1481</ele>
        <time>2020-09-15T00:06:35Z</time>
      </trkpt>
      <trkpt lat="45.2382" lon="6.76901">
        <ele>1480</ele>
        <time>2020-09-15T00:06:39Z</time>
      </trkpt>
      <trkpt lat="45.23829" lon="6.76931">
        <ele>1481</ele>
        <time>2020-09-15T00:06:43Z</time>
      </trkpt>
      <trkpt lat="45.23838" lon="6.76954">
        <ele>1482</ele>
        <time>2020-09-15T00:06:46Z</time>
      </trkpt>
      <trkpt lat="45.23845" lon="6.76964">
        <ele>1484</ele>
        <time>2020-09-15T00:06:48Z</time>
      </trkpt>
      <trkpt lat="45.23876" lon="6.76991">
        <ele>1491</ele>
        <time>2020-09-15T00:06:54Z</time>
      </trkpt>
      <trkpt lat="45.23899" lon="6.77024">
        <ele>1495</ele>
        <time>2020-09-15T00:07:00Z</time>
      </trkpt>
      <trkpt lat="45.23905" lon="6.77036">
        <ele>1495</ele>
        <time>2020-09-15T00:07:02Z</time>
      </trkpt>
      <trkpt lat="45.23907" lon="6.77051">
        <ele>1494</ele>
        <time>2020-09-15T00:07:04Z</time>
      </trkpt>
      <trkpt lat="45.23905" lon="6.77074">
        <ele>1493</ele>
        <time>2020-09-15T00:07:07Z</time>
      </trkpt>
      <trkpt lat="45.23895" lon="6.77101">
        <ele>1492</ele>
        <time>2020-09-15T00:07:11Z</time>
      </trkpt>
      <trkpt lat="45.23878" lon="6.77135">
        <ele>1493</ele>
        <time>2020-09-15T00:07:16Z</time>
      </trkpt>
      <trkpt lat="45.23832" lon="6.77207">
        <ele>1500</ele>
        <time>2020-09-15T00:07:28Z</time>
      </trkpt>
      <trkpt lat="45.23827" lon="6.77218">
        <ele>1502</ele>
        <time>2020-09-15T00:07:30Z</time>
      </trkpt>
      <trkpt lat="45.23822" lon="6.77238">
        <ele>1504</ele>
        <time>2020-09-15T00:07:32Z</time>
      </trkpt>
      <trkpt lat="45.23822" lon="6.77245">
        <ele>1505</ele>
        <time>2020-09-15T00:07:33Z</time>
      </trkpt>
      <trkpt lat="45.23821" lon="6.7725">
        <ele>1505</ele>
        <time>2020-09-15T00:07:34Z</time>
      </trkpt>
      <trkpt lat="45.23823" lon="6.7727">
        <ele>1505</ele>
        <time>2020-09-15T00:07:37Z</time>
      </trkpt>
      <trkpt lat="45.23827" lon="6.77285">
        <ele>1504</ele>
        <time>2020-09-15T00:07:39Z</time>
      </trkpt>
      <trkpt lat="45.23832" lon="6.77301">
        <ele>1504</ele>
        <time>2020-09-15T00:07:41Z</time>
      </trkpt>
      <trkpt lat="45.23902" lon="6.77452">
        <ele>1506</ele>
        <time>2020-09-15T00:08:03Z</time>
      </trkpt>
      <trkpt lat="45.23949" lon="6.7755">
        <ele>1509</ele>
        <time>2020-09-15T00:08:18Z</time>
      </trkpt>
      <trkpt lat="45.23968" lon="6.77583">
        <ele>1509</ele>
        <time>2020-09-15T00:08:24Z</time>
      </trkpt>
      <trkpt lat="45.24014" lon="6.7766">
        <ele>1510</ele>
        <time>2020-09-15T00:08:36Z</time>
      </trkpt>
      <trkpt lat="45.2406" lon="6.77737">
        <ele>1512</ele>
        <time>2020-09-15T00:08:49Z</time>
      </trkpt>
      <trkpt lat="45.24078" lon="6.77763">
        <ele>1511</ele>
        <time>2020-09-15T00:08:53Z</time>
      </trkpt>
      <trkpt lat="45.24094" lon="6.77782">
        <ele>1511</ele>
        <time>2020-09-15T00:08:57Z</time>
      </trkpt>
      <trkpt lat="45.24161" lon="6.77841">
        <ele>1508</ele>
        <time>2020-09-15T00:09:11Z</time>
      </trkpt>
      <trkpt lat="45.24181" lon="6.77863">
        <ele>1508</ele>
        <time>2020-09-15T00:09:16Z</time>
      </trkpt>
      <trkpt lat="45.24259" lon="6.77964">
        <ele>1505</ele>
        <time>2020-09-15T00:09:34Z</time>
      </trkpt>
      <trkpt lat="45.24298" lon="6.78016">
        <ele>1504</ele>
        <time>2020-09-15T00:09:44Z</time>
      </trkpt>
      <trkpt lat="45.24324" lon="6.78048">
        <ele>1503</ele>
        <time>2020-09-15T00:09:50Z</time>
      </trkpt>
      <trkpt lat="45.2433" lon="6.78052">
        <ele>1503</ele>
        <time>2020-09-15T00:09:51Z</time>
      </trkpt>
      <trkpt lat="45.24397" lon="6.78086">
        <ele>1503</ele>
        <time>2020-09-15T00:10:04Z</time>
      </trkpt>
      <trkpt lat="45.24429" lon="6.78106">
        <ele>1503</ele>
        <time>2020-09-15T00:10:10Z</time>
      </trkpt>
      <trkpt lat="45.24464" lon="6.78113">
        <ele>1504</ele>
        <time>2020-09-15T00:10:16Z</time>
      </trkpt>
      <trkpt lat="45.24496" lon="6.78126">
        <ele>1504</ele>
        <time>2020-09-15T00:10:22Z</time>
      </trkpt>
      <trkpt lat="45.24506" lon="6.7814">
        <ele>1502</ele>
        <time>2020-09-15T00:10:25Z</time>
      </trkpt>
      <trkpt lat="45.24528" lon="6.78162">
        <ele>1498</ele>
        <time>2020-09-15T00:10:30Z</time>
      </trkpt>
      <trkpt lat="45.24538" lon="6.78165">
        <ele>1497</ele>
        <time>2020-09-15T00:10:32Z</time>
      </trkpt>
      <trkpt lat="45.24583" lon="6.78154">
        <ele>1492</ele>
        <time>2020-09-15T00:10:40Z</time>
      </trkpt>
      <trkpt lat="45.246" lon="6.78155">
        <ele>1491</ele>
        <time>2020-09-15T00:10:43Z</time>
      </trkpt>
      <trkpt lat="45.24652" lon="6.78169">
        <ele>1486</ele>
        <time>2020-09-15T00:10:52Z</time>
      </trkpt>
      <trkpt lat="45.24708" lon="6.78232">
        <ele>1473</ele>
        <time>2020-09-15T00:11:05Z</time>
      </trkpt>
      <trkpt lat="45.24731" lon="6.78273">
        <ele>1466</ele>
        <time>2020-09-15T00:11:11Z</time>
      </trkpt>
      <trkpt lat="45.24731" lon="6.78285">
        <ele>1464</ele>
        <time>2020-09-15T00:11:13Z</time>
      </trkpt>
      <trkpt lat="45.24724" lon="6.78303">
        <ele>1462</ele>
        <time>2020-09-15T00:11:15Z</time>
      </trkpt>
      <trkpt lat="45.24701" lon="6.78338">
        <ele>1460</ele>
        <time>2020-09-15T00:11:21Z</time>
      </trkpt>
      <trkpt lat="45.24699" lon="6.78349">
        <ele>1460</ele>
        <time>2020-09-15T00:11:23Z</time>
      </trkpt>
      <trkpt lat="45.24738" lon="6.78337">
        <ele>1456</ele>
        <time>2020-09-15T00:11:30Z</time>
      </trkpt>
      <trkpt lat="45.24744" lon="6.78332">
        <ele>1456</ele>
        <time>2020-09-15T00:11:31Z</time>
      </trkpt>
      <trkpt lat="45.2476" lon="6.78317">
        <ele>1458</ele>
        <time>2020-09-15T00:11:35Z</time>
      </trkpt>
      <trkpt lat="45.24778" lon="6.78286">
        <ele>1466</ele>
        <time>2020-09-15T00:11:40Z</time>
      </trkpt>
      <trkpt lat="45.24787" lon="6.78283">
        <ele>1468</ele>
        <time>2020-09-15T00:11:41Z</time>
      </trkpt>
      <trkpt lat="45.24795" lon="6.78288">
        <ele>1468</ele>
        <time>2020-09-15T00:11:43Z</time>
      </trkpt>
      <trkpt lat="45.248" lon="6.78296">
        <ele>1466</ele>
        <time>2020-09-15T00:11:44Z</time>
      </trkpt>
      <trkpt lat="45.24807" lon="6.7833">
        <ele>1458</ele>
        <time>2020-09-15T00:11:49Z</time>
      </trkpt>
      <trkpt lat="45.24814" lon="6.78343">
        <ele>1455</ele>
        <time>2020-09-15T00:11:51Z</time>
      </trkpt>
      <trkpt lat="45.24837" lon="6.78368">
        <ele>1449</ele>
        <time>2020-09-15T00:11:56Z</time>
      </trkpt>
      <trkpt lat="45.24884" lon="6.78408">
        <ele>1441</ele>
        <time>2020-09-15T00:12:06Z</time>
      </trkpt>
      <trkpt lat="45.24897" lon="6.78416">
        <ele>1439</ele>
        <time>2020-09-15T00:12:08Z</time>
      </trkpt>
      <trkpt lat="45.24939" lon="6.78431">
        <ele>1432</ele>
        <time>2020-09-15T00:12:16Z</time>
      </trkpt>
      <trkpt lat="45.24948" lon="6.78429">
        <ele>1431</ele>
        <time>2020-09-15T00:12:17Z</time>
      </trkpt>
      <trkpt lat="45.24952" lon="6.78425">
        <ele>1432</ele>
        <time>2020-09-15T00:12:18Z</time>
      </trkpt>
      <trkpt lat="45.24975" lon="6.78377">
        <ele>1442</ele>
        <time>2020-09-15T00:12:26Z</time>
      </trkpt>
      <trkpt lat="45.2498" lon="6.7837">
        <ele>1443</ele>
        <time>2020-09-15T00:12:27Z</time>
      </trkpt>
      <trkpt lat="45.2499" lon="6.78365">
        <ele>1442</ele>
        <time>2020-09-15T00:12:29Z</time>
      </trkpt>
      <trkpt lat="45.24995" lon="6.78366">
        <ele>1441</ele>
        <time>2020-09-15T00:12:30Z</time>
      </trkpt>
      <trkpt lat="45.25005" lon="6.78374">
        <ele>1440</ele>
        <time>2020-09-15T00:12:32Z</time>
      </trkpt>
      <trkpt lat="45.2501" lon="6.78382">
        <ele>1440</ele>
        <time>2020-09-15T00:12:33Z</time>
      </trkpt>
      <trkpt lat="45.25023" lon="6.78439">
        <ele>1430</ele>
        <time>2020-09-15T00:12:40Z</time>
      </trkpt>
      <trkpt lat="45.25036" lon="6.78465">
        <ele>1427</ele>
        <time>2020-09-15T00:12:44Z</time>
      </trkpt>
      <trkpt lat="45.25054" lon="6.78483">
        <ele>1426</ele>
        <time>2020-09-15T00:12:48Z</time>
      </trkpt>
      <trkpt lat="45.25103" lon="6.78504">
        <ele>1430</ele>
        <time>2020-09-15T00:12:57Z</time>
      </trkpt>
      <trkpt lat="45.25112" lon="6.78512">
        <ele>1430</ele>
        <time>2020-09-15T00:12:59Z</time>
      </trkpt>
      <trkpt lat="45.25122" lon="6.78525">
        <ele>1429</ele>
        <time>2020-09-15T00:13:02Z</time>
      </trkpt>
      <trkpt lat="45.25164" lon="6.78568">
        <ele>1429</ele>
        <time>2020-09-15T00:13:11Z</time>
      </trkpt>
      <trkpt lat="45.25205" lon="6.78597">
        <ele>1430</ele>
        <time>2020-09-15T00:13:19Z</time>
      </trkpt>
      <trkpt lat="45.25281" lon="6.78633">
        <ele>1434</ele>
        <time>2020-09-15T00:13:33Z</time>
      </trkpt>
      <trkpt lat="45.25302" lon="6.78648">
        <ele>1434</ele>
        <time>2020-09-15T00:13:38Z</time>
      </trkpt>
      <trkpt lat="45.25352" lon="6.78707">
        <ele>1424</ele>
        <time>2020-09-15T00:13:49Z</time>
      </trkpt>
      <trkpt lat="45.25412" lon="6.78787">
        <ele>1418</ele>
        <time>2020-09-15T00:14:04Z</time>
      </trkpt>
      <trkpt lat="45.25444" lon="6.78839">
        <ele>1412</ele>
        <time>2020-09-15T00:14:12Z</time>
      </trkpt>
      <trkpt lat="45.25461" lon="6.78884">
        <ele>1413</ele>
        <time>2020-09-15T00:14:19Z</time>
      </trkpt>
      <trkpt lat="45.25477" lon="6.78945">
        <ele>1410</ele>
        <time>2020-09-15T00:14:27Z</time>
      </trkpt>
      <trkpt lat="45.25492" lon="6.78981">
        <ele>1407</ele>
        <time>2020-09-15T00:14:32Z</time>
      </trkpt>
      <trkpt lat="45.25512" lon="6.79014">
        <ele>1404</ele>
        <time>2020-09-15T00:14:38Z</time>
      </trkpt>
      <trkpt lat="45.25538" lon="6.79039">
        <ele>1404</ele>
        <time>2020-09-15T00:14:43Z</time>
      </trkpt>
      <trkpt lat="45.25564" lon="6.7906">
        <ele>1403</ele>
        <time>2020-09-15T00:14:49Z</time>
      </trkpt>
      <trkpt lat="45.25625" lon="6.79124">
        <ele>1403</ele>
        <time>2020-09-15T00:15:02Z</time>
      </trkpt>
      <trkpt lat="45.25817" lon="6.79256">
        <ele>1411</ele>
        <time>2020-09-15T00:15:40Z</time>
      </trkpt>
      <trkpt lat="45.25821" lon="6.79262">
        <ele>1411</ele>
        <time>2020-09-15T00:15:41Z</time>
      </trkpt>
      <trkpt lat="45.25827" lon="6.79277">
        <ele>1411</ele>
        <time>2020-09-15T00:15:43Z</time>
      </trkpt>
      <trkpt lat="45.25827" lon="6.79287">
        <ele>1410</ele>
        <time>2020-09-15T00:15:44Z</time>
      </trkpt>
      <trkpt lat="45.25824" lon="6.79327">
        <ele>1404</ele>
        <time>2020-09-15T00:15:50Z</time>
      </trkpt>
      <trkpt lat="45.25825" lon="6.79343">
        <ele>1402</ele>
        <time>2020-09-15T00:15:52Z</time>
      </trkpt>
      <trkpt lat="45.25861" lon="6.79439">
        <ele>1392</ele>
        <time>2020-09-15T00:16:05Z</time>
      </trkpt>
      <trkpt lat="45.25872" lon="6.79451">
        <ele>1392</ele>
        <time>2020-09-15T00:16:08Z</time>
      </trkpt>
      <trkpt lat="45.259" lon="6.79453">
        <ele>1399</ele>
        <time>2020-09-15T00:16:13Z</time>
      </trkpt>
      <trkpt lat="45.25908" lon="6.79456">
        <ele>1400</ele>
        <time>2020-09-15T00:16:14Z</time>
      </trkpt>
      <trkpt lat="45.25915" lon="6.79462">
        <ele>1401</ele>
        <time>2020-09-15T00:16:16Z</time>
      </trkpt>
      <trkpt lat="45.25921" lon="6.79475">
        <ele>1399</ele>
        <time>2020-09-15T00:16:17Z</time>
      </trkpt>
      <trkpt lat="45.25932" lon="6.79526">
        <ele>1390</ele>
        <time>2020-09-15T00:16:24Z</time>
      </trkpt>
      <trkpt lat="45.25946" lon="6.79553">
        <ele>1388</ele>
        <time>2020-09-15T00:16:28Z</time>
      </trkpt>
      <trkpt lat="45.25967" lon="6.79579">
        <ele>1388</ele>
        <time>2020-09-15T00:16:33Z</time>
      </trkpt>
      <trkpt lat="45.26132" lon="6.79763">
        <ele>1377</ele>
        <time>2020-09-15T00:17:11Z</time>
      </trkpt>
      <trkpt lat="45.2617" lon="6.79809">
        <ele>1372</ele>
        <time>2020-09-15T00:17:20Z</time>
      </trkpt>
      <trkpt lat="45.26206" lon="6.7986">
        <ele>1369</ele>
        <time>2020-09-15T00:17:29Z</time>
      </trkpt>
      <trkpt lat="45.2625" lon="6.79908">
        <ele>1366</ele>
        <time>2020-09-15T00:17:38Z</time>
      </trkpt>
      <trkpt lat="45.26289" lon="6.79954">
        <ele>1359</ele>
        <time>2020-09-15T00:17:47Z</time>
      </trkpt>
      <trkpt lat="45.26301" lon="6.79964">
        <ele>1358</ele>
        <time>2020-09-15T00:17:50Z</time>
      </trkpt>
      <trkpt lat="45.26323" lon="6.79994">
        <ele>1353</ele>
        <time>2020-09-15T00:17:55Z</time>
      </trkpt>
      <trkpt lat="45.2634" lon="6.80022">
        <ele>1350</ele>
        <time>2020-09-15T00:18:00Z</time>
      </trkpt>
      <trkpt lat="45.26354" lon="6.8006">
        <ele>1345</ele>
        <time>2020-09-15T00:18:05Z</time>
      </trkpt>
      <trkpt lat="45.26361" lon="6.80094">
        <ele>1340</ele>
        <time>2020-09-15T00:18:10Z</time>
      </trkpt>
      <trkpt lat="45.26364" lon="6.80112">
        <ele>1338</ele>
        <time>2020-09-15T00:18:12Z</time>
      </trkpt>
      <trkpt lat="45.26364" lon="6.80149">
        <ele>1333</ele>
        <time>2020-09-15T00:18:17Z</time>
      </trkpt>
      <trkpt lat="45.26357" lon="6.80198">
        <ele>1327</ele>
        <time>2020-09-15T00:18:23Z</time>
      </trkpt>
      <trkpt lat="45.26356" lon="6.80218">
        <ele>1326</ele>
        <time>2020-09-15T00:18:26Z</time>
      </trkpt>
      <trkpt lat="45.26356" lon="6.80249">
        <ele>1324</ele>
        <time>2020-09-15T00:18:29Z</time>
      </trkpt>
      <trkpt lat="45.26371" lon="6.80383">
        <ele>1314</ele>
        <time>2020-09-15T00:18:46Z</time>
      </trkpt>
      <trkpt lat="45.26379" lon="6.80469">
        <ele>1310</ele>
        <time>2020-09-15T00:18:57Z</time>
      </trkpt>
      <trkpt lat="45.26387" lon="6.80499">
        <ele>1310</ele>
        <time>2020-09-15T00:19:01Z</time>
      </trkpt>
      <trkpt lat="45.26415" lon="6.80555">
        <ele>1312</ele>
        <time>2020-09-15T00:19:10Z</time>
      </trkpt>
      <trkpt lat="45.2645" lon="6.80635">
        <ele>1311</ele>
        <time>2020-09-15T00:19:22Z</time>
      </trkpt>
      <trkpt lat="45.26459" lon="6.80669">
        <ele>1310</ele>
        <time>2020-09-15T00:19:26Z</time>
      </trkpt>
      <trkpt lat="45.26455" lon="6.80704">
        <ele>1308</ele>
        <time>2020-09-15T00:19:31Z</time>
      </trkpt>
      <trkpt lat="45.26443" lon="6.80731">
        <ele>1306</ele>
        <time>2020-09-15T00:19:35Z</time>
      </trkpt>
      <trkpt lat="45.26431" lon="6.80743">
        <ele>1304</ele>
        <time>2020-09-15T00:19:37Z</time>
      </trkpt>
      <trkpt lat="45.2638" lon="6.80763">
        <ele>1299</ele>
        <time>2020-09-15T00:19:47Z</time>
      </trkpt>
      <trkpt lat="45.26347" lon="6.80782">
        <ele>1295</ele>
        <time>2020-09-15T00:19:53Z</time>
      </trkpt>
      <trkpt lat="45.2633" lon="6.80786">
        <ele>1293</ele>
        <time>2020-09-15T00:19:56Z</time>
      </trkpt>
      <trkpt lat="45.26306" lon="6.80781">
        <ele>1289</ele>
        <time>2020-09-15T00:20:00Z</time>
      </trkpt>
      <trkpt lat="45.26302" lon="6.80778">
        <ele>1288</ele>
        <time>2020-09-15T00:20:01Z</time>
      </trkpt>
      <trkpt lat="45.26297" lon="6.8077">
        <ele>1287</ele>
        <time>2020-09-15T00:20:03Z</time>
      </trkpt>
      <trkpt lat="45.26289" lon="6.80751">
        <ele>1286</ele>
        <time>2020-09-15T00:20:05Z</time>
      </trkpt>
      <trkpt lat="45.26286" lon="6.80749">
        <ele>1285</ele>
        <time>2020-09-15T00:20:06Z</time>
      </trkpt>
      <trkpt lat="45.26282" lon="6.80749">
        <ele>1285</ele>
        <time>2020-09-15T00:20:07Z</time>
      </trkpt>
      <trkpt lat="45.26278" lon="6.80752">
        <ele>1284</ele>
        <time>2020-09-15T00:20:07Z</time>
      </trkpt>
      <trkpt lat="45.26276" lon="6.80757">
        <ele>1283</ele>
        <time>2020-09-15T00:20:08Z</time>
      </trkpt>
      <trkpt lat="45.2628" lon="6.80856">
        <ele>1281</ele>
        <time>2020-09-15T00:20:21Z</time>
      </trkpt>
      <trkpt lat="45.26282" lon="6.80883">
        <ele>1279</ele>
        <time>2020-09-15T00:20:24Z</time>
      </trkpt>
      <trkpt lat="45.2629" lon="6.80909">
        <ele>1279</ele>
        <time>2020-09-15T00:20:28Z</time>
      </trkpt>
      <trkpt lat="45.26326" lon="6.81004">
        <ele>1276</ele>
        <time>2020-09-15T00:20:41Z</time>
      </trkpt>
      <trkpt lat="45.2633" lon="6.8102">
        <ele>1276</ele>
        <time>2020-09-15T00:20:43Z</time>
      </trkpt>
      <trkpt lat="45.26328" lon="6.81033">
        <ele>1275</ele>
        <time>2020-09-15T00:20:45Z</time>
      </trkpt>
      <trkpt lat="45.26323" lon="6.81045">
        <ele>1275</ele>
        <time>2020-09-15T00:20:47Z</time>
      </trkpt>
      <trkpt lat="45.26314" lon="6.81055">
        <ele>1274</ele>
        <time>2020-09-15T00:20:49Z</time>
      </trkpt>
      <trkpt lat="45.26324" lon="6.81074">
        <ele>1273</ele>
        <time>2020-09-15T00:20:52Z</time>
      </trkpt>
      <trkpt lat="45.2634" lon="6.81098">
        <ele>1273</ele>
        <time>2020-09-15T00:20:56Z</time>
      </trkpt>
      <trkpt lat="45.26358" lon="6.81117">
        <ele>1274</ele>
        <time>2020-09-15T00:21:00Z</time>
      </trkpt>
      <trkpt lat="45.26584" lon="6.81289">
        <ele>1275</ele>
        <time>2020-09-15T00:21:45Z</time>
      </trkpt>
      <trkpt lat="45.26629" lon="6.81324">
        <ele>1275</ele>
        <time>2020-09-15T00:21:54Z</time>
      </trkpt>
      <trkpt lat="45.26666" lon="6.81351">
        <ele>1275</ele>
        <time>2020-09-15T00:22:02Z</time>
      </trkpt>
      <trkpt lat="45.26809" lon="6.81458">
        <ele>1279</ele>
        <time>2020-09-15T00:22:31Z</time>
      </trkpt>
      <trkpt lat="45.26841" lon="6.81471">
        <ele>1280</ele>
        <time>2020-09-15T00:22:37Z</time>
      </trkpt>
      <trkpt lat="45.26866" lon="6.81473">
        <ele>1280</ele>
        <time>2020-09-15T00:22:41Z</time>
      </trkpt>
      <trkpt lat="45.26886" lon="6.81469">
        <ele>1279</ele>
        <time>2020-09-15T00:22:45Z</time>
      </trkpt>
      <trkpt lat="45.26912" lon="6.81456">
        <ele>1280</ele>
        <time>2020-09-15T00:22:50Z</time>
      </trkpt>
      <trkpt lat="45.26994" lon="6.814">
        <ele>1281</ele>
        <time>2020-09-15T00:23:06Z</time>
      </trkpt>
      <trkpt lat="45.27033" lon="6.81377">
        <ele>1281</ele>
        <time>2020-09-15T00:23:13Z</time>
      </trkpt>
      <trkpt lat="45.27066" lon="6.81369">
        <ele>1281</ele>
        <time>2020-09-15T00:23:19Z</time>
      </trkpt>
      <trkpt lat="45.27088" lon="6.81369">
        <ele>1281</ele>
        <time>2020-09-15T00:23:23Z</time>
      </trkpt>
      <trkpt lat="45.27116" lon="6.81379">
        <ele>1280</ele>
        <time>2020-09-15T00:23:28Z</time>
      </trkpt>
      <trkpt lat="45.27212" lon="6.81436">
        <ele>1283</ele>
        <time>2020-09-15T00:23:47Z</time>
      </trkpt>
      <trkpt lat="45.27234" lon="6.81442">
        <ele>1284</ele>
        <time>2020-09-15T00:23:51Z</time>
      </trkpt>
      <trkpt lat="45.2725" lon="6.81441">
        <ele>1285</ele>
        <time>2020-09-15T00:23:54Z</time>
      </trkpt>
      <trkpt lat="45.27261" lon="6.81438">
        <ele>1285</ele>
        <time>2020-09-15T00:23:56Z</time>
      </trkpt>
      <trkpt lat="45.27278" lon="6.81427">
        <ele>1285</ele>
        <time>2020-09-15T00:23:59Z</time>
      </trkpt>
      <trkpt lat="45.27287" lon="6.81418">
        <ele>1285</ele>
        <time>2020-09-15T00:24:01Z</time>
      </trkpt>
      <trkpt lat="45.27299" lon="6.81402">
        <ele>1285</ele>
        <time>2020-09-15T00:24:04Z</time>
      </trkpt>
      <trkpt lat="45.2733" lon="6.81354">
        <ele>1288</ele>
        <time>2020-09-15T00:24:12Z</time>
      </trkpt>
      <trkpt lat="45.27349" lon="6.81327">
        <ele>1289</ele>
        <time>2020-09-15T00:24:17Z</time>
      </trkpt>
      <trkpt lat="45.2736" lon="6.81316">
        <ele>1289</ele>
        <time>2020-09-15T00:24:19Z</time>
      </trkpt>
      <trkpt lat="45.2738" lon="6.81302">
        <ele>1289</ele>
        <time>2020-09-15T00:24:23Z</time>
      </trkpt>
      <trkpt lat="45.27406" lon="6.81291">
        <ele>1287</ele>
        <time>2020-09-15T00:24:28Z</time>
      </trkpt>
      <trkpt lat="45.27423" lon="6.81289">
        <ele>1286</ele>
        <time>2020-09-15T00:24:31Z</time>
      </trkpt>
      <trkpt lat="45.27453" lon="6.81291">
        <ele>1287</ele>
        <time>2020-09-15T00:24:36Z</time>
      </trkpt>
      <trkpt lat="45.27479" lon="6.81302">
        <ele>1288</ele>
        <time>2020-09-15T00:24:41Z</time>
      </trkpt>
      <trkpt lat="45.27514" lon="6.81322">
        <ele>1289</ele>
        <time>2020-09-15T00:24:48Z</time>
      </trkpt>
      <trkpt lat="45.27545" lon="6.8134">
        <ele>1290</ele>
        <time>2020-09-15T00:24:54Z</time>
      </trkpt>
      <trkpt lat="45.27576" lon="6.81358">
        <ele>1291</ele>
        <time>2020-09-15T00:25:00Z</time>
      </trkpt>
      <trkpt lat="45.27614" lon="6.81381">
        <ele>1293</ele>
        <time>2020-09-15T00:25:07Z</time>
      </trkpt>
      <trkpt lat="45.27662" lon="6.81408">
        <ele>1294</ele>
        <time>2020-09-15T00:25:16Z</time>
      </trkpt>
      <trkpt lat="45.27669" lon="6.81413">
        <ele>1294</ele>
        <time>2020-09-15T00:25:18Z</time>
      </trkpt>
      <trkpt lat="45.27678" lon="6.81418">
        <ele>1294</ele>
        <time>2020-09-15T00:25:19Z</time>
      </trkpt>
      <trkpt lat="45.2769" lon="6.81427">
        <ele>1294</ele>
        <time>2020-09-15T00:25:22Z</time>
      </trkpt>
      <trkpt lat="45.27699" lon="6.81436">
        <ele>1294</ele>
        <time>2020-09-15T00:25:24Z</time>
      </trkpt>
      <trkpt lat="45.27704" lon="6.81444">
        <ele>1294</ele>
        <time>2020-09-15T00:25:25Z</time>
      </trkpt>
      <trkpt lat="45.27707" lon="6.81453">
        <ele>1294</ele>
        <time>2020-09-15T00:25:26Z</time>
      </trkpt>
      <trkpt lat="45.27708" lon="6.81459">
        <ele>1294</ele>
        <time>2020-09-15T00:25:27Z</time>
      </trkpt>
      <trkpt lat="45.27706" lon="6.81481">
        <ele>1292</ele>
        <time>2020-09-15T00:25:30Z</time>
      </trkpt>
      <trkpt lat="45.27705" lon="6.81487">
        <ele>1292</ele>
        <time>2020-09-15T00:25:31Z</time>
      </trkpt>
      <trkpt lat="45.27746" lon="6.8151">
        <ele>1292</ele>
        <time>2020-09-15T00:25:38Z</time>
      </trkpt>
      <trkpt lat="45.27766" lon="6.81517">
        <ele>1292</ele>
        <time>2020-09-15T00:25:42Z</time>
      </trkpt>
      <trkpt lat="45.27768" lon="6.81543">
        <ele>1293</ele>
        <time>2020-09-15T00:25:45Z</time>
      </trkpt>
      <trkpt lat="45.27749" lon="6.81599">
        <ele>1296</ele>
        <time>2020-09-15T00:25:53Z</time>
      </trkpt>
      <trkpt lat="45.27736" lon="6.81605">
        <ele>1296</ele>
        <time>2020-09-15T00:25:56Z</time>
      </trkpt>
      <trkpt lat="45.27744" lon="6.81645">
        <ele>1298</ele>
        <time>2020-09-15T00:26:01Z</time>
      </trkpt>
      <trkpt lat="45.27758" lon="6.81692">
        <ele>1302</ele>
        <time>2020-09-15T00:26:07Z</time>
      </trkpt>
      <trkpt lat="45.2779" lon="6.81685">
        <ele>1305</ele>
        <time>2020-09-15T00:26:13Z</time>
      </trkpt>
      <trkpt lat="45.27811" lon="6.81685">
        <ele>1307</ele>
        <time>2020-09-15T00:26:17Z</time>
      </trkpt>
      <trkpt lat="45.27827" lon="6.81691">
        <ele>1310</ele>
        <time>2020-09-15T00:26:20Z</time>
      </trkpt>
      <trkpt lat="45.28006" lon="6.81642">
        <ele>1328</ele>
        <time>2020-09-15T00:26:52Z</time>
      </trkpt>
      <trkpt lat="45.28121" lon="6.81605">
        <ele>1335</ele>
        <time>2020-09-15T00:27:13Z</time>
      </trkpt>
      <trkpt lat="45.28127" lon="6.81607">
        <ele>1337</ele>
        <time>2020-09-15T00:27:14Z</time>
      </trkpt>
      <trkpt lat="45.28129" lon="6.81611">
        <ele>1340</ele>
        <time>2020-09-15T00:27:15Z</time>
      </trkpt>
      <trkpt lat="45.28195" lon="6.81594">
        <ele>1346</ele>
        <time>2020-09-15T00:27:27Z</time>
      </trkpt>
      <trkpt lat="45.28246" lon="6.81569">
        <ele>1347</ele>
        <time>2020-09-15T00:27:36Z</time>
      </trkpt>
      <trkpt lat="45.2828" lon="6.81566">
        <ele>1355</ele>
        <time>2020-09-15T00:27:42Z</time>
      </trkpt>
      <trkpt lat="45.28296" lon="6.81554">
        <ele>1354</ele>
        <time>2020-09-15T00:27:46Z</time>
      </trkpt>
      <trkpt lat="45.28329" lon="6.81545">
        <ele>1358</ele>
        <time>2020-09-15T00:27:52Z</time>
      </trkpt>
      <trkpt lat="45.28374" lon="6.81548">
        <ele>1363</ele>
        <time>2020-09-15T00:28:00Z</time>
      </trkpt>
      <trkpt lat="45.28416" lon="6.81542">
        <ele>1364</ele>
        <time>2020-09-15T00:28:07Z</time>
      </trkpt>
      <trkpt lat="45.28465" lon="6.81549">
        <ele>1368</ele>
        <time>2020-09-15T00:28:16Z</time>
      </trkpt>
      <trkpt lat="45.28491" lon="6.81553">
        <ele>1370</ele>
        <time>2020-09-15T00:28:21Z</time>
      </trkpt>
      <trkpt lat="45.28505" lon="6.81561">
        <ele>1372</ele>
        <time>2020-09-15T00:28:23Z</time>
      </trkpt>
      <trkpt lat="45.28532" lon="6.81585">
        <ele>1378</ele>
        <time>2020-09-15T00:28:29Z</time>
      </trkpt>
      <trkpt lat="45.28543" lon="6.81592">
        <ele>1379</ele>
        <time>2020-09-15T00:28:31Z</time>
      </trkpt>
      <trkpt lat="45.28572" lon="6.81603">
        <ele>1380</ele>
        <time>2020-09-15T00:28:36Z</time>
      </trkpt>
      <trkpt lat="45.28581" lon="6.81603">
        <ele>1379</ele>
        <time>2020-09-15T00:28:38Z</time>
      </trkpt>
      <trkpt lat="45.28591" lon="6.81599">
        <ele>1378</ele>
        <time>2020-09-15T00:28:40Z</time>
      </trkpt>
      <trkpt lat="45.28602" lon="6.81591">
        <ele>1376</ele>
        <time>2020-09-15T00:28:42Z</time>
      </trkpt>
      <trkpt lat="45.2861" lon="6.81588">
        <ele>1375</ele>
        <time>2020-09-15T00:28:44Z</time>
      </trkpt>
      <trkpt lat="45.28617" lon="6.81592">
        <ele>1376</ele>
        <time>2020-09-15T00:28:45Z</time>
      </trkpt>
      <trkpt lat="45.28618" lon="6.81602">
        <ele>1379</ele>
        <time>2020-09-15T00:28:46Z</time>
      </trkpt>
      <trkpt lat="45.28614" lon="6.81616">
        <ele>1382</ele>
        <time>2020-09-15T00:28:48Z</time>
      </trkpt>
      <trkpt lat="45.28604" lon="6.81627">
        <ele>1385</ele>
        <time>2020-09-15T00:28:50Z</time>
      </trkpt>
      <trkpt lat="45.28584" lon="6.81641">
        <ele>1390</ele>
        <time>2020-09-15T00:28:54Z</time>
      </trkpt>
      <trkpt lat="45.28569" lon="6.81645">
        <ele>1393</ele>
        <time>2020-09-15T00:28:57Z</time>
      </trkpt>
      <trkpt lat="45.2856" lon="6.81649">
        <ele>1396</ele>
        <time>2020-09-15T00:28:59Z</time>
      </trkpt>
      <trkpt lat="45.28558" lon="6.81657">
        <ele>1399</ele>
        <time>2020-09-15T00:29:00Z</time>
      </trkpt>
      <trkpt lat="45.28561" lon="6.81669">
        <ele>1402</ele>
        <time>2020-09-15T00:29:01Z</time>
      </trkpt>
      <trkpt lat="45.28572" lon="6.81673">
        <ele>1401</ele>
        <time>2020-09-15T00:29:03Z</time>
      </trkpt>
      <trkpt lat="45.28593" lon="6.81673">
        <ele>1398</ele>
        <time>2020-09-15T00:29:07Z</time>
      </trkpt>
      <trkpt lat="45.28622" lon="6.81666">
        <ele>1395</ele>
        <time>2020-09-15T00:29:12Z</time>
      </trkpt>
      <trkpt lat="45.28633" lon="6.81667">
        <ele>1394</ele>
        <time>2020-09-15T00:29:14Z</time>
      </trkpt>
      <trkpt lat="45.28641" lon="6.81672">
        <ele>1395</ele>
        <time>2020-09-15T00:29:16Z</time>
      </trkpt>
      <trkpt lat="45.28664" lon="6.81701">
        <ele>1401</ele>
        <time>2020-09-15T00:29:21Z</time>
      </trkpt>
      <trkpt lat="45.28707" lon="6.8173">
        <ele>1407</ele>
        <time>2020-09-15T00:29:30Z</time>
      </trkpt>
      <trkpt lat="45.28779" lon="6.81809">
        <ele>1423</ele>
        <time>2020-09-15T00:29:46Z</time>
      </trkpt>
      <trkpt lat="45.28792" lon="6.81817">
        <ele>1425</ele>
        <time>2020-09-15T00:29:48Z</time>
      </trkpt>
      <trkpt lat="45.28802" lon="6.81822">
        <ele>1426</ele>
        <time>2020-09-15T00:29:50Z</time>
      </trkpt>
      <trkpt lat="45.28849" lon="6.81823">
        <ele>1426</ele>
        <time>2020-09-15T00:29:59Z</time>
      </trkpt>
      <trkpt lat="45.28866" lon="6.81827">
        <ele>1426</ele>
        <time>2020-09-15T00:30:02Z</time>
      </trkpt>
      <trkpt lat="45.2888" lon="6.81836">
        <ele>1428</ele>
        <time>2020-09-15T00:30:04Z</time>
      </trkpt>
      <trkpt lat="45.28938" lon="6.81891">
        <ele>1439</ele>
        <time>2020-09-15T00:30:17Z</time>
      </trkpt>
      <trkpt lat="45.28947" lon="6.81897">
        <ele>1440</ele>
        <time>2020-09-15T00:30:19Z</time>
      </trkpt>
      <trkpt lat="45.28961" lon="6.81901">
        <ele>1440</ele>
        <time>2020-09-15T00:30:21Z</time>
      </trkpt>
      <trkpt lat="45.28973" lon="6.81909">
        <ele>1442</ele>
        <time>2020-09-15T00:30:24Z</time>
      </trkpt>
      <trkpt lat="45.29007" lon="6.81943">
        <ele>1448</ele>
        <time>2020-09-15T00:30:31Z</time>
      </trkpt>
      <trkpt lat="45.29023" lon="6.81954">
        <ele>1451</ele>
        <time>2020-09-15T00:30:34Z</time>
      </trkpt>
      <trkpt lat="45.2914" lon="6.82001">
        <ele>1466</ele>
        <time>2020-09-15T00:30:56Z</time>
      </trkpt>
      <trkpt lat="45.29151" lon="6.82004">
        <ele>1468</ele>
        <time>2020-09-15T00:30:58Z</time>
      </trkpt>
      <trkpt lat="45.2917" lon="6.82005">
        <ele>1468</ele>
        <time>2020-09-15T00:31:01Z</time>
      </trkpt>
      <trkpt lat="45.29183" lon="6.82012">
        <ele>1470</ele>
        <time>2020-09-15T00:31:04Z</time>
      </trkpt>
      <trkpt lat="45.29199" lon="6.82036">
        <ele>1476</ele>
        <time>2020-09-15T00:31:08Z</time>
      </trkpt>
      <trkpt lat="45.29219" lon="6.82085">
        <ele>1490</ele>
        <time>2020-09-15T00:31:15Z</time>
      </trkpt>
      <trkpt lat="45.29229" lon="6.82098">
        <ele>1493</ele>
        <time>2020-09-15T00:31:17Z</time>
      </trkpt>
      <trkpt lat="45.29241" lon="6.8211">
        <ele>1494</ele>
        <time>2020-09-15T00:31:20Z</time>
      </trkpt>
      <trkpt lat="45.29252" lon="6.82112">
        <ele>1495</ele>
        <time>2020-09-15T00:31:22Z</time>
      </trkpt>
      <trkpt lat="45.29269" lon="6.82111">
        <ele>1499</ele>
        <time>2020-09-15T00:31:25Z</time>
      </trkpt>
      <trkpt lat="45.29286" lon="6.82103">
        <ele>1502</ele>
        <time>2020-09-15T00:31:28Z</time>
      </trkpt>
      <trkpt lat="45.29296" lon="6.82095">
        <ele>1503</ele>
        <time>2020-09-15T00:31:30Z</time>
      </trkpt>
      <trkpt lat="45.29308" lon="6.82064">
        <ele>1498</ele>
        <time>2020-09-15T00:31:34Z</time>
      </trkpt>
      <trkpt lat="45.29324" lon="6.82032">
        <ele>1494</ele>
        <time>2020-09-15T00:31:39Z</time>
      </trkpt>
      <trkpt lat="45.29335" lon="6.82018">
        <ele>1494</ele>
        <time>2020-09-15T00:31:42Z</time>
      </trkpt>
      <trkpt lat="45.29358" lon="6.82002">
        <ele>1497</ele>
        <time>2020-09-15T00:31:47Z</time>
      </trkpt>
      <trkpt lat="45.294" lon="6.81986">
        <ele>1504</ele>
        <time>2020-09-15T00:31:54Z</time>
      </trkpt>
      <trkpt lat="45.29435" lon="6.81983">
        <ele>1513</ele>
        <time>2020-09-15T00:32:01Z</time>
      </trkpt>
      <trkpt lat="45.29445" lon="6.81979">
        <ele>1515</ele>
        <time>2020-09-15T00:32:02Z</time>
      </trkpt>
      <trkpt lat="45.29499" lon="6.81944">
        <ele>1518</ele>
        <time>2020-09-15T00:32:13Z</time>
      </trkpt>
      <trkpt lat="45.29525" lon="6.81935">
        <ele>1517</ele>
        <time>2020-09-15T00:32:18Z</time>
      </trkpt>
      <trkpt lat="45.29548" lon="6.81936">
        <ele>1520</ele>
        <time>2020-09-15T00:32:22Z</time>
      </trkpt>
      <trkpt lat="45.29563" lon="6.81944">
        <ele>1525</ele>
        <time>2020-09-15T00:32:25Z</time>
      </trkpt>
      <trkpt lat="45.29573" lon="6.81953">
        <ele>1529</ele>
        <time>2020-09-15T00:32:27Z</time>
      </trkpt>
      <trkpt lat="45.29597" lon="6.81961">
        <ele>1530</ele>
        <time>2020-09-15T00:32:31Z</time>
      </trkpt>
      <trkpt lat="45.29605" lon="6.81966">
        <ele>1531</ele>
        <time>2020-09-15T00:32:33Z</time>
      </trkpt>
      <trkpt lat="45.29621" lon="6.81991">
        <ele>1537</ele>
        <time>2020-09-15T00:32:37Z</time>
      </trkpt>
      <trkpt lat="45.29694" lon="6.82069">
        <ele>1542</ele>
        <time>2020-09-15T00:32:53Z</time>
      </trkpt>
      <trkpt lat="45.29722" lon="6.82096">
        <ele>1544</ele>
        <time>2020-09-15T00:32:59Z</time>
      </trkpt>
      <trkpt lat="45.29745" lon="6.82119">
        <ele>1547</ele>
        <time>2020-09-15T00:33:04Z</time>
      </trkpt>
      <trkpt lat="45.29756" lon="6.82126">
        <ele>1549</ele>
        <time>2020-09-15T00:33:06Z</time>
      </trkpt>
      <trkpt lat="45.29769" lon="6.82127">
        <ele>1550</ele>
        <time>2020-09-15T00:33:09Z</time>
      </trkpt>
      <trkpt lat="45.2979" lon="6.8212">
        <ele>1548</ele>
        <time>2020-09-15T00:33:13Z</time>
      </trkpt>
      <trkpt lat="45.29804" lon="6.82118">
        <ele>1547</ele>
        <time>2020-09-15T00:33:15Z</time>
      </trkpt>
      <trkpt lat="45.2982" lon="6.82123">
        <ele>1550</ele>
        <time>2020-09-15T00:33:18Z</time>
      </trkpt>
      <trkpt lat="45.29846" lon="6.82141">
        <ele>1557</ele>
        <time>2020-09-15T00:33:23Z</time>
      </trkpt>
      <trkpt lat="45.29856" lon="6.82144">
        <ele>1558</ele>
        <time>2020-09-15T00:33:25Z</time>
      </trkpt>
      <trkpt lat="45.2992" lon="6.82143">
        <ele>1555</ele>
        <time>2020-09-15T00:33:36Z</time>
      </trkpt>
      <trkpt lat="45.29933" lon="6.82147">
        <ele>1558</ele>
        <time>2020-09-15T00:33:39Z</time>
      </trkpt>
      <trkpt lat="45.29946" lon="6.82154">
        <ele>1561</ele>
        <time>2020-09-15T00:33:41Z</time>
      </trkpt>
      <trkpt lat="45.29961" lon="6.82174">
        <ele>1570</ele>
        <time>2020-09-15T00:33:45Z</time>
      </trkpt>
      <trkpt lat="45.2997" lon="6.82182">
        <ele>1574</ele>
        <time>2020-09-15T00:33:47Z</time>
      </trkpt>
      <trkpt lat="45.29977" lon="6.82182">
        <ele>1575</ele>
        <time>2020-09-15T00:33:48Z</time>
      </trkpt>
      <trkpt lat="45.29988" lon="6.82175">
        <ele>1572</ele>
        <time>2020-09-15T00:33:50Z</time>
      </trkpt>
      <trkpt lat="45.30001" lon="6.82158">
        <ele>1566</ele>
        <time>2020-09-15T00:33:53Z</time>
      </trkpt>
      <trkpt lat="45.30017" lon="6.82147">
        <ele>1561</ele>
        <time>2020-09-15T00:33:56Z</time>
      </trkpt>
      <trkpt lat="45.30034" lon="6.82141">
        <ele>1559</ele>
        <time>2020-09-15T00:33:59Z</time>
      </trkpt>
      <trkpt lat="45.30056" lon="6.82142">
        <ele>1562</ele>
        <time>2020-09-15T00:34:03Z</time>
      </trkpt>
      <trkpt lat="45.30114" lon="6.82162">
        <ele>1576</ele>
        <time>2020-09-15T00:34:14Z</time>
      </trkpt>
      <trkpt lat="45.30158" lon="6.82172">
        <ele>1584</ele>
        <time>2020-09-15T00:34:22Z</time>
      </trkpt>
      <trkpt lat="45.30173" lon="6.82171">
        <ele>1585</ele>
        <time>2020-09-15T00:34:25Z</time>
      </trkpt>
      <trkpt lat="45.30235" lon="6.82151">
        <ele>1587</ele>
        <time>2020-09-15T00:34:36Z</time>
      </trkpt>
      <trkpt lat="45.3025" lon="6.82149">
        <ele>1589</ele>
        <time>2020-09-15T00:34:39Z</time>
      </trkpt>
      <trkpt lat="45.30289" lon="6.82147">
        <ele>1598</ele>
        <time>2020-09-15T00:34:46Z</time>
      </trkpt>
      <trkpt lat="45.30312" lon="6.8212">
        <ele>1594</ele>
        <time>2020-09-15T00:34:51Z</time>
      </trkpt>
      <trkpt lat="45.30329" lon="6.82104">
        <ele>1593</ele>
        <time>2020-09-15T00:34:55Z</time>
      </trkpt>
      <trkpt lat="45.30338" lon="6.82092">
        <ele>1590</ele>
        <time>2020-09-15T00:34:57Z</time>
      </trkpt>
      <trkpt lat="45.30344" lon="6.8209">
        <ele>1589</ele>
        <time>2020-09-15T00:34:58Z</time>
      </trkpt>
      <trkpt lat="45.3035" lon="6.82094">
        <ele>1590</ele>
        <time>2020-09-15T00:34:59Z</time>
      </trkpt>
      <trkpt lat="45.30352" lon="6.82102">
        <ele>1593</ele>
        <time>2020-09-15T00:35:00Z</time>
      </trkpt>
      <trkpt lat="45.30345" lon="6.82113">
        <ele>1596</ele>
        <time>2020-09-15T00:35:02Z</time>
      </trkpt>
      <trkpt lat="45.30324" lon="6.82134">
        <ele>1602</ele>
        <time>2020-09-15T00:35:06Z</time>
      </trkpt>
      <trkpt lat="45.30309" lon="6.8216">
        <ele>1608</ele>
        <time>2020-09-15T00:35:11Z</time>
      </trkpt>
      <trkpt lat="45.30297" lon="6.82189">
        <ele>1616</ele>
        <time>2020-09-15T00:35:15Z</time>
      </trkpt>
      <trkpt lat="45.30286" lon="6.82196">
        <ele>1617</ele>
        <time>2020-09-15T00:35:17Z</time>
      </trkpt>
      <trkpt lat="45.30248" lon="6.82206">
        <ele>1615</ele>
        <time>2020-09-15T00:35:24Z</time>
      </trkpt>
      <trkpt lat="45.30187" lon="6.82245">
        <ele>1619</ele>
        <time>2020-09-15T00:35:36Z</time>
      </trkpt>
      <trkpt lat="45.30168" lon="6.82262">
        <ele>1622</ele>
        <time>2020-09-15T00:35:40Z</time>
      </trkpt>
      <trkpt lat="45.30146" lon="6.82292">
        <ele>1632</ele>
        <time>2020-09-15T00:35:45Z</time>
      </trkpt>
      <trkpt lat="45.30128" lon="6.82309">
        <ele>1636</ele>
        <time>2020-09-15T00:35:49Z</time>
      </trkpt>
      <trkpt lat="45.30086" lon="6.82328">
        <ele>1638</ele>
        <time>2020-09-15T00:35:57Z</time>
      </trkpt>
      <trkpt lat="45.30045" lon="6.82331">
        <ele>1637</ele>
        <time>2020-09-15T00:36:04Z</time>
      </trkpt>
      <trkpt lat="45.30034" lon="6.82336">
        <ele>1638</ele>
        <time>2020-09-15T00:36:06Z</time>
      </trkpt>
      <trkpt lat="45.30005" lon="6.82369">
        <ele>1652</ele>
        <time>2020-09-15T00:36:13Z</time>
      </trkpt>
      <trkpt lat="45.29994" lon="6.82373">
        <ele>1653</ele>
        <time>2020-09-15T00:36:15Z</time>
      </trkpt>
      <trkpt lat="45.29955" lon="6.8238">
        <ele>1652</ele>
        <time>2020-09-15T00:36:22Z</time>
      </trkpt>
      <trkpt lat="45.29936" lon="6.82377">
        <ele>1650</ele>
        <time>2020-09-15T00:36:25Z</time>
      </trkpt>
      <trkpt lat="45.29922" lon="6.8238">
        <ele>1650</ele>
        <time>2020-09-15T00:36:28Z</time>
      </trkpt>
      <trkpt lat="45.29905" lon="6.82396">
        <ele>1653</ele>
        <time>2020-09-15T00:36:31Z</time>
      </trkpt>
      <trkpt lat="45.29891" lon="6.82423">
        <ele>1658</ele>
        <time>2020-09-15T00:36:36Z</time>
      </trkpt>
      <trkpt lat="45.29883" lon="6.82455">
        <ele>1663</ele>
        <time>2020-09-15T00:36:40Z</time>
      </trkpt>
      <trkpt lat="45.29875" lon="6.82544">
        <ele>1679</ele>
        <time>2020-09-15T00:36:51Z</time>
      </trkpt>
      <trkpt lat="45.29866" lon="6.82562">
        <ele>1680</ele>
        <time>2020-09-15T00:36:54Z</time>
      </trkpt>
      <trkpt lat="45.2985" lon="6.82576">
        <ele>1679</ele>
        <time>2020-09-15T00:36:57Z</time>
      </trkpt>
      <trkpt lat="45.29827" lon="6.82583">
        <ele>1676</ele>
        <time>2020-09-15T00:37:01Z</time>
      </trkpt>
      <trkpt lat="45.29736" lon="6.82595">
        <ele>1674</ele>
        <time>2020-09-15T00:37:18Z</time>
      </trkpt>
      <trkpt lat="45.29715" lon="6.82601">
        <ele>1675</ele>
        <time>2020-09-15T00:37:21Z</time>
      </trkpt>
      <trkpt lat="45.29613" lon="6.8264">
        <ele>1679</ele>
        <time>2020-09-15T00:37:40Z</time>
      </trkpt>
      <trkpt lat="45.29586" lon="6.82653">
        <ele>1680</ele>
        <time>2020-09-15T00:37:45Z</time>
      </trkpt>
      <trkpt lat="45.29579" lon="6.82662">
        <ele>1682</ele>
        <time>2020-09-15T00:37:47Z</time>
      </trkpt>
      <trkpt lat="45.29581" lon="6.82672">
        <ele>1685</ele>
        <time>2020-09-15T00:37:48Z</time>
      </trkpt>
      <trkpt lat="45.29586" lon="6.82673">
        <ele>1686</ele>
        <time>2020-09-15T00:37:49Z</time>
      </trkpt>
      <trkpt lat="45.29614" lon="6.82657">
        <ele>1683</ele>
        <time>2020-09-15T00:37:55Z</time>
      </trkpt>
      <trkpt lat="45.29631" lon="6.82653">
        <ele>1683</ele>
        <time>2020-09-15T00:37:58Z</time>
      </trkpt>
      <trkpt lat="45.29712" lon="6.82654">
        <ele>1688</ele>
        <time>2020-09-15T00:38:12Z</time>
      </trkpt>
      <trkpt lat="45.29737" lon="6.82659">
        <ele>1691</ele>
        <time>2020-09-15T00:38:17Z</time>
      </trkpt>
      <trkpt lat="45.29778" lon="6.82681">
        <ele>1701</ele>
        <time>2020-09-15T00:38:24Z</time>
      </trkpt>
      <trkpt lat="45.29809" lon="6.82686">
        <ele>1704</ele>
        <time>2020-09-15T00:38:30Z</time>
      </trkpt>
      <trkpt lat="45.29827" lon="6.82684">
        <ele>1704</ele>
        <time>2020-09-15T00:38:33Z</time>
      </trkpt>
      <trkpt lat="45.29877" lon="6.82679">
        <ele>1709</ele>
        <time>2020-09-15T00:38:42Z</time>
      </trkpt>
      <trkpt lat="45.29918" lon="6.8267">
        <ele>1713</ele>
        <time>2020-09-15T00:38:49Z</time>
      </trkpt>
      <trkpt lat="45.29931" lon="6.82673">
        <ele>1715</ele>
        <time>2020-09-15T00:38:52Z</time>
      </trkpt>
      <trkpt lat="45.29941" lon="6.82685">
        <ele>1719</ele>
        <time>2020-09-15T00:38:54Z</time>
      </trkpt>
      <trkpt lat="45.29951" lon="6.82693">
        <ele>1721</ele>
        <time>2020-09-15T00:38:56Z</time>
      </trkpt>
      <trkpt lat="45.2997" lon="6.82701">
        <ele>1725</ele>
        <time>2020-09-15T00:39:00Z</time>
      </trkpt>
      <trkpt lat="45.29993" lon="6.827">
        <ele>1727</ele>
        <time>2020-09-15T00:39:04Z</time>
      </trkpt>
      <trkpt lat="45.30016" lon="6.82683">
        <ele>1726</ele>
        <time>2020-09-15T00:39:08Z</time>
      </trkpt>
      <trkpt lat="45.30027" lon="6.82669">
        <ele>1725</ele>
        <time>2020-09-15T00:39:11Z</time>
      </trkpt>
      <trkpt lat="45.30042" lon="6.82663">
        <ele>1727</ele>
        <time>2020-09-15T00:39:14Z</time>
      </trkpt>
      <trkpt lat="45.3006" lon="6.82663">
        <ele>1730</ele>
        <time>2020-09-15T00:39:17Z</time>
      </trkpt>
      <trkpt lat="45.30077" lon="6.82672">
        <ele>1734</ele>
        <time>2020-09-15T00:39:20Z</time>
      </trkpt>
      <trkpt lat="45.30092" lon="6.82675">
        <ele>1739</ele>
        <time>2020-09-15T00:39:23Z</time>
      </trkpt>
      <trkpt lat="45.30102" lon="6.82675">
        <ele>1741</ele>
        <time>2020-09-15T00:39:25Z</time>
      </trkpt>
      <trkpt lat="45.30144" lon="6.82637">
        <ele>1745</ele>
        <time>2020-09-15T00:39:34Z</time>
      </trkpt>
      <trkpt lat="45.30153" lon="6.82626">
        <ele>1745</ele>
        <time>2020-09-15T00:39:36Z</time>
      </trkpt>
      <trkpt lat="45.30159" lon="6.82623">
        <ele>1746</ele>
        <time>2020-09-15T00:39:37Z</time>
      </trkpt>
      <trkpt lat="45.30162" lon="6.82626">
        <ele>1748</ele>
        <time>2020-09-15T00:39:37Z</time>
      </trkpt>
      <trkpt lat="45.30163" lon="6.82641">
        <ele>1751</ele>
        <time>2020-09-15T00:39:39Z</time>
      </trkpt>
      <trkpt lat="45.30151" lon="6.82677">
        <ele>1755</ele>
        <time>2020-09-15T00:39:44Z</time>
      </trkpt>
      <trkpt lat="45.30141" lon="6.82694">
        <ele>1756</ele>
        <time>2020-09-15T00:39:47Z</time>
      </trkpt>
      <trkpt lat="45.30129" lon="6.82713">
        <ele>1758</ele>
        <time>2020-09-15T00:39:50Z</time>
      </trkpt>
      <trkpt lat="45.30114" lon="6.82731">
        <ele>1759</ele>
        <time>2020-09-15T00:39:54Z</time>
      </trkpt>
      <trkpt lat="45.30104" lon="6.82744">
        <ele>1759</ele>
        <time>2020-09-15T00:39:56Z</time>
      </trkpt>
      <trkpt lat="45.30086" lon="6.82769">
        <ele>1761</ele>
        <time>2020-09-15T00:40:01Z</time>
      </trkpt>
      <trkpt lat="45.30049" lon="6.82846">
        <ele>1774</ele>
        <time>2020-09-15T00:40:12Z</time>
      </trkpt>
      <trkpt lat="45.30027" lon="6.82861">
        <ele>1777</ele>
        <time>2020-09-15T00:40:17Z</time>
      </trkpt>
      <trkpt lat="45.30001" lon="6.82872">
        <ele>1779</ele>
        <time>2020-09-15T00:40:21Z</time>
      </trkpt>
      <trkpt lat="45.29967" lon="6.82872">
        <ele>1779</ele>
        <time>2020-09-15T00:40:28Z</time>
      </trkpt>
      <trkpt lat="45.29949" lon="6.82876">
        <ele>1780</ele>
        <time>2020-09-15T00:40:31Z</time>
      </trkpt>
      <trkpt lat="45.29894" lon="6.82884">
        <ele>1786</ele>
        <time>2020-09-15T00:40:41Z</time>
      </trkpt>
      <trkpt lat="45.29876" lon="6.82882">
        <ele>1788</ele>
        <time>2020-09-15T00:40:44Z</time>
      </trkpt>
      <trkpt lat="45.29859" lon="6.82876">
        <ele>1787</ele>
        <time>2020-09-15T00:40:47Z</time>
      </trkpt>
      <trkpt lat="45.29839" lon="6.82872">
        <ele>1787</ele>
        <time>2020-09-15T00:40:51Z</time>
      </trkpt>
      <trkpt lat="45.29801" lon="6.82878">
        <ele>1792</ele>
        <time>2020-09-15T00:40:57Z</time>
      </trkpt>
      <trkpt lat="45.29774" lon="6.82877">
        <ele>1792</ele>
        <time>2020-09-15T00:41:02Z</time>
      </trkpt>
      <trkpt lat="45.29757" lon="6.8288">
        <ele>1794</ele>
        <time>2020-09-15T00:41:05Z</time>
      </trkpt>
      <trkpt lat="45.2974" lon="6.82892">
        <ele>1798</ele>
        <time>2020-09-15T00:41:09Z</time>
      </trkpt>
      <trkpt lat="45.29738" lon="6.82901">
        <ele>1802</ele>
        <time>2020-09-15T00:41:10Z</time>
      </trkpt>
      <trkpt lat="45.29742" lon="6.82908">
        <ele>1806</ele>
        <time>2020-09-15T00:41:11Z</time>
      </trkpt>
      <trkpt lat="45.29751" lon="6.82909">
        <ele>1808</ele>
        <time>2020-09-15T00:41:12Z</time>
      </trkpt>
      <trkpt lat="45.29771" lon="6.82897">
        <ele>1802</ele>
        <time>2020-09-15T00:41:16Z</time>
      </trkpt>
      <trkpt lat="45.29784" lon="6.82899">
        <ele>1803</ele>
        <time>2020-09-15T00:41:19Z</time>
      </trkpt>
      <trkpt lat="45.29843" lon="6.82923">
        <ele>1812</ele>
        <time>2020-09-15T00:41:30Z</time>
      </trkpt>
      <trkpt lat="45.29868" lon="6.82928">
        <ele>1811</ele>
        <time>2020-09-15T00:41:34Z</time>
      </trkpt>
      <trkpt lat="45.299" lon="6.82944">
        <ele>1813</ele>
        <time>2020-09-15T00:41:40Z</time>
      </trkpt>
      <trkpt lat="45.29927" lon="6.82967">
        <ele>1820</ele>
        <time>2020-09-15T00:41:46Z</time>
      </trkpt>
      <trkpt lat="45.29959" lon="6.82987">
        <ele>1825</ele>
        <time>2020-09-15T00:41:52Z</time>
      </trkpt>
      <trkpt lat="45.29988" lon="6.83013">
        <ele>1831</ele>
        <time>2020-09-15T00:41:58Z</time>
      </trkpt>
      <trkpt lat="45.30006" lon="6.83032">
        <ele>1837</ele>
        <time>2020-09-15T00:42:02Z</time>
      </trkpt>
      <trkpt lat="45.30016" lon="6.83039">
        <ele>1840</ele>
        <time>2020-09-15T00:42:04Z</time>
      </trkpt>
      <trkpt lat="45.30055" lon="6.83035">
        <ele>1841</ele>
        <time>2020-09-15T00:42:11Z</time>
      </trkpt>
      <trkpt lat="45.30135" lon="6.83003">
        <ele>1844</ele>
        <time>2020-09-15T00:42:26Z</time>
      </trkpt>
      <trkpt lat="45.30164" lon="6.82985">
        <ele>1845</ele>
        <time>2020-09-15T00:42:31Z</time>
      </trkpt>
      <trkpt lat="45.30178" lon="6.82974">
        <ele>1846</ele>
        <time>2020-09-15T00:42:34Z</time>
      </trkpt>
      <trkpt lat="45.30261" lon="6.82881">
        <ele>1852</ele>
        <time>2020-09-15T00:42:53Z</time>
      </trkpt>
      <trkpt lat="45.30285" lon="6.82847">
        <ele>1853</ele>
        <time>2020-09-15T00:42:59Z</time>
      </trkpt>
      <trkpt lat="45.3033" lon="6.82794">
        <ele>1858</ele>
        <time>2020-09-15T00:43:09Z</time>
      </trkpt>
      <trkpt lat="45.30354" lon="6.82771">
        <ele>1854</ele>
        <time>2020-09-15T00:43:15Z</time>
      </trkpt>
      <trkpt lat="45.30365" lon="6.82762">
        <ele>1852</ele>
        <time>2020-09-15T00:43:17Z</time>
      </trkpt>
      <trkpt lat="45.30375" lon="6.82757">
        <ele>1851</ele>
        <time>2020-09-15T00:43:19Z</time>
      </trkpt>
      <trkpt lat="45.30387" lon="6.82759">
        <ele>1852</ele>
        <time>2020-09-15T00:43:21Z</time>
      </trkpt>
      <trkpt lat="45.30399" lon="6.82766">
        <ele>1854</ele>
        <time>2020-09-15T00:43:23Z</time>
      </trkpt>
      <trkpt lat="45.30407" lon="6.82782">
        <ele>1859</ele>
        <time>2020-09-15T00:43:26Z</time>
      </trkpt>
      <trkpt lat="45.3042" lon="6.82837">
        <ele>1874</ele>
        <time>2020-09-15T00:43:33Z</time>
      </trkpt>
      <trkpt lat="45.30459" lon="6.82956">
        <ele>1879</ele>
        <time>2020-09-15T00:43:49Z</time>
      </trkpt>
      <trkpt lat="45.30463" lon="6.82972">
        <ele>1881</ele>
        <time>2020-09-15T00:43:51Z</time>
      </trkpt>
      <trkpt lat="45.30461" lon="6.83003">
        <ele>1888</ele>
        <time>2020-09-15T00:43:55Z</time>
      </trkpt>
      <trkpt lat="45.30463" lon="6.8303">
        <ele>1894</ele>
        <time>2020-09-15T00:43:59Z</time>
      </trkpt>
      <trkpt lat="45.3047" lon="6.83051">
        <ele>1896</ele>
        <time>2020-09-15T00:44:02Z</time>
      </trkpt>
      <trkpt lat="45.30487" lon="6.83072">
        <ele>1894</ele>
        <time>2020-09-15T00:44:06Z</time>
      </trkpt>
      <trkpt lat="45.305" lon="6.83093">
        <ele>1894</ele>
        <time>2020-09-15T00:44:09Z</time>
      </trkpt>
      <trkpt lat="45.30514" lon="6.83141">
        <ele>1902</ele>
        <time>2020-09-15T00:44:16Z</time>
      </trkpt>
      <trkpt lat="45.30513" lon="6.83168">
        <ele>1910</ele>
        <time>2020-09-15T00:44:19Z</time>
      </trkpt>
      <trkpt lat="45.30516" lon="6.83183">
        <ele>1915</ele>
        <time>2020-09-15T00:44:21Z</time>
      </trkpt>
      <trkpt lat="45.30527" lon="6.83203">
        <ele>1918</ele>
        <time>2020-09-15T00:44:24Z</time>
      </trkpt>
      <trkpt lat="45.30543" lon="6.83222">
        <ele>1920</ele>
        <time>2020-09-15T00:44:28Z</time>
      </trkpt>
      <trkpt lat="45.30621" lon="6.83283">
        <ele>1915</ele>
        <time>2020-09-15T00:44:44Z</time>
      </trkpt>
      <trkpt lat="45.30634" lon="6.83303">
        <ele>1916</ele>
        <time>2020-09-15T00:44:47Z</time>
      </trkpt>
      <trkpt lat="45.30645" lon="6.83332">
        <ele>1921</ele>
        <time>2020-09-15T00:44:51Z</time>
      </trkpt>
      <trkpt lat="45.30656" lon="6.83355">
        <ele>1922</ele>
        <time>2020-09-15T00:44:55Z</time>
      </trkpt>
      <trkpt lat="45.30665" lon="6.83411">
        <ele>1934</ele>
        <time>2020-09-15T00:45:02Z</time>
      </trkpt>
      <trkpt lat="45.30709" lon="6.8348">
        <ele>1933</ele>
        <time>2020-09-15T00:45:14Z</time>
      </trkpt>
      <trkpt lat="45.30737" lon="6.83529">
        <ele>1937</ele>
        <time>2020-09-15T00:45:22Z</time>
      </trkpt>
      <trkpt lat="45.30773" lon="6.83574">
        <ele>1945</ele>
        <time>2020-09-15T00:45:30Z</time>
      </trkpt>
      <trkpt lat="45.30788" lon="6.83589">
        <ele>1949</ele>
        <time>2020-09-15T00:45:33Z</time>
      </trkpt>
      <trkpt lat="45.30807" lon="6.83592">
        <ele>1947</ele>
        <time>2020-09-15T00:45:37Z</time>
      </trkpt>
      <trkpt lat="45.30825" lon="6.8359">
        <ele>1943</ele>
        <time>2020-09-15T00:45:40Z</time>
      </trkpt>
      <trkpt lat="45.30845" lon="6.83593">
        <ele>1943</ele>
        <time>2020-09-15T00:45:44Z</time>
      </trkpt>
      <trkpt lat="45.30862" lon="6.83602">
        <ele>1947</ele>
        <time>2020-09-15T00:45:47Z</time>
      </trkpt>
      <trkpt lat="45.3088" lon="6.83621">
        <ele>1956</ele>
        <time>2020-09-15T00:45:51Z</time>
      </trkpt>
      <trkpt lat="45.3089" lon="6.83625">
        <ele>1957</ele>
        <time>2020-09-15T00:45:53Z</time>
      </trkpt>
      <trkpt lat="45.30901" lon="6.83624">
        <ele>1957</ele>
        <time>2020-09-15T00:45:55Z</time>
      </trkpt>
      <trkpt lat="45.30911" lon="6.8362">
        <ele>1955</ele>
        <time>2020-09-15T00:45:56Z</time>
      </trkpt>
      <trkpt lat="45.30996" lon="6.83632">
        <ele>1963</ele>
        <time>2020-09-15T00:46:12Z</time>
      </trkpt>
      <trkpt lat="45.31021" lon="6.83621">
        <ele>1959</ele>
        <time>2020-09-15T00:46:16Z</time>
      </trkpt>
      <trkpt lat="45.31033" lon="6.83621">
        <ele>1958</ele>
        <time>2020-09-15T00:46:18Z</time>
      </trkpt>
      <trkpt lat="45.3105" lon="6.83628">
        <ele>1961</ele>
        <time>2020-09-15T00:46:22Z</time>
      </trkpt>
      <trkpt lat="45.31124" lon="6.83685">
        <ele>1975</ele>
        <time>2020-09-15T00:46:36Z</time>
      </trkpt>
      <trkpt lat="45.31169" lon="6.83728">
        <ele>1980</ele>
        <time>2020-09-15T00:46:46Z</time>
      </trkpt>
      <trkpt lat="45.31198" lon="6.83762">
        <ele>1984</ele>
        <time>2020-09-15T00:46:53Z</time>
      </trkpt>
      <trkpt lat="45.31244" lon="6.83832">
        <ele>1993</ele>
        <time>2020-09-15T00:47:05Z</time>
      </trkpt>
      <trkpt lat="45.31263" lon="6.83855">
        <ele>1996</ele>
        <time>2020-09-15T00:47:09Z</time>
      </trkpt>
      <trkpt lat="45.31298" lon="6.83886">
        <ele>1996</ele>
        <time>2020-09-15T00:47:17Z</time>
      </trkpt>
      <trkpt lat="45.31304" lon="6.83901">
        <ele>1998</ele>
        <time>2020-09-15T00:47:19Z</time>
      </trkpt>
      <trkpt lat="45.31314" lon="6.83944">
        <ele>2009</ele>
        <time>2020-09-15T00:47:24Z</time>
      </trkpt>
      <trkpt lat="45.31325" lon="6.8395">
        <ele>2007</ele>
        <time>2020-09-15T00:47:27Z</time>
      </trkpt>
      <trkpt lat="45.31348" lon="6.83951">
        <ele>2001</ele>
        <time>2020-09-15T00:47:31Z</time>
      </trkpt>
      <trkpt lat="45.31366" lon="6.83953">
        <ele>1997</ele>
        <time>2020-09-15T00:47:34Z</time>
      </trkpt>
      <trkpt lat="45.31383" lon="6.83971">
        <ele>1998</ele>
        <time>2020-09-15T00:47:38Z</time>
      </trkpt>
      <trkpt lat="45.3141" lon="6.84008">
        <ele>2000</ele>
        <time>2020-09-15T00:47:44Z</time>
      </trkpt>
      <trkpt lat="45.31414" lon="6.84021">
        <ele>2002</ele>
        <time>2020-09-15T00:47:46Z</time>
      </trkpt>
      <trkpt lat="45.31414" lon="6.84052">
        <ele>2010</ele>
        <time>2020-09-15T00:47:50Z</time>
      </trkpt>
      <trkpt lat="45.31419" lon="6.84074">
        <ele>2014</ele>
        <time>2020-09-15T00:47:53Z</time>
      </trkpt>
      <trkpt lat="45.31433" lon="6.84106">
        <ele>2020</ele>
        <time>2020-09-15T00:47:58Z</time>
      </trkpt>
      <trkpt lat="45.31453" lon="6.84139">
        <ele>2024</ele>
        <time>2020-09-15T00:48:03Z</time>
      </trkpt>
      <trkpt lat="45.31462" lon="6.84154">
        <ele>2025</ele>
        <time>2020-09-15T00:48:05Z</time>
      </trkpt>
      <trkpt lat="45.3147" lon="6.84158">
        <ele>2024</ele>
        <time>2020-09-15T00:48:07Z</time>
      </trkpt>
      <trkpt lat="45.3148" lon="6.84157">
        <ele>2022</ele>
        <time>2020-09-15T00:48:09Z</time>
      </trkpt>
      <trkpt lat="45.31489" lon="6.8415">
        <ele>2019</ele>
        <time>2020-09-15T00:48:11Z</time>
      </trkpt>
      <trkpt lat="45.31493" lon="6.84135">
        <ele>2016</ele>
        <time>2020-09-15T00:48:13Z</time>
      </trkpt>
      <trkpt lat="45.31493" lon="6.84082">
        <ele>2007</ele>
        <time>2020-09-15T00:48:19Z</time>
      </trkpt>
      <trkpt lat="45.31503" lon="6.84045">
        <ele>1997</ele>
        <time>2020-09-15T00:48:24Z</time>
      </trkpt>
      <trkpt lat="45.31519" lon="6.84006">
        <ele>1995</ele>
        <time>2020-09-15T00:48:30Z</time>
      </trkpt>
      <trkpt lat="45.31539" lon="6.83964">
        <ele>1997</ele>
        <time>2020-09-15T00:48:36Z</time>
      </trkpt>
      <trkpt lat="45.3155" lon="6.83918">
        <ele>1993</ele>
        <time>2020-09-15T00:48:42Z</time>
      </trkpt>
      <trkpt lat="45.3155" lon="6.83899">
        <ele>1992</ele>
        <time>2020-09-15T00:48:45Z</time>
      </trkpt>
      <trkpt lat="45.31552" lon="6.8388">
        <ele>1992</ele>
        <time>2020-09-15T00:48:47Z</time>
      </trkpt>
      <trkpt lat="45.31558" lon="6.8386">
        <ele>1994</ele>
        <time>2020-09-15T00:48:50Z</time>
      </trkpt>
      <trkpt lat="45.31565" lon="6.8383">
        <ele>1998</ele>
        <time>2020-09-15T00:48:54Z</time>
      </trkpt>
      <trkpt lat="45.31564" lon="6.83818">
        <ele>1998</ele>
        <time>2020-09-15T00:48:55Z</time>
      </trkpt>
      <trkpt lat="45.31547" lon="6.83735">
        <ele>1993</ele>
        <time>2020-09-15T00:49:06Z</time>
      </trkpt>
      <trkpt lat="45.3155" lon="6.83693">
        <ele>1993</ele>
        <time>2020-09-15T00:49:11Z</time>
      </trkpt>
      <trkpt lat="45.31546" lon="6.83658">
        <ele>1989</ele>
        <time>2020-09-15T00:49:16Z</time>
      </trkpt>
      <trkpt lat="45.31557" lon="6.83616">
        <ele>1995</ele>
        <time>2020-09-15T00:49:21Z</time>
      </trkpt>
      <trkpt lat="45.3156" lon="6.83582">
        <ele>1996</ele>
        <time>2020-09-15T00:49:26Z</time>
      </trkpt>
      <trkpt lat="45.31555" lon="6.83555">
        <ele>2000</ele>
        <time>2020-09-15T00:49:29Z</time>
      </trkpt>
      <trkpt lat="45.31544" lon="6.83535">
        <ele>2001</ele>
        <time>2020-09-15T00:49:32Z</time>
      </trkpt>
      <trkpt lat="45.31528" lon="6.83522">
        <ele>1998</ele>
        <time>2020-09-15T00:49:36Z</time>
      </trkpt>
      <trkpt lat="45.31497" lon="6.83506">
        <ele>1992</ele>
        <time>2020-09-15T00:49:41Z</time>
      </trkpt>
      <trkpt lat="45.31485" lon="6.8349">
        <ele>1989</ele>
        <time>2020-09-15T00:49:44Z</time>
      </trkpt>
      <trkpt lat="45.31481" lon="6.83475">
        <ele>1992</ele>
        <time>2020-09-15T00:49:46Z</time>
      </trkpt>
      <trkpt lat="45.3148" lon="6.83458">
        <ele>1996</ele>
        <time>2020-09-15T00:49:49Z</time>
      </trkpt>
      <trkpt lat="45.3148" lon="6.83436">
        <ele>2002</ele>
        <time>2020-09-15T00:49:51Z</time>
      </trkpt>
      <trkpt lat="45.31477" lon="6.83419">
        <ele>2006</ele>
        <time>2020-09-15T00:49:53Z</time>
      </trkpt>
      <trkpt lat="45.31463" lon="6.8339">
        <ele>2008</ele>
        <time>2020-09-15T00:49:58Z</time>
      </trkpt>
      <trkpt lat="45.3145" lon="6.83343">
        <ele>2017</ele>
        <time>2020-09-15T00:50:04Z</time>
      </trkpt>
      <trkpt lat="45.31441" lon="6.83325">
        <ele>2018</ele>
        <time>2020-09-15T00:50:07Z</time>
      </trkpt>
      <trkpt lat="45.31404" lon="6.83277">
        <ele>2012</ele>
        <time>2020-09-15T00:50:16Z</time>
      </trkpt>
      <trkpt lat="45.31398" lon="6.83265">
        <ele>2013</ele>
        <time>2020-09-15T00:50:18Z</time>
      </trkpt>
      <trkpt lat="45.31389" lon="6.83224">
        <ele>2018</ele>
        <time>2020-09-15T00:50:23Z</time>
      </trkpt>
      <trkpt lat="45.3138" lon="6.83187">
        <ele>2022</ele>
        <time>2020-09-15T00:50:28Z</time>
      </trkpt>
      <trkpt lat="45.31375" lon="6.83174">
        <ele>2023</ele>
        <time>2020-09-15T00:50:30Z</time>
      </trkpt>
      <trkpt lat="45.31348" lon="6.83127">
        <ele>2015</ele>
        <time>2020-09-15T00:50:37Z</time>
      </trkpt>
      <trkpt lat="45.31345" lon="6.83115">
        <ele>2015</ele>
        <time>2020-09-15T00:50:39Z</time>
      </trkpt>
      <trkpt lat="45.31346" lon="6.83104">
        <ele>2016</ele>
        <time>2020-09-15T00:50:40Z</time>
      </trkpt>
      <trkpt lat="45.31351" lon="6.83096">
        <ele>2017</ele>
        <time>2020-09-15T00:50:42Z</time>
      </trkpt>
      <trkpt lat="45.31371" lon="6.83091">
        <ele>2023</ele>
        <time>2020-09-15T00:50:45Z</time>
      </trkpt>
      <trkpt lat="45.31401" lon="6.83079">
        <ele>2030</ele>
        <time>2020-09-15T00:50:51Z</time>
      </trkpt>
      <trkpt lat="45.31424" lon="6.83057">
        <ele>2030</ele>
        <time>2020-09-15T00:50:56Z</time>
      </trkpt>
      <trkpt lat="45.3143" lon="6.83054">
        <ele>2031</ele>
        <time>2020-09-15T00:50:57Z</time>
      </trkpt>
      <trkpt lat="45.31461" lon="6.83065">
        <ele>2039</ele>
        <time>2020-09-15T00:51:03Z</time>
      </trkpt>
      <trkpt lat="45.31526" lon="6.83076">
        <ele>2050</ele>
        <time>2020-09-15T00:51:14Z</time>
      </trkpt>
      <trkpt lat="45.31551" lon="6.83083">
        <ele>2054</ele>
        <time>2020-09-15T00:51:19Z</time>
      </trkpt>
      <trkpt lat="45.31558" lon="6.8308">
        <ele>2055</ele>
        <time>2020-09-15T00:51:20Z</time>
      </trkpt>
      <trkpt lat="45.31562" lon="6.83076">
        <ele>2057</ele>
        <time>2020-09-15T00:51:21Z</time>
      </trkpt>
      <trkpt lat="45.31562" lon="6.83063">
        <ele>2058</ele>
        <time>2020-09-15T00:51:23Z</time>
      </trkpt>
      <trkpt lat="45.31559" lon="6.83055">
        <ele>2058</ele>
        <time>2020-09-15T00:51:24Z</time>
      </trkpt>
      <trkpt lat="45.31535" lon="6.83029">
        <ele>2055</ele>
        <time>2020-09-15T00:51:29Z</time>
      </trkpt>
      <trkpt lat="45.31522" lon="6.83008">
        <ele>2053</ele>
        <time>2020-09-15T00:51:33Z</time>
      </trkpt>
      <trkpt lat="45.31506" lon="6.82992">
        <ele>2049</ele>
        <time>2020-09-15T00:51:36Z</time>
      </trkpt>
      <trkpt lat="45.3149" lon="6.82981">
        <ele>2044</ele>
        <time>2020-09-15T00:51:39Z</time>
      </trkpt>
      <trkpt lat="45.31482" lon="6.82965">
        <ele>2042</ele>
        <time>2020-09-15T00:51:42Z</time>
      </trkpt>
      <trkpt lat="45.31483" lon="6.82944">
        <ele>2044</ele>
        <time>2020-09-15T00:51:44Z</time>
      </trkpt>
      <trkpt lat="45.31485" lon="6.82939">
        <ele>2046</ele>
        <time>2020-09-15T00:51:45Z</time>
      </trkpt>
      <trkpt lat="45.31489" lon="6.82927">
        <ele>2048</ele>
        <time>2020-09-15T00:51:47Z</time>
      </trkpt>
      <trkpt lat="45.31501" lon="6.82919">
        <ele>2054</ele>
        <time>2020-09-15T00:51:49Z</time>
      </trkpt>
      <trkpt lat="45.31507" lon="6.82921">
        <ele>2056</ele>
        <time>2020-09-15T00:51:50Z</time>
      </trkpt>
      <trkpt lat="45.31519" lon="6.82933">
        <ele>2059</ele>
        <time>2020-09-15T00:51:53Z</time>
      </trkpt>
      <trkpt lat="45.31526" lon="6.82949">
        <ele>2059</ele>
        <time>2020-09-15T00:51:55Z</time>
      </trkpt>
      <trkpt lat="45.31528" lon="6.82955">
        <ele>2059</ele>
        <time>2020-09-15T00:51:56Z</time>
      </trkpt>
      <trkpt lat="45.31542" lon="6.82995">
        <ele>2060</ele>
        <time>2020-09-15T00:52:02Z</time>
      </trkpt>
      <trkpt lat="45.31561" lon="6.83022">
        <ele>2063</ele>
        <time>2020-09-15T00:52:06Z</time>
      </trkpt>
      <trkpt lat="45.3171" lon="6.8306">
        <ele>2095</ele>
        <time>2020-09-15T00:52:33Z</time>
      </trkpt>
      <trkpt lat="45.31718" lon="6.83068">
        <ele>2095</ele>
        <time>2020-09-15T00:52:35Z</time>
      </trkpt>
      <trkpt lat="45.31716" lon="6.83079">
        <ele>2093</ele>
        <time>2020-09-15T00:52:36Z</time>
      </trkpt>
      <trkpt lat="45.31628" lon="6.83124">
        <ele>2079</ele>
        <time>2020-09-15T00:52:53Z</time>
      </trkpt>
      <trkpt lat="45.31602" lon="6.83142">
        <ele>2077</ele>
        <time>2020-09-15T00:52:58Z</time>
      </trkpt>
      <trkpt lat="45.31589" lon="6.83176">
        <ele>2082</ele>
        <time>2020-09-15T00:53:03Z</time>
      </trkpt>
      <trkpt lat="45.31583" lon="6.83213">
        <ele>2085</ele>
        <time>2020-09-15T00:53:08Z</time>
      </trkpt>
      <trkpt lat="45.31594" lon="6.83247">
        <ele>2091</ele>
        <time>2020-09-15T00:53:13Z</time>
      </trkpt>
      <trkpt lat="45.31614" lon="6.83281">
        <ele>2094</ele>
        <time>2020-09-15T00:53:18Z</time>
      </trkpt>
      <trkpt lat="45.31649" lon="6.83308">
        <ele>2100</ele>
        <time>2020-09-15T00:53:25Z</time>
      </trkpt>
      <trkpt lat="45.31682" lon="6.83347">
        <ele>2102</ele>
        <time>2020-09-15T00:53:33Z</time>
      </trkpt>
      <trkpt lat="45.31697" lon="6.83358">
        <ele>2102</ele>
        <time>2020-09-15T00:53:36Z</time>
      </trkpt>
      <trkpt lat="45.31712" lon="6.83363">
        <ele>2104</ele>
        <time>2020-09-15T00:53:39Z</time>
      </trkpt>
      <trkpt lat="45.31726" lon="6.83363">
        <ele>2106</ele>
        <time>2020-09-15T00:53:41Z</time>
      </trkpt>
      <trkpt lat="45.31739" lon="6.83361">
        <ele>2108</ele>
        <time>2020-09-15T00:53:43Z</time>
      </trkpt>
      <trkpt lat="45.31767" lon="6.8335">
        <ele>2115</ele>
        <time>2020-09-15T00:53:49Z</time>
      </trkpt>
      <trkpt lat="45.31797" lon="6.83331">
        <ele>2123</ele>
        <time>2020-09-15T00:53:54Z</time>
      </trkpt>
      <trkpt lat="45.3181" lon="6.83318">
        <ele>2127</ele>
        <time>2020-09-15T00:53:57Z</time>
      </trkpt>
      <trkpt lat="45.31817" lon="6.83305">
        <ele>2129</ele>
        <time>2020-09-15T00:53:59Z</time>
      </trkpt>
      <trkpt lat="45.31822" lon="6.8329">
        <ele>2132</ele>
        <time>2020-09-15T00:54:01Z</time>
      </trkpt>
      <trkpt lat="45.31822" lon="6.83275">
        <ele>2133</ele>
        <time>2020-09-15T00:54:03Z</time>
      </trkpt>
      <trkpt lat="45.3182" lon="6.83265">
        <ele>2134</ele>
        <time>2020-09-15T00:54:04Z</time>
      </trkpt>
      <trkpt lat="45.31814" lon="6.83252">
        <ele>2134</ele>
        <time>2020-09-15T00:54:06Z</time>
      </trkpt>
      <trkpt lat="45.31784" lon="6.83209">
        <ele>2127</ele>
        <time>2020-09-15T00:54:14Z</time>
      </trkpt>
      <trkpt lat="45.31779" lon="6.83194">
        <ele>2125</ele>
        <time>2020-09-15T00:54:16Z</time>
      </trkpt>
      <trkpt lat="45.31781" lon="6.83178">
        <ele>2126</ele>
        <time>2020-09-15T00:54:18Z</time>
      </trkpt>
      <trkpt lat="45.31788" lon="6.83167">
        <ele>2128</ele>
        <time>2020-09-15T00:54:20Z</time>
      </trkpt>
      <trkpt lat="45.31799" lon="6.83162">
        <ele>2131</ele>
        <time>2020-09-15T00:54:22Z</time>
      </trkpt>
      <trkpt lat="45.31809" lon="6.83162">
        <ele>2134</ele>
        <time>2020-09-15T00:54:24Z</time>
      </trkpt>
      <trkpt lat="45.31827" lon="6.83174">
        <ele>2141</ele>
        <time>2020-09-15T00:54:27Z</time>
      </trkpt>
      <trkpt lat="45.31837" lon="6.83188">
        <ele>2143</ele>
        <time>2020-09-15T00:54:30Z</time>
      </trkpt>
      <trkpt lat="45.31843" lon="6.83208">
        <ele>2144</ele>
        <time>2020-09-15T00:54:33Z</time>
      </trkpt>
      <trkpt lat="45.31852" lon="6.83246">
        <ele>2146</ele>
        <time>2020-09-15T00:54:38Z</time>
      </trkpt>
      <trkpt lat="45.31862" lon="6.83278">
        <ele>2147</ele>
        <time>2020-09-15T00:54:42Z</time>
      </trkpt>
      <trkpt lat="45.31876" lon="6.83312">
        <ele>2150</ele>
        <time>2020-09-15T00:54:47Z</time>
      </trkpt>
      <trkpt lat="45.3188" lon="6.83328">
        <ele>2150</ele>
        <time>2020-09-15T00:54:49Z</time>
      </trkpt>
      <trkpt lat="45.31878" lon="6.8334">
        <ele>2149</ele>
        <time>2020-09-15T00:54:51Z</time>
      </trkpt>
      <trkpt lat="45.31863" lon="6.83412">
        <ele>2145</ele>
        <time>2020-09-15T00:55:00Z</time>
      </trkpt>
      <trkpt lat="45.31863" lon="6.83424">
        <ele>2145</ele>
        <time>2020-09-15T00:55:01Z</time>
      </trkpt>
      <trkpt lat="45.31868" lon="6.83441">
        <ele>2146</ele>
        <time>2020-09-15T00:55:04Z</time>
      </trkpt>
      <trkpt lat="45.31891" lon="6.83488">
        <ele>2154</ele>
        <time>2020-09-15T00:55:11Z</time>
      </trkpt>
      <trkpt lat="45.31936" lon="6.83518">
        <ele>2168</ele>
        <time>2020-09-15T00:55:20Z</time>
      </trkpt>
      <trkpt lat="45.31941" lon="6.83524">
        <ele>2170</ele>
        <time>2020-09-15T00:55:21Z</time>
      </trkpt>
      <trkpt lat="45.31944" lon="6.83534">
        <ele>2171</ele>
        <time>2020-09-15T00:55:22Z</time>
      </trkpt>
      <trkpt lat="45.31943" lon="6.83544">
        <ele>2170</ele>
        <time>2020-09-15T00:55:24Z</time>
      </trkpt>
      <trkpt lat="45.31936" lon="6.83558">
        <ele>2168</ele>
        <time>2020-09-15T00:55:26Z</time>
      </trkpt>
      <trkpt lat="45.31922" lon="6.83583">
        <ele>2164</ele>
        <time>2020-09-15T00:55:30Z</time>
      </trkpt>
      <trkpt lat="45.31899" lon="6.83636">
        <ele>2160</ele>
        <time>2020-09-15T00:55:38Z</time>
      </trkpt>
      <trkpt lat="45.31897" lon="6.83645">
        <ele>2160</ele>
        <time>2020-09-15T00:55:39Z</time>
      </trkpt>
      <trkpt lat="45.31897" lon="6.83656">
        <ele>2161</ele>
        <time>2020-09-15T00:55:40Z</time>
      </trkpt>
      <trkpt lat="45.31902" lon="6.83666">
        <ele>2164</ele>
        <time>2020-09-15T00:55:42Z</time>
      </trkpt>
      <trkpt lat="45.31909" lon="6.83676">
        <ele>2167</ele>
        <time>2020-09-15T00:55:43Z</time>
      </trkpt>
      <trkpt lat="45.31947" lon="6.83706">
        <ele>2181</ele>
        <time>2020-09-15T00:55:51Z</time>
      </trkpt>
      <trkpt lat="45.31954" lon="6.83708">
        <ele>2184</ele>
        <time>2020-09-15T00:55:52Z</time>
      </trkpt>
      <trkpt lat="45.31962" lon="6.83704">
        <ele>2187</ele>
        <time>2020-09-15T00:55:54Z</time>
      </trkpt>
      <trkpt lat="45.31967" lon="6.83698">
        <ele>2188</ele>
        <time>2020-09-15T00:55:55Z</time>
      </trkpt>
      <trkpt lat="45.31971" lon="6.83686">
        <ele>2189</ele>
        <time>2020-09-15T00:55:57Z</time>
      </trkpt>
      <trkpt lat="45.31969" lon="6.83674">
        <ele>2188</ele>
        <time>2020-09-15T00:55:58Z</time>
      </trkpt>
      <trkpt lat="45.31966" lon="6.83669">
        <ele>2187</ele>
        <time>2020-09-15T00:55:59Z</time>
      </trkpt>
      <trkpt lat="45.3195" lon="6.83663">
        <ele>2181</ele>
        <time>2020-09-15T00:56:02Z</time>
      </trkpt>
      <trkpt lat="45.31946" lon="6.83654">
        <ele>2179</ele>
        <time>2020-09-15T00:56:03Z</time>
      </trkpt>
      <trkpt lat="45.31945" lon="6.83645">
        <ele>2178</ele>
        <time>2020-09-15T00:56:04Z</time>
      </trkpt>
      <trkpt lat="45.31946" lon="6.83636">
        <ele>2177</ele>
        <time>2020-09-15T00:56:06Z</time>
      </trkpt>
      <trkpt lat="45.31952" lon="6.83627">
        <ele>2178</ele>
        <time>2020-09-15T00:56:07Z</time>
      </trkpt>
      <trkpt lat="45.31958" lon="6.8362">
        <ele>2179</ele>
        <time>2020-09-15T00:56:09Z</time>
      </trkpt>
      <trkpt lat="45.32024" lon="6.83572">
        <ele>2194</ele>
        <time>2020-09-15T00:56:22Z</time>
      </trkpt>
      <trkpt lat="45.32035" lon="6.83561">
        <ele>2197</ele>
        <time>2020-09-15T00:56:24Z</time>
      </trkpt>
      <trkpt lat="45.32075" lon="6.83504">
        <ele>2203</ele>
        <time>2020-09-15T00:56:34Z</time>
      </trkpt>
      <trkpt lat="45.3208" lon="6.83489">
        <ele>2204</ele>
        <time>2020-09-15T00:56:36Z</time>
      </trkpt>
      <trkpt lat="45.32079" lon="6.83476">
        <ele>2204</ele>
        <time>2020-09-15T00:56:38Z</time>
      </trkpt>
      <trkpt lat="45.32061" lon="6.83409">
        <ele>2203</ele>
        <time>2020-09-15T00:56:47Z</time>
      </trkpt>
      <trkpt lat="45.32058" lon="6.83393">
        <ele>2204</ele>
        <time>2020-09-15T00:56:49Z</time>
      </trkpt>
      <trkpt lat="45.32058" lon="6.8338">
        <ele>2204</ele>
        <time>2020-09-15T00:56:51Z</time>
      </trkpt>
      <trkpt lat="45.32064" lon="6.83324">
        <ele>2207</ele>
        <time>2020-09-15T00:56:58Z</time>
      </trkpt>
      <trkpt lat="45.32062" lon="6.83281">
        <ele>2208</ele>
        <time>2020-09-15T00:57:03Z</time>
      </trkpt>
      <trkpt lat="45.32064" lon="6.83265">
        <ele>2209</ele>
        <time>2020-09-15T00:57:05Z</time>
      </trkpt>
      <trkpt lat="45.32068" lon="6.8325">
        <ele>2211</ele>
        <time>2020-09-15T00:57:07Z</time>
      </trkpt>
      <trkpt lat="45.32073" lon="6.83238">
        <ele>2212</ele>
        <time>2020-09-15T00:57:09Z</time>
      </trkpt>
      <trkpt lat="45.3209" lon="6.8322">
        <ele>2215</ele>
        <time>2020-09-15T00:57:13Z</time>
      </trkpt>
      <trkpt lat="45.32164" lon="6.83181">
        <ele>2225</ele>
        <time>2020-09-15T00:57:27Z</time>
      </trkpt>
      <trkpt lat="45.3218" lon="6.8318">
        <ele>2227</ele>
        <time>2020-09-15T00:57:30Z</time>
      </trkpt>
      <trkpt lat="45.32219" lon="6.83186">
        <ele>2231</ele>
        <time>2020-09-15T00:57:37Z</time>
      </trkpt>
      <trkpt lat="45.32228" lon="6.83186">
        <ele>2232</ele>
        <time>2020-09-15T00:57:38Z</time>
      </trkpt>
      <trkpt lat="45.32309" lon="6.83125">
        <ele>2242</ele>
        <time>2020-09-15T00:57:54Z</time>
      </trkpt>
      <trkpt lat="45.32323" lon="6.83116">
        <ele>2243</ele>
        <time>2020-09-15T00:57:57Z</time>
      </trkpt>
      <trkpt lat="45.32331" lon="6.83111">
        <ele>2244</ele>
        <time>2020-09-15T00:57:59Z</time>
      </trkpt>
      <trkpt lat="45.32376" lon="6.83094">
        <ele>2251</ele>
        <time>2020-09-15T00:58:07Z</time>
      </trkpt>
      <trkpt lat="45.32388" lon="6.83091">
        <ele>2253</ele>
        <time>2020-09-15T00:58:09Z</time>
      </trkpt>
      <trkpt lat="45.32399" lon="6.83091">
        <ele>2255</ele>
        <time>2020-09-15T00:58:11Z</time>
      </trkpt>
      <trkpt lat="45.32441" lon="6.83103">
        <ele>2267</ele>
        <time>2020-09-15T00:58:19Z</time>
      </trkpt>
      <trkpt lat="45.32456" lon="6.83103">
        <ele>2272</ele>
        <time>2020-09-15T00:58:21Z</time>
      </trkpt>
      <trkpt lat="45.32461" lon="6.83098">
        <ele>2273</ele>
        <time>2020-09-15T00:58:22Z</time>
      </trkpt>
      <trkpt lat="45.32462" lon="6.83091">
        <ele>2272</ele>
        <time>2020-09-15T00:58:23Z</time>
      </trkpt>
      <trkpt lat="45.32458" lon="6.83081">
        <ele>2270</ele>
        <time>2020-09-15T00:58:25Z</time>
      </trkpt>
      <trkpt lat="45.32445" lon="6.83076">
        <ele>2266</ele>
        <time>2020-09-15T00:58:27Z</time>
      </trkpt>
      <trkpt lat="45.32434" lon="6.83068">
        <ele>2264</ele>
        <time>2020-09-15T00:58:29Z</time>
      </trkpt>
      <trkpt lat="45.32425" lon="6.83057">
        <ele>2262</ele>
        <time>2020-09-15T00:58:32Z</time>
      </trkpt>
      <trkpt lat="45.32422" lon="6.83044">
        <ele>2262</ele>
        <time>2020-09-15T00:58:33Z</time>
      </trkpt>
      <trkpt lat="45.32432" lon="6.83005">
        <ele>2268</ele>
        <time>2020-09-15T00:58:38Z</time>
      </trkpt>
      <trkpt lat="45.32432" lon="6.82995">
        <ele>2270</ele>
        <time>2020-09-15T00:58:40Z</time>
      </trkpt>
      <trkpt lat="45.32429" lon="6.82986">
        <ele>2271</ele>
        <time>2020-09-15T00:58:41Z</time>
      </trkpt>
      <trkpt lat="45.3238" lon="6.82943">
        <ele>2266</ele>
        <time>2020-09-15T00:58:51Z</time>
      </trkpt>
      <trkpt lat="45.32373" lon="6.82938">
        <ele>2265</ele>
        <time>2020-09-15T00:58:53Z</time>
      </trkpt>
      <trkpt lat="45.32354" lon="6.82929">
        <ele>2261</ele>
        <time>2020-09-15T00:58:56Z</time>
      </trkpt>
      <trkpt lat="45.32348" lon="6.82922">
        <ele>2261</ele>
        <time>2020-09-15T00:58:58Z</time>
      </trkpt>
      <trkpt lat="45.32345" lon="6.82913">
        <ele>2261</ele>
        <time>2020-09-15T00:58:59Z</time>
      </trkpt>
      <trkpt lat="45.32347" lon="6.82902">
        <ele>2265</ele>
        <time>2020-09-15T00:59:00Z</time>
      </trkpt>
      <trkpt lat="45.32352" lon="6.82895">
        <ele>2268</ele>
        <time>2020-09-15T00:59:01Z</time>
      </trkpt>
      <trkpt lat="45.32366" lon="6.82895">
        <ele>2273</ele>
        <time>2020-09-15T00:59:04Z</time>
      </trkpt>
      <trkpt lat="45.32408" lon="6.82916">
        <ele>2279</ele>
        <time>2020-09-15T00:59:12Z</time>
      </trkpt>
      <trkpt lat="45.32434" lon="6.8294">
        <ele>2282</ele>
        <time>2020-09-15T00:59:17Z</time>
      </trkpt>
      <trkpt lat="45.32445" lon="6.82955">
        <ele>2282</ele>
        <time>2020-09-15T00:59:20Z</time>
      </trkpt>
      <trkpt lat="45.32454" lon="6.82974">
        <ele>2281</ele>
        <time>2020-09-15T00:59:23Z</time>
      </trkpt>
      <trkpt lat="45.32464" lon="6.83018">
        <ele>2277</ele>
        <time>2020-09-15T00:59:29Z</time>
      </trkpt>
      <trkpt lat="45.32469" lon="6.83032">
        <ele>2277</ele>
        <time>2020-09-15T00:59:31Z</time>
      </trkpt>
      <trkpt lat="45.32477" lon="6.83045">
        <ele>2279</ele>
        <time>2020-09-15T00:59:33Z</time>
      </trkpt>
      <trkpt lat="45.32485" lon="6.83053">
        <ele>2281</ele>
        <time>2020-09-15T00:59:35Z</time>
      </trkpt>
      <trkpt lat="45.32492" lon="6.83058">
        <ele>2282</ele>
        <time>2020-09-15T00:59:36Z</time>
      </trkpt>
      <trkpt lat="45.32501" lon="6.83058">
        <ele>2285</ele>
        <time>2020-09-15T00:59:38Z</time>
      </trkpt>
      <trkpt lat="45.32553" lon="6.83038">
        <ele>2298</ele>
        <time>2020-09-15T00:59:47Z</time>
      </trkpt>
      <trkpt lat="45.32668" lon="6.82968">
        <ele>2310</ele>
        <time>2020-09-15T01:00:09Z</time>
      </trkpt>
      <trkpt lat="45.32694" lon="6.8295">
        <ele>2310</ele>
        <time>2020-09-15T01:00:15Z</time>
      </trkpt>
      <trkpt lat="45.32708" lon="6.82947">
        <ele>2310</ele>
        <time>2020-09-15T01:00:17Z</time>
      </trkpt>
      <trkpt lat="45.32717" lon="6.82948">
        <ele>2309</ele>
        <time>2020-09-15T01:00:19Z</time>
      </trkpt>
      <trkpt lat="45.32726" lon="6.8295">
        <ele>2309</ele>
        <time>2020-09-15T01:00:20Z</time>
      </trkpt>
      <trkpt lat="45.32792" lon="6.82984">
        <ele>2309</ele>
        <time>2020-09-15T01:00:33Z</time>
      </trkpt>
      <trkpt lat="45.32802" lon="6.82984">
        <ele>2310</ele>
        <time>2020-09-15T01:00:35Z</time>
      </trkpt>
      <trkpt lat="45.32826" lon="6.82976">
        <ele>2312</ele>
        <time>2020-09-15T01:00:39Z</time>
      </trkpt>
      <trkpt lat="45.32933" lon="6.82911">
        <ele>2312</ele>
        <time>2020-09-15T01:01:00Z</time>
      </trkpt>
      <trkpt lat="45.32943" lon="6.82899">
        <ele>2314</ele>
        <time>2020-09-15T01:01:02Z</time>
      </trkpt>
      <trkpt lat="45.32953" lon="6.82878">
        <ele>2317</ele>
        <time>2020-09-15T01:01:05Z</time>
      </trkpt>
      <trkpt lat="45.32943" lon="6.82899">
        <ele>2314</ele>
        <time>2020-09-15T01:01:08Z</time>
      </trkpt>
      <trkpt lat="45.32933" lon="6.82911">
        <ele>2312</ele>
        <time>2020-09-15T01:01:11Z</time>
      </trkpt>
      <trkpt lat="45.32826" lon="6.82976">
        <ele>2312</ele>
        <time>2020-09-15T01:01:31Z</time>
      </trkpt>
      <trkpt lat="45.32802" lon="6.82984">
        <ele>2310</ele>
        <time>2020-09-15T01:01:36Z</time>
      </trkpt>
      <trkpt lat="45.32792" lon="6.82984">
        <ele>2309</ele>
        <time>2020-09-15T01:01:38Z</time>
      </trkpt>
      <trkpt lat="45.32726" lon="6.8295">
        <ele>2309</ele>
        <time>2020-09-15T01:01:50Z</time>
      </trkpt>
      <trkpt lat="45.32717" lon="6.82948">
        <ele>2309</ele>
        <time>2020-09-15T01:01:52Z</time>
      </trkpt>
      <trkpt lat="45.32708" lon="6.82947">
        <ele>2310</ele>
        <time>2020-09-15T01:01:53Z</time>
      </trkpt>
      <trkpt lat="45.32694" lon="6.8295">
        <ele>2310</ele>
        <time>2020-09-15T01:01:56Z</time>
      </trkpt>
      <trkpt lat="45.32668" lon="6.82968">
        <ele>2310</ele>
        <time>2020-09-15T01:02:01Z</time>
      </trkpt>
      <trkpt lat="45.32553" lon="6.83038">
        <ele>2298</ele>
        <time>2020-09-15T01:02:23Z</time>
      </trkpt>
      <trkpt lat="45.32501" lon="6.83058">
        <ele>2285</ele>
        <time>2020-09-15T01:02:33Z</time>
      </trkpt>
      <trkpt lat="45.32492" lon="6.83058">
        <ele>2282</ele>
        <time>2020-09-15T01:02:34Z</time>
      </trkpt>
      <trkpt lat="45.32485" lon="6.83053">
        <ele>2281</ele>
        <time>2020-09-15T01:02:36Z</time>
      </trkpt>
      <trkpt lat="45.32477" lon="6.83045">
        <ele>2279</ele>
        <time>2020-09-15T01:02:37Z</time>
      </trkpt>
      <trkpt lat="45.32469" lon="6.83032">
        <ele>2277</ele>
        <time>2020-09-15T01:02:40Z</time>
      </trkpt>
      <trkpt lat="45.32464" lon="6.83018">
        <ele>2277</ele>
        <time>2020-09-15T01:02:42Z</time>
      </trkpt>
      <trkpt lat="45.32454" lon="6.82974">
        <ele>2281</ele>
        <time>2020-09-15T01:02:47Z</time>
      </trkpt>
      <trkpt lat="45.32445" lon="6.82955">
        <ele>2282</ele>
        <time>2020-09-15T01:02:50Z</time>
      </trkpt>
      <trkpt lat="45.32434" lon="6.8294">
        <ele>2282</ele>
        <time>2020-09-15T01:02:53Z</time>
      </trkpt>
      <trkpt lat="45.32408" lon="6.82916">
        <ele>2279</ele>
        <time>2020-09-15T01:02:58Z</time>
      </trkpt>
      <trkpt lat="45.32366" lon="6.82895">
        <ele>2273</ele>
        <time>2020-09-15T01:03:06Z</time>
      </trkpt>
      <trkpt lat="45.32352" lon="6.82895">
        <ele>2268</ele>
        <time>2020-09-15T01:03:09Z</time>
      </trkpt>
      <trkpt lat="45.32347" lon="6.82902">
        <ele>2265</ele>
        <time>2020-09-15T01:03:10Z</time>
      </trkpt>
      <trkpt lat="45.32345" lon="6.82913">
        <ele>2261</ele>
        <time>2020-09-15T01:03:12Z</time>
      </trkpt>
      <trkpt lat="45.32348" lon="6.82922">
        <ele>2261</ele>
        <time>2020-09-15T01:03:13Z</time>
      </trkpt>
      <trkpt lat="45.32354" lon="6.82929">
        <ele>2261</ele>
        <time>2020-09-15T01:03:14Z</time>
      </trkpt>
      <trkpt lat="45.32373" lon="6.82938">
        <ele>2265</ele>
        <time>2020-09-15T01:03:18Z</time>
      </trkpt>
      <trkpt lat="45.3238" lon="6.82943">
        <ele>2266</ele>
        <time>2020-09-15T01:03:19Z</time>
      </trkpt>
      <trkpt lat="45.32429" lon="6.82986">
        <ele>2271</ele>
        <time>2020-09-15T01:03:29Z</time>
      </trkpt>
      <trkpt lat="45.32432" lon="6.82995">
        <ele>2270</ele>
        <time>2020-09-15T01:03:31Z</time>
      </trkpt>
      <trkpt lat="45.32432" lon="6.83005">
        <ele>2268</ele>
        <time>2020-09-15T01:03:32Z</time>
      </trkpt>
      <trkpt lat="45.32422" lon="6.83044">
        <ele>2262</ele>
        <time>2020-09-15T01:03:37Z</time>
      </trkpt>
      <trkpt lat="45.32425" lon="6.83057">
        <ele>2262</ele>
        <time>2020-09-15T01:03:39Z</time>
      </trkpt>
      <trkpt lat="45.32434" lon="6.83068">
        <ele>2264</ele>
        <time>2020-09-15T01:03:41Z</time>
      </trkpt>
      <trkpt lat="45.32445" lon="6.83076">
        <ele>2266</ele>
        <time>2020-09-15T01:03:43Z</time>
      </trkpt>
      <trkpt lat="45.32458" lon="6.83081">
        <ele>2270</ele>
        <time>2020-09-15T01:03:46Z</time>
      </trkpt>
      <trkpt lat="45.32462" lon="6.83091">
        <ele>2272</ele>
        <time>2020-09-15T01:03:47Z</time>
      </trkpt>
      <trkpt lat="45.32461" lon="6.83098">
        <ele>2273</ele>
        <time>2020-09-15T01:03:48Z</time>
      </trkpt>
      <trkpt lat="45.32456" lon="6.83103">
        <ele>2272</ele>
        <time>2020-09-15T01:03:49Z</time>
      </trkpt>
      <trkpt lat="45.32441" lon="6.83103">
        <ele>2267</ele>
        <time>2020-09-15T01:03:52Z</time>
      </trkpt>
      <trkpt lat="45.32399" lon="6.83091">
        <ele>2255</ele>
        <time>2020-09-15T01:03:59Z</time>
      </trkpt>
      <trkpt lat="45.32388" lon="6.83091">
        <ele>2253</ele>
        <time>2020-09-15T01:04:01Z</time>
      </trkpt>
      <trkpt lat="45.32376" lon="6.83094">
        <ele>2251</ele>
        <time>2020-09-15T01:04:03Z</time>
      </trkpt>
      <trkpt lat="45.32331" lon="6.83111">
        <ele>2244</ele>
        <time>2020-09-15T01:04:12Z</time>
      </trkpt>
      <trkpt lat="45.32323" lon="6.83116">
        <ele>2243</ele>
        <time>2020-09-15T01:04:13Z</time>
      </trkpt>
      <trkpt lat="45.32309" lon="6.83125">
        <ele>2242</ele>
        <time>2020-09-15T01:04:16Z</time>
      </trkpt>
      <trkpt lat="45.32228" lon="6.83186">
        <ele>2232</ele>
        <time>2020-09-15T01:04:32Z</time>
      </trkpt>
      <trkpt lat="45.32219" lon="6.83186">
        <ele>2231</ele>
        <time>2020-09-15T01:04:34Z</time>
      </trkpt>
      <trkpt lat="45.3218" lon="6.8318">
        <ele>2227</ele>
        <time>2020-09-15T01:04:41Z</time>
      </trkpt>
      <trkpt lat="45.32164" lon="6.83181">
        <ele>2225</ele>
        <time>2020-09-15T01:04:44Z</time>
      </trkpt>
      <trkpt lat="45.3209" lon="6.8322">
        <ele>2215</ele>
        <time>2020-09-15T01:04:58Z</time>
      </trkpt>
      <trkpt lat="45.32073" lon="6.83238">
        <ele>2212</ele>
        <time>2020-09-15T01:05:01Z</time>
      </trkpt>
      <trkpt lat="45.32068" lon="6.8325">
        <ele>2211</ele>
        <time>2020-09-15T01:05:03Z</time>
      </trkpt>
      <trkpt lat="45.32064" lon="6.83265">
        <ele>2209</ele>
        <time>2020-09-15T01:05:05Z</time>
      </trkpt>
      <trkpt lat="45.32062" lon="6.83281">
        <ele>2208</ele>
        <time>2020-09-15T01:05:07Z</time>
      </trkpt>
      <trkpt lat="45.32064" lon="6.83324">
        <ele>2207</ele>
        <time>2020-09-15T01:05:13Z</time>
      </trkpt>
      <trkpt lat="45.32058" lon="6.8338">
        <ele>2204</ele>
        <time>2020-09-15T01:05:20Z</time>
      </trkpt>
      <trkpt lat="45.32058" lon="6.83393">
        <ele>2204</ele>
        <time>2020-09-15T01:05:21Z</time>
      </trkpt>
      <trkpt lat="45.32061" lon="6.83409">
        <ele>2203</ele>
        <time>2020-09-15T01:05:23Z</time>
      </trkpt>
      <trkpt lat="45.32079" lon="6.83476">
        <ele>2204</ele>
        <time>2020-09-15T01:05:32Z</time>
      </trkpt>
      <trkpt lat="45.3208" lon="6.83489">
        <ele>2204</ele>
        <time>2020-09-15T01:05:34Z</time>
      </trkpt>
      <trkpt lat="45.32075" lon="6.83504">
        <ele>2203</ele>
        <time>2020-09-15T01:05:36Z</time>
      </trkpt>
      <trkpt lat="45.32035" lon="6.83561">
        <ele>2197</ele>
        <time>2020-09-15T01:05:46Z</time>
      </trkpt>
      <trkpt lat="45.32024" lon="6.83572">
        <ele>2194</ele>
        <time>2020-09-15T01:05:49Z</time>
      </trkpt>
      <trkpt lat="45.31958" lon="6.8362">
        <ele>2179</ele>
        <time>2020-09-15T01:06:02Z</time>
      </trkpt>
      <trkpt lat="45.31952" lon="6.83627">
        <ele>2178</ele>
        <time>2020-09-15T01:06:03Z</time>
      </trkpt>
      <trkpt lat="45.31946" lon="6.83636">
        <ele>2177</ele>
        <time>2020-09-15T01:06:05Z</time>
      </trkpt>
      <trkpt lat="45.31945" lon="6.83645">
        <ele>2178</ele>
        <time>2020-09-15T01:06:06Z</time>
      </trkpt>
      <trkpt lat="45.31946" lon="6.83654">
        <ele>2179</ele>
        <time>2020-09-15T01:06:07Z</time>
      </trkpt>
      <trkpt lat="45.3195" lon="6.83663">
        <ele>2181</ele>
        <time>2020-09-15T01:06:08Z</time>
      </trkpt>
      <trkpt lat="45.31966" lon="6.83669">
        <ele>2187</ele>
        <time>2020-09-15T01:06:11Z</time>
      </trkpt>
      <trkpt lat="45.31969" lon="6.83674">
        <ele>2188</ele>
        <time>2020-09-15T01:06:12Z</time>
      </trkpt>
      <trkpt lat="45.31971" lon="6.83686">
        <ele>2189</ele>
        <time>2020-09-15T01:06:14Z</time>
      </trkpt>
      <trkpt lat="45.31967" lon="6.83698">
        <ele>2188</ele>
        <time>2020-09-15T01:06:15Z</time>
      </trkpt>
      <trkpt lat="45.31962" lon="6.83704">
        <ele>2187</ele>
        <time>2020-09-15T01:06:16Z</time>
      </trkpt>
      <trkpt lat="45.31954" lon="6.83708">
        <ele>2184</ele>
        <time>2020-09-15T01:06:18Z</time>
      </trkpt>
      <trkpt lat="45.31947" lon="6.83706">
        <ele>2181</ele>
        <time>2020-09-15T01:06:19Z</time>
      </trkpt>
      <trkpt lat="45.31909" lon="6.83676">
        <ele>2167</ele>
        <time>2020-09-15T01:06:27Z</time>
      </trkpt>
      <trkpt lat="45.31902" lon="6.83666">
        <ele>2164</ele>
        <time>2020-09-15T01:06:29Z</time>
      </trkpt>
      <trkpt lat="45.31897" lon="6.83656">
        <ele>2161</ele>
        <time>2020-09-15T01:06:30Z</time>
      </trkpt>
      <trkpt lat="45.31897" lon="6.83645">
        <ele>2160</ele>
        <time>2020-09-15T01:06:32Z</time>
      </trkpt>
      <trkpt lat="45.31899" lon="6.83636">
        <ele>2160</ele>
        <time>2020-09-15T01:06:33Z</time>
      </trkpt>
      <trkpt lat="45.31922" lon="6.83583">
        <ele>2164</ele>
        <time>2020-09-15T01:06:41Z</time>
      </trkpt>
      <trkpt lat="45.31936" lon="6.83558">
        <ele>2168</ele>
        <time>2020-09-15T01:06:45Z</time>
      </trkpt>
      <trkpt lat="45.31943" lon="6.83544">
        <ele>2170</ele>
        <time>2020-09-15T01:06:47Z</time>
      </trkpt>
      <trkpt lat="45.31944" lon="6.83534">
        <ele>2171</ele>
        <time>2020-09-15T01:06:48Z</time>
      </trkpt>
      <trkpt lat="45.31941" lon="6.83524">
        <ele>2170</ele>
        <time>2020-09-15T01:06:49Z</time>
      </trkpt>
      <trkpt lat="45.31936" lon="6.83518">
        <ele>2168</ele>
        <time>2020-09-15T01:06:51Z</time>
      </trkpt>
      <trkpt lat="45.31891" lon="6.83488">
        <ele>2154</ele>
        <time>2020-09-15T01:06:59Z</time>
      </trkpt>
      <trkpt lat="45.31868" lon="6.83441">
        <ele>2146</ele>
        <time>2020-09-15T01:07:07Z</time>
      </trkpt>
      <trkpt lat="45.31863" lon="6.83424">
        <ele>2145</ele>
        <time>2020-09-15T01:07:09Z</time>
      </trkpt>
      <trkpt lat="45.31863" lon="6.83412">
        <ele>2145</ele>
        <time>2020-09-15T01:07:10Z</time>
      </trkpt>
      <trkpt lat="45.31878" lon="6.8334">
        <ele>2149</ele>
        <time>2020-09-15T01:07:20Z</time>
      </trkpt>
      <trkpt lat="45.3188" lon="6.83328">
        <ele>2150</ele>
        <time>2020-09-15T01:07:21Z</time>
      </trkpt>
      <trkpt lat="45.31876" lon="6.83312">
        <ele>2150</ele>
        <time>2020-09-15T01:07:23Z</time>
      </trkpt>
      <trkpt lat="45.31862" lon="6.83278">
        <ele>2147</ele>
        <time>2020-09-15T01:07:28Z</time>
      </trkpt>
      <trkpt lat="45.31852" lon="6.83246">
        <ele>2146</ele>
        <time>2020-09-15T01:07:33Z</time>
      </trkpt>
      <trkpt lat="45.31843" lon="6.83208">
        <ele>2144</ele>
        <time>2020-09-15T01:07:38Z</time>
      </trkpt>
      <trkpt lat="45.31837" lon="6.83188">
        <ele>2143</ele>
        <time>2020-09-15T01:07:40Z</time>
      </trkpt>
      <trkpt lat="45.31827" lon="6.83174">
        <ele>2141</ele>
        <time>2020-09-15T01:07:43Z</time>
      </trkpt>
      <trkpt lat="45.31809" lon="6.83162">
        <ele>2134</ele>
        <time>2020-09-15T01:07:47Z</time>
      </trkpt>
      <trkpt lat="45.31799" lon="6.83162">
        <ele>2131</ele>
        <time>2020-09-15T01:07:48Z</time>
      </trkpt>
      <trkpt lat="45.31788" lon="6.83167">
        <ele>2128</ele>
        <time>2020-09-15T01:07:50Z</time>
      </trkpt>
      <trkpt lat="45.31781" lon="6.83178">
        <ele>2126</ele>
        <time>2020-09-15T01:07:52Z</time>
      </trkpt>
      <trkpt lat="45.31779" lon="6.83194">
        <ele>2125</ele>
        <time>2020-09-15T01:07:54Z</time>
      </trkpt>
      <trkpt lat="45.31784" lon="6.83209">
        <ele>2127</ele>
        <time>2020-09-15T01:07:56Z</time>
      </trkpt>
      <trkpt lat="45.31814" lon="6.83252">
        <ele>2134</ele>
        <time>2020-09-15T01:08:04Z</time>
      </trkpt>
      <trkpt lat="45.3182" lon="6.83265">
        <ele>2134</ele>
        <time>2020-09-15T01:08:06Z</time>
      </trkpt>
      <trkpt lat="45.31822" lon="6.83275">
        <ele>2133</ele>
        <time>2020-09-15T01:08:07Z</time>
      </trkpt>
      <trkpt lat="45.31822" lon="6.8329">
        <ele>2132</ele>
        <time>2020-09-15T01:08:09Z</time>
      </trkpt>
      <trkpt lat="45.31817" lon="6.83305">
        <ele>2129</ele>
        <time>2020-09-15T01:08:11Z</time>
      </trkpt>
      <trkpt lat="45.3181" lon="6.83318">
        <ele>2127</ele>
        <time>2020-09-15T01:08:13Z</time>
      </trkpt>
      <trkpt lat="45.31797" lon="6.83331">
        <ele>2123</ele>
        <time>2020-09-15T01:08:16Z</time>
      </trkpt>
      <trkpt lat="45.31767" lon="6.8335">
        <ele>2115</ele>
        <time>2020-09-15T01:08:22Z</time>
      </trkpt>
      <trkpt lat="45.31739" lon="6.83361">
        <ele>2108</ele>
        <time>2020-09-15T01:08:27Z</time>
      </trkpt>
      <trkpt lat="45.31726" lon="6.83363">
        <ele>2106</ele>
        <time>2020-09-15T01:08:29Z</time>
      </trkpt>
      <trkpt lat="45.31712" lon="6.83363">
        <ele>2104</ele>
        <time>2020-09-15T01:08:32Z</time>
      </trkpt>
      <trkpt lat="45.31697" lon="6.83358">
        <ele>2102</ele>
        <time>2020-09-15T01:08:35Z</time>
      </trkpt>
      <trkpt lat="45.31682" lon="6.83347">
        <ele>2102</ele>
        <time>2020-09-15T01:08:38Z</time>
      </trkpt>
      <trkpt lat="45.31649" lon="6.83308">
        <ele>2100</ele>
        <time>2020-09-15T01:08:45Z</time>
      </trkpt>
      <trkpt lat="45.31614" lon="6.83281">
        <ele>2094</ele>
        <time>2020-09-15T01:08:52Z</time>
      </trkpt>
      <trkpt lat="45.31594" lon="6.83247">
        <ele>2091</ele>
        <time>2020-09-15T01:08:58Z</time>
      </trkpt>
      <trkpt lat="45.31583" lon="6.83213">
        <ele>2085</ele>
        <time>2020-09-15T01:09:02Z</time>
      </trkpt>
      <trkpt lat="45.31589" lon="6.83176">
        <ele>2082</ele>
        <time>2020-09-15T01:09:07Z</time>
      </trkpt>
      <trkpt lat="45.31602" lon="6.83142">
        <ele>2077</ele>
        <time>2020-09-15T01:09:12Z</time>
      </trkpt>
      <trkpt lat="45.31628" lon="6.83124">
        <ele>2079</ele>
        <time>2020-09-15T01:09:17Z</time>
      </trkpt>
      <trkpt lat="45.31716" lon="6.83079">
        <ele>2093</ele>
        <time>2020-09-15T01:09:34Z</time>
      </trkpt>
      <trkpt lat="45.31718" lon="6.83068">
        <ele>2095</ele>
        <time>2020-09-15T01:09:35Z</time>
      </trkpt>
      <trkpt lat="45.3171" lon="6.8306">
        <ele>2095</ele>
        <time>2020-09-15T01:09:37Z</time>
      </trkpt>
      <trkpt lat="45.31561" lon="6.83022">
        <ele>2063</ele>
        <time>2020-09-15T01:10:04Z</time>
      </trkpt>
      <trkpt lat="45.31542" lon="6.82995">
        <ele>2060</ele>
        <time>2020-09-15T01:10:09Z</time>
      </trkpt>
      <trkpt lat="45.31528" lon="6.82955">
        <ele>2059</ele>
        <time>2020-09-15T01:10:14Z</time>
      </trkpt>
      <trkpt lat="45.31526" lon="6.82949">
        <ele>2059</ele>
        <time>2020-09-15T01:10:15Z</time>
      </trkpt>
      <trkpt lat="45.31519" lon="6.82933">
        <ele>2059</ele>
        <time>2020-09-15T01:10:18Z</time>
      </trkpt>
      <trkpt lat="45.31507" lon="6.82921">
        <ele>2056</ele>
        <time>2020-09-15T01:10:20Z</time>
      </trkpt>
      <trkpt lat="45.31501" lon="6.82919">
        <ele>2054</ele>
        <time>2020-09-15T01:10:21Z</time>
      </trkpt>
      <trkpt lat="45.31489" lon="6.82927">
        <ele>2048</ele>
        <time>2020-09-15T01:10:24Z</time>
      </trkpt>
      <trkpt lat="45.31485" lon="6.82939">
        <ele>2046</ele>
        <time>2020-09-15T01:10:25Z</time>
      </trkpt>
      <trkpt lat="45.31483" lon="6.82944">
        <ele>2044</ele>
        <time>2020-09-15T01:10:26Z</time>
      </trkpt>
      <trkpt lat="45.31482" lon="6.82965">
        <ele>2042</ele>
        <time>2020-09-15T01:10:29Z</time>
      </trkpt>
      <trkpt lat="45.3149" lon="6.82981">
        <ele>2044</ele>
        <time>2020-09-15T01:10:31Z</time>
      </trkpt>
      <trkpt lat="45.31506" lon="6.82992">
        <ele>2049</ele>
        <time>2020-09-15T01:10:34Z</time>
      </trkpt>
      <trkpt lat="45.31522" lon="6.83008">
        <ele>2053</ele>
        <time>2020-09-15T01:10:38Z</time>
      </trkpt>
      <trkpt lat="45.31535" lon="6.83029">
        <ele>2055</ele>
        <time>2020-09-15T01:10:41Z</time>
      </trkpt>
      <trkpt lat="45.31559" lon="6.83055">
        <ele>2058</ele>
        <time>2020-09-15T01:10:47Z</time>
      </trkpt>
      <trkpt lat="45.31562" lon="6.83063">
        <ele>2058</ele>
        <time>2020-09-15T01:10:48Z</time>
      </trkpt>
      <trkpt lat="45.31562" lon="6.83076">
        <ele>2057</ele>
        <time>2020-09-15T01:10:49Z</time>
      </trkpt>
      <trkpt lat="45.31558" lon="6.8308">
        <ele>2055</ele>
        <time>2020-09-15T01:10:50Z</time>
      </trkpt>
      <trkpt lat="45.31551" lon="6.83083">
        <ele>2054</ele>
        <time>2020-09-15T01:10:52Z</time>
      </trkpt>
      <trkpt lat="45.31526" lon="6.83076">
        <ele>2050</ele>
        <time>2020-09-15T01:10:56Z</time>
      </trkpt>
      <trkpt lat="45.31461" lon="6.83065">
        <ele>2039</ele>
        <time>2020-09-15T01:11:08Z</time>
      </trkpt>
      <trkpt lat="45.3143" lon="6.83054">
        <ele>2031</ele>
        <time>2020-09-15T01:11:13Z</time>
      </trkpt>
      <trkpt lat="45.31424" lon="6.83057">
        <ele>2030</ele>
        <time>2020-09-15T01:11:15Z</time>
      </trkpt>
      <trkpt lat="45.31401" lon="6.83079">
        <ele>2030</ele>
        <time>2020-09-15T01:11:19Z</time>
      </trkpt>
      <trkpt lat="45.31371" lon="6.83091">
        <ele>2023</ele>
        <time>2020-09-15T01:11:25Z</time>
      </trkpt>
      <trkpt lat="45.31351" lon="6.83096">
        <ele>2017</ele>
        <time>2020-09-15T01:11:29Z</time>
      </trkpt>
      <trkpt lat="45.31346" lon="6.83104">
        <ele>2016</ele>
        <time>2020-09-15T01:11:30Z</time>
      </trkpt>
      <trkpt lat="45.31345" lon="6.83115">
        <ele>2015</ele>
        <time>2020-09-15T01:11:31Z</time>
      </trkpt>
      <trkpt lat="45.31348" lon="6.83127">
        <ele>2015</ele>
        <time>2020-09-15T01:11:33Z</time>
      </trkpt>
      <trkpt lat="45.31375" lon="6.83174">
        <ele>2023</ele>
        <time>2020-09-15T01:11:41Z</time>
      </trkpt>
      <trkpt lat="45.3138" lon="6.83187">
        <ele>2022</ele>
        <time>2020-09-15T01:11:42Z</time>
      </trkpt>
      <trkpt lat="45.31389" lon="6.83224">
        <ele>2018</ele>
        <time>2020-09-15T01:11:47Z</time>
      </trkpt>
      <trkpt lat="45.31398" lon="6.83265">
        <ele>2013</ele>
        <time>2020-09-15T01:11:53Z</time>
      </trkpt>
      <trkpt lat="45.31404" lon="6.83277">
        <ele>2012</ele>
        <time>2020-09-15T01:11:54Z</time>
      </trkpt>
      <trkpt lat="45.31441" lon="6.83325">
        <ele>2018</ele>
        <time>2020-09-15T01:12:03Z</time>
      </trkpt>
      <trkpt lat="45.3145" lon="6.83343">
        <ele>2017</ele>
        <time>2020-09-15T01:12:06Z</time>
      </trkpt>
      <trkpt lat="45.31463" lon="6.8339">
        <ele>2008</ele>
        <time>2020-09-15T01:12:12Z</time>
      </trkpt>
      <trkpt lat="45.31477" lon="6.83419">
        <ele>2006</ele>
        <time>2020-09-15T01:12:17Z</time>
      </trkpt>
      <trkpt lat="45.3148" lon="6.83436">
        <ele>2002</ele>
        <time>2020-09-15T01:12:19Z</time>
      </trkpt>
      <trkpt lat="45.3148" lon="6.83458">
        <ele>1996</ele>
        <time>2020-09-15T01:12:22Z</time>
      </trkpt>
      <trkpt lat="45.31481" lon="6.83475">
        <ele>1992</ele>
        <time>2020-09-15T01:12:24Z</time>
      </trkpt>
      <trkpt lat="45.31485" lon="6.8349">
        <ele>1989</ele>
        <time>2020-09-15T01:12:26Z</time>
      </trkpt>
      <trkpt lat="45.31497" lon="6.83506">
        <ele>1992</ele>
        <time>2020-09-15T01:12:29Z</time>
      </trkpt>
      <trkpt lat="45.31528" lon="6.83522">
        <ele>1998</ele>
        <time>2020-09-15T01:12:35Z</time>
      </trkpt>
      <trkpt lat="45.31544" lon="6.83535">
        <ele>2001</ele>
        <time>2020-09-15T01:12:38Z</time>
      </trkpt>
      <trkpt lat="45.31555" lon="6.83555">
        <ele>2000</ele>
        <time>2020-09-15T01:12:41Z</time>
      </trkpt>
      <trkpt lat="45.3156" lon="6.83582">
        <ele>1996</ele>
        <time>2020-09-15T01:12:45Z</time>
      </trkpt>
      <trkpt lat="45.31557" lon="6.83616">
        <ele>1995</ele>
        <time>2020-09-15T01:12:49Z</time>
      </trkpt>
      <trkpt lat="45.31546" lon="6.83658">
        <ele>1989</ele>
        <time>2020-09-15T01:12:55Z</time>
      </trkpt>
      <trkpt lat="45.3155" lon="6.83693">
        <ele>1993</ele>
        <time>2020-09-15T01:12:59Z</time>
      </trkpt>
      <trkpt lat="45.31547" lon="6.83735">
        <ele>1993</ele>
        <time>2020-09-15T01:13:04Z</time>
      </trkpt>
      <trkpt lat="45.31564" lon="6.83818">
        <ele>1998</ele>
        <time>2020-09-15T01:13:15Z</time>
      </trkpt>
      <trkpt lat="45.31565" lon="6.8383">
        <ele>1998</ele>
        <time>2020-09-15T01:13:17Z</time>
      </trkpt>
      <trkpt lat="45.31558" lon="6.8386">
        <ele>1994</ele>
        <time>2020-09-15T01:13:21Z</time>
      </trkpt>
      <trkpt lat="45.31552" lon="6.8388">
        <ele>1992</ele>
        <time>2020-09-15T01:13:23Z</time>
      </trkpt>
      <trkpt lat="45.3155" lon="6.83899">
        <ele>1992</ele>
        <time>2020-09-15T01:13:26Z</time>
      </trkpt>
      <trkpt lat="45.3155" lon="6.83918">
        <ele>1993</ele>
        <time>2020-09-15T01:13:28Z</time>
      </trkpt>
      <trkpt lat="45.31539" lon="6.83964">
        <ele>1997</ele>
        <time>2020-09-15T01:13:34Z</time>
      </trkpt>
      <trkpt lat="45.31519" lon="6.84006">
        <ele>1995</ele>
        <time>2020-09-15T01:13:41Z</time>
      </trkpt>
      <trkpt lat="45.31503" lon="6.84045">
        <ele>1997</ele>
        <time>2020-09-15T01:13:46Z</time>
      </trkpt>
      <trkpt lat="45.31493" lon="6.84082">
        <ele>2007</ele>
        <time>2020-09-15T01:13:51Z</time>
      </trkpt>
      <trkpt lat="45.31493" lon="6.84135">
        <ele>2016</ele>
        <time>2020-09-15T01:13:58Z</time>
      </trkpt>
      <trkpt lat="45.31489" lon="6.8415">
        <ele>2019</ele>
        <time>2020-09-15T01:14:00Z</time>
      </trkpt>
      <trkpt lat="45.3148" lon="6.84157">
        <ele>2022</ele>
        <time>2020-09-15T01:14:02Z</time>
      </trkpt>
      <trkpt lat="45.3147" lon="6.84158">
        <ele>2024</ele>
        <time>2020-09-15T01:14:03Z</time>
      </trkpt>
      <trkpt lat="45.31462" lon="6.84154">
        <ele>2025</ele>
        <time>2020-09-15T01:14:05Z</time>
      </trkpt>
      <trkpt lat="45.31453" lon="6.84139">
        <ele>2024</ele>
        <time>2020-09-15T01:14:07Z</time>
      </trkpt>
      <trkpt lat="45.31433" lon="6.84106">
        <ele>2020</ele>
        <time>2020-09-15T01:14:13Z</time>
      </trkpt>
      <trkpt lat="45.31419" lon="6.84074">
        <ele>2014</ele>
        <time>2020-09-15T01:14:18Z</time>
      </trkpt>
      <trkpt lat="45.31414" lon="6.84052">
        <ele>2010</ele>
        <time>2020-09-15T01:14:20Z</time>
      </trkpt>
      <trkpt lat="45.31414" lon="6.84021">
        <ele>2002</ele>
        <time>2020-09-15T01:14:24Z</time>
      </trkpt>
      <trkpt lat="45.3141" lon="6.84008">
        <ele>2000</ele>
        <time>2020-09-15T01:14:26Z</time>
      </trkpt>
      <trkpt lat="45.31383" lon="6.83971">
        <ele>1998</ele>
        <time>2020-09-15T01:14:33Z</time>
      </trkpt>
      <trkpt lat="45.31366" lon="6.83953">
        <ele>1997</ele>
        <time>2020-09-15T01:14:37Z</time>
      </trkpt>
      <trkpt lat="45.31348" lon="6.83951">
        <ele>2001</ele>
        <time>2020-09-15T01:14:40Z</time>
      </trkpt>
      <trkpt lat="45.31325" lon="6.8395">
        <ele>2007</ele>
        <time>2020-09-15T01:14:44Z</time>
      </trkpt>
      <trkpt lat="45.31314" lon="6.83944">
        <ele>2009</ele>
        <time>2020-09-15T01:14:46Z</time>
      </trkpt>
      <trkpt lat="45.31304" lon="6.83901">
        <ele>1998</ele>
        <time>2020-09-15T01:14:52Z</time>
      </trkpt>
      <trkpt lat="45.31298" lon="6.83886">
        <ele>1996</ele>
        <time>2020-09-15T01:14:54Z</time>
      </trkpt>
      <trkpt lat="45.31263" lon="6.83855">
        <ele>1996</ele>
        <time>2020-09-15T01:15:01Z</time>
      </trkpt>
      <trkpt lat="45.31244" lon="6.83832">
        <ele>1993</ele>
        <time>2020-09-15T01:15:06Z</time>
      </trkpt>
      <trkpt lat="45.31198" lon="6.83762">
        <ele>1984</ele>
        <time>2020-09-15T01:15:18Z</time>
      </trkpt>
      <trkpt lat="45.31169" lon="6.83728">
        <ele>1980</ele>
        <time>2020-09-15T01:15:24Z</time>
      </trkpt>
      <trkpt lat="45.31124" lon="6.83685">
        <ele>1975</ele>
        <time>2020-09-15T01:15:34Z</time>
      </trkpt>
      <trkpt lat="45.3105" lon="6.83628">
        <ele>1961</ele>
        <time>2020-09-15T01:15:49Z</time>
      </trkpt>
      <trkpt lat="45.31033" lon="6.83621">
        <ele>1958</ele>
        <time>2020-09-15T01:15:52Z</time>
      </trkpt>
      <trkpt lat="45.31021" lon="6.83621">
        <ele>1959</ele>
        <time>2020-09-15T01:15:54Z</time>
      </trkpt>
      <trkpt lat="45.30996" lon="6.83632">
        <ele>1963</ele>
        <time>2020-09-15T01:15:59Z</time>
      </trkpt>
      <trkpt lat="45.30911" lon="6.8362">
        <ele>1955</ele>
        <time>2020-09-15T01:16:14Z</time>
      </trkpt>
      <trkpt lat="45.30901" lon="6.83624">
        <ele>1957</ele>
        <time>2020-09-15T01:16:16Z</time>
      </trkpt>
      <trkpt lat="45.3089" lon="6.83625">
        <ele>1957</ele>
        <time>2020-09-15T01:16:18Z</time>
      </trkpt>
      <trkpt lat="45.3088" lon="6.83621">
        <ele>1956</ele>
        <time>2020-09-15T01:16:20Z</time>
      </trkpt>
      <trkpt lat="45.30862" lon="6.83602">
        <ele>1947</ele>
        <time>2020-09-15T01:16:24Z</time>
      </trkpt>
      <trkpt lat="45.30845" lon="6.83593">
        <ele>1943</ele>
        <time>2020-09-15T01:16:27Z</time>
      </trkpt>
      <trkpt lat="45.30825" lon="6.8359">
        <ele>1943</ele>
        <time>2020-09-15T01:16:30Z</time>
      </trkpt>
      <trkpt lat="45.30807" lon="6.83592">
        <ele>1947</ele>
        <time>2020-09-15T01:16:34Z</time>
      </trkpt>
      <trkpt lat="45.30788" lon="6.83589">
        <ele>1949</ele>
        <time>2020-09-15T01:16:37Z</time>
      </trkpt>
      <trkpt lat="45.30773" lon="6.83574">
        <ele>1945</ele>
        <time>2020-09-15T01:16:40Z</time>
      </trkpt>
      <trkpt lat="45.30737" lon="6.83529">
        <ele>1937</ele>
        <time>2020-09-15T01:16:49Z</time>
      </trkpt>
      <trkpt lat="45.30709" lon="6.8348">
        <ele>1933</ele>
        <time>2020-09-15T01:16:57Z</time>
      </trkpt>
      <trkpt lat="45.30665" lon="6.83411">
        <ele>1934</ele>
        <time>2020-09-15T01:17:08Z</time>
      </trkpt>
      <trkpt lat="45.30656" lon="6.83355">
        <ele>1922</ele>
        <time>2020-09-15T01:17:16Z</time>
      </trkpt>
      <trkpt lat="45.30645" lon="6.83332">
        <ele>1921</ele>
        <time>2020-09-15T01:17:19Z</time>
      </trkpt>
      <trkpt lat="45.30634" lon="6.83303">
        <ele>1916</ele>
        <time>2020-09-15T01:17:23Z</time>
      </trkpt>
      <trkpt lat="45.30621" lon="6.83283">
        <ele>1915</ele>
        <time>2020-09-15T01:17:27Z</time>
      </trkpt>
      <trkpt lat="45.30543" lon="6.83222">
        <ele>1920</ele>
        <time>2020-09-15T01:17:42Z</time>
      </trkpt>
      <trkpt lat="45.30527" lon="6.83203">
        <ele>1918</ele>
        <time>2020-09-15T01:17:46Z</time>
      </trkpt>
      <trkpt lat="45.30516" lon="6.83183">
        <ele>1915</ele>
        <time>2020-09-15T01:17:49Z</time>
      </trkpt>
      <trkpt lat="45.30513" lon="6.83168">
        <ele>1910</ele>
        <time>2020-09-15T01:17:51Z</time>
      </trkpt>
      <trkpt lat="45.30514" lon="6.83141">
        <ele>1902</ele>
        <time>2020-09-15T01:17:55Z</time>
      </trkpt>
      <trkpt lat="45.305" lon="6.83093">
        <ele>1894</ele>
        <time>2020-09-15T01:18:01Z</time>
      </trkpt>
      <trkpt lat="45.30487" lon="6.83072">
        <ele>1894</ele>
        <time>2020-09-15T01:18:05Z</time>
      </trkpt>
      <trkpt lat="45.3047" lon="6.83051">
        <ele>1896</ele>
        <time>2020-09-15T01:18:09Z</time>
      </trkpt>
      <trkpt lat="45.30463" lon="6.8303">
        <ele>1894</ele>
        <time>2020-09-15T01:18:12Z</time>
      </trkpt>
      <trkpt lat="45.30461" lon="6.83003">
        <ele>1888</ele>
        <time>2020-09-15T01:18:15Z</time>
      </trkpt>
      <trkpt lat="45.30463" lon="6.82972">
        <ele>1881</ele>
        <time>2020-09-15T01:18:19Z</time>
      </trkpt>
      <trkpt lat="45.30459" lon="6.82956">
        <ele>1879</ele>
        <time>2020-09-15T01:18:21Z</time>
      </trkpt>
      <trkpt lat="45.3042" lon="6.82837">
        <ele>1874</ele>
        <time>2020-09-15T01:18:37Z</time>
      </trkpt>
      <trkpt lat="45.30407" lon="6.82782">
        <ele>1859</ele>
        <time>2020-09-15T01:18:45Z</time>
      </trkpt>
      <trkpt lat="45.30399" lon="6.82766">
        <ele>1854</ele>
        <time>2020-09-15T01:18:47Z</time>
      </trkpt>
      <trkpt lat="45.30387" lon="6.82759">
        <ele>1852</ele>
        <time>2020-09-15T01:18:49Z</time>
      </trkpt>
      <trkpt lat="45.30375" lon="6.82757">
        <ele>1851</ele>
        <time>2020-09-15T01:18:52Z</time>
      </trkpt>
      <trkpt lat="45.30365" lon="6.82762">
        <ele>1852</ele>
        <time>2020-09-15T01:18:53Z</time>
      </trkpt>
      <trkpt lat="45.30354" lon="6.82771">
        <ele>1854</ele>
        <time>2020-09-15T01:18:56Z</time>
      </trkpt>
      <trkpt lat="45.3033" lon="6.82794">
        <ele>1858</ele>
        <time>2020-09-15T01:19:01Z</time>
      </trkpt>
      <trkpt lat="45.30285" lon="6.82847">
        <ele>1853</ele>
        <time>2020-09-15T01:19:11Z</time>
      </trkpt>
      <trkpt lat="45.30261" lon="6.82881">
        <ele>1852</ele>
        <time>2020-09-15T01:19:17Z</time>
      </trkpt>
      <trkpt lat="45.30178" lon="6.82974">
        <ele>1846</ele>
        <time>2020-09-15T01:19:36Z</time>
      </trkpt>
      <trkpt lat="45.30164" lon="6.82985">
        <ele>1845</ele>
        <time>2020-09-15T01:19:39Z</time>
      </trkpt>
      <trkpt lat="45.30135" lon="6.83003">
        <ele>1844</ele>
        <time>2020-09-15T01:19:45Z</time>
      </trkpt>
      <trkpt lat="45.30055" lon="6.83035">
        <ele>1841</ele>
        <time>2020-09-15T01:19:59Z</time>
      </trkpt>
      <trkpt lat="45.30016" lon="6.83039">
        <ele>1840</ele>
        <time>2020-09-15T01:20:06Z</time>
      </trkpt>
      <trkpt lat="45.30006" lon="6.83032">
        <ele>1837</ele>
        <time>2020-09-15T01:20:08Z</time>
      </trkpt>
      <trkpt lat="45.29988" lon="6.83013">
        <ele>1831</ele>
        <time>2020-09-15T01:20:12Z</time>
      </trkpt>
      <trkpt lat="45.29959" lon="6.82987">
        <ele>1825</ele>
        <time>2020-09-15T01:20:18Z</time>
      </trkpt>
      <trkpt lat="45.29927" lon="6.82967">
        <ele>1820</ele>
        <time>2020-09-15T01:20:25Z</time>
      </trkpt>
      <trkpt lat="45.299" lon="6.82944">
        <ele>1813</ele>
        <time>2020-09-15T01:20:30Z</time>
      </trkpt>
      <trkpt lat="45.29868" lon="6.82928">
        <ele>1811</ele>
        <time>2020-09-15T01:20:36Z</time>
      </trkpt>
      <trkpt lat="45.29843" lon="6.82923">
        <ele>1812</ele>
        <time>2020-09-15T01:20:41Z</time>
      </trkpt>
      <trkpt lat="45.29784" lon="6.82899">
        <ele>1803</ele>
        <time>2020-09-15T01:20:52Z</time>
      </trkpt>
      <trkpt lat="45.29771" lon="6.82897">
        <ele>1802</ele>
        <time>2020-09-15T01:20:54Z</time>
      </trkpt>
      <trkpt lat="45.29751" lon="6.82909">
        <ele>1808</ele>
        <time>2020-09-15T01:20:58Z</time>
      </trkpt>
      <trkpt lat="45.29742" lon="6.82908">
        <ele>1806</ele>
        <time>2020-09-15T01:20:59Z</time>
      </trkpt>
      <trkpt lat="45.29738" lon="6.82901">
        <ele>1802</ele>
        <time>2020-09-15T01:21:01Z</time>
      </trkpt>
      <trkpt lat="45.2974" lon="6.82892">
        <ele>1798</ele>
        <time>2020-09-15T01:21:02Z</time>
      </trkpt>
      <trkpt lat="45.29757" lon="6.8288">
        <ele>1794</ele>
        <time>2020-09-15T01:21:05Z</time>
      </trkpt>
      <trkpt lat="45.29774" lon="6.82877">
        <ele>1792</ele>
        <time>2020-09-15T01:21:08Z</time>
      </trkpt>
      <trkpt lat="45.29801" lon="6.82878">
        <ele>1792</ele>
        <time>2020-09-15T01:21:13Z</time>
      </trkpt>
      <trkpt lat="45.29839" lon="6.82872">
        <ele>1787</ele>
        <time>2020-09-15T01:21:20Z</time>
      </trkpt>
      <trkpt lat="45.29859" lon="6.82876">
        <ele>1787</ele>
        <time>2020-09-15T01:21:23Z</time>
      </trkpt>
      <trkpt lat="45.29876" lon="6.82882">
        <ele>1788</ele>
        <time>2020-09-15T01:21:27Z</time>
      </trkpt>
      <trkpt lat="45.29894" lon="6.82884">
        <ele>1786</ele>
        <time>2020-09-15T01:21:30Z</time>
      </trkpt>
      <trkpt lat="45.29949" lon="6.82876">
        <ele>1780</ele>
        <time>2020-09-15T01:21:40Z</time>
      </trkpt>
      <trkpt lat="45.29967" lon="6.82872">
        <ele>1779</ele>
        <time>2020-09-15T01:21:43Z</time>
      </trkpt>
      <trkpt lat="45.30001" lon="6.82872">
        <ele>1779</ele>
        <time>2020-09-15T01:21:49Z</time>
      </trkpt>
      <trkpt lat="45.30027" lon="6.82861">
        <ele>1777</ele>
        <time>2020-09-15T01:21:54Z</time>
      </trkpt>
      <trkpt lat="45.30049" lon="6.82846">
        <ele>1774</ele>
        <time>2020-09-15T01:21:58Z</time>
      </trkpt>
      <trkpt lat="45.30086" lon="6.82769">
        <ele>1761</ele>
        <time>2020-09-15T01:22:10Z</time>
      </trkpt>
      <trkpt lat="45.30104" lon="6.82744">
        <ele>1759</ele>
        <time>2020-09-15T01:22:14Z</time>
      </trkpt>
      <trkpt lat="45.30114" lon="6.82731">
        <ele>1759</ele>
        <time>2020-09-15T01:22:17Z</time>
      </trkpt>
      <trkpt lat="45.30129" lon="6.82713">
        <ele>1758</ele>
        <time>2020-09-15T01:22:20Z</time>
      </trkpt>
      <trkpt lat="45.30141" lon="6.82694">
        <ele>1756</ele>
        <time>2020-09-15T01:22:23Z</time>
      </trkpt>
      <trkpt lat="45.30151" lon="6.82677">
        <ele>1755</ele>
        <time>2020-09-15T01:22:26Z</time>
      </trkpt>
      <trkpt lat="45.30163" lon="6.82641">
        <ele>1751</ele>
        <time>2020-09-15T01:22:31Z</time>
      </trkpt>
      <trkpt lat="45.30162" lon="6.82626">
        <ele>1748</ele>
        <time>2020-09-15T01:22:33Z</time>
      </trkpt>
      <trkpt lat="45.30159" lon="6.82623">
        <ele>1746</ele>
        <time>2020-09-15T01:22:34Z</time>
      </trkpt>
      <trkpt lat="45.30153" lon="6.82626">
        <ele>1745</ele>
        <time>2020-09-15T01:22:35Z</time>
      </trkpt>
      <trkpt lat="45.30144" lon="6.82637">
        <ele>1745</ele>
        <time>2020-09-15T01:22:37Z</time>
      </trkpt>
      <trkpt lat="45.30102" lon="6.82675">
        <ele>1741</ele>
        <time>2020-09-15T01:22:46Z</time>
      </trkpt>
      <trkpt lat="45.30092" lon="6.82675">
        <ele>1739</ele>
        <time>2020-09-15T01:22:47Z</time>
      </trkpt>
      <trkpt lat="45.30077" lon="6.82672">
        <ele>1734</ele>
        <time>2020-09-15T01:22:50Z</time>
      </trkpt>
      <trkpt lat="45.3006" lon="6.82663">
        <ele>1730</ele>
        <time>2020-09-15T01:22:53Z</time>
      </trkpt>
      <trkpt lat="45.30042" lon="6.82663">
        <ele>1727</ele>
        <time>2020-09-15T01:22:57Z</time>
      </trkpt>
      <trkpt lat="45.30027" lon="6.82669">
        <ele>1725</ele>
        <time>2020-09-15T01:22:59Z</time>
      </trkpt>
      <trkpt lat="45.30016" lon="6.82683">
        <ele>1726</ele>
        <time>2020-09-15T01:23:02Z</time>
      </trkpt>
      <trkpt lat="45.29993" lon="6.827">
        <ele>1727</ele>
        <time>2020-09-15T01:23:07Z</time>
      </trkpt>
      <trkpt lat="45.2997" lon="6.82701">
        <ele>1725</ele>
        <time>2020-09-15T01:23:11Z</time>
      </trkpt>
      <trkpt lat="45.29951" lon="6.82693">
        <ele>1721</ele>
        <time>2020-09-15T01:23:14Z</time>
      </trkpt>
      <trkpt lat="45.29941" lon="6.82685">
        <ele>1719</ele>
        <time>2020-09-15T01:23:16Z</time>
      </trkpt>
      <trkpt lat="45.29931" lon="6.82673">
        <ele>1715</ele>
        <time>2020-09-15T01:23:19Z</time>
      </trkpt>
      <trkpt lat="45.29918" lon="6.8267">
        <ele>1713</ele>
        <time>2020-09-15T01:23:21Z</time>
      </trkpt>
      <trkpt lat="45.29877" lon="6.82679">
        <ele>1709</ele>
        <time>2020-09-15T01:23:28Z</time>
      </trkpt>
      <trkpt lat="45.29827" lon="6.82684">
        <ele>1704</ele>
        <time>2020-09-15T01:23:37Z</time>
      </trkpt>
      <trkpt lat="45.29809" lon="6.82686">
        <ele>1704</ele>
        <time>2020-09-15T01:23:40Z</time>
      </trkpt>
      <trkpt lat="45.29778" lon="6.82681">
        <ele>1701</ele>
        <time>2020-09-15T01:23:46Z</time>
      </trkpt>
      <trkpt lat="45.29737" lon="6.82659">
        <ele>1691</ele>
        <time>2020-09-15T01:23:54Z</time>
      </trkpt>
      <trkpt lat="45.29712" lon="6.82654">
        <ele>1688</ele>
        <time>2020-09-15T01:23:58Z</time>
      </trkpt>
      <trkpt lat="45.29631" lon="6.82653">
        <ele>1683</ele>
        <time>2020-09-15T01:24:13Z</time>
      </trkpt>
      <trkpt lat="45.29614" lon="6.82657">
        <ele>1683</ele>
        <time>2020-09-15T01:24:16Z</time>
      </trkpt>
      <trkpt lat="45.29586" lon="6.82673">
        <ele>1686</ele>
        <time>2020-09-15T01:24:21Z</time>
      </trkpt>
      <trkpt lat="45.29581" lon="6.82672">
        <ele>1685</ele>
        <time>2020-09-15T01:24:22Z</time>
      </trkpt>
      <trkpt lat="45.29579" lon="6.82662">
        <ele>1682</ele>
        <time>2020-09-15T01:24:23Z</time>
      </trkpt>
      <trkpt lat="45.29586" lon="6.82653">
        <ele>1680</ele>
        <time>2020-09-15T01:24:25Z</time>
      </trkpt>
      <trkpt lat="45.29613" lon="6.8264">
        <ele>1679</ele>
        <time>2020-09-15T01:24:30Z</time>
      </trkpt>
      <trkpt lat="45.29715" lon="6.82601">
        <ele>1675</ele>
        <time>2020-09-15T01:24:49Z</time>
      </trkpt>
      <trkpt lat="45.29736" lon="6.82595">
        <ele>1674</ele>
        <time>2020-09-15T01:24:53Z</time>
      </trkpt>
      <trkpt lat="45.29827" lon="6.82583">
        <ele>1676</ele>
        <time>2020-09-15T01:25:09Z</time>
      </trkpt>
      <trkpt lat="45.2985" lon="6.82576">
        <ele>1679</ele>
        <time>2020-09-15T01:25:13Z</time>
      </trkpt>
      <trkpt lat="45.29866" lon="6.82562">
        <ele>1680</ele>
        <time>2020-09-15T01:25:16Z</time>
      </trkpt>
      <trkpt lat="45.29875" lon="6.82544">
        <ele>1679</ele>
        <time>2020-09-15T01:25:19Z</time>
      </trkpt>
      <trkpt lat="45.29883" lon="6.82455">
        <ele>1663</ele>
        <time>2020-09-15T01:25:30Z</time>
      </trkpt>
      <trkpt lat="45.29891" lon="6.82423">
        <ele>1658</ele>
        <time>2020-09-15T01:25:35Z</time>
      </trkpt>
      <trkpt lat="45.29905" lon="6.82396">
        <ele>1653</ele>
        <time>2020-09-15T01:25:39Z</time>
      </trkpt>
      <trkpt lat="45.29922" lon="6.8238">
        <ele>1650</ele>
        <time>2020-09-15T01:25:43Z</time>
      </trkpt>
      <trkpt lat="45.29936" lon="6.82377">
        <ele>1650</ele>
        <time>2020-09-15T01:25:45Z</time>
      </trkpt>
      <trkpt lat="45.29955" lon="6.8238">
        <ele>1652</ele>
        <time>2020-09-15T01:25:48Z</time>
      </trkpt>
      <trkpt lat="45.29994" lon="6.82373">
        <ele>1653</ele>
        <time>2020-09-15T01:25:55Z</time>
      </trkpt>
      <trkpt lat="45.30005" lon="6.82369">
        <ele>1652</ele>
        <time>2020-09-15T01:25:57Z</time>
      </trkpt>
      <trkpt lat="45.30034" lon="6.82336">
        <ele>1638</ele>
        <time>2020-09-15T01:26:04Z</time>
      </trkpt>
      <trkpt lat="45.30045" lon="6.82331">
        <ele>1637</ele>
        <time>2020-09-15T01:26:06Z</time>
      </trkpt>
      <trkpt lat="45.30086" lon="6.82328">
        <ele>1638</ele>
        <time>2020-09-15T01:26:13Z</time>
      </trkpt>
      <trkpt lat="45.30128" lon="6.82309">
        <ele>1636</ele>
        <time>2020-09-15T01:26:21Z</time>
      </trkpt>
      <trkpt lat="45.30146" lon="6.82292">
        <ele>1632</ele>
        <time>2020-09-15T01:26:25Z</time>
      </trkpt>
      <trkpt lat="45.30168" lon="6.82262">
        <ele>1622</ele>
        <time>2020-09-15T01:26:31Z</time>
      </trkpt>
      <trkpt lat="45.30187" lon="6.82245">
        <ele>1619</ele>
        <time>2020-09-15T01:26:35Z</time>
      </trkpt>
      <trkpt lat="45.30248" lon="6.82206">
        <ele>1615</ele>
        <time>2020-09-15T01:26:46Z</time>
      </trkpt>
      <trkpt lat="45.30286" lon="6.82196">
        <ele>1617</ele>
        <time>2020-09-15T01:26:53Z</time>
      </trkpt>
      <trkpt lat="45.30297" lon="6.82189">
        <ele>1616</ele>
        <time>2020-09-15T01:26:55Z</time>
      </trkpt>
      <trkpt lat="45.30309" lon="6.8216">
        <ele>1608</ele>
        <time>2020-09-15T01:27:00Z</time>
      </trkpt>
      <trkpt lat="45.30324" lon="6.82134">
        <ele>1602</ele>
        <time>2020-09-15T01:27:04Z</time>
      </trkpt>
      <trkpt lat="45.30345" lon="6.82113">
        <ele>1596</ele>
        <time>2020-09-15T01:27:08Z</time>
      </trkpt>
      <trkpt lat="45.30352" lon="6.82102">
        <ele>1593</ele>
        <time>2020-09-15T01:27:10Z</time>
      </trkpt>
      <trkpt lat="45.3035" lon="6.82094">
        <ele>1590</ele>
        <time>2020-09-15T01:27:11Z</time>
      </trkpt>
      <trkpt lat="45.30344" lon="6.8209">
        <ele>1589</ele>
        <time>2020-09-15T01:27:13Z</time>
      </trkpt>
      <trkpt lat="45.30338" lon="6.82092">
        <ele>1590</ele>
        <time>2020-09-15T01:27:14Z</time>
      </trkpt>
      <trkpt lat="45.30329" lon="6.82104">
        <ele>1593</ele>
        <time>2020-09-15T01:27:16Z</time>
      </trkpt>
      <trkpt lat="45.30312" lon="6.8212">
        <ele>1594</ele>
        <time>2020-09-15T01:27:19Z</time>
      </trkpt>
      <trkpt lat="45.30289" lon="6.82147">
        <ele>1598</ele>
        <time>2020-09-15T01:27:25Z</time>
      </trkpt>
      <trkpt lat="45.3025" lon="6.82149">
        <ele>1589</ele>
        <time>2020-09-15T01:27:32Z</time>
      </trkpt>
      <trkpt lat="45.30235" lon="6.82151">
        <ele>1587</ele>
        <time>2020-09-15T01:27:34Z</time>
      </trkpt>
      <trkpt lat="45.30173" lon="6.82171">
        <ele>1585</ele>
        <time>2020-09-15T01:27:46Z</time>
      </trkpt>
      <trkpt lat="45.30158" lon="6.82172">
        <ele>1584</ele>
        <time>2020-09-15T01:27:48Z</time>
      </trkpt>
      <trkpt lat="45.30114" lon="6.82162">
        <ele>1576</ele>
        <time>2020-09-15T01:27:56Z</time>
      </trkpt>
      <trkpt lat="45.30056" lon="6.82142">
        <ele>1562</ele>
        <time>2020-09-15T01:28:07Z</time>
      </trkpt>
      <trkpt lat="45.30034" lon="6.82141">
        <ele>1559</ele>
        <time>2020-09-15T01:28:11Z</time>
      </trkpt>
      <trkpt lat="45.30017" lon="6.82147">
        <ele>1561</ele>
        <time>2020-09-15T01:28:14Z</time>
      </trkpt>
      <trkpt lat="45.30001" lon="6.82158">
        <ele>1566</ele>
        <time>2020-09-15T01:28:17Z</time>
      </trkpt>
      <trkpt lat="45.29988" lon="6.82175">
        <ele>1572</ele>
        <time>2020-09-15T01:28:20Z</time>
      </trkpt>
      <trkpt lat="45.29977" lon="6.82182">
        <ele>1575</ele>
        <time>2020-09-15T01:28:22Z</time>
      </trkpt>
      <trkpt lat="45.2997" lon="6.82182">
        <ele>1574</ele>
        <time>2020-09-15T01:28:24Z</time>
      </trkpt>
      <trkpt lat="45.29961" lon="6.82174">
        <ele>1570</ele>
        <time>2020-09-15T01:28:26Z</time>
      </trkpt>
      <trkpt lat="45.29946" lon="6.82154">
        <ele>1561</ele>
        <time>2020-09-15T01:28:29Z</time>
      </trkpt>
      <trkpt lat="45.29933" lon="6.82147">
        <ele>1558</ele>
        <time>2020-09-15T01:28:32Z</time>
      </trkpt>
      <trkpt lat="45.2992" lon="6.82143">
        <ele>1555</ele>
        <time>2020-09-15T01:28:34Z</time>
      </trkpt>
      <trkpt lat="45.29856" lon="6.82144">
        <ele>1558</ele>
        <time>2020-09-15T01:28:45Z</time>
      </trkpt>
      <trkpt lat="45.29846" lon="6.82141">
        <ele>1557</ele>
        <time>2020-09-15T01:28:47Z</time>
      </trkpt>
      <trkpt lat="45.2982" lon="6.82123">
        <ele>1550</ele>
        <time>2020-09-15T01:28:52Z</time>
      </trkpt>
      <trkpt lat="45.29804" lon="6.82118">
        <ele>1547</ele>
        <time>2020-09-15T01:28:55Z</time>
      </trkpt>
      <trkpt lat="45.2979" lon="6.8212">
        <ele>1548</ele>
        <time>2020-09-15T01:28:58Z</time>
      </trkpt>
      <trkpt lat="45.29769" lon="6.82127">
        <ele>1550</ele>
        <time>2020-09-15T01:29:02Z</time>
      </trkpt>
      <trkpt lat="45.29756" lon="6.82126">
        <ele>1549</ele>
        <time>2020-09-15T01:29:04Z</time>
      </trkpt>
      <trkpt lat="45.29745" lon="6.82119">
        <ele>1547</ele>
        <time>2020-09-15T01:29:06Z</time>
      </trkpt>
      <trkpt lat="45.29722" lon="6.82096">
        <ele>1544</ele>
        <time>2020-09-15T01:29:11Z</time>
      </trkpt>
      <trkpt lat="45.29694" lon="6.82069">
        <ele>1542</ele>
        <time>2020-09-15T01:29:17Z</time>
      </trkpt>
      <trkpt lat="45.29621" lon="6.81991">
        <ele>1537</ele>
        <time>2020-09-15T01:29:33Z</time>
      </trkpt>
      <trkpt lat="45.29605" lon="6.81966">
        <ele>1531</ele>
        <time>2020-09-15T01:29:38Z</time>
      </trkpt>
      <trkpt lat="45.29597" lon="6.81961">
        <ele>1530</ele>
        <time>2020-09-15T01:29:39Z</time>
      </trkpt>
      <trkpt lat="45.29573" lon="6.81953">
        <ele>1529</ele>
        <time>2020-09-15T01:29:44Z</time>
      </trkpt>
      <trkpt lat="45.29563" lon="6.81944">
        <ele>1525</ele>
        <time>2020-09-15T01:29:46Z</time>
      </trkpt>
      <trkpt lat="45.29548" lon="6.81936">
        <ele>1520</ele>
        <time>2020-09-15T01:29:49Z</time>
      </trkpt>
      <trkpt lat="45.29525" lon="6.81935">
        <ele>1517</ele>
        <time>2020-09-15T01:29:53Z</time>
      </trkpt>
      <trkpt lat="45.29499" lon="6.81944">
        <ele>1518</ele>
        <time>2020-09-15T01:29:57Z</time>
      </trkpt>
      <trkpt lat="45.29445" lon="6.81979">
        <ele>1515</ele>
        <time>2020-09-15T01:30:08Z</time>
      </trkpt>
      <trkpt lat="45.29435" lon="6.81983">
        <ele>1513</ele>
        <time>2020-09-15T01:30:10Z</time>
      </trkpt>
      <trkpt lat="45.294" lon="6.81986">
        <ele>1504</ele>
        <time>2020-09-15T01:30:16Z</time>
      </trkpt>
      <trkpt lat="45.29358" lon="6.82002">
        <ele>1497</ele>
        <time>2020-09-15T01:30:24Z</time>
      </trkpt>
      <trkpt lat="45.29335" lon="6.82018">
        <ele>1494</ele>
        <time>2020-09-15T01:30:28Z</time>
      </trkpt>
      <trkpt lat="45.29324" lon="6.82032">
        <ele>1494</ele>
        <time>2020-09-15T01:30:31Z</time>
      </trkpt>
      <trkpt lat="45.29308" lon="6.82064">
        <ele>1498</ele>
        <time>2020-09-15T01:30:36Z</time>
      </trkpt>
      <trkpt lat="45.29296" lon="6.82095">
        <ele>1503</ele>
        <time>2020-09-15T01:30:40Z</time>
      </trkpt>
      <trkpt lat="45.29286" lon="6.82103">
        <ele>1502</ele>
        <time>2020-09-15T01:30:42Z</time>
      </trkpt>
      <trkpt lat="45.29269" lon="6.82111">
        <ele>1499</ele>
        <time>2020-09-15T01:30:46Z</time>
      </trkpt>
      <trkpt lat="45.29252" lon="6.82112">
        <ele>1495</ele>
        <time>2020-09-15T01:30:49Z</time>
      </trkpt>
      <trkpt lat="45.29241" lon="6.8211">
        <ele>1494</ele>
        <time>2020-09-15T01:30:51Z</time>
      </trkpt>
      <trkpt lat="45.29229" lon="6.82098">
        <ele>1493</ele>
        <time>2020-09-15T01:30:53Z</time>
      </trkpt>
      <trkpt lat="45.29219" lon="6.82085">
        <ele>1490</ele>
        <time>2020-09-15T01:30:56Z</time>
      </trkpt>
      <trkpt lat="45.29199" lon="6.82036">
        <ele>1476</ele>
        <time>2020-09-15T01:31:03Z</time>
      </trkpt>
      <trkpt lat="45.29183" lon="6.82012">
        <ele>1470</ele>
        <time>2020-09-15T01:31:07Z</time>
      </trkpt>
      <trkpt lat="45.2917" lon="6.82005">
        <ele>1468</ele>
        <time>2020-09-15T01:31:09Z</time>
      </trkpt>
      <trkpt lat="45.29151" lon="6.82004">
        <ele>1468</ele>
        <time>2020-09-15T01:31:13Z</time>
      </trkpt>
      <trkpt lat="45.2914" lon="6.82001">
        <ele>1466</ele>
        <time>2020-09-15T01:31:15Z</time>
      </trkpt>
      <trkpt lat="45.29023" lon="6.81954">
        <ele>1451</ele>
        <time>2020-09-15T01:31:36Z</time>
      </trkpt>
      <trkpt lat="45.29007" lon="6.81943">
        <ele>1448</ele>
        <time>2020-09-15T01:31:39Z</time>
      </trkpt>
      <trkpt lat="45.28973" lon="6.81909">
        <ele>1442</ele>
        <time>2020-09-15T01:31:47Z</time>
      </trkpt>
      <trkpt lat="45.28961" lon="6.81901">
        <ele>1440</ele>
        <time>2020-09-15T01:31:49Z</time>
      </trkpt>
      <trkpt lat="45.28947" lon="6.81897">
        <ele>1440</ele>
        <time>2020-09-15T01:31:52Z</time>
      </trkpt>
      <trkpt lat="45.28938" lon="6.81891">
        <ele>1439</ele>
        <time>2020-09-15T01:31:53Z</time>
      </trkpt>
      <trkpt lat="45.2888" lon="6.81836">
        <ele>1428</ele>
        <time>2020-09-15T01:32:06Z</time>
      </trkpt>
      <trkpt lat="45.28866" lon="6.81827">
        <ele>1426</ele>
        <time>2020-09-15T01:32:09Z</time>
      </trkpt>
      <trkpt lat="45.28849" lon="6.81823">
        <ele>1426</ele>
        <time>2020-09-15T01:32:12Z</time>
      </trkpt>
      <trkpt lat="45.28802" lon="6.81822">
        <ele>1426</ele>
        <time>2020-09-15T01:32:20Z</time>
      </trkpt>
      <trkpt lat="45.28792" lon="6.81817">
        <ele>1425</ele>
        <time>2020-09-15T01:32:22Z</time>
      </trkpt>
      <trkpt lat="45.28779" lon="6.81809">
        <ele>1423</ele>
        <time>2020-09-15T01:32:24Z</time>
      </trkpt>
      <trkpt lat="45.28707" lon="6.8173">
        <ele>1407</ele>
        <time>2020-09-15T01:32:41Z</time>
      </trkpt>
      <trkpt lat="45.28664" lon="6.81701">
        <ele>1401</ele>
        <time>2020-09-15T01:32:49Z</time>
      </trkpt>
      <trkpt lat="45.28641" lon="6.81672">
        <ele>1395</ele>
        <time>2020-09-15T01:32:55Z</time>
      </trkpt>
      <trkpt lat="45.28633" lon="6.81667">
        <ele>1394</ele>
        <time>2020-09-15T01:32:56Z</time>
      </trkpt>
      <trkpt lat="45.28622" lon="6.81666">
        <ele>1395</ele>
        <time>2020-09-15T01:32:58Z</time>
      </trkpt>
      <trkpt lat="45.28593" lon="6.81673">
        <ele>1398</ele>
        <time>2020-09-15T01:33:03Z</time>
      </trkpt>
      <trkpt lat="45.28572" lon="6.81673">
        <ele>1401</ele>
        <time>2020-09-15T01:33:07Z</time>
      </trkpt>
      <trkpt lat="45.28561" lon="6.81669">
        <ele>1402</ele>
        <time>2020-09-15T01:33:09Z</time>
      </trkpt>
      <trkpt lat="45.28558" lon="6.81657">
        <ele>1399</ele>
        <time>2020-09-15T01:33:11Z</time>
      </trkpt>
      <trkpt lat="45.2856" lon="6.81649">
        <ele>1396</ele>
        <time>2020-09-15T01:33:12Z</time>
      </trkpt>
      <trkpt lat="45.28569" lon="6.81645">
        <ele>1393</ele>
        <time>2020-09-15T01:33:13Z</time>
      </trkpt>
      <trkpt lat="45.28584" lon="6.81641">
        <ele>1390</ele>
        <time>2020-09-15T01:33:16Z</time>
      </trkpt>
      <trkpt lat="45.28604" lon="6.81627">
        <ele>1385</ele>
        <time>2020-09-15T01:33:20Z</time>
      </trkpt>
      <trkpt lat="45.28614" lon="6.81616">
        <ele>1382</ele>
        <time>2020-09-15T01:33:22Z</time>
      </trkpt>
      <trkpt lat="45.28618" lon="6.81602">
        <ele>1379</ele>
        <time>2020-09-15T01:33:24Z</time>
      </trkpt>
      <trkpt lat="45.28617" lon="6.81592">
        <ele>1376</ele>
        <time>2020-09-15T01:33:25Z</time>
      </trkpt>
      <trkpt lat="45.2861" lon="6.81588">
        <ele>1375</ele>
        <time>2020-09-15T01:33:27Z</time>
      </trkpt>
      <trkpt lat="45.28602" lon="6.81591">
        <ele>1376</ele>
        <time>2020-09-15T01:33:28Z</time>
      </trkpt>
      <trkpt lat="45.28591" lon="6.81599">
        <ele>1378</ele>
        <time>2020-09-15T01:33:31Z</time>
      </trkpt>
      <trkpt lat="45.28581" lon="6.81603">
        <ele>1379</ele>
        <time>2020-09-15T01:33:32Z</time>
      </trkpt>
      <trkpt lat="45.28572" lon="6.81603">
        <ele>1380</ele>
        <time>2020-09-15T01:33:34Z</time>
      </trkpt>
      <trkpt lat="45.28543" lon="6.81592">
        <ele>1379</ele>
        <time>2020-09-15T01:33:39Z</time>
      </trkpt>
      <trkpt lat="45.28532" lon="6.81585">
        <ele>1378</ele>
        <time>2020-09-15T01:33:41Z</time>
      </trkpt>
      <trkpt lat="45.28505" lon="6.81561">
        <ele>1372</ele>
        <time>2020-09-15T01:33:47Z</time>
      </trkpt>
      <trkpt lat="45.28491" lon="6.81553">
        <ele>1370</ele>
        <time>2020-09-15T01:33:50Z</time>
      </trkpt>
      <trkpt lat="45.28465" lon="6.81549">
        <ele>1368</ele>
        <time>2020-09-15T01:33:54Z</time>
      </trkpt>
      <trkpt lat="45.28416" lon="6.81542">
        <ele>1364</ele>
        <time>2020-09-15T01:34:03Z</time>
      </trkpt>
      <trkpt lat="45.28374" lon="6.81548">
        <ele>1363</ele>
        <time>2020-09-15T01:34:11Z</time>
      </trkpt>
      <trkpt lat="45.28329" lon="6.81545">
        <ele>1358</ele>
        <time>2020-09-15T01:34:19Z</time>
      </trkpt>
      <trkpt lat="45.28296" lon="6.81554">
        <ele>1354</ele>
        <time>2020-09-15T01:34:25Z</time>
      </trkpt>
      <trkpt lat="45.2828" lon="6.81566">
        <ele>1355</ele>
        <time>2020-09-15T01:34:28Z</time>
      </trkpt>
      <trkpt lat="45.28246" lon="6.81569">
        <ele>1347</ele>
        <time>2020-09-15T01:34:34Z</time>
      </trkpt>
      <trkpt lat="45.28195" lon="6.81594">
        <ele>1346</ele>
        <time>2020-09-15T01:34:44Z</time>
      </trkpt>
      <trkpt lat="45.28129" lon="6.81611">
        <ele>1340</ele>
        <time>2020-09-15T01:34:56Z</time>
      </trkpt>
      <trkpt lat="45.28127" lon="6.81607">
        <ele>1337</ele>
        <time>2020-09-15T01:34:56Z</time>
      </trkpt>
      <trkpt lat="45.28121" lon="6.81605">
        <ele>1335</ele>
        <time>2020-09-15T01:34:57Z</time>
      </trkpt>
      <trkpt lat="45.28006" lon="6.81642">
        <ele>1328</ele>
        <time>2020-09-15T01:35:18Z</time>
      </trkpt>
      <trkpt lat="45.27827" lon="6.81691">
        <ele>1310</ele>
        <time>2020-09-15T01:35:51Z</time>
      </trkpt>
      <trkpt lat="45.27811" lon="6.81685">
        <ele>1307</ele>
        <time>2020-09-15T01:35:54Z</time>
      </trkpt>
      <trkpt lat="45.2779" lon="6.81685">
        <ele>1305</ele>
        <time>2020-09-15T01:35:57Z</time>
      </trkpt>
      <trkpt lat="45.27758" lon="6.81692">
        <ele>1302</ele>
        <time>2020-09-15T01:36:03Z</time>
      </trkpt>
      <trkpt lat="45.27744" lon="6.81645">
        <ele>1298</ele>
        <time>2020-09-15T01:36:09Z</time>
      </trkpt>
      <trkpt lat="45.27736" lon="6.81605">
        <ele>1296</ele>
        <time>2020-09-15T01:36:15Z</time>
      </trkpt>
      <trkpt lat="45.27749" lon="6.81599">
        <ele>1296</ele>
        <time>2020-09-15T01:36:17Z</time>
      </trkpt>
      <trkpt lat="45.27768" lon="6.81543">
        <ele>1293</ele>
        <time>2020-09-15T01:36:25Z</time>
      </trkpt>
      <trkpt lat="45.27766" lon="6.81517">
        <ele>1292</ele>
        <time>2020-09-15T01:36:28Z</time>
      </trkpt>
      <trkpt lat="45.27746" lon="6.8151">
        <ele>1292</ele>
        <time>2020-09-15T01:36:32Z</time>
      </trkpt>
      <trkpt lat="45.27705" lon="6.81487">
        <ele>1292</ele>
        <time>2020-09-15T01:36:40Z</time>
      </trkpt>
      <trkpt lat="45.27706" lon="6.81481">
        <ele>1292</ele>
        <time>2020-09-15T01:36:40Z</time>
      </trkpt>
      <trkpt lat="45.27708" lon="6.81459">
        <ele>1294</ele>
        <time>2020-09-15T01:36:43Z</time>
      </trkpt>
      <trkpt lat="45.27707" lon="6.81453">
        <ele>1294</ele>
        <time>2020-09-15T01:36:44Z</time>
      </trkpt>
      <trkpt lat="45.27704" lon="6.81444">
        <ele>1294</ele>
        <time>2020-09-15T01:36:45Z</time>
      </trkpt>
      <trkpt lat="45.27699" lon="6.81436">
        <ele>1294</ele>
        <time>2020-09-15T01:36:47Z</time>
      </trkpt>
      <trkpt lat="45.2769" lon="6.81427">
        <ele>1294</ele>
        <time>2020-09-15T01:36:49Z</time>
      </trkpt>
      <trkpt lat="45.27678" lon="6.81418">
        <ele>1294</ele>
        <time>2020-09-15T01:36:51Z</time>
      </trkpt>
      <trkpt lat="45.27669" lon="6.81413">
        <ele>1294</ele>
        <time>2020-09-15T01:36:53Z</time>
      </trkpt>
      <trkpt lat="45.27662" lon="6.81408">
        <ele>1294</ele>
        <time>2020-09-15T01:36:54Z</time>
      </trkpt>
      <trkpt lat="45.27614" lon="6.81381">
        <ele>1293</ele>
        <time>2020-09-15T01:37:03Z</time>
      </trkpt>
      <trkpt lat="45.27576" lon="6.81358">
        <ele>1291</ele>
        <time>2020-09-15T01:37:11Z</time>
      </trkpt>
      <trkpt lat="45.27545" lon="6.8134">
        <ele>1290</ele>
        <time>2020-09-15T01:37:17Z</time>
      </trkpt>
      <trkpt lat="45.27514" lon="6.81322">
        <ele>1289</ele>
        <time>2020-09-15T01:37:23Z</time>
      </trkpt>
      <trkpt lat="45.27479" lon="6.81302">
        <ele>1288</ele>
        <time>2020-09-15T01:37:29Z</time>
      </trkpt>
      <trkpt lat="45.27453" lon="6.81291">
        <ele>1287</ele>
        <time>2020-09-15T01:37:34Z</time>
      </trkpt>
      <trkpt lat="45.27423" lon="6.81289">
        <ele>1286</ele>
        <time>2020-09-15T01:37:39Z</time>
      </trkpt>
      <trkpt lat="45.27406" lon="6.81291">
        <ele>1287</ele>
        <time>2020-09-15T01:37:42Z</time>
      </trkpt>
      <trkpt lat="45.2738" lon="6.81302">
        <ele>1289</ele>
        <time>2020-09-15T01:37:47Z</time>
      </trkpt>
      <trkpt lat="45.2736" lon="6.81316">
        <ele>1289</ele>
        <time>2020-09-15T01:37:51Z</time>
      </trkpt>
      <trkpt lat="45.27349" lon="6.81327">
        <ele>1289</ele>
        <time>2020-09-15T01:37:54Z</time>
      </trkpt>
      <trkpt lat="45.2733" lon="6.81354">
        <ele>1288</ele>
        <time>2020-09-15T01:37:58Z</time>
      </trkpt>
      <trkpt lat="45.27299" lon="6.81402">
        <ele>1285</ele>
        <time>2020-09-15T01:38:07Z</time>
      </trkpt>
      <trkpt lat="45.27287" lon="6.81418">
        <ele>1285</ele>
        <time>2020-09-15T01:38:10Z</time>
      </trkpt>
      <trkpt lat="45.27278" lon="6.81427">
        <ele>1285</ele>
        <time>2020-09-15T01:38:11Z</time>
      </trkpt>
      <trkpt lat="45.27261" lon="6.81438">
        <ele>1285</ele>
        <time>2020-09-15T01:38:15Z</time>
      </trkpt>
      <trkpt lat="45.2725" lon="6.81441">
        <ele>1285</ele>
        <time>2020-09-15T01:38:17Z</time>
      </trkpt>
      <trkpt lat="45.27234" lon="6.81442">
        <ele>1284</ele>
        <time>2020-09-15T01:38:20Z</time>
      </trkpt>
      <trkpt lat="45.27212" lon="6.81436">
        <ele>1283</ele>
        <time>2020-09-15T01:38:24Z</time>
      </trkpt>
      <trkpt lat="45.27116" lon="6.81379">
        <ele>1280</ele>
        <time>2020-09-15T01:38:42Z</time>
      </trkpt>
      <trkpt lat="45.27088" lon="6.81369">
        <ele>1281</ele>
        <time>2020-09-15T01:38:47Z</time>
      </trkpt>
      <trkpt lat="45.27066" lon="6.81369">
        <ele>1281</ele>
        <time>2020-09-15T01:38:51Z</time>
      </trkpt>
      <trkpt lat="45.27033" lon="6.81377">
        <ele>1281</ele>
        <time>2020-09-15T01:38:57Z</time>
      </trkpt>
      <trkpt lat="45.26994" lon="6.814">
        <ele>1281</ele>
        <time>2020-09-15T01:39:05Z</time>
      </trkpt>
      <trkpt lat="45.26912" lon="6.81456">
        <ele>1280</ele>
        <time>2020-09-15T01:39:21Z</time>
      </trkpt>
      <trkpt lat="45.26886" lon="6.81469">
        <ele>1279</ele>
        <time>2020-09-15T01:39:26Z</time>
      </trkpt>
      <trkpt lat="45.26866" lon="6.81473">
        <ele>1280</ele>
        <time>2020-09-15T01:39:29Z</time>
      </trkpt>
      <trkpt lat="45.26841" lon="6.81471">
        <ele>1280</ele>
        <time>2020-09-15T01:39:34Z</time>
      </trkpt>
      <trkpt lat="45.26809" lon="6.81458">
        <ele>1279</ele>
        <time>2020-09-15T01:39:40Z</time>
      </trkpt>
      <trkpt lat="45.26666" lon="6.81351">
        <ele>1275</ele>
        <time>2020-09-15T01:40:08Z</time>
      </trkpt>
      <trkpt lat="45.26629" lon="6.81324">
        <ele>1275</ele>
        <time>2020-09-15T01:40:16Z</time>
      </trkpt>
      <trkpt lat="45.26584" lon="6.81289">
        <ele>1275</ele>
        <time>2020-09-15T01:40:25Z</time>
      </trkpt>
      <trkpt lat="45.26358" lon="6.81117">
        <ele>1274</ele>
        <time>2020-09-15T01:41:11Z</time>
      </trkpt>
      <trkpt lat="45.2634" lon="6.81098">
        <ele>1273</ele>
        <time>2020-09-15T01:41:15Z</time>
      </trkpt>
      <trkpt lat="45.26324" lon="6.81074">
        <ele>1273</ele>
        <time>2020-09-15T01:41:19Z</time>
      </trkpt>
      <trkpt lat="45.26314" lon="6.81055">
        <ele>1274</ele>
        <time>2020-09-15T01:41:22Z</time>
      </trkpt>
      <trkpt lat="45.26323" lon="6.81045">
        <ele>1275</ele>
        <time>2020-09-15T01:41:24Z</time>
      </trkpt>
      <trkpt lat="45.26328" lon="6.81033">
        <ele>1275</ele>
        <time>2020-09-15T01:41:25Z</time>
      </trkpt>
      <trkpt lat="45.2633" lon="6.8102">
        <ele>1276</ele>
        <time>2020-09-15T01:41:27Z</time>
      </trkpt>
      <trkpt lat="45.26326" lon="6.81004">
        <ele>1276</ele>
        <time>2020-09-15T01:41:29Z</time>
      </trkpt>
      <trkpt lat="45.2629" lon="6.80909">
        <ele>1279</ele>
        <time>2020-09-15T01:41:43Z</time>
      </trkpt>
      <trkpt lat="45.26282" lon="6.80883">
        <ele>1279</ele>
        <time>2020-09-15T01:41:46Z</time>
      </trkpt>
      <trkpt lat="45.2628" lon="6.80856">
        <ele>1281</ele>
        <time>2020-09-15T01:41:50Z</time>
      </trkpt>
      <trkpt lat="45.26276" lon="6.80757">
        <ele>1283</ele>
        <time>2020-09-15T01:42:02Z</time>
      </trkpt>
      <trkpt lat="45.26278" lon="6.80752">
        <ele>1284</ele>
        <time>2020-09-15T01:42:03Z</time>
      </trkpt>
      <trkpt lat="45.26282" lon="6.80749">
        <ele>1285</ele>
        <time>2020-09-15T01:42:04Z</time>
      </trkpt>
      <trkpt lat="45.26286" lon="6.80749">
        <ele>1285</ele>
        <time>2020-09-15T01:42:04Z</time>
      </trkpt>
      <trkpt lat="45.26289" lon="6.80751">
        <ele>1286</ele>
        <time>2020-09-15T01:42:05Z</time>
      </trkpt>
      <trkpt lat="45.26297" lon="6.8077">
        <ele>1287</ele>
        <time>2020-09-15T01:42:08Z</time>
      </trkpt>
      <trkpt lat="45.26302" lon="6.80778">
        <ele>1288</ele>
        <time>2020-09-15T01:42:09Z</time>
      </trkpt>
      <trkpt lat="45.26306" lon="6.80781">
        <ele>1289</ele>
        <time>2020-09-15T01:42:10Z</time>
      </trkpt>
      <trkpt lat="45.2633" lon="6.80786">
        <ele>1293</ele>
        <time>2020-09-15T01:42:14Z</time>
      </trkpt>
      <trkpt lat="45.26347" lon="6.80782">
        <ele>1295</ele>
        <time>2020-09-15T01:42:17Z</time>
      </trkpt>
      <trkpt lat="45.2638" lon="6.80763">
        <ele>1299</ele>
        <time>2020-09-15T01:42:24Z</time>
      </trkpt>
      <trkpt lat="45.26431" lon="6.80743">
        <ele>1304</ele>
        <time>2020-09-15T01:42:33Z</time>
      </trkpt>
      <trkpt lat="45.26443" lon="6.80731">
        <ele>1306</ele>
        <time>2020-09-15T01:42:36Z</time>
      </trkpt>
      <trkpt lat="45.26455" lon="6.80704">
        <ele>1308</ele>
        <time>2020-09-15T01:42:40Z</time>
      </trkpt>
      <trkpt lat="45.26459" lon="6.80669">
        <ele>1310</ele>
        <time>2020-09-15T01:42:44Z</time>
      </trkpt>
      <trkpt lat="45.2645" lon="6.80635">
        <ele>1311</ele>
        <time>2020-09-15T01:42:49Z</time>
      </trkpt>
      <trkpt lat="45.26415" lon="6.80555">
        <ele>1312</ele>
        <time>2020-09-15T01:43:00Z</time>
      </trkpt>
      <trkpt lat="45.26387" lon="6.80499">
        <ele>1310</ele>
        <time>2020-09-15T01:43:09Z</time>
      </trkpt>
      <trkpt lat="45.26379" lon="6.80469">
        <ele>1310</ele>
        <time>2020-09-15T01:43:13Z</time>
      </trkpt>
      <trkpt lat="45.26371" lon="6.80383">
        <ele>1314</ele>
        <time>2020-09-15T01:43:24Z</time>
      </trkpt>
      <trkpt lat="45.26356" lon="6.80249">
        <ele>1324</ele>
        <time>2020-09-15T01:43:41Z</time>
      </trkpt>
      <trkpt lat="45.26356" lon="6.80218">
        <ele>1326</ele>
        <time>2020-09-15T01:43:45Z</time>
      </trkpt>
      <trkpt lat="45.26357" lon="6.80198">
        <ele>1327</ele>
        <time>2020-09-15T01:43:47Z</time>
      </trkpt>
      <trkpt lat="45.26364" lon="6.80149">
        <ele>1333</ele>
        <time>2020-09-15T01:43:54Z</time>
      </trkpt>
      <trkpt lat="45.26364" lon="6.80112">
        <ele>1338</ele>
        <time>2020-09-15T01:43:58Z</time>
      </trkpt>
      <trkpt lat="45.26361" lon="6.80094">
        <ele>1340</ele>
        <time>2020-09-15T01:44:01Z</time>
      </trkpt>
      <trkpt lat="45.26354" lon="6.8006">
        <ele>1345</ele>
        <time>2020-09-15T01:44:05Z</time>
      </trkpt>
      <trkpt lat="45.2634" lon="6.80022">
        <ele>1350</ele>
        <time>2020-09-15T01:44:10Z</time>
      </trkpt>
      <trkpt lat="45.26323" lon="6.79994">
        <ele>1353</ele>
        <time>2020-09-15T01:44:15Z</time>
      </trkpt>
      <trkpt lat="45.26301" lon="6.79964">
        <ele>1358</ele>
        <time>2020-09-15T01:44:20Z</time>
      </trkpt>
      <trkpt lat="45.26289" lon="6.79954">
        <ele>1359</ele>
        <time>2020-09-15T01:44:23Z</time>
      </trkpt>
      <trkpt lat="45.2625" lon="6.79908">
        <ele>1366</ele>
        <time>2020-09-15T01:44:32Z</time>
      </trkpt>
      <trkpt lat="45.26206" lon="6.7986">
        <ele>1369</ele>
        <time>2020-09-15T01:44:42Z</time>
      </trkpt>
      <trkpt lat="45.2617" lon="6.79809">
        <ele>1372</ele>
        <time>2020-09-15T01:44:51Z</time>
      </trkpt>
      <trkpt lat="45.26132" lon="6.79763">
        <ele>1377</ele>
        <time>2020-09-15T01:45:00Z</time>
      </trkpt>
      <trkpt lat="45.25967" lon="6.79579">
        <ele>1388</ele>
        <time>2020-09-15T01:45:37Z</time>
      </trkpt>
      <trkpt lat="45.25946" lon="6.79553">
        <ele>1388</ele>
        <time>2020-09-15T01:45:42Z</time>
      </trkpt>
      <trkpt lat="45.25932" lon="6.79526">
        <ele>1390</ele>
        <time>2020-09-15T01:45:46Z</time>
      </trkpt>
      <trkpt lat="45.25921" lon="6.79475">
        <ele>1399</ele>
        <time>2020-09-15T01:45:53Z</time>
      </trkpt>
      <trkpt lat="45.25915" lon="6.79462">
        <ele>1401</ele>
        <time>2020-09-15T01:45:55Z</time>
      </trkpt>
      <trkpt lat="45.25908" lon="6.79456">
        <ele>1400</ele>
        <time>2020-09-15T01:45:56Z</time>
      </trkpt>
      <trkpt lat="45.259" lon="6.79453">
        <ele>1399</ele>
        <time>2020-09-15T01:45:58Z</time>
      </trkpt>
      <trkpt lat="45.25872" lon="6.79451">
        <ele>1392</ele>
        <time>2020-09-15T01:46:03Z</time>
      </trkpt>
      <trkpt lat="45.25861" lon="6.79439">
        <ele>1392</ele>
        <time>2020-09-15T01:46:05Z</time>
      </trkpt>
      <trkpt lat="45.25825" lon="6.79343">
        <ele>1402</ele>
        <time>2020-09-15T01:46:19Z</time>
      </trkpt>
      <trkpt lat="45.25824" lon="6.79327">
        <ele>1404</ele>
        <time>2020-09-15T01:46:21Z</time>
      </trkpt>
      <trkpt lat="45.25827" lon="6.79287">
        <ele>1410</ele>
        <time>2020-09-15T01:46:26Z</time>
      </trkpt>
      <trkpt lat="45.25827" lon="6.79277">
        <ele>1411</ele>
        <time>2020-09-15T01:46:27Z</time>
      </trkpt>
      <trkpt lat="45.25821" lon="6.79262">
        <ele>1411</ele>
        <time>2020-09-15T01:46:29Z</time>
      </trkpt>
      <trkpt lat="45.25817" lon="6.79256">
        <ele>1411</ele>
        <time>2020-09-15T01:46:30Z</time>
      </trkpt>
      <trkpt lat="45.25625" lon="6.79124">
        <ele>1403</ele>
        <time>2020-09-15T01:47:08Z</time>
      </trkpt>
      <trkpt lat="45.25564" lon="6.7906">
        <ele>1403</ele>
        <time>2020-09-15T01:47:22Z</time>
      </trkpt>
      <trkpt lat="45.25538" lon="6.79039">
        <ele>1404</ele>
        <time>2020-09-15T01:47:27Z</time>
      </trkpt>
      <trkpt lat="45.25512" lon="6.79014">
        <ele>1404</ele>
        <time>2020-09-15T01:47:33Z</time>
      </trkpt>
      <trkpt lat="45.25492" lon="6.78981">
        <ele>1407</ele>
        <time>2020-09-15T01:47:38Z</time>
      </trkpt>
      <trkpt lat="45.25477" lon="6.78945">
        <ele>1410</ele>
        <time>2020-09-15T01:47:43Z</time>
      </trkpt>
      <trkpt lat="45.25461" lon="6.78884">
        <ele>1413</ele>
        <time>2020-09-15T01:47:51Z</time>
      </trkpt>
      <trkpt lat="45.25444" lon="6.78839">
        <ele>1412</ele>
        <time>2020-09-15T01:47:58Z</time>
      </trkpt>
      <trkpt lat="45.25412" lon="6.78787">
        <ele>1418</ele>
        <time>2020-09-15T01:48:07Z</time>
      </trkpt>
      <trkpt lat="45.25352" lon="6.78707">
        <ele>1424</ele>
        <time>2020-09-15T01:48:21Z</time>
      </trkpt>
      <trkpt lat="45.25302" lon="6.78648">
        <ele>1434</ele>
        <time>2020-09-15T01:48:33Z</time>
      </trkpt>
      <trkpt lat="45.25281" lon="6.78633">
        <ele>1434</ele>
        <time>2020-09-15T01:48:37Z</time>
      </trkpt>
      <trkpt lat="45.25205" lon="6.78597">
        <ele>1430</ele>
        <time>2020-09-15T01:48:51Z</time>
      </trkpt>
      <trkpt lat="45.25164" lon="6.78568">
        <ele>1429</ele>
        <time>2020-09-15T01:48:59Z</time>
      </trkpt>
      <trkpt lat="45.25122" lon="6.78525">
        <ele>1429</ele>
        <time>2020-09-15T01:49:09Z</time>
      </trkpt>
      <trkpt lat="45.25112" lon="6.78512">
        <ele>1430</ele>
        <time>2020-09-15T01:49:11Z</time>
      </trkpt>
      <trkpt lat="45.25103" lon="6.78504">
        <ele>1430</ele>
        <time>2020-09-15T01:49:13Z</time>
      </trkpt>
      <trkpt lat="45.25054" lon="6.78483">
        <ele>1426</ele>
        <time>2020-09-15T01:49:22Z</time>
      </trkpt>
      <trkpt lat="45.25036" lon="6.78465">
        <ele>1427</ele>
        <time>2020-09-15T01:49:26Z</time>
      </trkpt>
      <trkpt lat="45.25023" lon="6.78439">
        <ele>1430</ele>
        <time>2020-09-15T01:49:30Z</time>
      </trkpt>
      <trkpt lat="45.2501" lon="6.78382">
        <ele>1440</ele>
        <time>2020-09-15T01:49:37Z</time>
      </trkpt>
      <trkpt lat="45.25005" lon="6.78374">
        <ele>1440</ele>
        <time>2020-09-15T01:49:39Z</time>
      </trkpt>
      <trkpt lat="45.24995" lon="6.78366">
        <ele>1441</ele>
        <time>2020-09-15T01:49:41Z</time>
      </trkpt>
      <trkpt lat="45.2499" lon="6.78365">
        <ele>1442</ele>
        <time>2020-09-15T01:49:42Z</time>
      </trkpt>
      <trkpt lat="45.2498" lon="6.7837">
        <ele>1443</ele>
        <time>2020-09-15T01:49:44Z</time>
      </trkpt>
      <trkpt lat="45.24975" lon="6.78377">
        <ele>1442</ele>
        <time>2020-09-15T01:49:45Z</time>
      </trkpt>
      <trkpt lat="45.24952" lon="6.78425">
        <ele>1432</ele>
        <time>2020-09-15T01:49:52Z</time>
      </trkpt>
      <trkpt lat="45.24948" lon="6.78429">
        <ele>1431</ele>
        <time>2020-09-15T01:49:53Z</time>
      </trkpt>
      <trkpt lat="45.24939" lon="6.78431">
        <ele>1432</ele>
        <time>2020-09-15T01:49:55Z</time>
      </trkpt>
      <trkpt lat="45.24897" lon="6.78416">
        <ele>1439</ele>
        <time>2020-09-15T01:50:02Z</time>
      </trkpt>
      <trkpt lat="45.24884" lon="6.78408">
        <ele>1441</ele>
        <time>2020-09-15T01:50:05Z</time>
      </trkpt>
      <trkpt lat="45.24837" lon="6.78368">
        <ele>1449</ele>
        <time>2020-09-15T01:50:15Z</time>
      </trkpt>
      <trkpt lat="45.24814" lon="6.78343">
        <ele>1455</ele>
        <time>2020-09-15T01:50:20Z</time>
      </trkpt>
      <trkpt lat="45.24807" lon="6.7833">
        <ele>1458</ele>
        <time>2020-09-15T01:50:22Z</time>
      </trkpt>
      <trkpt lat="45.248" lon="6.78296">
        <ele>1466</ele>
        <time>2020-09-15T01:50:26Z</time>
      </trkpt>
      <trkpt lat="45.24795" lon="6.78288">
        <ele>1468</ele>
        <time>2020-09-15T01:50:28Z</time>
      </trkpt>
      <trkpt lat="45.24787" lon="6.78283">
        <ele>1468</ele>
        <time>2020-09-15T01:50:29Z</time>
      </trkpt>
      <trkpt lat="45.24778" lon="6.78286">
        <ele>1466</ele>
        <time>2020-09-15T01:50:31Z</time>
      </trkpt>
      <trkpt lat="45.2476" lon="6.78317">
        <ele>1458</ele>
        <time>2020-09-15T01:50:36Z</time>
      </trkpt>
      <trkpt lat="45.24744" lon="6.78332">
        <ele>1456</ele>
        <time>2020-09-15T01:50:39Z</time>
      </trkpt>
      <trkpt lat="45.24738" lon="6.78337">
        <ele>1456</ele>
        <time>2020-09-15T01:50:40Z</time>
      </trkpt>
      <trkpt lat="45.24699" lon="6.78349">
        <ele>1460</ele>
        <time>2020-09-15T01:50:47Z</time>
      </trkpt>
      <trkpt lat="45.24701" lon="6.78338">
        <ele>1460</ele>
        <time>2020-09-15T01:50:49Z</time>
      </trkpt>
      <trkpt lat="45.24724" lon="6.78303">
        <ele>1462</ele>
        <time>2020-09-15T01:50:55Z</time>
      </trkpt>
      <trkpt lat="45.24731" lon="6.78285">
        <ele>1464</ele>
        <time>2020-09-15T01:50:57Z</time>
      </trkpt>
      <trkpt lat="45.24731" lon="6.78273">
        <ele>1466</ele>
        <time>2020-09-15T01:50:59Z</time>
      </trkpt>
      <trkpt lat="45.24708" lon="6.78232">
        <ele>1473</ele>
        <time>2020-09-15T01:51:06Z</time>
      </trkpt>
      <trkpt lat="45.24652" lon="6.78169">
        <ele>1486</ele>
        <time>2020-09-15T01:51:18Z</time>
      </trkpt>
      <trkpt lat="45.246" lon="6.78155">
        <ele>1491</ele>
        <time>2020-09-15T01:51:28Z</time>
      </trkpt>
      <trkpt lat="45.24583" lon="6.78154">
        <ele>1492</ele>
        <time>2020-09-15T01:51:31Z</time>
      </trkpt>
      <trkpt lat="45.24538" lon="6.78165">
        <ele>1497</ele>
        <time>2020-09-15T01:51:39Z</time>
      </trkpt>
      <trkpt lat="45.24528" lon="6.78162">
        <ele>1498</ele>
        <time>2020-09-15T01:51:41Z</time>
      </trkpt>
      <trkpt lat="45.24506" lon="6.7814">
        <ele>1502</ele>
        <time>2020-09-15T01:51:45Z</time>
      </trkpt>
      <trkpt lat="45.24496" lon="6.78126">
        <ele>1504</ele>
        <time>2020-09-15T01:51:48Z</time>
      </trkpt>
      <trkpt lat="45.24464" lon="6.78113">
        <ele>1504</ele>
        <time>2020-09-15T01:51:54Z</time>
      </trkpt>
      <trkpt lat="45.24429" lon="6.78106">
        <ele>1503</ele>
        <time>2020-09-15T01:52:00Z</time>
      </trkpt>
      <trkpt lat="45.24397" lon="6.78086">
        <ele>1503</ele>
        <time>2020-09-15T01:52:06Z</time>
      </trkpt>
      <trkpt lat="45.2433" lon="6.78052">
        <ele>1503</ele>
        <time>2020-09-15T01:52:19Z</time>
      </trkpt>
      <trkpt lat="45.24324" lon="6.78048">
        <ele>1503</ele>
        <time>2020-09-15T01:52:20Z</time>
      </trkpt>
      <trkpt lat="45.24298" lon="6.78016">
        <ele>1504</ele>
        <time>2020-09-15T01:52:26Z</time>
      </trkpt>
      <trkpt lat="45.24259" lon="6.77964">
        <ele>1505</ele>
        <time>2020-09-15T01:52:36Z</time>
      </trkpt>
      <trkpt lat="45.24181" lon="6.77863">
        <ele>1508</ele>
        <time>2020-09-15T01:52:55Z</time>
      </trkpt>
      <trkpt lat="45.24161" lon="6.77841">
        <ele>1508</ele>
        <time>2020-09-15T01:52:59Z</time>
      </trkpt>
      <trkpt lat="45.24094" lon="6.77782">
        <ele>1511</ele>
        <time>2020-09-15T01:53:13Z</time>
      </trkpt>
      <trkpt lat="45.24078" lon="6.77763">
        <ele>1511</ele>
        <time>2020-09-15T01:53:17Z</time>
      </trkpt>
      <trkpt lat="45.2406" lon="6.77737">
        <ele>1512</ele>
        <time>2020-09-15T01:53:21Z</time>
      </trkpt>
      <trkpt lat="45.24014" lon="6.7766">
        <ele>1510</ele>
        <time>2020-09-15T01:53:34Z</time>
      </trkpt>
      <trkpt lat="45.23968" lon="6.77583">
        <ele>1509</ele>
        <time>2020-09-15T01:53:47Z</time>
      </trkpt>
      <trkpt lat="45.23949" lon="6.7755">
        <ele>1509</ele>
        <time>2020-09-15T01:53:52Z</time>
      </trkpt>
      <trkpt lat="45.23902" lon="6.77452">
        <ele>1506</ele>
        <time>2020-09-15T01:54:07Z</time>
      </trkpt>
      <trkpt lat="45.23832" lon="6.77301">
        <ele>1504</ele>
        <time>2020-09-15T01:54:30Z</time>
      </trkpt>
      <trkpt lat="45.23827" lon="6.77285">
        <ele>1504</ele>
        <time>2020-09-15T01:54:32Z</time>
      </trkpt>
      <trkpt lat="45.23823" lon="6.7727">
        <ele>1505</ele>
        <time>2020-09-15T01:54:34Z</time>
      </trkpt>
      <trkpt lat="45.23821" lon="6.7725">
        <ele>1505</ele>
        <time>2020-09-15T01:54:36Z</time>
      </trkpt>
      <trkpt lat="45.23822" lon="6.77245">
        <ele>1505</ele>
        <time>2020-09-15T01:54:37Z</time>
      </trkpt>
      <trkpt lat="45.23822" lon="6.77238">
        <ele>1504</ele>
        <time>2020-09-15T01:54:38Z</time>
      </trkpt>
      <trkpt lat="45.23827" lon="6.77218">
        <ele>1502</ele>
        <time>2020-09-15T01:54:41Z</time>
      </trkpt>
      <trkpt lat="45.23832" lon="6.77207">
        <ele>1500</ele>
        <time>2020-09-15T01:54:42Z</time>
      </trkpt>
      <trkpt lat="45.23878" lon="6.77135">
        <ele>1493</ele>
        <time>2020-09-15T01:54:54Z</time>
      </trkpt>
      <trkpt lat="45.23895" lon="6.77101">
        <ele>1492</ele>
        <time>2020-09-15T01:55:00Z</time>
      </trkpt>
      <trkpt lat="45.23905" lon="6.77074">
        <ele>1493</ele>
        <time>2020-09-15T01:55:03Z</time>
      </trkpt>
      <trkpt lat="45.23907" lon="6.77051">
        <ele>1494</ele>
        <time>2020-09-15T01:55:06Z</time>
      </trkpt>
      <trkpt lat="45.23905" lon="6.77036">
        <ele>1495</ele>
        <time>2020-09-15T01:55:08Z</time>
      </trkpt>
      <trkpt lat="45.23899" lon="6.77024">
        <ele>1495</ele>
        <time>2020-09-15T01:55:10Z</time>
      </trkpt>
      <trkpt lat="45.23876" lon="6.76991">
        <ele>1491</ele>
        <time>2020-09-15T01:55:16Z</time>
      </trkpt>
      <trkpt lat="45.23845" lon="6.76964">
        <ele>1484</ele>
        <time>2020-09-15T01:55:22Z</time>
      </trkpt>
      <trkpt lat="45.23838" lon="6.76954">
        <ele>1482</ele>
        <time>2020-09-15T01:55:24Z</time>
      </trkpt>
      <trkpt lat="45.23829" lon="6.76931">
        <ele>1481</ele>
        <time>2020-09-15T01:55:27Z</time>
      </trkpt>
      <trkpt lat="45.2382" lon="6.76901">
        <ele>1480</ele>
        <time>2020-09-15T01:55:31Z</time>
      </trkpt>
      <trkpt lat="45.23813" lon="6.7687">
        <ele>1481</ele>
        <time>2020-09-15T01:55:36Z</time>
      </trkpt>
      <trkpt lat="45.23808" lon="6.76836">
        <ele>1482</ele>
        <time>2020-09-15T01:55:40Z</time>
      </trkpt>
      <trkpt lat="45.23804" lon="6.76823">
        <ele>1483</ele>
        <time>2020-09-15T01:55:42Z</time>
      </trkpt>
      <trkpt lat="45.23792" lon="6.76798">
        <ele>1484</ele>
        <time>2020-09-15T01:55:45Z</time>
      </trkpt>
      <trkpt lat="45.23777" lon="6.76778">
        <ele>1483</ele>
        <time>2020-09-15T01:55:49Z</time>
      </trkpt>
      <trkpt lat="45.23726" lon="6.7674">
        <ele>1479</ele>
        <time>2020-09-15T01:55:59Z</time>
      </trkpt>
      <trkpt lat="45.23717" lon="6.76726">
        <ele>1480</ele>
        <time>2020-09-15T01:56:02Z</time>
      </trkpt>
      <trkpt lat="45.23693" lon="6.76678">
        <ele>1483</ele>
        <time>2020-09-15T01:56:09Z</time>
      </trkpt>
      <trkpt lat="45.23684" lon="6.76666">
        <ele>1483</ele>
        <time>2020-09-15T01:56:11Z</time>
      </trkpt>
      <trkpt lat="45.23639" lon="6.76623">
        <ele>1479</ele>
        <time>2020-09-15T01:56:21Z</time>
      </trkpt>
      <trkpt lat="45.2363" lon="6.7661">
        <ele>1480</ele>
        <time>2020-09-15T01:56:23Z</time>
      </trkpt>
      <trkpt lat="45.23617" lon="6.76586">
        <ele>1482</ele>
        <time>2020-09-15T01:56:27Z</time>
      </trkpt>
      <trkpt lat="45.23615" lon="6.76583">
        <ele>1482</ele>
        <time>2020-09-15T01:56:28Z</time>
      </trkpt>
      <trkpt lat="45.23576" lon="6.76506">
        <ele>1484</ele>
        <time>2020-09-15T01:56:39Z</time>
      </trkpt>
      <trkpt lat="45.2352" lon="6.76409">
        <ele>1485</ele>
        <time>2020-09-15T01:56:55Z</time>
      </trkpt>
      <trkpt lat="45.23508" lon="6.76395">
        <ele>1484</ele>
        <time>2020-09-15T01:56:58Z</time>
      </trkpt>
      <trkpt lat="45.23447" lon="6.76348">
        <ele>1478</ele>
        <time>2020-09-15T01:57:10Z</time>
      </trkpt>
      <trkpt lat="45.23436" lon="6.76336">
        <ele>1477</ele>
        <time>2020-09-15T01:57:13Z</time>
      </trkpt>
      <trkpt lat="45.23425" lon="6.76318">
        <ele>1477</ele>
        <time>2020-09-15T01:57:16Z</time>
      </trkpt>
      <trkpt lat="45.23389" lon="6.76248">
        <ele>1478</ele>
        <time>2020-09-15T01:57:27Z</time>
      </trkpt>
      <trkpt lat="45.23359" lon="6.7619">
        <ele>1476</ele>
        <time>2020-09-15T01:57:36Z</time>
      </trkpt>
      <trkpt lat="45.23355" lon="6.76181">
        <ele>1475</ele>
        <time>2020-09-15T01:57:37Z</time>
      </trkpt>
      <trkpt lat="45.23347" lon="6.76159">
        <ele>1474</ele>
        <time>2020-09-15T01:57:40Z</time>
      </trkpt>
      <trkpt lat="45.23346" lon="6.76141">
        <ele>1476</ele>
        <time>2020-09-15T01:57:42Z</time>
      </trkpt>
      <trkpt lat="45.23348" lon="6.76128">
        <ele>1477</ele>
        <time>2020-09-15T01:57:44Z</time>
      </trkpt>
      <trkpt lat="45.23359" lon="6.76096">
        <ele>1484</ele>
        <time>2020-09-15T01:57:48Z</time>
      </trkpt>
      <trkpt lat="45.23361" lon="6.76088">
        <ele>1485</ele>
        <time>2020-09-15T01:57:50Z</time>
      </trkpt>
      <trkpt lat="45.23358" lon="6.76072">
        <ele>1487</ele>
        <time>2020-09-15T01:57:52Z</time>
      </trkpt>
      <trkpt lat="45.23352" lon="6.76062">
        <ele>1488</ele>
        <time>2020-09-15T01:57:53Z</time>
      </trkpt>
      <trkpt lat="45.23341" lon="6.76054">
        <ele>1487</ele>
        <time>2020-09-15T01:57:55Z</time>
      </trkpt>
      <trkpt lat="45.23323" lon="6.76048">
        <ele>1483</ele>
        <time>2020-09-15T01:57:59Z</time>
      </trkpt>
      <trkpt lat="45.23301" lon="6.76047">
        <ele>1476</ele>
        <time>2020-09-15T01:58:03Z</time>
      </trkpt>
      <trkpt lat="45.23288" lon="6.76036">
        <ele>1475</ele>
        <time>2020-09-15T01:58:05Z</time>
      </trkpt>
      <trkpt lat="45.23262" lon="6.75999">
        <ele>1476</ele>
        <time>2020-09-15T01:58:12Z</time>
      </trkpt>
      <trkpt lat="45.23224" lon="6.75922">
        <ele>1482</ele>
        <time>2020-09-15T01:58:24Z</time>
      </trkpt>
      <trkpt lat="45.2322" lon="6.75909">
        <ele>1483</ele>
        <time>2020-09-15T01:58:25Z</time>
      </trkpt>
      <trkpt lat="45.23217" lon="6.75894">
        <ele>1484</ele>
        <time>2020-09-15T01:58:27Z</time>
      </trkpt>
      <trkpt lat="45.23218" lon="6.75814">
        <ele>1494</ele>
        <time>2020-09-15T01:58:37Z</time>
      </trkpt>
      <trkpt lat="45.23214" lon="6.75796">
        <ele>1494</ele>
        <time>2020-09-15T01:58:40Z</time>
      </trkpt>
      <trkpt lat="45.23208" lon="6.75783">
        <ele>1494</ele>
        <time>2020-09-15T01:58:42Z</time>
      </trkpt>
      <trkpt lat="45.232" lon="6.75772">
        <ele>1493</ele>
        <time>2020-09-15T01:58:44Z</time>
      </trkpt>
      <trkpt lat="45.23158" lon="6.75727">
        <ele>1492</ele>
        <time>2020-09-15T01:58:53Z</time>
      </trkpt>
      <trkpt lat="45.23147" lon="6.75711">
        <ele>1494</ele>
        <time>2020-09-15T01:58:56Z</time>
      </trkpt>
      <trkpt lat="45.23136" lon="6.75693">
        <ele>1496</ele>
        <time>2020-09-15T01:58:59Z</time>
      </trkpt>
      <trkpt lat="45.23129" lon="6.75677">
        <ele>1497</ele>
        <time>2020-09-15T01:59:01Z</time>
      </trkpt>
      <trkpt lat="45.2311" lon="6.75624">
        <ele>1500</ele>
        <time>2020-09-15T01:59:09Z</time>
      </trkpt>
      <trkpt lat="45.23097" lon="6.75575">
        <ele>1502</ele>
        <time>2020-09-15T01:59:15Z</time>
      </trkpt>
      <trkpt lat="45.23092" lon="6.75549">
        <ele>1504</ele>
        <time>2020-09-15T01:59:19Z</time>
      </trkpt>
      <trkpt lat="45.23088" lon="6.7551">
        <ele>1507</ele>
        <time>2020-09-15T01:59:24Z</time>
      </trkpt>
      <trkpt lat="45.23081" lon="6.75478">
        <ele>1508</ele>
        <time>2020-09-15T01:59:28Z</time>
      </trkpt>
      <trkpt lat="45.23075" lon="6.75447">
        <ele>1510</ele>
        <time>2020-09-15T01:59:32Z</time>
      </trkpt>
      <trkpt lat="45.23071" lon="6.75427">
        <ele>1511</ele>
        <time>2020-09-15T01:59:34Z</time>
      </trkpt>
      <trkpt lat="45.23071" lon="6.75379">
        <ele>1513</ele>
        <time>2020-09-15T01:59:40Z</time>
      </trkpt>
      <trkpt lat="45.23076" lon="6.75339">
        <ele>1517</ele>
        <time>2020-09-15T01:59:45Z</time>
      </trkpt>
      <trkpt lat="45.23089" lon="6.75299">
        <ele>1518</ele>
        <time>2020-09-15T01:59:51Z</time>
      </trkpt>
      <trkpt lat="45.23111" lon="6.75265">
        <ele>1519</ele>
        <time>2020-09-15T01:59:57Z</time>
      </trkpt>
      <trkpt lat="45.23128" lon="6.75238">
        <ele>1520</ele>
        <time>2020-09-15T02:00:01Z</time>
      </trkpt>
      <trkpt lat="45.23135" lon="6.75218">
        <ele>1520</ele>
        <time>2020-09-15T02:00:04Z</time>
      </trkpt>
      <trkpt lat="45.2314" lon="6.75199">
        <ele>1520</ele>
        <time>2020-09-15T02:00:07Z</time>
      </trkpt>
      <trkpt lat="45.23142" lon="6.75171">
        <ele>1520</ele>
        <time>2020-09-15T02:00:10Z</time>
      </trkpt>
      <trkpt lat="45.23144" lon="6.75045">
        <ele>1515</ele>
        <time>2020-09-15T02:00:26Z</time>
      </trkpt>
      <trkpt lat="45.23147" lon="6.75006">
        <ele>1512</ele>
        <time>2020-09-15T02:00:31Z</time>
      </trkpt>
      <trkpt lat="45.23147" lon="6.75003">
        <ele>1512</ele>
        <time>2020-09-15T02:00:31Z</time>
      </trkpt>
      <trkpt lat="45.23168" lon="6.74947">
        <ele>1506</ele>
        <time>2020-09-15T02:00:39Z</time>
      </trkpt>
      <trkpt lat="45.23174" lon="6.74905">
        <ele>1502</ele>
        <time>2020-09-15T02:00:45Z</time>
      </trkpt>
      <trkpt lat="45.23186" lon="6.7479">
        <ele>1490</ele>
        <time>2020-09-15T02:00:59Z</time>
      </trkpt>
      <trkpt lat="45.23195" lon="6.74757">
        <ele>1487</ele>
        <time>2020-09-15T02:01:04Z</time>
      </trkpt>
      <trkpt lat="45.23199" lon="6.74753">
        <ele>1488</ele>
        <time>2020-09-15T02:01:04Z</time>
      </trkpt>
      <trkpt lat="45.23224" lon="6.74728">
        <ele>1489</ele>
        <time>2020-09-15T02:01:10Z</time>
      </trkpt>
      <trkpt lat="45.23259" lon="6.74709">
        <ele>1493</ele>
        <time>2020-09-15T02:01:17Z</time>
      </trkpt>
      <trkpt lat="45.23287" lon="6.74703">
        <ele>1498</ele>
        <time>2020-09-15T02:01:22Z</time>
      </trkpt>
      <trkpt lat="45.23296" lon="6.74694">
        <ele>1499</ele>
        <time>2020-09-15T02:01:24Z</time>
      </trkpt>
      <trkpt lat="45.23302" lon="6.7468">
        <ele>1497</ele>
        <time>2020-09-15T02:01:26Z</time>
      </trkpt>
      <trkpt lat="45.23303" lon="6.74664">
        <ele>1495</ele>
        <time>2020-09-15T02:01:28Z</time>
      </trkpt>
      <trkpt lat="45.23299" lon="6.74651">
        <ele>1496</ele>
        <time>2020-09-15T02:01:29Z</time>
      </trkpt>
      <trkpt lat="45.23291" lon="6.74637">
        <ele>1497</ele>
        <time>2020-09-15T02:01:32Z</time>
      </trkpt>
      <trkpt lat="45.23277" lon="6.74627">
        <ele>1494</ele>
        <time>2020-09-15T02:01:34Z</time>
      </trkpt>
      <trkpt lat="45.23238" lon="6.74613">
        <ele>1486</ele>
        <time>2020-09-15T02:01:42Z</time>
      </trkpt>
      <trkpt lat="45.23223" lon="6.74604">
        <ele>1482</ele>
        <time>2020-09-15T02:01:45Z</time>
      </trkpt>
      <trkpt lat="45.232" lon="6.74581">
        <ele>1476</ele>
        <time>2020-09-15T02:01:50Z</time>
      </trkpt>
      <trkpt lat="45.23189" lon="6.74555">
        <ele>1477</ele>
        <time>2020-09-15T02:01:53Z</time>
      </trkpt>
      <trkpt lat="45.23183" lon="6.74526">
        <ele>1480</ele>
        <time>2020-09-15T02:01:57Z</time>
      </trkpt>
      <trkpt lat="45.23175" lon="6.74331">
        <ele>1490</ele>
        <time>2020-09-15T02:02:22Z</time>
      </trkpt>
      <trkpt lat="45.23173" lon="6.74318">
        <ele>1491</ele>
        <time>2020-09-15T02:02:23Z</time>
      </trkpt>
      <trkpt lat="45.23168" lon="6.74303">
        <ele>1492</ele>
        <time>2020-09-15T02:02:25Z</time>
      </trkpt>
      <trkpt lat="45.2316" lon="6.74288">
        <ele>1492</ele>
        <time>2020-09-15T02:02:28Z</time>
      </trkpt>
      <trkpt lat="45.23151" lon="6.74276">
        <ele>1492</ele>
        <time>2020-09-15T02:02:30Z</time>
      </trkpt>
      <trkpt lat="45.23076" lon="6.74204">
        <ele>1490</ele>
        <time>2020-09-15T02:02:46Z</time>
      </trkpt>
      <trkpt lat="45.23058" lon="6.74193">
        <ele>1490</ele>
        <time>2020-09-15T02:02:49Z</time>
      </trkpt>
      <trkpt lat="45.22996" lon="6.74179">
        <ele>1487</ele>
        <time>2020-09-15T02:03:01Z</time>
      </trkpt>
      <trkpt lat="45.22986" lon="6.74177">
        <ele>1487</ele>
        <time>2020-09-15T02:03:02Z</time>
      </trkpt>
      <trkpt lat="45.22978" lon="6.74175">
        <ele>1487</ele>
        <time>2020-09-15T02:03:04Z</time>
      </trkpt>
      <trkpt lat="45.22962" lon="6.74171">
        <ele>1487</ele>
        <time>2020-09-15T02:03:07Z</time>
      </trkpt>
      <trkpt lat="45.22939" lon="6.74152">
        <ele>1488</ele>
        <time>2020-09-15T02:03:12Z</time>
      </trkpt>
      <trkpt lat="45.22917" lon="6.74129">
        <ele>1488</ele>
        <time>2020-09-15T02:03:16Z</time>
      </trkpt>
      <trkpt lat="45.22913" lon="6.74117">
        <ele>1488</ele>
        <time>2020-09-15T02:03:18Z</time>
      </trkpt>
      <trkpt lat="45.2291" lon="6.74102">
        <ele>1489</ele>
        <time>2020-09-15T02:03:20Z</time>
      </trkpt>
      <trkpt lat="45.22903" lon="6.74065">
        <ele>1489</ele>
        <time>2020-09-15T02:03:25Z</time>
      </trkpt>
      <trkpt lat="45.22902" lon="6.74059">
        <ele>1489</ele>
        <time>2020-09-15T02:03:26Z</time>
      </trkpt>
      <trkpt lat="45.22885" lon="6.74038">
        <ele>1487</ele>
        <time>2020-09-15T02:03:30Z</time>
      </trkpt>
      <trkpt lat="45.22865" lon="6.74006">
        <ele>1484</ele>
        <time>2020-09-15T02:03:35Z</time>
      </trkpt>
      <trkpt lat="45.22843" lon="6.73991">
        <ele>1481</ele>
        <time>2020-09-15T02:03:39Z</time>
      </trkpt>
      <trkpt lat="45.22821" lon="6.73979">
        <ele>1480</ele>
        <time>2020-09-15T02:03:43Z</time>
      </trkpt>
      <trkpt lat="45.22811" lon="6.73981">
        <ele>1480</ele>
        <time>2020-09-15T02:03:45Z</time>
      </trkpt>
      <trkpt lat="45.22804" lon="6.73983">
        <ele>1480</ele>
        <time>2020-09-15T02:03:47Z</time>
      </trkpt>
      <trkpt lat="45.22796" lon="6.73984">
        <ele>1480</ele>
        <time>2020-09-15T02:03:48Z</time>
      </trkpt>
      <trkpt lat="45.22762" lon="6.73966">
        <ele>1479</ele>
        <time>2020-09-15T02:03:54Z</time>
      </trkpt>
      <trkpt lat="45.22741" lon="6.73966">
        <ele>1479</ele>
        <time>2020-09-15T02:03:58Z</time>
      </trkpt>
      <trkpt lat="45.22733" lon="6.7397">
        <ele>1479</ele>
        <time>2020-09-15T02:04:00Z</time>
      </trkpt>
      <trkpt lat="45.22728" lon="6.73974">
        <ele>1479</ele>
        <time>2020-09-15T02:04:01Z</time>
      </trkpt>
      <trkpt lat="45.2272" lon="6.7398">
        <ele>1479</ele>
        <time>2020-09-15T02:04:02Z</time>
      </trkpt>
      <trkpt lat="45.22676" lon="6.7402">
        <ele>1478</ele>
        <time>2020-09-15T02:04:12Z</time>
      </trkpt>
      <trkpt lat="45.22663" lon="6.74033">
        <ele>1477</ele>
        <time>2020-09-15T02:04:14Z</time>
      </trkpt>
      <trkpt lat="45.22651" lon="6.74044">
        <ele>1476</ele>
        <time>2020-09-15T02:04:17Z</time>
      </trkpt>
      <trkpt lat="45.22642" lon="6.74048">
        <ele>1476</ele>
        <time>2020-09-15T02:04:19Z</time>
      </trkpt>
      <trkpt lat="45.22627" lon="6.74058">
        <ele>1475</ele>
        <time>2020-09-15T02:04:22Z</time>
      </trkpt>
      <trkpt lat="45.22609" lon="6.74065">
        <ele>1473</ele>
        <time>2020-09-15T02:04:25Z</time>
      </trkpt>
      <trkpt lat="45.22598" lon="6.7407">
        <ele>1472</ele>
        <time>2020-09-15T02:04:27Z</time>
      </trkpt>
      <trkpt lat="45.22584" lon="6.74066">
        <ele>1471</ele>
        <time>2020-09-15T02:04:30Z</time>
      </trkpt>
      <trkpt lat="45.22565" lon="6.74057">
        <ele>1469</ele>
        <time>2020-09-15T02:04:33Z</time>
      </trkpt>
      <trkpt lat="45.22553" lon="6.74042">
        <ele>1468</ele>
        <time>2020-09-15T02:04:36Z</time>
      </trkpt>
      <trkpt lat="45.22548" lon="6.74034">
        <ele>1467</ele>
        <time>2020-09-15T02:04:37Z</time>
      </trkpt>
      <trkpt lat="45.22539" lon="6.74015">
        <ele>1466</ele>
        <time>2020-09-15T02:04:40Z</time>
      </trkpt>
      <trkpt lat="45.22532" lon="6.73991">
        <ele>1465</ele>
        <time>2020-09-15T02:04:43Z</time>
      </trkpt>
      <trkpt lat="45.22461" lon="6.7375">
        <ele>1451</ele>
        <time>2020-09-15T02:05:16Z</time>
      </trkpt>
      <trkpt lat="45.22446" lon="6.73696">
        <ele>1446</ele>
        <time>2020-09-15T02:05:23Z</time>
      </trkpt>
      <trkpt lat="45.22441" lon="6.73653">
        <ele>1442</ele>
        <time>2020-09-15T02:05:29Z</time>
      </trkpt>
      <trkpt lat="45.22452" lon="6.73601">
        <ele>1440</ele>
        <time>2020-09-15T02:05:36Z</time>
      </trkpt>
      <trkpt lat="45.22461" lon="6.73575">
        <ele>1438</ele>
        <time>2020-09-15T02:05:39Z</time>
      </trkpt>
      <trkpt lat="45.22478" lon="6.73549">
        <ele>1434</ele>
        <time>2020-09-15T02:05:44Z</time>
      </trkpt>
      <trkpt lat="45.22495" lon="6.73533">
        <ele>1432</ele>
        <time>2020-09-15T02:05:47Z</time>
      </trkpt>
      <trkpt lat="45.22509" lon="6.73526">
        <ele>1430</ele>
        <time>2020-09-15T02:05:50Z</time>
      </trkpt>
      <trkpt lat="45.22534" lon="6.73517">
        <ele>1429</ele>
        <time>2020-09-15T02:05:55Z</time>
      </trkpt>
      <trkpt lat="45.22641" lon="6.73502">
        <ele>1425</ele>
        <time>2020-09-15T02:06:14Z</time>
      </trkpt>
      <trkpt lat="45.22668" lon="6.73491">
        <ele>1423</ele>
        <time>2020-09-15T02:06:19Z</time>
      </trkpt>
      <trkpt lat="45.22686" lon="6.73471">
        <ele>1423</ele>
        <time>2020-09-15T02:06:23Z</time>
      </trkpt>
      <trkpt lat="45.22691" lon="6.73454">
        <ele>1422</ele>
        <time>2020-09-15T02:06:25Z</time>
      </trkpt>
      <trkpt lat="45.2269" lon="6.73431">
        <ele>1420</ele>
        <time>2020-09-15T02:06:28Z</time>
      </trkpt>
      <trkpt lat="45.22686" lon="6.7341">
        <ele>1421</ele>
        <time>2020-09-15T02:06:31Z</time>
      </trkpt>
      <trkpt lat="45.22676" lon="6.73392">
        <ele>1426</ele>
        <time>2020-09-15T02:06:34Z</time>
      </trkpt>
      <trkpt lat="45.22663" lon="6.73379">
        <ele>1429</ele>
        <time>2020-09-15T02:06:36Z</time>
      </trkpt>
      <trkpt lat="45.22605" lon="6.73357">
        <ele>1425</ele>
        <time>2020-09-15T02:06:47Z</time>
      </trkpt>
      <trkpt lat="45.22594" lon="6.7335">
        <ele>1424</ele>
        <time>2020-09-15T02:06:49Z</time>
      </trkpt>
      <trkpt lat="45.22583" lon="6.73338">
        <ele>1425</ele>
        <time>2020-09-15T02:06:52Z</time>
      </trkpt>
      <trkpt lat="45.22566" lon="6.73306">
        <ele>1426</ele>
        <time>2020-09-15T02:06:57Z</time>
      </trkpt>
      <trkpt lat="45.2251" lon="6.73153">
        <ele>1421</ele>
        <time>2020-09-15T02:07:18Z</time>
      </trkpt>
      <trkpt lat="45.22477" lon="6.73074">
        <ele>1418</ele>
        <time>2020-09-15T02:07:30Z</time>
      </trkpt>
      <trkpt lat="45.22439" lon="6.73002">
        <ele>1419</ele>
        <time>2020-09-15T02:07:41Z</time>
      </trkpt>
      <trkpt lat="45.22406" lon="6.72956">
        <ele>1421</ele>
        <time>2020-09-15T02:07:49Z</time>
      </trkpt>
      <trkpt lat="45.2236" lon="6.72899">
        <ele>1417</ele>
        <time>2020-09-15T02:08:00Z</time>
      </trkpt>
      <trkpt lat="45.22331" lon="6.72857">
        <ele>1413</ele>
        <time>2020-09-15T02:08:08Z</time>
      </trkpt>
      <trkpt lat="45.22301" lon="6.72794">
        <ele>1410</ele>
        <time>2020-09-15T02:08:17Z</time>
      </trkpt>
      <trkpt lat="45.22279" lon="6.72736">
        <ele>1405</ele>
        <time>2020-09-15T02:08:25Z</time>
      </trkpt>
      <trkpt lat="45.22263" lon="6.72691">
        <ele>1400</ele>
        <time>2020-09-15T02:08:32Z</time>
      </trkpt>
      <trkpt lat="45.22252" lon="6.72639">
        <ele>1398</ele>
        <time>2020-09-15T02:08:39Z</time>
      </trkpt>
      <trkpt lat="45.22242" lon="6.72604">
        <ele>1391</ele>
        <time>2020-09-15T02:08:43Z</time>
      </trkpt>
      <trkpt lat="45.22216" lon="6.72554">
        <ele>1375</ele>
        <time>2020-09-15T02:08:51Z</time>
      </trkpt>
      <trkpt lat="45.22213" lon="6.72531">
        <ele>1373</ele>
        <time>2020-09-15T02:08:54Z</time>
      </trkpt>
      <trkpt lat="45.22216" lon="6.72508">
        <ele>1375</ele>
        <time>2020-09-15T02:08:57Z</time>
      </trkpt>
      <trkpt lat="45.2223" lon="6.72479">
        <ele>1380</ele>
        <time>2020-09-15T02:09:01Z</time>
      </trkpt>
      <trkpt lat="45.22252" lon="6.72449">
        <ele>1385</ele>
        <time>2020-09-15T02:09:07Z</time>
      </trkpt>
      <trkpt lat="45.22261" lon="6.72432">
        <ele>1384</ele>
        <time>2020-09-15T02:09:09Z</time>
      </trkpt>
      <trkpt lat="45.22264" lon="6.72405">
        <ele>1384</ele>
        <time>2020-09-15T02:09:13Z</time>
      </trkpt>
      <trkpt lat="45.22258" lon="6.72388">
        <ele>1384</ele>
        <time>2020-09-15T02:09:15Z</time>
      </trkpt>
      <trkpt lat="45.22227" lon="6.72339">
        <ele>1373</ele>
        <time>2020-09-15T02:09:23Z</time>
      </trkpt>
      <trkpt lat="45.22222" lon="6.72315">
        <ele>1372</ele>
        <time>2020-09-15T02:09:27Z</time>
      </trkpt>
      <trkpt lat="45.22221" lon="6.72292">
        <ele>1373</ele>
        <time>2020-09-15T02:09:29Z</time>
      </trkpt>
      <trkpt lat="45.22219" lon="6.72271">
        <ele>1374</ele>
        <time>2020-09-15T02:09:32Z</time>
      </trkpt>
      <trkpt lat="45.22212" lon="6.72251">
        <ele>1371</ele>
        <time>2020-09-15T02:09:35Z</time>
      </trkpt>
      <trkpt lat="45.2219" lon="6.7221">
        <ele>1365</ele>
        <time>2020-09-15T02:09:41Z</time>
      </trkpt>
      <trkpt lat="45.22155" lon="6.72153">
        <ele>1361</ele>
        <time>2020-09-15T02:09:51Z</time>
      </trkpt>
      <trkpt lat="45.22135" lon="6.72133">
        <ele>1359</ele>
        <time>2020-09-15T02:09:55Z</time>
      </trkpt>
      <trkpt lat="45.22092" lon="6.72108">
        <ele>1349</ele>
        <time>2020-09-15T02:10:04Z</time>
      </trkpt>
      <trkpt lat="45.22071" lon="6.72087">
        <ele>1341</ele>
        <time>2020-09-15T02:10:08Z</time>
      </trkpt>
      <trkpt lat="45.22057" lon="6.72052">
        <ele>1336</ele>
        <time>2020-09-15T02:10:13Z</time>
      </trkpt>
      <trkpt lat="45.22053" lon="6.72023">
        <ele>1337</ele>
        <time>2020-09-15T02:10:17Z</time>
      </trkpt>
      <trkpt lat="45.22059" lon="6.71987">
        <ele>1341</ele>
        <time>2020-09-15T02:10:21Z</time>
      </trkpt>
      <trkpt lat="45.22071" lon="6.71939">
        <ele>1342</ele>
        <time>2020-09-15T02:10:28Z</time>
      </trkpt>
      <trkpt lat="45.22065" lon="6.71822">
        <ele>1332</ele>
        <time>2020-09-15T02:10:43Z</time>
      </trkpt>
      <trkpt lat="45.22061" lon="6.71771">
        <ele>1328</ele>
        <time>2020-09-15T02:10:49Z</time>
      </trkpt>
      <trkpt lat="45.22045" lon="6.71717">
        <ele>1319</ele>
        <time>2020-09-15T02:10:56Z</time>
      </trkpt>
      <trkpt lat="45.2204" lon="6.71698">
        <ele>1316</ele>
        <time>2020-09-15T02:10:59Z</time>
      </trkpt>
      <trkpt lat="45.22039" lon="6.71664">
        <ele>1317</ele>
        <time>2020-09-15T02:11:03Z</time>
      </trkpt>
      <trkpt lat="45.22037" lon="6.71589">
        <ele>1324</ele>
        <time>2020-09-15T02:11:13Z</time>
      </trkpt>
      <trkpt lat="45.22028" lon="6.71543">
        <ele>1327</ele>
        <time>2020-09-15T02:11:19Z</time>
      </trkpt>
      <trkpt lat="45.22008" lon="6.71502">
        <ele>1323</ele>
        <time>2020-09-15T02:11:25Z</time>
      </trkpt>
      <trkpt lat="45.21965" lon="6.7145">
        <ele>1309</ele>
        <time>2020-09-15T02:11:35Z</time>
      </trkpt>
      <trkpt lat="45.21957" lon="6.71428">
        <ele>1308</ele>
        <time>2020-09-15T02:11:38Z</time>
      </trkpt>
      <trkpt lat="45.21952" lon="6.7136">
        <ele>1314</ele>
        <time>2020-09-15T02:11:46Z</time>
      </trkpt>
      <trkpt lat="45.21941" lon="6.71339">
        <ele>1311</ele>
        <time>2020-09-15T02:11:50Z</time>
      </trkpt>
      <trkpt lat="45.21914" lon="6.7131">
        <ele>1307</ele>
        <time>2020-09-15T02:11:56Z</time>
      </trkpt>
      <trkpt lat="45.21858" lon="6.71258">
        <ele>1291</ele>
        <time>2020-09-15T02:12:08Z</time>
      </trkpt>
      <trkpt lat="45.21818" lon="6.71206">
        <ele>1283</ele>
        <time>2020-09-15T02:12:17Z</time>
      </trkpt>
      <trkpt lat="45.2178" lon="6.71134">
        <ele>1276</ele>
        <time>2020-09-15T02:12:29Z</time>
      </trkpt>
      <trkpt lat="45.2177" lon="6.71106">
        <ele>1275</ele>
        <time>2020-09-15T02:12:33Z</time>
      </trkpt>
      <trkpt lat="45.21769" lon="6.71053">
        <ele>1282</ele>
        <time>2020-09-15T02:12:39Z</time>
      </trkpt>
      <trkpt lat="45.2176" lon="6.70971">
        <ele>1278</ele>
        <time>2020-09-15T02:12:50Z</time>
      </trkpt>
      <trkpt lat="45.21756" lon="6.70918">
        <ele>1274</ele>
        <time>2020-09-15T02:12:56Z</time>
      </trkpt>
      <trkpt lat="45.21766" lon="6.70735">
        <ele>1271</ele>
        <time>2020-09-15T02:13:19Z</time>
      </trkpt>
      <trkpt lat="45.21762" lon="6.70683">
        <ele>1266</ele>
        <time>2020-09-15T02:13:26Z</time>
      </trkpt>
      <trkpt lat="45.2175" lon="6.70611">
        <ele>1260</ele>
        <time>2020-09-15T02:13:35Z</time>
      </trkpt>
      <trkpt lat="45.21744" lon="6.70546">
        <ele>1257</ele>
        <time>2020-09-15T02:13:43Z</time>
      </trkpt>
      <trkpt lat="45.21746" lon="6.70492">
        <ele>1257</ele>
        <time>2020-09-15T02:13:50Z</time>
      </trkpt>
      <trkpt lat="45.21764" lon="6.70413">
        <ele>1260</ele>
        <time>2020-09-15T02:14:01Z</time>
      </trkpt>
      <trkpt lat="45.21765" lon="6.7039">
        <ele>1261</ele>
        <time>2020-09-15T02:14:03Z</time>
      </trkpt>
      <trkpt lat="45.21761" lon="6.70368">
        <ele>1259</ele>
        <time>2020-09-15T02:14:06Z</time>
      </trkpt>
      <trkpt lat="45.21694" lon="6.70171">
        <ele>1244</ele>
        <time>2020-09-15T02:14:34Z</time>
      </trkpt>
      <trkpt lat="45.21674" lon="6.70104">
        <ele>1242</ele>
        <time>2020-09-15T02:14:43Z</time>
      </trkpt>
      <trkpt lat="45.21659" lon="6.70025">
        <ele>1238</ele>
        <time>2020-09-15T02:14:53Z</time>
      </trkpt>
      <trkpt lat="45.21644" lon="6.69936">
        <ele>1236</ele>
        <time>2020-09-15T02:15:05Z</time>
      </trkpt>
      <trkpt lat="45.21643" lon="6.69933">
        <ele>1236</ele>
        <time>2020-09-15T02:15:05Z</time>
      </trkpt>
      <trkpt lat="45.21634" lon="6.69905">
        <ele>1236</ele>
        <time>2020-09-15T02:15:09Z</time>
      </trkpt>
      <trkpt lat="45.21593" lon="6.69804">
        <ele>1227</ele>
        <time>2020-09-15T02:15:23Z</time>
      </trkpt>
      <trkpt lat="45.21583" lon="6.69769">
        <ele>1222</ele>
        <time>2020-09-15T02:15:28Z</time>
      </trkpt>
      <trkpt lat="45.21579" lon="6.69748">
        <ele>1220</ele>
        <time>2020-09-15T02:15:31Z</time>
      </trkpt>
      <trkpt lat="45.21581" lon="6.69719">
        <ele>1218</ele>
        <time>2020-09-15T02:15:35Z</time>
      </trkpt>
      <trkpt lat="45.21598" lon="6.69652">
        <ele>1222</ele>
        <time>2020-09-15T02:15:43Z</time>
      </trkpt>
      <trkpt lat="45.21605" lon="6.6961">
        <ele>1224</ele>
        <time>2020-09-15T02:15:49Z</time>
      </trkpt>
      <trkpt lat="45.21607" lon="6.69581">
        <ele>1223</ele>
        <time>2020-09-15T02:15:53Z</time>
      </trkpt>
      <trkpt lat="45.21604" lon="6.69551">
        <ele>1220</ele>
        <time>2020-09-15T02:15:56Z</time>
      </trkpt>
      <trkpt lat="45.21597" lon="6.69523">
        <ele>1215</ele>
        <time>2020-09-15T02:16:00Z</time>
      </trkpt>
      <trkpt lat="45.21571" lon="6.69409">
        <ele>1207</ele>
        <time>2020-09-15T02:16:15Z</time>
      </trkpt>
      <trkpt lat="45.21563" lon="6.69387">
        <ele>1209</ele>
        <time>2020-09-15T02:16:18Z</time>
      </trkpt>
      <trkpt lat="45.21555" lon="6.69369">
        <ele>1210</ele>
        <time>2020-09-15T02:16:21Z</time>
      </trkpt>
      <trkpt lat="45.21539" lon="6.69351">
        <ele>1209</ele>
        <time>2020-09-15T02:16:24Z</time>
      </trkpt>
      <trkpt lat="45.21485" lon="6.69319">
        <ele>1197</ele>
        <time>2020-09-15T02:16:35Z</time>
      </trkpt>
      <trkpt lat="45.21466" lon="6.693">
        <ele>1195</ele>
        <time>2020-09-15T02:16:39Z</time>
      </trkpt>
      <trkpt lat="45.21453" lon="6.69279">
        <ele>1194</ele>
        <time>2020-09-15T02:16:43Z</time>
      </trkpt>
      <trkpt lat="45.21444" lon="6.69261">
        <ele>1194</ele>
        <time>2020-09-15T02:16:45Z</time>
      </trkpt>
      <trkpt lat="45.21439" lon="6.69233">
        <ele>1195</ele>
        <time>2020-09-15T02:16:49Z</time>
      </trkpt>
      <trkpt lat="45.21434" lon="6.69195">
        <ele>1195</ele>
        <time>2020-09-15T02:16:54Z</time>
      </trkpt>
      <trkpt lat="45.21433" lon="6.69167">
        <ele>1195</ele>
        <time>2020-09-15T02:16:57Z</time>
      </trkpt>
      <trkpt lat="45.21428" lon="6.69141">
        <ele>1196</ele>
        <time>2020-09-15T02:17:01Z</time>
      </trkpt>
      <trkpt lat="45.21417" lon="6.69118">
        <ele>1194</ele>
        <time>2020-09-15T02:17:04Z</time>
      </trkpt>
      <trkpt lat="45.21392" lon="6.69087">
        <ele>1192</ele>
        <time>2020-09-15T02:17:10Z</time>
      </trkpt>
      <trkpt lat="45.21319" lon="6.69006">
        <ele>1191</ele>
        <time>2020-09-15T02:17:27Z</time>
      </trkpt>
      <trkpt lat="45.21305" lon="6.68988">
        <ele>1190</ele>
        <time>2020-09-15T02:17:30Z</time>
      </trkpt>
      <trkpt lat="45.21304" lon="6.68983">
        <ele>1189</ele>
        <time>2020-09-15T02:17:31Z</time>
      </trkpt>
      <trkpt lat="45.21297" lon="6.68976">
        <ele>1188</ele>
        <time>2020-09-15T02:17:32Z</time>
      </trkpt>
      <trkpt lat="45.21293" lon="6.68976">
        <ele>1188</ele>
        <time>2020-09-15T02:17:33Z</time>
      </trkpt>
      <trkpt lat="45.21286" lon="6.68966">
        <ele>1186</ele>
        <time>2020-09-15T02:17:35Z</time>
      </trkpt>
      <trkpt lat="45.21269" lon="6.68931">
        <ele>1182</ele>
        <time>2020-09-15T02:17:40Z</time>
      </trkpt>
      <trkpt lat="45.21159" lon="6.6863">
        <ele>1166</ele>
        <time>2020-09-15T02:18:22Z</time>
      </trkpt>
      <trkpt lat="45.21126" lon="6.68574">
        <ele>1161</ele>
        <time>2020-09-15T02:18:32Z</time>
      </trkpt>
      <trkpt lat="45.21114" lon="6.68559">
        <ele>1160</ele>
        <time>2020-09-15T02:18:34Z</time>
      </trkpt>
      <trkpt lat="45.21086" lon="6.68533">
        <ele>1155</ele>
        <time>2020-09-15T02:18:40Z</time>
      </trkpt>
      <trkpt lat="45.21055" lon="6.685">
        <ele>1151</ele>
        <time>2020-09-15T02:18:47Z</time>
      </trkpt>
      <trkpt lat="45.21009" lon="6.68418">
        <ele>1144</ele>
        <time>2020-09-15T02:19:00Z</time>
      </trkpt>
      <trkpt lat="45.20979" lon="6.68357">
        <ele>1143</ele>
        <time>2020-09-15T02:19:10Z</time>
      </trkpt>
      <trkpt lat="45.20969" lon="6.68329">
        <ele>1143</ele>
        <time>2020-09-15T02:19:14Z</time>
      </trkpt>
      <trkpt lat="45.20966" lon="6.6828">
        <ele>1145</ele>
        <time>2020-09-15T02:19:20Z</time>
      </trkpt>
      <trkpt lat="45.20965" lon="6.68247">
        <ele>1146</ele>
        <time>2020-09-15T02:19:24Z</time>
      </trkpt>
      <trkpt lat="45.20958" lon="6.68221">
        <ele>1144</ele>
        <time>2020-09-15T02:19:27Z</time>
      </trkpt>
      <trkpt lat="45.20914" lon="6.68114">
        <ele>1134</ele>
        <time>2020-09-15T02:19:43Z</time>
      </trkpt>
      <trkpt lat="45.20829" lon="6.67972">
        <ele>1117</ele>
        <time>2020-09-15T02:20:06Z</time>
      </trkpt>
      <trkpt lat="45.20801" lon="6.67917">
        <ele>1112</ele>
        <time>2020-09-15T02:20:15Z</time>
      </trkpt>
      <trkpt lat="45.20776" lon="6.67859">
        <ele>1107</ele>
        <time>2020-09-15T02:20:23Z</time>
      </trkpt>
      <trkpt lat="45.20746" lon="6.67779">
        <ele>1103</ele>
        <time>2020-09-15T02:20:35Z</time>
      </trkpt>
      <trkpt lat="45.20719" lon="6.67698">
        <ele>1110</ele>
        <time>2020-09-15T02:20:46Z</time>
      </trkpt>
      <trkpt lat="45.20697" lon="6.67657">
        <ele>1105</ele>
        <time>2020-09-15T02:20:52Z</time>
      </trkpt>
      <trkpt lat="45.20686" lon="6.67631">
        <ele>1102</ele>
        <time>2020-09-15T02:20:56Z</time>
      </trkpt>
      <trkpt lat="45.20646" lon="6.67508">
        <ele>1100</ele>
        <time>2020-09-15T02:21:13Z</time>
      </trkpt>
      <trkpt lat="45.20636" lon="6.67482">
        <ele>1100</ele>
        <time>2020-09-15T02:21:17Z</time>
      </trkpt>
      <trkpt lat="45.20591" lon="6.67401">
        <ele>1081</ele>
        <time>2020-09-15T02:21:30Z</time>
      </trkpt>
      <trkpt lat="45.20567" lon="6.6734">
        <ele>1078</ele>
        <time>2020-09-15T02:21:39Z</time>
      </trkpt>
      <trkpt lat="45.20559" lon="6.67326">
        <ele>1077</ele>
        <time>2020-09-15T02:21:41Z</time>
      </trkpt>
      <trkpt lat="45.20547" lon="6.67313">
        <ele>1076</ele>
        <time>2020-09-15T02:21:43Z</time>
      </trkpt>
      <trkpt lat="45.20512" lon="6.67284">
        <ele>1070</ele>
        <time>2020-09-15T02:21:51Z</time>
      </trkpt>
      <trkpt lat="45.20485" lon="6.67255">
        <ele>1068</ele>
        <time>2020-09-15T02:21:57Z</time>
      </trkpt>
      <trkpt lat="45.20466" lon="6.67226">
        <ele>1069</ele>
        <time>2020-09-15T02:22:02Z</time>
      </trkpt>
      <trkpt lat="45.20461" lon="6.6722">
        <ele>1069</ele>
        <time>2020-09-15T02:22:03Z</time>
      </trkpt>
      <trkpt lat="45.20456" lon="6.67212">
        <ele>1069</ele>
        <time>2020-09-15T02:22:04Z</time>
      </trkpt>
      <trkpt lat="45.20387" lon="6.67124">
        <ele>1067</ele>
        <time>2020-09-15T02:22:21Z</time>
      </trkpt>
      <trkpt lat="45.20369" lon="6.67098">
        <ele>1066</ele>
        <time>2020-09-15T02:22:25Z</time>
      </trkpt>
      <trkpt lat="45.20353" lon="6.67071">
        <ele>1066</ele>
        <time>2020-09-15T02:22:30Z</time>
      </trkpt>
      <trkpt lat="45.20329" lon="6.67019">
        <ele>1067</ele>
        <time>2020-09-15T02:22:37Z</time>
      </trkpt>
      <trkpt lat="45.20325" lon="6.6701">
        <ele>1067</ele>
        <time>2020-09-15T02:22:39Z</time>
      </trkpt>
      <trkpt lat="45.20318" lon="6.67002">
        <ele>1067</ele>
        <time>2020-09-15T02:22:40Z</time>
      </trkpt>
      <trkpt lat="45.20297" lon="6.67026">
        <ele>1066</ele>
        <time>2020-09-15T02:22:45Z</time>
      </trkpt>
      <trkpt lat="45.20266" lon="6.67061">
        <ele>1064</ele>
        <time>2020-09-15T02:22:52Z</time>
      </trkpt>
      <trkpt lat="45.20261" lon="6.67067">
        <ele>1064</ele>
        <time>2020-09-15T02:22:53Z</time>
      </trkpt>
      <trkpt lat="45.20252" lon="6.6708">
        <ele>1064</ele>
        <time>2020-09-15T02:22:56Z</time>
      </trkpt>
      <trkpt lat="45.20239" lon="6.67097">
        <ele>1065</ele>
        <time>2020-09-15T02:22:59Z</time>
      </trkpt>
      <trkpt lat="45.20235" lon="6.67103">
        <ele>1065</ele>
        <time>2020-09-15T02:23:00Z</time>
      </trkpt>
      <trkpt lat="45.20231" lon="6.671">
        <ele>1065</ele>
        <time>2020-09-15T02:23:01Z</time>
      </trkpt>
      <trkpt lat="45.20227" lon="6.67098">
        <ele>1065</ele>
        <time>2020-09-15T02:23:01Z</time>
      </trkpt>
      <trkpt lat="45.20222" lon="6.67099">
        <ele>1065</ele>
        <time>2020-09-15T02:23:02Z</time>
      </trkpt>
      <trkpt lat="45.20219" lon="6.67103">
        <ele>1065</ele>
        <time>2020-09-15T02:23:03Z</time>
      </trkpt>
      <trkpt lat="45.20215" lon="6.67096">
        <ele>1065</ele>
        <time>2020-09-15T02:23:04Z</time>
      </trkpt>
      <trkpt lat="45.20213" lon="6.67092">
        <ele>1065</ele>
        <time>2020-09-15T02:23:05Z</time>
      </trkpt>
      <trkpt lat="45.20179" lon="6.67039">
        <ele>1065</ele>
        <time>2020-09-15T02:23:14Z</time>
      </trkpt>
      <trkpt lat="45.2017" lon="6.67025">
        <ele>1065</ele>
        <time>2020-09-15T02:23:16Z</time>
      </trkpt>
      <trkpt lat="45.20105" lon="6.6695">
        <ele>1064</ele>
        <time>2020-09-15T02:23:31Z</time>
      </trkpt>
      <trkpt lat="45.20055" lon="6.66901">
        <ele>1064</ele>
        <time>2020-09-15T02:23:42Z</time>
      </trkpt>
      <trkpt lat="45.20016" lon="6.66863">
        <ele>1063</ele>
        <time>2020-09-15T02:23:50Z</time>
      </trkpt>
      <trkpt lat="45.19998" lon="6.66855">
        <ele>1063</ele>
        <time>2020-09-15T02:23:54Z</time>
      </trkpt>
      <trkpt lat="45.19998" lon="6.6685">
        <ele>1063</ele>
        <time>2020-09-15T02:23:54Z</time>
      </trkpt>
      <trkpt lat="45.19998" lon="6.66845">
        <ele>1063</ele>
        <time>2020-09-15T02:23:55Z</time>
      </trkpt>
      <trkpt lat="45.19993" lon="6.66838">
        <ele>1063</ele>
        <time>2020-09-15T02:23:56Z</time>
      </trkpt>
      <trkpt lat="45.1999" lon="6.66836">
        <ele>1063</ele>
        <time>2020-09-15T02:23:57Z</time>
      </trkpt>
      <trkpt lat="45.19983" lon="6.66837">
        <ele>1064</ele>
        <time>2020-09-15T02:23:58Z</time>
      </trkpt>
      <trkpt lat="45.1998" lon="6.6684">
        <ele>1065</ele>
        <time>2020-09-15T02:23:59Z</time>
      </trkpt>
      <trkpt lat="45.19971" lon="6.6682">
        <ele>1065</ele>
        <time>2020-09-15T02:24:02Z</time>
      </trkpt>
      <trkpt lat="45.19946" lon="6.66797">
        <ele>1066</ele>
        <time>2020-09-15T02:24:07Z</time>
      </trkpt>
      <trkpt lat="45.19909" lon="6.66758">
        <ele>1066</ele>
        <time>2020-09-15T02:24:15Z</time>
      </trkpt>
      <trkpt lat="45.19885" lon="6.66732">
        <ele>1068</ele>
        <time>2020-09-15T02:24:21Z</time>
      </trkpt>
      <trkpt lat="45.19874" lon="6.66715">
        <ele>1068</ele>
        <time>2020-09-15T02:24:23Z</time>
      </trkpt>
      <trkpt lat="45.19864" lon="6.66695">
        <ele>1068</ele>
        <time>2020-09-15T02:24:27Z</time>
      </trkpt>
      <trkpt lat="45.19821" lon="6.66552">
        <ele>1062</ele>
        <time>2020-09-15T02:24:46Z</time>
      </trkpt>
      <trkpt lat="45.19807" lon="6.66511">
        <ele>1061</ele>
        <time>2020-09-15T02:24:52Z</time>
      </trkpt>
      <trkpt lat="45.19792" lon="6.66482">
        <ele>1061</ele>
        <time>2020-09-15T02:24:56Z</time>
      </trkpt>
      <trkpt lat="45.19771" lon="6.66454">
        <ele>1061</ele>
        <time>2020-09-15T02:25:01Z</time>
      </trkpt>
      <trkpt lat="45.1971" lon="6.66377">
        <ele>1061</ele>
        <time>2020-09-15T02:25:16Z</time>
      </trkpt>
      <trkpt lat="45.1963" lon="6.66272">
        <ele>1059</ele>
        <time>2020-09-15T02:25:35Z</time>
      </trkpt>
      <trkpt lat="45.1962" lon="6.66259">
        <ele>1058</ele>
        <time>2020-09-15T02:25:38Z</time>
      </trkpt>
      <trkpt lat="45.19593" lon="6.66223">
        <ele>1058</ele>
        <time>2020-09-15T02:25:44Z</time>
      </trkpt>
      <trkpt lat="45.19558" lon="6.66178">
        <ele>1058</ele>
        <time>2020-09-15T02:25:53Z</time>
      </trkpt>
      <trkpt lat="45.19415" lon="6.65972">
        <ele>1059</ele>
        <time>2020-09-15T02:26:29Z</time>
      </trkpt>
      <trkpt lat="45.19405" lon="6.65954">
        <ele>1059</ele>
        <time>2020-09-15T02:26:32Z</time>
      </trkpt>
      <trkpt lat="45.194" lon="6.65944">
        <ele>1059</ele>
        <time>2020-09-15T02:26:33Z</time>
      </trkpt>
      <trkpt lat="45.19363" lon="6.6586">
        <ele>1060</ele>
        <time>2020-09-15T02:26:46Z</time>
      </trkpt>
      <trkpt lat="45.19361" lon="6.65857">
        <ele>1060</ele>
        <time>2020-09-15T02:26:46Z</time>
      </trkpt>
      <trkpt lat="45.19358" lon="6.65848">
        <ele>1060</ele>
        <time>2020-09-15T02:26:48Z</time>
      </trkpt>
      <trkpt lat="45.19349" lon="6.65827">
        <ele>1060</ele>
        <time>2020-09-15T02:26:51Z</time>
      </trkpt>
      <trkpt lat="45.1933" lon="6.65774">
        <ele>1059</ele>
        <time>2020-09-15T02:26:58Z</time>
      </trkpt>
      <trkpt lat="45.19322" lon="6.6575">
        <ele>1059</ele>
        <time>2020-09-15T02:27:01Z</time>
      </trkpt>
      <trkpt lat="45.19315" lon="6.65731">
        <ele>1059</ele>
        <time>2020-09-15T02:27:04Z</time>
      </trkpt>
      <trkpt lat="45.19301" lon="6.65694">
        <ele>1058</ele>
        <time>2020-09-15T02:27:09Z</time>
      </trkpt>
      <trkpt lat="45.19289" lon="6.65657">
        <ele>1058</ele>
        <time>2020-09-15T02:27:14Z</time>
      </trkpt>
      <trkpt lat="45.19279" lon="6.65625">
        <ele>1058</ele>
        <time>2020-09-15T02:27:19Z</time>
      </trkpt>
      <trkpt lat="45.19277" lon="6.65609">
        <ele>1057</ele>
        <time>2020-09-15T02:27:21Z</time>
      </trkpt>
      <trkpt lat="45.19258" lon="6.65526">
        <ele>1057</ele>
        <time>2020-09-15T02:27:32Z</time>
      </trkpt>
      <trkpt lat="45.19244" lon="6.65444">
        <ele>1058</ele>
        <time>2020-09-15T02:27:42Z</time>
      </trkpt>
      <trkpt lat="45.19213" lon="6.65272">
        <ele>1059</ele>
        <time>2020-09-15T02:28:05Z</time>
      </trkpt>
      <trkpt lat="45.1913" lon="6.64816">
        <ele>1055</ele>
        <time>2020-09-15T02:29:04Z</time>
      </trkpt>
      <trkpt lat="45.19125" lon="6.64782">
        <ele>1054</ele>
        <time>2020-09-15T02:29:08Z</time>
      </trkpt>
      <trkpt lat="45.19125" lon="6.64723">
        <ele>1054</ele>
        <time>2020-09-15T02:29:15Z</time>
      </trkpt>
      <trkpt lat="45.19127" lon="6.64718">
        <ele>1054</ele>
        <time>2020-09-15T02:29:16Z</time>
      </trkpt>
      <trkpt lat="45.19127" lon="6.64708">
        <ele>1054</ele>
        <time>2020-09-15T02:29:17Z</time>
      </trkpt>
      <trkpt lat="45.19122" lon="6.647">
        <ele>1054</ele>
        <time>2020-09-15T02:29:19Z</time>
      </trkpt>
      <trkpt lat="45.19117" lon="6.64697">
        <ele>1055</ele>
        <time>2020-09-15T02:29:20Z</time>
      </trkpt>
      <trkpt lat="45.19111" lon="6.64687">
        <ele>1055</ele>
        <time>2020-09-15T02:29:21Z</time>
      </trkpt>
      <trkpt lat="45.19104" lon="6.64666">
        <ele>1056</ele>
        <time>2020-09-15T02:29:24Z</time>
      </trkpt>
      <trkpt lat="45.19064" lon="6.64446">
        <ele>1051</ele>
        <time>2020-09-15T02:29:53Z</time>
      </trkpt>
      <trkpt lat="45.19062" lon="6.64425">
        <ele>1051</ele>
        <time>2020-09-15T02:29:55Z</time>
      </trkpt>
      <trkpt lat="45.19061" lon="6.64396">
        <ele>1051</ele>
        <time>2020-09-15T02:29:59Z</time>
      </trkpt>
      <trkpt lat="45.19064" lon="6.64348">
        <ele>1051</ele>
        <time>2020-09-15T02:30:05Z</time>
      </trkpt>
      <trkpt lat="45.19067" lon="6.6423">
        <ele>1051</ele>
        <time>2020-09-15T02:30:20Z</time>
      </trkpt>
      <trkpt lat="45.19064" lon="6.64173">
        <ele>1051</ele>
        <time>2020-09-15T02:30:27Z</time>
      </trkpt>
      <trkpt lat="45.19064" lon="6.64142">
        <ele>1052</ele>
        <time>2020-09-15T02:30:31Z</time>
      </trkpt>
      <trkpt lat="45.19068" lon="6.641">
        <ele>1051</ele>
        <time>2020-09-15T02:30:36Z</time>
      </trkpt>
      <trkpt lat="45.1907" lon="6.64081">
        <ele>1051</ele>
        <time>2020-09-15T02:30:39Z</time>
      </trkpt>
      <trkpt lat="45.19076" lon="6.64054">
        <ele>1052</ele>
        <time>2020-09-15T02:30:42Z</time>
      </trkpt>
      <trkpt lat="45.19085" lon="6.64026">
        <ele>1052</ele>
        <time>2020-09-15T02:30:46Z</time>
      </trkpt>
      <trkpt lat="45.191" lon="6.63994">
        <ele>1053</ele>
        <time>2020-09-15T02:30:51Z</time>
      </trkpt>
      <trkpt lat="45.19118" lon="6.63966">
        <ele>1053</ele>
        <time>2020-09-15T02:30:56Z</time>
      </trkpt>
      <trkpt lat="45.19174" lon="6.63891">
        <ele>1051</ele>
        <time>2020-09-15T02:31:09Z</time>
      </trkpt>
      <trkpt lat="45.19211" lon="6.63844">
        <ele>1053</ele>
        <time>2020-09-15T02:31:18Z</time>
      </trkpt>
      <trkpt lat="45.19243" lon="6.6379">
        <ele>1054</ele>
        <time>2020-09-15T02:31:27Z</time>
      </trkpt>
      <trkpt lat="45.1926" lon="6.63744">
        <ele>1058</ele>
        <time>2020-09-15T02:31:34Z</time>
      </trkpt>
      <trkpt lat="45.19285" lon="6.63639">
        <ele>1064</ele>
        <time>2020-09-15T02:31:48Z</time>
      </trkpt>
      <trkpt lat="45.19349" lon="6.63256">
        <ele>1054</ele>
        <time>2020-09-15T02:32:37Z</time>
      </trkpt>
      <trkpt lat="45.19372" lon="6.63163">
        <ele>1049</ele>
        <time>2020-09-15T02:32:49Z</time>
      </trkpt>
      <trkpt lat="45.19387" lon="6.63115">
        <ele>1043</ele>
        <time>2020-09-15T02:32:56Z</time>
      </trkpt>
      <trkpt lat="45.19399" lon="6.63063">
        <ele>1039</ele>
        <time>2020-09-15T02:33:03Z</time>
      </trkpt>
      <trkpt lat="45.19418" lon="6.6297">
        <ele>1036</ele>
        <time>2020-09-15T02:33:15Z</time>
      </trkpt>
      <trkpt lat="45.19433" lon="6.62951">
        <ele>1035</ele>
        <time>2020-09-15T02:33:18Z</time>
      </trkpt>
      <trkpt lat="45.19443" lon="6.62949">
        <ele>1034</ele>
        <time>2020-09-15T02:33:20Z</time>
      </trkpt>
      <trkpt lat="45.19448" lon="6.62942">
        <ele>1034</ele>
        <time>2020-09-15T02:33:21Z</time>
      </trkpt>
      <trkpt lat="45.19451" lon="6.62935">
        <ele>1034</ele>
        <time>2020-09-15T02:33:22Z</time>
      </trkpt>
      <trkpt lat="45.19451" lon="6.62926">
        <ele>1034</ele>
        <time>2020-09-15T02:33:24Z</time>
      </trkpt>
      <trkpt lat="45.19446" lon="6.62913">
        <ele>1034</ele>
        <time>2020-09-15T02:33:25Z</time>
      </trkpt>
      <trkpt lat="45.19447" lon="6.6289">
        <ele>1034</ele>
        <time>2020-09-15T02:33:28Z</time>
      </trkpt>
      <trkpt lat="45.19484" lon="6.62735">
        <ele>1033</ele>
        <time>2020-09-15T02:33:49Z</time>
      </trkpt>
      <trkpt lat="45.19506" lon="6.62653">
        <ele>1032</ele>
        <time>2020-09-15T02:34:00Z</time>
      </trkpt>
      <trkpt lat="45.19544" lon="6.6248">
        <ele>1030</ele>
        <time>2020-09-15T02:34:23Z</time>
      </trkpt>
      <trkpt lat="45.19561" lon="6.62428">
        <ele>1030</ele>
        <time>2020-09-15T02:34:30Z</time>
      </trkpt>
      <trkpt lat="45.19572" lon="6.62376">
        <ele>1030</ele>
        <time>2020-09-15T02:34:37Z</time>
      </trkpt>
      <trkpt lat="45.19625" lon="6.62222">
        <ele>1027</ele>
        <time>2020-09-15T02:34:58Z</time>
      </trkpt>
      <trkpt lat="45.19635" lon="6.62185">
        <ele>1027</ele>
        <time>2020-09-15T02:35:03Z</time>
      </trkpt>
      <trkpt lat="45.19636" lon="6.62161">
        <ele>1026</ele>
        <time>2020-09-15T02:35:06Z</time>
      </trkpt>
      <trkpt lat="45.19639" lon="6.62148">
        <ele>1025</ele>
        <time>2020-09-15T02:35:08Z</time>
      </trkpt>
      <trkpt lat="45.19642" lon="6.62141">
        <ele>1025</ele>
        <time>2020-09-15T02:35:09Z</time>
      </trkpt>
      <trkpt lat="45.19648" lon="6.62135">
        <ele>1024</ele>
        <time>2020-09-15T02:35:10Z</time>
      </trkpt>
      <trkpt lat="45.19653" lon="6.62123">
        <ele>1023</ele>
        <time>2020-09-15T02:35:12Z</time>
      </trkpt>
      <trkpt lat="45.19652" lon="6.6211">
        <ele>1023</ele>
        <time>2020-09-15T02:35:13Z</time>
      </trkpt>
      <trkpt lat="45.19646" lon="6.62096">
        <ele>1023</ele>
        <time>2020-09-15T02:35:16Z</time>
      </trkpt>
      <trkpt lat="45.19638" lon="6.6209">
        <ele>1024</ele>
        <time>2020-09-15T02:35:17Z</time>
      </trkpt>
      <trkpt lat="45.19621" lon="6.62059">
        <ele>1025</ele>
        <time>2020-09-15T02:35:22Z</time>
      </trkpt>
      <trkpt lat="45.19611" lon="6.62014">
        <ele>1026</ele>
        <time>2020-09-15T02:35:28Z</time>
      </trkpt>
      <trkpt lat="45.19606" lon="6.61987">
        <ele>1027</ele>
        <time>2020-09-15T02:35:31Z</time>
      </trkpt>
      <trkpt lat="45.19604" lon="6.61963">
        <ele>1029</ele>
        <time>2020-09-15T02:35:35Z</time>
      </trkpt>
      <trkpt lat="45.19605" lon="6.61934">
        <ele>1030</ele>
        <time>2020-09-15T02:35:38Z</time>
      </trkpt>
      <trkpt lat="45.19617" lon="6.61822">
        <ele>1035</ele>
        <time>2020-09-15T02:35:52Z</time>
      </trkpt>
      <trkpt lat="45.19621" lon="6.61796">
        <ele>1036</ele>
        <time>2020-09-15T02:35:56Z</time>
      </trkpt>
      <trkpt lat="45.19626" lon="6.61783">
        <ele>1035</ele>
        <time>2020-09-15T02:35:58Z</time>
      </trkpt>
      <trkpt lat="45.19637" lon="6.61761">
        <ele>1032</ele>
        <time>2020-09-15T02:36:01Z</time>
      </trkpt>
      <trkpt lat="45.19697" lon="6.61674">
        <ele>1033</ele>
        <time>2020-09-15T02:36:16Z</time>
      </trkpt>
      <trkpt lat="45.19741" lon="6.61596">
        <ele>1025</ele>
        <time>2020-09-15T02:36:29Z</time>
      </trkpt>
      <trkpt lat="45.19749" lon="6.61573">
        <ele>1021</ele>
        <time>2020-09-15T02:36:32Z</time>
      </trkpt>
      <trkpt lat="45.19783" lon="6.61437">
        <ele>1028</ele>
        <time>2020-09-15T02:36:50Z</time>
      </trkpt>
      <trkpt lat="45.19801" lon="6.61387">
        <ele>1024</ele>
        <time>2020-09-15T02:36:57Z</time>
      </trkpt>
      <trkpt lat="45.19832" lon="6.61318">
        <ele>1013</ele>
        <time>2020-09-15T02:37:07Z</time>
      </trkpt>
      <trkpt lat="45.19846" lon="6.61281">
        <ele>1017</ele>
        <time>2020-09-15T02:37:13Z</time>
      </trkpt>
      <trkpt lat="45.19857" lon="6.61243">
        <ele>1019</ele>
        <time>2020-09-15T02:37:18Z</time>
      </trkpt>
      <trkpt lat="45.1986" lon="6.61224">
        <ele>1019</ele>
        <time>2020-09-15T02:37:20Z</time>
      </trkpt>
      <trkpt lat="45.19864" lon="6.61185">
        <ele>1018</ele>
        <time>2020-09-15T02:37:25Z</time>
      </trkpt>
      <trkpt lat="45.19866" lon="6.61067">
        <ele>1015</ele>
        <time>2020-09-15T02:37:40Z</time>
      </trkpt>
      <trkpt lat="45.19869" lon="6.61008">
        <ele>1007</ele>
        <time>2020-09-15T02:37:47Z</time>
      </trkpt>
      <trkpt lat="45.199" lon="6.60711">
        <ele>992</ele>
        <time>2020-09-15T02:38:25Z</time>
      </trkpt>
      <trkpt lat="45.19903" lon="6.60649">
        <ele>990</ele>
        <time>2020-09-15T02:38:33Z</time>
      </trkpt>
      <trkpt lat="45.19901" lon="6.6046">
        <ele>988</ele>
        <time>2020-09-15T02:38:56Z</time>
      </trkpt>
      <trkpt lat="45.19897" lon="6.60367">
        <ele>982</ele>
        <time>2020-09-15T02:39:08Z</time>
      </trkpt>
      <trkpt lat="45.19895" lon="6.60349">
        <ele>982</ele>
        <time>2020-09-15T02:39:10Z</time>
      </trkpt>
      <trkpt lat="45.19877" lon="6.60264">
        <ele>987</ele>
        <time>2020-09-15T02:39:22Z</time>
      </trkpt>
      <trkpt lat="45.19874" lon="6.60235">
        <ele>992</ele>
        <time>2020-09-15T02:39:25Z</time>
      </trkpt>
      <trkpt lat="45.19873" lon="6.60214">
        <ele>997</ele>
        <time>2020-09-15T02:39:28Z</time>
      </trkpt>
      <trkpt lat="45.19875" lon="6.60186">
        <ele>1001</ele>
        <time>2020-09-15T02:39:31Z</time>
      </trkpt>
      <trkpt lat="45.19881" lon="6.60152">
        <ele>1003</ele>
        <time>2020-09-15T02:39:36Z</time>
      </trkpt>
      <trkpt lat="45.19886" lon="6.60134">
        <ele>1001</ele>
        <time>2020-09-15T02:39:38Z</time>
      </trkpt>
      <trkpt lat="45.19896" lon="6.60111">
        <ele>994</ele>
        <time>2020-09-15T02:39:42Z</time>
      </trkpt>
      <trkpt lat="45.19973" lon="6.59981">
        <ele>972</ele>
        <time>2020-09-15T02:40:03Z</time>
      </trkpt>
      <trkpt lat="45.19992" lon="6.59943">
        <ele>967</ele>
        <time>2020-09-15T02:40:09Z</time>
      </trkpt>
      <trkpt lat="45.20003" lon="6.59917">
        <ele>964</ele>
        <time>2020-09-15T02:40:13Z</time>
      </trkpt>
      <trkpt lat="45.20012" lon="6.59886">
        <ele>965</ele>
        <time>2020-09-15T02:40:17Z</time>
      </trkpt>
      <trkpt lat="45.20019" lon="6.59849">
        <ele>966</ele>
        <time>2020-09-15T02:40:22Z</time>
      </trkpt>
      <trkpt lat="45.20022" lon="6.59794">
        <ele>966</ele>
        <time>2020-09-15T02:40:28Z</time>
      </trkpt>
      <trkpt lat="45.2002" lon="6.59765">
        <ele>967</ele>
        <time>2020-09-15T02:40:32Z</time>
      </trkpt>
      <trkpt lat="45.20012" lon="6.59703">
        <ele>970</ele>
        <time>2020-09-15T02:40:40Z</time>
      </trkpt>
      <trkpt lat="45.20011" lon="6.59677">
        <ele>971</ele>
        <time>2020-09-15T02:40:43Z</time>
      </trkpt>
      <trkpt lat="45.20011" lon="6.59647">
        <ele>972</ele>
        <time>2020-09-15T02:40:47Z</time>
      </trkpt>
      <trkpt lat="45.20014" lon="6.59609">
        <ele>974</ele>
        <time>2020-09-15T02:40:52Z</time>
      </trkpt>
      <trkpt lat="45.20023" lon="6.59551">
        <ele>977</ele>
        <time>2020-09-15T02:40:59Z</time>
      </trkpt>
      <trkpt lat="45.20028" lon="6.59526">
        <ele>978</ele>
        <time>2020-09-15T02:41:03Z</time>
      </trkpt>
      <trkpt lat="45.20047" lon="6.59466">
        <ele>974</ele>
        <time>2020-09-15T02:41:11Z</time>
      </trkpt>
      <trkpt lat="45.20107" lon="6.59301">
        <ele>959</ele>
        <time>2020-09-15T02:41:34Z</time>
      </trkpt>
      <trkpt lat="45.20121" lon="6.59254">
        <ele>959</ele>
        <time>2020-09-15T02:41:40Z</time>
      </trkpt>
      <trkpt lat="45.20135" lon="6.59199">
        <ele>958</ele>
        <time>2020-09-15T02:41:48Z</time>
      </trkpt>
      <trkpt lat="45.20149" lon="6.59112">
        <ele>955</ele>
        <time>2020-09-15T02:41:59Z</time>
      </trkpt>
      <trkpt lat="45.20166" lon="6.58943">
        <ele>949</ele>
        <time>2020-09-15T02:42:20Z</time>
      </trkpt>
      <trkpt lat="45.20179" lon="6.58878">
        <ele>949</ele>
        <time>2020-09-15T02:42:29Z</time>
      </trkpt>
      <trkpt lat="45.20188" lon="6.58847">
        <ele>949</ele>
        <time>2020-09-15T02:42:33Z</time>
      </trkpt>
      <trkpt lat="45.20197" lon="6.58821">
        <ele>948</ele>
        <time>2020-09-15T02:42:37Z</time>
      </trkpt>
      <trkpt lat="45.20223" lon="6.58768">
        <ele>945</ele>
        <time>2020-09-15T02:42:45Z</time>
      </trkpt>
      <trkpt lat="45.20254" lon="6.58691">
        <ele>941</ele>
        <time>2020-09-15T02:42:56Z</time>
      </trkpt>
      <trkpt lat="45.20265" lon="6.58654">
        <ele>940</ele>
        <time>2020-09-15T02:43:01Z</time>
      </trkpt>
      <trkpt lat="45.20319" lon="6.58442">
        <ele>936</ele>
        <time>2020-09-15T02:43:29Z</time>
      </trkpt>
      <trkpt lat="45.20349" lon="6.58337">
        <ele>936</ele>
        <time>2020-09-15T02:43:43Z</time>
      </trkpt>
      <trkpt lat="45.20373" lon="6.58274">
        <ele>931</ele>
        <time>2020-09-15T02:43:52Z</time>
      </trkpt>
      <trkpt lat="45.20476" lon="6.58023">
        <ele>929</ele>
        <time>2020-09-15T02:44:29Z</time>
      </trkpt>
      <trkpt lat="45.20492" lon="6.57975">
        <ele>925</ele>
        <time>2020-09-15T02:44:35Z</time>
      </trkpt>
      <trkpt lat="45.2051" lon="6.57912">
        <ele>923</ele>
        <time>2020-09-15T02:44:44Z</time>
      </trkpt>
      <trkpt lat="45.20524" lon="6.57841">
        <ele>923</ele>
        <time>2020-09-15T02:44:53Z</time>
      </trkpt>
      <trkpt lat="45.20667" lon="6.56994">
        <ele>923</ele>
        <time>2020-09-15T02:46:42Z</time>
      </trkpt>
      <trkpt lat="45.20672" lon="6.56964">
        <ele>923</ele>
        <time>2020-09-15T02:46:46Z</time>
      </trkpt>
      <trkpt lat="45.20693" lon="6.56833">
        <ele>924</ele>
        <time>2020-09-15T02:47:03Z</time>
      </trkpt>
      <trkpt lat="45.207" lon="6.56725">
        <ele>925</ele>
        <time>2020-09-15T02:47:17Z</time>
      </trkpt>
      <trkpt lat="45.20702" lon="6.56676">
        <ele>927</ele>
        <time>2020-09-15T02:47:23Z</time>
      </trkpt>
      <trkpt lat="45.20701" lon="6.56605">
        <ele>928</ele>
        <time>2020-09-15T02:47:32Z</time>
      </trkpt>
      <trkpt lat="45.20705" lon="6.56568">
        <ele>927</ele>
        <time>2020-09-15T02:47:36Z</time>
      </trkpt>
      <trkpt lat="45.20713" lon="6.56524">
        <ele>925</ele>
        <time>2020-09-15T02:47:42Z</time>
      </trkpt>
      <trkpt lat="45.20741" lon="6.56424">
        <ele>923</ele>
        <time>2020-09-15T02:47:56Z</time>
      </trkpt>
      <trkpt lat="45.20744" lon="6.56404">
        <ele>924</ele>
        <time>2020-09-15T02:47:58Z</time>
      </trkpt>
      <trkpt lat="45.20744" lon="6.56375">
        <ele>928</ele>
        <time>2020-09-15T02:48:02Z</time>
      </trkpt>
      <trkpt lat="45.20742" lon="6.56344">
        <ele>931</ele>
        <time>2020-09-15T02:48:06Z</time>
      </trkpt>
      <trkpt lat="45.20736" lon="6.56307">
        <ele>934</ele>
        <time>2020-09-15T02:48:11Z</time>
      </trkpt>
      <trkpt lat="45.20715" lon="6.56213">
        <ele>938</ele>
        <time>2020-09-15T02:48:23Z</time>
      </trkpt>
      <trkpt lat="45.20714" lon="6.56163">
        <ele>940</ele>
        <time>2020-09-15T02:48:29Z</time>
      </trkpt>
      <trkpt lat="45.20711" lon="6.56139">
        <ele>941</ele>
        <time>2020-09-15T02:48:32Z</time>
      </trkpt>
      <trkpt lat="45.20705" lon="6.56104">
        <ele>942</ele>
        <time>2020-09-15T02:48:37Z</time>
      </trkpt>
      <trkpt lat="45.20685" lon="6.56045">
        <ele>938</ele>
        <time>2020-09-15T02:48:45Z</time>
      </trkpt>
      <trkpt lat="45.20682" lon="6.56011">
        <ele>937</ele>
        <time>2020-09-15T02:48:49Z</time>
      </trkpt>
      <trkpt lat="45.20682" lon="6.55981">
        <ele>937</ele>
        <time>2020-09-15T02:48:53Z</time>
      </trkpt>
      <trkpt lat="45.20704" lon="6.55825">
        <ele>935</ele>
        <time>2020-09-15T02:49:13Z</time>
      </trkpt>
      <trkpt lat="45.20706" lon="6.55792">
        <ele>932</ele>
        <time>2020-09-15T02:49:17Z</time>
      </trkpt>
      <trkpt lat="45.20701" lon="6.55759">
        <ele>927</ele>
        <time>2020-09-15T02:49:21Z</time>
      </trkpt>
      <trkpt lat="45.2069" lon="6.55695">
        <ele>922</ele>
        <time>2020-09-15T02:49:30Z</time>
      </trkpt>
      <trkpt lat="45.20665" lon="6.55577">
        <ele>917</ele>
        <time>2020-09-15T02:49:45Z</time>
      </trkpt>
      <trkpt lat="45.20661" lon="6.55529">
        <ele>920</ele>
        <time>2020-09-15T02:49:51Z</time>
      </trkpt>
      <trkpt lat="45.20662" lon="6.55499">
        <ele>921</ele>
        <time>2020-09-15T02:49:55Z</time>
      </trkpt>
      <trkpt lat="45.20667" lon="6.55453">
        <ele>916</ele>
        <time>2020-09-15T02:50:01Z</time>
      </trkpt>
      <trkpt lat="45.20704" lon="6.5517">
        <ele>905</ele>
        <time>2020-09-15T02:50:37Z</time>
      </trkpt>
      <trkpt lat="45.20716" lon="6.55064">
        <ele>900</ele>
        <time>2020-09-15T02:50:50Z</time>
      </trkpt>
      <trkpt lat="45.20724" lon="6.55057">
        <ele>901</ele>
        <time>2020-09-15T02:50:52Z</time>
      </trkpt>
      <trkpt lat="45.20725" lon="6.55045">
        <ele>900</ele>
        <time>2020-09-15T02:50:53Z</time>
      </trkpt>
      <trkpt lat="45.20722" lon="6.55038">
        <ele>899</ele>
        <time>2020-09-15T02:50:54Z</time>
      </trkpt>
      <trkpt lat="45.20718" lon="6.55034">
        <ele>897</ele>
        <time>2020-09-15T02:50:55Z</time>
      </trkpt>
      <trkpt lat="45.20712" lon="6.55034">
        <ele>896</ele>
        <time>2020-09-15T02:50:56Z</time>
      </trkpt>
      <trkpt lat="45.20709" lon="6.55012">
        <ele>894</ele>
        <time>2020-09-15T02:50:59Z</time>
      </trkpt>
      <trkpt lat="45.20726" lon="6.5494">
        <ele>889</ele>
        <time>2020-09-15T02:51:09Z</time>
      </trkpt>
      <trkpt lat="45.20741" lon="6.54725">
        <ele>880</ele>
        <time>2020-09-15T02:51:36Z</time>
      </trkpt>
      <trkpt lat="45.20742" lon="6.5471">
        <ele>880</ele>
        <time>2020-09-15T02:51:38Z</time>
      </trkpt>
      <trkpt lat="45.2075" lon="6.54542">
        <ele>877</ele>
        <time>2020-09-15T02:51:59Z</time>
      </trkpt>
      <trkpt lat="45.20748" lon="6.54498">
        <ele>875</ele>
        <time>2020-09-15T02:52:04Z</time>
      </trkpt>
      <trkpt lat="45.20736" lon="6.54423">
        <ele>876</ele>
        <time>2020-09-15T02:52:14Z</time>
      </trkpt>
      <trkpt lat="45.207" lon="6.54241">
        <ele>886</ele>
        <time>2020-09-15T02:52:38Z</time>
      </trkpt>
      <trkpt lat="45.20699" lon="6.54208">
        <ele>886</ele>
        <time>2020-09-15T02:52:42Z</time>
      </trkpt>
      <trkpt lat="45.20707" lon="6.54131">
        <ele>890</ele>
        <time>2020-09-15T02:52:52Z</time>
      </trkpt>
      <trkpt lat="45.20711" lon="6.54082">
        <ele>895</ele>
        <time>2020-09-15T02:52:58Z</time>
      </trkpt>
      <trkpt lat="45.2071" lon="6.54033">
        <ele>895</ele>
        <time>2020-09-15T02:53:04Z</time>
      </trkpt>
      <trkpt lat="45.20705" lon="6.53955">
        <ele>896</ele>
        <time>2020-09-15T02:53:14Z</time>
      </trkpt>
      <trkpt lat="45.20705" lon="6.53939">
        <ele>896</ele>
        <time>2020-09-15T02:53:16Z</time>
      </trkpt>
      <trkpt lat="45.20707" lon="6.53918">
        <ele>896</ele>
        <time>2020-09-15T02:53:18Z</time>
      </trkpt>
      <trkpt lat="45.20733" lon="6.53784">
        <ele>883</ele>
        <time>2020-09-15T02:53:36Z</time>
      </trkpt>
      <trkpt lat="45.20761" lon="6.53612">
        <ele>869</ele>
        <time>2020-09-15T02:53:58Z</time>
      </trkpt>
      <trkpt lat="45.20766" lon="6.53576">
        <ele>868</ele>
        <time>2020-09-15T02:54:03Z</time>
      </trkpt>
      <trkpt lat="45.20769" lon="6.53534">
        <ele>867</ele>
        <time>2020-09-15T02:54:08Z</time>
      </trkpt>
      <trkpt lat="45.2075" lon="6.5321">
        <ele>849</ele>
        <time>2020-09-15T02:54:49Z</time>
      </trkpt>
      <trkpt lat="45.20752" lon="6.53192">
        <ele>849</ele>
        <time>2020-09-15T02:54:51Z</time>
      </trkpt>
      <trkpt lat="45.20762" lon="6.53154">
        <ele>850</ele>
        <time>2020-09-15T02:54:56Z</time>
      </trkpt>
      <trkpt lat="45.20777" lon="6.5308">
        <ele>848</ele>
        <time>2020-09-15T02:55:06Z</time>
      </trkpt>
      <trkpt lat="45.2078" lon="6.53049">
        <ele>847</ele>
        <time>2020-09-15T02:55:10Z</time>
      </trkpt>
      <trkpt lat="45.20782" lon="6.53021">
        <ele>847</ele>
        <time>2020-09-15T02:55:13Z</time>
      </trkpt>
      <trkpt lat="45.2078" lon="6.52974">
        <ele>845</ele>
        <time>2020-09-15T02:55:19Z</time>
      </trkpt>
      <trkpt lat="45.20759" lon="6.52604">
        <ele>842</ele>
        <time>2020-09-15T02:56:05Z</time>
      </trkpt>
      <trkpt lat="45.20758" lon="6.52565">
        <ele>842</ele>
        <time>2020-09-15T02:56:10Z</time>
      </trkpt>
      <trkpt lat="45.20761" lon="6.52531">
        <ele>844</ele>
        <time>2020-09-15T02:56:15Z</time>
      </trkpt>
      <trkpt lat="45.20811" lon="6.52158">
        <ele>847</ele>
        <time>2020-09-15T02:57:02Z</time>
      </trkpt>
      <trkpt lat="45.20819" lon="6.52105">
        <ele>845</ele>
        <time>2020-09-15T02:57:09Z</time>
      </trkpt>
      <trkpt lat="45.20837" lon="6.52055">
        <ele>841</ele>
        <time>2020-09-15T02:57:16Z</time>
      </trkpt>
      <trkpt lat="45.20912" lon="6.51888">
        <ele>841</ele>
        <time>2020-09-15T02:57:41Z</time>
      </trkpt>
      <trkpt lat="45.20924" lon="6.51853">
        <ele>837</ele>
        <time>2020-09-15T02:57:46Z</time>
      </trkpt>
      <trkpt lat="45.20928" lon="6.51821">
        <ele>834</ele>
        <time>2020-09-15T02:57:50Z</time>
      </trkpt>
      <trkpt lat="45.20926" lon="6.51714">
        <ele>834</ele>
        <time>2020-09-15T02:58:03Z</time>
      </trkpt>
      <trkpt lat="45.20929" lon="6.51697">
        <ele>836</ele>
        <time>2020-09-15T02:58:05Z</time>
      </trkpt>
      <trkpt lat="45.20934" lon="6.51679">
        <ele>838</ele>
        <time>2020-09-15T02:58:08Z</time>
      </trkpt>
      <trkpt lat="45.20963" lon="6.516">
        <ele>841</ele>
        <time>2020-09-15T02:58:19Z</time>
      </trkpt>
      <trkpt lat="45.20975" lon="6.51562">
        <ele>839</ele>
        <time>2020-09-15T02:58:24Z</time>
      </trkpt>
      <trkpt lat="45.20982" lon="6.51522">
        <ele>836</ele>
        <time>2020-09-15T02:58:29Z</time>
      </trkpt>
      <trkpt lat="45.21003" lon="6.51338">
        <ele>827</ele>
        <time>2020-09-15T02:58:53Z</time>
      </trkpt>
      <trkpt lat="45.21005" lon="6.51317">
        <ele>830</ele>
        <time>2020-09-15T02:58:55Z</time>
      </trkpt>
      <trkpt lat="45.21011" lon="6.51271">
        <ele>837</ele>
        <time>2020-09-15T02:59:01Z</time>
      </trkpt>
      <trkpt lat="45.21018" lon="6.51242">
        <ele>840</ele>
        <time>2020-09-15T02:59:05Z</time>
      </trkpt>
      <trkpt lat="45.21086" lon="6.51048">
        <ele>820</ele>
        <time>2020-09-15T02:59:32Z</time>
      </trkpt>
      <trkpt lat="45.21093" lon="6.51023">
        <ele>820</ele>
        <time>2020-09-15T02:59:36Z</time>
      </trkpt>
      <trkpt lat="45.21108" lon="6.50956">
        <ele>820</ele>
        <time>2020-09-15T02:59:45Z</time>
      </trkpt>
      <trkpt lat="45.21114" lon="6.50905">
        <ele>818</ele>
        <time>2020-09-15T02:59:51Z</time>
      </trkpt>
      <trkpt lat="45.21126" lon="6.50565">
        <ele>795</ele>
        <time>2020-09-15T03:00:34Z</time>
      </trkpt>
      <trkpt lat="45.21123" lon="6.50445">
        <ele>791</ele>
        <time>2020-09-15T03:00:49Z</time>
      </trkpt>
      <trkpt lat="45.21095" lon="6.49909">
        <ele>777</ele>
        <time>2020-09-15T03:01:56Z</time>
      </trkpt>
      <trkpt lat="45.21073" lon="6.49133">
        <ele>759</ele>
        <time>2020-09-15T03:03:33Z</time>
      </trkpt>
      <trkpt lat="45.21069" lon="6.49091">
        <ele>761</ele>
        <time>2020-09-15T03:03:39Z</time>
      </trkpt>
      <trkpt lat="45.21058" lon="6.49027">
        <ele>762</ele>
        <time>2020-09-15T03:03:47Z</time>
      </trkpt>
      <trkpt lat="45.21048" lon="6.48983">
        <ele>762</ele>
        <time>2020-09-15T03:03:53Z</time>
      </trkpt>
      <trkpt lat="45.21039" lon="6.48938">
        <ele>761</ele>
        <time>2020-09-15T03:03:59Z</time>
      </trkpt>
      <trkpt lat="45.21032" lon="6.48898">
        <ele>759</ele>
        <time>2020-09-15T03:04:04Z</time>
      </trkpt>
      <trkpt lat="45.21022" lon="6.48823">
        <ele>755</ele>
        <time>2020-09-15T03:04:13Z</time>
      </trkpt>
      <trkpt lat="45.2102" lon="6.48793">
        <ele>754</ele>
        <time>2020-09-15T03:04:17Z</time>
      </trkpt>
      <trkpt lat="45.21018" lon="6.48767">
        <ele>754</ele>
        <time>2020-09-15T03:04:20Z</time>
      </trkpt>
      <trkpt lat="45.21016" lon="6.48706">
        <ele>754</ele>
        <time>2020-09-15T03:04:28Z</time>
      </trkpt>
      <trkpt lat="45.21016" lon="6.48673">
        <ele>753</ele>
        <time>2020-09-15T03:04:32Z</time>
      </trkpt>
      <trkpt lat="45.21019" lon="6.48653">
        <ele>753</ele>
        <time>2020-09-15T03:04:35Z</time>
      </trkpt>
      <trkpt lat="45.21022" lon="6.48636">
        <ele>753</ele>
        <time>2020-09-15T03:04:37Z</time>
      </trkpt>
      <trkpt lat="45.21024" lon="6.48628">
        <ele>752</ele>
        <time>2020-09-15T03:04:38Z</time>
      </trkpt>
      <trkpt lat="45.21031" lon="6.48604">
        <ele>752</ele>
        <time>2020-09-15T03:04:41Z</time>
      </trkpt>
      <trkpt lat="45.21055" lon="6.48535">
        <ele>751</ele>
        <time>2020-09-15T03:04:51Z</time>
      </trkpt>
      <trkpt lat="45.21064" lon="6.4851">
        <ele>752</ele>
        <time>2020-09-15T03:04:55Z</time>
      </trkpt>
      <trkpt lat="45.21073" lon="6.48472">
        <ele>752</ele>
        <time>2020-09-15T03:05:00Z</time>
      </trkpt>
      <trkpt lat="45.21075" lon="6.48452">
        <ele>752</ele>
        <time>2020-09-15T03:05:02Z</time>
      </trkpt>
      <trkpt lat="45.21075" lon="6.48426">
        <ele>751</ele>
        <time>2020-09-15T03:05:05Z</time>
      </trkpt>
      <trkpt lat="45.21075" lon="6.48404">
        <ele>750</ele>
        <time>2020-09-15T03:05:08Z</time>
      </trkpt>
      <trkpt lat="45.21073" lon="6.48301">
        <ele>742</ele>
        <time>2020-09-15T03:05:21Z</time>
      </trkpt>
      <trkpt lat="45.2107" lon="6.48259">
        <ele>740</ele>
        <time>2020-09-15T03:05:26Z</time>
      </trkpt>
      <trkpt lat="45.21066" lon="6.48221">
        <ele>739</ele>
        <time>2020-09-15T03:05:31Z</time>
      </trkpt>
      <trkpt lat="45.21058" lon="6.48182">
        <ele>739</ele>
        <time>2020-09-15T03:05:36Z</time>
      </trkpt>
      <trkpt lat="45.21026" lon="6.48039">
        <ele>733</ele>
        <time>2020-09-15T03:05:55Z</time>
      </trkpt>
      <trkpt lat="45.21023" lon="6.48004">
        <ele>731</ele>
        <time>2020-09-15T03:05:59Z</time>
      </trkpt>
      <trkpt lat="45.21026" lon="6.47976">
        <ele>730</ele>
        <time>2020-09-15T03:06:03Z</time>
      </trkpt>
      <trkpt lat="45.2103" lon="6.47961">
        <ele>730</ele>
        <time>2020-09-15T03:06:05Z</time>
      </trkpt>
      <trkpt lat="45.21034" lon="6.4795">
        <ele>730</ele>
        <time>2020-09-15T03:06:07Z</time>
      </trkpt>
      <trkpt lat="45.21038" lon="6.47942">
        <ele>730</ele>
        <time>2020-09-15T03:06:08Z</time>
      </trkpt>
      <trkpt lat="45.21044" lon="6.47933">
        <ele>730</ele>
        <time>2020-09-15T03:06:09Z</time>
      </trkpt>
      <trkpt lat="45.21052" lon="6.47923">
        <ele>730</ele>
        <time>2020-09-15T03:06:11Z</time>
      </trkpt>
      <trkpt lat="45.21063" lon="6.47912">
        <ele>730</ele>
        <time>2020-09-15T03:06:14Z</time>
      </trkpt>
      <trkpt lat="45.21137" lon="6.47862">
        <ele>729</ele>
        <time>2020-09-15T03:06:28Z</time>
      </trkpt>
      <trkpt lat="45.21177" lon="6.47835">
        <ele>729</ele>
        <time>2020-09-15T03:06:36Z</time>
      </trkpt>
      <trkpt lat="45.21392" lon="6.47685">
        <ele>727</ele>
        <time>2020-09-15T03:07:19Z</time>
      </trkpt>
      <trkpt lat="45.21446" lon="6.47641">
        <ele>728</ele>
        <time>2020-09-15T03:07:30Z</time>
      </trkpt>
      <trkpt lat="45.21471" lon="6.47615">
        <ele>727</ele>
        <time>2020-09-15T03:07:35Z</time>
      </trkpt>
      <trkpt lat="45.21544" lon="6.47522">
        <ele>720</ele>
        <time>2020-09-15T03:07:53Z</time>
      </trkpt>
      <trkpt lat="45.2156" lon="6.47504">
        <ele>718</ele>
        <time>2020-09-15T03:07:56Z</time>
      </trkpt>
      <trkpt lat="45.21569" lon="6.4749">
        <ele>717</ele>
        <time>2020-09-15T03:07:59Z</time>
      </trkpt>
      <trkpt lat="45.21559" lon="6.47483">
        <ele>717</ele>
        <time>2020-09-15T03:08:01Z</time>
      </trkpt>
      <trkpt lat="45.21538" lon="6.47466">
        <ele>716</ele>
        <time>2020-09-15T03:08:05Z</time>
      </trkpt>
      <trkpt lat="45.21532" lon="6.47457">
        <ele>715</ele>
        <time>2020-09-15T03:08:07Z</time>
      </trkpt>
      <trkpt lat="45.21474" lon="6.47365">
        <ele>717</ele>
        <time>2020-09-15T03:08:22Z</time>
      </trkpt>
      <trkpt lat="45.21443" lon="6.47317">
        <ele>723</ele>
        <time>2020-09-15T03:08:30Z</time>
      </trkpt>
      <trkpt lat="45.21422" lon="6.47291">
        <ele>726</ele>
        <time>2020-09-15T03:08:35Z</time>
      </trkpt>
      <trkpt lat="45.21391" lon="6.47261">
        <ele>732</ele>
        <time>2020-09-15T03:08:42Z</time>
      </trkpt>
      <trkpt lat="45.21381" lon="6.47248">
        <ele>733</ele>
        <time>2020-09-15T03:08:44Z</time>
      </trkpt>
      <trkpt lat="45.2137" lon="6.47221">
        <ele>733</ele>
        <time>2020-09-15T03:08:48Z</time>
      </trkpt>
      <trkpt lat="45.21349" lon="6.4715">
        <ele>734</ele>
        <time>2020-09-15T03:08:58Z</time>
      </trkpt>
      <trkpt lat="45.21337" lon="6.47109">
        <ele>735</ele>
        <time>2020-09-15T03:09:03Z</time>
      </trkpt>
      <trkpt lat="45.21336" lon="6.47105">
        <ele>735</ele>
        <time>2020-09-15T03:09:04Z</time>
      </trkpt>
      <trkpt lat="45.21334" lon="6.47096">
        <ele>735</ele>
        <time>2020-09-15T03:09:05Z</time>
      </trkpt>
      <trkpt lat="45.21333" lon="6.47093">
        <ele>735</ele>
        <time>2020-09-15T03:09:06Z</time>
      </trkpt>
      <trkpt lat="45.2133" lon="6.47083">
        <ele>735</ele>
        <time>2020-09-15T03:09:07Z</time>
      </trkpt>
      <trkpt lat="45.21327" lon="6.47067">
        <ele>738</ele>
        <time>2020-09-15T03:09:09Z</time>
      </trkpt>
      <trkpt lat="45.21327" lon="6.47057">
        <ele>739</ele>
        <time>2020-09-15T03:09:10Z</time>
      </trkpt>
      <trkpt lat="45.21328" lon="6.47052">
        <ele>740</ele>
        <time>2020-09-15T03:09:11Z</time>
      </trkpt>
      <trkpt lat="45.21329" lon="6.47049">
        <ele>740</ele>
        <time>2020-09-15T03:09:11Z</time>
      </trkpt>
      <trkpt lat="45.21335" lon="6.4704">
        <ele>741</ele>
        <time>2020-09-15T03:09:13Z</time>
      </trkpt>
      <trkpt lat="45.21344" lon="6.47036">
        <ele>741</ele>
        <time>2020-09-15T03:09:15Z</time>
      </trkpt>
      <trkpt lat="45.2135" lon="6.47036">
        <ele>741</ele>
        <time>2020-09-15T03:09:16Z</time>
      </trkpt>
      <trkpt lat="45.21389" lon="6.47043">
        <ele>738</ele>
        <time>2020-09-15T03:09:23Z</time>
      </trkpt>
      <trkpt lat="45.21404" lon="6.47038">
        <ele>738</ele>
        <time>2020-09-15T03:09:25Z</time>
      </trkpt>
      <trkpt lat="45.21412" lon="6.47029">
        <ele>739</ele>
        <time>2020-09-15T03:09:27Z</time>
      </trkpt>
      <trkpt lat="45.21426" lon="6.47005">
        <ele>741</ele>
        <time>2020-09-15T03:09:31Z</time>
      </trkpt>
      <trkpt lat="45.21432" lon="6.46989">
        <ele>742</ele>
        <time>2020-09-15T03:09:33Z</time>
      </trkpt>
      <trkpt lat="45.21435" lon="6.46967">
        <ele>743</ele>
        <time>2020-09-15T03:09:36Z</time>
      </trkpt>
      <trkpt lat="45.21435" lon="6.4696">
        <ele>743</ele>
        <time>2020-09-15T03:09:37Z</time>
      </trkpt>
      <trkpt lat="45.21435" lon="6.46935">
        <ele>744</ele>
        <time>2020-09-15T03:09:40Z</time>
      </trkpt>
      <trkpt lat="45.21435" lon="6.46923">
        <ele>745</ele>
        <time>2020-09-15T03:09:42Z</time>
      </trkpt>
      <trkpt lat="45.21434" lon="6.46913">
        <ele>745</ele>
        <time>2020-09-15T03:09:43Z</time>
      </trkpt>
      <trkpt lat="45.21433" lon="6.46905">
        <ele>745</ele>
        <time>2020-09-15T03:09:44Z</time>
      </trkpt>
      <trkpt lat="45.21429" lon="6.46891">
        <ele>745</ele>
        <time>2020-09-15T03:09:46Z</time>
      </trkpt>
      <trkpt lat="45.2142" lon="6.46871">
        <ele>746</ele>
        <time>2020-09-15T03:09:49Z</time>
      </trkpt>
      <trkpt lat="45.21371" lon="6.46803">
        <ele>754</ele>
        <time>2020-09-15T03:10:01Z</time>
      </trkpt>
      <trkpt lat="45.21344" lon="6.46778">
        <ele>757</ele>
        <time>2020-09-15T03:10:07Z</time>
      </trkpt>
      <trkpt lat="45.21328" lon="6.46769">
        <ele>759</ele>
        <time>2020-09-15T03:10:10Z</time>
      </trkpt>
      <trkpt lat="45.21311" lon="6.46763">
        <ele>762</ele>
        <time>2020-09-15T03:10:13Z</time>
      </trkpt>
      <trkpt lat="45.21292" lon="6.46759">
        <ele>764</ele>
        <time>2020-09-15T03:10:16Z</time>
      </trkpt>
      <trkpt lat="45.21277" lon="6.46757">
        <ele>766</ele>
        <time>2020-09-15T03:10:19Z</time>
      </trkpt>
      <trkpt lat="45.21268" lon="6.46754">
        <ele>767</ele>
        <time>2020-09-15T03:10:21Z</time>
      </trkpt>
      <trkpt lat="45.2126" lon="6.46747">
        <ele>769</ele>
        <time>2020-09-15T03:10:22Z</time>
      </trkpt>
      <trkpt lat="45.21256" lon="6.46739">
        <ele>769</ele>
        <time>2020-09-15T03:10:24Z</time>
      </trkpt>
      <trkpt lat="45.21254" lon="6.46728">
        <ele>769</ele>
        <time>2020-09-15T03:10:25Z</time>
      </trkpt>
      <trkpt lat="45.21253" lon="6.46721">
        <ele>769</ele>
        <time>2020-09-15T03:10:26Z</time>
      </trkpt>
      <trkpt lat="45.21253" lon="6.46709">
        <ele>769</ele>
        <time>2020-09-15T03:10:27Z</time>
      </trkpt>
      <trkpt lat="45.21252" lon="6.46696">
        <ele>768</ele>
        <time>2020-09-15T03:10:29Z</time>
      </trkpt>
      <trkpt lat="45.21251" lon="6.46663">
        <ele>768</ele>
        <time>2020-09-15T03:10:33Z</time>
      </trkpt>
      <trkpt lat="45.2125" lon="6.46634">
        <ele>771</ele>
        <time>2020-09-15T03:10:37Z</time>
      </trkpt>
      <trkpt lat="45.21249" lon="6.46624">
        <ele>772</ele>
        <time>2020-09-15T03:10:38Z</time>
      </trkpt>
      <trkpt lat="45.21244" lon="6.46605">
        <ele>775</ele>
        <time>2020-09-15T03:10:41Z</time>
      </trkpt>
      <trkpt lat="45.21235" lon="6.46594">
        <ele>778</ele>
        <time>2020-09-15T03:10:43Z</time>
      </trkpt>
      <trkpt lat="45.21228" lon="6.46591">
        <ele>779</ele>
        <time>2020-09-15T03:10:44Z</time>
      </trkpt>
      <trkpt lat="45.21217" lon="6.46592">
        <ele>781</ele>
        <time>2020-09-15T03:10:46Z</time>
      </trkpt>
      <trkpt lat="45.21211" lon="6.46596">
        <ele>782</ele>
        <time>2020-09-15T03:10:47Z</time>
      </trkpt>
      <trkpt lat="45.212" lon="6.46616">
        <ele>782</ele>
        <time>2020-09-15T03:10:50Z</time>
      </trkpt>
      <trkpt lat="45.21192" lon="6.46624">
        <ele>783</ele>
        <time>2020-09-15T03:10:52Z</time>
      </trkpt>
      <trkpt lat="45.2118" lon="6.4663">
        <ele>785</ele>
        <time>2020-09-15T03:10:54Z</time>
      </trkpt>
      <trkpt lat="45.21155" lon="6.46636">
        <ele>791</ele>
        <time>2020-09-15T03:10:59Z</time>
      </trkpt>
      <trkpt lat="45.2115" lon="6.46639">
        <ele>792</ele>
        <time>2020-09-15T03:11:00Z</time>
      </trkpt>
      <trkpt lat="45.21142" lon="6.46647">
        <ele>795</ele>
        <time>2020-09-15T03:11:02Z</time>
      </trkpt>
      <trkpt lat="45.21139" lon="6.46657">
        <ele>795</ele>
        <time>2020-09-15T03:11:03Z</time>
      </trkpt>
      <trkpt lat="45.21138" lon="6.46668">
        <ele>795</ele>
        <time>2020-09-15T03:11:04Z</time>
      </trkpt>
      <trkpt lat="45.21139" lon="6.46679">
        <ele>796</ele>
        <time>2020-09-15T03:11:06Z</time>
      </trkpt>
      <trkpt lat="45.21143" lon="6.46688">
        <ele>795</ele>
        <time>2020-09-15T03:11:07Z</time>
      </trkpt>
      <trkpt lat="45.21146" lon="6.46694">
        <ele>795</ele>
        <time>2020-09-15T03:11:08Z</time>
      </trkpt>
      <trkpt lat="45.21189" lon="6.46736">
        <ele>786</ele>
        <time>2020-09-15T03:11:17Z</time>
      </trkpt>
      <trkpt lat="45.21193" lon="6.46748">
        <ele>786</ele>
        <time>2020-09-15T03:11:19Z</time>
      </trkpt>
      <trkpt lat="45.21193" lon="6.46756">
        <ele>786</ele>
        <time>2020-09-15T03:11:20Z</time>
      </trkpt>
      <trkpt lat="45.21188" lon="6.46775">
        <ele>787</ele>
        <time>2020-09-15T03:11:22Z</time>
      </trkpt>
      <trkpt lat="45.2117" lon="6.46807">
        <ele>791</ele>
        <time>2020-09-15T03:11:28Z</time>
      </trkpt>
      <trkpt lat="45.21125" lon="6.46864">
        <ele>797</ele>
        <time>2020-09-15T03:11:38Z</time>
      </trkpt>
      <trkpt lat="45.21107" lon="6.46878">
        <ele>800</ele>
        <time>2020-09-15T03:11:42Z</time>
      </trkpt>
      <trkpt lat="45.21033" lon="6.46923">
        <ele>812</ele>
        <time>2020-09-15T03:11:56Z</time>
      </trkpt>
      <trkpt lat="45.21017" lon="6.46937">
        <ele>812</ele>
        <time>2020-09-15T03:12:00Z</time>
      </trkpt>
      <trkpt lat="45.21002" lon="6.46957">
        <ele>811</ele>
        <time>2020-09-15T03:12:03Z</time>
      </trkpt>
      <trkpt lat="45.20998" lon="6.46958">
        <ele>812</ele>
        <time>2020-09-15T03:12:04Z</time>
      </trkpt>
      <trkpt lat="45.2099" lon="6.46953">
        <ele>815</ele>
        <time>2020-09-15T03:12:06Z</time>
      </trkpt>
      <trkpt lat="45.20987" lon="6.46946">
        <ele>817</ele>
        <time>2020-09-15T03:12:07Z</time>
      </trkpt>
      <trkpt lat="45.20987" lon="6.46935">
        <ele>820</ele>
        <time>2020-09-15T03:12:08Z</time>
      </trkpt>
      <trkpt lat="45.20998" lon="6.469">
        <ele>823</ele>
        <time>2020-09-15T03:12:13Z</time>
      </trkpt>
      <trkpt lat="45.21015" lon="6.46822">
        <ele>829</ele>
        <time>2020-09-15T03:12:23Z</time>
      </trkpt>
      <trkpt lat="45.21018" lon="6.46784">
        <ele>832</ele>
        <time>2020-09-15T03:12:28Z</time>
      </trkpt>
      <trkpt lat="45.21018" lon="6.46745">
        <ele>835</ele>
        <time>2020-09-15T03:12:33Z</time>
      </trkpt>
      <trkpt lat="45.2102" lon="6.46721">
        <ele>835</ele>
        <time>2020-09-15T03:12:36Z</time>
      </trkpt>
      <trkpt lat="45.21024" lon="6.46699">
        <ele>834</ele>
        <time>2020-09-15T03:12:39Z</time>
      </trkpt>
      <trkpt lat="45.21021" lon="6.46686">
        <ele>836</ele>
        <time>2020-09-15T03:12:40Z</time>
      </trkpt>
      <trkpt lat="45.21017" lon="6.46682">
        <ele>837</ele>
        <time>2020-09-15T03:12:41Z</time>
      </trkpt>
      <trkpt lat="45.21009" lon="6.46682">
        <ele>840</ele>
        <time>2020-09-15T03:12:43Z</time>
      </trkpt>
      <trkpt lat="45.21004" lon="6.46686">
        <ele>842</ele>
        <time>2020-09-15T03:12:44Z</time>
      </trkpt>
      <trkpt lat="45.20991" lon="6.46766">
        <ele>842</ele>
        <time>2020-09-15T03:12:54Z</time>
      </trkpt>
      <trkpt lat="45.20984" lon="6.46792">
        <ele>842</ele>
        <time>2020-09-15T03:12:57Z</time>
      </trkpt>
      <trkpt lat="45.20962" lon="6.46833">
        <ele>844</ele>
        <time>2020-09-15T03:13:04Z</time>
      </trkpt>
      <trkpt lat="45.2095" lon="6.46846">
        <ele>846</ele>
        <time>2020-09-15T03:13:07Z</time>
      </trkpt>
      <trkpt lat="45.20926" lon="6.46862">
        <ele>850</ele>
        <time>2020-09-15T03:13:11Z</time>
      </trkpt>
      <trkpt lat="45.20908" lon="6.4687">
        <ele>854</ele>
        <time>2020-09-15T03:13:15Z</time>
      </trkpt>
      <trkpt lat="45.20854" lon="6.46887">
        <ele>862</ele>
        <time>2020-09-15T03:13:24Z</time>
      </trkpt>
      <trkpt lat="45.20825" lon="6.4691">
        <ele>864</ele>
        <time>2020-09-15T03:13:30Z</time>
      </trkpt>
      <trkpt lat="45.20792" lon="6.46941">
        <ele>864</ele>
        <time>2020-09-15T03:13:37Z</time>
      </trkpt>
      <trkpt lat="45.20788" lon="6.46943">
        <ele>865</ele>
        <time>2020-09-15T03:13:38Z</time>
      </trkpt>
      <trkpt lat="45.20781" lon="6.46941">
        <ele>867</ele>
        <time>2020-09-15T03:13:39Z</time>
      </trkpt>
      <trkpt lat="45.20776" lon="6.46936">
        <ele>870</ele>
        <time>2020-09-15T03:13:41Z</time>
      </trkpt>
      <trkpt lat="45.20773" lon="6.46927">
        <ele>873</ele>
        <time>2020-09-15T03:13:42Z</time>
      </trkpt>
      <trkpt lat="45.20773" lon="6.46918">
        <ele>875</ele>
        <time>2020-09-15T03:13:43Z</time>
      </trkpt>
      <trkpt lat="45.20779" lon="6.46906">
        <ele>876</ele>
        <time>2020-09-15T03:13:45Z</time>
      </trkpt>
      <trkpt lat="45.20844" lon="6.46838">
        <ele>874</ele>
        <time>2020-09-15T03:13:59Z</time>
      </trkpt>
      <trkpt lat="45.20854" lon="6.46824">
        <ele>875</ele>
        <time>2020-09-15T03:14:02Z</time>
      </trkpt>
      <trkpt lat="45.20868" lon="6.46775">
        <ele>881</ele>
        <time>2020-09-15T03:14:08Z</time>
      </trkpt>
      <trkpt lat="45.20886" lon="6.46743">
        <ele>880</ele>
        <time>2020-09-15T03:14:13Z</time>
      </trkpt>
      <trkpt lat="45.20892" lon="6.46724">
        <ele>880</ele>
        <time>2020-09-15T03:14:16Z</time>
      </trkpt>
      <trkpt lat="45.2089" lon="6.46702">
        <ele>883</ele>
        <time>2020-09-15T03:14:19Z</time>
      </trkpt>
      <trkpt lat="45.20877" lon="6.46662">
        <ele>893</ele>
        <time>2020-09-15T03:14:24Z</time>
      </trkpt>
      <trkpt lat="45.20873" lon="6.46643">
        <ele>896</ele>
        <time>2020-09-15T03:14:27Z</time>
      </trkpt>
      <trkpt lat="45.20873" lon="6.46628">
        <ele>896</ele>
        <time>2020-09-15T03:14:29Z</time>
      </trkpt>
      <trkpt lat="45.20878" lon="6.46586">
        <ele>896</ele>
        <time>2020-09-15T03:14:34Z</time>
      </trkpt>
      <trkpt lat="45.20878" lon="6.46578">
        <ele>896</ele>
        <time>2020-09-15T03:14:35Z</time>
      </trkpt>
      <trkpt lat="45.20876" lon="6.46562">
        <ele>897</ele>
        <time>2020-09-15T03:14:37Z</time>
      </trkpt>
      <trkpt lat="45.20868" lon="6.46531">
        <ele>899</ele>
        <time>2020-09-15T03:14:41Z</time>
      </trkpt>
      <trkpt lat="45.20867" lon="6.46499">
        <ele>899</ele>
        <time>2020-09-15T03:14:45Z</time>
      </trkpt>
      <trkpt lat="45.20867" lon="6.46445">
        <ele>900</ele>
        <time>2020-09-15T03:14:52Z</time>
      </trkpt>
      <trkpt lat="45.20865" lon="6.46432">
        <ele>901</ele>
        <time>2020-09-15T03:14:54Z</time>
      </trkpt>
      <trkpt lat="45.20862" lon="6.46425">
        <ele>902</ele>
        <time>2020-09-15T03:14:55Z</time>
      </trkpt>
      <trkpt lat="45.20847" lon="6.46412">
        <ele>905</ele>
        <time>2020-09-15T03:14:58Z</time>
      </trkpt>
      <trkpt lat="45.20802" lon="6.46396">
        <ele>918</ele>
        <time>2020-09-15T03:15:06Z</time>
      </trkpt>
      <trkpt lat="45.20792" lon="6.46388">
        <ele>922</ele>
        <time>2020-09-15T03:15:08Z</time>
      </trkpt>
      <trkpt lat="45.20785" lon="6.46377">
        <ele>925</ele>
        <time>2020-09-15T03:15:10Z</time>
      </trkpt>
      <trkpt lat="45.20782" lon="6.46363">
        <ele>927</ele>
        <time>2020-09-15T03:15:12Z</time>
      </trkpt>
      <trkpt lat="45.20784" lon="6.46349">
        <ele>927</ele>
        <time>2020-09-15T03:15:14Z</time>
      </trkpt>
      <trkpt lat="45.20797" lon="6.46311">
        <ele>924</ele>
        <time>2020-09-15T03:15:19Z</time>
      </trkpt>
      <trkpt lat="45.20801" lon="6.46259">
        <ele>926</ele>
        <time>2020-09-15T03:15:25Z</time>
      </trkpt>
      <trkpt lat="45.20802" lon="6.46235">
        <ele>926</ele>
        <time>2020-09-15T03:15:28Z</time>
      </trkpt>
      <trkpt lat="45.20802" lon="6.46219">
        <ele>925</ele>
        <time>2020-09-15T03:15:30Z</time>
      </trkpt>
      <trkpt lat="45.20799" lon="6.46207">
        <ele>927</ele>
        <time>2020-09-15T03:15:32Z</time>
      </trkpt>
      <trkpt lat="45.20782" lon="6.46176">
        <ele>936</ele>
        <time>2020-09-15T03:15:37Z</time>
      </trkpt>
      <trkpt lat="45.20774" lon="6.46157">
        <ele>940</ele>
        <time>2020-09-15T03:15:40Z</time>
      </trkpt>
      <trkpt lat="45.20768" lon="6.46104">
        <ele>939</ele>
        <time>2020-09-15T03:15:46Z</time>
      </trkpt>
      <trkpt lat="45.20752" lon="6.46063">
        <ele>943</ele>
        <time>2020-09-15T03:15:52Z</time>
      </trkpt>
      <trkpt lat="45.20751" lon="6.46055">
        <ele>943</ele>
        <time>2020-09-15T03:15:53Z</time>
      </trkpt>
      <trkpt lat="45.20749" lon="6.46025">
        <ele>941</ele>
        <time>2020-09-15T03:15:57Z</time>
      </trkpt>
      <trkpt lat="45.20745" lon="6.46012">
        <ele>943</ele>
        <time>2020-09-15T03:15:59Z</time>
      </trkpt>
      <trkpt lat="45.20743" lon="6.46007">
        <ele>943</ele>
        <time>2020-09-15T03:16:00Z</time>
      </trkpt>
      <trkpt lat="45.20718" lon="6.45982">
        <ele>956</ele>
        <time>2020-09-15T03:16:05Z</time>
      </trkpt>
      <trkpt lat="45.20714" lon="6.45968">
        <ele>958</ele>
        <time>2020-09-15T03:16:07Z</time>
      </trkpt>
      <trkpt lat="45.20713" lon="6.4596">
        <ele>959</ele>
        <time>2020-09-15T03:16:08Z</time>
      </trkpt>
      <trkpt lat="45.20714" lon="6.45947">
        <ele>959</ele>
        <time>2020-09-15T03:16:10Z</time>
      </trkpt>
      <trkpt lat="45.2072" lon="6.4593">
        <ele>957</ele>
        <time>2020-09-15T03:16:12Z</time>
      </trkpt>
      <trkpt lat="45.20757" lon="6.45841">
        <ele>957</ele>
        <time>2020-09-15T03:16:25Z</time>
      </trkpt>
      <trkpt lat="45.20768" lon="6.45811">
        <ele>960</ele>
        <time>2020-09-15T03:16:29Z</time>
      </trkpt>
      <trkpt lat="45.20775" lon="6.45801">
        <ele>961</ele>
        <time>2020-09-15T03:16:31Z</time>
      </trkpt>
      <trkpt lat="45.20785" lon="6.45795">
        <ele>961</ele>
        <time>2020-09-15T03:16:33Z</time>
      </trkpt>
      <trkpt lat="45.20835" lon="6.45795">
        <ele>957</ele>
        <time>2020-09-15T03:16:42Z</time>
      </trkpt>
      <trkpt lat="45.2087" lon="6.45782">
        <ele>962</ele>
        <time>2020-09-15T03:16:48Z</time>
      </trkpt>
      <trkpt lat="45.20884" lon="6.45784">
        <ele>962</ele>
        <time>2020-09-15T03:16:51Z</time>
      </trkpt>
      <trkpt lat="45.20909" lon="6.45789">
        <ele>961</ele>
        <time>2020-09-15T03:16:55Z</time>
      </trkpt>
      <trkpt lat="45.20919" lon="6.45789">
        <ele>962</ele>
        <time>2020-09-15T03:16:57Z</time>
      </trkpt>
      <trkpt lat="45.20929" lon="6.45785">
        <ele>964</ele>
        <time>2020-09-15T03:16:59Z</time>
      </trkpt>
      <trkpt lat="45.20938" lon="6.45779">
        <ele>966</ele>
        <time>2020-09-15T03:17:01Z</time>
      </trkpt>
      <trkpt lat="45.20968" lon="6.45751">
        <ele>975</ele>
        <time>2020-09-15T03:17:07Z</time>
      </trkpt>
      <trkpt lat="45.2098" lon="6.45746">
        <ele>976</ele>
        <time>2020-09-15T03:17:09Z</time>
      </trkpt>
      <trkpt lat="45.21023" lon="6.45745">
        <ele>975</ele>
        <time>2020-09-15T03:17:17Z</time>
      </trkpt>
      <trkpt lat="45.21036" lon="6.4575">
        <ele>974</ele>
        <time>2020-09-15T03:17:19Z</time>
      </trkpt>
      <trkpt lat="45.21061" lon="6.45769">
        <ele>969</ele>
        <time>2020-09-15T03:17:24Z</time>
      </trkpt>
      <trkpt lat="45.2107" lon="6.45768">
        <ele>969</ele>
        <time>2020-09-15T03:17:26Z</time>
      </trkpt>
      <trkpt lat="45.21074" lon="6.45759">
        <ele>970</ele>
        <time>2020-09-15T03:17:27Z</time>
      </trkpt>
      <trkpt lat="45.21073" lon="6.45749">
        <ele>972</ele>
        <time>2020-09-15T03:17:29Z</time>
      </trkpt>
      <trkpt lat="45.21069" lon="6.45741">
        <ele>972</ele>
        <time>2020-09-15T03:17:30Z</time>
      </trkpt>
      <trkpt lat="45.21031" lon="6.45684">
        <ele>981</ele>
        <time>2020-09-15T03:17:40Z</time>
      </trkpt>
      <trkpt lat="45.21018" lon="6.4566">
        <ele>987</ele>
        <time>2020-09-15T03:17:43Z</time>
      </trkpt>
      <trkpt lat="45.21008" lon="6.4563">
        <ele>992</ele>
        <time>2020-09-15T03:17:48Z</time>
      </trkpt>
      <trkpt lat="45.21001" lon="6.45598">
        <ele>996</ele>
        <time>2020-09-15T03:17:52Z</time>
      </trkpt>
      <trkpt lat="45.21001" lon="6.45576">
        <ele>998</ele>
        <time>2020-09-15T03:17:55Z</time>
      </trkpt>
      <trkpt lat="45.21007" lon="6.45546">
        <ele>1000</ele>
        <time>2020-09-15T03:17:58Z</time>
      </trkpt>
      <trkpt lat="45.21017" lon="6.45517">
        <ele>1001</ele>
        <time>2020-09-15T03:18:02Z</time>
      </trkpt>
      <trkpt lat="45.2104" lon="6.4547">
        <ele>1006</ele>
        <time>2020-09-15T03:18:10Z</time>
      </trkpt>
      <trkpt lat="45.21041" lon="6.45457">
        <ele>1009</ele>
        <time>2020-09-15T03:18:11Z</time>
      </trkpt>
      <trkpt lat="45.21035" lon="6.45446">
        <ele>1013</ele>
        <time>2020-09-15T03:18:13Z</time>
      </trkpt>
      <trkpt lat="45.21026" lon="6.45443">
        <ele>1016</ele>
        <time>2020-09-15T03:18:15Z</time>
      </trkpt>
      <trkpt lat="45.21021" lon="6.45446">
        <ele>1016</ele>
        <time>2020-09-15T03:18:16Z</time>
      </trkpt>
      <trkpt lat="45.21017" lon="6.45453">
        <ele>1015</ele>
        <time>2020-09-15T03:18:17Z</time>
      </trkpt>
      <trkpt lat="45.21009" lon="6.45472">
        <ele>1012</ele>
        <time>2020-09-15T03:18:20Z</time>
      </trkpt>
      <trkpt lat="45.21003" lon="6.45484">
        <ele>1010</ele>
        <time>2020-09-15T03:18:21Z</time>
      </trkpt>
      <trkpt lat="45.20996" lon="6.45493">
        <ele>1010</ele>
        <time>2020-09-15T03:18:23Z</time>
      </trkpt>
      <trkpt lat="45.20973" lon="6.45512">
        <ele>1012</ele>
        <time>2020-09-15T03:18:28Z</time>
      </trkpt>
      <trkpt lat="45.20966" lon="6.45521">
        <ele>1013</ele>
        <time>2020-09-15T03:18:29Z</time>
      </trkpt>
      <trkpt lat="45.20956" lon="6.45544">
        <ele>1013</ele>
        <time>2020-09-15T03:18:33Z</time>
      </trkpt>
      <trkpt lat="45.20951" lon="6.456">
        <ele>1007</ele>
        <time>2020-09-15T03:18:40Z</time>
      </trkpt>
      <trkpt lat="45.20945" lon="6.4561">
        <ele>1006</ele>
        <time>2020-09-15T03:18:42Z</time>
      </trkpt>
      <trkpt lat="45.2094" lon="6.45612">
        <ele>1007</ele>
        <time>2020-09-15T03:18:43Z</time>
      </trkpt>
      <trkpt lat="45.20931" lon="6.45612">
        <ele>1008</ele>
        <time>2020-09-15T03:18:44Z</time>
      </trkpt>
      <trkpt lat="45.20907" lon="6.45607">
        <ele>1011</ele>
        <time>2020-09-15T03:18:48Z</time>
      </trkpt>
      <trkpt lat="45.20898" lon="6.45602">
        <ele>1010</ele>
        <time>2020-09-15T03:18:50Z</time>
      </trkpt>
      <trkpt lat="45.20892" lon="6.45594">
        <ele>1011</ele>
        <time>2020-09-15T03:18:52Z</time>
      </trkpt>
      <trkpt lat="45.20886" lon="6.45579">
        <ele>1013</ele>
        <time>2020-09-15T03:18:54Z</time>
      </trkpt>
      <trkpt lat="45.20867" lon="6.4552">
        <ele>1021</ele>
        <time>2020-09-15T03:19:02Z</time>
      </trkpt>
      <trkpt lat="45.20825" lon="6.45435">
        <ele>1035</ele>
        <time>2020-09-15T03:19:15Z</time>
      </trkpt>
      <trkpt lat="45.20798" lon="6.45376">
        <ele>1048</ele>
        <time>2020-09-15T03:19:24Z</time>
      </trkpt>
      <trkpt lat="45.20785" lon="6.45356">
        <ele>1052</ele>
        <time>2020-09-15T03:19:27Z</time>
      </trkpt>
      <trkpt lat="45.20776" lon="6.45348">
        <ele>1052</ele>
        <time>2020-09-15T03:19:29Z</time>
      </trkpt>
      <trkpt lat="45.20766" lon="6.45342">
        <ele>1052</ele>
        <time>2020-09-15T03:19:31Z</time>
      </trkpt>
      <trkpt lat="45.2075" lon="6.45338">
        <ele>1050</ele>
        <time>2020-09-15T03:19:34Z</time>
      </trkpt>
      <trkpt lat="45.2072" lon="6.45335">
        <ele>1053</ele>
        <time>2020-09-15T03:19:39Z</time>
      </trkpt>
      <trkpt lat="45.20679" lon="6.45342">
        <ele>1054</ele>
        <time>2020-09-15T03:19:47Z</time>
      </trkpt>
      <trkpt lat="45.20643" lon="6.45342">
        <ele>1056</ele>
        <time>2020-09-15T03:19:53Z</time>
      </trkpt>
      <trkpt lat="45.20627" lon="6.45339">
        <ele>1057</ele>
        <time>2020-09-15T03:19:56Z</time>
      </trkpt>
      <trkpt lat="45.20591" lon="6.45325">
        <ele>1063</ele>
        <time>2020-09-15T03:20:03Z</time>
      </trkpt>
      <trkpt lat="45.20557" lon="6.45319">
        <ele>1069</ele>
        <time>2020-09-15T03:20:09Z</time>
      </trkpt>
      <trkpt lat="45.20417" lon="6.45317">
        <ele>1090</ele>
        <time>2020-09-15T03:20:34Z</time>
      </trkpt>
      <trkpt lat="45.20393" lon="6.45325">
        <ele>1095</ele>
        <time>2020-09-15T03:20:38Z</time>
      </trkpt>
      <trkpt lat="45.20383" lon="6.45334">
        <ele>1095</ele>
        <time>2020-09-15T03:20:40Z</time>
      </trkpt>
      <trkpt lat="45.20377" lon="6.45346">
        <ele>1096</ele>
        <time>2020-09-15T03:20:42Z</time>
      </trkpt>
      <trkpt lat="45.20367" lon="6.45399">
        <ele>1091</ele>
        <time>2020-09-15T03:20:49Z</time>
      </trkpt>
      <trkpt lat="45.2036" lon="6.45426">
        <ele>1090</ele>
        <time>2020-09-15T03:20:52Z</time>
      </trkpt>
      <trkpt lat="45.2035" lon="6.45451">
        <ele>1090</ele>
        <time>2020-09-15T03:20:56Z</time>
      </trkpt>
      <trkpt lat="45.20331" lon="6.45484">
        <ele>1090</ele>
        <time>2020-09-15T03:21:01Z</time>
      </trkpt>
      <trkpt lat="45.2032" lon="6.45494">
        <ele>1092</ele>
        <time>2020-09-15T03:21:04Z</time>
      </trkpt>
      <trkpt lat="45.20283" lon="6.45517">
        <ele>1099</ele>
        <time>2020-09-15T03:21:11Z</time>
      </trkpt>
      <trkpt lat="45.20252" lon="6.45552">
        <ele>1104</ele>
        <time>2020-09-15T03:21:18Z</time>
      </trkpt>
      <trkpt lat="45.2024" lon="6.45553">
        <ele>1110</ele>
        <time>2020-09-15T03:21:20Z</time>
      </trkpt>
      <trkpt lat="45.20235" lon="6.4555">
        <ele>1112</ele>
        <time>2020-09-15T03:21:21Z</time>
      </trkpt>
      <trkpt lat="45.2023" lon="6.45543">
        <ele>1115</ele>
        <time>2020-09-15T03:21:22Z</time>
      </trkpt>
      <trkpt lat="45.20229" lon="6.45534">
        <ele>1115</ele>
        <time>2020-09-15T03:21:23Z</time>
      </trkpt>
      <trkpt lat="45.20232" lon="6.45524">
        <ele>1114</ele>
        <time>2020-09-15T03:21:25Z</time>
      </trkpt>
      <trkpt lat="45.20274" lon="6.45468">
        <ele>1106</ele>
        <time>2020-09-15T03:21:35Z</time>
      </trkpt>
      <trkpt lat="45.20306" lon="6.45431">
        <ele>1103</ele>
        <time>2020-09-15T03:21:42Z</time>
      </trkpt>
      <trkpt lat="45.2031" lon="6.45418">
        <ele>1104</ele>
        <time>2020-09-15T03:21:44Z</time>
      </trkpt>
      <trkpt lat="45.20308" lon="6.45406">
        <ele>1106</ele>
        <time>2020-09-15T03:21:46Z</time>
      </trkpt>
      <trkpt lat="45.20304" lon="6.45401">
        <ele>1108</ele>
        <time>2020-09-15T03:21:47Z</time>
      </trkpt>
      <trkpt lat="45.20295" lon="6.45399">
        <ele>1111</ele>
        <time>2020-09-15T03:21:48Z</time>
      </trkpt>
      <trkpt lat="45.2029" lon="6.45401">
        <ele>1111</ele>
        <time>2020-09-15T03:21:49Z</time>
      </trkpt>
      <trkpt lat="45.20269" lon="6.45433">
        <ele>1112</ele>
        <time>2020-09-15T03:21:55Z</time>
      </trkpt>
      <trkpt lat="45.20238" lon="6.45469">
        <ele>1117</ele>
        <time>2020-09-15T03:22:02Z</time>
      </trkpt>
      <trkpt lat="45.20228" lon="6.45476">
        <ele>1120</ele>
        <time>2020-09-15T03:22:04Z</time>
      </trkpt>
      <trkpt lat="45.20221" lon="6.45478">
        <ele>1122</ele>
        <time>2020-09-15T03:22:05Z</time>
      </trkpt>
      <trkpt lat="45.20195" lon="6.45478">
        <ele>1133</ele>
        <time>2020-09-15T03:22:10Z</time>
      </trkpt>
      <trkpt lat="45.20188" lon="6.45484">
        <ele>1135</ele>
        <time>2020-09-15T03:22:11Z</time>
      </trkpt>
      <trkpt lat="45.20183" lon="6.45491">
        <ele>1136</ele>
        <time>2020-09-15T03:22:12Z</time>
      </trkpt>
      <trkpt lat="45.2018" lon="6.45505">
        <ele>1137</ele>
        <time>2020-09-15T03:22:14Z</time>
      </trkpt>
      <trkpt lat="45.20182" lon="6.45538">
        <ele>1136</ele>
        <time>2020-09-15T03:22:18Z</time>
      </trkpt>
      <trkpt lat="45.20186" lon="6.45558">
        <ele>1135</ele>
        <time>2020-09-15T03:22:21Z</time>
      </trkpt>
      <trkpt lat="45.20189" lon="6.4557">
        <ele>1134</ele>
        <time>2020-09-15T03:22:23Z</time>
      </trkpt>
      <trkpt lat="45.20204" lon="6.45604">
        <ele>1126</ele>
        <time>2020-09-15T03:22:28Z</time>
      </trkpt>
      <trkpt lat="45.20205" lon="6.45613">
        <ele>1125</ele>
        <time>2020-09-15T03:22:29Z</time>
      </trkpt>
      <trkpt lat="45.20202" lon="6.45622">
        <ele>1126</ele>
        <time>2020-09-15T03:22:30Z</time>
      </trkpt>
      <trkpt lat="45.20188" lon="6.45635">
        <ele>1131</ele>
        <time>2020-09-15T03:22:33Z</time>
      </trkpt>
      <trkpt lat="45.20177" lon="6.45639">
        <ele>1135</ele>
        <time>2020-09-15T03:22:35Z</time>
      </trkpt>
      <trkpt lat="45.2014" lon="6.4564">
        <ele>1153</ele>
        <time>2020-09-15T03:22:42Z</time>
      </trkpt>
      <trkpt lat="45.20131" lon="6.45642">
        <ele>1158</ele>
        <time>2020-09-15T03:22:43Z</time>
      </trkpt>
      <trkpt lat="45.20128" lon="6.45645">
        <ele>1159</ele>
        <time>2020-09-15T03:22:44Z</time>
      </trkpt>
      <trkpt lat="45.20125" lon="6.4565">
        <ele>1159</ele>
        <time>2020-09-15T03:22:45Z</time>
      </trkpt>
      <trkpt lat="45.20121" lon="6.45666">
        <ele>1159</ele>
        <time>2020-09-15T03:22:47Z</time>
      </trkpt>
      <trkpt lat="45.20124" lon="6.45678">
        <ele>1160</ele>
        <time>2020-09-15T03:22:48Z</time>
      </trkpt>
      <trkpt lat="45.20132" lon="6.45693">
        <ele>1160</ele>
        <time>2020-09-15T03:22:51Z</time>
      </trkpt>
      <trkpt lat="45.20165" lon="6.45736">
        <ele>1156</ele>
        <time>2020-09-15T03:22:59Z</time>
      </trkpt>
      <trkpt lat="45.20174" lon="6.45746">
        <ele>1155</ele>
        <time>2020-09-15T03:23:01Z</time>
      </trkpt>
      <trkpt lat="45.20203" lon="6.45766">
        <ele>1150</ele>
        <time>2020-09-15T03:23:06Z</time>
      </trkpt>
      <trkpt lat="45.20222" lon="6.45787">
        <ele>1149</ele>
        <time>2020-09-15T03:23:11Z</time>
      </trkpt>
      <trkpt lat="45.20231" lon="6.45804">
        <ele>1150</ele>
        <time>2020-09-15T03:23:13Z</time>
      </trkpt>
      <trkpt lat="45.20245" lon="6.45845">
        <ele>1156</ele>
        <time>2020-09-15T03:23:19Z</time>
      </trkpt>
      <trkpt lat="45.20251" lon="6.45858">
        <ele>1157</ele>
        <time>2020-09-15T03:23:21Z</time>
      </trkpt>
      <trkpt lat="45.20295" lon="6.4593">
        <ele>1159</ele>
        <time>2020-09-15T03:23:33Z</time>
      </trkpt>
      <trkpt lat="45.20306" lon="6.45952">
        <ele>1158</ele>
        <time>2020-09-15T03:23:36Z</time>
      </trkpt>
      <trkpt lat="45.20316" lon="6.45984">
        <ele>1160</ele>
        <time>2020-09-15T03:23:41Z</time>
      </trkpt>
      <trkpt lat="45.20319" lon="6.46004">
        <ele>1163</ele>
        <time>2020-09-15T03:23:43Z</time>
      </trkpt>
      <trkpt lat="45.20319" lon="6.46056">
        <ele>1173</ele>
        <time>2020-09-15T03:23:50Z</time>
      </trkpt>
      <trkpt lat="45.2032" lon="6.46069">
        <ele>1175</ele>
        <time>2020-09-15T03:23:51Z</time>
      </trkpt>
      <trkpt lat="45.20324" lon="6.46082">
        <ele>1176</ele>
        <time>2020-09-15T03:23:53Z</time>
      </trkpt>
      <trkpt lat="45.20341" lon="6.46122">
        <ele>1175</ele>
        <time>2020-09-15T03:23:59Z</time>
      </trkpt>
      <trkpt lat="45.20347" lon="6.46144">
        <ele>1176</ele>
        <time>2020-09-15T03:24:02Z</time>
      </trkpt>
      <trkpt lat="45.20348" lon="6.46191">
        <ele>1180</ele>
        <time>2020-09-15T03:24:08Z</time>
      </trkpt>
      <trkpt lat="45.20353" lon="6.46233">
        <ele>1179</ele>
        <time>2020-09-15T03:24:13Z</time>
      </trkpt>
      <trkpt lat="45.20356" lon="6.46282">
        <ele>1173</ele>
        <time>2020-09-15T03:24:19Z</time>
      </trkpt>
      <trkpt lat="45.20353" lon="6.46299">
        <ele>1172</ele>
        <time>2020-09-15T03:24:22Z</time>
      </trkpt>
      <trkpt lat="45.20345" lon="6.46314">
        <ele>1175</ele>
        <time>2020-09-15T03:24:24Z</time>
      </trkpt>
      <trkpt lat="45.20335" lon="6.46322">
        <ele>1180</ele>
        <time>2020-09-15T03:24:26Z</time>
      </trkpt>
      <trkpt lat="45.20294" lon="6.46344">
        <ele>1192</ele>
        <time>2020-09-15T03:24:34Z</time>
      </trkpt>
      <trkpt lat="45.20274" lon="6.46363">
        <ele>1195</ele>
        <time>2020-09-15T03:24:38Z</time>
      </trkpt>
      <trkpt lat="45.20199" lon="6.46497">
        <ele>1203</ele>
        <time>2020-09-15T03:25:00Z</time>
      </trkpt>
      <trkpt lat="45.20187" lon="6.46527">
        <ele>1207</ele>
        <time>2020-09-15T03:25:04Z</time>
      </trkpt>
      <trkpt lat="45.20182" lon="6.46548">
        <ele>1209</ele>
        <time>2020-09-15T03:25:07Z</time>
      </trkpt>
      <trkpt lat="45.20171" lon="6.46633">
        <ele>1206</ele>
        <time>2020-09-15T03:25:18Z</time>
      </trkpt>
      <trkpt lat="45.20167" lon="6.46644">
        <ele>1207</ele>
        <time>2020-09-15T03:25:19Z</time>
      </trkpt>
      <trkpt lat="45.20154" lon="6.46667">
        <ele>1210</ele>
        <time>2020-09-15T03:25:23Z</time>
      </trkpt>
      <trkpt lat="45.20128" lon="6.46701">
        <ele>1211</ele>
        <time>2020-09-15T03:25:29Z</time>
      </trkpt>
      <trkpt lat="45.20099" lon="6.46733">
        <ele>1211</ele>
        <time>2020-09-15T03:25:36Z</time>
      </trkpt>
      <trkpt lat="45.20079" lon="6.46749">
        <ele>1213</ele>
        <time>2020-09-15T03:25:40Z</time>
      </trkpt>
      <trkpt lat="45.2005" lon="6.46753">
        <ele>1220</ele>
        <time>2020-09-15T03:25:45Z</time>
      </trkpt>
      <trkpt lat="45.2002" lon="6.4676">
        <ele>1227</ele>
        <time>2020-09-15T03:25:50Z</time>
      </trkpt>
      <trkpt lat="45.19953" lon="6.46792">
        <ele>1229</ele>
        <time>2020-09-15T03:26:03Z</time>
      </trkpt>
      <trkpt lat="45.19923" lon="6.46814">
        <ele>1228</ele>
        <time>2020-09-15T03:26:09Z</time>
      </trkpt>
      <trkpt lat="45.19914" lon="6.46818">
        <ele>1229</ele>
        <time>2020-09-15T03:26:11Z</time>
      </trkpt>
      <trkpt lat="45.199" lon="6.46817">
        <ele>1232</ele>
        <time>2020-09-15T03:26:13Z</time>
      </trkpt>
      <trkpt lat="45.19865" lon="6.46804">
        <ele>1243</ele>
        <time>2020-09-15T03:26:19Z</time>
      </trkpt>
      <trkpt lat="45.19855" lon="6.46804">
        <ele>1245</ele>
        <time>2020-09-15T03:26:21Z</time>
      </trkpt>
      <trkpt lat="45.19841" lon="6.46811">
        <ele>1245</ele>
        <time>2020-09-15T03:26:24Z</time>
      </trkpt>
      <trkpt lat="45.1983" lon="6.46825">
        <ele>1244</ele>
        <time>2020-09-15T03:26:27Z</time>
      </trkpt>
      <trkpt lat="45.19801" lon="6.46878">
        <ele>1245</ele>
        <time>2020-09-15T03:26:35Z</time>
      </trkpt>
      <trkpt lat="45.19795" lon="6.46897">
        <ele>1243</ele>
        <time>2020-09-15T03:26:38Z</time>
      </trkpt>
      <trkpt lat="45.19793" lon="6.46911">
        <ele>1241</ele>
        <time>2020-09-15T03:26:39Z</time>
      </trkpt>
      <trkpt lat="45.1979" lon="6.46946">
        <ele>1234</ele>
        <time>2020-09-15T03:26:44Z</time>
      </trkpt>
      <trkpt lat="45.19786" lon="6.46952">
        <ele>1234</ele>
        <time>2020-09-15T03:26:45Z</time>
      </trkpt>
      <trkpt lat="45.19781" lon="6.46955">
        <ele>1234</ele>
        <time>2020-09-15T03:26:46Z</time>
      </trkpt>
      <trkpt lat="45.19775" lon="6.46956">
        <ele>1236</ele>
        <time>2020-09-15T03:26:47Z</time>
      </trkpt>
      <trkpt lat="45.1977" lon="6.46952">
        <ele>1238</ele>
        <time>2020-09-15T03:26:48Z</time>
      </trkpt>
      <trkpt lat="45.19768" lon="6.46945">
        <ele>1240</ele>
        <time>2020-09-15T03:26:49Z</time>
      </trkpt>
      <trkpt lat="45.19767" lon="6.46936">
        <ele>1243</ele>
        <time>2020-09-15T03:26:50Z</time>
      </trkpt>
      <trkpt lat="45.19774" lon="6.46914">
        <ele>1246</ele>
        <time>2020-09-15T03:26:53Z</time>
      </trkpt>
      <trkpt lat="45.19782" lon="6.46875">
        <ele>1252</ele>
        <time>2020-09-15T03:26:58Z</time>
      </trkpt>
      <trkpt lat="45.19791" lon="6.46851">
        <ele>1254</ele>
        <time>2020-09-15T03:27:01Z</time>
      </trkpt>
      <trkpt lat="45.19811" lon="6.46803">
        <ele>1257</ele>
        <time>2020-09-15T03:27:08Z</time>
      </trkpt>
      <trkpt lat="45.19831" lon="6.46766">
        <ele>1260</ele>
        <time>2020-09-15T03:27:14Z</time>
      </trkpt>
      <trkpt lat="45.19846" lon="6.46746">
        <ele>1263</ele>
        <time>2020-09-15T03:27:18Z</time>
      </trkpt>
      <trkpt lat="45.19854" lon="6.46739">
        <ele>1265</ele>
        <time>2020-09-15T03:27:20Z</time>
      </trkpt>
      <trkpt lat="45.19878" lon="6.4673">
        <ele>1265</ele>
        <time>2020-09-15T03:27:24Z</time>
      </trkpt>
      <trkpt lat="45.19945" lon="6.46715">
        <ele>1260</ele>
        <time>2020-09-15T03:27:36Z</time>
      </trkpt>
      <trkpt lat="45.19951" lon="6.46711">
        <ele>1260</ele>
        <time>2020-09-15T03:27:37Z</time>
      </trkpt>
      <trkpt lat="45.19953" lon="6.46702">
        <ele>1262</ele>
        <time>2020-09-15T03:27:39Z</time>
      </trkpt>
      <trkpt lat="45.1995" lon="6.46691">
        <ele>1266</ele>
        <time>2020-09-15T03:27:40Z</time>
      </trkpt>
      <trkpt lat="45.19946" lon="6.46687">
        <ele>1268</ele>
        <time>2020-09-15T03:27:41Z</time>
      </trkpt>
      <trkpt lat="45.19935" lon="6.46686">
        <ele>1271</ele>
        <time>2020-09-15T03:27:43Z</time>
      </trkpt>
      <trkpt lat="45.19906" lon="6.46699">
        <ele>1272</ele>
        <time>2020-09-15T03:27:48Z</time>
      </trkpt>
      <trkpt lat="45.19892" lon="6.467">
        <ele>1274</ele>
        <time>2020-09-15T03:27:51Z</time>
      </trkpt>
      <trkpt lat="45.19876" lon="6.46697">
        <ele>1277</ele>
        <time>2020-09-15T03:27:54Z</time>
      </trkpt>
      <trkpt lat="45.19859" lon="6.46697">
        <ele>1279</ele>
        <time>2020-09-15T03:27:57Z</time>
      </trkpt>
      <trkpt lat="45.19848" lon="6.46699">
        <ele>1280</ele>
        <time>2020-09-15T03:27:59Z</time>
      </trkpt>
      <trkpt lat="45.19838" lon="6.46704">
        <ele>1279</ele>
        <time>2020-09-15T03:28:00Z</time>
      </trkpt>
      <trkpt lat="45.19816" lon="6.4672">
        <ele>1279</ele>
        <time>2020-09-15T03:28:05Z</time>
      </trkpt>
      <trkpt lat="45.19793" lon="6.46743">
        <ele>1278</ele>
        <time>2020-09-15T03:28:10Z</time>
      </trkpt>
      <trkpt lat="45.19742" lon="6.46815">
        <ele>1279</ele>
        <time>2020-09-15T03:28:23Z</time>
      </trkpt>
      <trkpt lat="45.19736" lon="6.46823">
        <ele>1278</ele>
        <time>2020-09-15T03:28:24Z</time>
      </trkpt>
      <trkpt lat="45.19728" lon="6.46828">
        <ele>1279</ele>
        <time>2020-09-15T03:28:26Z</time>
      </trkpt>
      <trkpt lat="45.19716" lon="6.46833">
        <ele>1281</ele>
        <time>2020-09-15T03:28:28Z</time>
      </trkpt>
      <trkpt lat="45.19672" lon="6.46837">
        <ele>1290</ele>
        <time>2020-09-15T03:28:36Z</time>
      </trkpt>
      <trkpt lat="45.19659" lon="6.46841">
        <ele>1292</ele>
        <time>2020-09-15T03:28:38Z</time>
      </trkpt>
      <trkpt lat="45.1963" lon="6.46856">
        <ele>1297</ele>
        <time>2020-09-15T03:28:44Z</time>
      </trkpt>
      <trkpt lat="45.19608" lon="6.46875">
        <ele>1300</ele>
        <time>2020-09-15T03:28:48Z</time>
      </trkpt>
      <trkpt lat="45.19603" lon="6.46876">
        <ele>1301</ele>
        <time>2020-09-15T03:28:49Z</time>
      </trkpt>
      <trkpt lat="45.19598" lon="6.46873">
        <ele>1303</ele>
        <time>2020-09-15T03:28:50Z</time>
      </trkpt>
      <trkpt lat="45.19592" lon="6.46863">
        <ele>1307</ele>
        <time>2020-09-15T03:28:52Z</time>
      </trkpt>
      <trkpt lat="45.19591" lon="6.46849">
        <ele>1310</ele>
        <time>2020-09-15T03:28:53Z</time>
      </trkpt>
      <trkpt lat="45.19593" lon="6.46843">
        <ele>1310</ele>
        <time>2020-09-15T03:28:54Z</time>
      </trkpt>
      <trkpt lat="45.19597" lon="6.46839">
        <ele>1310</ele>
        <time>2020-09-15T03:28:55Z</time>
      </trkpt>
      <trkpt lat="45.19602" lon="6.46837">
        <ele>1309</ele>
        <time>2020-09-15T03:28:56Z</time>
      </trkpt>
      <trkpt lat="45.19619" lon="6.46839">
        <ele>1304</ele>
        <time>2020-09-15T03:28:59Z</time>
      </trkpt>
      <trkpt lat="45.19629" lon="6.46834">
        <ele>1302</ele>
        <time>2020-09-15T03:29:01Z</time>
      </trkpt>
      <trkpt lat="45.1964" lon="6.46824">
        <ele>1302</ele>
        <time>2020-09-15T03:29:03Z</time>
      </trkpt>
      <trkpt lat="45.19689" lon="6.46767">
        <ele>1305</ele>
        <time>2020-09-15T03:29:15Z</time>
      </trkpt>
      <trkpt lat="45.19706" lon="6.46736">
        <ele>1308</ele>
        <time>2020-09-15T03:29:20Z</time>
      </trkpt>
      <trkpt lat="45.19711" lon="6.46727">
        <ele>1309</ele>
        <time>2020-09-15T03:29:21Z</time>
      </trkpt>
      <trkpt lat="45.19724" lon="6.46714">
        <ele>1309</ele>
        <time>2020-09-15T03:29:24Z</time>
      </trkpt>
      <trkpt lat="45.19727" lon="6.46707">
        <ele>1310</ele>
        <time>2020-09-15T03:29:25Z</time>
      </trkpt>
      <trkpt lat="45.19728" lon="6.46701">
        <ele>1311</ele>
        <time>2020-09-15T03:29:26Z</time>
      </trkpt>
      <trkpt lat="45.19724" lon="6.46689">
        <ele>1316</ele>
        <time>2020-09-15T03:29:27Z</time>
      </trkpt>
      <trkpt lat="45.19721" lon="6.46686">
        <ele>1318</ele>
        <time>2020-09-15T03:29:28Z</time>
      </trkpt>
      <trkpt lat="45.19715" lon="6.46684">
        <ele>1321</ele>
        <time>2020-09-15T03:29:29Z</time>
      </trkpt>
      <trkpt lat="45.19709" lon="6.46687">
        <ele>1322</ele>
        <time>2020-09-15T03:29:30Z</time>
      </trkpt>
      <trkpt lat="45.19688" lon="6.46725">
        <ele>1317</ele>
        <time>2020-09-15T03:29:36Z</time>
      </trkpt>
      <trkpt lat="45.19674" lon="6.46742">
        <ele>1316</ele>
        <time>2020-09-15T03:29:40Z</time>
      </trkpt>
      <trkpt lat="45.19654" lon="6.46757">
        <ele>1317</ele>
        <time>2020-09-15T03:29:44Z</time>
      </trkpt>
      <trkpt lat="45.19585" lon="6.46798">
        <ele>1325</ele>
        <time>2020-09-15T03:29:57Z</time>
      </trkpt>
      <trkpt lat="45.19575" lon="6.46806">
        <ele>1325</ele>
        <time>2020-09-15T03:29:59Z</time>
      </trkpt>
      <trkpt lat="45.19554" lon="6.46834">
        <ele>1321</ele>
        <time>2020-09-15T03:30:04Z</time>
      </trkpt>
      <trkpt lat="45.19544" lon="6.46843">
        <ele>1321</ele>
        <time>2020-09-15T03:30:06Z</time>
      </trkpt>
      <trkpt lat="45.19506" lon="6.46869">
        <ele>1324</ele>
        <time>2020-09-15T03:30:14Z</time>
      </trkpt>
      <trkpt lat="45.19497" lon="6.46877">
        <ele>1323</ele>
        <time>2020-09-15T03:30:16Z</time>
      </trkpt>
      <trkpt lat="45.19485" lon="6.46893">
        <ele>1319</ele>
        <time>2020-09-15T03:30:18Z</time>
      </trkpt>
      <trkpt lat="45.19478" lon="6.46897">
        <ele>1318</ele>
        <time>2020-09-15T03:30:20Z</time>
      </trkpt>
      <trkpt lat="45.19466" lon="6.46896">
        <ele>1317</ele>
        <time>2020-09-15T03:30:22Z</time>
      </trkpt>
      <trkpt lat="45.19455" lon="6.46889">
        <ele>1319</ele>
        <time>2020-09-15T03:30:24Z</time>
      </trkpt>
      <trkpt lat="45.19418" lon="6.46845">
        <ele>1330</ele>
        <time>2020-09-15T03:30:33Z</time>
      </trkpt>
      <trkpt lat="45.19405" lon="6.46833">
        <ele>1334</ele>
        <time>2020-09-15T03:30:35Z</time>
      </trkpt>
      <trkpt lat="45.19393" lon="6.46826">
        <ele>1336</ele>
        <time>2020-09-15T03:30:38Z</time>
      </trkpt>
      <trkpt lat="45.19368" lon="6.4682">
        <ele>1339</ele>
        <time>2020-09-15T03:30:42Z</time>
      </trkpt>
      <trkpt lat="45.19358" lon="6.46821">
        <ele>1339</ele>
        <time>2020-09-15T03:30:44Z</time>
      </trkpt>
      <trkpt lat="45.19338" lon="6.46829">
        <ele>1337</ele>
        <time>2020-09-15T03:30:48Z</time>
      </trkpt>
      <trkpt lat="45.19334" lon="6.46829">
        <ele>1337</ele>
        <time>2020-09-15T03:30:48Z</time>
      </trkpt>
      <trkpt lat="45.19329" lon="6.46822">
        <ele>1341</ele>
        <time>2020-09-15T03:30:50Z</time>
      </trkpt>
      <trkpt lat="45.19328" lon="6.46812">
        <ele>1345</ele>
        <time>2020-09-15T03:30:51Z</time>
      </trkpt>
      <trkpt lat="45.19333" lon="6.46803">
        <ele>1346</ele>
        <time>2020-09-15T03:30:52Z</time>
      </trkpt>
      <trkpt lat="45.19337" lon="6.46801">
        <ele>1346</ele>
        <time>2020-09-15T03:30:53Z</time>
      </trkpt>
      <trkpt lat="45.19435" lon="6.46797">
        <ele>1343</ele>
        <time>2020-09-15T03:31:11Z</time>
      </trkpt>
      <trkpt lat="45.19452" lon="6.46791">
        <ele>1344</ele>
        <time>2020-09-15T03:31:14Z</time>
      </trkpt>
      <trkpt lat="45.19486" lon="6.46766">
        <ele>1351</ele>
        <time>2020-09-15T03:31:21Z</time>
      </trkpt>
      <trkpt lat="45.19524" lon="6.46753">
        <ele>1350</ele>
        <time>2020-09-15T03:31:27Z</time>
      </trkpt>
      <trkpt lat="45.19531" lon="6.46748">
        <ele>1350</ele>
        <time>2020-09-15T03:31:29Z</time>
      </trkpt>
      <trkpt lat="45.19537" lon="6.46736">
        <ele>1352</ele>
        <time>2020-09-15T03:31:31Z</time>
      </trkpt>
      <trkpt lat="45.19543" lon="6.46712">
        <ele>1358</ele>
        <time>2020-09-15T03:31:34Z</time>
      </trkpt>
      <trkpt lat="45.19548" lon="6.467">
        <ele>1361</ele>
        <time>2020-09-15T03:31:36Z</time>
      </trkpt>
      <trkpt lat="45.19553" lon="6.46691">
        <ele>1362</ele>
        <time>2020-09-15T03:31:37Z</time>
      </trkpt>
      <trkpt lat="45.19565" lon="6.46684">
        <ele>1362</ele>
        <time>2020-09-15T03:31:39Z</time>
      </trkpt>
      <trkpt lat="45.1961" lon="6.46663">
        <ele>1358</ele>
        <time>2020-09-15T03:31:48Z</time>
      </trkpt>
      <trkpt lat="45.19624" lon="6.46653">
        <ele>1357</ele>
        <time>2020-09-15T03:31:51Z</time>
      </trkpt>
      <trkpt lat="45.19646" lon="6.46632">
        <ele>1357</ele>
        <time>2020-09-15T03:31:55Z</time>
      </trkpt>
      <trkpt lat="45.19658" lon="6.46619">
        <ele>1357</ele>
        <time>2020-09-15T03:31:58Z</time>
      </trkpt>
      <trkpt lat="45.1967" lon="6.46594">
        <ele>1360</ele>
        <time>2020-09-15T03:32:02Z</time>
      </trkpt>
      <trkpt lat="45.19678" lon="6.46558">
        <ele>1364</ele>
        <time>2020-09-15T03:32:07Z</time>
      </trkpt>
      <trkpt lat="45.19684" lon="6.46509">
        <ele>1372</ele>
        <time>2020-09-15T03:32:13Z</time>
      </trkpt>
      <trkpt lat="45.1969" lon="6.46481">
        <ele>1378</ele>
        <time>2020-09-15T03:32:16Z</time>
      </trkpt>
      <trkpt lat="45.197" lon="6.46461">
        <ele>1382</ele>
        <time>2020-09-15T03:32:20Z</time>
      </trkpt>
      <trkpt lat="45.19718" lon="6.46446">
        <ele>1383</ele>
        <time>2020-09-15T03:32:23Z</time>
      </trkpt>
      <trkpt lat="45.19761" lon="6.46427">
        <ele>1382</ele>
        <time>2020-09-15T03:32:31Z</time>
      </trkpt>
      <trkpt lat="45.19793" lon="6.46424">
        <ele>1382</ele>
        <time>2020-09-15T03:32:37Z</time>
      </trkpt>
      <trkpt lat="45.1981" lon="6.46426">
        <ele>1380</ele>
        <time>2020-09-15T03:32:40Z</time>
      </trkpt>
      <trkpt lat="45.19824" lon="6.46423">
        <ele>1380</ele>
        <time>2020-09-15T03:32:43Z</time>
      </trkpt>
      <trkpt lat="45.19835" lon="6.46408">
        <ele>1384</ele>
        <time>2020-09-15T03:32:45Z</time>
      </trkpt>
      <trkpt lat="45.19882" lon="6.46271">
        <ele>1402</ele>
        <time>2020-09-15T03:33:04Z</time>
      </trkpt>
      <trkpt lat="45.19897" lon="6.46238">
        <ele>1401</ele>
        <time>2020-09-15T03:33:09Z</time>
      </trkpt>
      <trkpt lat="45.19916" lon="6.46206">
        <ele>1399</ele>
        <time>2020-09-15T03:33:15Z</time>
      </trkpt>
      <trkpt lat="45.19928" lon="6.46194">
        <ele>1396</ele>
        <time>2020-09-15T03:33:17Z</time>
      </trkpt>
      <trkpt lat="45.19935" lon="6.46182">
        <ele>1396</ele>
        <time>2020-09-15T03:33:19Z</time>
      </trkpt>
      <trkpt lat="45.19939" lon="6.46167">
        <ele>1398</ele>
        <time>2020-09-15T03:33:21Z</time>
      </trkpt>
      <trkpt lat="45.19939" lon="6.46155">
        <ele>1398</ele>
        <time>2020-09-15T03:33:23Z</time>
      </trkpt>
      <trkpt lat="45.19913" lon="6.46063">
        <ele>1405</ele>
        <time>2020-09-15T03:33:35Z</time>
      </trkpt>
      <trkpt lat="45.19899" lon="6.46034">
        <ele>1404</ele>
        <time>2020-09-15T03:33:39Z</time>
      </trkpt>
      <trkpt lat="45.19876" lon="6.46005">
        <ele>1409</ele>
        <time>2020-09-15T03:33:45Z</time>
      </trkpt>
      <trkpt lat="45.19824" lon="6.45954">
        <ele>1410</ele>
        <time>2020-09-15T03:33:56Z</time>
      </trkpt>
      <trkpt lat="45.19784" lon="6.4592">
        <ele>1407</ele>
        <time>2020-09-15T03:34:04Z</time>
      </trkpt>
      <trkpt lat="45.19767" lon="6.45909">
        <ele>1407</ele>
        <time>2020-09-15T03:34:08Z</time>
      </trkpt>
      <trkpt lat="45.19679" lon="6.45901">
        <ele>1428</ele>
        <time>2020-09-15T03:34:23Z</time>
      </trkpt>
      <trkpt lat="45.19642" lon="6.4589">
        <ele>1437</ele>
        <time>2020-09-15T03:34:30Z</time>
      </trkpt>
      <trkpt lat="45.19614" lon="6.4587">
        <ele>1439</ele>
        <time>2020-09-15T03:34:36Z</time>
      </trkpt>
      <trkpt lat="45.19593" lon="6.45843">
        <ele>1433</ele>
        <time>2020-09-15T03:34:41Z</time>
      </trkpt>
      <trkpt lat="45.19581" lon="6.45831">
        <ele>1432</ele>
        <time>2020-09-15T03:34:43Z</time>
      </trkpt>
      <trkpt lat="45.19566" lon="6.45825">
        <ele>1436</ele>
        <time>2020-09-15T03:34:46Z</time>
      </trkpt>
      <trkpt lat="45.19549" lon="6.45822">
        <ele>1442</ele>
        <time>2020-09-15T03:34:49Z</time>
      </trkpt>
      <trkpt lat="45.19481" lon="6.45818">
        <ele>1469</ele>
        <time>2020-09-15T03:35:01Z</time>
      </trkpt>
      <trkpt lat="45.19472" lon="6.45812">
        <ele>1473</ele>
        <time>2020-09-15T03:35:03Z</time>
      </trkpt>
      <trkpt lat="45.19467" lon="6.45805">
        <ele>1474</ele>
        <time>2020-09-15T03:35:04Z</time>
      </trkpt>
      <trkpt lat="45.19464" lon="6.45792">
        <ele>1474</ele>
        <time>2020-09-15T03:35:06Z</time>
      </trkpt>
      <trkpt lat="45.19476" lon="6.4574">
        <ele>1458</ele>
        <time>2020-09-15T03:35:13Z</time>
      </trkpt>
      <trkpt lat="45.19478" lon="6.45714">
        <ele>1453</ele>
        <time>2020-09-15T03:35:16Z</time>
      </trkpt>
      <trkpt lat="45.19476" lon="6.45684">
        <ele>1452</ele>
        <time>2020-09-15T03:35:20Z</time>
      </trkpt>
      <trkpt lat="45.19454" lon="6.45621">
        <ele>1465</ele>
        <time>2020-09-15T03:35:29Z</time>
      </trkpt>
      <trkpt lat="45.1945" lon="6.456">
        <ele>1466</ele>
        <time>2020-09-15T03:35:32Z</time>
      </trkpt>
      <trkpt lat="45.19458" lon="6.45544">
        <ele>1461</ele>
        <time>2020-09-15T03:35:39Z</time>
      </trkpt>
      <trkpt lat="45.19457" lon="6.45524">
        <ele>1462</ele>
        <time>2020-09-15T03:35:41Z</time>
      </trkpt>
      <trkpt lat="45.19449" lon="6.45488">
        <ele>1466</ele>
        <time>2020-09-15T03:35:46Z</time>
      </trkpt>
      <trkpt lat="45.19441" lon="6.45459">
        <ele>1466</ele>
        <time>2020-09-15T03:35:50Z</time>
      </trkpt>
      <trkpt lat="45.19428" lon="6.45432">
        <ele>1469</ele>
        <time>2020-09-15T03:35:54Z</time>
      </trkpt>
      <trkpt lat="45.19415" lon="6.45415">
        <ele>1473</ele>
        <time>2020-09-15T03:35:57Z</time>
      </trkpt>
      <trkpt lat="45.19401" lon="6.45392">
        <ele>1477</ele>
        <time>2020-09-15T03:36:01Z</time>
      </trkpt>
      <trkpt lat="45.19392" lon="6.45369">
        <ele>1479</ele>
        <time>2020-09-15T03:36:04Z</time>
      </trkpt>
      <trkpt lat="45.19386" lon="6.45346">
        <ele>1479</ele>
        <time>2020-09-15T03:36:07Z</time>
      </trkpt>
      <trkpt lat="45.1938" lon="6.45328">
        <ele>1480</ele>
        <time>2020-09-15T03:36:10Z</time>
      </trkpt>
      <trkpt lat="45.19361" lon="6.45303">
        <ele>1491</ele>
        <time>2020-09-15T03:36:14Z</time>
      </trkpt>
      <trkpt lat="45.19355" lon="6.45276">
        <ele>1494</ele>
        <time>2020-09-15T03:36:18Z</time>
      </trkpt>
      <trkpt lat="45.19351" lon="6.45254">
        <ele>1495</ele>
        <time>2020-09-15T03:36:21Z</time>
      </trkpt>
      <trkpt lat="45.19352" lon="6.45223">
        <ele>1496</ele>
        <time>2020-09-15T03:36:25Z</time>
      </trkpt>
      <trkpt lat="45.19366" lon="6.45167">
        <ele>1493</ele>
        <time>2020-09-15T03:36:32Z</time>
      </trkpt>
      <trkpt lat="45.1939" lon="6.45118">
        <ele>1488</ele>
        <time>2020-09-15T03:36:40Z</time>
      </trkpt>
      <trkpt lat="45.19494" lon="6.44921">
        <ele>1492</ele>
        <time>2020-09-15T03:37:10Z</time>
      </trkpt>
      <trkpt lat="45.19499" lon="6.44902">
        <ele>1494</ele>
        <time>2020-09-15T03:37:13Z</time>
      </trkpt>
      <trkpt lat="45.19501" lon="6.44876">
        <ele>1497</ele>
        <time>2020-09-15T03:37:16Z</time>
      </trkpt>
      <trkpt lat="45.195" lon="6.44797">
        <ele>1510</ele>
        <time>2020-09-15T03:37:26Z</time>
      </trkpt>
      <trkpt lat="45.19503" lon="6.44781">
        <ele>1512</ele>
        <time>2020-09-15T03:37:28Z</time>
      </trkpt>
      <trkpt lat="45.19508" lon="6.44771">
        <ele>1513</ele>
        <time>2020-09-15T03:37:30Z</time>
      </trkpt>
      <trkpt lat="45.19535" lon="6.44728">
        <ele>1518</ele>
        <time>2020-09-15T03:37:37Z</time>
      </trkpt>
      <trkpt lat="45.19544" lon="6.44719">
        <ele>1519</ele>
        <time>2020-09-15T03:37:39Z</time>
      </trkpt>
      <trkpt lat="45.19575" lon="6.44701">
        <ele>1516</ele>
        <time>2020-09-15T03:37:45Z</time>
      </trkpt>
      <trkpt lat="45.19593" lon="6.44682">
        <ele>1518</ele>
        <time>2020-09-15T03:37:49Z</time>
      </trkpt>
      <trkpt lat="45.19622" lon="6.44628">
        <ele>1534</ele>
        <time>2020-09-15T03:37:57Z</time>
      </trkpt>
      <trkpt lat="45.19636" lon="6.44612">
        <ele>1538</ele>
        <time>2020-09-15T03:38:01Z</time>
      </trkpt>
      <trkpt lat="45.19693" lon="6.44576">
        <ele>1542</ele>
        <time>2020-09-15T03:38:12Z</time>
      </trkpt>
      <trkpt lat="45.19706" lon="6.44572">
        <ele>1543</ele>
        <time>2020-09-15T03:38:14Z</time>
      </trkpt>
      <trkpt lat="45.19773" lon="6.44578">
        <ele>1530</ele>
        <time>2020-09-15T03:38:26Z</time>
      </trkpt>
      <trkpt lat="45.19797" lon="6.44573">
        <ele>1534</ele>
        <time>2020-09-15T03:38:30Z</time>
      </trkpt>
      <trkpt lat="45.19849" lon="6.44554">
        <ele>1548</ele>
        <time>2020-09-15T03:38:40Z</time>
      </trkpt>
      <trkpt lat="45.19859" lon="6.44554">
        <ele>1549</ele>
        <time>2020-09-15T03:38:42Z</time>
      </trkpt>
      <trkpt lat="45.19867" lon="6.44556">
        <ele>1549</ele>
        <time>2020-09-15T03:38:43Z</time>
      </trkpt>
      <trkpt lat="45.19939" lon="6.44602">
        <ele>1533</ele>
        <time>2020-09-15T03:38:57Z</time>
      </trkpt>
      <trkpt lat="45.19948" lon="6.44601">
        <ele>1533</ele>
        <time>2020-09-15T03:38:59Z</time>
      </trkpt>
      <trkpt lat="45.19956" lon="6.44594">
        <ele>1535</ele>
        <time>2020-09-15T03:39:00Z</time>
      </trkpt>
      <trkpt lat="45.1998" lon="6.44536">
        <ele>1561</ele>
        <time>2020-09-15T03:39:09Z</time>
      </trkpt>
      <trkpt lat="45.19989" lon="6.44517">
        <ele>1569</ele>
        <time>2020-09-15T03:39:12Z</time>
      </trkpt>
      <trkpt lat="45.19994" lon="6.44514">
        <ele>1569</ele>
        <time>2020-09-15T03:39:13Z</time>
      </trkpt>
      <trkpt lat="45.20005" lon="6.44514">
        <ele>1569</ele>
        <time>2020-09-15T03:39:15Z</time>
      </trkpt>
      <trkpt lat="45.20047" lon="6.44523">
        <ele>1564</ele>
        <time>2020-09-15T03:39:22Z</time>
      </trkpt>
      <trkpt lat="45.2006" lon="6.44528">
        <ele>1561</ele>
        <time>2020-09-15T03:39:25Z</time>
      </trkpt>
      <trkpt lat="45.20084" lon="6.44549">
        <ele>1552</ele>
        <time>2020-09-15T03:39:30Z</time>
      </trkpt>
      <trkpt lat="45.20091" lon="6.44559">
        <ele>1548</ele>
        <time>2020-09-15T03:39:31Z</time>
      </trkpt>
      <trkpt lat="45.20099" lon="6.44564">
        <ele>1546</ele>
        <time>2020-09-15T03:39:33Z</time>
      </trkpt>
      <trkpt lat="45.20106" lon="6.44561">
        <ele>1548</ele>
        <time>2020-09-15T03:39:34Z</time>
      </trkpt>
      <trkpt lat="45.2013" lon="6.4453">
        <ele>1561</ele>
        <time>2020-09-15T03:39:40Z</time>
      </trkpt>
      <trkpt lat="45.20137" lon="6.44527">
        <ele>1562</ele>
        <time>2020-09-15T03:39:41Z</time>
      </trkpt>
      <trkpt lat="45.20173" lon="6.44534">
        <ele>1559</ele>
        <time>2020-09-15T03:39:48Z</time>
      </trkpt>
      <trkpt lat="45.20182" lon="6.44534">
        <ele>1559</ele>
        <time>2020-09-15T03:39:49Z</time>
      </trkpt>
      <trkpt lat="45.20193" lon="6.4453">
        <ele>1559</ele>
        <time>2020-09-15T03:39:51Z</time>
      </trkpt>
      <trkpt lat="45.20266" lon="6.44477">
        <ele>1562</ele>
        <time>2020-09-15T03:40:06Z</time>
      </trkpt>
      <trkpt lat="45.20268" lon="6.44471">
        <ele>1563</ele>
        <time>2020-09-15T03:40:07Z</time>
      </trkpt>
      <trkpt lat="45.20269" lon="6.44461">
        <ele>1563</ele>
        <time>2020-09-15T03:40:08Z</time>
      </trkpt>
      <trkpt lat="45.20267" lon="6.44447">
        <ele>1563</ele>
        <time>2020-09-15T03:40:10Z</time>
      </trkpt>
      <trkpt lat="45.20262" lon="6.44439">
        <ele>1563</ele>
        <time>2020-09-15T03:40:11Z</time>
      </trkpt>
      <trkpt lat="45.2024" lon="6.44422">
        <ele>1564</ele>
        <time>2020-09-15T03:40:16Z</time>
      </trkpt>
      <trkpt lat="45.20224" lon="6.44414">
        <ele>1564</ele>
        <time>2020-09-15T03:40:19Z</time>
      </trkpt>
      <trkpt lat="45.2018" lon="6.44398">
        <ele>1561</ele>
        <time>2020-09-15T03:40:27Z</time>
      </trkpt>
      <trkpt lat="45.20151" lon="6.44386">
        <ele>1558</ele>
        <time>2020-09-15T03:40:32Z</time>
      </trkpt>
      <trkpt lat="45.20136" lon="6.44386">
        <ele>1559</ele>
        <time>2020-09-15T03:40:35Z</time>
      </trkpt>
      <trkpt lat="45.20115" lon="6.44399">
        <ele>1566</ele>
        <time>2020-09-15T03:40:39Z</time>
      </trkpt>
      <trkpt lat="45.20105" lon="6.44397">
        <ele>1566</ele>
        <time>2020-09-15T03:40:41Z</time>
      </trkpt>
      <trkpt lat="45.2" lon="6.4435">
        <ele>1564</ele>
        <time>2020-09-15T03:41:00Z</time>
      </trkpt>
      <trkpt lat="45.19969" lon="6.44338">
        <ele>1566</ele>
        <time>2020-09-15T03:41:06Z</time>
      </trkpt>
      <trkpt lat="45.1982" lon="6.44262">
        <ele>1565</ele>
        <time>2020-09-15T03:41:34Z</time>
      </trkpt>
      <trkpt lat="45.19803" lon="6.44258">
        <ele>1567</ele>
        <time>2020-09-15T03:41:37Z</time>
      </trkpt>
      <trkpt lat="45.19796" lon="6.44252">
        <ele>1565</ele>
        <time>2020-09-15T03:41:39Z</time>
      </trkpt>
      <trkpt lat="45.19791" lon="6.44252">
        <ele>1566</ele>
        <time>2020-09-15T03:41:40Z</time>
      </trkpt>
      <trkpt lat="45.19783" lon="6.44256">
        <ele>1570</ele>
        <time>2020-09-15T03:41:41Z</time>
      </trkpt>
      <trkpt lat="45.19744" lon="6.44256">
        <ele>1577</ele>
        <time>2020-09-15T03:41:48Z</time>
      </trkpt>
      <trkpt lat="45.19715" lon="6.44245">
        <ele>1572</ele>
        <time>2020-09-15T03:41:53Z</time>
      </trkpt>
      <trkpt lat="45.19686" lon="6.44238">
        <ele>1568</ele>
        <time>2020-09-15T03:41:59Z</time>
      </trkpt>
      <trkpt lat="45.19667" lon="6.44237">
        <ele>1568</ele>
        <time>2020-09-15T03:42:02Z</time>
      </trkpt>
      <trkpt lat="45.19641" lon="6.44241">
        <ele>1575</ele>
        <time>2020-09-15T03:42:07Z</time>
      </trkpt>
      <trkpt lat="45.19625" lon="6.44241">
        <ele>1578</ele>
        <time>2020-09-15T03:42:10Z</time>
      </trkpt>
      <trkpt lat="45.19589" lon="6.44233">
        <ele>1580</ele>
        <time>2020-09-15T03:42:16Z</time>
      </trkpt>
      <trkpt lat="45.19568" lon="6.44225">
        <ele>1577</ele>
        <time>2020-09-15T03:42:20Z</time>
      </trkpt>
      <trkpt lat="45.19528" lon="6.442">
        <ele>1564</ele>
        <time>2020-09-15T03:42:28Z</time>
      </trkpt>
      <trkpt lat="45.19501" lon="6.44188">
        <ele>1557</ele>
        <time>2020-09-15T03:42:33Z</time>
      </trkpt>
      <trkpt lat="45.19488" lon="6.44186">
        <ele>1557</ele>
        <time>2020-09-15T03:42:35Z</time>
      </trkpt>
      <trkpt lat="45.19444" lon="6.44187">
        <ele>1566</ele>
        <time>2020-09-15T03:42:43Z</time>
      </trkpt>
      <trkpt lat="45.1941" lon="6.44183">
        <ele>1569</ele>
        <time>2020-09-15T03:42:49Z</time>
      </trkpt>
      <trkpt lat="45.19387" lon="6.44178">
        <ele>1569</ele>
        <time>2020-09-15T03:42:53Z</time>
      </trkpt>
      <trkpt lat="45.19343" lon="6.44159">
        <ele>1562</ele>
        <time>2020-09-15T03:43:01Z</time>
      </trkpt>
      <trkpt lat="45.19316" lon="6.44145">
        <ele>1562</ele>
        <time>2020-09-15T03:43:06Z</time>
      </trkpt>
      <trkpt lat="45.19287" lon="6.44121">
        <ele>1559</ele>
        <time>2020-09-15T03:43:12Z</time>
      </trkpt>
      <trkpt lat="45.1927" lon="6.441">
        <ele>1553</ele>
        <time>2020-09-15T03:43:16Z</time>
      </trkpt>
      <trkpt lat="45.19256" lon="6.44086">
        <ele>1549</ele>
        <time>2020-09-15T03:43:19Z</time>
      </trkpt>
      <trkpt lat="45.19237" lon="6.44075">
        <ele>1548</ele>
        <time>2020-09-15T03:43:23Z</time>
      </trkpt>
      <trkpt lat="45.19213" lon="6.44066">
        <ele>1548</ele>
        <time>2020-09-15T03:43:27Z</time>
      </trkpt>
      <trkpt lat="45.19152" lon="6.44059">
        <ele>1555</ele>
        <time>2020-09-15T03:43:38Z</time>
      </trkpt>
      <trkpt lat="45.19097" lon="6.44043">
        <ele>1549</ele>
        <time>2020-09-15T03:43:48Z</time>
      </trkpt>
      <trkpt lat="45.19059" lon="6.44043">
        <ele>1551</ele>
        <time>2020-09-15T03:43:55Z</time>
      </trkpt>
      <trkpt lat="45.19022" lon="6.44048">
        <ele>1555</ele>
        <time>2020-09-15T03:44:02Z</time>
      </trkpt>
      <trkpt lat="45.18997" lon="6.44056">
        <ele>1561</ele>
        <time>2020-09-15T03:44:06Z</time>
      </trkpt>
      <trkpt lat="45.18971" lon="6.44054">
        <ele>1564</ele>
        <time>2020-09-15T03:44:11Z</time>
      </trkpt>
      <trkpt lat="45.18949" lon="6.44048">
        <ele>1565</ele>
        <time>2020-09-15T03:44:15Z</time>
      </trkpt>
      <trkpt lat="45.18908" lon="6.44021">
        <ele>1558</ele>
        <time>2020-09-15T03:44:23Z</time>
      </trkpt>
      <trkpt lat="45.18888" lon="6.44002">
        <ele>1553</ele>
        <time>2020-09-15T03:44:27Z</time>
      </trkpt>
      <trkpt lat="45.1886" lon="6.43988">
        <ele>1552</ele>
        <time>2020-09-15T03:44:33Z</time>
      </trkpt>
      <trkpt lat="45.18739" lon="6.43947">
        <ele>1544</ele>
        <time>2020-09-15T03:44:55Z</time>
      </trkpt>
      <trkpt lat="45.18712" lon="6.4394">
        <ele>1542</ele>
        <time>2020-09-15T03:45:00Z</time>
      </trkpt>
      <trkpt lat="45.18664" lon="6.43937">
        <ele>1543</ele>
        <time>2020-09-15T03:45:08Z</time>
      </trkpt>
      <trkpt lat="45.18648" lon="6.43933">
        <ele>1543</ele>
        <time>2020-09-15T03:45:11Z</time>
      </trkpt>
      <trkpt lat="45.18582" lon="6.43899">
        <ele>1542</ele>
        <time>2020-09-15T03:45:23Z</time>
      </trkpt>
      <trkpt lat="45.18567" lon="6.43889">
        <ele>1541</ele>
        <time>2020-09-15T03:45:26Z</time>
      </trkpt>
      <trkpt lat="45.18538" lon="6.43862">
        <ele>1537</ele>
        <time>2020-09-15T03:45:33Z</time>
      </trkpt>
      <trkpt lat="45.18521" lon="6.4385">
        <ele>1535</ele>
        <time>2020-09-15T03:45:36Z</time>
      </trkpt>
      <trkpt lat="45.18506" lon="6.43844">
        <ele>1535</ele>
        <time>2020-09-15T03:45:39Z</time>
      </trkpt>
      <trkpt lat="45.18464" lon="6.43833">
        <ele>1533</ele>
        <time>2020-09-15T03:45:46Z</time>
      </trkpt>
      <trkpt lat="45.18435" lon="6.43835">
        <ele>1534</ele>
        <time>2020-09-15T03:45:52Z</time>
      </trkpt>
      <trkpt lat="45.18402" lon="6.43841">
        <ele>1533</ele>
        <time>2020-09-15T03:45:57Z</time>
      </trkpt>
      <trkpt lat="45.18381" lon="6.4385">
        <ele>1532</ele>
        <time>2020-09-15T03:46:01Z</time>
      </trkpt>
      <trkpt lat="45.18363" lon="6.43863">
        <ele>1533</ele>
        <time>2020-09-15T03:46:05Z</time>
      </trkpt>
      <trkpt lat="45.18332" lon="6.43889">
        <ele>1535</ele>
        <time>2020-09-15T03:46:11Z</time>
      </trkpt>
      <trkpt lat="45.18312" lon="6.43895">
        <ele>1535</ele>
        <time>2020-09-15T03:46:15Z</time>
      </trkpt>
      <trkpt lat="45.18261" lon="6.43889">
        <ele>1531</ele>
        <time>2020-09-15T03:46:24Z</time>
      </trkpt>
      <trkpt lat="45.18246" lon="6.43891">
        <ele>1531</ele>
        <time>2020-09-15T03:46:27Z</time>
      </trkpt>
      <trkpt lat="45.18208" lon="6.43904">
        <ele>1528</ele>
        <time>2020-09-15T03:46:34Z</time>
      </trkpt>
      <trkpt lat="45.18122" lon="6.43939">
        <ele>1528</ele>
        <time>2020-09-15T03:46:50Z</time>
      </trkpt>
      <trkpt lat="45.181" lon="6.43951">
        <ele>1529</ele>
        <time>2020-09-15T03:46:54Z</time>
      </trkpt>
      <trkpt lat="45.18061" lon="6.43964">
        <ele>1531</ele>
        <time>2020-09-15T03:47:01Z</time>
      </trkpt>
      <trkpt lat="45.18045" lon="6.43961">
        <ele>1530</ele>
        <time>2020-09-15T03:47:04Z</time>
      </trkpt>
      <trkpt lat="45.18032" lon="6.43953">
        <ele>1527</ele>
        <time>2020-09-15T03:47:06Z</time>
      </trkpt>
      <trkpt lat="45.18016" lon="6.43938">
        <ele>1522</ele>
        <time>2020-09-15T03:47:10Z</time>
      </trkpt>
      <trkpt lat="45.18006" lon="6.43933">
        <ele>1520</ele>
        <time>2020-09-15T03:47:12Z</time>
      </trkpt>
      <trkpt lat="45.17937" lon="6.43931">
        <ele>1520</ele>
        <time>2020-09-15T03:47:24Z</time>
      </trkpt>
      <trkpt lat="45.17901" lon="6.43927">
        <ele>1520</ele>
        <time>2020-09-15T03:47:30Z</time>
      </trkpt>
      <trkpt lat="45.17851" lon="6.43915">
        <ele>1516</ele>
        <time>2020-09-15T03:47:39Z</time>
      </trkpt>
      <trkpt lat="45.17835" lon="6.43903">
        <ele>1513</ele>
        <time>2020-09-15T03:47:43Z</time>
      </trkpt>
      <trkpt lat="45.17813" lon="6.4388">
        <ele>1513</ele>
        <time>2020-09-15T03:47:47Z</time>
      </trkpt>
      <trkpt lat="45.17743" lon="6.43785">
        <ele>1511</ele>
        <time>2020-09-15T03:48:05Z</time>
      </trkpt>
      <trkpt lat="45.17715" lon="6.43738">
        <ele>1508</ele>
        <time>2020-09-15T03:48:12Z</time>
      </trkpt>
      <trkpt lat="45.17704" lon="6.43711">
        <ele>1505</ele>
        <time>2020-09-15T03:48:16Z</time>
      </trkpt>
      <trkpt lat="45.17686" lon="6.43611">
        <ele>1492</ele>
        <time>2020-09-15T03:48:29Z</time>
      </trkpt>
      <trkpt lat="45.17672" lon="6.43459">
        <ele>1483</ele>
        <time>2020-09-15T03:48:49Z</time>
      </trkpt>
      <trkpt lat="45.17669" lon="6.43435">
        <ele>1481</ele>
        <time>2020-09-15T03:48:52Z</time>
      </trkpt>
      <trkpt lat="45.17663" lon="6.43421">
        <ele>1481</ele>
        <time>2020-09-15T03:48:54Z</time>
      </trkpt>
      <trkpt lat="45.17655" lon="6.43411">
        <ele>1480</ele>
        <time>2020-09-15T03:48:56Z</time>
      </trkpt>
      <trkpt lat="45.17638" lon="6.43401">
        <ele>1479</ele>
        <time>2020-09-15T03:48:59Z</time>
      </trkpt>
      <trkpt lat="45.17615" lon="6.43392">
        <ele>1479</ele>
        <time>2020-09-15T03:49:03Z</time>
      </trkpt>
      <trkpt lat="45.17592" lon="6.43377">
        <ele>1477</ele>
        <time>2020-09-15T03:49:08Z</time>
      </trkpt>
      <trkpt lat="45.17551" lon="6.4333">
        <ele>1469</ele>
        <time>2020-09-15T03:49:17Z</time>
      </trkpt>
      <trkpt lat="45.17535" lon="6.43317">
        <ele>1466</ele>
        <time>2020-09-15T03:49:20Z</time>
      </trkpt>
      <trkpt lat="45.17517" lon="6.43308">
        <ele>1465</ele>
        <time>2020-09-15T03:49:24Z</time>
      </trkpt>
      <trkpt lat="45.1738" lon="6.43275">
        <ele>1458</ele>
        <time>2020-09-15T03:49:48Z</time>
      </trkpt>
      <trkpt lat="45.1736" lon="6.43275">
        <ele>1457</ele>
        <time>2020-09-15T03:49:52Z</time>
      </trkpt>
      <trkpt lat="45.17341" lon="6.43278">
        <ele>1457</ele>
        <time>2020-09-15T03:49:55Z</time>
      </trkpt>
      <trkpt lat="45.17326" lon="6.43284">
        <ele>1456</ele>
        <time>2020-09-15T03:49:58Z</time>
      </trkpt>
      <trkpt lat="45.17298" lon="6.43303">
        <ele>1454</ele>
        <time>2020-09-15T03:50:04Z</time>
      </trkpt>
      <trkpt lat="45.17282" lon="6.43322">
        <ele>1455</ele>
        <time>2020-09-15T03:50:07Z</time>
      </trkpt>
      <trkpt lat="45.17255" lon="6.43362">
        <ele>1457</ele>
        <time>2020-09-15T03:50:14Z</time>
      </trkpt>
      <trkpt lat="45.17238" lon="6.43376">
        <ele>1457</ele>
        <time>2020-09-15T03:50:18Z</time>
      </trkpt>
      <trkpt lat="45.17158" lon="6.43387">
        <ele>1450</ele>
        <time>2020-09-15T03:50:32Z</time>
      </trkpt>
      <trkpt lat="45.17146" lon="6.43391">
        <ele>1450</ele>
        <time>2020-09-15T03:50:34Z</time>
      </trkpt>
      <trkpt lat="45.17114" lon="6.43406">
        <ele>1448</ele>
        <time>2020-09-15T03:50:40Z</time>
      </trkpt>
      <trkpt lat="45.17093" lon="6.43409">
        <ele>1446</ele>
        <time>2020-09-15T03:50:44Z</time>
      </trkpt>
      <trkpt lat="45.17041" lon="6.43408">
        <ele>1439</ele>
        <time>2020-09-15T03:50:53Z</time>
      </trkpt>
      <trkpt lat="45.17032" lon="6.43411">
        <ele>1438</ele>
        <time>2020-09-15T03:50:55Z</time>
      </trkpt>
      <trkpt lat="45.16971" lon="6.43464">
        <ele>1442</ele>
        <time>2020-09-15T03:51:08Z</time>
      </trkpt>
      <trkpt lat="45.16958" lon="6.43471">
        <ele>1444</ele>
        <time>2020-09-15T03:51:10Z</time>
      </trkpt>
      <trkpt lat="45.16947" lon="6.43473">
        <ele>1444</ele>
        <time>2020-09-15T03:51:12Z</time>
      </trkpt>
      <trkpt lat="45.16924" lon="6.43468">
        <ele>1444</ele>
        <time>2020-09-15T03:51:16Z</time>
      </trkpt>
      <trkpt lat="45.1688" lon="6.43447">
        <ele>1437</ele>
        <time>2020-09-15T03:51:24Z</time>
      </trkpt>
      <trkpt lat="45.16852" lon="6.43438">
        <ele>1434</ele>
        <time>2020-09-15T03:51:30Z</time>
      </trkpt>
      <trkpt lat="45.16822" lon="6.43436">
        <ele>1434</ele>
        <time>2020-09-15T03:51:35Z</time>
      </trkpt>
      <trkpt lat="45.16803" lon="6.43437">
        <ele>1435</ele>
        <time>2020-09-15T03:51:38Z</time>
      </trkpt>
      <trkpt lat="45.16786" lon="6.43434">
        <ele>1435</ele>
        <time>2020-09-15T03:51:41Z</time>
      </trkpt>
      <trkpt lat="45.16768" lon="6.43424">
        <ele>1432</ele>
        <time>2020-09-15T03:51:45Z</time>
      </trkpt>
      <trkpt lat="45.16723" lon="6.43391">
        <ele>1431</ele>
        <time>2020-09-15T03:51:54Z</time>
      </trkpt>
      <trkpt lat="45.16703" lon="6.43369">
        <ele>1431</ele>
        <time>2020-09-15T03:51:58Z</time>
      </trkpt>
      <trkpt lat="45.16694" lon="6.43357">
        <ele>1430</ele>
        <time>2020-09-15T03:52:00Z</time>
      </trkpt>
      <trkpt lat="45.16689" lon="6.4335">
        <ele>1430</ele>
        <time>2020-09-15T03:52:02Z</time>
      </trkpt>
      <trkpt lat="45.16676" lon="6.4332">
        <ele>1425</ele>
        <time>2020-09-15T03:52:06Z</time>
      </trkpt>
      <trkpt lat="45.16668" lon="6.43307">
        <ele>1423</ele>
        <time>2020-09-15T03:52:08Z</time>
      </trkpt>
      <trkpt lat="45.16657" lon="6.43292">
        <ele>1420</ele>
        <time>2020-09-15T03:52:11Z</time>
      </trkpt>
      <trkpt lat="45.1665" lon="6.43284">
        <ele>1419</ele>
        <time>2020-09-15T03:52:13Z</time>
      </trkpt>
      <trkpt lat="45.16618" lon="6.43261">
        <ele>1416</ele>
        <time>2020-09-15T03:52:19Z</time>
      </trkpt>
      <trkpt lat="45.16554" lon="6.43221">
        <ele>1414</ele>
        <time>2020-09-15T03:52:31Z</time>
      </trkpt>
      <trkpt lat="45.16527" lon="6.43198">
        <ele>1412</ele>
        <time>2020-09-15T03:52:37Z</time>
      </trkpt>
      <trkpt lat="45.1652" lon="6.43192">
        <ele>1411</ele>
        <time>2020-09-15T03:52:39Z</time>
      </trkpt>
      <trkpt lat="45.16521" lon="6.43189">
        <ele>1411</ele>
        <time>2020-09-15T03:52:39Z</time>
      </trkpt>
      <trkpt lat="45.16521" lon="6.43181">
        <ele>1410</ele>
        <time>2020-09-15T03:52:40Z</time>
      </trkpt>
      <trkpt lat="45.16519" lon="6.43176">
        <ele>1409</ele>
        <time>2020-09-15T03:52:41Z</time>
      </trkpt>
      <trkpt lat="45.16517" lon="6.43174">
        <ele>1409</ele>
        <time>2020-09-15T03:52:41Z</time>
      </trkpt>
      <trkpt lat="45.16519" lon="6.43162">
        <ele>1408</ele>
        <time>2020-09-15T03:52:43Z</time>
      </trkpt>
      <trkpt lat="45.16542" lon="6.43058">
        <ele>1406</ele>
        <time>2020-09-15T03:52:56Z</time>
      </trkpt>
      <trkpt lat="45.16544" lon="6.43042">
        <ele>1406</ele>
        <time>2020-09-15T03:52:58Z</time>
      </trkpt>
      <trkpt lat="45.16547" lon="6.4302">
        <ele>1406</ele>
        <time>2020-09-15T03:53:01Z</time>
      </trkpt>
      <trkpt lat="45.16548" lon="6.42998">
        <ele>1406</ele>
        <time>2020-09-15T03:53:04Z</time>
      </trkpt>
      <trkpt lat="45.16557" lon="6.42956">
        <ele>1406</ele>
        <time>2020-09-15T03:53:09Z</time>
      </trkpt>
      <trkpt lat="45.16559" lon="6.4294">
        <ele>1406</ele>
        <time>2020-09-15T03:53:11Z</time>
      </trkpt>
      <trkpt lat="45.16558" lon="6.42927">
        <ele>1407</ele>
        <time>2020-09-15T03:53:13Z</time>
      </trkpt>
      <trkpt lat="45.16553" lon="6.4289">
        <ele>1408</ele>
        <time>2020-09-15T03:53:18Z</time>
      </trkpt>
      <trkpt lat="45.16554" lon="6.4285">
        <ele>1409</ele>
        <time>2020-09-15T03:53:23Z</time>
      </trkpt>
      <trkpt lat="45.16577" lon="6.42754">
        <ele>1412</ele>
        <time>2020-09-15T03:53:36Z</time>
      </trkpt>
      <trkpt lat="45.16578" lon="6.42741">
        <ele>1412</ele>
        <time>2020-09-15T03:53:37Z</time>
      </trkpt>
      <trkpt lat="45.16576" lon="6.42725">
        <ele>1412</ele>
        <time>2020-09-15T03:53:39Z</time>
      </trkpt>
      <trkpt lat="45.1656" lon="6.42696">
        <ele>1413</ele>
        <time>2020-09-15T03:53:44Z</time>
      </trkpt>
      <trkpt lat="45.165" lon="6.42607">
        <ele>1419</ele>
        <time>2020-09-15T03:53:59Z</time>
      </trkpt>
      <trkpt lat="45.16481" lon="6.42563">
        <ele>1420</ele>
        <time>2020-09-15T03:54:06Z</time>
      </trkpt>
      <trkpt lat="45.16456" lon="6.42494">
        <ele>1425</ele>
        <time>2020-09-15T03:54:16Z</time>
      </trkpt>
      <trkpt lat="45.16422" lon="6.42461">
        <ele>1429</ele>
        <time>2020-09-15T03:54:23Z</time>
      </trkpt>
      <trkpt lat="45.16419" lon="6.42451">
        <ele>1430</ele>
        <time>2020-09-15T03:54:24Z</time>
      </trkpt>
      <trkpt lat="45.16412" lon="6.42449">
        <ele>1431</ele>
        <time>2020-09-15T03:54:26Z</time>
      </trkpt>
      <trkpt lat="45.1641" lon="6.42451">
        <ele>1432</ele>
        <time>2020-09-15T03:54:26Z</time>
      </trkpt>
      <trkpt lat="45.16404" lon="6.42441">
        <ele>1434</ele>
        <time>2020-09-15T03:54:28Z</time>
      </trkpt>
      <trkpt lat="45.16383" lon="6.42413">
        <ele>1441</ele>
        <time>2020-09-15T03:54:33Z</time>
      </trkpt>
      <trkpt lat="45.16379" lon="6.42398">
        <ele>1442</ele>
        <time>2020-09-15T03:54:35Z</time>
      </trkpt>
      <trkpt lat="45.16388" lon="6.42366">
        <ele>1440</ele>
        <time>2020-09-15T03:54:39Z</time>
      </trkpt>
      <trkpt lat="45.16396" lon="6.42337">
        <ele>1439</ele>
        <time>2020-09-15T03:54:43Z</time>
      </trkpt>
      <trkpt lat="45.16398" lon="6.4232">
        <ele>1440</ele>
        <time>2020-09-15T03:54:45Z</time>
      </trkpt>
      <trkpt lat="45.16397" lon="6.42305">
        <ele>1441</ele>
        <time>2020-09-15T03:54:47Z</time>
      </trkpt>
      <trkpt lat="45.16394" lon="6.42293">
        <ele>1441</ele>
        <time>2020-09-15T03:54:49Z</time>
      </trkpt>
      <trkpt lat="45.16389" lon="6.42282">
        <ele>1442</ele>
        <time>2020-09-15T03:54:50Z</time>
      </trkpt>
      <trkpt lat="45.16381" lon="6.42273">
        <ele>1443</ele>
        <time>2020-09-15T03:54:52Z</time>
      </trkpt>
      <trkpt lat="45.16363" lon="6.42263">
        <ele>1443</ele>
        <time>2020-09-15T03:54:56Z</time>
      </trkpt>
      <trkpt lat="45.16344" lon="6.42256">
        <ele>1442</ele>
        <time>2020-09-15T03:54:59Z</time>
      </trkpt>
      <trkpt lat="45.16327" lon="6.4225">
        <ele>1442</ele>
        <time>2020-09-15T03:55:02Z</time>
      </trkpt>
      <trkpt lat="45.16322" lon="6.42245">
        <ele>1444</ele>
        <time>2020-09-15T03:55:03Z</time>
      </trkpt>
      <trkpt lat="45.16307" lon="6.42238">
        <ele>1446</ele>
        <time>2020-09-15T03:55:06Z</time>
      </trkpt>
      <trkpt lat="45.16268" lon="6.42222">
        <ele>1454</ele>
        <time>2020-09-15T03:55:13Z</time>
      </trkpt>
      <trkpt lat="45.16255" lon="6.42217">
        <ele>1456</ele>
        <time>2020-09-15T03:55:16Z</time>
      </trkpt>
      <trkpt lat="45.16243" lon="6.42216">
        <ele>1457</ele>
        <time>2020-09-15T03:55:18Z</time>
      </trkpt>
      <trkpt lat="45.16228" lon="6.4221">
        <ele>1459</ele>
        <time>2020-09-15T03:55:21Z</time>
      </trkpt>
      <trkpt lat="45.16214" lon="6.42204">
        <ele>1461</ele>
        <time>2020-09-15T03:55:23Z</time>
      </trkpt>
      <trkpt lat="45.1621" lon="6.42202">
        <ele>1461</ele>
        <time>2020-09-15T03:55:24Z</time>
      </trkpt>
      <trkpt lat="45.16194" lon="6.42196">
        <ele>1462</ele>
        <time>2020-09-15T03:55:27Z</time>
      </trkpt>
      <trkpt lat="45.16181" lon="6.42193">
        <ele>1462</ele>
        <time>2020-09-15T03:55:29Z</time>
      </trkpt>
      <trkpt lat="45.16106" lon="6.42183">
        <ele>1463</ele>
        <time>2020-09-15T03:55:43Z</time>
      </trkpt>
      <trkpt lat="45.16042" lon="6.42172">
        <ele>1463</ele>
        <time>2020-09-15T03:55:54Z</time>
      </trkpt>
      <trkpt lat="45.16027" lon="6.42167">
        <ele>1462</ele>
        <time>2020-09-15T03:55:57Z</time>
      </trkpt>
      <trkpt lat="45.16018" lon="6.42162">
        <ele>1462</ele>
        <time>2020-09-15T03:55:59Z</time>
      </trkpt>
      <trkpt lat="45.1602" lon="6.42158">
        <ele>1462</ele>
        <time>2020-09-15T03:55:59Z</time>
      </trkpt>
      <trkpt lat="45.1602" lon="6.42153">
        <ele>1463</ele>
        <time>2020-09-15T03:56:00Z</time>
      </trkpt>
      <trkpt lat="45.1602" lon="6.42148">
        <ele>1463</ele>
        <time>2020-09-15T03:56:00Z</time>
      </trkpt>
      <trkpt lat="45.16018" lon="6.42144">
        <ele>1463</ele>
        <time>2020-09-15T03:56:01Z</time>
      </trkpt>
      <trkpt lat="45.16012" lon="6.42142">
        <ele>1463</ele>
        <time>2020-09-15T03:56:02Z</time>
      </trkpt>
      <trkpt lat="45.16009" lon="6.42143">
        <ele>1463</ele>
        <time>2020-09-15T03:56:03Z</time>
      </trkpt>
      <trkpt lat="45.16004" lon="6.4215">
        <ele>1463</ele>
        <time>2020-09-15T03:56:04Z</time>
      </trkpt>
      <trkpt lat="45.16004" lon="6.42153">
        <ele>1463</ele>
        <time>2020-09-15T03:56:04Z</time>
      </trkpt>
      <trkpt lat="45.15999" lon="6.4215">
        <ele>1463</ele>
        <time>2020-09-15T03:56:05Z</time>
      </trkpt>
      <trkpt lat="45.1597" lon="6.42152">
        <ele>1464</ele>
        <time>2020-09-15T03:56:10Z</time>
      </trkpt>
      <trkpt lat="45.15928" lon="6.42143">
        <ele>1468</ele>
        <time>2020-09-15T03:56:18Z</time>
      </trkpt>
      <trkpt lat="45.15912" lon="6.42135">
        <ele>1470</ele>
        <time>2020-09-15T03:56:21Z</time>
      </trkpt>
      <trkpt lat="45.15895" lon="6.42132">
        <ele>1472</ele>
        <time>2020-09-15T03:56:24Z</time>
      </trkpt>
      <trkpt lat="45.15878" lon="6.42129">
        <ele>1473</ele>
        <time>2020-09-15T03:56:27Z</time>
      </trkpt>
      <trkpt lat="45.15853" lon="6.42126">
        <ele>1476</ele>
        <time>2020-09-15T03:56:32Z</time>
      </trkpt>
      <trkpt lat="45.15844" lon="6.42124">
        <ele>1477</ele>
        <time>2020-09-15T03:56:33Z</time>
      </trkpt>
      <trkpt lat="45.15831" lon="6.42121">
        <ele>1478</ele>
        <time>2020-09-15T03:56:36Z</time>
      </trkpt>
      <trkpt lat="45.1583" lon="6.42121">
        <ele>1478</ele>
        <time>2020-09-15T03:56:36Z</time>
      </trkpt>
      <trkpt lat="45.15786" lon="6.4211">
        <ele>1481</ele>
        <time>2020-09-15T03:56:44Z</time>
      </trkpt>
      <trkpt lat="45.15742" lon="6.42101">
        <ele>1484</ele>
        <time>2020-09-15T03:56:52Z</time>
      </trkpt>
      <trkpt lat="45.15709" lon="6.42093">
        <ele>1487</ele>
        <time>2020-09-15T03:56:58Z</time>
      </trkpt>
      <trkpt lat="45.15605" lon="6.42069">
        <ele>1499</ele>
        <time>2020-09-15T03:57:16Z</time>
      </trkpt>
      <trkpt lat="45.15581" lon="6.42065">
        <ele>1502</ele>
        <time>2020-09-15T03:57:21Z</time>
      </trkpt>
      <trkpt lat="45.15573" lon="6.42065">
        <ele>1503</ele>
        <time>2020-09-15T03:57:22Z</time>
      </trkpt>
      <trkpt lat="45.15563" lon="6.42065">
        <ele>1504</ele>
        <time>2020-09-15T03:57:24Z</time>
      </trkpt>
      <trkpt lat="45.1553" lon="6.42068">
        <ele>1506</ele>
        <time>2020-09-15T03:57:30Z</time>
      </trkpt>
      <trkpt lat="45.15483" lon="6.42075">
        <ele>1509</ele>
        <time>2020-09-15T03:57:38Z</time>
      </trkpt>
      <trkpt lat="45.15457" lon="6.42079">
        <ele>1511</ele>
        <time>2020-09-15T03:57:43Z</time>
      </trkpt>
      <trkpt lat="45.15444" lon="6.4208">
        <ele>1513</ele>
        <time>2020-09-15T03:57:45Z</time>
      </trkpt>
      <trkpt lat="45.15432" lon="6.4208">
        <ele>1514</ele>
        <time>2020-09-15T03:57:47Z</time>
      </trkpt>
      <trkpt lat="45.15414" lon="6.42078">
        <ele>1516</ele>
        <time>2020-09-15T03:57:50Z</time>
      </trkpt>
      <trkpt lat="45.15332" lon="6.42066">
        <ele>1526</ele>
        <time>2020-09-15T03:58:05Z</time>
      </trkpt>
      <trkpt lat="45.15313" lon="6.42066">
        <ele>1528</ele>
        <time>2020-09-15T03:58:08Z</time>
      </trkpt>
      <trkpt lat="45.1527" lon="6.42077">
        <ele>1532</ele>
        <time>2020-09-15T03:58:16Z</time>
      </trkpt>
      <trkpt lat="45.15246" lon="6.42069">
        <ele>1535</ele>
        <time>2020-09-15T03:58:21Z</time>
      </trkpt>
      <trkpt lat="45.15175" lon="6.42028">
        <ele>1540</ele>
        <time>2020-09-15T03:58:34Z</time>
      </trkpt>
      <trkpt lat="45.15172" lon="6.42026">
        <ele>1540</ele>
        <time>2020-09-15T03:58:35Z</time>
      </trkpt>
      <trkpt lat="45.15157" lon="6.42021">
        <ele>1542</ele>
        <time>2020-09-15T03:58:38Z</time>
      </trkpt>
      <trkpt lat="45.1514" lon="6.42019">
        <ele>1543</ele>
        <time>2020-09-15T03:58:41Z</time>
      </trkpt>
      <trkpt lat="45.15129" lon="6.4202">
        <ele>1544</ele>
        <time>2020-09-15T03:58:43Z</time>
      </trkpt>
      <trkpt lat="45.15122" lon="6.42022">
        <ele>1544</ele>
        <time>2020-09-15T03:58:44Z</time>
      </trkpt>
      <trkpt lat="45.15084" lon="6.42045">
        <ele>1546</ele>
        <time>2020-09-15T03:58:51Z</time>
      </trkpt>
      <trkpt lat="45.15064" lon="6.4205">
        <ele>1547</ele>
        <time>2020-09-15T03:58:55Z</time>
      </trkpt>
      <trkpt lat="45.15039" lon="6.42045">
        <ele>1549</ele>
        <time>2020-09-15T03:58:59Z</time>
      </trkpt>
      <trkpt lat="45.15035" lon="6.42044">
        <ele>1550</ele>
        <time>2020-09-15T03:59:00Z</time>
      </trkpt>
      <trkpt lat="45.15014" lon="6.42041">
        <ele>1551</ele>
        <time>2020-09-15T03:59:04Z</time>
      </trkpt>
      <trkpt lat="45.15003" lon="6.42041">
        <ele>1552</ele>
        <time>2020-09-15T03:59:06Z</time>
      </trkpt>
      <trkpt lat="45.14964" lon="6.42051">
        <ele>1555</ele>
        <time>2020-09-15T03:59:13Z</time>
      </trkpt>
      <trkpt lat="45.14939" lon="6.42053">
        <ele>1556</ele>
        <time>2020-09-15T03:59:17Z</time>
      </trkpt>
      <trkpt lat="45.14913" lon="6.42049">
        <ele>1558</ele>
        <time>2020-09-15T03:59:22Z</time>
      </trkpt>
      <trkpt lat="45.14888" lon="6.4205">
        <ele>1558</ele>
        <time>2020-09-15T03:59:26Z</time>
      </trkpt>
      <trkpt lat="45.14858" lon="6.42055">
        <ele>1559</ele>
        <time>2020-09-15T03:59:32Z</time>
      </trkpt>
      <trkpt lat="45.14834" lon="6.42054">
        <ele>1560</ele>
        <time>2020-09-15T03:59:36Z</time>
      </trkpt>
      <trkpt lat="45.14803" lon="6.42038">
        <ele>1561</ele>
        <time>2020-09-15T03:59:42Z</time>
      </trkpt>
      <trkpt lat="45.14759" lon="6.42025">
        <ele>1563</ele>
        <time>2020-09-15T03:59:50Z</time>
      </trkpt>
      <trkpt lat="45.1474" lon="6.42024">
        <ele>1563</ele>
        <time>2020-09-15T03:59:53Z</time>
      </trkpt>
      <trkpt lat="45.1471" lon="6.42027">
        <ele>1564</ele>
        <time>2020-09-15T03:59:59Z</time>
      </trkpt>
      <trkpt lat="45.1468" lon="6.42027">
        <ele>1565</ele>
        <time>2020-09-15T04:00:04Z</time>
      </trkpt>
      <trkpt lat="45.14637" lon="6.42018">
        <ele>1564</ele>
        <time>2020-09-15T04:00:12Z</time>
      </trkpt>
      <trkpt lat="45.14606" lon="6.42007">
        <ele>1562</ele>
        <time>2020-09-15T04:00:17Z</time>
      </trkpt>
      <trkpt lat="45.14529" lon="6.41991">
        <ele>1563</ele>
        <time>2020-09-15T04:00:31Z</time>
      </trkpt>
      <trkpt lat="45.14452" lon="6.4198">
        <ele>1564</ele>
        <time>2020-09-15T04:00:45Z</time>
      </trkpt>
      <trkpt lat="45.142" lon="6.41973">
        <ele>1571</ele>
        <time>2020-09-15T04:01:30Z</time>
      </trkpt>
      <trkpt lat="45.13967" lon="6.41986">
        <ele>1582</ele>
        <time>2020-09-15T04:02:11Z</time>
      </trkpt>
      <trkpt lat="45.13873" lon="6.41989">
        <ele>1584</ele>
        <time>2020-09-15T04:02:28Z</time>
      </trkpt>
      <trkpt lat="45.1385" lon="6.41985">
        <ele>1585</ele>
        <time>2020-09-15T04:02:32Z</time>
      </trkpt>
      <trkpt lat="45.13768" lon="6.41957">
        <ele>1590</ele>
        <time>2020-09-15T04:02:47Z</time>
      </trkpt>
      <trkpt lat="45.13744" lon="6.41946">
        <ele>1592</ele>
        <time>2020-09-15T04:02:52Z</time>
      </trkpt>
      <trkpt lat="45.13725" lon="6.41944">
        <ele>1592</ele>
        <time>2020-09-15T04:02:55Z</time>
      </trkpt>
      <trkpt lat="45.13717" lon="6.41949">
        <ele>1592</ele>
        <time>2020-09-15T04:02:57Z</time>
      </trkpt>
      <trkpt lat="45.13697" lon="6.41975">
        <ele>1594</ele>
        <time>2020-09-15T04:03:01Z</time>
      </trkpt>
      <trkpt lat="45.13687" lon="6.41982">
        <ele>1596</ele>
        <time>2020-09-15T04:03:03Z</time>
      </trkpt>
      <trkpt lat="45.13672" lon="6.41983">
        <ele>1597</ele>
        <time>2020-09-15T04:03:06Z</time>
      </trkpt>
      <trkpt lat="45.13599" lon="6.41977">
        <ele>1598</ele>
        <time>2020-09-15T04:03:19Z</time>
      </trkpt>
      <trkpt lat="45.13223" lon="6.41867">
        <ele>1599</ele>
        <time>2020-09-15T04:04:27Z</time>
      </trkpt>
      <trkpt lat="45.13067" lon="6.41835">
        <ele>1604</ele>
        <time>2020-09-15T04:04:55Z</time>
      </trkpt>
      <trkpt lat="45.13021" lon="6.4183">
        <ele>1604</ele>
        <time>2020-09-15T04:05:04Z</time>
      </trkpt>
      <trkpt lat="45.12867" lon="6.41834">
        <ele>1610</ele>
        <time>2020-09-15T04:05:31Z</time>
      </trkpt>
      <trkpt lat="45.12677" lon="6.4186">
        <ele>1632</ele>
        <time>2020-09-15T04:06:05Z</time>
      </trkpt>
      <trkpt lat="45.12529" lon="6.41866">
        <ele>1646</ele>
        <time>2020-09-15T04:06:31Z</time>
      </trkpt>
      <trkpt lat="45.12502" lon="6.41864">
        <ele>1646</ele>
        <time>2020-09-15T04:06:36Z</time>
      </trkpt>
      <trkpt lat="45.12494" lon="6.4186">
        <ele>1645</ele>
        <time>2020-09-15T04:06:38Z</time>
      </trkpt>
      <trkpt lat="45.12444" lon="6.418">
        <ele>1647</ele>
        <time>2020-09-15T04:06:49Z</time>
      </trkpt>
      <trkpt lat="45.12412" lon="6.41779">
        <ele>1647</ele>
        <time>2020-09-15T04:06:56Z</time>
      </trkpt>
      <trkpt lat="45.12389" lon="6.41759">
        <ele>1648</ele>
        <time>2020-09-15T04:07:00Z</time>
      </trkpt>
      <trkpt lat="45.1238" lon="6.41758">
        <ele>1649</ele>
        <time>2020-09-15T04:07:02Z</time>
      </trkpt>
      <trkpt lat="45.12375" lon="6.41761">
        <ele>1649</ele>
        <time>2020-09-15T04:07:03Z</time>
      </trkpt>
      <trkpt lat="45.12372" lon="6.41765">
        <ele>1650</ele>
        <time>2020-09-15T04:07:04Z</time>
      </trkpt>
      <trkpt lat="45.12371" lon="6.41772">
        <ele>1651</ele>
        <time>2020-09-15T04:07:05Z</time>
      </trkpt>
      <trkpt lat="45.12391" lon="6.41846">
        <ele>1656</ele>
        <time>2020-09-15T04:07:15Z</time>
      </trkpt>
      <trkpt lat="45.12404" lon="6.41872">
        <ele>1657</ele>
        <time>2020-09-15T04:07:19Z</time>
      </trkpt>
      <trkpt lat="45.12405" lon="6.41884">
        <ele>1658</ele>
        <time>2020-09-15T04:07:20Z</time>
      </trkpt>
      <trkpt lat="45.12401" lon="6.41892">
        <ele>1660</ele>
        <time>2020-09-15T04:07:21Z</time>
      </trkpt>
      <trkpt lat="45.12398" lon="6.41894">
        <ele>1660</ele>
        <time>2020-09-15T04:07:22Z</time>
      </trkpt>
      <trkpt lat="45.12393" lon="6.41894">
        <ele>1661</ele>
        <time>2020-09-15T04:07:23Z</time>
      </trkpt>
      <trkpt lat="45.12389" lon="6.41891">
        <ele>1661</ele>
        <time>2020-09-15T04:07:24Z</time>
      </trkpt>
      <trkpt lat="45.1237" lon="6.41872">
        <ele>1661</ele>
        <time>2020-09-15T04:07:28Z</time>
      </trkpt>
      <trkpt lat="45.12355" lon="6.41862">
        <ele>1662</ele>
        <time>2020-09-15T04:07:31Z</time>
      </trkpt>
      <trkpt lat="45.12228" lon="6.41785">
        <ele>1668</ele>
        <time>2020-09-15T04:07:55Z</time>
      </trkpt>
      <trkpt lat="45.12192" lon="6.41781">
        <ele>1671</ele>
        <time>2020-09-15T04:08:02Z</time>
      </trkpt>
      <trkpt lat="45.12036" lon="6.41791">
        <ele>1685</ele>
        <time>2020-09-15T04:08:29Z</time>
      </trkpt>
      <trkpt lat="45.11928" lon="6.41796">
        <ele>1696</ele>
        <time>2020-09-15T04:08:49Z</time>
      </trkpt>
      <trkpt lat="45.11905" lon="6.41797">
        <ele>1699</ele>
        <time>2020-09-15T04:08:53Z</time>
      </trkpt>
      <trkpt lat="45.11892" lon="6.41802">
        <ele>1701</ele>
        <time>2020-09-15T04:08:55Z</time>
      </trkpt>
      <trkpt lat="45.11882" lon="6.41812">
        <ele>1702</ele>
        <time>2020-09-15T04:08:57Z</time>
      </trkpt>
      <trkpt lat="45.11874" lon="6.41823">
        <ele>1702</ele>
        <time>2020-09-15T04:08:59Z</time>
      </trkpt>
      <trkpt lat="45.11809" lon="6.4193">
        <ele>1712</ele>
        <time>2020-09-15T04:09:17Z</time>
      </trkpt>
      <trkpt lat="45.11785" lon="6.41966">
        <ele>1716</ele>
        <time>2020-09-15T04:09:23Z</time>
      </trkpt>
      <trkpt lat="45.11722" lon="6.42028">
        <ele>1723</ele>
        <time>2020-09-15T04:09:37Z</time>
      </trkpt>
      <trkpt lat="45.11669" lon="6.42091">
        <ele>1724</ele>
        <time>2020-09-15T04:09:49Z</time>
      </trkpt>
      <trkpt lat="45.11661" lon="6.42099">
        <ele>1725</ele>
        <time>2020-09-15T04:09:51Z</time>
      </trkpt>
      <trkpt lat="45.11599" lon="6.42136">
        <ele>1727</ele>
        <time>2020-09-15T04:10:03Z</time>
      </trkpt>
      <trkpt lat="45.1159" lon="6.42144">
        <ele>1727</ele>
        <time>2020-09-15T04:10:05Z</time>
      </trkpt>
      <trkpt lat="45.11574" lon="6.42162">
        <ele>1728</ele>
        <time>2020-09-15T04:10:08Z</time>
      </trkpt>
      <trkpt lat="45.11556" lon="6.42187">
        <ele>1731</ele>
        <time>2020-09-15T04:10:13Z</time>
      </trkpt>
      <trkpt lat="45.11551" lon="6.42197">
        <ele>1732</ele>
        <time>2020-09-15T04:10:15Z</time>
      </trkpt>
      <trkpt lat="45.11516" lon="6.4229">
        <ele>1741</ele>
        <time>2020-09-15T04:10:28Z</time>
      </trkpt>
      <trkpt lat="45.11501" lon="6.42317">
        <ele>1743</ele>
        <time>2020-09-15T04:10:32Z</time>
      </trkpt>
      <trkpt lat="45.11489" lon="6.42335">
        <ele>1745</ele>
        <time>2020-09-15T04:10:35Z</time>
      </trkpt>
      <trkpt lat="45.11477" lon="6.42347">
        <ele>1747</ele>
        <time>2020-09-15T04:10:38Z</time>
      </trkpt>
      <trkpt lat="45.11466" lon="6.42354">
        <ele>1749</ele>
        <time>2020-09-15T04:10:40Z</time>
      </trkpt>
      <trkpt lat="45.11445" lon="6.42359">
        <ele>1751</ele>
        <time>2020-09-15T04:10:44Z</time>
      </trkpt>
      <trkpt lat="45.11397" lon="6.42362">
        <ele>1754</ele>
        <time>2020-09-15T04:10:52Z</time>
      </trkpt>
      <trkpt lat="45.11361" lon="6.42362">
        <ele>1755</ele>
        <time>2020-09-15T04:10:59Z</time>
      </trkpt>
      <trkpt lat="45.11331" lon="6.42366">
        <ele>1756</ele>
        <time>2020-09-15T04:11:04Z</time>
      </trkpt>
      <trkpt lat="45.11303" lon="6.42374">
        <ele>1758</ele>
        <time>2020-09-15T04:11:09Z</time>
      </trkpt>
      <trkpt lat="45.11283" lon="6.4239">
        <ele>1761</ele>
        <time>2020-09-15T04:11:13Z</time>
      </trkpt>
      <trkpt lat="45.11268" lon="6.4241">
        <ele>1764</ele>
        <time>2020-09-15T04:11:17Z</time>
      </trkpt>
      <trkpt lat="45.11256" lon="6.42424">
        <ele>1767</ele>
        <time>2020-09-15T04:11:20Z</time>
      </trkpt>
      <trkpt lat="45.11245" lon="6.42429">
        <ele>1769</ele>
        <time>2020-09-15T04:11:22Z</time>
      </trkpt>
      <trkpt lat="45.11231" lon="6.42432">
        <ele>1770</ele>
        <time>2020-09-15T04:11:24Z</time>
      </trkpt>
      <trkpt lat="45.11163" lon="6.4243">
        <ele>1770</ele>
        <time>2020-09-15T04:11:36Z</time>
      </trkpt>
      <trkpt lat="45.1113" lon="6.42434">
        <ele>1770</ele>
        <time>2020-09-15T04:11:42Z</time>
      </trkpt>
      <trkpt lat="45.11116" lon="6.42439">
        <ele>1771</ele>
        <time>2020-09-15T04:11:45Z</time>
      </trkpt>
      <trkpt lat="45.11052" lon="6.42483">
        <ele>1781</ele>
        <time>2020-09-15T04:11:57Z</time>
      </trkpt>
      <trkpt lat="45.10999" lon="6.42516">
        <ele>1786</ele>
        <time>2020-09-15T04:12:08Z</time>
      </trkpt>
      <trkpt lat="45.10982" lon="6.42533">
        <ele>1788</ele>
        <time>2020-09-15T04:12:11Z</time>
      </trkpt>
      <trkpt lat="45.10956" lon="6.42575">
        <ele>1797</ele>
        <time>2020-09-15T04:12:18Z</time>
      </trkpt>
      <trkpt lat="45.10942" lon="6.4259">
        <ele>1800</ele>
        <time>2020-09-15T04:12:22Z</time>
      </trkpt>
      <trkpt lat="45.1093" lon="6.42599">
        <ele>1802</ele>
        <time>2020-09-15T04:12:24Z</time>
      </trkpt>
      <trkpt lat="45.1092" lon="6.42599">
        <ele>1801</ele>
        <time>2020-09-15T04:12:26Z</time>
      </trkpt>
      <trkpt lat="45.10911" lon="6.42597">
        <ele>1801</ele>
        <time>2020-09-15T04:12:27Z</time>
      </trkpt>
      <trkpt lat="45.10865" lon="6.42579">
        <ele>1801</ele>
        <time>2020-09-15T04:12:36Z</time>
      </trkpt>
      <trkpt lat="45.10702" lon="6.42534">
        <ele>1807</ele>
        <time>2020-09-15T04:13:05Z</time>
      </trkpt>
      <trkpt lat="45.1067" lon="6.42537">
        <ele>1813</ele>
        <time>2020-09-15T04:13:11Z</time>
      </trkpt>
      <trkpt lat="45.1063" lon="6.42546">
        <ele>1815</ele>
        <time>2020-09-15T04:13:18Z</time>
      </trkpt>
      <trkpt lat="45.10574" lon="6.42567">
        <ele>1822</ele>
        <time>2020-09-15T04:13:29Z</time>
      </trkpt>
      <trkpt lat="45.10556" lon="6.42577">
        <ele>1823</ele>
        <time>2020-09-15T04:13:32Z</time>
      </trkpt>
      <trkpt lat="45.1049" lon="6.4263">
        <ele>1830</ele>
        <time>2020-09-15T04:13:46Z</time>
      </trkpt>
      <trkpt lat="45.10437" lon="6.42676">
        <ele>1833</ele>
        <time>2020-09-15T04:13:57Z</time>
      </trkpt>
      <trkpt lat="45.10427" lon="6.42692">
        <ele>1835</ele>
        <time>2020-09-15T04:13:59Z</time>
      </trkpt>
      <trkpt lat="45.10416" lon="6.42725">
        <ele>1842</ele>
        <time>2020-09-15T04:14:04Z</time>
      </trkpt>
      <trkpt lat="45.10407" lon="6.42736">
        <ele>1845</ele>
        <time>2020-09-15T04:14:06Z</time>
      </trkpt>
      <trkpt lat="45.10311" lon="6.42785">
        <ele>1847</ele>
        <time>2020-09-15T04:14:24Z</time>
      </trkpt>
      <trkpt lat="45.10298" lon="6.42794">
        <ele>1848</ele>
        <time>2020-09-15T04:14:27Z</time>
      </trkpt>
      <trkpt lat="45.10287" lon="6.42809">
        <ele>1850</ele>
        <time>2020-09-15T04:14:29Z</time>
      </trkpt>
      <trkpt lat="45.10253" lon="6.4287">
        <ele>1859</ele>
        <time>2020-09-15T04:14:39Z</time>
      </trkpt>
      <trkpt lat="45.10241" lon="6.42887">
        <ele>1862</ele>
        <time>2020-09-15T04:14:42Z</time>
      </trkpt>
      <trkpt lat="45.10224" lon="6.42897">
        <ele>1863</ele>
        <time>2020-09-15T04:14:46Z</time>
      </trkpt>
      <trkpt lat="45.10186" lon="6.42908">
        <ele>1863</ele>
        <time>2020-09-15T04:14:52Z</time>
      </trkpt>
      <trkpt lat="45.10155" lon="6.4294">
        <ele>1874</ele>
        <time>2020-09-15T04:14:59Z</time>
      </trkpt>
      <trkpt lat="45.10144" lon="6.42948">
        <ele>1878</ele>
        <time>2020-09-15T04:15:01Z</time>
      </trkpt>
      <trkpt lat="45.10134" lon="6.42952">
        <ele>1880</ele>
        <time>2020-09-15T04:15:03Z</time>
      </trkpt>
      <trkpt lat="45.10107" lon="6.4296">
        <ele>1883</ele>
        <time>2020-09-15T04:15:08Z</time>
      </trkpt>
      <trkpt lat="45.10099" lon="6.42961">
        <ele>1884</ele>
        <time>2020-09-15T04:15:10Z</time>
      </trkpt>
      <trkpt lat="45.10088" lon="6.42959">
        <ele>1884</ele>
        <time>2020-09-15T04:15:12Z</time>
      </trkpt>
      <trkpt lat="45.10078" lon="6.42949">
        <ele>1883</ele>
        <time>2020-09-15T04:15:14Z</time>
      </trkpt>
      <trkpt lat="45.10047" lon="6.42908">
        <ele>1881</ele>
        <time>2020-09-15T04:15:21Z</time>
      </trkpt>
      <trkpt lat="45.10027" lon="6.42888">
        <ele>1880</ele>
        <time>2020-09-15T04:15:26Z</time>
      </trkpt>
      <trkpt lat="45.10014" lon="6.42883">
        <ele>1881</ele>
        <time>2020-09-15T04:15:28Z</time>
      </trkpt>
      <trkpt lat="45.1" lon="6.42884">
        <ele>1885</ele>
        <time>2020-09-15T04:15:31Z</time>
      </trkpt>
      <trkpt lat="45.09974" lon="6.42892">
        <ele>1888</ele>
        <time>2020-09-15T04:15:35Z</time>
      </trkpt>
      <trkpt lat="45.09964" lon="6.42893">
        <ele>1889</ele>
        <time>2020-09-15T04:15:37Z</time>
      </trkpt>
      <trkpt lat="45.09926" lon="6.42891">
        <ele>1890</ele>
        <time>2020-09-15T04:15:44Z</time>
      </trkpt>
      <trkpt lat="45.09918" lon="6.42894">
        <ele>1891</ele>
        <time>2020-09-15T04:15:45Z</time>
      </trkpt>
      <trkpt lat="45.09908" lon="6.42903">
        <ele>1892</ele>
        <time>2020-09-15T04:15:47Z</time>
      </trkpt>
      <trkpt lat="45.09903" lon="6.42908">
        <ele>1893</ele>
        <time>2020-09-15T04:15:49Z</time>
      </trkpt>
      <trkpt lat="45.09886" lon="6.42939">
        <ele>1899</ele>
        <time>2020-09-15T04:15:53Z</time>
      </trkpt>
      <trkpt lat="45.09877" lon="6.42949">
        <ele>1900</ele>
        <time>2020-09-15T04:15:55Z</time>
      </trkpt>
      <trkpt lat="45.09869" lon="6.42955">
        <ele>1901</ele>
        <time>2020-09-15T04:15:57Z</time>
      </trkpt>
      <trkpt lat="45.09853" lon="6.42964">
        <ele>1901</ele>
        <time>2020-09-15T04:16:00Z</time>
      </trkpt>
      <trkpt lat="45.09838" lon="6.4297">
        <ele>1901</ele>
        <time>2020-09-15T04:16:03Z</time>
      </trkpt>
      <trkpt lat="45.09798" lon="6.42979">
        <ele>1903</ele>
        <time>2020-09-15T04:16:10Z</time>
      </trkpt>
      <trkpt lat="45.09731" lon="6.43001">
        <ele>1910</ele>
        <time>2020-09-15T04:16:22Z</time>
      </trkpt>
      <trkpt lat="45.09719" lon="6.43008">
        <ele>1912</ele>
        <time>2020-09-15T04:16:25Z</time>
      </trkpt>
      <trkpt lat="45.09691" lon="6.43035">
        <ele>1920</ele>
        <time>2020-09-15T04:16:31Z</time>
      </trkpt>
      <trkpt lat="45.09673" lon="6.43048">
        <ele>1924</ele>
        <time>2020-09-15T04:16:34Z</time>
      </trkpt>
      <trkpt lat="45.09657" lon="6.43052">
        <ele>1925</ele>
        <time>2020-09-15T04:16:37Z</time>
      </trkpt>
      <trkpt lat="45.09619" lon="6.43049">
        <ele>1926</ele>
        <time>2020-09-15T04:16:44Z</time>
      </trkpt>
      <trkpt lat="45.09561" lon="6.43049">
        <ele>1929</ele>
        <time>2020-09-15T04:16:54Z</time>
      </trkpt>
      <trkpt lat="45.09534" lon="6.43051">
        <ele>1931</ele>
        <time>2020-09-15T04:16:59Z</time>
      </trkpt>
      <trkpt lat="45.09512" lon="6.43049">
        <ele>1932</ele>
        <time>2020-09-15T04:17:03Z</time>
      </trkpt>
      <trkpt lat="45.09502" lon="6.43049">
        <ele>1932</ele>
        <time>2020-09-15T04:17:05Z</time>
      </trkpt>
      <trkpt lat="45.09485" lon="6.43054">
        <ele>1933</ele>
        <time>2020-09-15T04:17:08Z</time>
      </trkpt>
      <trkpt lat="45.09471" lon="6.43064">
        <ele>1933</ele>
        <time>2020-09-15T04:17:11Z</time>
      </trkpt>
      <trkpt lat="45.09447" lon="6.43089">
        <ele>1935</ele>
        <time>2020-09-15T04:17:16Z</time>
      </trkpt>
      <trkpt lat="45.09425" lon="6.43108">
        <ele>1937</ele>
        <time>2020-09-15T04:17:21Z</time>
      </trkpt>
      <trkpt lat="45.09394" lon="6.43129">
        <ele>1942</ele>
        <time>2020-09-15T04:17:27Z</time>
      </trkpt>
      <trkpt lat="45.09364" lon="6.43155">
        <ele>1946</ele>
        <time>2020-09-15T04:17:33Z</time>
      </trkpt>
      <trkpt lat="45.09328" lon="6.43173">
        <ele>1946</ele>
        <time>2020-09-15T04:17:40Z</time>
      </trkpt>
      <trkpt lat="45.09311" lon="6.4319">
        <ele>1950</ele>
        <time>2020-09-15T04:17:43Z</time>
      </trkpt>
      <trkpt lat="45.0929" lon="6.43226">
        <ele>1956</ele>
        <time>2020-09-15T04:17:49Z</time>
      </trkpt>
      <trkpt lat="45.09278" lon="6.43234">
        <ele>1955</ele>
        <time>2020-09-15T04:17:52Z</time>
      </trkpt>
      <trkpt lat="45.09235" lon="6.43255">
        <ele>1951</ele>
        <time>2020-09-15T04:18:00Z</time>
      </trkpt>
      <trkpt lat="45.09214" lon="6.43271">
        <ele>1953</ele>
        <time>2020-09-15T04:18:04Z</time>
      </trkpt>
      <trkpt lat="45.09196" lon="6.4329">
        <ele>1954</ele>
        <time>2020-09-15T04:18:08Z</time>
      </trkpt>
      <trkpt lat="45.09182" lon="6.43313">
        <ele>1954</ele>
        <time>2020-09-15T04:18:12Z</time>
      </trkpt>
      <trkpt lat="45.09168" lon="6.43349">
        <ele>1955</ele>
        <time>2020-09-15T04:18:17Z</time>
      </trkpt>
      <trkpt lat="45.09146" lon="6.43384">
        <ele>1959</ele>
        <time>2020-09-15T04:18:23Z</time>
      </trkpt>
      <trkpt lat="45.09141" lon="6.43396">
        <ele>1960</ele>
        <time>2020-09-15T04:18:25Z</time>
      </trkpt>
      <trkpt lat="45.09127" lon="6.43458">
        <ele>1965</ele>
        <time>2020-09-15T04:18:33Z</time>
      </trkpt>
      <trkpt lat="45.09119" lon="6.43482">
        <ele>1966</ele>
        <time>2020-09-15T04:18:36Z</time>
      </trkpt>
      <trkpt lat="45.09108" lon="6.43499">
        <ele>1965</ele>
        <time>2020-09-15T04:18:39Z</time>
      </trkpt>
      <trkpt lat="45.09088" lon="6.43513">
        <ele>1963</ele>
        <time>2020-09-15T04:18:43Z</time>
      </trkpt>
      <trkpt lat="45.09071" lon="6.43521">
        <ele>1964</ele>
        <time>2020-09-15T04:18:46Z</time>
      </trkpt>
      <trkpt lat="45.09031" lon="6.43534">
        <ele>1965</ele>
        <time>2020-09-15T04:18:53Z</time>
      </trkpt>
      <trkpt lat="45.09004" lon="6.43535">
        <ele>1964</ele>
        <time>2020-09-15T04:18:58Z</time>
      </trkpt>
      <trkpt lat="45.08959" lon="6.43527">
        <ele>1964</ele>
        <time>2020-09-15T04:19:06Z</time>
      </trkpt>
      <trkpt lat="45.08921" lon="6.4353">
        <ele>1965</ele>
        <time>2020-09-15T04:19:13Z</time>
      </trkpt>
      <trkpt lat="45.08825" lon="6.43554">
        <ele>1971</ele>
        <time>2020-09-15T04:19:30Z</time>
      </trkpt>
      <trkpt lat="45.08775" lon="6.4358">
        <ele>1974</ele>
        <time>2020-09-15T04:19:40Z</time>
      </trkpt>
      <trkpt lat="45.08753" lon="6.43596">
        <ele>1976</ele>
        <time>2020-09-15T04:19:44Z</time>
      </trkpt>
      <trkpt lat="45.08654" lon="6.43702">
        <ele>1987</ele>
        <time>2020-09-15T04:20:06Z</time>
      </trkpt>
      <trkpt lat="45.0862" lon="6.43734">
        <ele>1990</ele>
        <time>2020-09-15T04:20:14Z</time>
      </trkpt>
      <trkpt lat="45.08612" lon="6.43738">
        <ele>1990</ele>
        <time>2020-09-15T04:20:15Z</time>
      </trkpt>
      <trkpt lat="45.08605" lon="6.43739">
        <ele>1990</ele>
        <time>2020-09-15T04:20:16Z</time>
      </trkpt>
      <trkpt lat="45.08598" lon="6.43738">
        <ele>1990</ele>
        <time>2020-09-15T04:20:18Z</time>
      </trkpt>
      <trkpt lat="45.08593" lon="6.43734">
        <ele>1990</ele>
        <time>2020-09-15T04:20:19Z</time>
      </trkpt>
      <trkpt lat="45.08584" lon="6.43724">
        <ele>1990</ele>
        <time>2020-09-15T04:20:21Z</time>
      </trkpt>
      <trkpt lat="45.08575" lon="6.43711">
        <ele>1992</ele>
        <time>2020-09-15T04:20:23Z</time>
      </trkpt>
      <trkpt lat="45.08572" lon="6.43704">
        <ele>1992</ele>
        <time>2020-09-15T04:20:24Z</time>
      </trkpt>
      <trkpt lat="45.0857" lon="6.437">
        <ele>1993</ele>
        <time>2020-09-15T04:20:25Z</time>
      </trkpt>
      <trkpt lat="45.08569" lon="6.43693">
        <ele>1993</ele>
        <time>2020-09-15T04:20:26Z</time>
      </trkpt>
      <trkpt lat="45.08569" lon="6.43685">
        <ele>1993</ele>
        <time>2020-09-15T04:20:27Z</time>
      </trkpt>
      <trkpt lat="45.08571" lon="6.43666">
        <ele>1993</ele>
        <time>2020-09-15T04:20:29Z</time>
      </trkpt>
      <trkpt lat="45.08578" lon="6.43646">
        <ele>1995</ele>
        <time>2020-09-15T04:20:32Z</time>
      </trkpt>
      <trkpt lat="45.08595" lon="6.4361">
        <ele>1996</ele>
        <time>2020-09-15T04:20:37Z</time>
      </trkpt>
      <trkpt lat="45.08606" lon="6.43574">
        <ele>2000</ele>
        <time>2020-09-15T04:20:42Z</time>
      </trkpt>
      <trkpt lat="45.08618" lon="6.43548">
        <ele>2005</ele>
        <time>2020-09-15T04:20:46Z</time>
      </trkpt>
      <trkpt lat="45.08696" lon="6.4343">
        <ele>2019</ele>
        <time>2020-09-15T04:21:06Z</time>
      </trkpt>
      <trkpt lat="45.08754" lon="6.43377">
        <ele>2018</ele>
        <time>2020-09-15T04:21:19Z</time>
      </trkpt>
      <trkpt lat="45.08785" lon="6.43353">
        <ele>2017</ele>
        <time>2020-09-15T04:21:25Z</time>
      </trkpt>
      <trkpt lat="45.08796" lon="6.4334">
        <ele>2018</ele>
        <time>2020-09-15T04:21:28Z</time>
      </trkpt>
      <trkpt lat="45.0881" lon="6.43313">
        <ele>2023</ele>
        <time>2020-09-15T04:21:32Z</time>
      </trkpt>
      <trkpt lat="45.08815" lon="6.43295">
        <ele>2027</ele>
        <time>2020-09-15T04:21:34Z</time>
      </trkpt>
      <trkpt lat="45.08821" lon="6.43261">
        <ele>2035</ele>
        <time>2020-09-15T04:21:39Z</time>
      </trkpt>
      <trkpt lat="45.08825" lon="6.4325">
        <ele>2037</ele>
        <time>2020-09-15T04:21:40Z</time>
      </trkpt>
      <trkpt lat="45.08831" lon="6.43241">
        <ele>2037</ele>
        <time>2020-09-15T04:21:42Z</time>
      </trkpt>
      <trkpt lat="45.08838" lon="6.43236">
        <ele>2037</ele>
        <time>2020-09-15T04:21:43Z</time>
      </trkpt>
      <trkpt lat="45.08863" lon="6.43218">
        <ele>2038</ele>
        <time>2020-09-15T04:21:48Z</time>
      </trkpt>
      <trkpt lat="45.08899" lon="6.43181">
        <ele>2045</ele>
        <time>2020-09-15T04:21:56Z</time>
      </trkpt>
      <trkpt lat="45.08962" lon="6.43141">
        <ele>2049</ele>
        <time>2020-09-15T04:22:08Z</time>
      </trkpt>
      <trkpt lat="45.08993" lon="6.43125">
        <ele>2050</ele>
        <time>2020-09-15T04:22:14Z</time>
      </trkpt>
      <trkpt lat="45.08996" lon="6.43123">
        <ele>2050</ele>
        <time>2020-09-15T04:22:15Z</time>
      </trkpt>
      <trkpt lat="45.08999" lon="6.43114">
        <ele>2053</ele>
        <time>2020-09-15T04:22:16Z</time>
      </trkpt>
      <trkpt lat="45.09" lon="6.43107">
        <ele>2055</ele>
        <time>2020-09-15T04:22:17Z</time>
      </trkpt>
      <trkpt lat="45.08995" lon="6.43102">
        <ele>2057</ele>
        <time>2020-09-15T04:22:18Z</time>
      </trkpt>
      <trkpt lat="45.08988" lon="6.43104">
        <ele>2058</ele>
        <time>2020-09-15T04:22:19Z</time>
      </trkpt>
      <trkpt lat="45.08964" lon="6.4312">
        <ele>2056</ele>
        <time>2020-09-15T04:22:24Z</time>
      </trkpt>
      <trkpt lat="45.08935" lon="6.43134">
        <ele>2055</ele>
        <time>2020-09-15T04:22:29Z</time>
      </trkpt>
      <trkpt lat="45.08923" lon="6.43137">
        <ele>2056</ele>
        <time>2020-09-15T04:22:32Z</time>
      </trkpt>
      <trkpt lat="45.08901" lon="6.43135">
        <ele>2060</ele>
        <time>2020-09-15T04:22:35Z</time>
      </trkpt>
      <trkpt lat="45.08877" lon="6.43139">
        <ele>2063</ele>
        <time>2020-09-15T04:22:40Z</time>
      </trkpt>
      <trkpt lat="45.08869" lon="6.43136">
        <ele>2066</ele>
        <time>2020-09-15T04:22:41Z</time>
      </trkpt>
      <trkpt lat="45.08867" lon="6.43131">
        <ele>2068</ele>
        <time>2020-09-15T04:22:42Z</time>
      </trkpt>
      <trkpt lat="45.08867" lon="6.43125">
        <ele>2070</ele>
        <time>2020-09-15T04:22:43Z</time>
      </trkpt>
      <trkpt lat="45.08871" lon="6.43117">
        <ele>2072</ele>
        <time>2020-09-15T04:22:44Z</time>
      </trkpt>
      <trkpt lat="45.08876" lon="6.43115">
        <ele>2071</ele>
        <time>2020-09-15T04:22:45Z</time>
      </trkpt>
      <trkpt lat="45.08904" lon="6.43118">
        <ele>2066</ele>
        <time>2020-09-15T04:22:50Z</time>
      </trkpt>
      <trkpt lat="45.0892" lon="6.43116">
        <ele>2064</ele>
        <time>2020-09-15T04:22:53Z</time>
      </trkpt>
      <trkpt lat="45.08933" lon="6.43109">
        <ele>2064</ele>
        <time>2020-09-15T04:22:55Z</time>
      </trkpt>
      <trkpt lat="45.08962" lon="6.43084">
        <ele>2068</ele>
        <time>2020-09-15T04:23:01Z</time>
      </trkpt>
      <trkpt lat="45.09004" lon="6.43066">
        <ele>2069</ele>
        <time>2020-09-15T04:23:09Z</time>
      </trkpt>
      <trkpt lat="45.09059" lon="6.43016">
        <ele>2078</ele>
        <time>2020-09-15T04:23:21Z</time>
      </trkpt>
      <trkpt lat="45.09061" lon="6.4301">
        <ele>2080</ele>
        <time>2020-09-15T04:23:22Z</time>
      </trkpt>
      <trkpt lat="45.09062" lon="6.43002">
        <ele>2082</ele>
        <time>2020-09-15T04:23:23Z</time>
      </trkpt>
      <trkpt lat="45.0906" lon="6.42996">
        <ele>2085</ele>
        <time>2020-09-15T04:23:23Z</time>
      </trkpt>
      <trkpt lat="45.09057" lon="6.42994">
        <ele>2086</ele>
        <time>2020-09-15T04:23:24Z</time>
      </trkpt>
      <trkpt lat="45.0905" lon="6.42995">
        <ele>2087</ele>
        <time>2020-09-15T04:23:25Z</time>
      </trkpt>
      <trkpt lat="45.09016" lon="6.43022">
        <ele>2085</ele>
        <time>2020-09-15T04:23:32Z</time>
      </trkpt>
      <trkpt lat="45.09004" lon="6.43027">
        <ele>2085</ele>
        <time>2020-09-15T04:23:34Z</time>
      </trkpt>
      <trkpt lat="45.08952" lon="6.43039">
        <ele>2087</ele>
        <time>2020-09-15T04:23:44Z</time>
      </trkpt>
      <trkpt lat="45.08939" lon="6.43038">
        <ele>2089</ele>
        <time>2020-09-15T04:23:46Z</time>
      </trkpt>
      <trkpt lat="45.08919" lon="6.43028">
        <ele>2095</ele>
        <time>2020-09-15T04:23:50Z</time>
      </trkpt>
      <trkpt lat="45.08877" lon="6.43015">
        <ele>2104</ele>
        <time>2020-09-15T04:23:57Z</time>
      </trkpt>
      <trkpt lat="45.08866" lon="6.43015">
        <ele>2105</ele>
        <time>2020-09-15T04:23:59Z</time>
      </trkpt>
      <trkpt lat="45.08851" lon="6.43016">
        <ele>2106</ele>
        <time>2020-09-15T04:24:02Z</time>
      </trkpt>
      <trkpt lat="45.08828" lon="6.43023">
        <ele>2107</ele>
        <time>2020-09-15T04:24:06Z</time>
      </trkpt>
      <trkpt lat="45.08814" lon="6.43024">
        <ele>2110</ele>
        <time>2020-09-15T04:24:09Z</time>
      </trkpt>
      <trkpt lat="45.08788" lon="6.43019">
        <ele>2117</ele>
        <time>2020-09-15T04:24:13Z</time>
      </trkpt>
      <trkpt lat="45.08773" lon="6.43022">
        <ele>2119</ele>
        <time>2020-09-15T04:24:16Z</time>
      </trkpt>
      <trkpt lat="45.08751" lon="6.43029">
        <ele>2121</ele>
        <time>2020-09-15T04:24:20Z</time>
      </trkpt>
      <trkpt lat="45.08699" lon="6.43041">
        <ele>2132</ele>
        <time>2020-09-15T04:24:30Z</time>
      </trkpt>
      <trkpt lat="45.08694" lon="6.43045">
        <ele>2132</ele>
        <time>2020-09-15T04:24:31Z</time>
      </trkpt>
      <trkpt lat="45.08689" lon="6.43053">
        <ele>2132</ele>
        <time>2020-09-15T04:24:32Z</time>
      </trkpt>
      <trkpt lat="45.08687" lon="6.43062">
        <ele>2130</ele>
        <time>2020-09-15T04:24:33Z</time>
      </trkpt>
      <trkpt lat="45.0869" lon="6.43106">
        <ele>2122</ele>
        <time>2020-09-15T04:24:39Z</time>
      </trkpt>
      <trkpt lat="45.08688" lon="6.43131">
        <ele>2121</ele>
        <time>2020-09-15T04:24:42Z</time>
      </trkpt>
      <trkpt lat="45.08686" lon="6.43163">
        <ele>2119</ele>
        <time>2020-09-15T04:24:46Z</time>
      </trkpt>
      <trkpt lat="45.0868" lon="6.43183">
        <ele>2118</ele>
        <time>2020-09-15T04:24:49Z</time>
      </trkpt>
      <trkpt lat="45.0867" lon="6.43199">
        <ele>2119</ele>
        <time>2020-09-15T04:24:51Z</time>
      </trkpt>
      <trkpt lat="45.08614" lon="6.43245">
        <ele>2127</ele>
        <time>2020-09-15T04:25:03Z</time>
      </trkpt>
      <trkpt lat="45.08603" lon="6.4325">
        <ele>2129</ele>
        <time>2020-09-15T04:25:05Z</time>
      </trkpt>
      <trkpt lat="45.08589" lon="6.43246">
        <ele>2134</ele>
        <time>2020-09-15T04:25:07Z</time>
      </trkpt>
      <trkpt lat="45.08577" lon="6.43229">
        <ele>2138</ele>
        <time>2020-09-15T04:25:10Z</time>
      </trkpt>
      <trkpt lat="45.08572" lon="6.43209">
        <ele>2141</ele>
        <time>2020-09-15T04:25:13Z</time>
      </trkpt>
      <trkpt lat="45.0857" lon="6.43194">
        <ele>2144</ele>
        <time>2020-09-15T04:25:15Z</time>
      </trkpt>
      <trkpt lat="45.08573" lon="6.43141">
        <ele>2149</ele>
        <time>2020-09-15T04:25:22Z</time>
      </trkpt>
      <trkpt lat="45.08574" lon="6.43128">
        <ele>2150</ele>
        <time>2020-09-15T04:25:23Z</time>
      </trkpt>
      <trkpt lat="45.08576" lon="6.43102">
        <ele>2151</ele>
        <time>2020-09-15T04:25:27Z</time>
      </trkpt>
      <trkpt lat="45.0858" lon="6.43085">
        <ele>2152</ele>
        <time>2020-09-15T04:25:29Z</time>
      </trkpt>
      <trkpt lat="45.08586" lon="6.43069">
        <ele>2154</ele>
        <time>2020-09-15T04:25:31Z</time>
      </trkpt>
      <trkpt lat="45.08623" lon="6.42999">
        <ele>2160</ele>
        <time>2020-09-15T04:25:42Z</time>
      </trkpt>
      <trkpt lat="45.08633" lon="6.42988">
        <ele>2160</ele>
        <time>2020-09-15T04:25:44Z</time>
      </trkpt>
      <trkpt lat="45.08654" lon="6.42973">
        <ele>2159</ele>
        <time>2020-09-15T04:25:49Z</time>
      </trkpt>
      <trkpt lat="45.08664" lon="6.42962">
        <ele>2159</ele>
        <time>2020-09-15T04:25:51Z</time>
      </trkpt>
      <trkpt lat="45.08668" lon="6.42953">
        <ele>2160</ele>
        <time>2020-09-15T04:25:52Z</time>
      </trkpt>
      <trkpt lat="45.08668" lon="6.42948">
        <ele>2162</ele>
        <time>2020-09-15T04:25:53Z</time>
      </trkpt>
      <trkpt lat="45.08667" lon="6.42942">
        <ele>2163</ele>
        <time>2020-09-15T04:25:54Z</time>
      </trkpt>
      <trkpt lat="45.08664" lon="6.42936">
        <ele>2165</ele>
        <time>2020-09-15T04:25:54Z</time>
      </trkpt>
      <trkpt lat="45.0866" lon="6.42932">
        <ele>2167</ele>
        <time>2020-09-15T04:25:55Z</time>
      </trkpt>
      <trkpt lat="45.0865" lon="6.42934">
        <ele>2168</ele>
        <time>2020-09-15T04:25:57Z</time>
      </trkpt>
      <trkpt lat="45.08635" lon="6.42954">
        <ele>2166</ele>
        <time>2020-09-15T04:26:01Z</time>
      </trkpt>
      <trkpt lat="45.08611" lon="6.4298">
        <ele>2166</ele>
        <time>2020-09-15T04:26:06Z</time>
      </trkpt>
      <trkpt lat="45.08602" lon="6.42986">
        <ele>2166</ele>
        <time>2020-09-15T04:26:08Z</time>
      </trkpt>
      <trkpt lat="45.08587" lon="6.42991">
        <ele>2169</ele>
        <time>2020-09-15T04:26:11Z</time>
      </trkpt>
      <trkpt lat="45.08548" lon="6.42994">
        <ele>2171</ele>
        <time>2020-09-15T04:26:18Z</time>
      </trkpt>
      <trkpt lat="45.08531" lon="6.42989">
        <ele>2173</ele>
        <time>2020-09-15T04:26:21Z</time>
      </trkpt>
      <trkpt lat="45.08512" lon="6.42977">
        <ele>2176</ele>
        <time>2020-09-15T04:26:24Z</time>
      </trkpt>
      <trkpt lat="45.08506" lon="6.42971">
        <ele>2176</ele>
        <time>2020-09-15T04:26:26Z</time>
      </trkpt>
      <trkpt lat="45.08499" lon="6.4295">
        <ele>2179</ele>
        <time>2020-09-15T04:26:29Z</time>
      </trkpt>
      <trkpt lat="45.08494" lon="6.42931">
        <ele>2180</ele>
        <time>2020-09-15T04:26:31Z</time>
      </trkpt>
      <trkpt lat="45.0849" lon="6.42917">
        <ele>2182</ele>
        <time>2020-09-15T04:26:33Z</time>
      </trkpt>
      <trkpt lat="45.08467" lon="6.42884">
        <ele>2186</ele>
        <time>2020-09-15T04:26:39Z</time>
      </trkpt>
      <trkpt lat="45.08425" lon="6.42802">
        <ele>2198</ele>
        <time>2020-09-15T04:26:52Z</time>
      </trkpt>
      <trkpt lat="45.08417" lon="6.42792">
        <ele>2200</ele>
        <time>2020-09-15T04:26:54Z</time>
      </trkpt>
      <trkpt lat="45.08374" lon="6.42767">
        <ele>2203</ele>
        <time>2020-09-15T04:27:02Z</time>
      </trkpt>
      <trkpt lat="45.08346" lon="6.42731">
        <ele>2209</ele>
        <time>2020-09-15T04:27:09Z</time>
      </trkpt>
      <trkpt lat="45.08338" lon="6.42724">
        <ele>2210</ele>
        <time>2020-09-15T04:27:10Z</time>
      </trkpt>
      <trkpt lat="45.08281" lon="6.42698">
        <ele>2217</ele>
        <time>2020-09-15T04:27:21Z</time>
      </trkpt>
      <trkpt lat="45.08241" lon="6.42682">
        <ele>2221</ele>
        <time>2020-09-15T04:27:28Z</time>
      </trkpt>
      <trkpt lat="45.08106" lon="6.42597">
        <ele>2242</ele>
        <time>2020-09-15T04:27:55Z</time>
      </trkpt>
      <trkpt lat="45.08091" lon="6.42592">
        <ele>2243</ele>
        <time>2020-09-15T04:27:57Z</time>
      </trkpt>
      <trkpt lat="45.08081" lon="6.42594">
        <ele>2242</ele>
        <time>2020-09-15T04:27:59Z</time>
      </trkpt>
      <trkpt lat="45.0807" lon="6.42603">
        <ele>2241</ele>
        <time>2020-09-15T04:28:01Z</time>
      </trkpt>
      <trkpt lat="45.08065" lon="6.42609">
        <ele>2241</ele>
        <time>2020-09-15T04:28:02Z</time>
      </trkpt>
      <trkpt lat="45.08048" lon="6.42636">
        <ele>2239</ele>
        <time>2020-09-15T04:28:07Z</time>
      </trkpt>
      <trkpt lat="45.08036" lon="6.4265">
        <ele>2238</ele>
        <time>2020-09-15T04:28:10Z</time>
      </trkpt>
      <trkpt lat="45.08026" lon="6.42655">
        <ele>2239</ele>
        <time>2020-09-15T04:28:12Z</time>
      </trkpt>
      <trkpt lat="45.07978" lon="6.42668">
        <ele>2245</ele>
        <time>2020-09-15T04:28:20Z</time>
      </trkpt>
      <trkpt lat="45.07968" lon="6.42669">
        <ele>2246</ele>
        <time>2020-09-15T04:28:22Z</time>
      </trkpt>
      <trkpt lat="45.07958" lon="6.42667">
        <ele>2247</ele>
        <time>2020-09-15T04:28:24Z</time>
      </trkpt>
      <trkpt lat="45.07939" lon="6.42653">
        <ele>2251</ele>
        <time>2020-09-15T04:28:28Z</time>
      </trkpt>
      <trkpt lat="45.07819" lon="6.42545">
        <ele>2269</ele>
        <time>2020-09-15T04:28:53Z</time>
      </trkpt>
      <trkpt lat="45.07797" lon="6.42521">
        <ele>2272</ele>
        <time>2020-09-15T04:28:58Z</time>
      </trkpt>
      <trkpt lat="45.07789" lon="6.42504">
        <ele>2273</ele>
        <time>2020-09-15T04:29:01Z</time>
      </trkpt>
      <trkpt lat="45.07788" lon="6.42499">
        <ele>2273</ele>
        <time>2020-09-15T04:29:01Z</time>
      </trkpt>
      <trkpt lat="45.07788" lon="6.4249">
        <ele>2274</ele>
        <time>2020-09-15T04:29:02Z</time>
      </trkpt>
      <trkpt lat="45.07791" lon="6.42477">
        <ele>2275</ele>
        <time>2020-09-15T04:29:04Z</time>
      </trkpt>
      <trkpt lat="45.07795" lon="6.4247">
        <ele>2276</ele>
        <time>2020-09-15T04:29:05Z</time>
      </trkpt>
      <trkpt lat="45.07816" lon="6.42458">
        <ele>2276</ele>
        <time>2020-09-15T04:29:09Z</time>
      </trkpt>
      <trkpt lat="45.07829" lon="6.42446">
        <ele>2278</ele>
        <time>2020-09-15T04:29:12Z</time>
      </trkpt>
      <trkpt lat="45.07876" lon="6.42381">
        <ele>2286</ele>
        <time>2020-09-15T04:29:24Z</time>
      </trkpt>
      <trkpt lat="45.07881" lon="6.42367">
        <ele>2288</ele>
        <time>2020-09-15T04:29:26Z</time>
      </trkpt>
      <trkpt lat="45.07888" lon="6.42309">
        <ele>2293</ele>
        <time>2020-09-15T04:29:33Z</time>
      </trkpt>
      <trkpt lat="45.07893" lon="6.42284">
        <ele>2294</ele>
        <time>2020-09-15T04:29:36Z</time>
      </trkpt>
      <trkpt lat="45.079" lon="6.42267">
        <ele>2295</ele>
        <time>2020-09-15T04:29:39Z</time>
      </trkpt>
      <trkpt lat="45.07911" lon="6.4225">
        <ele>2295</ele>
        <time>2020-09-15T04:29:42Z</time>
      </trkpt>
      <trkpt lat="45.07957" lon="6.42191">
        <ele>2301</ele>
        <time>2020-09-15T04:29:53Z</time>
      </trkpt>
      <trkpt lat="45.07967" lon="6.42184">
        <ele>2302</ele>
        <time>2020-09-15T04:29:55Z</time>
      </trkpt>
      <trkpt lat="45.07973" lon="6.42184">
        <ele>2303</ele>
        <time>2020-09-15T04:29:56Z</time>
      </trkpt>
      <trkpt lat="45.07981" lon="6.42188">
        <ele>2304</ele>
        <time>2020-09-15T04:29:57Z</time>
      </trkpt>
      <trkpt lat="45.07988" lon="6.42199">
        <ele>2304</ele>
        <time>2020-09-15T04:29:59Z</time>
      </trkpt>
      <trkpt lat="45.07993" lon="6.42215">
        <ele>2304</ele>
        <time>2020-09-15T04:30:01Z</time>
      </trkpt>
      <trkpt lat="45.07996" lon="6.42248">
        <ele>2304</ele>
        <time>2020-09-15T04:30:06Z</time>
      </trkpt>
      <trkpt lat="45.07999" lon="6.42255">
        <ele>2304</ele>
        <time>2020-09-15T04:30:07Z</time>
      </trkpt>
      <trkpt lat="45.08016" lon="6.42277">
        <ele>2310</ele>
        <time>2020-09-15T04:30:11Z</time>
      </trkpt>
      <trkpt lat="45.08022" lon="6.42293">
        <ele>2312</ele>
        <time>2020-09-15T04:30:13Z</time>
      </trkpt>
      <trkpt lat="45.08025" lon="6.42307">
        <ele>2314</ele>
        <time>2020-09-15T04:30:15Z</time>
      </trkpt>
      <trkpt lat="45.08025" lon="6.42331">
        <ele>2315</ele>
        <time>2020-09-15T04:30:18Z</time>
      </trkpt>
      <trkpt lat="45.08016" lon="6.42367">
        <ele>2308</ele>
        <time>2020-09-15T04:30:23Z</time>
      </trkpt>
      <trkpt lat="45.08016" lon="6.4238">
        <ele>2307</ele>
        <time>2020-09-15T04:30:24Z</time>
      </trkpt>
      <trkpt lat="45.0802" lon="6.42389">
        <ele>2307</ele>
        <time>2020-09-15T04:30:26Z</time>
      </trkpt>
      <trkpt lat="45.08025" lon="6.42392">
        <ele>2308</ele>
        <time>2020-09-15T04:30:27Z</time>
      </trkpt>
      <trkpt lat="45.0803" lon="6.42391">
        <ele>2309</ele>
        <time>2020-09-15T04:30:27Z</time>
      </trkpt>
      <trkpt lat="45.08036" lon="6.42386">
        <ele>2312</ele>
        <time>2020-09-15T04:30:29Z</time>
      </trkpt>
      <trkpt lat="45.08038" lon="6.42379">
        <ele>2313</ele>
        <time>2020-09-15T04:30:30Z</time>
      </trkpt>
      <trkpt lat="45.08042" lon="6.42338">
        <ele>2320</ele>
        <time>2020-09-15T04:30:35Z</time>
      </trkpt>
      <trkpt lat="45.08057" lon="6.42274">
        <ele>2322</ele>
        <time>2020-09-15T04:30:43Z</time>
      </trkpt>
      <trkpt lat="45.08064" lon="6.42247">
        <ele>2322</ele>
        <time>2020-09-15T04:30:47Z</time>
      </trkpt>
      <trkpt lat="45.08083" lon="6.42199">
        <ele>2326</ele>
        <time>2020-09-15T04:30:54Z</time>
      </trkpt>
      <trkpt lat="45.0809" lon="6.42172">
        <ele>2327</ele>
        <time>2020-09-15T04:30:57Z</time>
      </trkpt>
      <trkpt lat="45.08097" lon="6.42124">
        <ele>2330</ele>
        <time>2020-09-15T04:31:04Z</time>
      </trkpt>
      <trkpt lat="45.08106" lon="6.42085">
        <ele>2333</ele>
        <time>2020-09-15T04:31:09Z</time>
      </trkpt>
      <trkpt lat="45.08105" lon="6.42064">
        <ele>2334</ele>
        <time>2020-09-15T04:31:11Z</time>
      </trkpt>
      <trkpt lat="45.08083" lon="6.41931">
        <ele>2339</ele>
        <time>2020-09-15T04:31:29Z</time>
      </trkpt>
      <trkpt lat="45.08078" lon="6.41808">
        <ele>2348</ele>
        <time>2020-09-15T04:31:44Z</time>
      </trkpt>
      <trkpt lat="45.08074" lon="6.41746">
        <ele>2354</ele>
        <time>2020-09-15T04:31:52Z</time>
      </trkpt>
      <trkpt lat="45.08066" lon="6.41719">
        <ele>2357</ele>
        <time>2020-09-15T04:31:56Z</time>
      </trkpt>
      <trkpt lat="45.08053" lon="6.41691">
        <ele>2359</ele>
        <time>2020-09-15T04:32:00Z</time>
      </trkpt>
      <trkpt lat="45.08046" lon="6.41679">
        <ele>2360</ele>
        <time>2020-09-15T04:32:02Z</time>
      </trkpt>
      <trkpt lat="45.08036" lon="6.41668">
        <ele>2360</ele>
        <time>2020-09-15T04:32:04Z</time>
      </trkpt>
      <trkpt lat="45.07966" lon="6.4162">
        <ele>2358</ele>
        <time>2020-09-15T04:32:18Z</time>
      </trkpt>
      <trkpt lat="45.07956" lon="6.41609">
        <ele>2359</ele>
        <time>2020-09-15T04:32:20Z</time>
      </trkpt>
      <trkpt lat="45.07926" lon="6.41549">
        <ele>2365</ele>
        <time>2020-09-15T04:32:29Z</time>
      </trkpt>
      <trkpt lat="45.07922" lon="6.41537">
        <ele>2367</ele>
        <time>2020-09-15T04:32:31Z</time>
      </trkpt>
      <trkpt lat="45.07914" lon="6.41488">
        <ele>2374</ele>
        <time>2020-09-15T04:32:37Z</time>
      </trkpt>
      <trkpt lat="45.07909" lon="6.41472">
        <ele>2377</ele>
        <time>2020-09-15T04:32:39Z</time>
      </trkpt>
      <trkpt lat="45.07885" lon="6.41427">
        <ele>2382</ele>
        <time>2020-09-15T04:32:47Z</time>
      </trkpt>
      <trkpt lat="45.07876" lon="6.41415">
        <ele>2383</ele>
        <time>2020-09-15T04:32:49Z</time>
      </trkpt>
      <trkpt lat="45.07864" lon="6.41402">
        <ele>2384</ele>
        <time>2020-09-15T04:32:51Z</time>
      </trkpt>
      <trkpt lat="45.07761" lon="6.41316">
        <ele>2389</ele>
        <time>2020-09-15T04:33:13Z</time>
      </trkpt>
      <trkpt lat="45.07724" lon="6.41272">
        <ele>2394</ele>
        <time>2020-09-15T04:33:21Z</time>
      </trkpt>
      <trkpt lat="45.07667" lon="6.4122">
        <ele>2399</ele>
        <time>2020-09-15T04:33:33Z</time>
      </trkpt>
      <trkpt lat="45.07626" lon="6.41191">
        <ele>2403</ele>
        <time>2020-09-15T04:33:42Z</time>
      </trkpt>
      <trkpt lat="45.07613" lon="6.41189">
        <ele>2403</ele>
        <time>2020-09-15T04:33:44Z</time>
      </trkpt>
      <trkpt lat="45.07606" lon="6.41192">
        <ele>2403</ele>
        <time>2020-09-15T04:33:45Z</time>
      </trkpt>
      <trkpt lat="45.07601" lon="6.41197">
        <ele>2403</ele>
        <time>2020-09-15T04:33:46Z</time>
      </trkpt>
      <trkpt lat="45.07597" lon="6.41205">
        <ele>2402</ele>
        <time>2020-09-15T04:33:47Z</time>
      </trkpt>
      <trkpt lat="45.07595" lon="6.41215">
        <ele>2401</ele>
        <time>2020-09-15T04:33:49Z</time>
      </trkpt>
      <trkpt lat="45.07593" lon="6.41243">
        <ele>2399</ele>
        <time>2020-09-15T04:33:52Z</time>
      </trkpt>
      <trkpt lat="45.0759" lon="6.41252">
        <ele>2399</ele>
        <time>2020-09-15T04:33:54Z</time>
      </trkpt>
      <trkpt lat="45.07584" lon="6.4126">
        <ele>2399</ele>
        <time>2020-09-15T04:33:55Z</time>
      </trkpt>
      <trkpt lat="45.07506" lon="6.41321">
        <ele>2413</ele>
        <time>2020-09-15T04:34:11Z</time>
      </trkpt>
      <trkpt lat="45.07496" lon="6.41325">
        <ele>2414</ele>
        <time>2020-09-15T04:34:13Z</time>
      </trkpt>
      <trkpt lat="45.07451" lon="6.41332">
        <ele>2419</ele>
        <time>2020-09-15T04:34:21Z</time>
      </trkpt>
      <trkpt lat="45.07418" lon="6.41334">
        <ele>2423</ele>
        <time>2020-09-15T04:34:27Z</time>
      </trkpt>
      <trkpt lat="45.07407" lon="6.41327">
        <ele>2424</ele>
        <time>2020-09-15T04:34:29Z</time>
      </trkpt>
      <trkpt lat="45.07381" lon="6.41287">
        <ele>2428</ele>
        <time>2020-09-15T04:34:36Z</time>
      </trkpt>
      <trkpt lat="45.07373" lon="6.41279">
        <ele>2429</ele>
        <time>2020-09-15T04:34:37Z</time>
      </trkpt>
      <trkpt lat="45.07365" lon="6.41277">
        <ele>2430</ele>
        <time>2020-09-15T04:34:39Z</time>
      </trkpt>
      <trkpt lat="45.07351" lon="6.41277">
        <ele>2431</ele>
        <time>2020-09-15T04:34:41Z</time>
      </trkpt>
      <trkpt lat="45.07324" lon="6.41284">
        <ele>2433</ele>
        <time>2020-09-15T04:34:46Z</time>
      </trkpt>
      <trkpt lat="45.0729" lon="6.41285">
        <ele>2437</ele>
        <time>2020-09-15T04:34:52Z</time>
      </trkpt>
      <trkpt lat="45.0724" lon="6.41299">
        <ele>2442</ele>
        <time>2020-09-15T04:35:01Z</time>
      </trkpt>
      <trkpt lat="45.07225" lon="6.41301">
        <ele>2443</ele>
        <time>2020-09-15T04:35:04Z</time>
      </trkpt>
      <trkpt lat="45.07219" lon="6.41298">
        <ele>2444</ele>
        <time>2020-09-15T04:35:05Z</time>
      </trkpt>
      <trkpt lat="45.07214" lon="6.41293">
        <ele>2445</ele>
        <time>2020-09-15T04:35:06Z</time>
      </trkpt>
      <trkpt lat="45.07209" lon="6.41282">
        <ele>2446</ele>
        <time>2020-09-15T04:35:08Z</time>
      </trkpt>
      <trkpt lat="45.07207" lon="6.4127">
        <ele>2447</ele>
        <time>2020-09-15T04:35:09Z</time>
      </trkpt>
      <trkpt lat="45.07207" lon="6.41247">
        <ele>2448</ele>
        <time>2020-09-15T04:35:12Z</time>
      </trkpt>
      <trkpt lat="45.07212" lon="6.41212">
        <ele>2448</ele>
        <time>2020-09-15T04:35:17Z</time>
      </trkpt>
      <trkpt lat="45.07212" lon="6.41191">
        <ele>2448</ele>
        <time>2020-09-15T04:35:19Z</time>
      </trkpt>
      <trkpt lat="45.0721" lon="6.41183">
        <ele>2449</ele>
        <time>2020-09-15T04:35:21Z</time>
      </trkpt>
      <trkpt lat="45.07201" lon="6.41169">
        <ele>2450</ele>
        <time>2020-09-15T04:35:23Z</time>
      </trkpt>
      <trkpt lat="45.0719" lon="6.41161">
        <ele>2451</ele>
        <time>2020-09-15T04:35:25Z</time>
      </trkpt>
      <trkpt lat="45.07145" lon="6.41153">
        <ele>2456</ele>
        <time>2020-09-15T04:35:33Z</time>
      </trkpt>
      <trkpt lat="45.07105" lon="6.4115">
        <ele>2458</ele>
        <time>2020-09-15T04:35:40Z</time>
      </trkpt>
      <trkpt lat="45.07097" lon="6.41146">
        <ele>2458</ele>
        <time>2020-09-15T04:35:42Z</time>
      </trkpt>
      <trkpt lat="45.07084" lon="6.41137">
        <ele>2458</ele>
        <time>2020-09-15T04:35:44Z</time>
      </trkpt>
      <trkpt lat="45.07062" lon="6.41121">
        <ele>2459</ele>
        <time>2020-09-15T04:35:49Z</time>
      </trkpt>
      <trkpt lat="45.07032" lon="6.41098">
        <ele>2462</ele>
        <time>2020-09-15T04:35:55Z</time>
      </trkpt>
      <trkpt lat="45.07015" lon="6.41089">
        <ele>2466</ele>
        <time>2020-09-15T04:35:58Z</time>
      </trkpt>
      <trkpt lat="45.07012" lon="6.41089">
        <ele>2466</ele>
        <time>2020-09-15T04:35:59Z</time>
      </trkpt>
      <trkpt lat="45.07003" lon="6.41086">
        <ele>2468</ele>
        <time>2020-09-15T04:36:00Z</time>
      </trkpt>
      <trkpt lat="45.06966" lon="6.41079">
        <ele>2468</ele>
        <time>2020-09-15T04:36:07Z</time>
      </trkpt>
      <trkpt lat="45.0694" lon="6.41067">
        <ele>2469</ele>
        <time>2020-09-15T04:36:12Z</time>
      </trkpt>
      <trkpt lat="45.06925" lon="6.41057">
        <ele>2470</ele>
        <time>2020-09-15T04:36:15Z</time>
      </trkpt>
      <trkpt lat="45.06919" lon="6.41046">
        <ele>2471</ele>
        <time>2020-09-15T04:36:16Z</time>
      </trkpt>
      <trkpt lat="45.06918" lon="6.41036">
        <ele>2472</ele>
        <time>2020-09-15T04:36:18Z</time>
      </trkpt>
      <trkpt lat="45.06919" lon="6.41023">
        <ele>2473</ele>
        <time>2020-09-15T04:36:19Z</time>
      </trkpt>
      <trkpt lat="45.06926" lon="6.41">
        <ele>2474</ele>
        <time>2020-09-15T04:36:23Z</time>
      </trkpt>
      <trkpt lat="45.06926" lon="6.40988">
        <ele>2474</ele>
        <time>2020-09-15T04:36:24Z</time>
      </trkpt>
      <trkpt lat="45.06922" lon="6.40978">
        <ele>2475</ele>
        <time>2020-09-15T04:36:25Z</time>
      </trkpt>
      <trkpt lat="45.06914" lon="6.40975">
        <ele>2478</ele>
        <time>2020-09-15T04:36:27Z</time>
      </trkpt>
      <trkpt lat="45.06909" lon="6.40977">
        <ele>2479</ele>
        <time>2020-09-15T04:36:28Z</time>
      </trkpt>
      <trkpt lat="45.06891" lon="6.40992">
        <ele>2481</ele>
        <time>2020-09-15T04:36:32Z</time>
      </trkpt>
      <trkpt lat="45.06854" lon="6.41001">
        <ele>2487</ele>
        <time>2020-09-15T04:36:38Z</time>
      </trkpt>
      <trkpt lat="45.0684" lon="6.4101">
        <ele>2489</ele>
        <time>2020-09-15T04:36:41Z</time>
      </trkpt>
      <trkpt lat="45.06826" lon="6.41027">
        <ele>2493</ele>
        <time>2020-09-15T04:36:44Z</time>
      </trkpt>
      <trkpt lat="45.06822" lon="6.41037">
        <ele>2495</ele>
        <time>2020-09-15T04:36:46Z</time>
      </trkpt>
      <trkpt lat="45.0682" lon="6.41048">
        <ele>2495</ele>
        <time>2020-09-15T04:36:47Z</time>
      </trkpt>
      <trkpt lat="45.06821" lon="6.41073">
        <ele>2494</ele>
        <time>2020-09-15T04:36:50Z</time>
      </trkpt>
      <trkpt lat="45.06818" lon="6.41087">
        <ele>2495</ele>
        <time>2020-09-15T04:36:52Z</time>
      </trkpt>
      <trkpt lat="45.0681" lon="6.41093">
        <ele>2499</ele>
        <time>2020-09-15T04:36:54Z</time>
      </trkpt>
      <trkpt lat="45.06801" lon="6.41091">
        <ele>2503</ele>
        <time>2020-09-15T04:36:55Z</time>
      </trkpt>
      <trkpt lat="45.06797" lon="6.41086">
        <ele>2505</ele>
        <time>2020-09-15T04:36:56Z</time>
      </trkpt>
      <trkpt lat="45.06795" lon="6.41074">
        <ele>2506</ele>
        <time>2020-09-15T04:36:58Z</time>
      </trkpt>
      <trkpt lat="45.06801" lon="6.4104">
        <ele>2503</ele>
        <time>2020-09-15T04:37:02Z</time>
      </trkpt>
      <trkpt lat="45.06805" lon="6.40955">
        <ele>2506</ele>
        <time>2020-09-15T04:37:13Z</time>
      </trkpt>
      <trkpt lat="45.06809" lon="6.40942">
        <ele>2506</ele>
        <time>2020-09-15T04:37:15Z</time>
      </trkpt>
      <trkpt lat="45.06814" lon="6.40935">
        <ele>2505</ele>
        <time>2020-09-15T04:37:16Z</time>
      </trkpt>
      <trkpt lat="45.06819" lon="6.40931">
        <ele>2504</ele>
        <time>2020-09-15T04:37:17Z</time>
      </trkpt>
      <trkpt lat="45.06823" lon="6.40929">
        <ele>2503</ele>
        <time>2020-09-15T04:37:18Z</time>
      </trkpt>
      <trkpt lat="45.06827" lon="6.40928">
        <ele>2502</ele>
        <time>2020-09-15T04:37:19Z</time>
      </trkpt>
      <trkpt lat="45.06845" lon="6.40924">
        <ele>2497</ele>
        <time>2020-09-15T04:37:22Z</time>
      </trkpt>
      <trkpt lat="45.06851" lon="6.40918">
        <ele>2496</ele>
        <time>2020-09-15T04:37:23Z</time>
      </trkpt>
      <trkpt lat="45.06855" lon="6.40911">
        <ele>2495</ele>
        <time>2020-09-15T04:37:24Z</time>
      </trkpt>
      <trkpt lat="45.06856" lon="6.40907">
        <ele>2495</ele>
        <time>2020-09-15T04:37:25Z</time>
      </trkpt>
      <trkpt lat="45.06857" lon="6.40898">
        <ele>2494</ele>
        <time>2020-09-15T04:37:26Z</time>
      </trkpt>
      <trkpt lat="45.06856" lon="6.40887">
        <ele>2493</ele>
        <time>2020-09-15T04:37:27Z</time>
      </trkpt>
      <trkpt lat="45.0685" lon="6.40876">
        <ele>2494</ele>
        <time>2020-09-15T04:37:29Z</time>
      </trkpt>
      <trkpt lat="45.06842" lon="6.40867">
        <ele>2497</ele>
        <time>2020-09-15T04:37:31Z</time>
      </trkpt>
      <trkpt lat="45.06832" lon="6.40865">
        <ele>2500</ele>
        <time>2020-09-15T04:37:33Z</time>
      </trkpt>
      <trkpt lat="45.06822" lon="6.40866">
        <ele>2503</ele>
        <time>2020-09-15T04:37:34Z</time>
      </trkpt>
      <trkpt lat="45.06792" lon="6.4088">
        <ele>2513</ele>
        <time>2020-09-15T04:37:40Z</time>
      </trkpt>
      <trkpt lat="45.06768" lon="6.40892">
        <ele>2521</ele>
        <time>2020-09-15T04:37:45Z</time>
      </trkpt>
      <trkpt lat="45.06756" lon="6.40903">
        <ele>2525</ele>
        <time>2020-09-15T04:37:47Z</time>
      </trkpt>
      <trkpt lat="45.06751" lon="6.40914">
        <ele>2527</ele>
        <time>2020-09-15T04:37:49Z</time>
      </trkpt>
      <trkpt lat="45.06746" lon="6.40932">
        <ele>2528</ele>
        <time>2020-09-15T04:37:51Z</time>
      </trkpt>
      <trkpt lat="45.06738" lon="6.40974">
        <ele>2529</ele>
        <time>2020-09-15T04:37:57Z</time>
      </trkpt>
      <trkpt lat="45.06732" lon="6.41017">
        <ele>2532</ele>
        <time>2020-09-15T04:38:02Z</time>
      </trkpt>
      <trkpt lat="45.06731" lon="6.41061">
        <ele>2535</ele>
        <time>2020-09-15T04:38:08Z</time>
      </trkpt>
      <trkpt lat="45.06728" lon="6.4107">
        <ele>2537</ele>
        <time>2020-09-15T04:38:09Z</time>
      </trkpt>
      <trkpt lat="45.06722" lon="6.41073">
        <ele>2541</ele>
        <time>2020-09-15T04:38:10Z</time>
      </trkpt>
      <trkpt lat="45.06715" lon="6.41073">
        <ele>2544</ele>
        <time>2020-09-15T04:38:11Z</time>
      </trkpt>
      <trkpt lat="45.06711" lon="6.4107">
        <ele>2546</ele>
        <time>2020-09-15T04:38:12Z</time>
      </trkpt>
      <trkpt lat="45.06706" lon="6.41057">
        <ele>2547</ele>
        <time>2020-09-15T04:38:14Z</time>
      </trkpt>
      <trkpt lat="45.06703" lon="6.41028">
        <ele>2546</ele>
        <time>2020-09-15T04:38:18Z</time>
      </trkpt>
      <trkpt lat="45.06694" lon="6.40979">
        <ele>2545</ele>
        <time>2020-09-15T04:38:24Z</time>
      </trkpt>
      <trkpt lat="45.0669" lon="6.40916">
        <ele>2544</ele>
        <time>2020-09-15T04:38:32Z</time>
      </trkpt>
      <trkpt lat="45.06689" lon="6.4091">
        <ele>2544</ele>
        <time>2020-09-15T04:38:33Z</time>
      </trkpt>
      <trkpt lat="45.06683" lon="6.40912">
        <ele>2546</ele>
        <time>2020-09-15T04:38:34Z</time>
      </trkpt>
      <trkpt lat="45.06675" lon="6.40914">
        <ele>2548</ele>
        <time>2020-09-15T04:38:35Z</time>
      </trkpt>
      <trkpt lat="45.06654" lon="6.40945">
        <ele>2557</ele>
        <time>2020-09-15T04:38:41Z</time>
      </trkpt>
      <trkpt lat="45.06647" lon="6.40953">
        <ele>2560</ele>
        <time>2020-09-15T04:38:42Z</time>
      </trkpt>
      <trkpt lat="45.06643" lon="6.40955">
        <ele>2561</ele>
        <time>2020-09-15T04:38:43Z</time>
      </trkpt>
      <trkpt lat="45.06636" lon="6.40954">
        <ele>2563</ele>
        <time>2020-09-15T04:38:44Z</time>
      </trkpt>
      <trkpt lat="45.06624" lon="6.40941">
        <ele>2566</ele>
        <time>2020-09-15T04:38:47Z</time>
      </trkpt>
      <trkpt lat="45.06611" lon="6.4091">
        <ele>2565</ele>
        <time>2020-09-15T04:38:52Z</time>
      </trkpt>
      <trkpt lat="45.06607" lon="6.40908">
        <ele>2566</ele>
        <time>2020-09-15T04:38:52Z</time>
      </trkpt>
      <trkpt lat="45.06603" lon="6.40908">
        <ele>2567</ele>
        <time>2020-09-15T04:38:53Z</time>
      </trkpt>
      <trkpt lat="45.06598" lon="6.40913">
        <ele>2569</ele>
        <time>2020-09-15T04:38:54Z</time>
      </trkpt>
      <trkpt lat="45.06595" lon="6.40919">
        <ele>2570</ele>
        <time>2020-09-15T04:38:55Z</time>
      </trkpt>
      <trkpt lat="45.06594" lon="6.40925">
        <ele>2572</ele>
        <time>2020-09-15T04:38:56Z</time>
      </trkpt>
      <trkpt lat="45.06598" lon="6.40948">
        <ele>2574</ele>
        <time>2020-09-15T04:38:59Z</time>
      </trkpt>
      <trkpt lat="45.0662" lon="6.41001">
        <ele>2575</ele>
        <time>2020-09-15T04:39:06Z</time>
      </trkpt>
      <trkpt lat="45.06626" lon="6.41019">
        <ele>2576</ele>
        <time>2020-09-15T04:39:09Z</time>
      </trkpt>
      <trkpt lat="45.06628" lon="6.41026">
        <ele>2577</ele>
        <time>2020-09-15T04:39:10Z</time>
      </trkpt>
      <trkpt lat="45.06641" lon="6.41073">
        <ele>2580</ele>
        <time>2020-09-15T04:39:16Z</time>
      </trkpt>
      <trkpt lat="45.0667" lon="6.41126">
        <ele>2572</ele>
        <time>2020-09-15T04:39:25Z</time>
      </trkpt>
      <trkpt lat="45.06673" lon="6.41135">
        <ele>2572</ele>
        <time>2020-09-15T04:39:26Z</time>
      </trkpt>
      <trkpt lat="45.06672" lon="6.41142">
        <ele>2573</ele>
        <time>2020-09-15T04:39:27Z</time>
      </trkpt>
      <trkpt lat="45.06669" lon="6.41151">
        <ele>2575</ele>
        <time>2020-09-15T04:39:28Z</time>
      </trkpt>
      <trkpt lat="45.06652" lon="6.41184">
        <ele>2584</ele>
        <time>2020-09-15T04:39:33Z</time>
      </trkpt>
      <trkpt lat="45.06638" lon="6.41223">
        <ele>2588</ele>
        <time>2020-09-15T04:39:39Z</time>
      </trkpt>
      <trkpt lat="45.06629" lon="6.41243">
        <ele>2589</ele>
        <time>2020-09-15T04:39:42Z</time>
      </trkpt>
      <trkpt lat="45.06599" lon="6.41304">
        <ele>2593</ele>
        <time>2020-09-15T04:39:51Z</time>
      </trkpt>
      <trkpt lat="45.06595" lon="6.41307">
        <ele>2594</ele>
        <time>2020-09-15T04:39:52Z</time>
      </trkpt>
      <trkpt lat="45.06592" lon="6.41307">
        <ele>2595</ele>
        <time>2020-09-15T04:39:52Z</time>
      </trkpt>
      <trkpt lat="45.06588" lon="6.41303">
        <ele>2596</ele>
        <time>2020-09-15T04:39:53Z</time>
      </trkpt>
      <trkpt lat="45.06587" lon="6.41296">
        <ele>2598</ele>
        <time>2020-09-15T04:39:54Z</time>
      </trkpt>
      <trkpt lat="45.06589" lon="6.41289">
        <ele>2598</ele>
        <time>2020-09-15T04:39:55Z</time>
      </trkpt>
      <trkpt lat="45.06597" lon="6.41276">
        <ele>2597</ele>
        <time>2020-09-15T04:39:57Z</time>
      </trkpt>
      <trkpt lat="45.06602" lon="6.41262">
        <ele>2597</ele>
        <time>2020-09-15T04:39:59Z</time>
      </trkpt>
      <trkpt lat="45.06611" lon="6.41226">
        <ele>2598</ele>
        <time>2020-09-15T04:40:04Z</time>
      </trkpt>
      <trkpt lat="45.06614" lon="6.41207">
        <ele>2599</ele>
        <time>2020-09-15T04:40:06Z</time>
      </trkpt>
      <trkpt lat="45.06615" lon="6.41144">
        <ele>2601</ele>
        <time>2020-09-15T04:40:14Z</time>
      </trkpt>
      <trkpt lat="45.06613" lon="6.41133">
        <ele>2600</ele>
        <time>2020-09-15T04:40:16Z</time>
      </trkpt>
      <trkpt lat="45.06608" lon="6.41125">
        <ele>2602</ele>
        <time>2020-09-15T04:40:17Z</time>
      </trkpt>
      <trkpt lat="45.0657" lon="6.41104">
        <ele>2616</ele>
        <time>2020-09-15T04:40:24Z</time>
      </trkpt>
      <trkpt lat="45.06558" lon="6.41098">
        <ele>2620</ele>
        <time>2020-09-15T04:40:27Z</time>
      </trkpt>
      <trkpt lat="45.06547" lon="6.41089">
        <ele>2624</ele>
        <time>2020-09-15T04:40:29Z</time>
      </trkpt>
      <trkpt lat="45.06542" lon="6.41081">
        <ele>2625</ele>
        <time>2020-09-15T04:40:30Z</time>
      </trkpt>
      <trkpt lat="45.06524" lon="6.41039">
        <ele>2625</ele>
        <time>2020-09-15T04:40:36Z</time>
      </trkpt>
      <trkpt lat="45.06512" lon="6.4102">
        <ele>2628</ele>
        <time>2020-09-15T04:40:40Z</time>
      </trkpt>
      <trkpt lat="45.06483" lon="6.40961">
        <ele>2628</ele>
        <time>2020-09-15T04:40:49Z</time>
      </trkpt>
      <trkpt lat="45.06477" lon="6.40953">
        <ele>2629</ele>
        <time>2020-09-15T04:40:50Z</time>
      </trkpt>
      <trkpt lat="45.0646" lon="6.40938">
        <ele>2632</ele>
        <time>2020-09-15T04:40:54Z</time>
      </trkpt>
      <trkpt lat="45.06447" lon="6.40921">
        <ele>2633</ele>
        <time>2020-09-15T04:40:57Z</time>
      </trkpt>
      <trkpt lat="45.06433" lon="6.40886">
        <ele>2634</ele>
        <time>2020-09-15T04:41:02Z</time>
      </trkpt>
      <trkpt lat="45.06422" lon="6.40847">
        <ele>2633</ele>
        <time>2020-09-15T04:41:07Z</time>
      </trkpt>
      <trkpt lat="45.06419" lon="6.40826">
        <ele>2633</ele>
        <time>2020-09-15T04:41:10Z</time>
      </trkpt>
      <trkpt lat="45.0642" lon="6.40804">
        <ele>2633</ele>
        <time>2020-09-15T04:41:13Z</time>
      </trkpt>
      <trkpt lat="45.0642" lon="6.40798">
        <ele>2633</ele>
        <time>2020-09-15T04:41:13Z</time>
      </trkpt>
      <trkpt lat="45.06419" lon="6.40795">
        <ele>2633</ele>
        <time>2020-09-15T04:41:14Z</time>
      </trkpt>
      <trkpt lat="45.06417" lon="6.40789">
        <ele>2634</ele>
        <time>2020-09-15T04:41:15Z</time>
      </trkpt>
      <trkpt lat="45.06416" lon="6.40787">
        <ele>2634</ele>
        <time>2020-09-15T04:41:15Z</time>
      </trkpt>
      <trkpt lat="45.06415" lon="6.40786">
        <ele>2633</ele>
        <time>2020-09-15T04:41:15Z</time>
      </trkpt>
      <trkpt lat="45.06407" lon="6.40784">
        <ele>2630</ele>
        <time>2020-09-15T04:41:17Z</time>
      </trkpt>
      <trkpt lat="45.06401" lon="6.4079">
        <ele>2627</ele>
        <time>2020-09-15T04:41:18Z</time>
      </trkpt>
      <trkpt lat="45.064" lon="6.40794">
        <ele>2627</ele>
        <time>2020-09-15T04:41:18Z</time>
      </trkpt>
      <trkpt lat="45.06398" lon="6.40799">
        <ele>2626</ele>
        <time>2020-09-15T04:41:19Z</time>
      </trkpt>
      <trkpt lat="45.06375" lon="6.40885">
        <ele>2625</ele>
        <time>2020-09-15T04:41:31Z</time>
      </trkpt>
      <trkpt lat="45.06368" lon="6.40897">
        <ele>2625</ele>
        <time>2020-09-15T04:41:33Z</time>
      </trkpt>
      <trkpt lat="45.06351" lon="6.40914">
        <ele>2622</ele>
        <time>2020-09-15T04:41:36Z</time>
      </trkpt>
      <trkpt lat="45.06343" lon="6.40925">
        <ele>2621</ele>
        <time>2020-09-15T04:41:38Z</time>
      </trkpt>
      <trkpt lat="45.06334" lon="6.40949">
        <ele>2622</ele>
        <time>2020-09-15T04:41:42Z</time>
      </trkpt>
      <trkpt lat="45.06324" lon="6.40995">
        <ele>2626</ele>
        <time>2020-09-15T04:41:48Z</time>
      </trkpt>
      <trkpt lat="45.06319" lon="6.41004">
        <ele>2624</ele>
        <time>2020-09-15T04:41:49Z</time>
      </trkpt>
      <trkpt lat="45.06297" lon="6.41031">
        <ele>2616</ele>
        <time>2020-09-15T04:41:54Z</time>
      </trkpt>
      <trkpt lat="45.06289" lon="6.41051">
        <ele>2613</ele>
        <time>2020-09-15T04:41:57Z</time>
      </trkpt>
      <trkpt lat="45.06287" lon="6.41057">
        <ele>2613</ele>
        <time>2020-09-15T04:41:58Z</time>
      </trkpt>
      <trkpt lat="45.06283" lon="6.41074">
        <ele>2613</ele>
        <time>2020-09-15T04:42:00Z</time>
      </trkpt>
      <trkpt lat="45.06273" lon="6.41135">
        <ele>2614</ele>
        <time>2020-09-15T04:42:08Z</time>
      </trkpt>
      <trkpt lat="45.06269" lon="6.4115">
        <ele>2613</ele>
        <time>2020-09-15T04:42:10Z</time>
      </trkpt>
      <trkpt lat="45.06263" lon="6.41164">
        <ele>2611</ele>
        <time>2020-09-15T04:42:12Z</time>
      </trkpt>
      <trkpt lat="45.06259" lon="6.41167">
        <ele>2610</ele>
        <time>2020-09-15T04:42:13Z</time>
      </trkpt>
      <trkpt lat="45.06255" lon="6.41168">
        <ele>2608</ele>
        <time>2020-09-15T04:42:14Z</time>
      </trkpt>
      <trkpt lat="45.06252" lon="6.41165">
        <ele>2606</ele>
        <time>2020-09-15T04:42:15Z</time>
      </trkpt>
      <trkpt lat="45.06251" lon="6.41161">
        <ele>2605</ele>
        <time>2020-09-15T04:42:15Z</time>
      </trkpt>
      <trkpt lat="45.0626" lon="6.41114">
        <ele>2606</ele>
        <time>2020-09-15T04:42:21Z</time>
      </trkpt>
      <trkpt lat="45.06258" lon="6.41096">
        <ele>2603</ele>
        <time>2020-09-15T04:42:24Z</time>
      </trkpt>
      <trkpt lat="45.06256" lon="6.41089">
        <ele>2602</ele>
        <time>2020-09-15T04:42:24Z</time>
      </trkpt>
      <trkpt lat="45.06252" lon="6.41088">
        <ele>2600</ele>
        <time>2020-09-15T04:42:25Z</time>
      </trkpt>
      <trkpt lat="45.06249" lon="6.41089">
        <ele>2599</ele>
        <time>2020-09-15T04:42:26Z</time>
      </trkpt>
      <trkpt lat="45.06247" lon="6.41092">
        <ele>2598</ele>
        <time>2020-09-15T04:42:26Z</time>
      </trkpt>
      <trkpt lat="45.06246" lon="6.41117">
        <ele>2600</ele>
        <time>2020-09-15T04:42:29Z</time>
      </trkpt>
      <trkpt lat="45.0624" lon="6.41138">
        <ele>2598</ele>
        <time>2020-09-15T04:42:32Z</time>
      </trkpt>
      <trkpt lat="45.06231" lon="6.41157">
        <ele>2595</ele>
        <time>2020-09-15T04:42:35Z</time>
      </trkpt>
      <trkpt lat="45.06227" lon="6.41159">
        <ele>2593</ele>
        <time>2020-09-15T04:42:36Z</time>
      </trkpt>
      <trkpt lat="45.06224" lon="6.41158">
        <ele>2592</ele>
        <time>2020-09-15T04:42:36Z</time>
      </trkpt>
      <trkpt lat="45.06222" lon="6.41151">
        <ele>2590</ele>
        <time>2020-09-15T04:42:37Z</time>
      </trkpt>
      <trkpt lat="45.0623" lon="6.41123">
        <ele>2592</ele>
        <time>2020-09-15T04:42:41Z</time>
      </trkpt>
      <trkpt lat="45.0623" lon="6.41114">
        <ele>2592</ele>
        <time>2020-09-15T04:42:42Z</time>
      </trkpt>
      <trkpt lat="45.06223" lon="6.4107">
        <ele>2585</ele>
        <time>2020-09-15T04:42:48Z</time>
      </trkpt>
      <trkpt lat="45.06221" lon="6.40997">
        <ele>2576</ele>
        <time>2020-09-15T04:42:57Z</time>
      </trkpt>
      <trkpt lat="45.06223" lon="6.40984">
        <ele>2574</ele>
        <time>2020-09-15T04:42:59Z</time>
      </trkpt>
      <trkpt lat="45.0623" lon="6.40961">
        <ele>2573</ele>
        <time>2020-09-15T04:43:02Z</time>
      </trkpt>
      <trkpt lat="45.06248" lon="6.40915">
        <ele>2574</ele>
        <time>2020-09-15T04:43:09Z</time>
      </trkpt>
      <trkpt lat="45.06264" lon="6.40885">
        <ele>2575</ele>
        <time>2020-09-15T04:43:13Z</time>
      </trkpt>
      <trkpt lat="45.06286" lon="6.40858">
        <ele>2581</ele>
        <time>2020-09-15T04:43:19Z</time>
      </trkpt>
      <trkpt lat="45.06291" lon="6.40846">
        <ele>2582</ele>
        <time>2020-09-15T04:43:20Z</time>
      </trkpt>
      <trkpt lat="45.06294" lon="6.40814">
        <ele>2578</ele>
        <time>2020-09-15T04:43:24Z</time>
      </trkpt>
      <trkpt lat="45.06291" lon="6.40766">
        <ele>2571</ele>
        <time>2020-09-15T04:43:30Z</time>
      </trkpt>
      <trkpt lat="45.06293" lon="6.40741">
        <ele>2570</ele>
        <time>2020-09-15T04:43:34Z</time>
      </trkpt>
      <trkpt lat="45.06291" lon="6.40726">
        <ele>2569</ele>
        <time>2020-09-15T04:43:35Z</time>
      </trkpt>
      <trkpt lat="45.06288" lon="6.40717">
        <ele>2568</ele>
        <time>2020-09-15T04:43:37Z</time>
      </trkpt>
      <trkpt lat="45.06284" lon="6.40707">
        <ele>2566</ele>
        <time>2020-09-15T04:43:38Z</time>
      </trkpt>
      <trkpt lat="45.06281" lon="6.40696">
        <ele>2565</ele>
        <time>2020-09-15T04:43:40Z</time>
      </trkpt>
      <trkpt lat="45.06277" lon="6.40681">
        <ele>2563</ele>
        <time>2020-09-15T04:43:42Z</time>
      </trkpt>
      <trkpt lat="45.06275" lon="6.4068">
        <ele>2562</ele>
        <time>2020-09-15T04:43:42Z</time>
      </trkpt>
      <trkpt lat="45.06271" lon="6.40679">
        <ele>2561</ele>
        <time>2020-09-15T04:43:43Z</time>
      </trkpt>
      <trkpt lat="45.06262" lon="6.40674">
        <ele>2557</ele>
        <time>2020-09-15T04:43:44Z</time>
      </trkpt>
      <trkpt lat="45.06248" lon="6.40666">
        <ele>2552</ele>
        <time>2020-09-15T04:43:47Z</time>
      </trkpt>
      <trkpt lat="45.06233" lon="6.40657">
        <ele>2549</ele>
        <time>2020-09-15T04:43:50Z</time>
      </trkpt>
      <trkpt lat="45.06227" lon="6.40652">
        <ele>2548</ele>
        <time>2020-09-15T04:43:51Z</time>
      </trkpt>
      <trkpt lat="45.06225" lon="6.40649">
        <ele>2547</ele>
        <time>2020-09-15T04:43:52Z</time>
      </trkpt>
      <trkpt lat="45.06222" lon="6.40644">
        <ele>2547</ele>
        <time>2020-09-15T04:43:53Z</time>
      </trkpt>
      <trkpt lat="45.06193" lon="6.4059">
        <ele>2545</ele>
        <time>2020-09-15T04:44:01Z</time>
      </trkpt>
      <trkpt lat="45.06187" lon="6.4058">
        <ele>2545</ele>
        <time>2020-09-15T04:44:03Z</time>
      </trkpt>
      <trkpt lat="45.0618" lon="6.40575">
        <ele>2544</ele>
        <time>2020-09-15T04:44:04Z</time>
      </trkpt>
      <trkpt lat="45.06165" lon="6.40574">
        <ele>2541</ele>
        <time>2020-09-15T04:44:07Z</time>
      </trkpt>
      <trkpt lat="45.06162" lon="6.40575">
        <ele>2541</ele>
        <time>2020-09-15T04:44:07Z</time>
      </trkpt>
      <trkpt lat="45.06159" lon="6.40576">
        <ele>2540</ele>
        <time>2020-09-15T04:44:08Z</time>
      </trkpt>
      <trkpt lat="45.0615" lon="6.40588">
        <ele>2538</ele>
        <time>2020-09-15T04:44:10Z</time>
      </trkpt>
      <trkpt lat="45.06145" lon="6.40602">
        <ele>2535</ele>
        <time>2020-09-15T04:44:12Z</time>
      </trkpt>
      <trkpt lat="45.06145" lon="6.4062">
        <ele>2533</ele>
        <time>2020-09-15T04:44:14Z</time>
      </trkpt>
      <trkpt lat="45.0615" lon="6.40634">
        <ele>2532</ele>
        <time>2020-09-15T04:44:16Z</time>
      </trkpt>
      <trkpt lat="45.06154" lon="6.40642">
        <ele>2532</ele>
        <time>2020-09-15T04:44:18Z</time>
      </trkpt>
      <trkpt lat="45.06161" lon="6.40651">
        <ele>2532</ele>
        <time>2020-09-15T04:44:19Z</time>
      </trkpt>
      <trkpt lat="45.06176" lon="6.40671">
        <ele>2534</ele>
        <time>2020-09-15T04:44:23Z</time>
      </trkpt>
      <trkpt lat="45.06189" lon="6.40684">
        <ele>2535</ele>
        <time>2020-09-15T04:44:26Z</time>
      </trkpt>
      <trkpt lat="45.06213" lon="6.40702">
        <ele>2539</ele>
        <time>2020-09-15T04:44:31Z</time>
      </trkpt>
      <trkpt lat="45.06232" lon="6.40712">
        <ele>2543</ele>
        <time>2020-09-15T04:44:34Z</time>
      </trkpt>
      <trkpt lat="45.06242" lon="6.40722">
        <ele>2545</ele>
        <time>2020-09-15T04:44:36Z</time>
      </trkpt>
      <trkpt lat="45.06249" lon="6.40735">
        <ele>2546</ele>
        <time>2020-09-15T04:44:38Z</time>
      </trkpt>
      <trkpt lat="45.06251" lon="6.40744">
        <ele>2546</ele>
        <time>2020-09-15T04:44:40Z</time>
      </trkpt>
      <trkpt lat="45.06251" lon="6.40755">
        <ele>2546</ele>
        <time>2020-09-15T04:44:41Z</time>
      </trkpt>
      <trkpt lat="45.06249" lon="6.40767">
        <ele>2547</ele>
        <time>2020-09-15T04:44:43Z</time>
      </trkpt>
      <trkpt lat="45.06242" lon="6.40782">
        <ele>2547</ele>
        <time>2020-09-15T04:44:45Z</time>
      </trkpt>
      <trkpt lat="45.06232" lon="6.40794">
        <ele>2545</ele>
        <time>2020-09-15T04:44:47Z</time>
      </trkpt>
      <trkpt lat="45.06178" lon="6.40828">
        <ele>2527</ele>
        <time>2020-09-15T04:44:58Z</time>
      </trkpt>
      <trkpt lat="45.06169" lon="6.40836">
        <ele>2524</ele>
        <time>2020-09-15T04:45:00Z</time>
      </trkpt>
      <trkpt lat="45.0616" lon="6.40849">
        <ele>2522</ele>
        <time>2020-09-15T04:45:02Z</time>
      </trkpt>
      <trkpt lat="45.06152" lon="6.40866">
        <ele>2521</ele>
        <time>2020-09-15T04:45:04Z</time>
      </trkpt>
      <trkpt lat="45.06148" lon="6.40883">
        <ele>2521</ele>
        <time>2020-09-15T04:45:07Z</time>
      </trkpt>
      <trkpt lat="45.06148" lon="6.40897">
        <ele>2523</ele>
        <time>2020-09-15T04:45:08Z</time>
      </trkpt>
      <trkpt lat="45.0615" lon="6.4094">
        <ele>2530</ele>
        <time>2020-09-15T04:45:14Z</time>
      </trkpt>
      <trkpt lat="45.06146" lon="6.40961">
        <ele>2532</ele>
        <time>2020-09-15T04:45:17Z</time>
      </trkpt>
      <trkpt lat="45.0614" lon="6.40974">
        <ele>2531</ele>
        <time>2020-09-15T04:45:19Z</time>
      </trkpt>
      <trkpt lat="45.0612" lon="6.41004">
        <ele>2527</ele>
        <time>2020-09-15T04:45:24Z</time>
      </trkpt>
      <trkpt lat="45.06079" lon="6.41075">
        <ele>2519</ele>
        <time>2020-09-15T04:45:35Z</time>
      </trkpt>
      <trkpt lat="45.06072" lon="6.41096">
        <ele>2519</ele>
        <time>2020-09-15T04:45:38Z</time>
      </trkpt>
      <trkpt lat="45.06064" lon="6.41138">
        <ele>2522</ele>
        <time>2020-09-15T04:45:44Z</time>
      </trkpt>
      <trkpt lat="45.06058" lon="6.41155">
        <ele>2522</ele>
        <time>2020-09-15T04:45:46Z</time>
      </trkpt>
      <trkpt lat="45.06054" lon="6.4116">
        <ele>2521</ele>
        <time>2020-09-15T04:45:47Z</time>
      </trkpt>
      <trkpt lat="45.06047" lon="6.41164">
        <ele>2519</ele>
        <time>2020-09-15T04:45:48Z</time>
      </trkpt>
      <trkpt lat="45.06042" lon="6.41163">
        <ele>2517</ele>
        <time>2020-09-15T04:45:49Z</time>
      </trkpt>
      <trkpt lat="45.06035" lon="6.41159">
        <ele>2513</ele>
        <time>2020-09-15T04:45:51Z</time>
      </trkpt>
      <trkpt lat="45.06034" lon="6.41158">
        <ele>2513</ele>
        <time>2020-09-15T04:45:51Z</time>
      </trkpt>
      <trkpt lat="45.06033" lon="6.41156">
        <ele>2512</ele>
        <time>2020-09-15T04:45:51Z</time>
      </trkpt>
      <trkpt lat="45.06031" lon="6.41151">
        <ele>2510</ele>
        <time>2020-09-15T04:45:52Z</time>
      </trkpt>
      <trkpt lat="45.06029" lon="6.41142">
        <ele>2508</ele>
        <time>2020-09-15T04:45:53Z</time>
      </trkpt>
      <trkpt lat="45.06031" lon="6.41126">
        <ele>2507</ele>
        <time>2020-09-15T04:45:55Z</time>
      </trkpt>
      <trkpt lat="45.06085" lon="6.4101">
        <ele>2510</ele>
        <time>2020-09-15T04:46:12Z</time>
      </trkpt>
      <trkpt lat="45.06093" lon="6.40977">
        <ele>2510</ele>
        <time>2020-09-15T04:46:17Z</time>
      </trkpt>
      <trkpt lat="45.06094" lon="6.40949">
        <ele>2507</ele>
        <time>2020-09-15T04:46:20Z</time>
      </trkpt>
      <trkpt lat="45.06093" lon="6.40918">
        <ele>2502</ele>
        <time>2020-09-15T04:46:24Z</time>
      </trkpt>
      <trkpt lat="45.06093" lon="6.40894">
        <ele>2500</ele>
        <time>2020-09-15T04:46:27Z</time>
      </trkpt>
      <trkpt lat="45.06095" lon="6.40837">
        <ele>2494</ele>
        <time>2020-09-15T04:46:34Z</time>
      </trkpt>
      <trkpt lat="45.06103" lon="6.40773">
        <ele>2501</ele>
        <time>2020-09-15T04:46:43Z</time>
      </trkpt>
      <trkpt lat="45.06102" lon="6.40759">
        <ele>2501</ele>
        <time>2020-09-15T04:46:44Z</time>
      </trkpt>
      <trkpt lat="45.06097" lon="6.40745">
        <ele>2501</ele>
        <time>2020-09-15T04:46:46Z</time>
      </trkpt>
      <trkpt lat="45.06085" lon="6.40723">
        <ele>2502</ele>
        <time>2020-09-15T04:46:50Z</time>
      </trkpt>
      <trkpt lat="45.06075" lon="6.40711">
        <ele>2502</ele>
        <time>2020-09-15T04:46:52Z</time>
      </trkpt>
      <trkpt lat="45.0607" lon="6.40708">
        <ele>2501</ele>
        <time>2020-09-15T04:46:53Z</time>
      </trkpt>
      <trkpt lat="45.06024" lon="6.4069">
        <ele>2496</ele>
        <time>2020-09-15T04:47:02Z</time>
      </trkpt>
      <trkpt lat="45.06006" lon="6.40686">
        <ele>2493</ele>
        <time>2020-09-15T04:47:05Z</time>
      </trkpt>
      <trkpt lat="45.05989" lon="6.40686">
        <ele>2493</ele>
        <time>2020-09-15T04:47:08Z</time>
      </trkpt>
      <trkpt lat="45.05973" lon="6.40689">
        <ele>2494</ele>
        <time>2020-09-15T04:47:11Z</time>
      </trkpt>
      <trkpt lat="45.05935" lon="6.40699">
        <ele>2493</ele>
        <time>2020-09-15T04:47:18Z</time>
      </trkpt>
      <trkpt lat="45.05896" lon="6.40718">
        <ele>2488</ele>
        <time>2020-09-15T04:47:25Z</time>
      </trkpt>
      <trkpt lat="45.05832" lon="6.4074">
        <ele>2485</ele>
        <time>2020-09-15T04:47:37Z</time>
      </trkpt>
      <trkpt lat="45.05792" lon="6.40763">
        <ele>2480</ele>
        <time>2020-09-15T04:47:44Z</time>
      </trkpt>
      <trkpt lat="45.05735" lon="6.40786">
        <ele>2478</ele>
        <time>2020-09-15T04:47:55Z</time>
      </trkpt>
      <trkpt lat="45.05724" lon="6.40792">
        <ele>2476</ele>
        <time>2020-09-15T04:47:57Z</time>
      </trkpt>
      <trkpt lat="45.05713" lon="6.40805">
        <ele>2471</ele>
        <time>2020-09-15T04:48:00Z</time>
      </trkpt>
      <trkpt lat="45.05696" lon="6.40842">
        <ele>2457</ele>
        <time>2020-09-15T04:48:05Z</time>
      </trkpt>
      <trkpt lat="45.05688" lon="6.40851">
        <ele>2455</ele>
        <time>2020-09-15T04:48:07Z</time>
      </trkpt>
      <trkpt lat="45.05679" lon="6.40856">
        <ele>2455</ele>
        <time>2020-09-15T04:48:09Z</time>
      </trkpt>
      <trkpt lat="45.05621" lon="6.40852">
        <ele>2455</ele>
        <time>2020-09-15T04:48:19Z</time>
      </trkpt>
      <trkpt lat="45.05575" lon="6.40854">
        <ele>2448</ele>
        <time>2020-09-15T04:48:27Z</time>
      </trkpt>
      <trkpt lat="45.05563" lon="6.40847">
        <ele>2447</ele>
        <time>2020-09-15T04:48:30Z</time>
      </trkpt>
      <trkpt lat="45.05557" lon="6.4084">
        <ele>2447</ele>
        <time>2020-09-15T04:48:31Z</time>
      </trkpt>
      <trkpt lat="45.05549" lon="6.40829">
        <ele>2446</ele>
        <time>2020-09-15T04:48:33Z</time>
      </trkpt>
      <trkpt lat="45.05542" lon="6.40815">
        <ele>2445</ele>
        <time>2020-09-15T04:48:35Z</time>
      </trkpt>
      <trkpt lat="45.05522" lon="6.40745">
        <ele>2444</ele>
        <time>2020-09-15T04:48:45Z</time>
      </trkpt>
      <trkpt lat="45.05496" lon="6.40671">
        <ele>2445</ele>
        <time>2020-09-15T04:48:55Z</time>
      </trkpt>
      <trkpt lat="45.05473" lon="6.40623">
        <ele>2444</ele>
        <time>2020-09-15T04:49:02Z</time>
      </trkpt>
      <trkpt lat="45.05438" lon="6.40564">
        <ele>2437</ele>
        <time>2020-09-15T04:49:12Z</time>
      </trkpt>
      <trkpt lat="45.05415" lon="6.40508">
        <ele>2433</ele>
        <time>2020-09-15T04:49:20Z</time>
      </trkpt>
      <trkpt lat="45.05384" lon="6.4042">
        <ele>2431</ele>
        <time>2020-09-15T04:49:32Z</time>
      </trkpt>
      <trkpt lat="45.0538" lon="6.40397">
        <ele>2429</ele>
        <time>2020-09-15T04:49:35Z</time>
      </trkpt>
      <trkpt lat="45.05381" lon="6.40373">
        <ele>2428</ele>
        <time>2020-09-15T04:49:38Z</time>
      </trkpt>
      <trkpt lat="45.05383" lon="6.40354">
        <ele>2429</ele>
        <time>2020-09-15T04:49:41Z</time>
      </trkpt>
      <trkpt lat="45.05392" lon="6.40319">
        <ele>2431</ele>
        <time>2020-09-15T04:49:46Z</time>
      </trkpt>
      <trkpt lat="45.05393" lon="6.40305">
        <ele>2432</ele>
        <time>2020-09-15T04:49:47Z</time>
      </trkpt>
      <trkpt lat="45.05392" lon="6.40287">
        <ele>2432</ele>
        <time>2020-09-15T04:49:50Z</time>
      </trkpt>
      <trkpt lat="45.05387" lon="6.40266">
        <ele>2431</ele>
        <time>2020-09-15T04:49:52Z</time>
      </trkpt>
      <trkpt lat="45.05379" lon="6.40255">
        <ele>2429</ele>
        <time>2020-09-15T04:49:54Z</time>
      </trkpt>
      <trkpt lat="45.05368" lon="6.40251">
        <ele>2426</ele>
        <time>2020-09-15T04:49:56Z</time>
      </trkpt>
      <trkpt lat="45.05361" lon="6.40251">
        <ele>2424</ele>
        <time>2020-09-15T04:49:58Z</time>
      </trkpt>
      <trkpt lat="45.05338" lon="6.40257">
        <ele>2418</ele>
        <time>2020-09-15T04:50:02Z</time>
      </trkpt>
      <trkpt lat="45.05329" lon="6.40256">
        <ele>2415</ele>
        <time>2020-09-15T04:50:03Z</time>
      </trkpt>
      <trkpt lat="45.0532" lon="6.40249">
        <ele>2412</ele>
        <time>2020-09-15T04:50:05Z</time>
      </trkpt>
      <trkpt lat="45.05313" lon="6.40238">
        <ele>2410</ele>
        <time>2020-09-15T04:50:07Z</time>
      </trkpt>
      <trkpt lat="45.0531" lon="6.40227">
        <ele>2409</ele>
        <time>2020-09-15T04:50:09Z</time>
      </trkpt>
      <trkpt lat="45.05308" lon="6.40156">
        <ele>2409</ele>
        <time>2020-09-15T04:50:17Z</time>
      </trkpt>
      <trkpt lat="45.05288" lon="6.4006">
        <ele>2395</ele>
        <time>2020-09-15T04:50:30Z</time>
      </trkpt>
      <trkpt lat="45.05286" lon="6.40045">
        <ele>2393</ele>
        <time>2020-09-15T04:50:32Z</time>
      </trkpt>
      <trkpt lat="45.05295" lon="6.3999">
        <ele>2393</ele>
        <time>2020-09-15T04:50:39Z</time>
      </trkpt>
      <trkpt lat="45.05312" lon="6.39932">
        <ele>2397</ele>
        <time>2020-09-15T04:50:47Z</time>
      </trkpt>
      <trkpt lat="45.05324" lon="6.39866">
        <ele>2394</ele>
        <time>2020-09-15T04:50:56Z</time>
      </trkpt>
      <trkpt lat="45.05332" lon="6.39723">
        <ele>2381</ele>
        <time>2020-09-15T04:51:14Z</time>
      </trkpt>
      <trkpt lat="45.0533" lon="6.39596">
        <ele>2379</ele>
        <time>2020-09-15T04:51:30Z</time>
      </trkpt>
      <trkpt lat="45.05324" lon="6.39559">
        <ele>2379</ele>
        <time>2020-09-15T04:51:34Z</time>
      </trkpt>
      <trkpt lat="45.05303" lon="6.39473">
        <ele>2377</ele>
        <time>2020-09-15T04:51:46Z</time>
      </trkpt>
      <trkpt lat="45.05293" lon="6.39442">
        <ele>2375</ele>
        <time>2020-09-15T04:51:50Z</time>
      </trkpt>
      <trkpt lat="45.05279" lon="6.39425">
        <ele>2372</ele>
        <time>2020-09-15T04:51:53Z</time>
      </trkpt>
      <trkpt lat="45.05255" lon="6.39406">
        <ele>2366</ele>
        <time>2020-09-15T04:51:58Z</time>
      </trkpt>
      <trkpt lat="45.05246" lon="6.39397">
        <ele>2364</ele>
        <time>2020-09-15T04:52:00Z</time>
      </trkpt>
      <trkpt lat="45.0524" lon="6.39386">
        <ele>2363</ele>
        <time>2020-09-15T04:52:02Z</time>
      </trkpt>
      <trkpt lat="45.05237" lon="6.39376">
        <ele>2362</ele>
        <time>2020-09-15T04:52:03Z</time>
      </trkpt>
      <trkpt lat="45.0523" lon="6.39332">
        <ele>2362</ele>
        <time>2020-09-15T04:52:09Z</time>
      </trkpt>
      <trkpt lat="45.05221" lon="6.39307">
        <ele>2361</ele>
        <time>2020-09-15T04:52:12Z</time>
      </trkpt>
      <trkpt lat="45.05208" lon="6.39288">
        <ele>2358</ele>
        <time>2020-09-15T04:52:16Z</time>
      </trkpt>
      <trkpt lat="45.05173" lon="6.39258">
        <ele>2348</ele>
        <time>2020-09-15T04:52:23Z</time>
      </trkpt>
      <trkpt lat="45.05169" lon="6.39251">
        <ele>2347</ele>
        <time>2020-09-15T04:52:24Z</time>
      </trkpt>
      <trkpt lat="45.05165" lon="6.39242">
        <ele>2345</ele>
        <time>2020-09-15T04:52:26Z</time>
      </trkpt>
      <trkpt lat="45.05164" lon="6.39227">
        <ele>2343</ele>
        <time>2020-09-15T04:52:27Z</time>
      </trkpt>
      <trkpt lat="45.05166" lon="6.392">
        <ele>2342</ele>
        <time>2020-09-15T04:52:31Z</time>
      </trkpt>
      <trkpt lat="45.05197" lon="6.3909">
        <ele>2347</ele>
        <time>2020-09-15T04:52:46Z</time>
      </trkpt>
      <trkpt lat="45.05207" lon="6.39067">
        <ele>2349</ele>
        <time>2020-09-15T04:52:49Z</time>
      </trkpt>
      <trkpt lat="45.05235" lon="6.39027">
        <ele>2353</ele>
        <time>2020-09-15T04:52:56Z</time>
      </trkpt>
      <trkpt lat="45.05241" lon="6.39009">
        <ele>2351</ele>
        <time>2020-09-15T04:52:59Z</time>
      </trkpt>
      <trkpt lat="45.0524" lon="6.38991">
        <ele>2350</ele>
        <time>2020-09-15T04:53:01Z</time>
      </trkpt>
      <trkpt lat="45.05233" lon="6.38973">
        <ele>2349</ele>
        <time>2020-09-15T04:53:04Z</time>
      </trkpt>
      <trkpt lat="45.05223" lon="6.38961">
        <ele>2348</ele>
        <time>2020-09-15T04:53:06Z</time>
      </trkpt>
      <trkpt lat="45.05208" lon="6.3895">
        <ele>2349</ele>
        <time>2020-09-15T04:53:09Z</time>
      </trkpt>
      <trkpt lat="45.05199" lon="6.38946">
        <ele>2349</ele>
        <time>2020-09-15T04:53:11Z</time>
      </trkpt>
      <trkpt lat="45.05192" lon="6.38947">
        <ele>2350</ele>
        <time>2020-09-15T04:53:12Z</time>
      </trkpt>
      <trkpt lat="45.05186" lon="6.38949">
        <ele>2350</ele>
        <time>2020-09-15T04:53:13Z</time>
      </trkpt>
      <trkpt lat="45.05182" lon="6.38954">
        <ele>2349</ele>
        <time>2020-09-15T04:53:14Z</time>
      </trkpt>
      <trkpt lat="45.0517" lon="6.38972">
        <ele>2347</ele>
        <time>2020-09-15T04:53:17Z</time>
      </trkpt>
      <trkpt lat="45.05115" lon="6.3908">
        <ele>2339</ele>
        <time>2020-09-15T04:53:34Z</time>
      </trkpt>
      <trkpt lat="45.05105" lon="6.39096">
        <ele>2337</ele>
        <time>2020-09-15T04:53:36Z</time>
      </trkpt>
      <trkpt lat="45.05094" lon="6.39112">
        <ele>2335</ele>
        <time>2020-09-15T04:53:39Z</time>
      </trkpt>
      <trkpt lat="45.05023" lon="6.39189">
        <ele>2330</ele>
        <time>2020-09-15T04:53:55Z</time>
      </trkpt>
      <trkpt lat="45.05013" lon="6.39205">
        <ele>2329</ele>
        <time>2020-09-15T04:53:58Z</time>
      </trkpt>
      <trkpt lat="45.05007" lon="6.39222">
        <ele>2327</ele>
        <time>2020-09-15T04:54:00Z</time>
      </trkpt>
      <trkpt lat="45.05005" lon="6.39236">
        <ele>2325</ele>
        <time>2020-09-15T04:54:02Z</time>
      </trkpt>
      <trkpt lat="45.05005" lon="6.39255">
        <ele>2322</ele>
        <time>2020-09-15T04:54:04Z</time>
      </trkpt>
      <trkpt lat="45.05011" lon="6.39316">
        <ele>2312</ele>
        <time>2020-09-15T04:54:12Z</time>
      </trkpt>
      <trkpt lat="45.0501" lon="6.39325">
        <ele>2310</ele>
        <time>2020-09-15T04:54:13Z</time>
      </trkpt>
      <trkpt lat="45.05006" lon="6.39338">
        <ele>2308</ele>
        <time>2020-09-15T04:54:15Z</time>
      </trkpt>
      <trkpt lat="45.05001" lon="6.39346">
        <ele>2306</ele>
        <time>2020-09-15T04:54:16Z</time>
      </trkpt>
      <trkpt lat="45.04992" lon="6.39356">
        <ele>2305</ele>
        <time>2020-09-15T04:54:18Z</time>
      </trkpt>
      <trkpt lat="45.04941" lon="6.39382">
        <ele>2310</ele>
        <time>2020-09-15T04:54:28Z</time>
      </trkpt>
      <trkpt lat="45.04923" lon="6.39395">
        <ele>2309</ele>
        <time>2020-09-15T04:54:32Z</time>
      </trkpt>
      <trkpt lat="45.04905" lon="6.3942">
        <ele>2306</ele>
        <time>2020-09-15T04:54:36Z</time>
      </trkpt>
      <trkpt lat="45.0488" lon="6.39462">
        <ele>2306</ele>
        <time>2020-09-15T04:54:43Z</time>
      </trkpt>
      <trkpt lat="45.04874" lon="6.39476">
        <ele>2305</ele>
        <time>2020-09-15T04:54:45Z</time>
      </trkpt>
      <trkpt lat="45.04871" lon="6.39493">
        <ele>2302</ele>
        <time>2020-09-15T04:54:47Z</time>
      </trkpt>
      <trkpt lat="45.04867" lon="6.39552">
        <ele>2295</ele>
        <time>2020-09-15T04:54:55Z</time>
      </trkpt>
      <trkpt lat="45.04863" lon="6.39584">
        <ele>2292</ele>
        <time>2020-09-15T04:54:59Z</time>
      </trkpt>
      <trkpt lat="45.04853" lon="6.39619">
        <ele>2286</ele>
        <time>2020-09-15T04:55:04Z</time>
      </trkpt>
      <trkpt lat="45.04837" lon="6.39651">
        <ele>2285</ele>
        <time>2020-09-15T04:55:09Z</time>
      </trkpt>
      <trkpt lat="45.04783" lon="6.39722">
        <ele>2286</ele>
        <time>2020-09-15T04:55:22Z</time>
      </trkpt>
      <trkpt lat="45.04763" lon="6.39752">
        <ele>2283</ele>
        <time>2020-09-15T04:55:27Z</time>
      </trkpt>
      <trkpt lat="45.04725" lon="6.39817">
        <ele>2278</ele>
        <time>2020-09-15T04:55:37Z</time>
      </trkpt>
      <trkpt lat="45.04671" lon="6.39895">
        <ele>2272</ele>
        <time>2020-09-15T04:55:51Z</time>
      </trkpt>
      <trkpt lat="45.04653" lon="6.39917">
        <ele>2270</ele>
        <time>2020-09-15T04:55:55Z</time>
      </trkpt>
      <trkpt lat="45.04573" lon="6.40003">
        <ele>2264</ele>
        <time>2020-09-15T04:56:13Z</time>
      </trkpt>
      <trkpt lat="45.04498" lon="6.40078">
        <ele>2247</ele>
        <time>2020-09-15T04:56:30Z</time>
      </trkpt>
      <trkpt lat="45.04485" lon="6.40085">
        <ele>2247</ele>
        <time>2020-09-15T04:56:32Z</time>
      </trkpt>
      <trkpt lat="45.04443" lon="6.40092">
        <ele>2252</ele>
        <time>2020-09-15T04:56:40Z</time>
      </trkpt>
      <trkpt lat="45.04439" lon="6.40093">
        <ele>2253</ele>
        <time>2020-09-15T04:56:40Z</time>
      </trkpt>
      <trkpt lat="45.04435" lon="6.40096">
        <ele>2253</ele>
        <time>2020-09-15T04:56:41Z</time>
      </trkpt>
      <trkpt lat="45.0442" lon="6.40114">
        <ele>2250</ele>
        <time>2020-09-15T04:56:45Z</time>
      </trkpt>
      <trkpt lat="45.04397" lon="6.40163">
        <ele>2236</ele>
        <time>2020-09-15T04:56:52Z</time>
      </trkpt>
      <trkpt lat="45.04387" lon="6.40177">
        <ele>2232</ele>
        <time>2020-09-15T04:56:55Z</time>
      </trkpt>
      <trkpt lat="45.04379" lon="6.40183">
        <ele>2230</ele>
        <time>2020-09-15T04:56:56Z</time>
      </trkpt>
      <trkpt lat="45.04371" lon="6.40185">
        <ele>2229</ele>
        <time>2020-09-15T04:56:58Z</time>
      </trkpt>
      <trkpt lat="45.04363" lon="6.40185">
        <ele>2228</ele>
        <time>2020-09-15T04:56:59Z</time>
      </trkpt>
      <trkpt lat="45.04352" lon="6.40181">
        <ele>2228</ele>
        <time>2020-09-15T04:57:01Z</time>
      </trkpt>
      <trkpt lat="45.04345" lon="6.40173">
        <ele>2228</ele>
        <time>2020-09-15T04:57:03Z</time>
      </trkpt>
      <trkpt lat="45.04338" lon="6.40162">
        <ele>2230</ele>
        <time>2020-09-15T04:57:04Z</time>
      </trkpt>
      <trkpt lat="45.04289" lon="6.40055">
        <ele>2236</ele>
        <time>2020-09-15T04:57:21Z</time>
      </trkpt>
      <trkpt lat="45.04243" lon="6.39979">
        <ele>2233</ele>
        <time>2020-09-15T04:57:33Z</time>
      </trkpt>
      <trkpt lat="45.04198" lon="6.39919">
        <ele>2229</ele>
        <time>2020-09-15T04:57:44Z</time>
      </trkpt>
      <trkpt lat="45.04182" lon="6.39904">
        <ele>2226</ele>
        <time>2020-09-15T04:57:48Z</time>
      </trkpt>
      <trkpt lat="45.04134" lon="6.39876">
        <ele>2216</ele>
        <time>2020-09-15T04:57:57Z</time>
      </trkpt>
      <trkpt lat="45.04119" lon="6.39865">
        <ele>2214</ele>
        <time>2020-09-15T04:58:00Z</time>
      </trkpt>
      <trkpt lat="45.03993" lon="6.39752">
        <ele>2201</ele>
        <time>2020-09-15T04:58:26Z</time>
      </trkpt>
      <trkpt lat="45.03982" lon="6.3974">
        <ele>2199</ele>
        <time>2020-09-15T04:58:29Z</time>
      </trkpt>
      <trkpt lat="45.03946" lon="6.39685">
        <ele>2194</ele>
        <time>2020-09-15T04:58:38Z</time>
      </trkpt>
      <trkpt lat="45.03856" lon="6.39537">
        <ele>2186</ele>
        <time>2020-09-15T04:59:03Z</time>
      </trkpt>
      <trkpt lat="45.03846" lon="6.39518">
        <ele>2183</ele>
        <time>2020-09-15T04:59:06Z</time>
      </trkpt>
      <trkpt lat="45.03838" lon="6.39486">
        <ele>2181</ele>
        <time>2020-09-15T04:59:10Z</time>
      </trkpt>
      <trkpt lat="45.03826" lon="6.39378">
        <ele>2177</ele>
        <time>2020-09-15T04:59:24Z</time>
      </trkpt>
      <trkpt lat="45.03826" lon="6.39348">
        <ele>2177</ele>
        <time>2020-09-15T04:59:28Z</time>
      </trkpt>
      <trkpt lat="45.0383" lon="6.39312">
        <ele>2178</ele>
        <time>2020-09-15T04:59:32Z</time>
      </trkpt>
      <trkpt lat="45.0383" lon="6.39299">
        <ele>2178</ele>
        <time>2020-09-15T04:59:34Z</time>
      </trkpt>
      <trkpt lat="45.03826" lon="6.3929">
        <ele>2175</ele>
        <time>2020-09-15T04:59:35Z</time>
      </trkpt>
      <trkpt lat="45.03821" lon="6.39286">
        <ele>2172</ele>
        <time>2020-09-15T04:59:36Z</time>
      </trkpt>
      <trkpt lat="45.03812" lon="6.39285">
        <ele>2167</ele>
        <time>2020-09-15T04:59:38Z</time>
      </trkpt>
      <trkpt lat="45.03803" lon="6.39294">
        <ele>2162</ele>
        <time>2020-09-15T04:59:40Z</time>
      </trkpt>
      <trkpt lat="45.03799" lon="6.39307">
        <ele>2161</ele>
        <time>2020-09-15T04:59:41Z</time>
      </trkpt>
      <trkpt lat="45.038" lon="6.39321">
        <ele>2162</ele>
        <time>2020-09-15T04:59:43Z</time>
      </trkpt>
      <trkpt lat="45.03805" lon="6.39352">
        <ele>2165</ele>
        <time>2020-09-15T04:59:47Z</time>
      </trkpt>
      <trkpt lat="45.03806" lon="6.39374">
        <ele>2166</ele>
        <time>2020-09-15T04:59:50Z</time>
      </trkpt>
      <trkpt lat="45.03801" lon="6.39436">
        <ele>2164</ele>
        <time>2020-09-15T04:59:58Z</time>
      </trkpt>
      <trkpt lat="45.03796" lon="6.3947">
        <ele>2162</ele>
        <time>2020-09-15T05:00:02Z</time>
      </trkpt>
      <trkpt lat="45.03788" lon="6.39495">
        <ele>2158</ele>
        <time>2020-09-15T05:00:06Z</time>
      </trkpt>
      <trkpt lat="45.03752" lon="6.39578">
        <ele>2150</ele>
        <time>2020-09-15T05:00:18Z</time>
      </trkpt>
      <trkpt lat="45.03744" lon="6.39604">
        <ele>2147</ele>
        <time>2020-09-15T05:00:21Z</time>
      </trkpt>
      <trkpt lat="45.03734" lon="6.39652">
        <ele>2142</ele>
        <time>2020-09-15T05:00:28Z</time>
      </trkpt>
      <trkpt lat="45.0373" lon="6.39685">
        <ele>2139</ele>
        <time>2020-09-15T05:00:32Z</time>
      </trkpt>
      <trkpt lat="45.03728" lon="6.39758">
        <ele>2135</ele>
        <time>2020-09-15T05:00:41Z</time>
      </trkpt>
      <trkpt lat="45.03729" lon="6.39781">
        <ele>2132</ele>
        <time>2020-09-15T05:00:44Z</time>
      </trkpt>
      <trkpt lat="45.03733" lon="6.39797">
        <ele>2131</ele>
        <time>2020-09-15T05:00:46Z</time>
      </trkpt>
      <trkpt lat="45.03739" lon="6.39811">
        <ele>2131</ele>
        <time>2020-09-15T05:00:48Z</time>
      </trkpt>
      <trkpt lat="45.03744" lon="6.3982">
        <ele>2132</ele>
        <time>2020-09-15T05:00:50Z</time>
      </trkpt>
      <trkpt lat="45.03752" lon="6.39827">
        <ele>2132</ele>
        <time>2020-09-15T05:00:51Z</time>
      </trkpt>
      <trkpt lat="45.03759" lon="6.39831">
        <ele>2132</ele>
        <time>2020-09-15T05:00:53Z</time>
      </trkpt>
      <trkpt lat="45.03772" lon="6.39835">
        <ele>2131</ele>
        <time>2020-09-15T05:00:55Z</time>
      </trkpt>
      <trkpt lat="45.03814" lon="6.39833">
        <ele>2133</ele>
        <time>2020-09-15T05:01:03Z</time>
      </trkpt>
      <trkpt lat="45.03824" lon="6.39836">
        <ele>2132</ele>
        <time>2020-09-15T05:01:04Z</time>
      </trkpt>
      <trkpt lat="45.03839" lon="6.39845">
        <ele>2132</ele>
        <time>2020-09-15T05:01:07Z</time>
      </trkpt>
      <trkpt lat="45.03856" lon="6.39865">
        <ele>2130</ele>
        <time>2020-09-15T05:01:11Z</time>
      </trkpt>
      <trkpt lat="45.04027" lon="6.40086">
        <ele>2111</ele>
        <time>2020-09-15T05:01:52Z</time>
      </trkpt>
      <trkpt lat="45.04042" lon="6.40101">
        <ele>2111</ele>
        <time>2020-09-15T05:01:56Z</time>
      </trkpt>
      <trkpt lat="45.0407" lon="6.40115">
        <ele>2115</ele>
        <time>2020-09-15T05:02:01Z</time>
      </trkpt>
      <trkpt lat="45.0408" lon="6.40122">
        <ele>2115</ele>
        <time>2020-09-15T05:02:03Z</time>
      </trkpt>
      <trkpt lat="45.04086" lon="6.40136">
        <ele>2114</ele>
        <time>2020-09-15T05:02:05Z</time>
      </trkpt>
      <trkpt lat="45.04087" lon="6.40149">
        <ele>2111</ele>
        <time>2020-09-15T05:02:07Z</time>
      </trkpt>
      <trkpt lat="45.04083" lon="6.40158">
        <ele>2106</ele>
        <time>2020-09-15T05:02:08Z</time>
      </trkpt>
      <trkpt lat="45.04079" lon="6.40165">
        <ele>2103</ele>
        <time>2020-09-15T05:02:09Z</time>
      </trkpt>
      <trkpt lat="45.04073" lon="6.40167">
        <ele>2101</ele>
        <time>2020-09-15T05:02:10Z</time>
      </trkpt>
      <trkpt lat="45.04065" lon="6.40166">
        <ele>2100</ele>
        <time>2020-09-15T05:02:12Z</time>
      </trkpt>
      <trkpt lat="45.04055" lon="6.40159">
        <ele>2099</ele>
        <time>2020-09-15T05:02:14Z</time>
      </trkpt>
      <trkpt lat="45.04035" lon="6.40135">
        <ele>2100</ele>
        <time>2020-09-15T05:02:18Z</time>
      </trkpt>
      <trkpt lat="45.04015" lon="6.40117">
        <ele>2100</ele>
        <time>2020-09-15T05:02:22Z</time>
      </trkpt>
      <trkpt lat="45.03946" lon="6.40079">
        <ele>2095</ele>
        <time>2020-09-15T05:02:36Z</time>
      </trkpt>
      <trkpt lat="45.03926" lon="6.4007">
        <ele>2094</ele>
        <time>2020-09-15T05:02:39Z</time>
      </trkpt>
      <trkpt lat="45.03908" lon="6.40067">
        <ele>2092</ele>
        <time>2020-09-15T05:02:43Z</time>
      </trkpt>
      <trkpt lat="45.03897" lon="6.40069">
        <ele>2092</ele>
        <time>2020-09-15T05:02:45Z</time>
      </trkpt>
      <trkpt lat="45.03884" lon="6.40075">
        <ele>2090</ele>
        <time>2020-09-15T05:02:47Z</time>
      </trkpt>
      <trkpt lat="45.03872" lon="6.40086">
        <ele>2088</ele>
        <time>2020-09-15T05:02:50Z</time>
      </trkpt>
      <trkpt lat="45.03865" lon="6.40099">
        <ele>2086</ele>
        <time>2020-09-15T05:02:52Z</time>
      </trkpt>
      <trkpt lat="45.03858" lon="6.40115">
        <ele>2084</ele>
        <time>2020-09-15T05:02:54Z</time>
      </trkpt>
      <trkpt lat="45.03817" lon="6.40266">
        <ele>2068</ele>
        <time>2020-09-15T05:03:14Z</time>
      </trkpt>
      <trkpt lat="45.03812" lon="6.40278">
        <ele>2067</ele>
        <time>2020-09-15T05:03:16Z</time>
      </trkpt>
      <trkpt lat="45.03804" lon="6.40284">
        <ele>2066</ele>
        <time>2020-09-15T05:03:18Z</time>
      </trkpt>
      <trkpt lat="45.03797" lon="6.40285">
        <ele>2067</ele>
        <time>2020-09-15T05:03:19Z</time>
      </trkpt>
      <trkpt lat="45.03756" lon="6.40277">
        <ele>2073</ele>
        <time>2020-09-15T05:03:26Z</time>
      </trkpt>
      <trkpt lat="45.03745" lon="6.4028">
        <ele>2073</ele>
        <time>2020-09-15T05:03:28Z</time>
      </trkpt>
      <trkpt lat="45.03735" lon="6.40287">
        <ele>2073</ele>
        <time>2020-09-15T05:03:30Z</time>
      </trkpt>
      <trkpt lat="45.03724" lon="6.403">
        <ele>2072</ele>
        <time>2020-09-15T05:03:33Z</time>
      </trkpt>
      <trkpt lat="45.03704" lon="6.40355">
        <ele>2065</ele>
        <time>2020-09-15T05:03:41Z</time>
      </trkpt>
      <trkpt lat="45.03681" lon="6.40397">
        <ele>2062</ele>
        <time>2020-09-15T05:03:47Z</time>
      </trkpt>
      <trkpt lat="45.03664" lon="6.40418">
        <ele>2061</ele>
        <time>2020-09-15T05:03:51Z</time>
      </trkpt>
      <trkpt lat="45.03633" lon="6.40441">
        <ele>2060</ele>
        <time>2020-09-15T05:03:58Z</time>
      </trkpt>
      <trkpt lat="45.0361" lon="6.40457">
        <ele>2060</ele>
        <time>2020-09-15T05:04:02Z</time>
      </trkpt>
      <trkpt lat="45.03574" lon="6.40483">
        <ele>2060</ele>
        <time>2020-09-15T05:04:09Z</time>
      </trkpt>
      <trkpt lat="45.03555" lon="6.40498">
        <ele>2059</ele>
        <time>2020-09-15T05:04:13Z</time>
      </trkpt>
      <trkpt lat="45.03552" lon="6.40501">
        <ele>2059</ele>
        <time>2020-09-15T05:04:14Z</time>
      </trkpt>
      <trkpt lat="45.03547" lon="6.40509">
        <ele>2059</ele>
        <time>2020-09-15T05:04:15Z</time>
      </trkpt>
      <trkpt lat="45.03544" lon="6.40515">
        <ele>2060</ele>
        <time>2020-09-15T05:04:16Z</time>
      </trkpt>
      <trkpt lat="45.03542" lon="6.40519">
        <ele>2060</ele>
        <time>2020-09-15T05:04:17Z</time>
      </trkpt>
      <trkpt lat="45.0355" lon="6.40524">
        <ele>2059</ele>
        <time>2020-09-15T05:04:18Z</time>
      </trkpt>
      <trkpt lat="45.03572" lon="6.40548">
        <ele>2058</ele>
        <time>2020-09-15T05:04:23Z</time>
      </trkpt>
      <trkpt lat="45.03582" lon="6.40563">
        <ele>2058</ele>
        <time>2020-09-15T05:04:26Z</time>
      </trkpt>
      <trkpt lat="45.03593" lon="6.40578">
        <ele>2057</ele>
        <time>2020-09-15T05:04:29Z</time>
      </trkpt>
      <trkpt lat="45.036" lon="6.40587">
        <ele>2056</ele>
        <time>2020-09-15T05:04:30Z</time>
      </trkpt>
      <trkpt lat="45.03614" lon="6.40599">
        <ele>2053</ele>
        <time>2020-09-15T05:04:33Z</time>
      </trkpt>
      <trkpt lat="45.03634" lon="6.40608">
        <ele>2050</ele>
        <time>2020-09-15T05:04:37Z</time>
      </trkpt>
      <trkpt lat="45.03656" lon="6.40607">
        <ele>2047</ele>
        <time>2020-09-15T05:04:41Z</time>
      </trkpt>
      <trkpt lat="45.03674" lon="6.40599">
        <ele>2044</ele>
        <time>2020-09-15T05:04:44Z</time>
      </trkpt>
      <trkpt lat="45.03686" lon="6.40589">
        <ele>2043</ele>
        <time>2020-09-15T05:04:47Z</time>
      </trkpt>
      <trkpt lat="45.03702" lon="6.40566">
        <ele>2041</ele>
        <time>2020-09-15T05:04:51Z</time>
      </trkpt>
      <trkpt lat="45.03712" lon="6.40542">
        <ele>2041</ele>
        <time>2020-09-15T05:04:54Z</time>
      </trkpt>
      <trkpt lat="45.03723" lon="6.40504">
        <ele>2041</ele>
        <time>2020-09-15T05:04:59Z</time>
      </trkpt>
      <trkpt lat="45.0373" lon="6.40488">
        <ele>2042</ele>
        <time>2020-09-15T05:05:02Z</time>
      </trkpt>
      <trkpt lat="45.03738" lon="6.40472">
        <ele>2042</ele>
        <time>2020-09-15T05:05:04Z</time>
      </trkpt>
      <trkpt lat="45.0375" lon="6.40457">
        <ele>2042</ele>
        <time>2020-09-15T05:05:07Z</time>
      </trkpt>
      <trkpt lat="45.03764" lon="6.40445">
        <ele>2042</ele>
        <time>2020-09-15T05:05:10Z</time>
      </trkpt>
      <trkpt lat="45.03788" lon="6.40433">
        <ele>2041</ele>
        <time>2020-09-15T05:05:14Z</time>
      </trkpt>
      <trkpt lat="45.03809" lon="6.4043">
        <ele>2040</ele>
        <time>2020-09-15T05:05:18Z</time>
      </trkpt>
      <trkpt lat="45.03824" lon="6.40433">
        <ele>2039</ele>
        <time>2020-09-15T05:05:21Z</time>
      </trkpt>
      <trkpt lat="45.03849" lon="6.40445">
        <ele>2036</ele>
        <time>2020-09-15T05:05:26Z</time>
      </trkpt>
      <trkpt lat="45.03911" lon="6.40494">
        <ele>2029</ele>
        <time>2020-09-15T05:05:38Z</time>
      </trkpt>
      <trkpt lat="45.03933" lon="6.40517">
        <ele>2029</ele>
        <time>2020-09-15T05:05:43Z</time>
      </trkpt>
      <trkpt lat="45.03948" lon="6.40543">
        <ele>2029</ele>
        <time>2020-09-15T05:05:47Z</time>
      </trkpt>
      <trkpt lat="45.03958" lon="6.40573">
        <ele>2029</ele>
        <time>2020-09-15T05:05:51Z</time>
      </trkpt>
      <trkpt lat="45.0396" lon="6.40587">
        <ele>2029</ele>
        <time>2020-09-15T05:05:53Z</time>
      </trkpt>
      <trkpt lat="45.03961" lon="6.40611">
        <ele>2029</ele>
        <time>2020-09-15T05:05:56Z</time>
      </trkpt>
      <trkpt lat="45.03961" lon="6.40623">
        <ele>2028</ele>
        <time>2020-09-15T05:05:58Z</time>
      </trkpt>
      <trkpt lat="45.03957" lon="6.40649">
        <ele>2027</ele>
        <time>2020-09-15T05:06:01Z</time>
      </trkpt>
      <trkpt lat="45.03946" lon="6.40687">
        <ele>2025</ele>
        <time>2020-09-15T05:06:06Z</time>
      </trkpt>
      <trkpt lat="45.03913" lon="6.40772">
        <ele>2019</ele>
        <time>2020-09-15T05:06:19Z</time>
      </trkpt>
      <trkpt lat="45.03872" lon="6.40867">
        <ele>2018</ele>
        <time>2020-09-15T05:06:32Z</time>
      </trkpt>
      <trkpt lat="45.03861" lon="6.40896">
        <ele>2017</ele>
        <time>2020-09-15T05:06:37Z</time>
      </trkpt>
      <trkpt lat="45.03853" lon="6.40925">
        <ele>2015</ele>
        <time>2020-09-15T05:06:41Z</time>
      </trkpt>
      <trkpt lat="45.03849" lon="6.40961">
        <ele>2012</ele>
        <time>2020-09-15T05:06:45Z</time>
      </trkpt>
      <trkpt lat="45.03851" lon="6.40997">
        <ele>2010</ele>
        <time>2020-09-15T05:06:50Z</time>
      </trkpt>
      <trkpt lat="45.03861" lon="6.41046">
        <ele>2007</ele>
        <time>2020-09-15T05:06:56Z</time>
      </trkpt>
      <trkpt lat="45.03868" lon="6.41068">
        <ele>2007</ele>
        <time>2020-09-15T05:06:59Z</time>
      </trkpt>
      <trkpt lat="45.03889" lon="6.41123">
        <ele>2005</ele>
        <time>2020-09-15T05:07:07Z</time>
      </trkpt>
      <trkpt lat="45.03903" lon="6.41153">
        <ele>2004</ele>
        <time>2020-09-15T05:07:11Z</time>
      </trkpt>
      <trkpt lat="45.03919" lon="6.41182">
        <ele>2004</ele>
        <time>2020-09-15T05:07:16Z</time>
      </trkpt>
      <trkpt lat="45.03939" lon="6.41217">
        <ele>2002</ele>
        <time>2020-09-15T05:07:22Z</time>
      </trkpt>
      <trkpt lat="45.03988" lon="6.4129">
        <ele>2002</ele>
        <time>2020-09-15T05:07:34Z</time>
      </trkpt>
      <trkpt lat="45.04014" lon="6.41325">
        <ele>2001</ele>
        <time>2020-09-15T05:07:41Z</time>
      </trkpt>
      <trkpt lat="45.04048" lon="6.41359">
        <ele>1998</ele>
        <time>2020-09-15T05:07:48Z</time>
      </trkpt>
      <trkpt lat="45.04118" lon="6.41408">
        <ele>1993</ele>
        <time>2020-09-15T05:08:02Z</time>
      </trkpt>
      <trkpt lat="45.04148" lon="6.41432">
        <ele>1991</ele>
        <time>2020-09-15T05:08:08Z</time>
      </trkpt>
      <trkpt lat="45.04166" lon="6.4145">
        <ele>1990</ele>
        <time>2020-09-15T05:08:12Z</time>
      </trkpt>
      <trkpt lat="45.04184" lon="6.41472">
        <ele>1987</ele>
        <time>2020-09-15T05:08:16Z</time>
      </trkpt>
      <trkpt lat="45.04206" lon="6.41501">
        <ele>1982</ele>
        <time>2020-09-15T05:08:22Z</time>
      </trkpt>
      <trkpt lat="45.04236" lon="6.41553">
        <ele>1974</ele>
        <time>2020-09-15T05:08:30Z</time>
      </trkpt>
      <trkpt lat="45.04268" lon="6.41628">
        <ele>1973</ele>
        <time>2020-09-15T05:08:41Z</time>
      </trkpt>
      <trkpt lat="45.0428" lon="6.41661">
        <ele>1974</ele>
        <time>2020-09-15T05:08:46Z</time>
      </trkpt>
      <trkpt lat="45.04283" lon="6.41678">
        <ele>1975</ele>
        <time>2020-09-15T05:08:48Z</time>
      </trkpt>
      <trkpt lat="45.04283" lon="6.41693">
        <ele>1976</ele>
        <time>2020-09-15T05:08:50Z</time>
      </trkpt>
      <trkpt lat="45.04277" lon="6.41714">
        <ele>1976</ele>
        <time>2020-09-15T05:08:53Z</time>
      </trkpt>
      <trkpt lat="45.04267" lon="6.4173">
        <ele>1974</ele>
        <time>2020-09-15T05:08:56Z</time>
      </trkpt>
      <trkpt lat="45.04243" lon="6.41758">
        <ele>1971</ele>
        <time>2020-09-15T05:09:01Z</time>
      </trkpt>
      <trkpt lat="45.04203" lon="6.41796">
        <ele>1967</ele>
        <time>2020-09-15T05:09:10Z</time>
      </trkpt>
      <trkpt lat="45.04186" lon="6.41818">
        <ele>1966</ele>
        <time>2020-09-15T05:09:14Z</time>
      </trkpt>
      <trkpt lat="45.04174" lon="6.41842">
        <ele>1966</ele>
        <time>2020-09-15T05:09:17Z</time>
      </trkpt>
      <trkpt lat="45.04162" lon="6.41874">
        <ele>1966</ele>
        <time>2020-09-15T05:09:22Z</time>
      </trkpt>
      <trkpt lat="45.04156" lon="6.41901">
        <ele>1967</ele>
        <time>2020-09-15T05:09:26Z</time>
      </trkpt>
      <trkpt lat="45.04152" lon="6.41942">
        <ele>1967</ele>
        <time>2020-09-15T05:09:31Z</time>
      </trkpt>
      <trkpt lat="45.04149" lon="6.4199">
        <ele>1964</ele>
        <time>2020-09-15T05:09:37Z</time>
      </trkpt>
      <trkpt lat="45.04149" lon="6.42052">
        <ele>1960</ele>
        <time>2020-09-15T05:09:45Z</time>
      </trkpt>
      <trkpt lat="45.04151" lon="6.42087">
        <ele>1958</ele>
        <time>2020-09-15T05:09:49Z</time>
      </trkpt>
      <trkpt lat="45.04156" lon="6.4212">
        <ele>1954</ele>
        <time>2020-09-15T05:09:53Z</time>
      </trkpt>
      <trkpt lat="45.04169" lon="6.4217">
        <ele>1948</ele>
        <time>2020-09-15T05:10:00Z</time>
      </trkpt>
      <trkpt lat="45.04178" lon="6.4219">
        <ele>1944</ele>
        <time>2020-09-15T05:10:03Z</time>
      </trkpt>
      <trkpt lat="45.04189" lon="6.422">
        <ele>1942</ele>
        <time>2020-09-15T05:10:05Z</time>
      </trkpt>
      <trkpt lat="45.04199" lon="6.42203">
        <ele>1942</ele>
        <time>2020-09-15T05:10:07Z</time>
      </trkpt>
      <trkpt lat="45.0421" lon="6.42201">
        <ele>1943</ele>
        <time>2020-09-15T05:10:09Z</time>
      </trkpt>
      <trkpt lat="45.04229" lon="6.42188">
        <ele>1946</ele>
        <time>2020-09-15T05:10:13Z</time>
      </trkpt>
      <trkpt lat="45.04257" lon="6.4216">
        <ele>1954</ele>
        <time>2020-09-15T05:10:19Z</time>
      </trkpt>
      <trkpt lat="45.04265" lon="6.42156">
        <ele>1956</ele>
        <time>2020-09-15T05:10:20Z</time>
      </trkpt>
      <trkpt lat="45.04277" lon="6.42154">
        <ele>1957</ele>
        <time>2020-09-15T05:10:23Z</time>
      </trkpt>
      <trkpt lat="45.04286" lon="6.42157">
        <ele>1958</ele>
        <time>2020-09-15T05:10:24Z</time>
      </trkpt>
      <trkpt lat="45.04295" lon="6.42164">
        <ele>1958</ele>
        <time>2020-09-15T05:10:26Z</time>
      </trkpt>
      <trkpt lat="45.04301" lon="6.42171">
        <ele>1958</ele>
        <time>2020-09-15T05:10:27Z</time>
      </trkpt>
      <trkpt lat="45.04305" lon="6.42179">
        <ele>1958</ele>
        <time>2020-09-15T05:10:29Z</time>
      </trkpt>
      <trkpt lat="45.04307" lon="6.4219">
        <ele>1956</ele>
        <time>2020-09-15T05:10:30Z</time>
      </trkpt>
      <trkpt lat="45.0431" lon="6.42213">
        <ele>1954</ele>
        <time>2020-09-15T05:10:33Z</time>
      </trkpt>
      <trkpt lat="45.04308" lon="6.42278">
        <ele>1946</ele>
        <time>2020-09-15T05:10:41Z</time>
      </trkpt>
      <trkpt lat="45.04307" lon="6.4238">
        <ele>1938</ele>
        <time>2020-09-15T05:10:54Z</time>
      </trkpt>
      <trkpt lat="45.04293" lon="6.42449">
        <ele>1931</ele>
        <time>2020-09-15T05:11:03Z</time>
      </trkpt>
      <trkpt lat="45.04283" lon="6.42529">
        <ele>1930</ele>
        <time>2020-09-15T05:11:13Z</time>
      </trkpt>
      <trkpt lat="45.04278" lon="6.4255">
        <ele>1930</ele>
        <time>2020-09-15T05:11:16Z</time>
      </trkpt>
      <trkpt lat="45.04271" lon="6.42593">
        <ele>1930</ele>
        <time>2020-09-15T05:11:22Z</time>
      </trkpt>
      <trkpt lat="45.04261" lon="6.42623">
        <ele>1929</ele>
        <time>2020-09-15T05:11:26Z</time>
      </trkpt>
      <trkpt lat="45.04252" lon="6.42637">
        <ele>1927</ele>
        <time>2020-09-15T05:11:28Z</time>
      </trkpt>
      <trkpt lat="45.04235" lon="6.4266">
        <ele>1924</ele>
        <time>2020-09-15T05:11:32Z</time>
      </trkpt>
      <trkpt lat="45.04225" lon="6.42669">
        <ele>1923</ele>
        <time>2020-09-15T05:11:34Z</time>
      </trkpt>
      <trkpt lat="45.04185" lon="6.42705">
        <ele>1922</ele>
        <time>2020-09-15T05:11:43Z</time>
      </trkpt>
      <trkpt lat="45.04162" lon="6.42722">
        <ele>1921</ele>
        <time>2020-09-15T05:11:47Z</time>
      </trkpt>
      <trkpt lat="45.04142" lon="6.4273">
        <ele>1917</ele>
        <time>2020-09-15T05:11:51Z</time>
      </trkpt>
      <trkpt lat="45.04116" lon="6.42749">
        <ele>1913</ele>
        <time>2020-09-15T05:11:56Z</time>
      </trkpt>
      <trkpt lat="45.04095" lon="6.42768">
        <ele>1911</ele>
        <time>2020-09-15T05:12:01Z</time>
      </trkpt>
      <trkpt lat="45.04066" lon="6.428">
        <ele>1907</ele>
        <time>2020-09-15T05:12:07Z</time>
      </trkpt>
      <trkpt lat="45.04054" lon="6.42816">
        <ele>1906</ele>
        <time>2020-09-15T05:12:10Z</time>
      </trkpt>
      <trkpt lat="45.04024" lon="6.42876">
        <ele>1904</ele>
        <time>2020-09-15T05:12:20Z</time>
      </trkpt>
      <trkpt lat="45.04003" lon="6.42933">
        <ele>1903</ele>
        <time>2020-09-15T05:12:28Z</time>
      </trkpt>
      <trkpt lat="45.03996" lon="6.42958">
        <ele>1902</ele>
        <time>2020-09-15T05:12:31Z</time>
      </trkpt>
      <trkpt lat="45.03987" lon="6.42997">
        <ele>1901</ele>
        <time>2020-09-15T05:12:36Z</time>
      </trkpt>
      <trkpt lat="45.03976" lon="6.43062">
        <ele>1902</ele>
        <time>2020-09-15T05:12:45Z</time>
      </trkpt>
      <trkpt lat="45.03966" lon="6.43113">
        <ele>1902</ele>
        <time>2020-09-15T05:12:51Z</time>
      </trkpt>
      <trkpt lat="45.0395" lon="6.43165">
        <ele>1901</ele>
        <time>2020-09-15T05:12:58Z</time>
      </trkpt>
      <trkpt lat="45.03939" lon="6.43193">
        <ele>1898</ele>
        <time>2020-09-15T05:13:02Z</time>
      </trkpt>
      <trkpt lat="45.03925" lon="6.43221">
        <ele>1896</ele>
        <time>2020-09-15T05:13:07Z</time>
      </trkpt>
      <trkpt lat="45.03918" lon="6.43235">
        <ele>1894</ele>
        <time>2020-09-15T05:13:09Z</time>
      </trkpt>
      <trkpt lat="45.03908" lon="6.43248">
        <ele>1893</ele>
        <time>2020-09-15T05:13:11Z</time>
      </trkpt>
      <trkpt lat="45.03885" lon="6.43275">
        <ele>1891</ele>
        <time>2020-09-15T05:13:17Z</time>
      </trkpt>
      <trkpt lat="45.038" lon="6.43364">
        <ele>1882</ele>
        <time>2020-09-15T05:13:35Z</time>
      </trkpt>
      <trkpt lat="45.03764" lon="6.43415">
        <ele>1878</ele>
        <time>2020-09-15T05:13:44Z</time>
      </trkpt>
      <trkpt lat="45.03708" lon="6.43471">
        <ele>1874</ele>
        <time>2020-09-15T05:13:57Z</time>
      </trkpt>
      <trkpt lat="45.03672" lon="6.43519">
        <ele>1872</ele>
        <time>2020-09-15T05:14:05Z</time>
      </trkpt>
      <trkpt lat="45.0365" lon="6.43552">
        <ele>1871</ele>
        <time>2020-09-15T05:14:11Z</time>
      </trkpt>
      <trkpt lat="45.03605" lon="6.43638">
        <ele>1868</ele>
        <time>2020-09-15T05:14:25Z</time>
      </trkpt>
      <trkpt lat="45.03581" lon="6.43678">
        <ele>1867</ele>
        <time>2020-09-15T05:14:31Z</time>
      </trkpt>
      <trkpt lat="45.03551" lon="6.43715">
        <ele>1866</ele>
        <time>2020-09-15T05:14:38Z</time>
      </trkpt>
      <trkpt lat="45.03413" lon="6.4384">
        <ele>1852</ele>
        <time>2020-09-15T05:15:07Z</time>
      </trkpt>
      <trkpt lat="45.03357" lon="6.43897">
        <ele>1848</ele>
        <time>2020-09-15T05:15:20Z</time>
      </trkpt>
      <trkpt lat="45.03301" lon="6.43959">
        <ele>1845</ele>
        <time>2020-09-15T05:15:32Z</time>
      </trkpt>
      <trkpt lat="45.03182" lon="6.441">
        <ele>1841</ele>
        <time>2020-09-15T05:16:00Z</time>
      </trkpt>
      <trkpt lat="45.03141" lon="6.44163">
        <ele>1838</ele>
        <time>2020-09-15T05:16:11Z</time>
      </trkpt>
      <trkpt lat="45.0311" lon="6.44219">
        <ele>1833</ele>
        <time>2020-09-15T05:16:20Z</time>
      </trkpt>
      <trkpt lat="45.03084" lon="6.44276">
        <ele>1828</ele>
        <time>2020-09-15T05:16:28Z</time>
      </trkpt>
      <trkpt lat="45.03025" lon="6.4443">
        <ele>1824</ele>
        <time>2020-09-15T05:16:50Z</time>
      </trkpt>
      <trkpt lat="45.03007" lon="6.44458">
        <ele>1820</ele>
        <time>2020-09-15T05:16:55Z</time>
      </trkpt>
      <trkpt lat="45.02955" lon="6.44528">
        <ele>1814</ele>
        <time>2020-09-15T05:17:08Z</time>
      </trkpt>
      <trkpt lat="45.02929" lon="6.44566">
        <ele>1813</ele>
        <time>2020-09-15T05:17:14Z</time>
      </trkpt>
      <trkpt lat="45.0292" lon="6.44581">
        <ele>1812</ele>
        <time>2020-09-15T05:17:17Z</time>
      </trkpt>
      <trkpt lat="45.02871" lon="6.44696">
        <ele>1811</ele>
        <time>2020-09-15T05:17:34Z</time>
      </trkpt>
      <trkpt lat="45.02833" lon="6.4474">
        <ele>1804</ele>
        <time>2020-09-15T05:17:43Z</time>
      </trkpt>
      <trkpt lat="45.02784" lon="6.44782">
        <ele>1798</ele>
        <time>2020-09-15T05:17:53Z</time>
      </trkpt>
      <trkpt lat="45.02756" lon="6.44811">
        <ele>1795</ele>
        <time>2020-09-15T05:17:59Z</time>
      </trkpt>
      <trkpt lat="45.02648" lon="6.44961">
        <ele>1789</ele>
        <time>2020-09-15T05:18:26Z</time>
      </trkpt>
      <trkpt lat="45.02639" lon="6.44977">
        <ele>1788</ele>
        <time>2020-09-15T05:18:28Z</time>
      </trkpt>
      <trkpt lat="45.02596" lon="6.45046">
        <ele>1784</ele>
        <time>2020-09-15T05:18:40Z</time>
      </trkpt>
      <trkpt lat="45.02536" lon="6.45163">
        <ele>1780</ele>
        <time>2020-09-15T05:18:58Z</time>
      </trkpt>
      <trkpt lat="45.02512" lon="6.45225">
        <ele>1778</ele>
        <time>2020-09-15T05:19:07Z</time>
      </trkpt>
      <trkpt lat="45.02495" lon="6.45284">
        <ele>1777</ele>
        <time>2020-09-15T05:19:15Z</time>
      </trkpt>
      <trkpt lat="45.02481" lon="6.45322">
        <ele>1775</ele>
        <time>2020-09-15T05:19:20Z</time>
      </trkpt>
      <trkpt lat="45.02448" lon="6.45391">
        <ele>1771</ele>
        <time>2020-09-15T05:19:31Z</time>
      </trkpt>
      <trkpt lat="45.02428" lon="6.4544">
        <ele>1772</ele>
        <time>2020-09-15T05:19:38Z</time>
      </trkpt>
      <trkpt lat="45.02334" lon="6.45579">
        <ele>1758</ele>
        <time>2020-09-15T05:20:02Z</time>
      </trkpt>
      <trkpt lat="45.02316" lon="6.45609">
        <ele>1760</ele>
        <time>2020-09-15T05:20:07Z</time>
      </trkpt>
      <trkpt lat="45.02296" lon="6.4563">
        <ele>1759</ele>
        <time>2020-09-15T05:20:12Z</time>
      </trkpt>
      <trkpt lat="45.02271" lon="6.45651">
        <ele>1755</ele>
        <time>2020-09-15T05:20:17Z</time>
      </trkpt>
      <trkpt lat="45.02229" lon="6.45702">
        <ele>1752</ele>
        <time>2020-09-15T05:20:27Z</time>
      </trkpt>
      <trkpt lat="45.0221" lon="6.45734">
        <ele>1751</ele>
        <time>2020-09-15T05:20:32Z</time>
      </trkpt>
      <trkpt lat="45.02163" lon="6.4584">
        <ele>1746</ele>
        <time>2020-09-15T05:20:48Z</time>
      </trkpt>
      <trkpt lat="45.02133" lon="6.45898">
        <ele>1743</ele>
        <time>2020-09-15T05:20:57Z</time>
      </trkpt>
      <trkpt lat="45.02104" lon="6.45949">
        <ele>1740</ele>
        <time>2020-09-15T05:21:05Z</time>
      </trkpt>
      <trkpt lat="45.02045" lon="6.46112">
        <ele>1738</ele>
        <time>2020-09-15T05:21:28Z</time>
      </trkpt>
      <trkpt lat="45.02025" lon="6.46201">
        <ele>1735</ele>
        <time>2020-09-15T05:21:40Z</time>
      </trkpt>
      <trkpt lat="45.02005" lon="6.46252">
        <ele>1730</ele>
        <time>2020-09-15T05:21:47Z</time>
      </trkpt>
      <trkpt lat="45.01983" lon="6.463">
        <ele>1728</ele>
        <time>2020-09-15T05:21:54Z</time>
      </trkpt>
      <trkpt lat="45.01969" lon="6.4632">
        <ele>1726</ele>
        <time>2020-09-15T05:21:58Z</time>
      </trkpt>
      <trkpt lat="45.01913" lon="6.46377">
        <ele>1719</ele>
        <time>2020-09-15T05:22:10Z</time>
      </trkpt>
      <trkpt lat="45.01895" lon="6.464">
        <ele>1718</ele>
        <time>2020-09-15T05:22:14Z</time>
      </trkpt>
      <trkpt lat="45.01875" lon="6.46435">
        <ele>1716</ele>
        <time>2020-09-15T05:22:20Z</time>
      </trkpt>
      <trkpt lat="45.01864" lon="6.46466">
        <ele>1715</ele>
        <time>2020-09-15T05:22:24Z</time>
      </trkpt>
      <trkpt lat="45.01859" lon="6.46528">
        <ele>1718</ele>
        <time>2020-09-15T05:22:32Z</time>
      </trkpt>
      <trkpt lat="45.01854" lon="6.46549">
        <ele>1717</ele>
        <time>2020-09-15T05:22:35Z</time>
      </trkpt>
      <trkpt lat="45.01837" lon="6.46575">
        <ele>1713</ele>
        <time>2020-09-15T05:22:39Z</time>
      </trkpt>
      <trkpt lat="45.0181" lon="6.466">
        <ele>1713</ele>
        <time>2020-09-15T05:22:45Z</time>
      </trkpt>
      <trkpt lat="45.018" lon="6.46607">
        <ele>1714</ele>
        <time>2020-09-15T05:22:47Z</time>
      </trkpt>
      <trkpt lat="45.01793" lon="6.46609">
        <ele>1715</ele>
        <time>2020-09-15T05:22:48Z</time>
      </trkpt>
      <trkpt lat="45.01786" lon="6.46608">
        <ele>1714</ele>
        <time>2020-09-15T05:22:50Z</time>
      </trkpt>
      <trkpt lat="45.01722" lon="6.46566">
        <ele>1705</ele>
        <time>2020-09-15T05:23:02Z</time>
      </trkpt>
      <trkpt lat="45.01693" lon="6.46557">
        <ele>1704</ele>
        <time>2020-09-15T05:23:08Z</time>
      </trkpt>
      <trkpt lat="45.01656" lon="6.46537">
        <ele>1699</ele>
        <time>2020-09-15T05:23:15Z</time>
      </trkpt>
      <trkpt lat="45.01632" lon="6.46528">
        <ele>1694</ele>
        <time>2020-09-15T05:23:19Z</time>
      </trkpt>
      <trkpt lat="45.01612" lon="6.46527">
        <ele>1692</ele>
        <time>2020-09-15T05:23:23Z</time>
      </trkpt>
      <trkpt lat="45.01601" lon="6.46529">
        <ele>1692</ele>
        <time>2020-09-15T05:23:25Z</time>
      </trkpt>
      <trkpt lat="45.0158" lon="6.46538">
        <ele>1692</ele>
        <time>2020-09-15T05:23:28Z</time>
      </trkpt>
      <trkpt lat="45.01569" lon="6.46545">
        <ele>1691</ele>
        <time>2020-09-15T05:23:31Z</time>
      </trkpt>
      <trkpt lat="45.01559" lon="6.46556">
        <ele>1691</ele>
        <time>2020-09-15T05:23:33Z</time>
      </trkpt>
      <trkpt lat="45.01521" lon="6.46607">
        <ele>1690</ele>
        <time>2020-09-15T05:23:42Z</time>
      </trkpt>
      <trkpt lat="45.01503" lon="6.46635">
        <ele>1689</ele>
        <time>2020-09-15T05:23:47Z</time>
      </trkpt>
      <trkpt lat="45.01475" lon="6.46684">
        <ele>1691</ele>
        <time>2020-09-15T05:23:55Z</time>
      </trkpt>
      <trkpt lat="45.01465" lon="6.46697">
        <ele>1691</ele>
        <time>2020-09-15T05:23:57Z</time>
      </trkpt>
      <trkpt lat="45.01453" lon="6.46708">
        <ele>1691</ele>
        <time>2020-09-15T05:24:00Z</time>
      </trkpt>
      <trkpt lat="45.01433" lon="6.46724">
        <ele>1689</ele>
        <time>2020-09-15T05:24:04Z</time>
      </trkpt>
      <trkpt lat="45.01402" lon="6.4674">
        <ele>1686</ele>
        <time>2020-09-15T05:24:10Z</time>
      </trkpt>
      <trkpt lat="45.0138" lon="6.46746">
        <ele>1684</ele>
        <time>2020-09-15T05:24:14Z</time>
      </trkpt>
      <trkpt lat="45.01356" lon="6.46748">
        <ele>1682</ele>
        <time>2020-09-15T05:24:18Z</time>
      </trkpt>
      <trkpt lat="45.01342" lon="6.46751">
        <ele>1681</ele>
        <time>2020-09-15T05:24:21Z</time>
      </trkpt>
      <trkpt lat="45.01307" lon="6.4677">
        <ele>1678</ele>
        <time>2020-09-15T05:24:27Z</time>
      </trkpt>
      <trkpt lat="45.0129" lon="6.46783">
        <ele>1676</ele>
        <time>2020-09-15T05:24:31Z</time>
      </trkpt>
      <trkpt lat="45.01273" lon="6.46801">
        <ele>1674</ele>
        <time>2020-09-15T05:24:34Z</time>
      </trkpt>
      <trkpt lat="45.01245" lon="6.46847">
        <ele>1674</ele>
        <time>2020-09-15T05:24:42Z</time>
      </trkpt>
      <trkpt lat="45.01227" lon="6.46869">
        <ele>1673</ele>
        <time>2020-09-15T05:24:46Z</time>
      </trkpt>
      <trkpt lat="45.01123" lon="6.46975">
        <ele>1665</ele>
        <time>2020-09-15T05:25:09Z</time>
      </trkpt>
      <trkpt lat="45.01028" lon="6.47041">
        <ele>1659</ele>
        <time>2020-09-15T05:25:28Z</time>
      </trkpt>
      <trkpt lat="45.00991" lon="6.47056">
        <ele>1654</ele>
        <time>2020-09-15T05:25:35Z</time>
      </trkpt>
      <trkpt lat="45.00911" lon="6.47106">
        <ele>1648</ele>
        <time>2020-09-15T05:25:50Z</time>
      </trkpt>
      <trkpt lat="45.00892" lon="6.47113">
        <ele>1645</ele>
        <time>2020-09-15T05:25:54Z</time>
      </trkpt>
      <trkpt lat="45.00867" lon="6.47136">
        <ele>1644</ele>
        <time>2020-09-15T05:25:59Z</time>
      </trkpt>
      <trkpt lat="45.00851" lon="6.4716">
        <ele>1645</ele>
        <time>2020-09-15T05:26:03Z</time>
      </trkpt>
      <trkpt lat="45.0083" lon="6.47188">
        <ele>1647</ele>
        <time>2020-09-15T05:26:08Z</time>
      </trkpt>
      <trkpt lat="45.00814" lon="6.47204">
        <ele>1649</ele>
        <time>2020-09-15T05:26:12Z</time>
      </trkpt>
      <trkpt lat="45.00797" lon="6.47212">
        <ele>1647</ele>
        <time>2020-09-15T05:26:15Z</time>
      </trkpt>
      <trkpt lat="45.0075" lon="6.47226">
        <ele>1641</ele>
        <time>2020-09-15T05:26:24Z</time>
      </trkpt>
      <trkpt lat="45.00688" lon="6.47256">
        <ele>1637</ele>
        <time>2020-09-15T05:26:35Z</time>
      </trkpt>
      <trkpt lat="45.0064" lon="6.47272">
        <ele>1636</ele>
        <time>2020-09-15T05:26:44Z</time>
      </trkpt>
      <trkpt lat="45.00616" lon="6.47275">
        <ele>1635</ele>
        <time>2020-09-15T05:26:48Z</time>
      </trkpt>
      <trkpt lat="45.00588" lon="6.4727">
        <ele>1631</ele>
        <time>2020-09-15T05:26:53Z</time>
      </trkpt>
      <trkpt lat="45.00556" lon="6.47261">
        <ele>1627</ele>
        <time>2020-09-15T05:26:59Z</time>
      </trkpt>
      <trkpt lat="45.00539" lon="6.47261">
        <ele>1626</ele>
        <time>2020-09-15T05:27:02Z</time>
      </trkpt>
      <trkpt lat="45.00523" lon="6.47267">
        <ele>1626</ele>
        <time>2020-09-15T05:27:05Z</time>
      </trkpt>
      <trkpt lat="45.00505" lon="6.47285">
        <ele>1627</ele>
        <time>2020-09-15T05:27:09Z</time>
      </trkpt>
      <trkpt lat="45.00492" lon="6.47302">
        <ele>1627</ele>
        <time>2020-09-15T05:27:12Z</time>
      </trkpt>
      <trkpt lat="45.00479" lon="6.47321">
        <ele>1626</ele>
        <time>2020-09-15T05:27:16Z</time>
      </trkpt>
      <trkpt lat="45.00455" lon="6.47349">
        <ele>1626</ele>
        <time>2020-09-15T05:27:21Z</time>
      </trkpt>
      <trkpt lat="45.00435" lon="6.47366">
        <ele>1626</ele>
        <time>2020-09-15T05:27:25Z</time>
      </trkpt>
      <trkpt lat="45.00404" lon="6.47384">
        <ele>1622</ele>
        <time>2020-09-15T05:27:31Z</time>
      </trkpt>
      <trkpt lat="45.00381" lon="6.47405">
        <ele>1620</ele>
        <time>2020-09-15T05:27:36Z</time>
      </trkpt>
      <trkpt lat="45.0032" lon="6.47474">
        <ele>1616</ele>
        <time>2020-09-15T05:27:50Z</time>
      </trkpt>
      <trkpt lat="45.00267" lon="6.47543">
        <ele>1618</ele>
        <time>2020-09-15T05:28:03Z</time>
      </trkpt>
      <trkpt lat="45.00247" lon="6.47559">
        <ele>1615</ele>
        <time>2020-09-15T05:28:07Z</time>
      </trkpt>
      <trkpt lat="45.00155" lon="6.47616">
        <ele>1606</ele>
        <time>2020-09-15T05:28:25Z</time>
      </trkpt>
      <trkpt lat="45.00099" lon="6.47671">
        <ele>1611</ele>
        <time>2020-09-15T05:28:37Z</time>
      </trkpt>
      <trkpt lat="45.00081" lon="6.47681">
        <ele>1609</ele>
        <time>2020-09-15T05:28:40Z</time>
      </trkpt>
      <trkpt lat="45.00061" lon="6.47687">
        <ele>1608</ele>
        <time>2020-09-15T05:28:44Z</time>
      </trkpt>
      <trkpt lat="44.99978" lon="6.47692">
        <ele>1594</ele>
        <time>2020-09-15T05:28:59Z</time>
      </trkpt>
      <trkpt lat="44.99935" lon="6.47708">
        <ele>1590</ele>
        <time>2020-09-15T05:29:07Z</time>
      </trkpt>
      <trkpt lat="44.99863" lon="6.47768">
        <ele>1591</ele>
        <time>2020-09-15T05:29:22Z</time>
      </trkpt>
      <trkpt lat="44.99843" lon="6.47779">
        <ele>1591</ele>
        <time>2020-09-15T05:29:25Z</time>
      </trkpt>
      <trkpt lat="44.99826" lon="6.47785">
        <ele>1589</ele>
        <time>2020-09-15T05:29:28Z</time>
      </trkpt>
      <trkpt lat="44.99796" lon="6.47791">
        <ele>1585</ele>
        <time>2020-09-15T05:29:34Z</time>
      </trkpt>
      <trkpt lat="44.99782" lon="6.47798">
        <ele>1583</ele>
        <time>2020-09-15T05:29:37Z</time>
      </trkpt>
      <trkpt lat="44.99743" lon="6.47841">
        <ele>1583</ele>
        <time>2020-09-15T05:29:45Z</time>
      </trkpt>
      <trkpt lat="44.99724" lon="6.47856">
        <ele>1583</ele>
        <time>2020-09-15T05:29:49Z</time>
      </trkpt>
      <trkpt lat="44.99701" lon="6.47863">
        <ele>1581</ele>
        <time>2020-09-15T05:29:53Z</time>
      </trkpt>
      <trkpt lat="44.99656" lon="6.47871">
        <ele>1576</ele>
        <time>2020-09-15T05:30:01Z</time>
      </trkpt>
      <trkpt lat="44.99632" lon="6.47876">
        <ele>1573</ele>
        <time>2020-09-15T05:30:06Z</time>
      </trkpt>
      <trkpt lat="44.99618" lon="6.47888">
        <ele>1573</ele>
        <time>2020-09-15T05:30:09Z</time>
      </trkpt>
      <trkpt lat="44.99557" lon="6.47969">
        <ele>1580</ele>
        <time>2020-09-15T05:30:24Z</time>
      </trkpt>
      <trkpt lat="44.99532" lon="6.47991">
        <ele>1579</ele>
        <time>2020-09-15T05:30:29Z</time>
      </trkpt>
      <trkpt lat="44.99442" lon="6.48046">
        <ele>1575</ele>
        <time>2020-09-15T05:30:46Z</time>
      </trkpt>
      <trkpt lat="44.99388" lon="6.48091">
        <ele>1572</ele>
        <time>2020-09-15T05:30:57Z</time>
      </trkpt>
      <trkpt lat="44.99345" lon="6.48122">
        <ele>1569</ele>
        <time>2020-09-15T05:31:06Z</time>
      </trkpt>
      <trkpt lat="44.99327" lon="6.48138">
        <ele>1568</ele>
        <time>2020-09-15T05:31:10Z</time>
      </trkpt>
      <trkpt lat="44.99315" lon="6.48159">
        <ele>1570</ele>
        <time>2020-09-15T05:31:13Z</time>
      </trkpt>
      <trkpt lat="44.993" lon="6.48181">
        <ele>1571</ele>
        <time>2020-09-15T05:31:17Z</time>
      </trkpt>
      <trkpt lat="44.99279" lon="6.48197">
        <ele>1567</ele>
        <time>2020-09-15T05:31:21Z</time>
      </trkpt>
      <trkpt lat="44.99252" lon="6.48225">
        <ele>1562</ele>
        <time>2020-09-15T05:31:27Z</time>
      </trkpt>
      <trkpt lat="44.99235" lon="6.4826">
        <ele>1564</ele>
        <time>2020-09-15T05:31:33Z</time>
      </trkpt>
      <trkpt lat="44.99218" lon="6.48308">
        <ele>1568</ele>
        <time>2020-09-15T05:31:39Z</time>
      </trkpt>
      <trkpt lat="44.99201" lon="6.48345">
        <ele>1567</ele>
        <time>2020-09-15T05:31:45Z</time>
      </trkpt>
      <trkpt lat="44.9917" lon="6.48407">
        <ele>1560</ele>
        <time>2020-09-15T05:31:54Z</time>
      </trkpt>
      <trkpt lat="44.99155" lon="6.48443">
        <ele>1562</ele>
        <time>2020-09-15T05:32:00Z</time>
      </trkpt>
      <trkpt lat="44.99076" lon="6.48561">
        <ele>1561</ele>
        <time>2020-09-15T05:32:20Z</time>
      </trkpt>
      <trkpt lat="44.9904" lon="6.48605">
        <ele>1557</ele>
        <time>2020-09-15T05:32:29Z</time>
      </trkpt>
      <trkpt lat="44.98958" lon="6.48758">
        <ele>1552</ele>
        <time>2020-09-15T05:32:53Z</time>
      </trkpt>
      <trkpt lat="44.98903" lon="6.48865">
        <ele>1547</ele>
        <time>2020-09-15T05:33:09Z</time>
      </trkpt>
      <trkpt lat="44.98889" lon="6.48894">
        <ele>1547</ele>
        <time>2020-09-15T05:33:14Z</time>
      </trkpt>
      <trkpt lat="44.98883" lon="6.4891">
        <ele>1547</ele>
        <time>2020-09-15T05:33:16Z</time>
      </trkpt>
      <trkpt lat="44.98876" lon="6.48937">
        <ele>1548</ele>
        <time>2020-09-15T05:33:20Z</time>
      </trkpt>
      <trkpt lat="44.98861" lon="6.48992">
        <ele>1548</ele>
        <time>2020-09-15T05:33:27Z</time>
      </trkpt>
      <trkpt lat="44.98852" lon="6.4902">
        <ele>1550</ele>
        <time>2020-09-15T05:33:31Z</time>
      </trkpt>
      <trkpt lat="44.98837" lon="6.4904">
        <ele>1549</ele>
        <time>2020-09-15T05:33:35Z</time>
      </trkpt>
      <trkpt lat="44.98786" lon="6.49098">
        <ele>1543</ele>
        <time>2020-09-15T05:33:46Z</time>
      </trkpt>
      <trkpt lat="44.98748" lon="6.49151">
        <ele>1540</ele>
        <time>2020-09-15T05:33:56Z</time>
      </trkpt>
      <trkpt lat="44.98719" lon="6.49188">
        <ele>1539</ele>
        <time>2020-09-15T05:34:03Z</time>
      </trkpt>
      <trkpt lat="44.98702" lon="6.49213">
        <ele>1538</ele>
        <time>2020-09-15T05:34:07Z</time>
      </trkpt>
      <trkpt lat="44.98694" lon="6.49232">
        <ele>1537</ele>
        <time>2020-09-15T05:34:10Z</time>
      </trkpt>
      <trkpt lat="44.98677" lon="6.49299">
        <ele>1537</ele>
        <time>2020-09-15T05:34:19Z</time>
      </trkpt>
      <trkpt lat="44.98665" lon="6.49335">
        <ele>1536</ele>
        <time>2020-09-15T05:34:24Z</time>
      </trkpt>
      <trkpt lat="44.98646" lon="6.49377">
        <ele>1538</ele>
        <time>2020-09-15T05:34:30Z</time>
      </trkpt>
      <trkpt lat="44.98621" lon="6.49418">
        <ele>1535</ele>
        <time>2020-09-15T05:34:37Z</time>
      </trkpt>
      <trkpt lat="44.98588" lon="6.49467">
        <ele>1538</ele>
        <time>2020-09-15T05:34:45Z</time>
      </trkpt>
      <trkpt lat="44.9857" lon="6.4949">
        <ele>1538</ele>
        <time>2020-09-15T05:34:50Z</time>
      </trkpt>
      <trkpt lat="44.98548" lon="6.49504">
        <ele>1534</ele>
        <time>2020-09-15T05:34:54Z</time>
      </trkpt>
      <trkpt lat="44.98529" lon="6.49521">
        <ele>1531</ele>
        <time>2020-09-15T05:34:58Z</time>
      </trkpt>
      <trkpt lat="44.98484" lon="6.49588">
        <ele>1531</ele>
        <time>2020-09-15T05:35:10Z</time>
      </trkpt>
      <trkpt lat="44.98424" lon="6.4969">
        <ele>1527</ele>
        <time>2020-09-15T05:35:26Z</time>
      </trkpt>
      <trkpt lat="44.98366" lon="6.49801">
        <ele>1532</ele>
        <time>2020-09-15T05:35:44Z</time>
      </trkpt>
      <trkpt lat="44.9834" lon="6.49832">
        <ele>1528</ele>
        <time>2020-09-15T05:35:50Z</time>
      </trkpt>
      <trkpt lat="44.98291" lon="6.49881">
        <ele>1526</ele>
        <time>2020-09-15T05:36:00Z</time>
      </trkpt>
      <trkpt lat="44.98236" lon="6.49922">
        <ele>1520</ele>
        <time>2020-09-15T05:36:12Z</time>
      </trkpt>
      <trkpt lat="44.98208" lon="6.49935">
        <ele>1518</ele>
        <time>2020-09-15T05:36:17Z</time>
      </trkpt>
      <trkpt lat="44.9818" lon="6.49942">
        <ele>1516</ele>
        <time>2020-09-15T05:36:22Z</time>
      </trkpt>
      <trkpt lat="44.98143" lon="6.49941">
        <ele>1514</ele>
        <time>2020-09-15T05:36:28Z</time>
      </trkpt>
      <trkpt lat="44.9808" lon="6.49917">
        <ele>1513</ele>
        <time>2020-09-15T05:36:40Z</time>
      </trkpt>
      <trkpt lat="44.98059" lon="6.49908">
        <ele>1511</ele>
        <time>2020-09-15T05:36:44Z</time>
      </trkpt>
      <trkpt lat="44.98032" lon="6.49904">
        <ele>1509</ele>
        <time>2020-09-15T05:36:49Z</time>
      </trkpt>
      <trkpt lat="44.98005" lon="6.49918">
        <ele>1508</ele>
        <time>2020-09-15T05:36:54Z</time>
      </trkpt>
      <trkpt lat="44.9799" lon="6.49929">
        <ele>1508</ele>
        <time>2020-09-15T05:36:57Z</time>
      </trkpt>
      <trkpt lat="44.97975" lon="6.49942">
        <ele>1508</ele>
        <time>2020-09-15T05:37:00Z</time>
      </trkpt>
      <trkpt lat="44.97954" lon="6.49971">
        <ele>1509</ele>
        <time>2020-09-15T05:37:05Z</time>
      </trkpt>
      <trkpt lat="44.97905" lon="6.50036">
        <ele>1510</ele>
        <time>2020-09-15T05:37:17Z</time>
      </trkpt>
      <trkpt lat="44.97883" lon="6.50081">
        <ele>1509</ele>
        <time>2020-09-15T05:37:24Z</time>
      </trkpt>
      <trkpt lat="44.97868" lon="6.50121">
        <ele>1508</ele>
        <time>2020-09-15T05:37:30Z</time>
      </trkpt>
      <trkpt lat="44.97864" lon="6.50132">
        <ele>1507</ele>
        <time>2020-09-15T05:37:31Z</time>
      </trkpt>
      <trkpt lat="44.97849" lon="6.50189">
        <ele>1507</ele>
        <time>2020-09-15T05:37:39Z</time>
      </trkpt>
      <trkpt lat="44.97819" lon="6.50299">
        <ele>1505</ele>
        <time>2020-09-15T05:37:54Z</time>
      </trkpt>
      <trkpt lat="44.97803" lon="6.50352">
        <ele>1503</ele>
        <time>2020-09-15T05:38:01Z</time>
      </trkpt>
      <trkpt lat="44.97786" lon="6.50392">
        <ele>1501</ele>
        <time>2020-09-15T05:38:07Z</time>
      </trkpt>
      <trkpt lat="44.97768" lon="6.50431">
        <ele>1499</ele>
        <time>2020-09-15T05:38:13Z</time>
      </trkpt>
      <trkpt lat="44.97754" lon="6.50458">
        <ele>1498</ele>
        <time>2020-09-15T05:38:17Z</time>
      </trkpt>
      <trkpt lat="44.97637" lon="6.5071">
        <ele>1495</ele>
        <time>2020-09-15T05:38:55Z</time>
      </trkpt>
      <trkpt lat="44.97604" lon="6.50787">
        <ele>1492</ele>
        <time>2020-09-15T05:39:06Z</time>
      </trkpt>
      <trkpt lat="44.97598" lon="6.50804">
        <ele>1491</ele>
        <time>2020-09-15T05:39:09Z</time>
      </trkpt>
      <trkpt lat="44.97592" lon="6.50828">
        <ele>1490</ele>
        <time>2020-09-15T05:39:12Z</time>
      </trkpt>
      <trkpt lat="44.97589" lon="6.50846">
        <ele>1489</ele>
        <time>2020-09-15T05:39:14Z</time>
      </trkpt>
      <trkpt lat="44.9759" lon="6.50886">
        <ele>1489</ele>
        <time>2020-09-15T05:39:19Z</time>
      </trkpt>
      <trkpt lat="44.97598" lon="6.50963">
        <ele>1488</ele>
        <time>2020-09-15T05:39:29Z</time>
      </trkpt>
      <trkpt lat="44.97593" lon="6.51013">
        <ele>1487</ele>
        <time>2020-09-15T05:39:35Z</time>
      </trkpt>
      <trkpt lat="44.97587" lon="6.51049">
        <ele>1486</ele>
        <time>2020-09-15T05:39:40Z</time>
      </trkpt>
      <trkpt lat="44.97578" lon="6.5111">
        <ele>1485</ele>
        <time>2020-09-15T05:39:48Z</time>
      </trkpt>
      <trkpt lat="44.97576" lon="6.51126">
        <ele>1484</ele>
        <time>2020-09-15T05:39:50Z</time>
      </trkpt>
      <trkpt lat="44.97575" lon="6.51138">
        <ele>1484</ele>
        <time>2020-09-15T05:39:52Z</time>
      </trkpt>
      <trkpt lat="44.97575" lon="6.51145">
        <ele>1484</ele>
        <time>2020-09-15T05:39:52Z</time>
      </trkpt>
      <trkpt lat="44.97574" lon="6.51155">
        <ele>1483</ele>
        <time>2020-09-15T05:39:54Z</time>
      </trkpt>
      <trkpt lat="44.97574" lon="6.51169">
        <ele>1483</ele>
        <time>2020-09-15T05:39:55Z</time>
      </trkpt>
      <trkpt lat="44.97574" lon="6.51175">
        <ele>1483</ele>
        <time>2020-09-15T05:39:56Z</time>
      </trkpt>
      <trkpt lat="44.97574" lon="6.51186">
        <ele>1482</ele>
        <time>2020-09-15T05:39:58Z</time>
      </trkpt>
      <trkpt lat="44.97575" lon="6.51201">
        <ele>1482</ele>
        <time>2020-09-15T05:39:59Z</time>
      </trkpt>
      <trkpt lat="44.97563" lon="6.51208">
        <ele>1481</ele>
        <time>2020-09-15T05:40:02Z</time>
      </trkpt>
      <trkpt lat="44.9756" lon="6.51213">
        <ele>1481</ele>
        <time>2020-09-15T05:40:03Z</time>
      </trkpt>
      <trkpt lat="44.97556" lon="6.51224">
        <ele>1480</ele>
        <time>2020-09-15T05:40:04Z</time>
      </trkpt>
      <trkpt lat="44.97553" lon="6.51263">
        <ele>1479</ele>
        <time>2020-09-15T05:40:09Z</time>
      </trkpt>
      <trkpt lat="44.97545" lon="6.513">
        <ele>1477</ele>
        <time>2020-09-15T05:40:14Z</time>
      </trkpt>
      <trkpt lat="44.97532" lon="6.51346">
        <ele>1473</ele>
        <time>2020-09-15T05:40:20Z</time>
      </trkpt>
      <trkpt lat="44.97492" lon="6.51447">
        <ele>1463</ele>
        <time>2020-09-15T05:40:35Z</time>
      </trkpt>
      <trkpt lat="44.97444" lon="6.51558">
        <ele>1458</ele>
        <time>2020-09-15T05:40:51Z</time>
      </trkpt>
      <trkpt lat="44.9741" lon="6.51645">
        <ele>1458</ele>
        <time>2020-09-15T05:41:04Z</time>
      </trkpt>
      <trkpt lat="44.97386" lon="6.51694">
        <ele>1458</ele>
        <time>2020-09-15T05:41:11Z</time>
      </trkpt>
      <trkpt lat="44.97373" lon="6.5173">
        <ele>1458</ele>
        <time>2020-09-15T05:41:16Z</time>
      </trkpt>
      <trkpt lat="44.97366" lon="6.5176">
        <ele>1458</ele>
        <time>2020-09-15T05:41:20Z</time>
      </trkpt>
      <trkpt lat="44.97365" lon="6.51763">
        <ele>1458</ele>
        <time>2020-09-15T05:41:21Z</time>
      </trkpt>
      <trkpt lat="44.97354" lon="6.5178">
        <ele>1458</ele>
        <time>2020-09-15T05:41:24Z</time>
      </trkpt>
      <trkpt lat="44.9733" lon="6.51814">
        <ele>1457</ele>
        <time>2020-09-15T05:41:30Z</time>
      </trkpt>
      <trkpt lat="44.97328" lon="6.51817">
        <ele>1457</ele>
        <time>2020-09-15T05:41:30Z</time>
      </trkpt>
      <trkpt lat="44.97305" lon="6.51846">
        <ele>1456</ele>
        <time>2020-09-15T05:41:36Z</time>
      </trkpt>
      <trkpt lat="44.97303" lon="6.51848">
        <ele>1456</ele>
        <time>2020-09-15T05:41:36Z</time>
      </trkpt>
      <trkpt lat="44.97299" lon="6.51854">
        <ele>1456</ele>
        <time>2020-09-15T05:41:37Z</time>
      </trkpt>
      <trkpt lat="44.97268" lon="6.51892">
        <ele>1454</ele>
        <time>2020-09-15T05:41:44Z</time>
      </trkpt>
      <trkpt lat="44.97264" lon="6.51897">
        <ele>1454</ele>
        <time>2020-09-15T05:41:45Z</time>
      </trkpt>
      <trkpt lat="44.97233" lon="6.51938">
        <ele>1453</ele>
        <time>2020-09-15T05:41:53Z</time>
      </trkpt>
      <trkpt lat="44.97219" lon="6.51962">
        <ele>1452</ele>
        <time>2020-09-15T05:41:57Z</time>
      </trkpt>
      <trkpt lat="44.972" lon="6.5201">
        <ele>1451</ele>
        <time>2020-09-15T05:42:04Z</time>
      </trkpt>
      <trkpt lat="44.97127" lon="6.52205">
        <ele>1446</ele>
        <time>2020-09-15T05:42:31Z</time>
      </trkpt>
      <trkpt lat="44.97116" lon="6.52232">
        <ele>1446</ele>
        <time>2020-09-15T05:42:35Z</time>
      </trkpt>
      <trkpt lat="44.97112" lon="6.52241">
        <ele>1446</ele>
        <time>2020-09-15T05:42:37Z</time>
      </trkpt>
      <trkpt lat="44.97101" lon="6.52261">
        <ele>1447</ele>
        <time>2020-09-15T05:42:40Z</time>
      </trkpt>
      <trkpt lat="44.97081" lon="6.52283">
        <ele>1448</ele>
        <time>2020-09-15T05:42:44Z</time>
      </trkpt>
      <trkpt lat="44.97061" lon="6.52299">
        <ele>1447</ele>
        <time>2020-09-15T05:42:49Z</time>
      </trkpt>
      <trkpt lat="44.96931" lon="6.52361">
        <ele>1445</ele>
        <time>2020-09-15T05:43:13Z</time>
      </trkpt>
      <trkpt lat="44.96901" lon="6.52387">
        <ele>1445</ele>
        <time>2020-09-15T05:43:19Z</time>
      </trkpt>
      <trkpt lat="44.96876" lon="6.5243">
        <ele>1445</ele>
        <time>2020-09-15T05:43:26Z</time>
      </trkpt>
      <trkpt lat="44.96859" lon="6.52483">
        <ele>1446</ele>
        <time>2020-09-15T05:43:34Z</time>
      </trkpt>
      <trkpt lat="44.96837" lon="6.52568">
        <ele>1445</ele>
        <time>2020-09-15T05:43:45Z</time>
      </trkpt>
      <trkpt lat="44.96826" lon="6.52643">
        <ele>1443</ele>
        <time>2020-09-15T05:43:55Z</time>
      </trkpt>
      <trkpt lat="44.96817" lon="6.52683">
        <ele>1443</ele>
        <time>2020-09-15T05:44:00Z</time>
      </trkpt>
      <trkpt lat="44.96808" lon="6.52713">
        <ele>1442</ele>
        <time>2020-09-15T05:44:04Z</time>
      </trkpt>
      <trkpt lat="44.9679" lon="6.52776">
        <ele>1440</ele>
        <time>2020-09-15T05:44:12Z</time>
      </trkpt>
      <trkpt lat="44.96779" lon="6.52818">
        <ele>1439</ele>
        <time>2020-09-15T05:44:18Z</time>
      </trkpt>
      <trkpt lat="44.96774" lon="6.52849">
        <ele>1438</ele>
        <time>2020-09-15T05:44:22Z</time>
      </trkpt>
      <trkpt lat="44.96771" lon="6.52883">
        <ele>1438</ele>
        <time>2020-09-15T05:44:26Z</time>
      </trkpt>
      <trkpt lat="44.96772" lon="6.52916">
        <ele>1438</ele>
        <time>2020-09-15T05:44:31Z</time>
      </trkpt>
      <trkpt lat="44.96776" lon="6.52956">
        <ele>1438</ele>
        <time>2020-09-15T05:44:36Z</time>
      </trkpt>
      <trkpt lat="44.96779" lon="6.52986">
        <ele>1437</ele>
        <time>2020-09-15T05:44:39Z</time>
      </trkpt>
      <trkpt lat="44.96736" lon="6.53036">
        <ele>1432</ele>
        <time>2020-09-15T05:44:49Z</time>
      </trkpt>
      <trkpt lat="44.96724" lon="6.53053">
        <ele>1431</ele>
        <time>2020-09-15T05:44:52Z</time>
      </trkpt>
      <trkpt lat="44.96708" lon="6.5309">
        <ele>1430</ele>
        <time>2020-09-15T05:44:58Z</time>
      </trkpt>
      <trkpt lat="44.96676" lon="6.53141">
        <ele>1430</ele>
        <time>2020-09-15T05:45:06Z</time>
      </trkpt>
      <trkpt lat="44.96652" lon="6.53173">
        <ele>1429</ele>
        <time>2020-09-15T05:45:12Z</time>
      </trkpt>
      <trkpt lat="44.96637" lon="6.53189">
        <ele>1429</ele>
        <time>2020-09-15T05:45:16Z</time>
      </trkpt>
      <trkpt lat="44.96642" lon="6.53194">
        <ele>1430</ele>
        <time>2020-09-15T05:45:17Z</time>
      </trkpt>
      <trkpt lat="44.96648" lon="6.53214">
        <ele>1431</ele>
        <time>2020-09-15T05:45:20Z</time>
      </trkpt>
      <trkpt lat="44.96647" lon="6.53227">
        <ele>1432</ele>
        <time>2020-09-15T05:45:21Z</time>
      </trkpt>
      <trkpt lat="44.96644" lon="6.53238">
        <ele>1432</ele>
        <time>2020-09-15T05:45:23Z</time>
      </trkpt>
      <trkpt lat="44.96628" lon="6.53264">
        <ele>1432</ele>
        <time>2020-09-15T05:45:27Z</time>
      </trkpt>
      <trkpt lat="44.96626" lon="6.53278">
        <ele>1432</ele>
        <time>2020-09-15T05:45:29Z</time>
      </trkpt>
      <trkpt lat="44.96628" lon="6.53282">
        <ele>1433</ele>
        <time>2020-09-15T05:45:29Z</time>
      </trkpt>
      <trkpt lat="44.96598" lon="6.5333">
        <ele>1431</ele>
        <time>2020-09-15T05:45:37Z</time>
      </trkpt>
      <trkpt lat="44.96447" lon="6.53581">
        <ele>1423</ele>
        <time>2020-09-15T05:46:19Z</time>
      </trkpt>
      <trkpt lat="44.96418" lon="6.53621">
        <ele>1424</ele>
        <time>2020-09-15T05:46:26Z</time>
      </trkpt>
      <trkpt lat="44.96356" lon="6.53667">
        <ele>1423</ele>
        <time>2020-09-15T05:46:39Z</time>
      </trkpt>
      <trkpt lat="44.96345" lon="6.53701">
        <ele>1425</ele>
        <time>2020-09-15T05:46:43Z</time>
      </trkpt>
      <trkpt lat="44.96334" lon="6.53701">
        <ele>1424</ele>
        <time>2020-09-15T05:46:45Z</time>
      </trkpt>
      <trkpt lat="44.96309" lon="6.53715">
        <ele>1423</ele>
        <time>2020-09-15T05:46:50Z</time>
      </trkpt>
      <trkpt lat="44.96288" lon="6.53721">
        <ele>1421</ele>
        <time>2020-09-15T05:46:54Z</time>
      </trkpt>
      <trkpt lat="44.96279" lon="6.5372">
        <ele>1421</ele>
        <time>2020-09-15T05:46:55Z</time>
      </trkpt>
      <trkpt lat="44.96273" lon="6.53724">
        <ele>1420</ele>
        <time>2020-09-15T05:46:57Z</time>
      </trkpt>
      <trkpt lat="44.96139" lon="6.5384">
        <ele>1416</ele>
        <time>2020-09-15T05:47:25Z</time>
      </trkpt>
      <trkpt lat="44.95858" lon="6.54161">
        <ele>1408</ele>
        <time>2020-09-15T05:48:29Z</time>
      </trkpt>
      <trkpt lat="44.95839" lon="6.54187">
        <ele>1408</ele>
        <time>2020-09-15T05:48:34Z</time>
      </trkpt>
      <trkpt lat="44.95828" lon="6.54208">
        <ele>1407</ele>
        <time>2020-09-15T05:48:37Z</time>
      </trkpt>
      <trkpt lat="44.95817" lon="6.54234">
        <ele>1407</ele>
        <time>2020-09-15T05:48:41Z</time>
      </trkpt>
      <trkpt lat="44.9581" lon="6.54259">
        <ele>1407</ele>
        <time>2020-09-15T05:48:44Z</time>
      </trkpt>
      <trkpt lat="44.95777" lon="6.54448">
        <ele>1409</ele>
        <time>2020-09-15T05:49:09Z</time>
      </trkpt>
      <trkpt lat="44.95773" lon="6.54472">
        <ele>1410</ele>
        <time>2020-09-15T05:49:12Z</time>
      </trkpt>
      <trkpt lat="44.95765" lon="6.54519">
        <ele>1411</ele>
        <time>2020-09-15T05:49:18Z</time>
      </trkpt>
      <trkpt lat="44.95764" lon="6.54525">
        <ele>1411</ele>
        <time>2020-09-15T05:49:19Z</time>
      </trkpt>
      <trkpt lat="44.9576" lon="6.5454">
        <ele>1412</ele>
        <time>2020-09-15T05:49:21Z</time>
      </trkpt>
      <trkpt lat="44.95753" lon="6.54562">
        <ele>1411</ele>
        <time>2020-09-15T05:49:24Z</time>
      </trkpt>
      <trkpt lat="44.95739" lon="6.5459">
        <ele>1410</ele>
        <time>2020-09-15T05:49:28Z</time>
      </trkpt>
      <trkpt lat="44.95612" lon="6.54798">
        <ele>1402</ele>
        <time>2020-09-15T05:50:03Z</time>
      </trkpt>
      <trkpt lat="44.95595" lon="6.54826">
        <ele>1401</ele>
        <time>2020-09-15T05:50:07Z</time>
      </trkpt>
      <trkpt lat="44.95582" lon="6.54843">
        <ele>1400</ele>
        <time>2020-09-15T05:50:10Z</time>
      </trkpt>
      <trkpt lat="44.95552" lon="6.54872">
        <ele>1399</ele>
        <time>2020-09-15T05:50:17Z</time>
      </trkpt>
      <trkpt lat="44.95505" lon="6.54911">
        <ele>1399</ele>
        <time>2020-09-15T05:50:26Z</time>
      </trkpt>
      <trkpt lat="44.95458" lon="6.54951">
        <ele>1398</ele>
        <time>2020-09-15T05:50:36Z</time>
      </trkpt>
      <trkpt lat="44.9543" lon="6.54975">
        <ele>1398</ele>
        <time>2020-09-15T05:50:42Z</time>
      </trkpt>
      <trkpt lat="44.95418" lon="6.54986">
        <ele>1399</ele>
        <time>2020-09-15T05:50:45Z</time>
      </trkpt>
      <trkpt lat="44.95405" lon="6.55003">
        <ele>1399</ele>
        <time>2020-09-15T05:50:48Z</time>
      </trkpt>
      <trkpt lat="44.95379" lon="6.55049">
        <ele>1399</ele>
        <time>2020-09-15T05:50:55Z</time>
      </trkpt>
      <trkpt lat="44.95347" lon="6.55099">
        <ele>1398</ele>
        <time>2020-09-15T05:51:04Z</time>
      </trkpt>
      <trkpt lat="44.95322" lon="6.55135">
        <ele>1399</ele>
        <time>2020-09-15T05:51:10Z</time>
      </trkpt>
      <trkpt lat="44.95316" lon="6.55143">
        <ele>1399</ele>
        <time>2020-09-15T05:51:11Z</time>
      </trkpt>
      <trkpt lat="44.95257" lon="6.55229">
        <ele>1396</ele>
        <time>2020-09-15T05:51:27Z</time>
      </trkpt>
      <trkpt lat="44.95211" lon="6.55295">
        <ele>1396</ele>
        <time>2020-09-15T05:51:38Z</time>
      </trkpt>
      <trkpt lat="44.95169" lon="6.55354">
        <ele>1398</ele>
        <time>2020-09-15T05:51:49Z</time>
      </trkpt>
      <trkpt lat="44.95158" lon="6.55369">
        <ele>1397</ele>
        <time>2020-09-15T05:51:52Z</time>
      </trkpt>
      <trkpt lat="44.95154" lon="6.55375">
        <ele>1397</ele>
        <time>2020-09-15T05:51:53Z</time>
      </trkpt>
      <trkpt lat="44.9515" lon="6.5538">
        <ele>1397</ele>
        <time>2020-09-15T05:51:53Z</time>
      </trkpt>
      <trkpt lat="44.95122" lon="6.5542">
        <ele>1397</ele>
        <time>2020-09-15T05:52:01Z</time>
      </trkpt>
      <trkpt lat="44.95109" lon="6.55438">
        <ele>1397</ele>
        <time>2020-09-15T05:52:04Z</time>
      </trkpt>
      <trkpt lat="44.95088" lon="6.55466">
        <ele>1397</ele>
        <time>2020-09-15T05:52:09Z</time>
      </trkpt>
      <trkpt lat="44.95072" lon="6.55489">
        <ele>1396</ele>
        <time>2020-09-15T05:52:13Z</time>
      </trkpt>
      <trkpt lat="44.95022" lon="6.55556">
        <ele>1397</ele>
        <time>2020-09-15T05:52:25Z</time>
      </trkpt>
      <trkpt lat="44.95016" lon="6.55565">
        <ele>1396</ele>
        <time>2020-09-15T05:52:27Z</time>
      </trkpt>
      <trkpt lat="44.95006" lon="6.55579">
        <ele>1396</ele>
        <time>2020-09-15T05:52:29Z</time>
      </trkpt>
      <trkpt lat="44.94976" lon="6.55621">
        <ele>1396</ele>
        <time>2020-09-15T05:52:37Z</time>
      </trkpt>
      <trkpt lat="44.94972" lon="6.55627">
        <ele>1396</ele>
        <time>2020-09-15T05:52:38Z</time>
      </trkpt>
      <trkpt lat="44.9496" lon="6.55644">
        <ele>1396</ele>
        <time>2020-09-15T05:52:41Z</time>
      </trkpt>
      <trkpt lat="44.94947" lon="6.55663">
        <ele>1396</ele>
        <time>2020-09-15T05:52:44Z</time>
      </trkpt>
      <trkpt lat="44.94943" lon="6.55668">
        <ele>1396</ele>
        <time>2020-09-15T05:52:45Z</time>
      </trkpt>
      <trkpt lat="44.94911" lon="6.55713">
        <ele>1394</ele>
        <time>2020-09-15T05:52:53Z</time>
      </trkpt>
      <trkpt lat="44.9485" lon="6.55795">
        <ele>1391</ele>
        <time>2020-09-15T05:53:08Z</time>
      </trkpt>
      <trkpt lat="44.94848" lon="6.55798">
        <ele>1391</ele>
        <time>2020-09-15T05:53:09Z</time>
      </trkpt>
      <trkpt lat="44.94846" lon="6.558">
        <ele>1391</ele>
        <time>2020-09-15T05:53:09Z</time>
      </trkpt>
      <trkpt lat="44.94823" lon="6.5583">
        <ele>1390</ele>
        <time>2020-09-15T05:53:15Z</time>
      </trkpt>
      <trkpt lat="44.94804" lon="6.55852">
        <ele>1391</ele>
        <time>2020-09-15T05:53:19Z</time>
      </trkpt>
      <trkpt lat="44.94794" lon="6.55861">
        <ele>1390</ele>
        <time>2020-09-15T05:53:21Z</time>
      </trkpt>
      <trkpt lat="44.94786" lon="6.55869">
        <ele>1390</ele>
        <time>2020-09-15T05:53:23Z</time>
      </trkpt>
      <trkpt lat="44.94777" lon="6.55876">
        <ele>1390</ele>
        <time>2020-09-15T05:53:25Z</time>
      </trkpt>
      <trkpt lat="44.94733" lon="6.55907">
        <ele>1389</ele>
        <time>2020-09-15T05:53:34Z</time>
      </trkpt>
      <trkpt lat="44.94712" lon="6.55919">
        <ele>1388</ele>
        <time>2020-09-15T05:53:38Z</time>
      </trkpt>
      <trkpt lat="44.94679" lon="6.55936">
        <ele>1386</ele>
        <time>2020-09-15T05:53:44Z</time>
      </trkpt>
      <trkpt lat="44.94652" lon="6.55957">
        <ele>1386</ele>
        <time>2020-09-15T05:53:49Z</time>
      </trkpt>
      <trkpt lat="44.94639" lon="6.55972">
        <ele>1386</ele>
        <time>2020-09-15T05:53:52Z</time>
      </trkpt>
      <trkpt lat="44.94597" lon="6.56028">
        <ele>1386</ele>
        <time>2020-09-15T05:54:03Z</time>
      </trkpt>
      <trkpt lat="44.94586" lon="6.5604">
        <ele>1386</ele>
        <time>2020-09-15T05:54:05Z</time>
      </trkpt>
      <trkpt lat="44.94575" lon="6.56053">
        <ele>1386</ele>
        <time>2020-09-15T05:54:08Z</time>
      </trkpt>
      <trkpt lat="44.9456" lon="6.56064">
        <ele>1387</ele>
        <time>2020-09-15T05:54:11Z</time>
      </trkpt>
      <trkpt lat="44.94555" lon="6.56062">
        <ele>1387</ele>
        <time>2020-09-15T05:54:12Z</time>
      </trkpt>
      <trkpt lat="44.94545" lon="6.56065">
        <ele>1388</ele>
        <time>2020-09-15T05:54:13Z</time>
      </trkpt>
      <trkpt lat="44.94538" lon="6.56073">
        <ele>1388</ele>
        <time>2020-09-15T05:54:15Z</time>
      </trkpt>
      <trkpt lat="44.94534" lon="6.56086">
        <ele>1388</ele>
        <time>2020-09-15T05:54:17Z</time>
      </trkpt>
      <trkpt lat="44.94537" lon="6.56102">
        <ele>1388</ele>
        <time>2020-09-15T05:54:19Z</time>
      </trkpt>
      <trkpt lat="44.94534" lon="6.56113">
        <ele>1388</ele>
        <time>2020-09-15T05:54:20Z</time>
      </trkpt>
      <trkpt lat="44.94498" lon="6.56221">
        <ele>1385</ele>
        <time>2020-09-15T05:54:35Z</time>
      </trkpt>
      <trkpt lat="44.9447" lon="6.56311">
        <ele>1386</ele>
        <time>2020-09-15T05:54:48Z</time>
      </trkpt>
      <trkpt lat="44.94456" lon="6.56345">
        <ele>1386</ele>
        <time>2020-09-15T05:54:53Z</time>
      </trkpt>
      <trkpt lat="44.944" lon="6.56459">
        <ele>1386</ele>
        <time>2020-09-15T05:55:10Z</time>
      </trkpt>
      <trkpt lat="44.94386" lon="6.56494">
        <ele>1386</ele>
        <time>2020-09-15T05:55:15Z</time>
      </trkpt>
      <trkpt lat="44.94366" lon="6.56545">
        <ele>1387</ele>
        <time>2020-09-15T05:55:23Z</time>
      </trkpt>
      <trkpt lat="44.94343" lon="6.56611">
        <ele>1386</ele>
        <time>2020-09-15T05:55:32Z</time>
      </trkpt>
      <trkpt lat="44.94313" lon="6.56706">
        <ele>1383</ele>
        <time>2020-09-15T05:55:45Z</time>
      </trkpt>
      <trkpt lat="44.94286" lon="6.5677">
        <ele>1383</ele>
        <time>2020-09-15T05:55:54Z</time>
      </trkpt>
      <trkpt lat="44.94264" lon="6.56813">
        <ele>1381</ele>
        <time>2020-09-15T05:56:01Z</time>
      </trkpt>
      <trkpt lat="44.94236" lon="6.56852">
        <ele>1380</ele>
        <time>2020-09-15T05:56:08Z</time>
      </trkpt>
      <trkpt lat="44.94215" lon="6.56877">
        <ele>1380</ele>
        <time>2020-09-15T05:56:13Z</time>
      </trkpt>
      <trkpt lat="44.94134" lon="6.56956">
        <ele>1379</ele>
        <time>2020-09-15T05:56:30Z</time>
      </trkpt>
      <trkpt lat="44.94122" lon="6.56967">
        <ele>1379</ele>
        <time>2020-09-15T05:56:33Z</time>
      </trkpt>
      <trkpt lat="44.94094" lon="6.56998">
        <ele>1379</ele>
        <time>2020-09-15T05:56:39Z</time>
      </trkpt>
      <trkpt lat="44.94072" lon="6.57027">
        <ele>1379</ele>
        <time>2020-09-15T05:56:45Z</time>
      </trkpt>
      <trkpt lat="44.9403" lon="6.5709">
        <ele>1378</ele>
        <time>2020-09-15T05:56:55Z</time>
      </trkpt>
      <trkpt lat="44.94012" lon="6.57123">
        <ele>1378</ele>
        <time>2020-09-15T05:57:01Z</time>
      </trkpt>
      <trkpt lat="44.93958" lon="6.57243">
        <ele>1378</ele>
        <time>2020-09-15T05:57:19Z</time>
      </trkpt>
      <trkpt lat="44.9395" lon="6.57265">
        <ele>1379</ele>
        <time>2020-09-15T05:57:22Z</time>
      </trkpt>
      <trkpt lat="44.93919" lon="6.57388">
        <ele>1379</ele>
        <time>2020-09-15T05:57:38Z</time>
      </trkpt>
      <trkpt lat="44.93859" lon="6.57614">
        <ele>1375</ele>
        <time>2020-09-15T05:58:09Z</time>
      </trkpt>
      <trkpt lat="44.93807" lon="6.57781">
        <ele>1370</ele>
        <time>2020-09-15T05:58:32Z</time>
      </trkpt>
      <trkpt lat="44.93753" lon="6.57996">
        <ele>1364</ele>
        <time>2020-09-15T05:59:00Z</time>
      </trkpt>
      <trkpt lat="44.93688" lon="6.58237">
        <ele>1359</ele>
        <time>2020-09-15T05:59:33Z</time>
      </trkpt>
      <trkpt lat="44.93669" lon="6.58291">
        <ele>1359</ele>
        <time>2020-09-15T05:59:40Z</time>
      </trkpt>
      <trkpt lat="44.93615" lon="6.58417">
        <ele>1358</ele>
        <time>2020-09-15T05:59:59Z</time>
      </trkpt>
      <trkpt lat="44.93577" lon="6.58491">
        <ele>1359</ele>
        <time>2020-09-15T06:00:10Z</time>
      </trkpt>
      <trkpt lat="44.93534" lon="6.58566">
        <ele>1362</ele>
        <time>2020-09-15T06:00:23Z</time>
      </trkpt>
      <trkpt lat="44.93468" lon="6.58689">
        <ele>1366</ele>
        <time>2020-09-15T06:00:42Z</time>
      </trkpt>
      <trkpt lat="44.93432" lon="6.5875">
        <ele>1368</ele>
        <time>2020-09-15T06:00:52Z</time>
      </trkpt>
      <trkpt lat="44.93429" lon="6.58755">
        <ele>1368</ele>
        <time>2020-09-15T06:00:53Z</time>
      </trkpt>
      <trkpt lat="44.93428" lon="6.58756">
        <ele>1368</ele>
        <time>2020-09-15T06:00:53Z</time>
      </trkpt>
      <trkpt lat="44.93385" lon="6.58823">
        <ele>1369</ele>
        <time>2020-09-15T06:01:04Z</time>
      </trkpt>
      <trkpt lat="44.93376" lon="6.58837">
        <ele>1369</ele>
        <time>2020-09-15T06:01:07Z</time>
      </trkpt>
      <trkpt lat="44.93319" lon="6.58918">
        <ele>1369</ele>
        <time>2020-09-15T06:01:21Z</time>
      </trkpt>
      <trkpt lat="44.93317" lon="6.5892">
        <ele>1369</ele>
        <time>2020-09-15T06:01:22Z</time>
      </trkpt>
      <trkpt lat="44.9331" lon="6.58931">
        <ele>1369</ele>
        <time>2020-09-15T06:01:24Z</time>
      </trkpt>
      <trkpt lat="44.93281" lon="6.58973">
        <ele>1369</ele>
        <time>2020-09-15T06:01:31Z</time>
      </trkpt>
      <trkpt lat="44.93258" lon="6.59009">
        <ele>1369</ele>
        <time>2020-09-15T06:01:37Z</time>
      </trkpt>
      <trkpt lat="44.93248" lon="6.59025">
        <ele>1369</ele>
        <time>2020-09-15T06:01:40Z</time>
      </trkpt>
      <trkpt lat="44.93239" lon="6.59041">
        <ele>1369</ele>
        <time>2020-09-15T06:01:42Z</time>
      </trkpt>
      <trkpt lat="44.93218" lon="6.59077">
        <ele>1369</ele>
        <time>2020-09-15T06:01:48Z</time>
      </trkpt>
      <trkpt lat="44.93197" lon="6.59111">
        <ele>1368</ele>
        <time>2020-09-15T06:01:54Z</time>
      </trkpt>
      <trkpt lat="44.9318" lon="6.59139">
        <ele>1367</ele>
        <time>2020-09-15T06:01:59Z</time>
      </trkpt>
      <trkpt lat="44.93153" lon="6.59186">
        <ele>1365</ele>
        <time>2020-09-15T06:02:06Z</time>
      </trkpt>
      <trkpt lat="44.93079" lon="6.59305">
        <ele>1359</ele>
        <time>2020-09-15T06:02:26Z</time>
      </trkpt>
      <trkpt lat="44.93067" lon="6.59316">
        <ele>1358</ele>
        <time>2020-09-15T06:02:29Z</time>
      </trkpt>
      <trkpt lat="44.93061" lon="6.59321">
        <ele>1358</ele>
        <time>2020-09-15T06:02:30Z</time>
      </trkpt>
      <trkpt lat="44.93054" lon="6.59326">
        <ele>1357</ele>
        <time>2020-09-15T06:02:31Z</time>
      </trkpt>
      <trkpt lat="44.93051" lon="6.59327">
        <ele>1356</ele>
        <time>2020-09-15T06:02:32Z</time>
      </trkpt>
      <trkpt lat="44.93046" lon="6.59333">
        <ele>1356</ele>
        <time>2020-09-15T06:02:33Z</time>
      </trkpt>
      <trkpt lat="44.93045" lon="6.59346">
        <ele>1356</ele>
        <time>2020-09-15T06:02:35Z</time>
      </trkpt>
      <trkpt lat="44.9305" lon="6.59356">
        <ele>1357</ele>
        <time>2020-09-15T06:02:36Z</time>
      </trkpt>
      <trkpt lat="44.93057" lon="6.59358">
        <ele>1358</ele>
        <time>2020-09-15T06:02:37Z</time>
      </trkpt>
      <trkpt lat="44.93062" lon="6.59363">
        <ele>1359</ele>
        <time>2020-09-15T06:02:39Z</time>
      </trkpt>
      <trkpt lat="44.93065" lon="6.59375">
        <ele>1359</ele>
        <time>2020-09-15T06:02:40Z</time>
      </trkpt>
      <trkpt lat="44.9306" lon="6.59409">
        <ele>1360</ele>
        <time>2020-09-15T06:02:45Z</time>
      </trkpt>
      <trkpt lat="44.93053" lon="6.5946">
        <ele>1361</ele>
        <time>2020-09-15T06:02:51Z</time>
      </trkpt>
      <trkpt lat="44.93028" lon="6.59639">
        <ele>1366</ele>
        <time>2020-09-15T06:03:14Z</time>
      </trkpt>
      <trkpt lat="44.93021" lon="6.59667">
        <ele>1367</ele>
        <time>2020-09-15T06:03:18Z</time>
      </trkpt>
      <trkpt lat="44.93018" lon="6.59672">
        <ele>1367</ele>
        <time>2020-09-15T06:03:19Z</time>
      </trkpt>
      <trkpt lat="44.93017" lon="6.59674">
        <ele>1367</ele>
        <time>2020-09-15T06:03:19Z</time>
      </trkpt>
      <trkpt lat="44.93016" lon="6.59678">
        <ele>1367</ele>
        <time>2020-09-15T06:03:19Z</time>
      </trkpt>
      <trkpt lat="44.93008" lon="6.59696">
        <ele>1367</ele>
        <time>2020-09-15T06:03:22Z</time>
      </trkpt>
      <trkpt lat="44.92997" lon="6.59715">
        <ele>1367</ele>
        <time>2020-09-15T06:03:25Z</time>
      </trkpt>
      <trkpt lat="44.92989" lon="6.59729">
        <ele>1367</ele>
        <time>2020-09-15T06:03:27Z</time>
      </trkpt>
      <trkpt lat="44.9298" lon="6.59746">
        <ele>1366</ele>
        <time>2020-09-15T06:03:30Z</time>
      </trkpt>
      <trkpt lat="44.92971" lon="6.59761">
        <ele>1367</ele>
        <time>2020-09-15T06:03:33Z</time>
      </trkpt>
      <trkpt lat="44.92945" lon="6.59802">
        <ele>1367</ele>
        <time>2020-09-15T06:03:40Z</time>
      </trkpt>
      <trkpt lat="44.92915" lon="6.59855">
        <ele>1366</ele>
        <time>2020-09-15T06:03:48Z</time>
      </trkpt>
      <trkpt lat="44.92905" lon="6.59879">
        <ele>1365</ele>
        <time>2020-09-15T06:03:52Z</time>
      </trkpt>
      <trkpt lat="44.92894" lon="6.59919">
        <ele>1366</ele>
        <time>2020-09-15T06:03:57Z</time>
      </trkpt>
      <trkpt lat="44.92881" lon="6.5997">
        <ele>1365</ele>
        <time>2020-09-15T06:04:04Z</time>
      </trkpt>
      <trkpt lat="44.92866" lon="6.60031">
        <ele>1365</ele>
        <time>2020-09-15T06:04:12Z</time>
      </trkpt>
      <trkpt lat="44.92852" lon="6.60078">
        <ele>1365</ele>
        <time>2020-09-15T06:04:18Z</time>
      </trkpt>
      <trkpt lat="44.92803" lon="6.60254">
        <ele>1361</ele>
        <time>2020-09-15T06:04:42Z</time>
      </trkpt>
      <trkpt lat="44.92795" lon="6.60288">
        <ele>1359</ele>
        <time>2020-09-15T06:04:47Z</time>
      </trkpt>
      <trkpt lat="44.92784" lon="6.60347">
        <ele>1356</ele>
        <time>2020-09-15T06:04:54Z</time>
      </trkpt>
      <trkpt lat="44.92781" lon="6.60505">
        <ele>1356</ele>
        <time>2020-09-15T06:05:14Z</time>
      </trkpt>
      <trkpt lat="44.92779" lon="6.60537">
        <ele>1357</ele>
        <time>2020-09-15T06:05:18Z</time>
      </trkpt>
      <trkpt lat="44.92776" lon="6.60563">
        <ele>1358</ele>
        <time>2020-09-15T06:05:22Z</time>
      </trkpt>
      <trkpt lat="44.9277" lon="6.60587">
        <ele>1359</ele>
        <time>2020-09-15T06:05:25Z</time>
      </trkpt>
      <trkpt lat="44.9276" lon="6.6061">
        <ele>1360</ele>
        <time>2020-09-15T06:05:28Z</time>
      </trkpt>
      <trkpt lat="44.9275" lon="6.60626">
        <ele>1360</ele>
        <time>2020-09-15T06:05:31Z</time>
      </trkpt>
      <trkpt lat="44.92731" lon="6.60648">
        <ele>1360</ele>
        <time>2020-09-15T06:05:35Z</time>
      </trkpt>
      <trkpt lat="44.92719" lon="6.60657">
        <ele>1360</ele>
        <time>2020-09-15T06:05:38Z</time>
      </trkpt>
      <trkpt lat="44.92604" lon="6.6074">
        <ele>1355</ele>
        <time>2020-09-15T06:06:01Z</time>
      </trkpt>
      <trkpt lat="44.92577" lon="6.60755">
        <ele>1354</ele>
        <time>2020-09-15T06:06:06Z</time>
      </trkpt>
      <trkpt lat="44.92571" lon="6.60758">
        <ele>1354</ele>
        <time>2020-09-15T06:06:07Z</time>
      </trkpt>
      <trkpt lat="44.92566" lon="6.60762">
        <ele>1353</ele>
        <time>2020-09-15T06:06:08Z</time>
      </trkpt>
      <trkpt lat="44.92559" lon="6.60768">
        <ele>1353</ele>
        <time>2020-09-15T06:06:10Z</time>
      </trkpt>
      <trkpt lat="44.92552" lon="6.60772">
        <ele>1353</ele>
        <time>2020-09-15T06:06:11Z</time>
      </trkpt>
      <trkpt lat="44.92527" lon="6.60787">
        <ele>1351</ele>
        <time>2020-09-15T06:06:16Z</time>
      </trkpt>
      <trkpt lat="44.92523" lon="6.6079">
        <ele>1351</ele>
        <time>2020-09-15T06:06:17Z</time>
      </trkpt>
      <trkpt lat="44.92514" lon="6.60798">
        <ele>1351</ele>
        <time>2020-09-15T06:06:18Z</time>
      </trkpt>
      <trkpt lat="44.92501" lon="6.60814">
        <ele>1350</ele>
        <time>2020-09-15T06:06:22Z</time>
      </trkpt>
      <trkpt lat="44.92497" lon="6.6082">
        <ele>1350</ele>
        <time>2020-09-15T06:06:23Z</time>
      </trkpt>
      <trkpt lat="44.9249" lon="6.6083">
        <ele>1350</ele>
        <time>2020-09-15T06:06:24Z</time>
      </trkpt>
      <trkpt lat="44.9247" lon="6.60861">
        <ele>1351</ele>
        <time>2020-09-15T06:06:30Z</time>
      </trkpt>
      <trkpt lat="44.92435" lon="6.60917">
        <ele>1349</ele>
        <time>2020-09-15T06:06:39Z</time>
      </trkpt>
      <trkpt lat="44.92426" lon="6.60931">
        <ele>1348</ele>
        <time>2020-09-15T06:06:41Z</time>
      </trkpt>
      <trkpt lat="44.92401" lon="6.60967">
        <ele>1345</ele>
        <time>2020-09-15T06:06:48Z</time>
      </trkpt>
      <trkpt lat="44.9235" lon="6.61042">
        <ele>1341</ele>
        <time>2020-09-15T06:07:01Z</time>
      </trkpt>
      <trkpt lat="44.92339" lon="6.61059">
        <ele>1340</ele>
        <time>2020-09-15T06:07:04Z</time>
      </trkpt>
      <trkpt lat="44.92316" lon="6.61096">
        <ele>1339</ele>
        <time>2020-09-15T06:07:10Z</time>
      </trkpt>
      <trkpt lat="44.92289" lon="6.61151">
        <ele>1338</ele>
        <time>2020-09-15T06:07:18Z</time>
      </trkpt>
      <trkpt lat="44.92283" lon="6.61165">
        <ele>1338</ele>
        <time>2020-09-15T06:07:20Z</time>
      </trkpt>
      <trkpt lat="44.9228" lon="6.61173">
        <ele>1338</ele>
        <time>2020-09-15T06:07:22Z</time>
      </trkpt>
      <trkpt lat="44.92277" lon="6.61181">
        <ele>1338</ele>
        <time>2020-09-15T06:07:23Z</time>
      </trkpt>
      <trkpt lat="44.92277" lon="6.61192">
        <ele>1338</ele>
        <time>2020-09-15T06:07:24Z</time>
      </trkpt>
      <trkpt lat="44.92274" lon="6.61198">
        <ele>1338</ele>
        <time>2020-09-15T06:07:25Z</time>
      </trkpt>
      <trkpt lat="44.92271" lon="6.61202">
        <ele>1338</ele>
        <time>2020-09-15T06:07:26Z</time>
      </trkpt>
      <trkpt lat="44.92264" lon="6.61206">
        <ele>1337</ele>
        <time>2020-09-15T06:07:27Z</time>
      </trkpt>
      <trkpt lat="44.9226" lon="6.61205">
        <ele>1336</ele>
        <time>2020-09-15T06:07:28Z</time>
      </trkpt>
      <trkpt lat="44.92252" lon="6.61197">
        <ele>1335</ele>
        <time>2020-09-15T06:07:30Z</time>
      </trkpt>
      <trkpt lat="44.92243" lon="6.61196">
        <ele>1334</ele>
        <time>2020-09-15T06:07:31Z</time>
      </trkpt>
      <trkpt lat="44.92234" lon="6.61202">
        <ele>1332</ele>
        <time>2020-09-15T06:07:33Z</time>
      </trkpt>
      <trkpt lat="44.92228" lon="6.61214">
        <ele>1332</ele>
        <time>2020-09-15T06:07:35Z</time>
      </trkpt>
      <trkpt lat="44.92228" lon="6.61228">
        <ele>1332</ele>
        <time>2020-09-15T06:07:37Z</time>
      </trkpt>
      <trkpt lat="44.9223" lon="6.61235">
        <ele>1333</ele>
        <time>2020-09-15T06:07:38Z</time>
      </trkpt>
      <trkpt lat="44.92221" lon="6.61247">
        <ele>1331</ele>
        <time>2020-09-15T06:07:40Z</time>
      </trkpt>
      <trkpt lat="44.92213" lon="6.61289">
        <ele>1329</ele>
        <time>2020-09-15T06:07:45Z</time>
      </trkpt>
      <trkpt lat="44.92191" lon="6.61347">
        <ele>1325</ele>
        <time>2020-09-15T06:07:53Z</time>
      </trkpt>
      <trkpt lat="44.9212" lon="6.6144">
        <ele>1316</ele>
        <time>2020-09-15T06:08:11Z</time>
      </trkpt>
      <trkpt lat="44.9205" lon="6.61526">
        <ele>1311</ele>
        <time>2020-09-15T06:08:27Z</time>
      </trkpt>
      <trkpt lat="44.92009" lon="6.61571">
        <ele>1309</ele>
        <time>2020-09-15T06:08:36Z</time>
      </trkpt>
      <trkpt lat="44.91995" lon="6.61592">
        <ele>1310</ele>
        <time>2020-09-15T06:08:40Z</time>
      </trkpt>
      <trkpt lat="44.91898" lon="6.61706">
        <ele>1316</ele>
        <time>2020-09-15T06:09:03Z</time>
      </trkpt>
      <trkpt lat="44.91845" lon="6.61748">
        <ele>1318</ele>
        <time>2020-09-15T06:09:13Z</time>
      </trkpt>
      <trkpt lat="44.91828" lon="6.61767">
        <ele>1319</ele>
        <time>2020-09-15T06:09:17Z</time>
      </trkpt>
      <trkpt lat="44.9181" lon="6.61788">
        <ele>1319</ele>
        <time>2020-09-15T06:09:21Z</time>
      </trkpt>
      <trkpt lat="44.91786" lon="6.61814">
        <ele>1319</ele>
        <time>2020-09-15T06:09:27Z</time>
      </trkpt>
      <trkpt lat="44.91781" lon="6.6182">
        <ele>1319</ele>
        <time>2020-09-15T06:09:28Z</time>
      </trkpt>
      <trkpt lat="44.91779" lon="6.61822">
        <ele>1319</ele>
        <time>2020-09-15T06:09:28Z</time>
      </trkpt>
      <trkpt lat="44.91778" lon="6.61823">
        <ele>1319</ele>
        <time>2020-09-15T06:09:29Z</time>
      </trkpt>
      <trkpt lat="44.91775" lon="6.61827">
        <ele>1319</ele>
        <time>2020-09-15T06:09:29Z</time>
      </trkpt>
      <trkpt lat="44.91758" lon="6.61845">
        <ele>1318</ele>
        <time>2020-09-15T06:09:33Z</time>
      </trkpt>
      <trkpt lat="44.9174" lon="6.61864">
        <ele>1316</ele>
        <time>2020-09-15T06:09:37Z</time>
      </trkpt>
      <trkpt lat="44.91727" lon="6.61881">
        <ele>1316</ele>
        <time>2020-09-15T06:09:40Z</time>
      </trkpt>
      <trkpt lat="44.91724" lon="6.61892">
        <ele>1316</ele>
        <time>2020-09-15T06:09:42Z</time>
      </trkpt>
      <trkpt lat="44.91721" lon="6.61902">
        <ele>1316</ele>
        <time>2020-09-15T06:09:43Z</time>
      </trkpt>
      <trkpt lat="44.91719" lon="6.61907">
        <ele>1316</ele>
        <time>2020-09-15T06:09:44Z</time>
      </trkpt>
      <trkpt lat="44.91707" lon="6.61947">
        <ele>1315</ele>
        <time>2020-09-15T06:09:49Z</time>
      </trkpt>
      <trkpt lat="44.91697" lon="6.61977">
        <ele>1313</ele>
        <time>2020-09-15T06:09:53Z</time>
      </trkpt>
      <trkpt lat="44.91691" lon="6.61978">
        <ele>1313</ele>
        <time>2020-09-15T06:09:55Z</time>
      </trkpt>
      <trkpt lat="44.91688" lon="6.61983">
        <ele>1312</ele>
        <time>2020-09-15T06:09:55Z</time>
      </trkpt>
      <trkpt lat="44.91689" lon="6.61989">
        <ele>1312</ele>
        <time>2020-09-15T06:09:56Z</time>
      </trkpt>
      <trkpt lat="44.91624" lon="6.62064">
        <ele>1308</ele>
        <time>2020-09-15T06:10:11Z</time>
      </trkpt>
      <trkpt lat="44.91618" lon="6.62073">
        <ele>1308</ele>
        <time>2020-09-15T06:10:13Z</time>
      </trkpt>
      <trkpt lat="44.91608" lon="6.62118">
        <ele>1312</ele>
        <time>2020-09-15T06:10:19Z</time>
      </trkpt>
      <trkpt lat="44.91601" lon="6.62142">
        <ele>1315</ele>
        <time>2020-09-15T06:10:22Z</time>
      </trkpt>
      <trkpt lat="44.91579" lon="6.62173">
        <ele>1318</ele>
        <time>2020-09-15T06:10:27Z</time>
      </trkpt>
      <trkpt lat="44.91537" lon="6.62224">
        <ele>1321</ele>
        <time>2020-09-15T06:10:37Z</time>
      </trkpt>
      <trkpt lat="44.91514" lon="6.62247">
        <ele>1322</ele>
        <time>2020-09-15T06:10:42Z</time>
      </trkpt>
      <trkpt lat="44.91469" lon="6.62285">
        <ele>1321</ele>
        <time>2020-09-15T06:10:52Z</time>
      </trkpt>
      <trkpt lat="44.91464" lon="6.62292">
        <ele>1322</ele>
        <time>2020-09-15T06:10:53Z</time>
      </trkpt>
      <trkpt lat="44.91462" lon="6.62302">
        <ele>1322</ele>
        <time>2020-09-15T06:10:54Z</time>
      </trkpt>
      <trkpt lat="44.91357" lon="6.62336">
        <ele>1314</ele>
        <time>2020-09-15T06:11:13Z</time>
      </trkpt>
      <trkpt lat="44.91309" lon="6.62384">
        <ele>1315</ele>
        <time>2020-09-15T06:11:24Z</time>
      </trkpt>
      <trkpt lat="44.91288" lon="6.62398">
        <ele>1314</ele>
        <time>2020-09-15T06:11:28Z</time>
      </trkpt>
      <trkpt lat="44.91273" lon="6.62401">
        <ele>1313</ele>
        <time>2020-09-15T06:11:31Z</time>
      </trkpt>
      <trkpt lat="44.91256" lon="6.62401">
        <ele>1312</ele>
        <time>2020-09-15T06:11:34Z</time>
      </trkpt>
      <trkpt lat="44.9122" lon="6.62396">
        <ele>1308</ele>
        <time>2020-09-15T06:11:40Z</time>
      </trkpt>
      <trkpt lat="44.91195" lon="6.62399">
        <ele>1306</ele>
        <time>2020-09-15T06:11:45Z</time>
      </trkpt>
      <trkpt lat="44.91175" lon="6.62407">
        <ele>1305</ele>
        <time>2020-09-15T06:11:48Z</time>
      </trkpt>
      <trkpt lat="44.91164" lon="6.62407">
        <ele>1304</ele>
        <time>2020-09-15T06:11:50Z</time>
      </trkpt>
      <trkpt lat="44.91121" lon="6.62422">
        <ele>1296</ele>
        <time>2020-09-15T06:11:58Z</time>
      </trkpt>
      <trkpt lat="44.9111" lon="6.62433">
        <ele>1295</ele>
        <time>2020-09-15T06:12:00Z</time>
      </trkpt>
      <trkpt lat="44.91072" lon="6.62492">
        <ele>1296</ele>
        <time>2020-09-15T06:12:11Z</time>
      </trkpt>
      <trkpt lat="44.91052" lon="6.62518">
        <ele>1295</ele>
        <time>2020-09-15T06:12:15Z</time>
      </trkpt>
      <trkpt lat="44.90997" lon="6.62588">
        <ele>1294</ele>
        <time>2020-09-15T06:12:29Z</time>
      </trkpt>
      <trkpt lat="44.90975" lon="6.62608">
        <ele>1292</ele>
        <time>2020-09-15T06:12:33Z</time>
      </trkpt>
      <trkpt lat="44.90797" lon="6.6274">
        <ele>1284</ele>
        <time>2020-09-15T06:13:09Z</time>
      </trkpt>
      <trkpt lat="44.90785" lon="6.62748">
        <ele>1283</ele>
        <time>2020-09-15T06:13:11Z</time>
      </trkpt>
      <trkpt lat="44.90771" lon="6.62754">
        <ele>1283</ele>
        <time>2020-09-15T06:13:14Z</time>
      </trkpt>
      <trkpt lat="44.90733" lon="6.62762">
        <ele>1279</ele>
        <time>2020-09-15T06:13:21Z</time>
      </trkpt>
      <trkpt lat="44.90671" lon="6.62769">
        <ele>1271</ele>
        <time>2020-09-15T06:13:32Z</time>
      </trkpt>
      <trkpt lat="44.90638" lon="6.62778">
        <ele>1266</ele>
        <time>2020-09-15T06:13:38Z</time>
      </trkpt>
      <trkpt lat="44.90591" lon="6.62805">
        <ele>1262</ele>
        <time>2020-09-15T06:13:47Z</time>
      </trkpt>
      <trkpt lat="44.90562" lon="6.62818">
        <ele>1260</ele>
        <time>2020-09-15T06:13:52Z</time>
      </trkpt>
      <trkpt lat="44.90554" lon="6.62821">
        <ele>1260</ele>
        <time>2020-09-15T06:13:54Z</time>
      </trkpt>
      <trkpt lat="44.9055" lon="6.6282">
        <ele>1259</ele>
        <time>2020-09-15T06:13:54Z</time>
      </trkpt>
      <trkpt lat="44.90542" lon="6.62822">
        <ele>1258</ele>
        <time>2020-09-15T06:13:56Z</time>
      </trkpt>
      <trkpt lat="44.9052" lon="6.62821">
        <ele>1256</ele>
        <time>2020-09-15T06:14:00Z</time>
      </trkpt>
      <trkpt lat="44.90469" lon="6.628">
        <ele>1252</ele>
        <time>2020-09-15T06:14:09Z</time>
      </trkpt>
      <trkpt lat="44.9044" lon="6.62799">
        <ele>1252</ele>
        <time>2020-09-15T06:14:14Z</time>
      </trkpt>
      <trkpt lat="44.9043" lon="6.62801">
        <ele>1252</ele>
        <time>2020-09-15T06:14:16Z</time>
      </trkpt>
      <trkpt lat="44.90419" lon="6.62805">
        <ele>1252</ele>
        <time>2020-09-15T06:14:18Z</time>
      </trkpt>
      <trkpt lat="44.90394" lon="6.6282">
        <ele>1254</ele>
        <time>2020-09-15T06:14:23Z</time>
      </trkpt>
      <trkpt lat="44.90371" lon="6.62843">
        <ele>1255</ele>
        <time>2020-09-15T06:14:28Z</time>
      </trkpt>
      <trkpt lat="44.90361" lon="6.62858">
        <ele>1255</ele>
        <time>2020-09-15T06:14:31Z</time>
      </trkpt>
      <trkpt lat="44.90347" lon="6.62893">
        <ele>1254</ele>
        <time>2020-09-15T06:14:36Z</time>
      </trkpt>
      <trkpt lat="44.90342" lon="6.62914">
        <ele>1253</ele>
        <time>2020-09-15T06:14:39Z</time>
      </trkpt>
      <trkpt lat="44.9034" lon="6.62934">
        <ele>1253</ele>
        <time>2020-09-15T06:14:41Z</time>
      </trkpt>
      <trkpt lat="44.90342" lon="6.62991">
        <ele>1251</ele>
        <time>2020-09-15T06:14:48Z</time>
      </trkpt>
      <trkpt lat="44.9034" lon="6.63018">
        <ele>1251</ele>
        <time>2020-09-15T06:14:52Z</time>
      </trkpt>
      <trkpt lat="44.9033" lon="6.63043">
        <ele>1250</ele>
        <time>2020-09-15T06:14:55Z</time>
      </trkpt>
      <trkpt lat="44.90271" lon="6.63117">
        <ele>1245</ele>
        <time>2020-09-15T06:15:09Z</time>
      </trkpt>
      <trkpt lat="44.90269" lon="6.63125">
        <ele>1245</ele>
        <time>2020-09-15T06:15:10Z</time>
      </trkpt>
      <trkpt lat="44.90256" lon="6.63143">
        <ele>1243</ele>
        <time>2020-09-15T06:15:14Z</time>
      </trkpt>
      <trkpt lat="44.90248" lon="6.63149">
        <ele>1242</ele>
        <time>2020-09-15T06:15:15Z</time>
      </trkpt>
      <trkpt lat="44.90227" lon="6.63158">
        <ele>1240</ele>
        <time>2020-09-15T06:15:19Z</time>
      </trkpt>
      <trkpt lat="44.90213" lon="6.63157">
        <ele>1239</ele>
        <time>2020-09-15T06:15:22Z</time>
      </trkpt>
      <trkpt lat="44.9019" lon="6.63159">
        <ele>1237</ele>
        <time>2020-09-15T06:15:26Z</time>
      </trkpt>
      <trkpt lat="44.90166" lon="6.63174">
        <ele>1234</ele>
        <time>2020-09-15T06:15:30Z</time>
      </trkpt>
      <trkpt lat="44.90062" lon="6.63254">
        <ele>1225</ele>
        <time>2020-09-15T06:15:52Z</time>
      </trkpt>
      <trkpt lat="44.90021" lon="6.63173">
        <ele>1226</ele>
        <time>2020-09-15T06:16:04Z</time>
      </trkpt>
      <trkpt lat="44.90002" lon="6.63159">
        <ele>1227</ele>
        <time>2020-09-15T06:16:08Z</time>
      </trkpt>
      <trkpt lat="44.89982" lon="6.63156">
        <ele>1225</ele>
        <time>2020-09-15T06:16:11Z</time>
      </trkpt>
      <trkpt lat="44.89926" lon="6.63164">
        <ele>1220</ele>
        <time>2020-09-15T06:16:21Z</time>
      </trkpt>
      <trkpt lat="44.89887" lon="6.63159">
        <ele>1216</ele>
        <time>2020-09-15T06:16:28Z</time>
      </trkpt>
      <trkpt lat="44.89862" lon="6.63149">
        <ele>1213</ele>
        <time>2020-09-15T06:16:33Z</time>
      </trkpt>
      <trkpt lat="44.89754" lon="6.63098">
        <ele>1208</ele>
        <time>2020-09-15T06:16:53Z</time>
      </trkpt>
      <trkpt lat="44.89744" lon="6.63095">
        <ele>1208</ele>
        <time>2020-09-15T06:16:55Z</time>
      </trkpt>
      <trkpt lat="44.89735" lon="6.63094">
        <ele>1209</ele>
        <time>2020-09-15T06:16:57Z</time>
      </trkpt>
      <trkpt lat="44.89721" lon="6.63098">
        <ele>1209</ele>
        <time>2020-09-15T06:16:59Z</time>
      </trkpt>
      <trkpt lat="44.89539" lon="6.63153">
        <ele>1208</ele>
        <time>2020-09-15T06:17:32Z</time>
      </trkpt>
      <trkpt lat="44.89534" lon="6.63142">
        <ele>1208</ele>
        <time>2020-09-15T06:17:34Z</time>
      </trkpt>
      <trkpt lat="44.8952" lon="6.63106">
        <ele>1207</ele>
        <time>2020-09-15T06:17:39Z</time>
      </trkpt>
      <trkpt lat="44.89514" lon="6.63087">
        <ele>1206</ele>
        <time>2020-09-15T06:17:42Z</time>
      </trkpt>
      <trkpt lat="44.89509" lon="6.63073">
        <ele>1207</ele>
        <time>2020-09-15T06:17:44Z</time>
      </trkpt>
      <trkpt lat="44.89503" lon="6.63057">
        <ele>1208</ele>
        <time>2020-09-15T06:17:46Z</time>
      </trkpt>
      <trkpt lat="44.89497" lon="6.63047">
        <ele>1208</ele>
        <time>2020-09-15T06:17:48Z</time>
      </trkpt>
      <trkpt lat="44.89493" lon="6.6304">
        <ele>1208</ele>
        <time>2020-09-15T06:17:49Z</time>
      </trkpt>
      <trkpt lat="44.89488" lon="6.63035">
        <ele>1208</ele>
        <time>2020-09-15T06:17:50Z</time>
      </trkpt>
      <trkpt lat="44.89483" lon="6.6303">
        <ele>1209</ele>
        <time>2020-09-15T06:17:51Z</time>
      </trkpt>
      <trkpt lat="44.89473" lon="6.63018">
        <ele>1209</ele>
        <time>2020-09-15T06:17:53Z</time>
      </trkpt>
      <trkpt lat="44.89471" lon="6.63012">
        <ele>1209</ele>
        <time>2020-09-15T06:17:54Z</time>
      </trkpt>
      <trkpt lat="44.89466" lon="6.63014">
        <ele>1209</ele>
        <time>2020-09-15T06:17:55Z</time>
      </trkpt>
      <trkpt lat="44.89446" lon="6.63013">
        <ele>1208</ele>
        <time>2020-09-15T06:17:59Z</time>
      </trkpt>
      <trkpt lat="44.89433" lon="6.63009">
        <ele>1208</ele>
        <time>2020-09-15T06:18:01Z</time>
      </trkpt>
      <trkpt lat="44.89233" lon="6.62934">
        <ele>1206</ele>
        <time>2020-09-15T06:18:38Z</time>
      </trkpt>
      <trkpt lat="44.89207" lon="6.62923">
        <ele>1204</ele>
        <time>2020-09-15T06:18:43Z</time>
      </trkpt>
      <trkpt lat="44.89192" lon="6.62913">
        <ele>1204</ele>
        <time>2020-09-15T06:18:46Z</time>
      </trkpt>
      <trkpt lat="44.89137" lon="6.62868">
        <ele>1204</ele>
        <time>2020-09-15T06:18:57Z</time>
      </trkpt>
      <trkpt lat="44.89105" lon="6.62839">
        <ele>1202</ele>
        <time>2020-09-15T06:19:04Z</time>
      </trkpt>
      <trkpt lat="44.88975" lon="6.62709">
        <ele>1204</ele>
        <time>2020-09-15T06:19:32Z</time>
      </trkpt>
      <trkpt lat="44.88945" lon="6.62687">
        <ele>1204</ele>
        <time>2020-09-15T06:19:38Z</time>
      </trkpt>
      <trkpt lat="44.88805" lon="6.62604">
        <ele>1200</ele>
        <time>2020-09-15T06:20:05Z</time>
      </trkpt>
      <trkpt lat="44.88762" lon="6.62576">
        <ele>1197</ele>
        <time>2020-09-15T06:20:14Z</time>
      </trkpt>
      <trkpt lat="44.88748" lon="6.62565">
        <ele>1197</ele>
        <time>2020-09-15T06:20:16Z</time>
      </trkpt>
      <trkpt lat="44.88691" lon="6.6251">
        <ele>1198</ele>
        <time>2020-09-15T06:20:29Z</time>
      </trkpt>
      <trkpt lat="44.88653" lon="6.62477">
        <ele>1198</ele>
        <time>2020-09-15T06:20:37Z</time>
      </trkpt>
      <trkpt lat="44.88459" lon="6.62314">
        <ele>1196</ele>
        <time>2020-09-15T06:21:17Z</time>
      </trkpt>
      <trkpt lat="44.88254" lon="6.62166">
        <ele>1191</ele>
        <time>2020-09-15T06:21:58Z</time>
      </trkpt>
      <trkpt lat="44.88162" lon="6.62108">
        <ele>1188</ele>
        <time>2020-09-15T06:22:16Z</time>
      </trkpt>
      <trkpt lat="44.88137" lon="6.62082">
        <ele>1187</ele>
        <time>2020-09-15T06:22:21Z</time>
      </trkpt>
      <trkpt lat="44.88133" lon="6.6207">
        <ele>1187</ele>
        <time>2020-09-15T06:22:23Z</time>
      </trkpt>
      <trkpt lat="44.88135" lon="6.62064">
        <ele>1188</ele>
        <time>2020-09-15T06:22:24Z</time>
      </trkpt>
      <trkpt lat="44.88136" lon="6.62049">
        <ele>1188</ele>
        <time>2020-09-15T06:22:26Z</time>
      </trkpt>
      <trkpt lat="44.88134" lon="6.62035">
        <ele>1189</ele>
        <time>2020-09-15T06:22:27Z</time>
      </trkpt>
      <trkpt lat="44.88131" lon="6.6203">
        <ele>1189</ele>
        <time>2020-09-15T06:22:28Z</time>
      </trkpt>
      <trkpt lat="44.88128" lon="6.62025">
        <ele>1189</ele>
        <time>2020-09-15T06:22:29Z</time>
      </trkpt>
      <trkpt lat="44.88117" lon="6.6201">
        <ele>1188</ele>
        <time>2020-09-15T06:22:32Z</time>
      </trkpt>
      <trkpt lat="44.88111" lon="6.62">
        <ele>1187</ele>
        <time>2020-09-15T06:22:34Z</time>
      </trkpt>
      <trkpt lat="44.88103" lon="6.61985">
        <ele>1187</ele>
        <time>2020-09-15T06:22:36Z</time>
      </trkpt>
      <trkpt lat="44.88091" lon="6.61958">
        <ele>1186</ele>
        <time>2020-09-15T06:22:40Z</time>
      </trkpt>
      <trkpt lat="44.88085" lon="6.61942">
        <ele>1185</ele>
        <time>2020-09-15T06:22:42Z</time>
      </trkpt>
      <trkpt lat="44.88075" lon="6.61914">
        <ele>1185</ele>
        <time>2020-09-15T06:22:46Z</time>
      </trkpt>
      <trkpt lat="44.88073" lon="6.61909">
        <ele>1185</ele>
        <time>2020-09-15T06:22:47Z</time>
      </trkpt>
      <trkpt lat="44.88064" lon="6.61888">
        <ele>1185</ele>
        <time>2020-09-15T06:22:50Z</time>
      </trkpt>
      <trkpt lat="44.88054" lon="6.61864">
        <ele>1186</ele>
        <time>2020-09-15T06:22:53Z</time>
      </trkpt>
      <trkpt lat="44.88052" lon="6.61861">
        <ele>1186</ele>
        <time>2020-09-15T06:22:54Z</time>
      </trkpt>
      <trkpt lat="44.8805" lon="6.61856">
        <ele>1186</ele>
        <time>2020-09-15T06:22:55Z</time>
      </trkpt>
      <trkpt lat="44.88048" lon="6.61853">
        <ele>1186</ele>
        <time>2020-09-15T06:22:55Z</time>
      </trkpt>
      <trkpt lat="44.88041" lon="6.61844">
        <ele>1186</ele>
        <time>2020-09-15T06:22:57Z</time>
      </trkpt>
      <trkpt lat="44.88038" lon="6.61839">
        <ele>1187</ele>
        <time>2020-09-15T06:22:58Z</time>
      </trkpt>
      <trkpt lat="44.88034" lon="6.61833">
        <ele>1187</ele>
        <time>2020-09-15T06:22:59Z</time>
      </trkpt>
      <trkpt lat="44.88029" lon="6.61827">
        <ele>1187</ele>
        <time>2020-09-15T06:23:00Z</time>
      </trkpt>
      <trkpt lat="44.88023" lon="6.61819">
        <ele>1187</ele>
        <time>2020-09-15T06:23:01Z</time>
      </trkpt>
      <trkpt lat="44.88018" lon="6.6181">
        <ele>1187</ele>
        <time>2020-09-15T06:23:03Z</time>
      </trkpt>
      <trkpt lat="44.88015" lon="6.61806">
        <ele>1187</ele>
        <time>2020-09-15T06:23:04Z</time>
      </trkpt>
      <trkpt lat="44.88007" lon="6.61795">
        <ele>1187</ele>
        <time>2020-09-15T06:23:06Z</time>
      </trkpt>
      <trkpt lat="44.88004" lon="6.61792">
        <ele>1187</ele>
        <time>2020-09-15T06:23:06Z</time>
      </trkpt>
      <trkpt lat="44.87995" lon="6.61779">
        <ele>1187</ele>
        <time>2020-09-15T06:23:09Z</time>
      </trkpt>
      <trkpt lat="44.87991" lon="6.61774">
        <ele>1187</ele>
        <time>2020-09-15T06:23:09Z</time>
      </trkpt>
      <trkpt lat="44.8798" lon="6.61761">
        <ele>1186</ele>
        <time>2020-09-15T06:23:12Z</time>
      </trkpt>
      <trkpt lat="44.87973" lon="6.61753">
        <ele>1186</ele>
        <time>2020-09-15T06:23:14Z</time>
      </trkpt>
      <trkpt lat="44.87966" lon="6.61746">
        <ele>1186</ele>
        <time>2020-09-15T06:23:15Z</time>
      </trkpt>
      <trkpt lat="44.87949" lon="6.61729">
        <ele>1186</ele>
        <time>2020-09-15T06:23:19Z</time>
      </trkpt>
      <trkpt lat="44.87935" lon="6.61716">
        <ele>1185</ele>
        <time>2020-09-15T06:23:22Z</time>
      </trkpt>
      <trkpt lat="44.87894" lon="6.61677">
        <ele>1184</ele>
        <time>2020-09-15T06:23:31Z</time>
      </trkpt>
      <trkpt lat="44.8787" lon="6.61654">
        <ele>1185</ele>
        <time>2020-09-15T06:23:36Z</time>
      </trkpt>
      <trkpt lat="44.87862" lon="6.61646">
        <ele>1186</ele>
        <time>2020-09-15T06:23:38Z</time>
      </trkpt>
      <trkpt lat="44.87849" lon="6.61634">
        <ele>1186</ele>
        <time>2020-09-15T06:23:40Z</time>
      </trkpt>
      <trkpt lat="44.87812" lon="6.61599">
        <ele>1187</ele>
        <time>2020-09-15T06:23:48Z</time>
      </trkpt>
      <trkpt lat="44.87806" lon="6.61594">
        <ele>1187</ele>
        <time>2020-09-15T06:23:49Z</time>
      </trkpt>
      <trkpt lat="44.87803" lon="6.61591">
        <ele>1187</ele>
        <time>2020-09-15T06:23:50Z</time>
      </trkpt>
      <trkpt lat="44.87796" lon="6.61584">
        <ele>1187</ele>
        <time>2020-09-15T06:23:52Z</time>
      </trkpt>
      <trkpt lat="44.87794" lon="6.61582">
        <ele>1187</ele>
        <time>2020-09-15T06:23:52Z</time>
      </trkpt>
      <trkpt lat="44.87786" lon="6.61574">
        <ele>1187</ele>
        <time>2020-09-15T06:23:54Z</time>
      </trkpt>
      <trkpt lat="44.87778" lon="6.61566">
        <ele>1188</ele>
        <time>2020-09-15T06:23:56Z</time>
      </trkpt>
      <trkpt lat="44.87768" lon="6.61556">
        <ele>1188</ele>
        <time>2020-09-15T06:23:58Z</time>
      </trkpt>
      <trkpt lat="44.8772" lon="6.61509">
        <ele>1188</ele>
        <time>2020-09-15T06:24:08Z</time>
      </trkpt>
      <trkpt lat="44.87717" lon="6.61506">
        <ele>1188</ele>
        <time>2020-09-15T06:24:09Z</time>
      </trkpt>
      <trkpt lat="44.87699" lon="6.61487">
        <ele>1188</ele>
        <time>2020-09-15T06:24:13Z</time>
      </trkpt>
      <trkpt lat="44.87697" lon="6.61486">
        <ele>1188</ele>
        <time>2020-09-15T06:24:13Z</time>
      </trkpt>
      <trkpt lat="44.87678" lon="6.61468">
        <ele>1188</ele>
        <time>2020-09-15T06:24:17Z</time>
      </trkpt>
      <trkpt lat="44.87634" lon="6.61426">
        <ele>1187</ele>
        <time>2020-09-15T06:24:27Z</time>
      </trkpt>
      <trkpt lat="44.87629" lon="6.61422">
        <ele>1187</ele>
        <time>2020-09-15T06:24:28Z</time>
      </trkpt>
      <trkpt lat="44.87626" lon="6.6142">
        <ele>1187</ele>
        <time>2020-09-15T06:24:28Z</time>
      </trkpt>
      <trkpt lat="44.87616" lon="6.6141">
        <ele>1186</ele>
        <time>2020-09-15T06:24:31Z</time>
      </trkpt>
      <trkpt lat="44.87606" lon="6.61402">
        <ele>1186</ele>
        <time>2020-09-15T06:24:33Z</time>
      </trkpt>
      <trkpt lat="44.87598" lon="6.61394">
        <ele>1185</ele>
        <time>2020-09-15T06:24:34Z</time>
      </trkpt>
      <trkpt lat="44.87592" lon="6.61388">
        <ele>1185</ele>
        <time>2020-09-15T06:24:36Z</time>
      </trkpt>
      <trkpt lat="44.8759" lon="6.61386">
        <ele>1185</ele>
        <time>2020-09-15T06:24:36Z</time>
      </trkpt>
      <trkpt lat="44.8759" lon="6.61386">
        <ele>1185</ele>
        <time>2020-09-15T06:24:36Z</time>
      </trkpt>
      <trkpt lat="44.87585" lon="6.61381">
        <ele>1185</ele>
        <time>2020-09-15T06:24:37Z</time>
      </trkpt>
      <trkpt lat="44.87573" lon="6.61368">
        <ele>1185</ele>
        <time>2020-09-15T06:24:40Z</time>
      </trkpt>
      <trkpt lat="44.87569" lon="6.61364">
        <ele>1185</ele>
        <time>2020-09-15T06:24:41Z</time>
      </trkpt>
      <trkpt lat="44.8756" lon="6.61353">
        <ele>1185</ele>
        <time>2020-09-15T06:24:43Z</time>
      </trkpt>
      <trkpt lat="44.87545" lon="6.61334">
        <ele>1185</ele>
        <time>2020-09-15T06:24:46Z</time>
      </trkpt>
      <trkpt lat="44.87535" lon="6.61322">
        <ele>1185</ele>
        <time>2020-09-15T06:24:49Z</time>
      </trkpt>
      <trkpt lat="44.87521" lon="6.61307">
        <ele>1185</ele>
        <time>2020-09-15T06:24:52Z</time>
      </trkpt>
      <trkpt lat="44.87485" lon="6.61276">
        <ele>1182</ele>
        <time>2020-09-15T06:24:59Z</time>
      </trkpt>
      <trkpt lat="44.87461" lon="6.61249">
        <ele>1181</ele>
        <time>2020-09-15T06:25:05Z</time>
      </trkpt>
      <trkpt lat="44.87441" lon="6.61226">
        <ele>1178</ele>
        <time>2020-09-15T06:25:09Z</time>
      </trkpt>
      <trkpt lat="44.87426" lon="6.61208">
        <ele>1177</ele>
        <time>2020-09-15T06:25:13Z</time>
      </trkpt>
      <trkpt lat="44.87411" lon="6.61189">
        <ele>1175</ele>
        <time>2020-09-15T06:25:17Z</time>
      </trkpt>
      <trkpt lat="44.87404" lon="6.6118">
        <ele>1175</ele>
        <time>2020-09-15T06:25:18Z</time>
      </trkpt>
      <trkpt lat="44.87395" lon="6.61167">
        <ele>1174</ele>
        <time>2020-09-15T06:25:20Z</time>
      </trkpt>
      <trkpt lat="44.87384" lon="6.6115">
        <ele>1174</ele>
        <time>2020-09-15T06:25:23Z</time>
      </trkpt>
      <trkpt lat="44.87358" lon="6.61107">
        <ele>1174</ele>
        <time>2020-09-15T06:25:31Z</time>
      </trkpt>
      <trkpt lat="44.87326" lon="6.61047">
        <ele>1173</ele>
        <time>2020-09-15T06:25:40Z</time>
      </trkpt>
      <trkpt lat="44.87315" lon="6.61028">
        <ele>1173</ele>
        <time>2020-09-15T06:25:43Z</time>
      </trkpt>
      <trkpt lat="44.87282" lon="6.60971">
        <ele>1173</ele>
        <time>2020-09-15T06:25:52Z</time>
      </trkpt>
      <trkpt lat="44.87257" lon="6.60928">
        <ele>1173</ele>
        <time>2020-09-15T06:25:59Z</time>
      </trkpt>
      <trkpt lat="44.87256" lon="6.60926">
        <ele>1173</ele>
        <time>2020-09-15T06:26:00Z</time>
      </trkpt>
      <trkpt lat="44.87252" lon="6.60921">
        <ele>1173</ele>
        <time>2020-09-15T06:26:01Z</time>
      </trkpt>
      <trkpt lat="44.87245" lon="6.60918">
        <ele>1173</ele>
        <time>2020-09-15T06:26:02Z</time>
      </trkpt>
      <trkpt lat="44.87239" lon="6.60919">
        <ele>1173</ele>
        <time>2020-09-15T06:26:03Z</time>
      </trkpt>
      <trkpt lat="44.87234" lon="6.6092">
        <ele>1173</ele>
        <time>2020-09-15T06:26:04Z</time>
      </trkpt>
      <trkpt lat="44.87217" lon="6.60926">
        <ele>1173</ele>
        <time>2020-09-15T06:26:07Z</time>
      </trkpt>
      <trkpt lat="44.87214" lon="6.60927">
        <ele>1173</ele>
        <time>2020-09-15T06:26:08Z</time>
      </trkpt>
      <trkpt lat="44.87203" lon="6.60889">
        <ele>1173</ele>
        <time>2020-09-15T06:26:13Z</time>
      </trkpt>
      <trkpt lat="44.87167" lon="6.60782">
        <ele>1170</ele>
        <time>2020-09-15T06:26:28Z</time>
      </trkpt>
      <trkpt lat="44.87145" lon="6.60729">
        <ele>1170</ele>
        <time>2020-09-15T06:26:35Z</time>
      </trkpt>
      <trkpt lat="44.8712" lon="6.60679">
        <ele>1170</ele>
        <time>2020-09-15T06:26:43Z</time>
      </trkpt>
      <trkpt lat="44.87061" lon="6.60573">
        <ele>1170</ele>
        <time>2020-09-15T06:27:00Z</time>
      </trkpt>
      <trkpt lat="44.87031" lon="6.60523">
        <ele>1170</ele>
        <time>2020-09-15T06:27:08Z</time>
      </trkpt>
      <trkpt lat="44.86936" lon="6.60337">
        <ele>1171</ele>
        <time>2020-09-15T06:27:37Z</time>
      </trkpt>
      <trkpt lat="44.86915" lon="6.60303">
        <ele>1171</ele>
        <time>2020-09-15T06:27:43Z</time>
      </trkpt>
      <trkpt lat="44.86898" lon="6.6027">
        <ele>1172</ele>
        <time>2020-09-15T06:27:48Z</time>
      </trkpt>
      <trkpt lat="44.86847" lon="6.60206">
        <ele>1174</ele>
        <time>2020-09-15T06:28:00Z</time>
      </trkpt>
      <trkpt lat="44.86834" lon="6.60193">
        <ele>1174</ele>
        <time>2020-09-15T06:28:03Z</time>
      </trkpt>
      <trkpt lat="44.86811" lon="6.6017">
        <ele>1174</ele>
        <time>2020-09-15T06:28:08Z</time>
      </trkpt>
      <trkpt lat="44.86806" lon="6.60165">
        <ele>1174</ele>
        <time>2020-09-15T06:28:09Z</time>
      </trkpt>
      <trkpt lat="44.86803" lon="6.60163">
        <ele>1173</ele>
        <time>2020-09-15T06:28:10Z</time>
      </trkpt>
      <trkpt lat="44.86792" lon="6.60154">
        <ele>1173</ele>
        <time>2020-09-15T06:28:12Z</time>
      </trkpt>
      <trkpt lat="44.86748" lon="6.60118">
        <ele>1172</ele>
        <time>2020-09-15T06:28:21Z</time>
      </trkpt>
      <trkpt lat="44.86663" lon="6.60057">
        <ele>1175</ele>
        <time>2020-09-15T06:28:38Z</time>
      </trkpt>
      <trkpt lat="44.86605" lon="6.60019">
        <ele>1177</ele>
        <time>2020-09-15T06:28:49Z</time>
      </trkpt>
      <trkpt lat="44.86581" lon="6.60002">
        <ele>1177</ele>
        <time>2020-09-15T06:28:54Z</time>
      </trkpt>
      <trkpt lat="44.86523" lon="6.59948">
        <ele>1176</ele>
        <time>2020-09-15T06:29:07Z</time>
      </trkpt>
      <trkpt lat="44.86493" lon="6.59912">
        <ele>1176</ele>
        <time>2020-09-15T06:29:14Z</time>
      </trkpt>
      <trkpt lat="44.86487" lon="6.59905">
        <ele>1176</ele>
        <time>2020-09-15T06:29:15Z</time>
      </trkpt>
      <trkpt lat="44.86476" lon="6.59889">
        <ele>1177</ele>
        <time>2020-09-15T06:29:18Z</time>
      </trkpt>
      <trkpt lat="44.86467" lon="6.59874">
        <ele>1177</ele>
        <time>2020-09-15T06:29:20Z</time>
      </trkpt>
      <trkpt lat="44.86461" lon="6.59864">
        <ele>1177</ele>
        <time>2020-09-15T06:29:22Z</time>
      </trkpt>
      <trkpt lat="44.86456" lon="6.59857">
        <ele>1177</ele>
        <time>2020-09-15T06:29:23Z</time>
      </trkpt>
      <trkpt lat="44.86423" lon="6.59796">
        <ele>1176</ele>
        <time>2020-09-15T06:29:33Z</time>
      </trkpt>
      <trkpt lat="44.86419" lon="6.59784">
        <ele>1176</ele>
        <time>2020-09-15T06:29:35Z</time>
      </trkpt>
      <trkpt lat="44.86388" lon="6.59717">
        <ele>1174</ele>
        <time>2020-09-15T06:29:45Z</time>
      </trkpt>
      <trkpt lat="44.8637" lon="6.59678">
        <ele>1173</ele>
        <time>2020-09-15T06:29:51Z</time>
      </trkpt>
      <trkpt lat="44.86353" lon="6.59646">
        <ele>1172</ele>
        <time>2020-09-15T06:29:56Z</time>
      </trkpt>
      <trkpt lat="44.86347" lon="6.59635">
        <ele>1172</ele>
        <time>2020-09-15T06:29:57Z</time>
      </trkpt>
      <trkpt lat="44.86342" lon="6.59642">
        <ele>1171</ele>
        <time>2020-09-15T06:29:59Z</time>
      </trkpt>
      <trkpt lat="44.86335" lon="6.5965">
        <ele>1170</ele>
        <time>2020-09-15T06:30:00Z</time>
      </trkpt>
      <trkpt lat="44.86334" lon="6.59651">
        <ele>1170</ele>
        <time>2020-09-15T06:30:00Z</time>
      </trkpt>
      <trkpt lat="44.86327" lon="6.59661">
        <ele>1169</ele>
        <time>2020-09-15T06:30:02Z</time>
      </trkpt>
      <trkpt lat="44.86277" lon="6.59699">
        <ele>1162</ele>
        <time>2020-09-15T06:30:12Z</time>
      </trkpt>
      <trkpt lat="44.86269" lon="6.59705">
        <ele>1161</ele>
        <time>2020-09-15T06:30:14Z</time>
      </trkpt>
      <trkpt lat="44.86253" lon="6.59714">
        <ele>1159</ele>
        <time>2020-09-15T06:30:17Z</time>
      </trkpt>
      <trkpt lat="44.86249" lon="6.59716">
        <ele>1159</ele>
        <time>2020-09-15T06:30:18Z</time>
      </trkpt>
      <trkpt lat="44.86245" lon="6.59719">
        <ele>1159</ele>
        <time>2020-09-15T06:30:18Z</time>
      </trkpt>
      <trkpt lat="44.86235" lon="6.59726">
        <ele>1160</ele>
        <time>2020-09-15T06:30:20Z</time>
      </trkpt>
      <trkpt lat="44.86193" lon="6.5975">
        <ele>1167</ele>
        <time>2020-09-15T06:30:29Z</time>
      </trkpt>
      <trkpt lat="44.86235" lon="6.59726">
        <ele>1160</ele>
        <time>2020-09-15T06:30:37Z</time>
      </trkpt>
      <trkpt lat="44.86245" lon="6.59719">
        <ele>1159</ele>
        <time>2020-09-15T06:30:39Z</time>
      </trkpt>
      <trkpt lat="44.86249" lon="6.59716">
        <ele>1159</ele>
        <time>2020-09-15T06:30:39Z</time>
      </trkpt>
      <trkpt lat="44.86253" lon="6.59714">
        <ele>1159</ele>
        <time>2020-09-15T06:30:40Z</time>
      </trkpt>
      <trkpt lat="44.86269" lon="6.59705">
        <ele>1161</ele>
        <time>2020-09-15T06:30:43Z</time>
      </trkpt>
      <trkpt lat="44.86277" lon="6.59699">
        <ele>1162</ele>
        <time>2020-09-15T06:30:45Z</time>
      </trkpt>
      <trkpt lat="44.86327" lon="6.59661">
        <ele>1169</ele>
        <time>2020-09-15T06:30:55Z</time>
      </trkpt>
      <trkpt lat="44.86338" lon="6.59654">
        <ele>1171</ele>
        <time>2020-09-15T06:30:57Z</time>
      </trkpt>
      <trkpt lat="44.86343" lon="6.59648">
        <ele>1171</ele>
        <time>2020-09-15T06:30:58Z</time>
      </trkpt>
      <trkpt lat="44.86342" lon="6.59642">
        <ele>1171</ele>
        <time>2020-09-15T06:30:59Z</time>
      </trkpt>
      <trkpt lat="44.86377" lon="6.59711">
        <ele>1173</ele>
        <time>2020-09-15T06:31:10Z</time>
      </trkpt>
      <trkpt lat="44.86407" lon="6.59769">
        <ele>1175</ele>
        <time>2020-09-15T06:31:19Z</time>
      </trkpt>
      <trkpt lat="44.86423" lon="6.59796">
        <ele>1176</ele>
        <time>2020-09-15T06:31:23Z</time>
      </trkpt>
      <trkpt lat="44.86456" lon="6.59857">
        <ele>1177</ele>
        <time>2020-09-15T06:31:33Z</time>
      </trkpt>
      <trkpt lat="44.86461" lon="6.59864">
        <ele>1177</ele>
        <time>2020-09-15T06:31:34Z</time>
      </trkpt>
      <trkpt lat="44.86467" lon="6.59874">
        <ele>1177</ele>
        <time>2020-09-15T06:31:36Z</time>
      </trkpt>
      <trkpt lat="44.86476" lon="6.59889">
        <ele>1177</ele>
        <time>2020-09-15T06:31:38Z</time>
      </trkpt>
      <trkpt lat="44.86487" lon="6.59905">
        <ele>1176</ele>
        <time>2020-09-15T06:31:41Z</time>
      </trkpt>
      <trkpt lat="44.86493" lon="6.59912">
        <ele>1176</ele>
        <time>2020-09-15T06:31:42Z</time>
      </trkpt>
      <trkpt lat="44.86523" lon="6.59948">
        <ele>1176</ele>
        <time>2020-09-15T06:31:49Z</time>
      </trkpt>
      <trkpt lat="44.86581" lon="6.60002">
        <ele>1177</ele>
        <time>2020-09-15T06:32:02Z</time>
      </trkpt>
      <trkpt lat="44.86605" lon="6.60019">
        <ele>1177</ele>
        <time>2020-09-15T06:32:07Z</time>
      </trkpt>
      <trkpt lat="44.86631" lon="6.60041">
        <ele>1176</ele>
        <time>2020-09-15T06:32:12Z</time>
      </trkpt>
      <trkpt lat="44.86658" lon="6.60059">
        <ele>1175</ele>
        <time>2020-09-15T06:32:17Z</time>
      </trkpt>
      <trkpt lat="44.86741" lon="6.60124">
        <ele>1171</ele>
        <time>2020-09-15T06:32:34Z</time>
      </trkpt>
      <trkpt lat="44.86763" lon="6.60142">
        <ele>1171</ele>
        <time>2020-09-15T06:32:39Z</time>
      </trkpt>
      <trkpt lat="44.86779" lon="6.60154">
        <ele>1172</ele>
        <time>2020-09-15T06:32:42Z</time>
      </trkpt>
      <trkpt lat="44.86788" lon="6.60162">
        <ele>1172</ele>
        <time>2020-09-15T06:32:44Z</time>
      </trkpt>
      <trkpt lat="44.86796" lon="6.60169">
        <ele>1172</ele>
        <time>2020-09-15T06:32:46Z</time>
      </trkpt>
      <trkpt lat="44.86799" lon="6.60172">
        <ele>1172</ele>
        <time>2020-09-15T06:32:46Z</time>
      </trkpt>
      <trkpt lat="44.86843" lon="6.60211">
        <ele>1174</ele>
        <time>2020-09-15T06:32:55Z</time>
      </trkpt>
      <trkpt lat="44.86872" lon="6.60241">
        <ele>1173</ele>
        <time>2020-09-15T06:33:02Z</time>
      </trkpt>
      <trkpt lat="44.86897" lon="6.60278">
        <ele>1172</ele>
        <time>2020-09-15T06:33:08Z</time>
      </trkpt>
      <trkpt lat="44.86915" lon="6.60303">
        <ele>1171</ele>
        <time>2020-09-15T06:33:13Z</time>
      </trkpt>
      <trkpt lat="44.86936" lon="6.60337">
        <ele>1171</ele>
        <time>2020-09-15T06:33:18Z</time>
      </trkpt>
      <trkpt lat="44.87031" lon="6.60523">
        <ele>1170</ele>
        <time>2020-09-15T06:33:47Z</time>
      </trkpt>
      <trkpt lat="44.87059" lon="6.60577">
        <ele>1170</ele>
        <time>2020-09-15T06:33:56Z</time>
      </trkpt>
      <trkpt lat="44.87116" lon="6.60684">
        <ele>1170</ele>
        <time>2020-09-15T06:34:13Z</time>
      </trkpt>
      <trkpt lat="44.8715" lon="6.60758">
        <ele>1170</ele>
        <time>2020-09-15T06:34:24Z</time>
      </trkpt>
      <trkpt lat="44.8716" lon="6.60783">
        <ele>1170</ele>
        <time>2020-09-15T06:34:27Z</time>
      </trkpt>
      <trkpt lat="44.87169" lon="6.60811">
        <ele>1171</ele>
        <time>2020-09-15T06:34:31Z</time>
      </trkpt>
      <trkpt lat="44.87188" lon="6.60868">
        <ele>1172</ele>
        <time>2020-09-15T06:34:39Z</time>
      </trkpt>
      <trkpt lat="44.87206" lon="6.60927">
        <ele>1173</ele>
        <time>2020-09-15T06:34:47Z</time>
      </trkpt>
      <trkpt lat="44.87211" lon="6.60947">
        <ele>1173</ele>
        <time>2020-09-15T06:34:50Z</time>
      </trkpt>
      <trkpt lat="44.87219" lon="6.60942">
        <ele>1173</ele>
        <time>2020-09-15T06:34:52Z</time>
      </trkpt>
      <trkpt lat="44.87235" lon="6.6093">
        <ele>1173</ele>
        <time>2020-09-15T06:34:55Z</time>
      </trkpt>
      <trkpt lat="44.87247" lon="6.60925">
        <ele>1173</ele>
        <time>2020-09-15T06:34:57Z</time>
      </trkpt>
      <trkpt lat="44.87256" lon="6.60926">
        <ele>1173</ele>
        <time>2020-09-15T06:34:59Z</time>
      </trkpt>
      <trkpt lat="44.87257" lon="6.60928">
        <ele>1173</ele>
        <time>2020-09-15T06:34:59Z</time>
      </trkpt>
      <trkpt lat="44.87282" lon="6.60971">
        <ele>1173</ele>
        <time>2020-09-15T06:35:06Z</time>
      </trkpt>
      <trkpt lat="44.87315" lon="6.61028">
        <ele>1173</ele>
        <time>2020-09-15T06:35:15Z</time>
      </trkpt>
      <trkpt lat="44.87326" lon="6.61047">
        <ele>1173</ele>
        <time>2020-09-15T06:35:18Z</time>
      </trkpt>
      <trkpt lat="44.87358" lon="6.61107">
        <ele>1174</ele>
        <time>2020-09-15T06:35:28Z</time>
      </trkpt>
      <trkpt lat="44.87384" lon="6.6115">
        <ele>1174</ele>
        <time>2020-09-15T06:35:35Z</time>
      </trkpt>
      <trkpt lat="44.87395" lon="6.61167">
        <ele>1174</ele>
        <time>2020-09-15T06:35:38Z</time>
      </trkpt>
      <trkpt lat="44.87404" lon="6.6118">
        <ele>1175</ele>
        <time>2020-09-15T06:35:40Z</time>
      </trkpt>
      <trkpt lat="44.87411" lon="6.61189">
        <ele>1175</ele>
        <time>2020-09-15T06:35:42Z</time>
      </trkpt>
      <trkpt lat="44.87426" lon="6.61208">
        <ele>1177</ele>
        <time>2020-09-15T06:35:45Z</time>
      </trkpt>
      <trkpt lat="44.87441" lon="6.61226">
        <ele>1178</ele>
        <time>2020-09-15T06:35:49Z</time>
      </trkpt>
      <trkpt lat="44.87461" lon="6.61249">
        <ele>1181</ele>
        <time>2020-09-15T06:35:54Z</time>
      </trkpt>
      <trkpt lat="44.87485" lon="6.61276">
        <ele>1182</ele>
        <time>2020-09-15T06:35:59Z</time>
      </trkpt>
      <trkpt lat="44.87521" lon="6.61307">
        <ele>1185</ele>
        <time>2020-09-15T06:36:06Z</time>
      </trkpt>
      <trkpt lat="44.87535" lon="6.61322">
        <ele>1185</ele>
        <time>2020-09-15T06:36:10Z</time>
      </trkpt>
      <trkpt lat="44.87545" lon="6.61334">
        <ele>1185</ele>
        <time>2020-09-15T06:36:12Z</time>
      </trkpt>
      <trkpt lat="44.8756" lon="6.61353">
        <ele>1185</ele>
        <time>2020-09-15T06:36:16Z</time>
      </trkpt>
      <trkpt lat="44.87569" lon="6.61364">
        <ele>1185</ele>
        <time>2020-09-15T06:36:18Z</time>
      </trkpt>
      <trkpt lat="44.87573" lon="6.61368">
        <ele>1185</ele>
        <time>2020-09-15T06:36:19Z</time>
      </trkpt>
      <trkpt lat="44.87585" lon="6.61381">
        <ele>1185</ele>
        <time>2020-09-15T06:36:21Z</time>
      </trkpt>
      <trkpt lat="44.8759" lon="6.61386">
        <ele>1185</ele>
        <time>2020-09-15T06:36:22Z</time>
      </trkpt>
      <trkpt lat="44.8759" lon="6.61386">
        <ele>1185</ele>
        <time>2020-09-15T06:36:22Z</time>
      </trkpt>
      <trkpt lat="44.87592" lon="6.61388">
        <ele>1185</ele>
        <time>2020-09-15T06:36:23Z</time>
      </trkpt>
      <trkpt lat="44.87598" lon="6.61394">
        <ele>1185</ele>
        <time>2020-09-15T06:36:24Z</time>
      </trkpt>
      <trkpt lat="44.87606" lon="6.61402">
        <ele>1186</ele>
        <time>2020-09-15T06:36:26Z</time>
      </trkpt>
      <trkpt lat="44.87616" lon="6.6141">
        <ele>1186</ele>
        <time>2020-09-15T06:36:28Z</time>
      </trkpt>
      <trkpt lat="44.87626" lon="6.6142">
        <ele>1187</ele>
        <time>2020-09-15T06:36:30Z</time>
      </trkpt>
      <trkpt lat="44.87629" lon="6.61422">
        <ele>1187</ele>
        <time>2020-09-15T06:36:31Z</time>
      </trkpt>
      <trkpt lat="44.87634" lon="6.61426">
        <ele>1187</ele>
        <time>2020-09-15T06:36:32Z</time>
      </trkpt>
      <trkpt lat="44.87678" lon="6.61468">
        <ele>1188</ele>
        <time>2020-09-15T06:36:41Z</time>
      </trkpt>
      <trkpt lat="44.87697" lon="6.61486">
        <ele>1188</ele>
        <time>2020-09-15T06:36:45Z</time>
      </trkpt>
      <trkpt lat="44.87699" lon="6.61487">
        <ele>1188</ele>
        <time>2020-09-15T06:36:46Z</time>
      </trkpt>
      <trkpt lat="44.87717" lon="6.61506">
        <ele>1188</ele>
        <time>2020-09-15T06:36:50Z</time>
      </trkpt>
      <trkpt lat="44.8772" lon="6.61509">
        <ele>1188</ele>
        <time>2020-09-15T06:36:50Z</time>
      </trkpt>
      <trkpt lat="44.87768" lon="6.61556">
        <ele>1188</ele>
        <time>2020-09-15T06:37:01Z</time>
      </trkpt>
      <trkpt lat="44.87778" lon="6.61566">
        <ele>1188</ele>
        <time>2020-09-15T06:37:03Z</time>
      </trkpt>
      <trkpt lat="44.87786" lon="6.61574">
        <ele>1187</ele>
        <time>2020-09-15T06:37:04Z</time>
      </trkpt>
      <trkpt lat="44.87794" lon="6.61582">
        <ele>1187</ele>
        <time>2020-09-15T06:37:06Z</time>
      </trkpt>
      <trkpt lat="44.87796" lon="6.61584">
        <ele>1187</ele>
        <time>2020-09-15T06:37:07Z</time>
      </trkpt>
      <trkpt lat="44.87803" lon="6.61591">
        <ele>1187</ele>
        <time>2020-09-15T06:37:08Z</time>
      </trkpt>
      <trkpt lat="44.87806" lon="6.61594">
        <ele>1187</ele>
        <time>2020-09-15T06:37:09Z</time>
      </trkpt>
      <trkpt lat="44.87812" lon="6.61599">
        <ele>1187</ele>
        <time>2020-09-15T06:37:10Z</time>
      </trkpt>
      <trkpt lat="44.87849" lon="6.61634">
        <ele>1186</ele>
        <time>2020-09-15T06:37:18Z</time>
      </trkpt>
      <trkpt lat="44.87862" lon="6.61646">
        <ele>1186</ele>
        <time>2020-09-15T06:37:21Z</time>
      </trkpt>
      <trkpt lat="44.8787" lon="6.61654">
        <ele>1185</ele>
        <time>2020-09-15T06:37:23Z</time>
      </trkpt>
      <trkpt lat="44.87894" lon="6.61677">
        <ele>1184</ele>
        <time>2020-09-15T06:37:28Z</time>
      </trkpt>
      <trkpt lat="44.87935" lon="6.61716">
        <ele>1185</ele>
        <time>2020-09-15T06:37:36Z</time>
      </trkpt>
      <trkpt lat="44.87949" lon="6.61729">
        <ele>1186</ele>
        <time>2020-09-15T06:37:39Z</time>
      </trkpt>
      <trkpt lat="44.87966" lon="6.61746">
        <ele>1186</ele>
        <time>2020-09-15T06:37:43Z</time>
      </trkpt>
      <trkpt lat="44.87973" lon="6.61753">
        <ele>1186</ele>
        <time>2020-09-15T06:37:45Z</time>
      </trkpt>
      <trkpt lat="44.8798" lon="6.61761">
        <ele>1186</ele>
        <time>2020-09-15T06:37:46Z</time>
      </trkpt>
      <trkpt lat="44.87991" lon="6.61774">
        <ele>1187</ele>
        <time>2020-09-15T06:37:49Z</time>
      </trkpt>
      <trkpt lat="44.87995" lon="6.61779">
        <ele>1187</ele>
        <time>2020-09-15T06:37:50Z</time>
      </trkpt>
      <trkpt lat="44.88004" lon="6.61792">
        <ele>1187</ele>
        <time>2020-09-15T06:37:52Z</time>
      </trkpt>
      <trkpt lat="44.88007" lon="6.61795">
        <ele>1187</ele>
        <time>2020-09-15T06:37:53Z</time>
      </trkpt>
      <trkpt lat="44.88015" lon="6.61806">
        <ele>1187</ele>
        <time>2020-09-15T06:37:55Z</time>
      </trkpt>
      <trkpt lat="44.88018" lon="6.6181">
        <ele>1187</ele>
        <time>2020-09-15T06:37:55Z</time>
      </trkpt>
      <trkpt lat="44.88023" lon="6.61819">
        <ele>1187</ele>
        <time>2020-09-15T06:37:57Z</time>
      </trkpt>
      <trkpt lat="44.88029" lon="6.61827">
        <ele>1187</ele>
        <time>2020-09-15T06:37:58Z</time>
      </trkpt>
      <trkpt lat="44.88034" lon="6.61833">
        <ele>1187</ele>
        <time>2020-09-15T06:38:00Z</time>
      </trkpt>
      <trkpt lat="44.88038" lon="6.61839">
        <ele>1187</ele>
        <time>2020-09-15T06:38:01Z</time>
      </trkpt>
      <trkpt lat="44.88041" lon="6.61844">
        <ele>1186</ele>
        <time>2020-09-15T06:38:01Z</time>
      </trkpt>
      <trkpt lat="44.88048" lon="6.61853">
        <ele>1186</ele>
        <time>2020-09-15T06:38:03Z</time>
      </trkpt>
      <trkpt lat="44.8805" lon="6.61856">
        <ele>1186</ele>
        <time>2020-09-15T06:38:04Z</time>
      </trkpt>
      <trkpt lat="44.88052" lon="6.61861">
        <ele>1186</ele>
        <time>2020-09-15T06:38:04Z</time>
      </trkpt>
      <trkpt lat="44.88054" lon="6.61864">
        <ele>1186</ele>
        <time>2020-09-15T06:38:05Z</time>
      </trkpt>
      <trkpt lat="44.88064" lon="6.61888">
        <ele>1185</ele>
        <time>2020-09-15T06:38:08Z</time>
      </trkpt>
      <trkpt lat="44.88073" lon="6.61909">
        <ele>1185</ele>
        <time>2020-09-15T06:38:11Z</time>
      </trkpt>
      <trkpt lat="44.88075" lon="6.61914">
        <ele>1185</ele>
        <time>2020-09-15T06:38:12Z</time>
      </trkpt>
      <trkpt lat="44.88085" lon="6.61942">
        <ele>1185</ele>
        <time>2020-09-15T06:38:16Z</time>
      </trkpt>
      <trkpt lat="44.88091" lon="6.61958">
        <ele>1186</ele>
        <time>2020-09-15T06:38:18Z</time>
      </trkpt>
      <trkpt lat="44.88103" lon="6.61985">
        <ele>1187</ele>
        <time>2020-09-15T06:38:22Z</time>
      </trkpt>
      <trkpt lat="44.88111" lon="6.62">
        <ele>1187</ele>
        <time>2020-09-15T06:38:25Z</time>
      </trkpt>
      <trkpt lat="44.88117" lon="6.6201">
        <ele>1188</ele>
        <time>2020-09-15T06:38:26Z</time>
      </trkpt>
      <trkpt lat="44.88128" lon="6.62025">
        <ele>1189</ele>
        <time>2020-09-15T06:38:29Z</time>
      </trkpt>
      <trkpt lat="44.88131" lon="6.6203">
        <ele>1189</ele>
        <time>2020-09-15T06:38:30Z</time>
      </trkpt>
      <trkpt lat="44.88132" lon="6.62036">
        <ele>1189</ele>
        <time>2020-09-15T06:38:31Z</time>
      </trkpt>
      <trkpt lat="44.88131" lon="6.62047">
        <ele>1188</ele>
        <time>2020-09-15T06:38:32Z</time>
      </trkpt>
      <trkpt lat="44.88126" lon="6.62058">
        <ele>1187</ele>
        <time>2020-09-15T06:38:34Z</time>
      </trkpt>
      <trkpt lat="44.88122" lon="6.62063">
        <ele>1187</ele>
        <time>2020-09-15T06:38:35Z</time>
      </trkpt>
      <trkpt lat="44.88113" lon="6.62067">
        <ele>1186</ele>
        <time>2020-09-15T06:38:36Z</time>
      </trkpt>
      <trkpt lat="44.88108" lon="6.62078">
        <ele>1186</ele>
        <time>2020-09-15T06:38:38Z</time>
      </trkpt>
      <trkpt lat="44.88108" lon="6.62091">
        <ele>1185</ele>
        <time>2020-09-15T06:38:40Z</time>
      </trkpt>
      <trkpt lat="44.88113" lon="6.621">
        <ele>1186</ele>
        <time>2020-09-15T06:38:41Z</time>
      </trkpt>
      <trkpt lat="44.88109" lon="6.62115">
        <ele>1185</ele>
        <time>2020-09-15T06:38:43Z</time>
      </trkpt>
      <trkpt lat="44.88107" lon="6.62119">
        <ele>1185</ele>
        <time>2020-09-15T06:38:44Z</time>
      </trkpt>
      <trkpt lat="44.88085" lon="6.62167">
        <ele>1183</ele>
        <time>2020-09-15T06:38:51Z</time>
      </trkpt>
      <trkpt lat="44.88067" lon="6.62188">
        <ele>1183</ele>
        <time>2020-09-15T06:38:55Z</time>
      </trkpt>
      <trkpt lat="44.88066" lon="6.62191">
        <ele>1183</ele>
        <time>2020-09-15T06:38:56Z</time>
      </trkpt>
      <trkpt lat="44.88068" lon="6.62201">
        <ele>1183</ele>
        <time>2020-09-15T06:38:57Z</time>
      </trkpt>
      <trkpt lat="44.88108" lon="6.62232">
        <ele>1184</ele>
        <time>2020-09-15T06:39:05Z</time>
      </trkpt>
      <trkpt lat="44.88136" lon="6.62248">
        <ele>1184</ele>
        <time>2020-09-15T06:39:10Z</time>
      </trkpt>
      <trkpt lat="44.88168" lon="6.62264">
        <ele>1185</ele>
        <time>2020-09-15T06:39:16Z</time>
      </trkpt>
      <trkpt lat="44.88186" lon="6.62285">
        <ele>1185</ele>
        <time>2020-09-15T06:39:21Z</time>
      </trkpt>
      <trkpt lat="44.88191" lon="6.62294">
        <ele>1186</ele>
        <time>2020-09-15T06:39:22Z</time>
      </trkpt>
      <trkpt lat="44.88198" lon="6.62297">
        <ele>1186</ele>
        <time>2020-09-15T06:39:23Z</time>
      </trkpt>
      <trkpt lat="44.88205" lon="6.62292">
        <ele>1186</ele>
        <time>2020-09-15T06:39:25Z</time>
      </trkpt>
      <trkpt lat="44.88222" lon="6.6229">
        <ele>1186</ele>
        <time>2020-09-15T06:39:28Z</time>
      </trkpt>
      <trkpt lat="44.88325" lon="6.62321">
        <ele>1188</ele>
        <time>2020-09-15T06:39:47Z</time>
      </trkpt>
      <trkpt lat="44.88365" lon="6.62339">
        <ele>1188</ele>
        <time>2020-09-15T06:39:54Z</time>
      </trkpt>
      <trkpt lat="44.88382" lon="6.62349">
        <ele>1189</ele>
        <time>2020-09-15T06:39:57Z</time>
      </trkpt>
      <trkpt lat="44.88428" lon="6.6238">
        <ele>1190</ele>
        <time>2020-09-15T06:40:06Z</time>
      </trkpt>
      <trkpt lat="44.88454" lon="6.62403">
        <ele>1191</ele>
        <time>2020-09-15T06:40:12Z</time>
      </trkpt>
      <trkpt lat="44.88612" lon="6.62551">
        <ele>1192</ele>
        <time>2020-09-15T06:40:46Z</time>
      </trkpt>
      <trkpt lat="44.88631" lon="6.62564">
        <ele>1192</ele>
        <time>2020-09-15T06:40:49Z</time>
      </trkpt>
      <trkpt lat="44.88671" lon="6.62588">
        <ele>1190</ele>
        <time>2020-09-15T06:40:57Z</time>
      </trkpt>
      <trkpt lat="44.8869" lon="6.626">
        <ele>1192</ele>
        <time>2020-09-15T06:41:01Z</time>
      </trkpt>
      <trkpt lat="44.88692" lon="6.62602">
        <ele>1192</ele>
        <time>2020-09-15T06:41:01Z</time>
      </trkpt>
      <trkpt lat="44.8871" lon="6.62612">
        <ele>1193</ele>
        <time>2020-09-15T06:41:05Z</time>
      </trkpt>
      <trkpt lat="44.88755" lon="6.62642">
        <ele>1194</ele>
        <time>2020-09-15T06:41:13Z</time>
      </trkpt>
      <trkpt lat="44.88767" lon="6.6265">
        <ele>1195</ele>
        <time>2020-09-15T06:41:16Z</time>
      </trkpt>
      <trkpt lat="44.88817" lon="6.6268">
        <ele>1195</ele>
        <time>2020-09-15T06:41:26Z</time>
      </trkpt>
      <trkpt lat="44.88827" lon="6.62686">
        <ele>1195</ele>
        <time>2020-09-15T06:41:27Z</time>
      </trkpt>
      <trkpt lat="44.88876" lon="6.62716">
        <ele>1196</ele>
        <time>2020-09-15T06:41:37Z</time>
      </trkpt>
      <trkpt lat="44.88933" lon="6.62752">
        <ele>1196</ele>
        <time>2020-09-15T06:41:48Z</time>
      </trkpt>
      <trkpt lat="44.88955" lon="6.62767">
        <ele>1196</ele>
        <time>2020-09-15T06:41:52Z</time>
      </trkpt>
      <trkpt lat="44.89002" lon="6.62807">
        <ele>1196</ele>
        <time>2020-09-15T06:42:02Z</time>
      </trkpt>
      <trkpt lat="44.8905" lon="6.62852">
        <ele>1197</ele>
        <time>2020-09-15T06:42:12Z</time>
      </trkpt>
      <trkpt lat="44.89086" lon="6.62883">
        <ele>1198</ele>
        <time>2020-09-15T06:42:20Z</time>
      </trkpt>
      <trkpt lat="44.89106" lon="6.62901">
        <ele>1199</ele>
        <time>2020-09-15T06:42:24Z</time>
      </trkpt>
      <trkpt lat="44.89111" lon="6.62905">
        <ele>1199</ele>
        <time>2020-09-15T06:42:25Z</time>
      </trkpt>
      <trkpt lat="44.89147" lon="6.62936">
        <ele>1200</ele>
        <time>2020-09-15T06:42:33Z</time>
      </trkpt>
      <trkpt lat="44.89161" lon="6.62946">
        <ele>1200</ele>
        <time>2020-09-15T06:42:35Z</time>
      </trkpt>
      <trkpt lat="44.89166" lon="6.62948">
        <ele>1200</ele>
        <time>2020-09-15T06:42:36Z</time>
      </trkpt>
      <trkpt lat="44.89187" lon="6.6296">
        <ele>1201</ele>
        <time>2020-09-15T06:42:40Z</time>
      </trkpt>
      <trkpt lat="44.89241" lon="6.62983">
        <ele>1201</ele>
        <time>2020-09-15T06:42:50Z</time>
      </trkpt>
      <trkpt lat="44.89256" lon="6.62997">
        <ele>1200</ele>
        <time>2020-09-15T06:42:54Z</time>
      </trkpt>
      <trkpt lat="44.89261" lon="6.63002">
        <ele>1199</ele>
        <time>2020-09-15T06:42:55Z</time>
      </trkpt>
      <trkpt lat="44.89264" lon="6.63007">
        <ele>1200</ele>
        <time>2020-09-15T06:42:56Z</time>
      </trkpt>
      <trkpt lat="44.89278" lon="6.63032">
        <ele>1200</ele>
        <time>2020-09-15T06:43:00Z</time>
      </trkpt>
      <trkpt lat="44.89286" lon="6.6305">
        <ele>1200</ele>
        <time>2020-09-15T06:43:02Z</time>
      </trkpt>
      <trkpt lat="44.89307" lon="6.63102">
        <ele>1201</ele>
        <time>2020-09-15T06:43:10Z</time>
      </trkpt>
      <trkpt lat="44.8932" lon="6.63136">
        <ele>1201</ele>
        <time>2020-09-15T06:43:15Z</time>
      </trkpt>
      <trkpt lat="44.89333" lon="6.63167">
        <ele>1202</ele>
        <time>2020-09-15T06:43:19Z</time>
      </trkpt>
      <trkpt lat="44.89341" lon="6.63184">
        <ele>1203</ele>
        <time>2020-09-15T06:43:22Z</time>
      </trkpt>
      <trkpt lat="44.89369" lon="6.63247">
        <ele>1206</ele>
        <time>2020-09-15T06:43:31Z</time>
      </trkpt>
      <trkpt lat="44.89385" lon="6.63282">
        <ele>1207</ele>
        <time>2020-09-15T06:43:36Z</time>
      </trkpt>
      <trkpt lat="44.89397" lon="6.63308">
        <ele>1207</ele>
        <time>2020-09-15T06:43:40Z</time>
      </trkpt>
      <trkpt lat="44.89401" lon="6.63316">
        <ele>1207</ele>
        <time>2020-09-15T06:43:42Z</time>
      </trkpt>
      <trkpt lat="44.89402" lon="6.6332">
        <ele>1207</ele>
        <time>2020-09-15T06:43:42Z</time>
      </trkpt>
      <trkpt lat="44.89403" lon="6.63325">
        <ele>1207</ele>
        <time>2020-09-15T06:43:43Z</time>
      </trkpt>
      <trkpt lat="44.89403" lon="6.63329">
        <ele>1207</ele>
        <time>2020-09-15T06:43:43Z</time>
      </trkpt>
      <trkpt lat="44.89403" lon="6.63338">
        <ele>1207</ele>
        <time>2020-09-15T06:43:44Z</time>
      </trkpt>
      <trkpt lat="44.894" lon="6.6334">
        <ele>1207</ele>
        <time>2020-09-15T06:43:45Z</time>
      </trkpt>
      <trkpt lat="44.89399" lon="6.63342">
        <ele>1207</ele>
        <time>2020-09-15T06:43:45Z</time>
      </trkpt>
      <trkpt lat="44.89399" lon="6.63344">
        <ele>1207</ele>
        <time>2020-09-15T06:43:46Z</time>
      </trkpt>
      <trkpt lat="44.89398" lon="6.63349">
        <ele>1207</ele>
        <time>2020-09-15T06:43:46Z</time>
      </trkpt>
      <trkpt lat="44.894" lon="6.63354">
        <ele>1207</ele>
        <time>2020-09-15T06:43:47Z</time>
      </trkpt>
      <trkpt lat="44.89403" lon="6.63356">
        <ele>1207</ele>
        <time>2020-09-15T06:43:48Z</time>
      </trkpt>
      <trkpt lat="44.89406" lon="6.63356">
        <ele>1207</ele>
        <time>2020-09-15T06:43:48Z</time>
      </trkpt>
      <trkpt lat="44.89409" lon="6.63354">
        <ele>1207</ele>
        <time>2020-09-15T06:43:49Z</time>
      </trkpt>
      <trkpt lat="44.89413" lon="6.6336">
        <ele>1207</ele>
        <time>2020-09-15T06:43:50Z</time>
      </trkpt>
      <trkpt lat="44.89417" lon="6.63367">
        <ele>1207</ele>
        <time>2020-09-15T06:43:51Z</time>
      </trkpt>
      <trkpt lat="44.89425" lon="6.63382">
        <ele>1208</ele>
        <time>2020-09-15T06:43:53Z</time>
      </trkpt>
      <trkpt lat="44.89429" lon="6.63397">
        <ele>1208</ele>
        <time>2020-09-15T06:43:55Z</time>
      </trkpt>
      <trkpt lat="44.89442" lon="6.63466">
        <ele>1209</ele>
        <time>2020-09-15T06:44:04Z</time>
      </trkpt>
      <trkpt lat="44.89442" lon="6.63474">
        <ele>1209</ele>
        <time>2020-09-15T06:44:05Z</time>
      </trkpt>
      <trkpt lat="44.89436" lon="6.63487">
        <ele>1209</ele>
        <time>2020-09-15T06:44:07Z</time>
      </trkpt>
      <trkpt lat="44.89418" lon="6.63513">
        <ele>1210</ele>
        <time>2020-09-15T06:44:12Z</time>
      </trkpt>
      <trkpt lat="44.89414" lon="6.63522">
        <ele>1211</ele>
        <time>2020-09-15T06:44:13Z</time>
      </trkpt>
      <trkpt lat="44.89412" lon="6.63531">
        <ele>1211</ele>
        <time>2020-09-15T06:44:14Z</time>
      </trkpt>
      <trkpt lat="44.89414" lon="6.63544">
        <ele>1212</ele>
        <time>2020-09-15T06:44:16Z</time>
      </trkpt>
      <trkpt lat="44.89425" lon="6.63589">
        <ele>1213</ele>
        <time>2020-09-15T06:44:22Z</time>
      </trkpt>
      <trkpt lat="44.89428" lon="6.636">
        <ele>1214</ele>
        <time>2020-09-15T06:44:23Z</time>
      </trkpt>
      <trkpt lat="44.89429" lon="6.63616">
        <ele>1214</ele>
        <time>2020-09-15T06:44:25Z</time>
      </trkpt>
      <trkpt lat="44.89428" lon="6.63622">
        <ele>1214</ele>
        <time>2020-09-15T06:44:26Z</time>
      </trkpt>
      <trkpt lat="44.89426" lon="6.6363">
        <ele>1215</ele>
        <time>2020-09-15T06:44:27Z</time>
      </trkpt>
      <trkpt lat="44.89425" lon="6.63634">
        <ele>1215</ele>
        <time>2020-09-15T06:44:28Z</time>
      </trkpt>
      <trkpt lat="44.89436" lon="6.6364">
        <ele>1215</ele>
        <time>2020-09-15T06:44:30Z</time>
      </trkpt>
      <trkpt lat="44.89497" lon="6.6367">
        <ele>1214</ele>
        <time>2020-09-15T06:44:41Z</time>
      </trkpt>
      <trkpt lat="44.89494" lon="6.63677">
        <ele>1215</ele>
        <time>2020-09-15T06:44:42Z</time>
      </trkpt>
      <trkpt lat="44.89495" lon="6.63685">
        <ele>1216</ele>
        <time>2020-09-15T06:44:43Z</time>
      </trkpt>
      <trkpt lat="44.89498" lon="6.63688">
        <ele>1217</ele>
        <time>2020-09-15T06:44:44Z</time>
      </trkpt>
      <trkpt lat="44.8947" lon="6.63718">
        <ele>1220</ele>
        <time>2020-09-15T06:44:50Z</time>
      </trkpt>
      <trkpt lat="44.89425" lon="6.63752">
        <ele>1224</ele>
        <time>2020-09-15T06:44:59Z</time>
      </trkpt>
      <trkpt lat="44.89402" lon="6.63759">
        <ele>1225</ele>
        <time>2020-09-15T06:45:04Z</time>
      </trkpt>
      <trkpt lat="44.89387" lon="6.63774">
        <ele>1228</ele>
        <time>2020-09-15T06:45:07Z</time>
      </trkpt>
      <trkpt lat="44.89355" lon="6.63796">
        <ele>1234</ele>
        <time>2020-09-15T06:45:13Z</time>
      </trkpt>
      <trkpt lat="44.89307" lon="6.63817">
        <ele>1240</ele>
        <time>2020-09-15T06:45:22Z</time>
      </trkpt>
      <trkpt lat="44.89258" lon="6.63821">
        <ele>1243</ele>
        <time>2020-09-15T06:45:31Z</time>
      </trkpt>
      <trkpt lat="44.89234" lon="6.63826">
        <ele>1245</ele>
        <time>2020-09-15T06:45:35Z</time>
      </trkpt>
      <trkpt lat="44.8923" lon="6.63829">
        <ele>1246</ele>
        <time>2020-09-15T06:45:36Z</time>
      </trkpt>
      <trkpt lat="44.89216" lon="6.63866">
        <ele>1256</ele>
        <time>2020-09-15T06:45:41Z</time>
      </trkpt>
      <trkpt lat="44.89185" lon="6.63931">
        <ele>1268</ele>
        <time>2020-09-15T06:45:51Z</time>
      </trkpt>
      <trkpt lat="44.89172" lon="6.63964">
        <ele>1274</ele>
        <time>2020-09-15T06:45:56Z</time>
      </trkpt>
      <trkpt lat="44.89164" lon="6.63991">
        <ele>1278</ele>
        <time>2020-09-15T06:46:00Z</time>
      </trkpt>
      <trkpt lat="44.89159" lon="6.64033">
        <ele>1284</ele>
        <time>2020-09-15T06:46:05Z</time>
      </trkpt>
      <trkpt lat="44.89159" lon="6.64065">
        <ele>1289</ele>
        <time>2020-09-15T06:46:09Z</time>
      </trkpt>
      <trkpt lat="44.89165" lon="6.6407">
        <ele>1290</ele>
        <time>2020-09-15T06:46:10Z</time>
      </trkpt>
      <trkpt lat="44.89179" lon="6.64134">
        <ele>1295</ele>
        <time>2020-09-15T06:46:19Z</time>
      </trkpt>
      <trkpt lat="44.89187" lon="6.64157">
        <ele>1296</ele>
        <time>2020-09-15T06:46:22Z</time>
      </trkpt>
      <trkpt lat="44.89191" lon="6.64191">
        <ele>1298</ele>
        <time>2020-09-15T06:46:26Z</time>
      </trkpt>
      <trkpt lat="44.89188" lon="6.6421">
        <ele>1299</ele>
        <time>2020-09-15T06:46:29Z</time>
      </trkpt>
      <trkpt lat="44.89166" lon="6.64276">
        <ele>1301</ele>
        <time>2020-09-15T06:46:38Z</time>
      </trkpt>
      <trkpt lat="44.8916" lon="6.64304">
        <ele>1304</ele>
        <time>2020-09-15T06:46:42Z</time>
      </trkpt>
      <trkpt lat="44.89154" lon="6.64314">
        <ele>1304</ele>
        <time>2020-09-15T06:46:43Z</time>
      </trkpt>
      <trkpt lat="44.89136" lon="6.6434">
        <ele>1306</ele>
        <time>2020-09-15T06:46:48Z</time>
      </trkpt>
      <trkpt lat="44.89125" lon="6.64378">
        <ele>1308</ele>
        <time>2020-09-15T06:46:53Z</time>
      </trkpt>
      <trkpt lat="44.89115" lon="6.64407">
        <ele>1309</ele>
        <time>2020-09-15T06:46:57Z</time>
      </trkpt>
      <trkpt lat="44.8911" lon="6.64437">
        <ele>1312</ele>
        <time>2020-09-15T06:47:01Z</time>
      </trkpt>
      <trkpt lat="44.8911" lon="6.64457">
        <ele>1314</ele>
        <time>2020-09-15T06:47:04Z</time>
      </trkpt>
      <trkpt lat="44.89112" lon="6.64468">
        <ele>1315</ele>
        <time>2020-09-15T06:47:05Z</time>
      </trkpt>
      <trkpt lat="44.89117" lon="6.64548">
        <ele>1325</ele>
        <time>2020-09-15T06:47:15Z</time>
      </trkpt>
      <trkpt lat="44.89133" lon="6.64644">
        <ele>1336</ele>
        <time>2020-09-15T06:47:28Z</time>
      </trkpt>
      <trkpt lat="44.89135" lon="6.64693">
        <ele>1343</ele>
        <time>2020-09-15T06:47:34Z</time>
      </trkpt>
      <trkpt lat="44.89129" lon="6.64694">
        <ele>1343</ele>
        <time>2020-09-15T06:47:35Z</time>
      </trkpt>
      <trkpt lat="44.89108" lon="6.64695">
        <ele>1343</ele>
        <time>2020-09-15T06:47:39Z</time>
      </trkpt>
      <trkpt lat="44.89103" lon="6.64696">
        <ele>1343</ele>
        <time>2020-09-15T06:47:39Z</time>
      </trkpt>
      <trkpt lat="44.89069" lon="6.64696">
        <ele>1342</ele>
        <time>2020-09-15T06:47:45Z</time>
      </trkpt>
      <trkpt lat="44.89064" lon="6.64699">
        <ele>1343</ele>
        <time>2020-09-15T06:47:46Z</time>
      </trkpt>
      <trkpt lat="44.89059" lon="6.64703">
        <ele>1343</ele>
        <time>2020-09-15T06:47:47Z</time>
      </trkpt>
      <trkpt lat="44.89057" lon="6.64704">
        <ele>1343</ele>
        <time>2020-09-15T06:47:48Z</time>
      </trkpt>
      <trkpt lat="44.8905" lon="6.64713">
        <ele>1344</ele>
        <time>2020-09-15T06:47:50Z</time>
      </trkpt>
      <trkpt lat="44.89031" lon="6.64745">
        <ele>1347</ele>
        <time>2020-09-15T06:47:55Z</time>
      </trkpt>
      <trkpt lat="44.8902" lon="6.6476">
        <ele>1348</ele>
        <time>2020-09-15T06:47:58Z</time>
      </trkpt>
      <trkpt lat="44.8901" lon="6.64771">
        <ele>1350</ele>
        <time>2020-09-15T06:48:00Z</time>
      </trkpt>
      <trkpt lat="44.88995" lon="6.64775">
        <ele>1351</ele>
        <time>2020-09-15T06:48:02Z</time>
      </trkpt>
      <trkpt lat="44.88982" lon="6.64776">
        <ele>1353</ele>
        <time>2020-09-15T06:48:05Z</time>
      </trkpt>
      <trkpt lat="44.88967" lon="6.64772">
        <ele>1353</ele>
        <time>2020-09-15T06:48:08Z</time>
      </trkpt>
      <trkpt lat="44.8896" lon="6.64768">
        <ele>1353</ele>
        <time>2020-09-15T06:48:09Z</time>
      </trkpt>
      <trkpt lat="44.88946" lon="6.6476">
        <ele>1353</ele>
        <time>2020-09-15T06:48:12Z</time>
      </trkpt>
      <trkpt lat="44.88925" lon="6.64756">
        <ele>1353</ele>
        <time>2020-09-15T06:48:15Z</time>
      </trkpt>
      <trkpt lat="44.88886" lon="6.6477">
        <ele>1360</ele>
        <time>2020-09-15T06:48:22Z</time>
      </trkpt>
      <trkpt lat="44.88839" lon="6.64778">
        <ele>1365</ele>
        <time>2020-09-15T06:48:31Z</time>
      </trkpt>
      <trkpt lat="44.8881" lon="6.64776">
        <ele>1363</ele>
        <time>2020-09-15T06:48:36Z</time>
      </trkpt>
      <trkpt lat="44.8874" lon="6.64788">
        <ele>1362</ele>
        <time>2020-09-15T06:48:49Z</time>
      </trkpt>
      <trkpt lat="44.88696" lon="6.64806">
        <ele>1363</ele>
        <time>2020-09-15T06:48:57Z</time>
      </trkpt>
      <trkpt lat="44.88661" lon="6.64829">
        <ele>1364</ele>
        <time>2020-09-15T06:49:04Z</time>
      </trkpt>
      <trkpt lat="44.88656" lon="6.64836">
        <ele>1364</ele>
        <time>2020-09-15T06:49:05Z</time>
      </trkpt>
      <trkpt lat="44.88652" lon="6.6485">
        <ele>1366</ele>
        <time>2020-09-15T06:49:07Z</time>
      </trkpt>
      <trkpt lat="44.88651" lon="6.64867">
        <ele>1369</ele>
        <time>2020-09-15T06:49:09Z</time>
      </trkpt>
      <trkpt lat="44.88658" lon="6.64922">
        <ele>1381</ele>
        <time>2020-09-15T06:49:16Z</time>
      </trkpt>
      <trkpt lat="44.88654" lon="6.64938">
        <ele>1384</ele>
        <time>2020-09-15T06:49:18Z</time>
      </trkpt>
      <trkpt lat="44.88643" lon="6.64957">
        <ele>1385</ele>
        <time>2020-09-15T06:49:21Z</time>
      </trkpt>
      <trkpt lat="44.88609" lon="6.64989">
        <ele>1381</ele>
        <time>2020-09-15T06:49:28Z</time>
      </trkpt>
      <trkpt lat="44.88599" lon="6.65008">
        <ele>1382</ele>
        <time>2020-09-15T06:49:31Z</time>
      </trkpt>
      <trkpt lat="44.88592" lon="6.6503">
        <ele>1386</ele>
        <time>2020-09-15T06:49:35Z</time>
      </trkpt>
      <trkpt lat="44.88581" lon="6.65071">
        <ele>1393</ele>
        <time>2020-09-15T06:49:40Z</time>
      </trkpt>
      <trkpt lat="44.88571" lon="6.65093">
        <ele>1393</ele>
        <time>2020-09-15T06:49:43Z</time>
      </trkpt>
      <trkpt lat="44.88552" lon="6.65111">
        <ele>1389</ele>
        <time>2020-09-15T06:49:47Z</time>
      </trkpt>
      <trkpt lat="44.88536" lon="6.65137">
        <ele>1389</ele>
        <time>2020-09-15T06:49:52Z</time>
      </trkpt>
      <trkpt lat="44.88525" lon="6.65168">
        <ele>1393</ele>
        <time>2020-09-15T06:49:56Z</time>
      </trkpt>
      <trkpt lat="44.88519" lon="6.652">
        <ele>1393</ele>
        <time>2020-09-15T06:50:00Z</time>
      </trkpt>
      <trkpt lat="44.88515" lon="6.65239">
        <ele>1396</ele>
        <time>2020-09-15T06:50:05Z</time>
      </trkpt>
      <trkpt lat="44.88516" lon="6.65262">
        <ele>1397</ele>
        <time>2020-09-15T06:50:08Z</time>
      </trkpt>
      <trkpt lat="44.88524" lon="6.65303">
        <ele>1402</ele>
        <time>2020-09-15T06:50:14Z</time>
      </trkpt>
      <trkpt lat="44.88523" lon="6.65326">
        <ele>1402</ele>
        <time>2020-09-15T06:50:16Z</time>
      </trkpt>
      <trkpt lat="44.88518" lon="6.65343">
        <ele>1402</ele>
        <time>2020-09-15T06:50:19Z</time>
      </trkpt>
      <trkpt lat="44.88498" lon="6.65376">
        <ele>1399</ele>
        <time>2020-09-15T06:50:24Z</time>
      </trkpt>
      <trkpt lat="44.88469" lon="6.65413">
        <ele>1397</ele>
        <time>2020-09-15T06:50:31Z</time>
      </trkpt>
      <trkpt lat="44.8846" lon="6.65434">
        <ele>1397</ele>
        <time>2020-09-15T06:50:34Z</time>
      </trkpt>
      <trkpt lat="44.88452" lon="6.65465">
        <ele>1399</ele>
        <time>2020-09-15T06:50:38Z</time>
      </trkpt>
      <trkpt lat="44.88407" lon="6.65725">
        <ele>1409</ele>
        <time>2020-09-15T06:51:12Z</time>
      </trkpt>
      <trkpt lat="44.88405" lon="6.65748">
        <ele>1410</ele>
        <time>2020-09-15T06:51:15Z</time>
      </trkpt>
      <trkpt lat="44.88405" lon="6.65777">
        <ele>1411</ele>
        <time>2020-09-15T06:51:19Z</time>
      </trkpt>
      <trkpt lat="44.88407" lon="6.6581">
        <ele>1413</ele>
        <time>2020-09-15T06:51:23Z</time>
      </trkpt>
      <trkpt lat="44.88428" lon="6.65908">
        <ele>1431</ele>
        <time>2020-09-15T06:51:36Z</time>
      </trkpt>
      <trkpt lat="44.88426" lon="6.65931">
        <ele>1434</ele>
        <time>2020-09-15T06:51:39Z</time>
      </trkpt>
      <trkpt lat="44.88417" lon="6.65942">
        <ele>1431</ele>
        <time>2020-09-15T06:51:41Z</time>
      </trkpt>
      <trkpt lat="44.88386" lon="6.65947">
        <ele>1426</ele>
        <time>2020-09-15T06:51:46Z</time>
      </trkpt>
      <trkpt lat="44.88376" lon="6.65946">
        <ele>1424</ele>
        <time>2020-09-15T06:51:48Z</time>
      </trkpt>
      <trkpt lat="44.88367" lon="6.65942">
        <ele>1421</ele>
        <time>2020-09-15T06:51:50Z</time>
      </trkpt>
      <trkpt lat="44.88348" lon="6.65944">
        <ele>1418</ele>
        <time>2020-09-15T06:51:53Z</time>
      </trkpt>
      <trkpt lat="44.88336" lon="6.65955">
        <ele>1418</ele>
        <time>2020-09-15T06:51:56Z</time>
      </trkpt>
      <trkpt lat="44.88321" lon="6.65979">
        <ele>1417</ele>
        <time>2020-09-15T06:52:00Z</time>
      </trkpt>
      <trkpt lat="44.88286" lon="6.66012">
        <ele>1410</ele>
        <time>2020-09-15T06:52:07Z</time>
      </trkpt>
      <trkpt lat="44.88279" lon="6.66029">
        <ele>1409</ele>
        <time>2020-09-15T06:52:10Z</time>
      </trkpt>
      <trkpt lat="44.88274" lon="6.66055">
        <ele>1411</ele>
        <time>2020-09-15T06:52:13Z</time>
      </trkpt>
      <trkpt lat="44.88276" lon="6.66111">
        <ele>1422</ele>
        <time>2020-09-15T06:52:20Z</time>
      </trkpt>
      <trkpt lat="44.88269" lon="6.66149">
        <ele>1428</ele>
        <time>2020-09-15T06:52:25Z</time>
      </trkpt>
      <trkpt lat="44.88261" lon="6.66174">
        <ele>1431</ele>
        <time>2020-09-15T06:52:29Z</time>
      </trkpt>
      <trkpt lat="44.88247" lon="6.66196">
        <ele>1430</ele>
        <time>2020-09-15T06:52:32Z</time>
      </trkpt>
      <trkpt lat="44.88225" lon="6.66243">
        <ele>1425</ele>
        <time>2020-09-15T06:52:40Z</time>
      </trkpt>
      <trkpt lat="44.88222" lon="6.66263">
        <ele>1425</ele>
        <time>2020-09-15T06:52:42Z</time>
      </trkpt>
      <trkpt lat="44.88223" lon="6.6628">
        <ele>1427</ele>
        <time>2020-09-15T06:52:44Z</time>
      </trkpt>
      <trkpt lat="44.88235" lon="6.66335">
        <ele>1435</ele>
        <time>2020-09-15T06:52:52Z</time>
      </trkpt>
      <trkpt lat="44.88235" lon="6.66345">
        <ele>1437</ele>
        <time>2020-09-15T06:52:53Z</time>
      </trkpt>
      <trkpt lat="44.88233" lon="6.66358">
        <ele>1438</ele>
        <time>2020-09-15T06:52:54Z</time>
      </trkpt>
      <trkpt lat="44.88221" lon="6.66401">
        <ele>1439</ele>
        <time>2020-09-15T06:53:00Z</time>
      </trkpt>
      <trkpt lat="44.88209" lon="6.66422">
        <ele>1437</ele>
        <time>2020-09-15T06:53:04Z</time>
      </trkpt>
      <trkpt lat="44.882" lon="6.66445">
        <ele>1438</ele>
        <time>2020-09-15T06:53:07Z</time>
      </trkpt>
      <trkpt lat="44.88191" lon="6.66494">
        <ele>1445</ele>
        <time>2020-09-15T06:53:13Z</time>
      </trkpt>
      <trkpt lat="44.88183" lon="6.6651">
        <ele>1446</ele>
        <time>2020-09-15T06:53:16Z</time>
      </trkpt>
      <trkpt lat="44.88167" lon="6.66536">
        <ele>1444</ele>
        <time>2020-09-15T06:53:20Z</time>
      </trkpt>
      <trkpt lat="44.88161" lon="6.66554">
        <ele>1443</ele>
        <time>2020-09-15T06:53:23Z</time>
      </trkpt>
      <trkpt lat="44.88137" lon="6.66653">
        <ele>1434</ele>
        <time>2020-09-15T06:53:36Z</time>
      </trkpt>
      <trkpt lat="44.88136" lon="6.66679">
        <ele>1433</ele>
        <time>2020-09-15T06:53:39Z</time>
      </trkpt>
      <trkpt lat="44.88138" lon="6.66712">
        <ele>1432</ele>
        <time>2020-09-15T06:53:43Z</time>
      </trkpt>
      <trkpt lat="44.88144" lon="6.66735">
        <ele>1433</ele>
        <time>2020-09-15T06:53:46Z</time>
      </trkpt>
      <trkpt lat="44.88165" lon="6.66795">
        <ele>1440</ele>
        <time>2020-09-15T06:53:55Z</time>
      </trkpt>
      <trkpt lat="44.88167" lon="6.66814">
        <ele>1439</ele>
        <time>2020-09-15T06:53:57Z</time>
      </trkpt>
      <trkpt lat="44.88167" lon="6.66839">
        <ele>1438</ele>
        <time>2020-09-15T06:54:00Z</time>
      </trkpt>
      <trkpt lat="44.88172" lon="6.66859">
        <ele>1439</ele>
        <time>2020-09-15T06:54:03Z</time>
      </trkpt>
      <trkpt lat="44.88189" lon="6.66889">
        <ele>1443</ele>
        <time>2020-09-15T06:54:08Z</time>
      </trkpt>
      <trkpt lat="44.88193" lon="6.66903">
        <ele>1444</ele>
        <time>2020-09-15T06:54:10Z</time>
      </trkpt>
      <trkpt lat="44.88196" lon="6.6691">
        <ele>1444</ele>
        <time>2020-09-15T06:54:11Z</time>
      </trkpt>
      <trkpt lat="44.88198" lon="6.66925">
        <ele>1447</ele>
        <time>2020-09-15T06:54:13Z</time>
      </trkpt>
      <trkpt lat="44.88197" lon="6.66937">
        <ele>1450</ele>
        <time>2020-09-15T06:54:14Z</time>
      </trkpt>
      <trkpt lat="44.88192" lon="6.66947">
        <ele>1451</ele>
        <time>2020-09-15T06:54:16Z</time>
      </trkpt>
      <trkpt lat="44.88181" lon="6.66954">
        <ele>1449</ele>
        <time>2020-09-15T06:54:18Z</time>
      </trkpt>
      <trkpt lat="44.88155" lon="6.66959">
        <ele>1442</ele>
        <time>2020-09-15T06:54:23Z</time>
      </trkpt>
      <trkpt lat="44.88137" lon="6.66965">
        <ele>1439</ele>
        <time>2020-09-15T06:54:26Z</time>
      </trkpt>
      <trkpt lat="44.88123" lon="6.66976">
        <ele>1439</ele>
        <time>2020-09-15T06:54:29Z</time>
      </trkpt>
      <trkpt lat="44.88107" lon="6.6698">
        <ele>1436</ele>
        <time>2020-09-15T06:54:32Z</time>
      </trkpt>
      <trkpt lat="44.8809" lon="6.66983">
        <ele>1433</ele>
        <time>2020-09-15T06:54:35Z</time>
      </trkpt>
      <trkpt lat="44.88056" lon="6.66984">
        <ele>1422</ele>
        <time>2020-09-15T06:54:41Z</time>
      </trkpt>
      <trkpt lat="44.88045" lon="6.66988">
        <ele>1420</ele>
        <time>2020-09-15T06:54:43Z</time>
      </trkpt>
      <trkpt lat="44.88039" lon="6.66995">
        <ele>1419</ele>
        <time>2020-09-15T06:54:44Z</time>
      </trkpt>
      <trkpt lat="44.88035" lon="6.67006">
        <ele>1420</ele>
        <time>2020-09-15T06:54:46Z</time>
      </trkpt>
      <trkpt lat="44.88035" lon="6.6705">
        <ele>1426</ele>
        <time>2020-09-15T06:54:51Z</time>
      </trkpt>
      <trkpt lat="44.88029" lon="6.67082">
        <ele>1428</ele>
        <time>2020-09-15T06:54:56Z</time>
      </trkpt>
      <trkpt lat="44.88027" lon="6.67115">
        <ele>1429</ele>
        <time>2020-09-15T06:55:00Z</time>
      </trkpt>
      <trkpt lat="44.88022" lon="6.6713">
        <ele>1428</ele>
        <time>2020-09-15T06:55:02Z</time>
      </trkpt>
      <trkpt lat="44.88007" lon="6.67143">
        <ele>1420</ele>
        <time>2020-09-15T06:55:05Z</time>
      </trkpt>
      <trkpt lat="44.87994" lon="6.67163">
        <ele>1416</ele>
        <time>2020-09-15T06:55:08Z</time>
      </trkpt>
      <trkpt lat="44.87994" lon="6.67173">
        <ele>1417</ele>
        <time>2020-09-15T06:55:10Z</time>
      </trkpt>
      <trkpt lat="44.88" lon="6.67202">
        <ele>1421</ele>
        <time>2020-09-15T06:55:13Z</time>
      </trkpt>
      <trkpt lat="44.87998" lon="6.6723">
        <ele>1423</ele>
        <time>2020-09-15T06:55:17Z</time>
      </trkpt>
      <trkpt lat="44.87998" lon="6.67259">
        <ele>1425</ele>
        <time>2020-09-15T06:55:21Z</time>
      </trkpt>
      <trkpt lat="44.88003" lon="6.67301">
        <ele>1430</ele>
        <time>2020-09-15T06:55:26Z</time>
      </trkpt>
      <trkpt lat="44.87989" lon="6.67375">
        <ele>1428</ele>
        <time>2020-09-15T06:55:36Z</time>
      </trkpt>
      <trkpt lat="44.87988" lon="6.67423">
        <ele>1430</ele>
        <time>2020-09-15T06:55:42Z</time>
      </trkpt>
      <trkpt lat="44.87985" lon="6.67439">
        <ele>1431</ele>
        <time>2020-09-15T06:55:44Z</time>
      </trkpt>
      <trkpt lat="44.87963" lon="6.67485">
        <ele>1426</ele>
        <time>2020-09-15T06:55:51Z</time>
      </trkpt>
      <trkpt lat="44.87955" lon="6.6751">
        <ele>1425</ele>
        <time>2020-09-15T06:55:54Z</time>
      </trkpt>
      <trkpt lat="44.87951" lon="6.6754">
        <ele>1428</ele>
        <time>2020-09-15T06:55:58Z</time>
      </trkpt>
      <trkpt lat="44.87947" lon="6.67599">
        <ele>1434</ele>
        <time>2020-09-15T06:56:06Z</time>
      </trkpt>
      <trkpt lat="44.87943" lon="6.6764">
        <ele>1434</ele>
        <time>2020-09-15T06:56:11Z</time>
      </trkpt>
      <trkpt lat="44.87934" lon="6.67688">
        <ele>1433</ele>
        <time>2020-09-15T06:56:17Z</time>
      </trkpt>
      <trkpt lat="44.87895" lon="6.67841">
        <ele>1442</ele>
        <time>2020-09-15T06:56:38Z</time>
      </trkpt>
      <trkpt lat="44.87885" lon="6.67915">
        <ele>1447</ele>
        <time>2020-09-15T06:56:47Z</time>
      </trkpt>
      <trkpt lat="44.87877" lon="6.67936">
        <ele>1448</ele>
        <time>2020-09-15T06:56:50Z</time>
      </trkpt>
      <trkpt lat="44.87802" lon="6.68106">
        <ele>1441</ele>
        <time>2020-09-15T06:57:15Z</time>
      </trkpt>
      <trkpt lat="44.87767" lon="6.68161">
        <ele>1434</ele>
        <time>2020-09-15T06:57:25Z</time>
      </trkpt>
      <trkpt lat="44.87724" lon="6.68274">
        <ele>1443</ele>
        <time>2020-09-15T06:57:41Z</time>
      </trkpt>
      <trkpt lat="44.87718" lon="6.68297">
        <ele>1444</ele>
        <time>2020-09-15T06:57:44Z</time>
      </trkpt>
      <trkpt lat="44.87715" lon="6.68323">
        <ele>1445</ele>
        <time>2020-09-15T06:57:47Z</time>
      </trkpt>
      <trkpt lat="44.87714" lon="6.68356">
        <ele>1447</ele>
        <time>2020-09-15T06:57:51Z</time>
      </trkpt>
      <trkpt lat="44.87712" lon="6.68682">
        <ele>1468</ele>
        <time>2020-09-15T06:58:32Z</time>
      </trkpt>
      <trkpt lat="44.87712" lon="6.68715">
        <ele>1470</ele>
        <time>2020-09-15T06:58:37Z</time>
      </trkpt>
      <trkpt lat="44.87705" lon="6.68781">
        <ele>1471</ele>
        <time>2020-09-15T06:58:45Z</time>
      </trkpt>
      <trkpt lat="44.87695" lon="6.68835">
        <ele>1472</ele>
        <time>2020-09-15T06:58:52Z</time>
      </trkpt>
      <trkpt lat="44.87682" lon="6.6888">
        <ele>1476</ele>
        <time>2020-09-15T06:58:58Z</time>
      </trkpt>
      <trkpt lat="44.87667" lon="6.68923">
        <ele>1479</ele>
        <time>2020-09-15T06:59:04Z</time>
      </trkpt>
      <trkpt lat="44.87652" lon="6.68959">
        <ele>1484</ele>
        <time>2020-09-15T06:59:10Z</time>
      </trkpt>
      <trkpt lat="44.8763" lon="6.69">
        <ele>1486</ele>
        <time>2020-09-15T06:59:16Z</time>
      </trkpt>
      <trkpt lat="44.87583" lon="6.69071">
        <ele>1491</ele>
        <time>2020-09-15T06:59:28Z</time>
      </trkpt>
      <trkpt lat="44.87545" lon="6.69136">
        <ele>1497</ele>
        <time>2020-09-15T06:59:39Z</time>
      </trkpt>
      <trkpt lat="44.87463" lon="6.69265">
        <ele>1507</ele>
        <time>2020-09-15T07:00:01Z</time>
      </trkpt>
      <trkpt lat="44.87444" lon="6.6929">
        <ele>1507</ele>
        <time>2020-09-15T07:00:05Z</time>
      </trkpt>
      <trkpt lat="44.87424" lon="6.69311">
        <ele>1506</ele>
        <time>2020-09-15T07:00:10Z</time>
      </trkpt>
      <trkpt lat="44.87387" lon="6.69344">
        <ele>1508</ele>
        <time>2020-09-15T07:00:18Z</time>
      </trkpt>
      <trkpt lat="44.87339" lon="6.69382">
        <ele>1510</ele>
        <time>2020-09-15T07:00:27Z</time>
      </trkpt>
      <trkpt lat="44.87322" lon="6.69402">
        <ele>1511</ele>
        <time>2020-09-15T07:00:31Z</time>
      </trkpt>
      <trkpt lat="44.87305" lon="6.69431">
        <ele>1511</ele>
        <time>2020-09-15T07:00:36Z</time>
      </trkpt>
      <trkpt lat="44.87295" lon="6.69457">
        <ele>1511</ele>
        <time>2020-09-15T07:00:40Z</time>
      </trkpt>
      <trkpt lat="44.87287" lon="6.69491">
        <ele>1512</ele>
        <time>2020-09-15T07:00:44Z</time>
      </trkpt>
      <trkpt lat="44.87284" lon="6.69525">
        <ele>1515</ele>
        <time>2020-09-15T07:00:49Z</time>
      </trkpt>
      <trkpt lat="44.87281" lon="6.69583">
        <ele>1522</ele>
        <time>2020-09-15T07:00:56Z</time>
      </trkpt>
      <trkpt lat="44.8728" lon="6.69673">
        <ele>1531</ele>
        <time>2020-09-15T07:01:07Z</time>
      </trkpt>
      <trkpt lat="44.87277" lon="6.69705">
        <ele>1531</ele>
        <time>2020-09-15T07:01:11Z</time>
      </trkpt>
      <trkpt lat="44.87271" lon="6.69752">
        <ele>1530</ele>
        <time>2020-09-15T07:01:17Z</time>
      </trkpt>
      <trkpt lat="44.87218" lon="6.70046">
        <ele>1541</ele>
        <time>2020-09-15T07:01:56Z</time>
      </trkpt>
      <trkpt lat="44.87212" lon="6.70068">
        <ele>1541</ele>
        <time>2020-09-15T07:01:59Z</time>
      </trkpt>
      <trkpt lat="44.87205" lon="6.70088">
        <ele>1541</ele>
        <time>2020-09-15T07:02:01Z</time>
      </trkpt>
      <trkpt lat="44.8719" lon="6.70117">
        <ele>1544</ele>
        <time>2020-09-15T07:02:06Z</time>
      </trkpt>
      <trkpt lat="44.87164" lon="6.70148">
        <ele>1545</ele>
        <time>2020-09-15T07:02:12Z</time>
      </trkpt>
      <trkpt lat="44.87148" lon="6.70158">
        <ele>1545</ele>
        <time>2020-09-15T07:02:15Z</time>
      </trkpt>
      <trkpt lat="44.87121" lon="6.7017">
        <ele>1544</ele>
        <time>2020-09-15T07:02:20Z</time>
      </trkpt>
      <trkpt lat="44.87024" lon="6.70192">
        <ele>1536</ele>
        <time>2020-09-15T07:02:38Z</time>
      </trkpt>
      <trkpt lat="44.86997" lon="6.70205">
        <ele>1536</ele>
        <time>2020-09-15T07:02:43Z</time>
      </trkpt>
      <trkpt lat="44.86969" lon="6.70228">
        <ele>1539</ele>
        <time>2020-09-15T07:02:48Z</time>
      </trkpt>
      <trkpt lat="44.86946" lon="6.70258">
        <ele>1540</ele>
        <time>2020-09-15T07:02:54Z</time>
      </trkpt>
      <trkpt lat="44.8693" lon="6.70289">
        <ele>1543</ele>
        <time>2020-09-15T07:02:59Z</time>
      </trkpt>
      <trkpt lat="44.8692" lon="6.70316">
        <ele>1544</ele>
        <time>2020-09-15T07:03:03Z</time>
      </trkpt>
      <trkpt lat="44.86913" lon="6.70351">
        <ele>1549</ele>
        <time>2020-09-15T07:03:07Z</time>
      </trkpt>
      <trkpt lat="44.869" lon="6.7047">
        <ele>1563</ele>
        <time>2020-09-15T07:03:23Z</time>
      </trkpt>
      <trkpt lat="44.86877" lon="6.7058">
        <ele>1569</ele>
        <time>2020-09-15T07:03:37Z</time>
      </trkpt>
      <trkpt lat="44.86847" lon="6.707">
        <ele>1569</ele>
        <time>2020-09-15T07:03:53Z</time>
      </trkpt>
      <trkpt lat="44.86789" lon="6.70904">
        <ele>1561</ele>
        <time>2020-09-15T07:04:21Z</time>
      </trkpt>
      <trkpt lat="44.86782" lon="6.7092">
        <ele>1561</ele>
        <time>2020-09-15T07:04:23Z</time>
      </trkpt>
      <trkpt lat="44.86751" lon="6.70959">
        <ele>1559</ele>
        <time>2020-09-15T07:04:30Z</time>
      </trkpt>
      <trkpt lat="44.86743" lon="6.70979">
        <ele>1562</ele>
        <time>2020-09-15T07:04:33Z</time>
      </trkpt>
      <trkpt lat="44.86737" lon="6.71012">
        <ele>1566</ele>
        <time>2020-09-15T07:04:38Z</time>
      </trkpt>
      <trkpt lat="44.86739" lon="6.71042">
        <ele>1569</ele>
        <time>2020-09-15T07:04:41Z</time>
      </trkpt>
      <trkpt lat="44.86761" lon="6.71163">
        <ele>1580</ele>
        <time>2020-09-15T07:04:57Z</time>
      </trkpt>
      <trkpt lat="44.86773" lon="6.71211">
        <ele>1586</ele>
        <time>2020-09-15T07:05:04Z</time>
      </trkpt>
      <trkpt lat="44.86788" lon="6.71258">
        <ele>1593</ele>
        <time>2020-09-15T07:05:10Z</time>
      </trkpt>
      <trkpt lat="44.86805" lon="6.71362">
        <ele>1593</ele>
        <time>2020-09-15T07:05:24Z</time>
      </trkpt>
      <trkpt lat="44.86802" lon="6.71393">
        <ele>1589</ele>
        <time>2020-09-15T07:05:28Z</time>
      </trkpt>
      <trkpt lat="44.86782" lon="6.71463">
        <ele>1582</ele>
        <time>2020-09-15T07:05:37Z</time>
      </trkpt>
      <trkpt lat="44.86776" lon="6.71484">
        <ele>1582</ele>
        <time>2020-09-15T07:05:40Z</time>
      </trkpt>
      <trkpt lat="44.86769" lon="6.71515">
        <ele>1582</ele>
        <time>2020-09-15T07:05:44Z</time>
      </trkpt>
      <trkpt lat="44.86764" lon="6.71549">
        <ele>1583</ele>
        <time>2020-09-15T07:05:48Z</time>
      </trkpt>
      <trkpt lat="44.86764" lon="6.71592">
        <ele>1585</ele>
        <time>2020-09-15T07:05:54Z</time>
      </trkpt>
      <trkpt lat="44.86774" lon="6.7168">
        <ele>1589</ele>
        <time>2020-09-15T07:06:05Z</time>
      </trkpt>
      <trkpt lat="44.86784" lon="6.71719">
        <ele>1592</ele>
        <time>2020-09-15T07:06:10Z</time>
      </trkpt>
      <trkpt lat="44.86805" lon="6.71785">
        <ele>1598</ele>
        <time>2020-09-15T07:06:19Z</time>
      </trkpt>
      <trkpt lat="44.86837" lon="6.71882">
        <ele>1604</ele>
        <time>2020-09-15T07:06:33Z</time>
      </trkpt>
      <trkpt lat="44.86857" lon="6.71932">
        <ele>1608</ele>
        <time>2020-09-15T07:06:40Z</time>
      </trkpt>
      <trkpt lat="44.86863" lon="6.71954">
        <ele>1608</ele>
        <time>2020-09-15T07:06:43Z</time>
      </trkpt>
      <trkpt lat="44.86863" lon="6.71968">
        <ele>1607</ele>
        <time>2020-09-15T07:06:45Z</time>
      </trkpt>
      <trkpt lat="44.86858" lon="6.7198">
        <ele>1605</ele>
        <time>2020-09-15T07:06:47Z</time>
      </trkpt>
      <trkpt lat="44.86835" lon="6.72015">
        <ele>1600</ele>
        <time>2020-09-15T07:06:53Z</time>
      </trkpt>
      <trkpt lat="44.86823" lon="6.72043">
        <ele>1601</ele>
        <time>2020-09-15T07:06:57Z</time>
      </trkpt>
      <trkpt lat="44.86819" lon="6.72084">
        <ele>1604</ele>
        <time>2020-09-15T07:07:02Z</time>
      </trkpt>
      <trkpt lat="44.86824" lon="6.72149">
        <ele>1608</ele>
        <time>2020-09-15T07:07:10Z</time>
      </trkpt>
      <trkpt lat="44.8683" lon="6.72192">
        <ele>1612</ele>
        <time>2020-09-15T07:07:16Z</time>
      </trkpt>
      <trkpt lat="44.86839" lon="6.72232">
        <ele>1616</ele>
        <time>2020-09-15T07:07:21Z</time>
      </trkpt>
      <trkpt lat="44.86853" lon="6.7227">
        <ele>1619</ele>
        <time>2020-09-15T07:07:26Z</time>
      </trkpt>
      <trkpt lat="44.86869" lon="6.72308">
        <ele>1621</ele>
        <time>2020-09-15T07:07:32Z</time>
      </trkpt>
      <trkpt lat="44.87008" lon="6.72549">
        <ele>1630</ele>
        <time>2020-09-15T07:08:11Z</time>
      </trkpt>
      <trkpt lat="44.87012" lon="6.72562">
        <ele>1631</ele>
        <time>2020-09-15T07:08:13Z</time>
      </trkpt>
      <trkpt lat="44.87014" lon="6.72574">
        <ele>1632</ele>
        <time>2020-09-15T07:08:15Z</time>
      </trkpt>
      <trkpt lat="44.87012" lon="6.72589">
        <ele>1634</ele>
        <time>2020-09-15T07:08:17Z</time>
      </trkpt>
      <trkpt lat="44.87005" lon="6.72603">
        <ele>1635</ele>
        <time>2020-09-15T07:08:19Z</time>
      </trkpt>
      <trkpt lat="44.86997" lon="6.72613">
        <ele>1637</ele>
        <time>2020-09-15T07:08:21Z</time>
      </trkpt>
      <trkpt lat="44.86989" lon="6.7262">
        <ele>1639</ele>
        <time>2020-09-15T07:08:22Z</time>
      </trkpt>
      <trkpt lat="44.86979" lon="6.72621">
        <ele>1640</ele>
        <time>2020-09-15T07:08:24Z</time>
      </trkpt>
      <trkpt lat="44.86961" lon="6.72613">
        <ele>1642</ele>
        <time>2020-09-15T07:08:27Z</time>
      </trkpt>
      <trkpt lat="44.86923" lon="6.72557">
        <ele>1640</ele>
        <time>2020-09-15T07:08:37Z</time>
      </trkpt>
      <trkpt lat="44.86909" lon="6.72547">
        <ele>1641</ele>
        <time>2020-09-15T07:08:40Z</time>
      </trkpt>
      <trkpt lat="44.86882" lon="6.72537">
        <ele>1644</ele>
        <time>2020-09-15T07:08:45Z</time>
      </trkpt>
      <trkpt lat="44.86869" lon="6.72527">
        <ele>1645</ele>
        <time>2020-09-15T07:08:48Z</time>
      </trkpt>
      <trkpt lat="44.86844" lon="6.72493">
        <ele>1644</ele>
        <time>2020-09-15T07:08:54Z</time>
      </trkpt>
      <trkpt lat="44.86831" lon="6.72484">
        <ele>1646</ele>
        <time>2020-09-15T07:08:56Z</time>
      </trkpt>
      <trkpt lat="44.8679" lon="6.72475">
        <ele>1650</ele>
        <time>2020-09-15T07:09:04Z</time>
      </trkpt>
      <trkpt lat="44.86733" lon="6.72465">
        <ele>1655</ele>
        <time>2020-09-15T07:09:14Z</time>
      </trkpt>
      <trkpt lat="44.86711" lon="6.72468">
        <ele>1658</ele>
        <time>2020-09-15T07:09:18Z</time>
      </trkpt>
      <trkpt lat="44.86677" lon="6.7248">
        <ele>1663</ele>
        <time>2020-09-15T07:09:24Z</time>
      </trkpt>
      <trkpt lat="44.86663" lon="6.72479">
        <ele>1664</ele>
        <time>2020-09-15T07:09:27Z</time>
      </trkpt>
      <trkpt lat="44.86624" lon="6.72454">
        <ele>1664</ele>
        <time>2020-09-15T07:09:34Z</time>
      </trkpt>
      <trkpt lat="44.86613" lon="6.72449">
        <ele>1664</ele>
        <time>2020-09-15T07:09:36Z</time>
      </trkpt>
      <trkpt lat="44.86599" lon="6.72447">
        <ele>1665</ele>
        <time>2020-09-15T07:09:39Z</time>
      </trkpt>
      <trkpt lat="44.86566" lon="6.72452">
        <ele>1670</ele>
        <time>2020-09-15T07:09:45Z</time>
      </trkpt>
      <trkpt lat="44.8653" lon="6.72455">
        <ele>1674</ele>
        <time>2020-09-15T07:09:51Z</time>
      </trkpt>
      <trkpt lat="44.86498" lon="6.72447">
        <ele>1676</ele>
        <time>2020-09-15T07:09:57Z</time>
      </trkpt>
      <trkpt lat="44.86451" lon="6.72428">
        <ele>1677</ele>
        <time>2020-09-15T07:10:06Z</time>
      </trkpt>
      <trkpt lat="44.86426" lon="6.72424">
        <ele>1678</ele>
        <time>2020-09-15T07:10:10Z</time>
      </trkpt>
      <trkpt lat="44.86403" lon="6.72426">
        <ele>1681</ele>
        <time>2020-09-15T07:10:14Z</time>
      </trkpt>
      <trkpt lat="44.86342" lon="6.72441">
        <ele>1693</ele>
        <time>2020-09-15T07:10:25Z</time>
      </trkpt>
      <trkpt lat="44.86327" lon="6.72449">
        <ele>1695</ele>
        <time>2020-09-15T07:10:28Z</time>
      </trkpt>
      <trkpt lat="44.86276" lon="6.72489">
        <ele>1702</ele>
        <time>2020-09-15T07:10:38Z</time>
      </trkpt>
      <trkpt lat="44.86262" lon="6.7249">
        <ele>1702</ele>
        <time>2020-09-15T07:10:41Z</time>
      </trkpt>
      <trkpt lat="44.86233" lon="6.72483">
        <ele>1702</ele>
        <time>2020-09-15T07:10:46Z</time>
      </trkpt>
      <trkpt lat="44.86216" lon="6.72483">
        <ele>1702</ele>
        <time>2020-09-15T07:10:49Z</time>
      </trkpt>
      <trkpt lat="44.8616" lon="6.72501">
        <ele>1706</ele>
        <time>2020-09-15T07:10:59Z</time>
      </trkpt>
      <trkpt lat="44.86137" lon="6.72505">
        <ele>1708</ele>
        <time>2020-09-15T07:11:03Z</time>
      </trkpt>
      <trkpt lat="44.86113" lon="6.72504">
        <ele>1709</ele>
        <time>2020-09-15T07:11:08Z</time>
      </trkpt>
      <trkpt lat="44.86031" lon="6.72488">
        <ele>1715</ele>
        <time>2020-09-15T07:11:22Z</time>
      </trkpt>
      <trkpt lat="44.85994" lon="6.72485">
        <ele>1718</ele>
        <time>2020-09-15T07:11:29Z</time>
      </trkpt>
      <trkpt lat="44.85936" lon="6.7249">
        <ele>1720</ele>
        <time>2020-09-15T07:11:39Z</time>
      </trkpt>
      <trkpt lat="44.8589" lon="6.725">
        <ele>1723</ele>
        <time>2020-09-15T07:11:48Z</time>
      </trkpt>
      <trkpt lat="44.8587" lon="6.72509">
        <ele>1726</ele>
        <time>2020-09-15T07:11:51Z</time>
      </trkpt>
      <trkpt lat="44.8568" lon="6.72628">
        <ele>1744</ele>
        <time>2020-09-15T07:12:28Z</time>
      </trkpt>
      <trkpt lat="44.85584" lon="6.72696">
        <ele>1746</ele>
        <time>2020-09-15T07:12:48Z</time>
      </trkpt>
      <trkpt lat="44.85557" lon="6.72711">
        <ele>1747</ele>
        <time>2020-09-15T07:12:53Z</time>
      </trkpt>
      <trkpt lat="44.85529" lon="6.72717">
        <ele>1748</ele>
        <time>2020-09-15T07:12:58Z</time>
      </trkpt>
      <trkpt lat="44.85501" lon="6.72713">
        <ele>1750</ele>
        <time>2020-09-15T07:13:03Z</time>
      </trkpt>
      <trkpt lat="44.85472" lon="6.72705">
        <ele>1751</ele>
        <time>2020-09-15T07:13:08Z</time>
      </trkpt>
      <trkpt lat="44.85451" lon="6.72689">
        <ele>1752</ele>
        <time>2020-09-15T07:13:12Z</time>
      </trkpt>
      <trkpt lat="44.85443" lon="6.7268">
        <ele>1752</ele>
        <time>2020-09-15T07:13:14Z</time>
      </trkpt>
      <trkpt lat="44.85437" lon="6.72666">
        <ele>1753</ele>
        <time>2020-09-15T07:13:16Z</time>
      </trkpt>
      <trkpt lat="44.8542" lon="6.72619">
        <ele>1755</ele>
        <time>2020-09-15T07:13:23Z</time>
      </trkpt>
      <trkpt lat="44.854" lon="6.72582">
        <ele>1757</ele>
        <time>2020-09-15T07:13:29Z</time>
      </trkpt>
      <trkpt lat="44.8539" lon="6.72567">
        <ele>1758</ele>
        <time>2020-09-15T07:13:31Z</time>
      </trkpt>
      <trkpt lat="44.85336" lon="6.725">
        <ele>1764</ele>
        <time>2020-09-15T07:13:44Z</time>
      </trkpt>
      <trkpt lat="44.85298" lon="6.7246">
        <ele>1771</ele>
        <time>2020-09-15T07:13:52Z</time>
      </trkpt>
      <trkpt lat="44.85285" lon="6.72451">
        <ele>1773</ele>
        <time>2020-09-15T07:13:55Z</time>
      </trkpt>
      <trkpt lat="44.85269" lon="6.72448">
        <ele>1773</ele>
        <time>2020-09-15T07:13:58Z</time>
      </trkpt>
      <trkpt lat="44.85234" lon="6.72449">
        <ele>1775</ele>
        <time>2020-09-15T07:14:04Z</time>
      </trkpt>
      <trkpt lat="44.85133" lon="6.72464">
        <ele>1784</ele>
        <time>2020-09-15T07:14:22Z</time>
      </trkpt>
      <trkpt lat="44.8506" lon="6.72497">
        <ele>1789</ele>
        <time>2020-09-15T07:14:36Z</time>
      </trkpt>
      <trkpt lat="44.85027" lon="6.72506">
        <ele>1793</ele>
        <time>2020-09-15T07:14:42Z</time>
      </trkpt>
      <trkpt lat="44.85011" lon="6.72502">
        <ele>1795</ele>
        <time>2020-09-15T07:14:45Z</time>
      </trkpt>
      <trkpt lat="44.8497" lon="6.72475">
        <ele>1805</ele>
        <time>2020-09-15T07:14:53Z</time>
      </trkpt>
      <trkpt lat="44.84953" lon="6.72469">
        <ele>1808</ele>
        <time>2020-09-15T07:14:56Z</time>
      </trkpt>
      <trkpt lat="44.84876" lon="6.72465">
        <ele>1817</ele>
        <time>2020-09-15T07:15:10Z</time>
      </trkpt>
      <trkpt lat="44.8484" lon="6.7247">
        <ele>1821</ele>
        <time>2020-09-15T07:15:16Z</time>
      </trkpt>
      <trkpt lat="44.84787" lon="6.72471">
        <ele>1828</ele>
        <time>2020-09-15T07:15:25Z</time>
      </trkpt>
      <trkpt lat="44.84772" lon="6.72475">
        <ele>1829</ele>
        <time>2020-09-15T07:15:28Z</time>
      </trkpt>
      <trkpt lat="44.84757" lon="6.72482">
        <ele>1829</ele>
        <time>2020-09-15T07:15:31Z</time>
      </trkpt>
      <trkpt lat="44.84691" lon="6.72539">
        <ele>1837</ele>
        <time>2020-09-15T07:15:45Z</time>
      </trkpt>
      <trkpt lat="44.84671" lon="6.72555">
        <ele>1838</ele>
        <time>2020-09-15T07:15:49Z</time>
      </trkpt>
      <trkpt lat="44.84641" lon="6.72569">
        <ele>1838</ele>
        <time>2020-09-15T07:15:55Z</time>
      </trkpt>
      <trkpt lat="44.84614" lon="6.7257">
        <ele>1839</ele>
        <time>2020-09-15T07:15:59Z</time>
      </trkpt>
      <trkpt lat="44.84582" lon="6.7256">
        <ele>1841</ele>
        <time>2020-09-15T07:16:05Z</time>
      </trkpt>
      <trkpt lat="44.8457" lon="6.72553">
        <ele>1842</ele>
        <time>2020-09-15T07:16:07Z</time>
      </trkpt>
      <trkpt lat="44.84542" lon="6.72531">
        <ele>1844</ele>
        <time>2020-09-15T07:16:13Z</time>
      </trkpt>
      <trkpt lat="44.84498" lon="6.72488">
        <ele>1849</ele>
        <time>2020-09-15T07:16:23Z</time>
      </trkpt>
      <trkpt lat="44.84467" lon="6.72467">
        <ele>1853</ele>
        <time>2020-09-15T07:16:29Z</time>
      </trkpt>
      <trkpt lat="44.84421" lon="6.72441">
        <ele>1858</ele>
        <time>2020-09-15T07:16:38Z</time>
      </trkpt>
      <trkpt lat="44.84416" lon="6.72433">
        <ele>1859</ele>
        <time>2020-09-15T07:16:39Z</time>
      </trkpt>
      <trkpt lat="44.84416" lon="6.72424">
        <ele>1860</ele>
        <time>2020-09-15T07:16:40Z</time>
      </trkpt>
      <trkpt lat="44.84418" lon="6.72418">
        <ele>1861</ele>
        <time>2020-09-15T07:16:41Z</time>
      </trkpt>
      <trkpt lat="44.84423" lon="6.72414">
        <ele>1862</ele>
        <time>2020-09-15T07:16:42Z</time>
      </trkpt>
      <trkpt lat="44.8443" lon="6.72414">
        <ele>1862</ele>
        <time>2020-09-15T07:16:43Z</time>
      </trkpt>
      <trkpt lat="44.84462" lon="6.72432">
        <ele>1859</ele>
        <time>2020-09-15T07:16:49Z</time>
      </trkpt>
      <trkpt lat="44.84529" lon="6.72448">
        <ele>1857</ele>
        <time>2020-09-15T07:17:01Z</time>
      </trkpt>
      <trkpt lat="44.84536" lon="6.72446">
        <ele>1858</ele>
        <time>2020-09-15T07:17:03Z</time>
      </trkpt>
      <trkpt lat="44.84541" lon="6.72438">
        <ele>1859</ele>
        <time>2020-09-15T07:17:04Z</time>
      </trkpt>
      <trkpt lat="44.8454" lon="6.72425">
        <ele>1862</ele>
        <time>2020-09-15T07:17:06Z</time>
      </trkpt>
      <trkpt lat="44.84537" lon="6.7242">
        <ele>1863</ele>
        <time>2020-09-15T07:17:07Z</time>
      </trkpt>
      <trkpt lat="44.84513" lon="6.72414">
        <ele>1864</ele>
        <time>2020-09-15T07:17:11Z</time>
      </trkpt>
      <trkpt lat="44.84497" lon="6.72407">
        <ele>1865</ele>
        <time>2020-09-15T07:17:14Z</time>
      </trkpt>
      <trkpt lat="44.84485" lon="6.72398">
        <ele>1867</ele>
        <time>2020-09-15T07:17:16Z</time>
      </trkpt>
      <trkpt lat="44.84457" lon="6.72372">
        <ele>1875</ele>
        <time>2020-09-15T07:17:22Z</time>
      </trkpt>
      <trkpt lat="44.84431" lon="6.72358">
        <ele>1881</ele>
        <time>2020-09-15T07:17:27Z</time>
      </trkpt>
      <trkpt lat="44.84397" lon="6.72356">
        <ele>1883</ele>
        <time>2020-09-15T07:17:33Z</time>
      </trkpt>
      <trkpt lat="44.84317" lon="6.72365">
        <ele>1886</ele>
        <time>2020-09-15T07:17:48Z</time>
      </trkpt>
      <trkpt lat="44.84291" lon="6.7236">
        <ele>1890</ele>
        <time>2020-09-15T07:17:52Z</time>
      </trkpt>
      <trkpt lat="44.8427" lon="6.7236">
        <ele>1891</ele>
        <time>2020-09-15T07:17:56Z</time>
      </trkpt>
      <trkpt lat="44.84234" lon="6.72368">
        <ele>1892</ele>
        <time>2020-09-15T07:18:02Z</time>
      </trkpt>
      <trkpt lat="44.8422" lon="6.72369">
        <ele>1894</ele>
        <time>2020-09-15T07:18:05Z</time>
      </trkpt>
      <trkpt lat="44.84188" lon="6.72363">
        <ele>1899</ele>
        <time>2020-09-15T07:18:11Z</time>
      </trkpt>
      <trkpt lat="44.84137" lon="6.72365">
        <ele>1903</ele>
        <time>2020-09-15T07:18:20Z</time>
      </trkpt>
      <trkpt lat="44.8401" lon="6.7234">
        <ele>1919</ele>
        <time>2020-09-15T07:18:43Z</time>
      </trkpt>
      <trkpt lat="44.83957" lon="6.72342">
        <ele>1925</ele>
        <time>2020-09-15T07:18:52Z</time>
      </trkpt>
      <trkpt lat="44.83915" lon="6.72337">
        <ele>1931</ele>
        <time>2020-09-15T07:18:59Z</time>
      </trkpt>
      <trkpt lat="44.8389" lon="6.7234">
        <ele>1932</ele>
        <time>2020-09-15T07:19:04Z</time>
      </trkpt>
      <trkpt lat="44.83859" lon="6.7235">
        <ele>1934</ele>
        <time>2020-09-15T07:19:10Z</time>
      </trkpt>
      <trkpt lat="44.83842" lon="6.72352">
        <ele>1935</ele>
        <time>2020-09-15T07:19:13Z</time>
      </trkpt>
      <trkpt lat="44.83831" lon="6.72349">
        <ele>1936</ele>
        <time>2020-09-15T07:19:15Z</time>
      </trkpt>
      <trkpt lat="44.83795" lon="6.72328">
        <ele>1942</ele>
        <time>2020-09-15T07:19:22Z</time>
      </trkpt>
      <trkpt lat="44.8378" lon="6.72321">
        <ele>1945</ele>
        <time>2020-09-15T07:19:24Z</time>
      </trkpt>
      <trkpt lat="44.83746" lon="6.72318">
        <ele>1948</ele>
        <time>2020-09-15T07:19:30Z</time>
      </trkpt>
      <trkpt lat="44.83733" lon="6.72315">
        <ele>1950</ele>
        <time>2020-09-15T07:19:33Z</time>
      </trkpt>
      <trkpt lat="44.83677" lon="6.7229">
        <ele>1959</ele>
        <time>2020-09-15T07:19:43Z</time>
      </trkpt>
      <trkpt lat="44.83646" lon="6.72283">
        <ele>1963</ele>
        <time>2020-09-15T07:19:49Z</time>
      </trkpt>
      <trkpt lat="44.83644" lon="6.7228">
        <ele>1964</ele>
        <time>2020-09-15T07:19:49Z</time>
      </trkpt>
      <trkpt lat="44.83641" lon="6.72271">
        <ele>1966</ele>
        <time>2020-09-15T07:19:51Z</time>
      </trkpt>
      <trkpt lat="44.83644" lon="6.72263">
        <ele>1967</ele>
        <time>2020-09-15T07:19:52Z</time>
      </trkpt>
      <trkpt lat="44.83647" lon="6.7226">
        <ele>1967</ele>
        <time>2020-09-15T07:19:52Z</time>
      </trkpt>
      <trkpt lat="44.83759" lon="6.72257">
        <ele>1965</ele>
        <time>2020-09-15T07:20:12Z</time>
      </trkpt>
      <trkpt lat="44.83761" lon="6.72254">
        <ele>1966</ele>
        <time>2020-09-15T07:20:13Z</time>
      </trkpt>
      <trkpt lat="44.83762" lon="6.72242">
        <ele>1971</ele>
        <time>2020-09-15T07:20:14Z</time>
      </trkpt>
      <trkpt lat="44.8376" lon="6.72238">
        <ele>1973</ele>
        <time>2020-09-15T07:20:15Z</time>
      </trkpt>
      <trkpt lat="44.83753" lon="6.72234">
        <ele>1974</ele>
        <time>2020-09-15T07:20:16Z</time>
      </trkpt>
      <trkpt lat="44.83735" lon="6.72237">
        <ele>1972</ele>
        <time>2020-09-15T07:20:20Z</time>
      </trkpt>
      <trkpt lat="44.83714" lon="6.72234">
        <ele>1973</ele>
        <time>2020-09-15T07:20:23Z</time>
      </trkpt>
      <trkpt lat="44.83604" lon="6.72178">
        <ele>1988</ele>
        <time>2020-09-15T07:20:44Z</time>
      </trkpt>
      <trkpt lat="44.83582" lon="6.72179">
        <ele>1986</ele>
        <time>2020-09-15T07:20:48Z</time>
      </trkpt>
      <trkpt lat="44.83564" lon="6.72184">
        <ele>1990</ele>
        <time>2020-09-15T07:20:51Z</time>
      </trkpt>
      <trkpt lat="44.83552" lon="6.72191">
        <ele>1992</ele>
        <time>2020-09-15T07:20:54Z</time>
      </trkpt>
      <trkpt lat="44.83546" lon="6.72197">
        <ele>1993</ele>
        <time>2020-09-15T07:20:55Z</time>
      </trkpt>
      <trkpt lat="44.83538" lon="6.72208">
        <ele>1995</ele>
        <time>2020-09-15T07:20:57Z</time>
      </trkpt>
      <trkpt lat="44.83534" lon="6.72217">
        <ele>1995</ele>
        <time>2020-09-15T07:20:58Z</time>
      </trkpt>
      <trkpt lat="44.83522" lon="6.72251">
        <ele>1997</ele>
        <time>2020-09-15T07:21:03Z</time>
      </trkpt>
      <trkpt lat="44.83511" lon="6.72316">
        <ele>1999</ele>
        <time>2020-09-15T07:21:11Z</time>
      </trkpt>
      <trkpt lat="44.83508" lon="6.72323">
        <ele>2000</ele>
        <time>2020-09-15T07:21:12Z</time>
      </trkpt>
      <trkpt lat="44.83505" lon="6.72325">
        <ele>2001</ele>
        <time>2020-09-15T07:21:13Z</time>
      </trkpt>
      <trkpt lat="44.83497" lon="6.72325">
        <ele>2004</ele>
        <time>2020-09-15T07:21:14Z</time>
      </trkpt>
      <trkpt lat="44.83494" lon="6.72322">
        <ele>2005</ele>
        <time>2020-09-15T07:21:15Z</time>
      </trkpt>
      <trkpt lat="44.83492" lon="6.72316">
        <ele>2006</ele>
        <time>2020-09-15T07:21:16Z</time>
      </trkpt>
      <trkpt lat="44.83498" lon="6.72283">
        <ele>2005</ele>
        <time>2020-09-15T07:21:20Z</time>
      </trkpt>
      <trkpt lat="44.83495" lon="6.72229">
        <ele>2008</ele>
        <time>2020-09-15T07:21:27Z</time>
      </trkpt>
      <trkpt lat="44.83496" lon="6.72197">
        <ele>2008</ele>
        <time>2020-09-15T07:21:31Z</time>
      </trkpt>
      <trkpt lat="44.835" lon="6.72181">
        <ele>2007</ele>
        <time>2020-09-15T07:21:33Z</time>
      </trkpt>
      <trkpt lat="44.83509" lon="6.72154">
        <ele>2009</ele>
        <time>2020-09-15T07:21:37Z</time>
      </trkpt>
      <trkpt lat="44.83505" lon="6.72143">
        <ele>2013</ele>
        <time>2020-09-15T07:21:39Z</time>
      </trkpt>
      <trkpt lat="44.83498" lon="6.72141">
        <ele>2016</ele>
        <time>2020-09-15T07:21:40Z</time>
      </trkpt>
      <trkpt lat="44.83494" lon="6.72144">
        <ele>2017</ele>
        <time>2020-09-15T07:21:41Z</time>
      </trkpt>
      <trkpt lat="44.83491" lon="6.72151">
        <ele>2017</ele>
        <time>2020-09-15T07:21:42Z</time>
      </trkpt>
      <trkpt lat="44.83477" lon="6.72204">
        <ele>2017</ele>
        <time>2020-09-15T07:21:49Z</time>
      </trkpt>
      <trkpt lat="44.83474" lon="6.72217">
        <ele>2018</ele>
        <time>2020-09-15T07:21:51Z</time>
      </trkpt>
      <trkpt lat="44.83469" lon="6.72261">
        <ele>2017</ele>
        <time>2020-09-15T07:21:56Z</time>
      </trkpt>
      <trkpt lat="44.83458" lon="6.723">
        <ele>2018</ele>
        <time>2020-09-15T07:22:02Z</time>
      </trkpt>
      <trkpt lat="44.83446" lon="6.72319">
        <ele>2020</ele>
        <time>2020-09-15T07:22:05Z</time>
      </trkpt>
      <trkpt lat="44.83425" lon="6.72345">
        <ele>2025</ele>
        <time>2020-09-15T07:22:10Z</time>
      </trkpt>
      <trkpt lat="44.83409" lon="6.72361">
        <ele>2031</ele>
        <time>2020-09-15T07:22:13Z</time>
      </trkpt>
      <trkpt lat="44.83401" lon="6.72361">
        <ele>2033</ele>
        <time>2020-09-15T07:22:15Z</time>
      </trkpt>
      <trkpt lat="44.83397" lon="6.72358">
        <ele>2033</ele>
        <time>2020-09-15T07:22:15Z</time>
      </trkpt>
      <trkpt lat="44.83394" lon="6.72353">
        <ele>2034</ele>
        <time>2020-09-15T07:22:16Z</time>
      </trkpt>
      <trkpt lat="44.83394" lon="6.72347">
        <ele>2033</ele>
        <time>2020-09-15T07:22:17Z</time>
      </trkpt>
      <trkpt lat="44.83395" lon="6.72341">
        <ele>2033</ele>
        <time>2020-09-15T07:22:18Z</time>
      </trkpt>
      <trkpt lat="44.83425" lon="6.72259">
        <ele>2034</ele>
        <time>2020-09-15T07:22:29Z</time>
      </trkpt>
      <trkpt lat="44.83426" lon="6.72253">
        <ele>2034</ele>
        <time>2020-09-15T07:22:30Z</time>
      </trkpt>
      <trkpt lat="44.83424" lon="6.72246">
        <ele>2036</ele>
        <time>2020-09-15T07:22:31Z</time>
      </trkpt>
      <trkpt lat="44.83421" lon="6.72242">
        <ele>2038</ele>
        <time>2020-09-15T07:22:32Z</time>
      </trkpt>
      <trkpt lat="44.83417" lon="6.7224">
        <ele>2040</ele>
        <time>2020-09-15T07:22:33Z</time>
      </trkpt>
      <trkpt lat="44.83411" lon="6.72244">
        <ele>2041</ele>
        <time>2020-09-15T07:22:34Z</time>
      </trkpt>
      <trkpt lat="44.83396" lon="6.7227">
        <ele>2041</ele>
        <time>2020-09-15T07:22:38Z</time>
      </trkpt>
      <trkpt lat="44.8338" lon="6.72289">
        <ele>2042</ele>
        <time>2020-09-15T07:22:42Z</time>
      </trkpt>
      <trkpt lat="44.83365" lon="6.72301">
        <ele>2044</ele>
        <time>2020-09-15T07:22:45Z</time>
      </trkpt>
      <trkpt lat="44.83324" lon="6.72325">
        <ele>2051</ele>
        <time>2020-09-15T07:22:53Z</time>
      </trkpt>
      <trkpt lat="44.83315" lon="6.72335">
        <ele>2053</ele>
        <time>2020-09-15T07:22:55Z</time>
      </trkpt>
      <trkpt lat="44.83304" lon="6.72354">
        <ele>2058</ele>
        <time>2020-09-15T07:22:58Z</time>
      </trkpt>
      <trkpt lat="44.83296" lon="6.72357">
        <ele>2061</ele>
        <time>2020-09-15T07:22:59Z</time>
      </trkpt>
      <trkpt lat="44.83292" lon="6.72355">
        <ele>2063</ele>
        <time>2020-09-15T07:23:00Z</time>
      </trkpt>
      <trkpt lat="44.83289" lon="6.72349">
        <ele>2063</ele>
        <time>2020-09-15T07:23:01Z</time>
      </trkpt>
      <trkpt lat="44.83289" lon="6.72335">
        <ele>2062</ele>
        <time>2020-09-15T07:23:03Z</time>
      </trkpt>
      <trkpt lat="44.83291" lon="6.72323">
        <ele>2063</ele>
        <time>2020-09-15T07:23:04Z</time>
      </trkpt>
      <trkpt lat="44.83297" lon="6.72305">
        <ele>2064</ele>
        <time>2020-09-15T07:23:07Z</time>
      </trkpt>
      <trkpt lat="44.83302" lon="6.72297">
        <ele>2064</ele>
        <time>2020-09-15T07:23:08Z</time>
      </trkpt>
      <trkpt lat="44.83308" lon="6.72288">
        <ele>2063</ele>
        <time>2020-09-15T07:23:10Z</time>
      </trkpt>
      <trkpt lat="44.83348" lon="6.72241">
        <ele>2061</ele>
        <time>2020-09-15T07:23:19Z</time>
      </trkpt>
      <trkpt lat="44.83375" lon="6.72215">
        <ele>2059</ele>
        <time>2020-09-15T07:23:25Z</time>
      </trkpt>
      <trkpt lat="44.83376" lon="6.72208">
        <ele>2060</ele>
        <time>2020-09-15T07:23:26Z</time>
      </trkpt>
      <trkpt lat="44.83374" lon="6.72201">
        <ele>2063</ele>
        <time>2020-09-15T07:23:27Z</time>
      </trkpt>
      <trkpt lat="44.83371" lon="6.72197">
        <ele>2065</ele>
        <time>2020-09-15T07:23:27Z</time>
      </trkpt>
      <trkpt lat="44.83366" lon="6.72196">
        <ele>2068</ele>
        <time>2020-09-15T07:23:28Z</time>
      </trkpt>
      <trkpt lat="44.83361" lon="6.72198">
        <ele>2069</ele>
        <time>2020-09-15T07:23:29Z</time>
      </trkpt>
      <trkpt lat="44.83353" lon="6.72214">
        <ele>2067</ele>
        <time>2020-09-15T07:23:32Z</time>
      </trkpt>
      <trkpt lat="44.83345" lon="6.72225">
        <ele>2067</ele>
        <time>2020-09-15T07:23:34Z</time>
      </trkpt>
      <trkpt lat="44.83332" lon="6.72236">
        <ele>2067</ele>
        <time>2020-09-15T07:23:36Z</time>
      </trkpt>
      <trkpt lat="44.83278" lon="6.72256">
        <ele>2079</ele>
        <time>2020-09-15T07:23:46Z</time>
      </trkpt>
      <trkpt lat="44.83213" lon="6.72289">
        <ele>2097</ele>
        <time>2020-09-15T07:23:59Z</time>
      </trkpt>
      <trkpt lat="44.832" lon="6.72302">
        <ele>2099</ele>
        <time>2020-09-15T07:24:01Z</time>
      </trkpt>
      <trkpt lat="44.83197" lon="6.72312">
        <ele>2098</ele>
        <time>2020-09-15T07:24:03Z</time>
      </trkpt>
      <trkpt lat="44.83199" lon="6.72323">
        <ele>2095</ele>
        <time>2020-09-15T07:24:04Z</time>
      </trkpt>
      <trkpt lat="44.83216" lon="6.72352">
        <ele>2088</ele>
        <time>2020-09-15T07:24:09Z</time>
      </trkpt>
      <trkpt lat="44.83221" lon="6.72368">
        <ele>2088</ele>
        <time>2020-09-15T07:24:11Z</time>
      </trkpt>
      <trkpt lat="44.83225" lon="6.72407">
        <ele>2091</ele>
        <time>2020-09-15T07:24:16Z</time>
      </trkpt>
      <trkpt lat="44.83223" lon="6.72417">
        <ele>2092</ele>
        <time>2020-09-15T07:24:18Z</time>
      </trkpt>
      <trkpt lat="44.83219" lon="6.72423">
        <ele>2095</ele>
        <time>2020-09-15T07:24:19Z</time>
      </trkpt>
      <trkpt lat="44.83211" lon="6.72423">
        <ele>2097</ele>
        <time>2020-09-15T07:24:20Z</time>
      </trkpt>
      <trkpt lat="44.83206" lon="6.72416">
        <ele>2097</ele>
        <time>2020-09-15T07:24:21Z</time>
      </trkpt>
      <trkpt lat="44.83205" lon="6.7241">
        <ele>2096</ele>
        <time>2020-09-15T07:24:22Z</time>
      </trkpt>
      <trkpt lat="44.83204" lon="6.72381">
        <ele>2095</ele>
        <time>2020-09-15T07:24:26Z</time>
      </trkpt>
      <trkpt lat="44.83201" lon="6.7237">
        <ele>2095</ele>
        <time>2020-09-15T07:24:27Z</time>
      </trkpt>
      <trkpt lat="44.83197" lon="6.72362">
        <ele>2095</ele>
        <time>2020-09-15T07:24:28Z</time>
      </trkpt>
      <trkpt lat="44.83186" lon="6.72347">
        <ele>2098</ele>
        <time>2020-09-15T07:24:31Z</time>
      </trkpt>
      <trkpt lat="44.83179" lon="6.72345">
        <ele>2100</ele>
        <time>2020-09-15T07:24:32Z</time>
      </trkpt>
      <trkpt lat="44.83174" lon="6.7235">
        <ele>2102</ele>
        <time>2020-09-15T07:24:33Z</time>
      </trkpt>
      <trkpt lat="44.83173" lon="6.72359">
        <ele>2103</ele>
        <time>2020-09-15T07:24:35Z</time>
      </trkpt>
      <trkpt lat="44.83187" lon="6.72385">
        <ele>2100</ele>
        <time>2020-09-15T07:24:39Z</time>
      </trkpt>
      <trkpt lat="44.8319" lon="6.72395">
        <ele>2100</ele>
        <time>2020-09-15T07:24:40Z</time>
      </trkpt>
      <trkpt lat="44.8319" lon="6.72404">
        <ele>2100</ele>
        <time>2020-09-15T07:24:41Z</time>
      </trkpt>
      <trkpt lat="44.83188" lon="6.72411">
        <ele>2101</ele>
        <time>2020-09-15T07:24:42Z</time>
      </trkpt>
      <trkpt lat="44.83184" lon="6.72422">
        <ele>2103</ele>
        <time>2020-09-15T07:24:44Z</time>
      </trkpt>
      <trkpt lat="44.83174" lon="6.72431">
        <ele>2107</ele>
        <time>2020-09-15T07:24:46Z</time>
      </trkpt>
      <trkpt lat="44.83152" lon="6.7244">
        <ele>2112</ele>
        <time>2020-09-15T07:24:50Z</time>
      </trkpt>
      <trkpt lat="44.83141" lon="6.7244">
        <ele>2114</ele>
        <time>2020-09-15T07:24:52Z</time>
      </trkpt>
      <trkpt lat="44.83124" lon="6.72434">
        <ele>2115</ele>
        <time>2020-09-15T07:24:55Z</time>
      </trkpt>
      <trkpt lat="44.83096" lon="6.72417">
        <ele>2118</ele>
        <time>2020-09-15T07:25:00Z</time>
      </trkpt>
      <trkpt lat="44.83078" lon="6.72416">
        <ele>2121</ele>
        <time>2020-09-15T07:25:04Z</time>
      </trkpt>
      <trkpt lat="44.83064" lon="6.72421">
        <ele>2123</ele>
        <time>2020-09-15T07:25:06Z</time>
      </trkpt>
      <trkpt lat="44.83054" lon="6.72428">
        <ele>2125</ele>
        <time>2020-09-15T07:25:08Z</time>
      </trkpt>
      <trkpt lat="44.83032" lon="6.72451">
        <ele>2129</ele>
        <time>2020-09-15T07:25:13Z</time>
      </trkpt>
      <trkpt lat="44.83024" lon="6.72457">
        <ele>2130</ele>
        <time>2020-09-15T07:25:15Z</time>
      </trkpt>
      <trkpt lat="44.8302" lon="6.72457">
        <ele>2130</ele>
        <time>2020-09-15T07:25:15Z</time>
      </trkpt>
      <trkpt lat="44.83017" lon="6.72455">
        <ele>2131</ele>
        <time>2020-09-15T07:25:16Z</time>
      </trkpt>
      <trkpt lat="44.83013" lon="6.72448">
        <ele>2131</ele>
        <time>2020-09-15T07:25:17Z</time>
      </trkpt>
      <trkpt lat="44.83015" lon="6.72438">
        <ele>2130</ele>
        <time>2020-09-15T07:25:18Z</time>
      </trkpt>
      <trkpt lat="44.83045" lon="6.72399">
        <ele>2126</ele>
        <time>2020-09-15T07:25:26Z</time>
      </trkpt>
      <trkpt lat="44.83053" lon="6.7238">
        <ele>2127</ele>
        <time>2020-09-15T07:25:28Z</time>
      </trkpt>
      <trkpt lat="44.83054" lon="6.72364">
        <ele>2128</ele>
        <time>2020-09-15T07:25:31Z</time>
      </trkpt>
      <trkpt lat="44.83048" lon="6.72343">
        <ele>2130</ele>
        <time>2020-09-15T07:25:33Z</time>
      </trkpt>
      <trkpt lat="44.83042" lon="6.72334">
        <ele>2132</ele>
        <time>2020-09-15T07:25:35Z</time>
      </trkpt>
      <trkpt lat="44.83036" lon="6.72329">
        <ele>2134</ele>
        <time>2020-09-15T07:25:36Z</time>
      </trkpt>
      <trkpt lat="44.83029" lon="6.72325">
        <ele>2135</ele>
        <time>2020-09-15T07:25:38Z</time>
      </trkpt>
      <trkpt lat="44.83023" lon="6.72325">
        <ele>2136</ele>
        <time>2020-09-15T07:25:39Z</time>
      </trkpt>
      <trkpt lat="44.83011" lon="6.72329">
        <ele>2137</ele>
        <time>2020-09-15T07:25:41Z</time>
      </trkpt>
      <trkpt lat="44.82783" lon="6.72512">
        <ele>2158</ele>
        <time>2020-09-15T07:26:27Z</time>
      </trkpt>
      <trkpt lat="44.82763" lon="6.72526">
        <ele>2162</ele>
        <time>2020-09-15T07:26:31Z</time>
      </trkpt>
      <trkpt lat="44.82743" lon="6.72533">
        <ele>2166</ele>
        <time>2020-09-15T07:26:35Z</time>
      </trkpt>
      <trkpt lat="44.82729" lon="6.72541">
        <ele>2170</ele>
        <time>2020-09-15T07:26:38Z</time>
      </trkpt>
      <trkpt lat="44.8272" lon="6.72551">
        <ele>2173</ele>
        <time>2020-09-15T07:26:40Z</time>
      </trkpt>
      <trkpt lat="44.82714" lon="6.72561">
        <ele>2174</ele>
        <time>2020-09-15T07:26:41Z</time>
      </trkpt>
      <trkpt lat="44.8271" lon="6.72577">
        <ele>2175</ele>
        <time>2020-09-15T07:26:44Z</time>
      </trkpt>
      <trkpt lat="44.82711" lon="6.72595">
        <ele>2175</ele>
        <time>2020-09-15T07:26:46Z</time>
      </trkpt>
      <trkpt lat="44.8272" lon="6.72617">
        <ele>2176</ele>
        <time>2020-09-15T07:26:49Z</time>
      </trkpt>
      <trkpt lat="44.82732" lon="6.72625">
        <ele>2175</ele>
        <time>2020-09-15T07:26:51Z</time>
      </trkpt>
      <trkpt lat="44.82779" lon="6.72641">
        <ele>2175</ele>
        <time>2020-09-15T07:27:00Z</time>
      </trkpt>
      <trkpt lat="44.82804" lon="6.72646">
        <ele>2175</ele>
        <time>2020-09-15T07:27:05Z</time>
      </trkpt>
      <trkpt lat="44.82816" lon="6.72654">
        <ele>2176</ele>
        <time>2020-09-15T07:27:07Z</time>
      </trkpt>
      <trkpt lat="44.82833" lon="6.7269">
        <ele>2181</ele>
        <time>2020-09-15T07:27:12Z</time>
      </trkpt>
      <trkpt lat="44.82847" lon="6.72708">
        <ele>2182</ele>
        <time>2020-09-15T07:27:16Z</time>
      </trkpt>
      <trkpt lat="44.82853" lon="6.72719">
        <ele>2182</ele>
        <time>2020-09-15T07:27:17Z</time>
      </trkpt>
      <trkpt lat="44.82856" lon="6.72739">
        <ele>2185</ele>
        <time>2020-09-15T07:27:20Z</time>
      </trkpt>
      <trkpt lat="44.82854" lon="6.72756">
        <ele>2187</ele>
        <time>2020-09-15T07:27:22Z</time>
      </trkpt>
      <trkpt lat="44.82848" lon="6.72779">
        <ele>2190</ele>
        <time>2020-09-15T07:27:25Z</time>
      </trkpt>
      <trkpt lat="44.82844" lon="6.72783">
        <ele>2191</ele>
        <time>2020-09-15T07:27:26Z</time>
      </trkpt>
      <trkpt lat="44.82839" lon="6.72785">
        <ele>2192</ele>
        <time>2020-09-15T07:27:27Z</time>
      </trkpt>
      <trkpt lat="44.82833" lon="6.72781">
        <ele>2192</ele>
        <time>2020-09-15T07:27:28Z</time>
      </trkpt>
      <trkpt lat="44.82818" lon="6.72758">
        <ele>2192</ele>
        <time>2020-09-15T07:27:32Z</time>
      </trkpt>
      <trkpt lat="44.82807" lon="6.72749">
        <ele>2193</ele>
        <time>2020-09-15T07:27:35Z</time>
      </trkpt>
      <trkpt lat="44.82759" lon="6.72738">
        <ele>2197</ele>
        <time>2020-09-15T07:27:43Z</time>
      </trkpt>
      <trkpt lat="44.82737" lon="6.72736">
        <ele>2197</ele>
        <time>2020-09-15T07:27:47Z</time>
      </trkpt>
      <trkpt lat="44.82721" lon="6.72738">
        <ele>2197</ele>
        <time>2020-09-15T07:27:50Z</time>
      </trkpt>
      <trkpt lat="44.82702" lon="6.72745">
        <ele>2197</ele>
        <time>2020-09-15T07:27:53Z</time>
      </trkpt>
      <trkpt lat="44.82689" lon="6.72754">
        <ele>2198</ele>
        <time>2020-09-15T07:27:56Z</time>
      </trkpt>
      <trkpt lat="44.8265" lon="6.72796">
        <ele>2204</ele>
        <time>2020-09-15T07:28:05Z</time>
      </trkpt>
      <trkpt lat="44.82622" lon="6.72817">
        <ele>2205</ele>
        <time>2020-09-15T07:28:10Z</time>
      </trkpt>
      <trkpt lat="44.82619" lon="6.72826">
        <ele>2206</ele>
        <time>2020-09-15T07:28:12Z</time>
      </trkpt>
      <trkpt lat="44.8262" lon="6.72832">
        <ele>2207</ele>
        <time>2020-09-15T07:28:12Z</time>
      </trkpt>
      <trkpt lat="44.82624" lon="6.72837">
        <ele>2208</ele>
        <time>2020-09-15T07:28:13Z</time>
      </trkpt>
      <trkpt lat="44.82656" lon="6.72836">
        <ele>2211</ele>
        <time>2020-09-15T07:28:19Z</time>
      </trkpt>
      <trkpt lat="44.82664" lon="6.72838">
        <ele>2212</ele>
        <time>2020-09-15T07:28:21Z</time>
      </trkpt>
      <trkpt lat="44.82674" lon="6.72845">
        <ele>2213</ele>
        <time>2020-09-15T07:28:23Z</time>
      </trkpt>
      <trkpt lat="44.82715" lon="6.72894">
        <ele>2216</ele>
        <time>2020-09-15T07:28:32Z</time>
      </trkpt>
      <trkpt lat="44.82721" lon="6.72905">
        <ele>2217</ele>
        <time>2020-09-15T07:28:34Z</time>
      </trkpt>
      <trkpt lat="44.82725" lon="6.72918">
        <ele>2218</ele>
        <time>2020-09-15T07:28:36Z</time>
      </trkpt>
      <trkpt lat="44.82725" lon="6.72928">
        <ele>2219</ele>
        <time>2020-09-15T07:28:37Z</time>
      </trkpt>
      <trkpt lat="44.82724" lon="6.72934">
        <ele>2219</ele>
        <time>2020-09-15T07:28:38Z</time>
      </trkpt>
      <trkpt lat="44.82717" lon="6.72945">
        <ele>2220</ele>
        <time>2020-09-15T07:28:40Z</time>
      </trkpt>
      <trkpt lat="44.8255" lon="6.73097">
        <ele>2241</ele>
        <time>2020-09-15T07:29:15Z</time>
      </trkpt>
      <trkpt lat="44.82502" lon="6.73127">
        <ele>2243</ele>
        <time>2020-09-15T07:29:24Z</time>
      </trkpt>
      <trkpt lat="44.82494" lon="6.7314">
        <ele>2245</ele>
        <time>2020-09-15T07:29:26Z</time>
      </trkpt>
      <trkpt lat="44.82486" lon="6.7316">
        <ele>2248</ele>
        <time>2020-09-15T07:29:29Z</time>
      </trkpt>
      <trkpt lat="44.82478" lon="6.7317">
        <ele>2250</ele>
        <time>2020-09-15T07:29:31Z</time>
      </trkpt>
      <trkpt lat="44.82462" lon="6.73178">
        <ele>2252</ele>
        <time>2020-09-15T07:29:34Z</time>
      </trkpt>
      <trkpt lat="44.82446" lon="6.73193">
        <ele>2255</ele>
        <time>2020-09-15T07:29:38Z</time>
      </trkpt>
      <trkpt lat="44.82438" lon="6.73198">
        <ele>2255</ele>
        <time>2020-09-15T07:29:39Z</time>
      </trkpt>
      <trkpt lat="44.82396" lon="6.73211">
        <ele>2258</ele>
        <time>2020-09-15T07:29:47Z</time>
      </trkpt>
      <trkpt lat="44.82388" lon="6.73217">
        <ele>2260</ele>
        <time>2020-09-15T07:29:48Z</time>
      </trkpt>
      <trkpt lat="44.82372" lon="6.73237">
        <ele>2263</ele>
        <time>2020-09-15T07:29:52Z</time>
      </trkpt>
      <trkpt lat="44.82365" lon="6.73241">
        <ele>2264</ele>
        <time>2020-09-15T07:29:54Z</time>
      </trkpt>
      <trkpt lat="44.82357" lon="6.73239">
        <ele>2264</ele>
        <time>2020-09-15T07:29:55Z</time>
      </trkpt>
      <trkpt lat="44.82345" lon="6.73223">
        <ele>2263</ele>
        <time>2020-09-15T07:29:58Z</time>
      </trkpt>
      <trkpt lat="44.82344" lon="6.73213">
        <ele>2262</ele>
        <time>2020-09-15T07:29:59Z</time>
      </trkpt>
      <trkpt lat="44.82347" lon="6.73187">
        <ele>2259</ele>
        <time>2020-09-15T07:30:03Z</time>
      </trkpt>
      <trkpt lat="44.82345" lon="6.73179">
        <ele>2258</ele>
        <time>2020-09-15T07:30:04Z</time>
      </trkpt>
      <trkpt lat="44.82342" lon="6.73175">
        <ele>2258</ele>
        <time>2020-09-15T07:30:04Z</time>
      </trkpt>
      <trkpt lat="44.82338" lon="6.73175">
        <ele>2259</ele>
        <time>2020-09-15T07:30:05Z</time>
      </trkpt>
      <trkpt lat="44.82333" lon="6.73178">
        <ele>2259</ele>
        <time>2020-09-15T07:30:06Z</time>
      </trkpt>
      <trkpt lat="44.82319" lon="6.73198">
        <ele>2264</ele>
        <time>2020-09-15T07:30:10Z</time>
      </trkpt>
      <trkpt lat="44.82307" lon="6.73206">
        <ele>2267</ele>
        <time>2020-09-15T07:30:12Z</time>
      </trkpt>
      <trkpt lat="44.823" lon="6.73207">
        <ele>2268</ele>
        <time>2020-09-15T07:30:13Z</time>
      </trkpt>
      <trkpt lat="44.82286" lon="6.73205">
        <ele>2270</ele>
        <time>2020-09-15T07:30:16Z</time>
      </trkpt>
      <trkpt lat="44.82275" lon="6.73198">
        <ele>2271</ele>
        <time>2020-09-15T07:30:18Z</time>
      </trkpt>
      <trkpt lat="44.8227" lon="6.73191">
        <ele>2272</ele>
        <time>2020-09-15T07:30:19Z</time>
      </trkpt>
      <trkpt lat="44.82265" lon="6.73177">
        <ele>2271</ele>
        <time>2020-09-15T07:30:21Z</time>
      </trkpt>
      <trkpt lat="44.8226" lon="6.7313">
        <ele>2271</ele>
        <time>2020-09-15T07:30:27Z</time>
      </trkpt>
      <trkpt lat="44.82257" lon="6.73124">
        <ele>2272</ele>
        <time>2020-09-15T07:30:28Z</time>
      </trkpt>
      <trkpt lat="44.82252" lon="6.7312">
        <ele>2273</ele>
        <time>2020-09-15T07:30:29Z</time>
      </trkpt>
      <trkpt lat="44.82247" lon="6.73121">
        <ele>2274</ele>
        <time>2020-09-15T07:30:30Z</time>
      </trkpt>
      <trkpt lat="44.82242" lon="6.73129">
        <ele>2275</ele>
        <time>2020-09-15T07:30:31Z</time>
      </trkpt>
      <trkpt lat="44.82237" lon="6.73171">
        <ele>2276</ele>
        <time>2020-09-15T07:30:37Z</time>
      </trkpt>
      <trkpt lat="44.82224" lon="6.73213">
        <ele>2284</ele>
        <time>2020-09-15T07:30:42Z</time>
      </trkpt>
      <trkpt lat="44.82221" lon="6.73238">
        <ele>2287</ele>
        <time>2020-09-15T07:30:46Z</time>
      </trkpt>
      <trkpt lat="44.82222" lon="6.73255">
        <ele>2289</ele>
        <time>2020-09-15T07:30:48Z</time>
      </trkpt>
      <trkpt lat="44.82229" lon="6.73282">
        <ele>2290</ele>
        <time>2020-09-15T07:30:51Z</time>
      </trkpt>
      <trkpt lat="44.82234" lon="6.73297">
        <ele>2290</ele>
        <time>2020-09-15T07:30:54Z</time>
      </trkpt>
      <trkpt lat="44.82238" lon="6.73303">
        <ele>2289</ele>
        <time>2020-09-15T07:30:55Z</time>
      </trkpt>
      <trkpt lat="44.82243" lon="6.73308">
        <ele>2288</ele>
        <time>2020-09-15T07:30:56Z</time>
      </trkpt>
      <trkpt lat="44.82267" lon="6.73317">
        <ele>2284</ele>
        <time>2020-09-15T07:31:00Z</time>
      </trkpt>
      <trkpt lat="44.82278" lon="6.73325">
        <ele>2283</ele>
        <time>2020-09-15T07:31:02Z</time>
      </trkpt>
      <trkpt lat="44.82287" lon="6.73338">
        <ele>2283</ele>
        <time>2020-09-15T07:31:05Z</time>
      </trkpt>
      <trkpt lat="44.8229" lon="6.73348">
        <ele>2284</ele>
        <time>2020-09-15T07:31:06Z</time>
      </trkpt>
      <trkpt lat="44.82288" lon="6.73362">
        <ele>2286</ele>
        <time>2020-09-15T07:31:08Z</time>
      </trkpt>
      <trkpt lat="44.82284" lon="6.73368">
        <ele>2287</ele>
        <time>2020-09-15T07:31:09Z</time>
      </trkpt>
      <trkpt lat="44.82275" lon="6.73378">
        <ele>2289</ele>
        <time>2020-09-15T07:31:11Z</time>
      </trkpt>
      <trkpt lat="44.82262" lon="6.73384">
        <ele>2292</ele>
        <time>2020-09-15T07:31:13Z</time>
      </trkpt>
      <trkpt lat="44.82246" lon="6.73385">
        <ele>2296</ele>
        <time>2020-09-15T07:31:16Z</time>
      </trkpt>
      <trkpt lat="44.82229" lon="6.73381">
        <ele>2300</ele>
        <time>2020-09-15T07:31:19Z</time>
      </trkpt>
      <trkpt lat="44.82219" lon="6.73376">
        <ele>2303</ele>
        <time>2020-09-15T07:31:21Z</time>
      </trkpt>
      <trkpt lat="44.82215" lon="6.73371">
        <ele>2303</ele>
        <time>2020-09-15T07:31:22Z</time>
      </trkpt>
      <trkpt lat="44.82207" lon="6.73359">
        <ele>2305</ele>
        <time>2020-09-15T07:31:24Z</time>
      </trkpt>
      <trkpt lat="44.82203" lon="6.73347">
        <ele>2305</ele>
        <time>2020-09-15T07:31:26Z</time>
      </trkpt>
      <trkpt lat="44.822" lon="6.73326">
        <ele>2304</ele>
        <time>2020-09-15T07:31:28Z</time>
      </trkpt>
      <trkpt lat="44.82198" lon="6.73299">
        <ele>2301</ele>
        <time>2020-09-15T07:31:32Z</time>
      </trkpt>
      <trkpt lat="44.82195" lon="6.73294">
        <ele>2302</ele>
        <time>2020-09-15T07:31:33Z</time>
      </trkpt>
      <trkpt lat="44.8219" lon="6.73292">
        <ele>2303</ele>
        <time>2020-09-15T07:31:34Z</time>
      </trkpt>
      <trkpt lat="44.82183" lon="6.73296">
        <ele>2306</ele>
        <time>2020-09-15T07:31:35Z</time>
      </trkpt>
      <trkpt lat="44.82181" lon="6.73301">
        <ele>2307</ele>
        <time>2020-09-15T07:31:36Z</time>
      </trkpt>
      <trkpt lat="44.8218" lon="6.73308">
        <ele>2308</ele>
        <time>2020-09-15T07:31:37Z</time>
      </trkpt>
      <trkpt lat="44.82187" lon="6.73348">
        <ele>2310</ele>
        <time>2020-09-15T07:31:42Z</time>
      </trkpt>
      <trkpt lat="44.82188" lon="6.73367">
        <ele>2311</ele>
        <time>2020-09-15T07:31:44Z</time>
      </trkpt>
      <trkpt lat="44.82186" lon="6.73395">
        <ele>2314</ele>
        <time>2020-09-15T07:31:48Z</time>
      </trkpt>
      <trkpt lat="44.82178" lon="6.73444">
        <ele>2318</ele>
        <time>2020-09-15T07:31:54Z</time>
      </trkpt>
      <trkpt lat="44.82178" lon="6.73456">
        <ele>2319</ele>
        <time>2020-09-15T07:31:56Z</time>
      </trkpt>
      <trkpt lat="44.82181" lon="6.73468">
        <ele>2319</ele>
        <time>2020-09-15T07:31:57Z</time>
      </trkpt>
      <trkpt lat="44.82187" lon="6.73483">
        <ele>2319</ele>
        <time>2020-09-15T07:31:59Z</time>
      </trkpt>
      <trkpt lat="44.82197" lon="6.735">
        <ele>2317</ele>
        <time>2020-09-15T07:32:02Z</time>
      </trkpt>
      <trkpt lat="44.82233" lon="6.73554">
        <ele>2319</ele>
        <time>2020-09-15T07:32:12Z</time>
      </trkpt>
      <trkpt lat="44.82258" lon="6.7358">
        <ele>2322</ele>
        <time>2020-09-15T07:32:17Z</time>
      </trkpt>
      <trkpt lat="44.82261" lon="6.7359">
        <ele>2324</ele>
        <time>2020-09-15T07:32:18Z</time>
      </trkpt>
      <trkpt lat="44.8226" lon="6.73599">
        <ele>2326</ele>
        <time>2020-09-15T07:32:20Z</time>
      </trkpt>
      <trkpt lat="44.82258" lon="6.73606">
        <ele>2327</ele>
        <time>2020-09-15T07:32:21Z</time>
      </trkpt>
      <trkpt lat="44.82254" lon="6.73611">
        <ele>2328</ele>
        <time>2020-09-15T07:32:22Z</time>
      </trkpt>
      <trkpt lat="44.82249" lon="6.73613">
        <ele>2329</ele>
        <time>2020-09-15T07:32:22Z</time>
      </trkpt>
      <trkpt lat="44.82237" lon="6.73613">
        <ele>2331</ele>
        <time>2020-09-15T07:32:25Z</time>
      </trkpt>
      <trkpt lat="44.82202" lon="6.73601">
        <ele>2332</ele>
        <time>2020-09-15T07:32:31Z</time>
      </trkpt>
      <trkpt lat="44.82124" lon="6.73566">
        <ele>2340</ele>
        <time>2020-09-15T07:32:46Z</time>
      </trkpt>
      <trkpt lat="44.82108" lon="6.73557">
        <ele>2343</ele>
        <time>2020-09-15T07:32:49Z</time>
      </trkpt>
      <trkpt lat="44.82099" lon="6.7355">
        <ele>2345</ele>
        <time>2020-09-15T07:32:50Z</time>
      </trkpt>
      <trkpt lat="44.82092" lon="6.73537">
        <ele>2346</ele>
        <time>2020-09-15T07:32:53Z</time>
      </trkpt>
      <trkpt lat="44.82086" lon="6.73513">
        <ele>2347</ele>
        <time>2020-09-15T07:32:56Z</time>
      </trkpt>
      <trkpt lat="44.82086" lon="6.73501">
        <ele>2346</ele>
        <time>2020-09-15T07:32:57Z</time>
      </trkpt>
      <trkpt lat="44.82087" lon="6.73488">
        <ele>2347</ele>
        <time>2020-09-15T07:32:59Z</time>
      </trkpt>
      <trkpt lat="44.82092" lon="6.73474">
        <ele>2347</ele>
        <time>2020-09-15T07:33:01Z</time>
      </trkpt>
      <trkpt lat="44.82106" lon="6.73439">
        <ele>2344</ele>
        <time>2020-09-15T07:33:06Z</time>
      </trkpt>
      <trkpt lat="44.82106" lon="6.73431">
        <ele>2345</ele>
        <time>2020-09-15T07:33:07Z</time>
      </trkpt>
      <trkpt lat="44.82105" lon="6.73426">
        <ele>2345</ele>
        <time>2020-09-15T07:33:08Z</time>
      </trkpt>
      <trkpt lat="44.82102" lon="6.73422">
        <ele>2347</ele>
        <time>2020-09-15T07:33:08Z</time>
      </trkpt>
      <trkpt lat="44.82097" lon="6.7342">
        <ele>2349</ele>
        <time>2020-09-15T07:33:09Z</time>
      </trkpt>
      <trkpt lat="44.82091" lon="6.73423">
        <ele>2351</ele>
        <time>2020-09-15T07:33:10Z</time>
      </trkpt>
      <trkpt lat="44.82072" lon="6.73464">
        <ele>2352</ele>
        <time>2020-09-15T07:33:17Z</time>
      </trkpt>
      <trkpt lat="44.8206" lon="6.73487">
        <ele>2352</ele>
        <time>2020-09-15T07:33:20Z</time>
      </trkpt>
      <trkpt lat="44.82049" lon="6.735">
        <ele>2354</ele>
        <time>2020-09-15T07:33:23Z</time>
      </trkpt>
      <trkpt lat="44.8204" lon="6.73505">
        <ele>2356</ele>
        <time>2020-09-15T07:33:24Z</time>
      </trkpt>
      <trkpt lat="44.8203" lon="6.73507">
        <ele>2358</ele>
        <time>2020-09-15T07:33:26Z</time>
      </trkpt>
      <trkpt lat="44.82012" lon="6.73505">
        <ele>2361</ele>
        <time>2020-09-15T07:33:29Z</time>
      </trkpt>
      <trkpt lat="44.81916" lon="6.73488">
        <ele>2354</ele>
        <time>2020-09-15T07:33:47Z</time>
      </trkpt>
      <trkpt lat="44.81893" lon="6.73481">
        <ele>2349</ele>
        <time>2020-09-15T07:33:51Z</time>
      </trkpt>
      <trkpt lat="44.81882" lon="6.73472">
        <ele>2345</ele>
        <time>2020-09-15T07:33:53Z</time>
      </trkpt>
      <trkpt lat="44.8188" lon="6.73466">
        <ele>2344</ele>
        <time>2020-09-15T07:33:54Z</time>
      </trkpt>
      <trkpt lat="44.8188" lon="6.73457">
        <ele>2344</ele>
        <time>2020-09-15T07:33:55Z</time>
      </trkpt>
      <trkpt lat="44.81883" lon="6.7345">
        <ele>2344</ele>
        <time>2020-09-15T07:33:56Z</time>
      </trkpt>
      <trkpt lat="44.81912" lon="6.73401">
        <ele>2347</ele>
        <time>2020-09-15T07:34:04Z</time>
      </trkpt>
      <trkpt lat="44.81917" lon="6.73389">
        <ele>2347</ele>
        <time>2020-09-15T07:34:06Z</time>
      </trkpt>
      <trkpt lat="44.8192" lon="6.73372">
        <ele>2345</ele>
        <time>2020-09-15T07:34:08Z</time>
      </trkpt>
      <trkpt lat="44.8192" lon="6.73333">
        <ele>2340</ele>
        <time>2020-09-15T07:34:13Z</time>
      </trkpt>
      <trkpt lat="44.81924" lon="6.73316">
        <ele>2340</ele>
        <time>2020-09-15T07:34:15Z</time>
      </trkpt>
      <trkpt lat="44.81931" lon="6.73291">
        <ele>2340</ele>
        <time>2020-09-15T07:34:19Z</time>
      </trkpt>
      <trkpt lat="44.81953" lon="6.73246">
        <ele>2343</ele>
        <time>2020-09-15T07:34:26Z</time>
      </trkpt>
      <trkpt lat="44.81956" lon="6.73233">
        <ele>2344</ele>
        <time>2020-09-15T07:34:27Z</time>
      </trkpt>
      <trkpt lat="44.81956" lon="6.7322">
        <ele>2345</ele>
        <time>2020-09-15T07:34:29Z</time>
      </trkpt>
      <trkpt lat="44.81951" lon="6.7321">
        <ele>2343</ele>
        <time>2020-09-15T07:34:31Z</time>
      </trkpt>
      <trkpt lat="44.81946" lon="6.73209">
        <ele>2342</ele>
        <time>2020-09-15T07:34:31Z</time>
      </trkpt>
      <trkpt lat="44.81941" lon="6.73212">
        <ele>2340</ele>
        <time>2020-09-15T07:34:32Z</time>
      </trkpt>
      <trkpt lat="44.81938" lon="6.73217">
        <ele>2339</ele>
        <time>2020-09-15T07:34:33Z</time>
      </trkpt>
      <trkpt lat="44.81931" lon="6.73244">
        <ele>2336</ele>
        <time>2020-09-15T07:34:37Z</time>
      </trkpt>
      <trkpt lat="44.81921" lon="6.73264">
        <ele>2334</ele>
        <time>2020-09-15T07:34:40Z</time>
      </trkpt>
      <trkpt lat="44.81871" lon="6.73337">
        <ele>2325</ele>
        <time>2020-09-15T07:34:53Z</time>
      </trkpt>
      <trkpt lat="44.81848" lon="6.73363">
        <ele>2322</ele>
        <time>2020-09-15T07:34:58Z</time>
      </trkpt>
      <trkpt lat="44.818" lon="6.73404">
        <ele>2315</ele>
        <time>2020-09-15T07:35:08Z</time>
      </trkpt>
      <trkpt lat="44.81793" lon="6.73413">
        <ele>2314</ele>
        <time>2020-09-15T07:35:10Z</time>
      </trkpt>
      <trkpt lat="44.81777" lon="6.73446">
        <ele>2312</ele>
        <time>2020-09-15T07:35:15Z</time>
      </trkpt>
      <trkpt lat="44.81773" lon="6.73448">
        <ele>2311</ele>
        <time>2020-09-15T07:35:15Z</time>
      </trkpt>
      <trkpt lat="44.81768" lon="6.73448">
        <ele>2309</ele>
        <time>2020-09-15T07:35:16Z</time>
      </trkpt>
      <trkpt lat="44.81765" lon="6.73443">
        <ele>2308</ele>
        <time>2020-09-15T07:35:17Z</time>
      </trkpt>
      <trkpt lat="44.81764" lon="6.73433">
        <ele>2307</ele>
        <time>2020-09-15T07:35:18Z</time>
      </trkpt>
      <trkpt lat="44.81783" lon="6.73394">
        <ele>2308</ele>
        <time>2020-09-15T07:35:24Z</time>
      </trkpt>
      <trkpt lat="44.81811" lon="6.73345">
        <ele>2309</ele>
        <time>2020-09-15T07:35:32Z</time>
      </trkpt>
      <trkpt lat="44.81828" lon="6.73306">
        <ele>2310</ele>
        <time>2020-09-15T07:35:38Z</time>
      </trkpt>
      <trkpt lat="44.81835" lon="6.73283">
        <ele>2310</ele>
        <time>2020-09-15T07:35:41Z</time>
      </trkpt>
      <trkpt lat="44.81835" lon="6.73274">
        <ele>2309</ele>
        <time>2020-09-15T07:35:42Z</time>
      </trkpt>
      <trkpt lat="44.81831" lon="6.73269">
        <ele>2308</ele>
        <time>2020-09-15T07:35:43Z</time>
      </trkpt>
      <trkpt lat="44.81824" lon="6.73267">
        <ele>2306</ele>
        <time>2020-09-15T07:35:45Z</time>
      </trkpt>
      <trkpt lat="44.81818" lon="6.7327">
        <ele>2305</ele>
        <time>2020-09-15T07:35:46Z</time>
      </trkpt>
      <trkpt lat="44.81799" lon="6.73305">
        <ele>2302</ele>
        <time>2020-09-15T07:35:51Z</time>
      </trkpt>
      <trkpt lat="44.81782" lon="6.7333">
        <ele>2299</ele>
        <time>2020-09-15T07:35:56Z</time>
      </trkpt>
      <trkpt lat="44.81723" lon="6.73399">
        <ele>2291</ele>
        <time>2020-09-15T07:36:09Z</time>
      </trkpt>
      <trkpt lat="44.81684" lon="6.73453">
        <ele>2286</ele>
        <time>2020-09-15T07:36:19Z</time>
      </trkpt>
      <trkpt lat="44.81674" lon="6.7346">
        <ele>2285</ele>
        <time>2020-09-15T07:36:21Z</time>
      </trkpt>
      <trkpt lat="44.8166" lon="6.73459">
        <ele>2281</ele>
        <time>2020-09-15T07:36:24Z</time>
      </trkpt>
      <trkpt lat="44.81635" lon="6.73449">
        <ele>2274</ele>
        <time>2020-09-15T07:36:28Z</time>
      </trkpt>
      <trkpt lat="44.81623" lon="6.7345">
        <ele>2271</ele>
        <time>2020-09-15T07:36:30Z</time>
      </trkpt>
      <trkpt lat="44.81611" lon="6.73459">
        <ele>2270</ele>
        <time>2020-09-15T07:36:33Z</time>
      </trkpt>
      <trkpt lat="44.81595" lon="6.73479">
        <ele>2269</ele>
        <time>2020-09-15T07:36:37Z</time>
      </trkpt>
      <trkpt lat="44.81561" lon="6.73506">
        <ele>2260</ele>
        <time>2020-09-15T07:36:44Z</time>
      </trkpt>
      <trkpt lat="44.81556" lon="6.73517">
        <ele>2258</ele>
        <time>2020-09-15T07:36:45Z</time>
      </trkpt>
      <trkpt lat="44.81557" lon="6.7353">
        <ele>2260</ele>
        <time>2020-09-15T07:36:47Z</time>
      </trkpt>
      <trkpt lat="44.81562" lon="6.73555">
        <ele>2263</ele>
        <time>2020-09-15T07:36:50Z</time>
      </trkpt>
      <trkpt lat="44.81569" lon="6.73598">
        <ele>2269</ele>
        <time>2020-09-15T07:36:56Z</time>
      </trkpt>
      <trkpt lat="44.81567" lon="6.73615">
        <ele>2271</ele>
        <time>2020-09-15T07:36:58Z</time>
      </trkpt>
      <trkpt lat="44.81562" lon="6.73627">
        <ele>2272</ele>
        <time>2020-09-15T07:37:00Z</time>
      </trkpt>
      <trkpt lat="44.8155" lon="6.73633">
        <ele>2271</ele>
        <time>2020-09-15T07:37:02Z</time>
      </trkpt>
      <trkpt lat="44.81495" lon="6.7363">
        <ele>2260</ele>
        <time>2020-09-15T07:37:12Z</time>
      </trkpt>
      <trkpt lat="44.81466" lon="6.73632">
        <ele>2259</ele>
        <time>2020-09-15T07:37:17Z</time>
      </trkpt>
      <trkpt lat="44.81435" lon="6.73619">
        <ele>2252</ele>
        <time>2020-09-15T07:37:23Z</time>
      </trkpt>
      <trkpt lat="44.81425" lon="6.73617">
        <ele>2251</ele>
        <time>2020-09-15T07:37:24Z</time>
      </trkpt>
      <trkpt lat="44.81399" lon="6.73617">
        <ele>2254</ele>
        <time>2020-09-15T07:37:29Z</time>
      </trkpt>
      <trkpt lat="44.81393" lon="6.73614">
        <ele>2254</ele>
        <time>2020-09-15T07:37:30Z</time>
      </trkpt>
      <trkpt lat="44.81387" lon="6.73609">
        <ele>2253</ele>
        <time>2020-09-15T07:37:31Z</time>
      </trkpt>
      <trkpt lat="44.8138" lon="6.73596">
        <ele>2248</ele>
        <time>2020-09-15T07:37:33Z</time>
      </trkpt>
      <trkpt lat="44.8136" lon="6.73527">
        <ele>2233</ele>
        <time>2020-09-15T07:37:43Z</time>
      </trkpt>
      <trkpt lat="44.81344" lon="6.73484">
        <ele>2226</ele>
        <time>2020-09-15T07:37:49Z</time>
      </trkpt>
      <trkpt lat="44.8133" lon="6.73458">
        <ele>2219</ele>
        <time>2020-09-15T07:37:53Z</time>
      </trkpt>
      <trkpt lat="44.81324" lon="6.7345">
        <ele>2216</ele>
        <time>2020-09-15T07:37:55Z</time>
      </trkpt>
      <trkpt lat="44.81316" lon="6.73445">
        <ele>2213</ele>
        <time>2020-09-15T07:37:56Z</time>
      </trkpt>
      <trkpt lat="44.81306" lon="6.73444">
        <ele>2210</ele>
        <time>2020-09-15T07:37:58Z</time>
      </trkpt>
      <trkpt lat="44.81295" lon="6.73449">
        <ele>2210</ele>
        <time>2020-09-15T07:38:00Z</time>
      </trkpt>
      <trkpt lat="44.81271" lon="6.7347">
        <ele>2214</ele>
        <time>2020-09-15T07:38:05Z</time>
      </trkpt>
      <trkpt lat="44.81234" lon="6.73491">
        <ele>2215</ele>
        <time>2020-09-15T07:38:12Z</time>
      </trkpt>
      <trkpt lat="44.81212" lon="6.73498">
        <ele>2210</ele>
        <time>2020-09-15T07:38:16Z</time>
      </trkpt>
      <trkpt lat="44.812" lon="6.73505">
        <ele>2208</ele>
        <time>2020-09-15T07:38:18Z</time>
      </trkpt>
      <trkpt lat="44.8119" lon="6.73514">
        <ele>2206</ele>
        <time>2020-09-15T07:38:21Z</time>
      </trkpt>
      <trkpt lat="44.81179" lon="6.73528">
        <ele>2205</ele>
        <time>2020-09-15T07:38:23Z</time>
      </trkpt>
      <trkpt lat="44.81159" lon="6.73536">
        <ele>2197</ele>
        <time>2020-09-15T07:38:27Z</time>
      </trkpt>
      <trkpt lat="44.81153" lon="6.73542">
        <ele>2195</ele>
        <time>2020-09-15T07:38:28Z</time>
      </trkpt>
      <trkpt lat="44.8115" lon="6.73552">
        <ele>2195</ele>
        <time>2020-09-15T07:38:30Z</time>
      </trkpt>
      <trkpt lat="44.81148" lon="6.73563">
        <ele>2196</ele>
        <time>2020-09-15T07:38:31Z</time>
      </trkpt>
      <trkpt lat="44.8115" lon="6.7359">
        <ele>2199</ele>
        <time>2020-09-15T07:38:34Z</time>
      </trkpt>
      <trkpt lat="44.81155" lon="6.73607">
        <ele>2202</ele>
        <time>2020-09-15T07:38:37Z</time>
      </trkpt>
      <trkpt lat="44.81166" lon="6.73634">
        <ele>2208</ele>
        <time>2020-09-15T07:38:41Z</time>
      </trkpt>
      <trkpt lat="44.81169" lon="6.73647">
        <ele>2209</ele>
        <time>2020-09-15T07:38:42Z</time>
      </trkpt>
      <trkpt lat="44.81169" lon="6.73656">
        <ele>2209</ele>
        <time>2020-09-15T07:38:43Z</time>
      </trkpt>
      <trkpt lat="44.81164" lon="6.73669">
        <ele>2207</ele>
        <time>2020-09-15T07:38:45Z</time>
      </trkpt>
      <trkpt lat="44.81143" lon="6.73683">
        <ele>2198</ele>
        <time>2020-09-15T07:38:49Z</time>
      </trkpt>
      <trkpt lat="44.81133" lon="6.73696">
        <ele>2195</ele>
        <time>2020-09-15T07:38:52Z</time>
      </trkpt>
      <trkpt lat="44.81127" lon="6.73719">
        <ele>2196</ele>
        <time>2020-09-15T07:38:55Z</time>
      </trkpt>
      <trkpt lat="44.81124" lon="6.73757">
        <ele>2202</ele>
        <time>2020-09-15T07:39:00Z</time>
      </trkpt>
      <trkpt lat="44.81116" lon="6.73772">
        <ele>2201</ele>
        <time>2020-09-15T07:39:02Z</time>
      </trkpt>
      <trkpt lat="44.81102" lon="6.73785">
        <ele>2197</ele>
        <time>2020-09-15T07:39:05Z</time>
      </trkpt>
      <trkpt lat="44.81052" lon="6.73821">
        <ele>2193</ele>
        <time>2020-09-15T07:39:15Z</time>
      </trkpt>
      <trkpt lat="44.81016" lon="6.73835">
        <ele>2191</ele>
        <time>2020-09-15T07:39:22Z</time>
      </trkpt>
      <trkpt lat="44.80977" lon="6.73846">
        <ele>2193</ele>
        <time>2020-09-15T07:39:29Z</time>
      </trkpt>
      <trkpt lat="44.80967" lon="6.73846">
        <ele>2194</ele>
        <time>2020-09-15T07:39:31Z</time>
      </trkpt>
      <trkpt lat="44.80954" lon="6.73841">
        <ele>2193</ele>
        <time>2020-09-15T07:39:33Z</time>
      </trkpt>
      <trkpt lat="44.80936" lon="6.7383">
        <ele>2191</ele>
        <time>2020-09-15T07:39:37Z</time>
      </trkpt>
      <trkpt lat="44.80919" lon="6.73815">
        <ele>2190</ele>
        <time>2020-09-15T07:39:40Z</time>
      </trkpt>
      <trkpt lat="44.80909" lon="6.73799">
        <ele>2192</ele>
        <time>2020-09-15T07:39:43Z</time>
      </trkpt>
      <trkpt lat="44.80875" lon="6.73732">
        <ele>2191</ele>
        <time>2020-09-15T07:39:53Z</time>
      </trkpt>
      <trkpt lat="44.80865" lon="6.73718">
        <ele>2190</ele>
        <time>2020-09-15T07:39:56Z</time>
      </trkpt>
      <trkpt lat="44.80858" lon="6.73716">
        <ele>2192</ele>
        <time>2020-09-15T07:39:57Z</time>
      </trkpt>
      <trkpt lat="44.80842" lon="6.73715">
        <ele>2196</ele>
        <time>2020-09-15T07:40:00Z</time>
      </trkpt>
      <trkpt lat="44.80808" lon="6.7372">
        <ele>2210</ele>
        <time>2020-09-15T07:40:06Z</time>
      </trkpt>
      <trkpt lat="44.808" lon="6.73717">
        <ele>2212</ele>
        <time>2020-09-15T07:40:07Z</time>
      </trkpt>
      <trkpt lat="44.8079" lon="6.73709">
        <ele>2214</ele>
        <time>2020-09-15T07:40:09Z</time>
      </trkpt>
      <trkpt lat="44.80778" lon="6.73693">
        <ele>2213</ele>
        <time>2020-09-15T07:40:12Z</time>
      </trkpt>
      <trkpt lat="44.80768" lon="6.73675">
        <ele>2211</ele>
        <time>2020-09-15T07:40:15Z</time>
      </trkpt>
      <trkpt lat="44.80763" lon="6.73656">
        <ele>2208</ele>
        <time>2020-09-15T07:40:18Z</time>
      </trkpt>
      <trkpt lat="44.80759" lon="6.73624">
        <ele>2202</ele>
        <time>2020-09-15T07:40:22Z</time>
      </trkpt>
      <trkpt lat="44.80755" lon="6.73615">
        <ele>2202</ele>
        <time>2020-09-15T07:40:23Z</time>
      </trkpt>
      <trkpt lat="44.80745" lon="6.73607">
        <ele>2202</ele>
        <time>2020-09-15T07:40:25Z</time>
      </trkpt>
      <trkpt lat="44.80734" lon="6.73604">
        <ele>2202</ele>
        <time>2020-09-15T07:40:27Z</time>
      </trkpt>
      <trkpt lat="44.80722" lon="6.73607">
        <ele>2204</ele>
        <time>2020-09-15T07:40:29Z</time>
      </trkpt>
      <trkpt lat="44.80576" lon="6.73666">
        <ele>2208</ele>
        <time>2020-09-15T07:40:57Z</time>
      </trkpt>
      <trkpt lat="44.80564" lon="6.73668">
        <ele>2206</ele>
        <time>2020-09-15T07:40:59Z</time>
      </trkpt>
      <trkpt lat="44.80522" lon="6.73666">
        <ele>2195</ele>
        <time>2020-09-15T07:41:06Z</time>
      </trkpt>
      <trkpt lat="44.8049" lon="6.73671">
        <ele>2190</ele>
        <time>2020-09-15T07:41:12Z</time>
      </trkpt>
      <trkpt lat="44.80442" lon="6.73699">
        <ele>2188</ele>
        <time>2020-09-15T07:41:21Z</time>
      </trkpt>
      <trkpt lat="44.80364" lon="6.73756">
        <ele>2187</ele>
        <time>2020-09-15T07:41:37Z</time>
      </trkpt>
      <trkpt lat="44.80355" lon="6.73757">
        <ele>2186</ele>
        <time>2020-09-15T07:41:38Z</time>
      </trkpt>
      <trkpt lat="44.80351" lon="6.7375">
        <ele>2183</ele>
        <time>2020-09-15T07:41:39Z</time>
      </trkpt>
      <trkpt lat="44.80353" lon="6.7374">
        <ele>2180</ele>
        <time>2020-09-15T07:41:41Z</time>
      </trkpt>
      <trkpt lat="44.80356" lon="6.73736">
        <ele>2180</ele>
        <time>2020-09-15T07:41:42Z</time>
      </trkpt>
      <trkpt lat="44.80381" lon="6.73716">
        <ele>2180</ele>
        <time>2020-09-15T07:41:47Z</time>
      </trkpt>
      <trkpt lat="44.80405" lon="6.73692">
        <ele>2178</ele>
        <time>2020-09-15T07:41:52Z</time>
      </trkpt>
      <trkpt lat="44.80412" lon="6.7368">
        <ele>2177</ele>
        <time>2020-09-15T07:41:54Z</time>
      </trkpt>
      <trkpt lat="44.80422" lon="6.73657">
        <ele>2172</ele>
        <time>2020-09-15T07:41:57Z</time>
      </trkpt>
      <trkpt lat="44.80427" lon="6.73649">
        <ele>2170</ele>
        <time>2020-09-15T07:41:59Z</time>
      </trkpt>
      <trkpt lat="44.80437" lon="6.73641">
        <ele>2170</ele>
        <time>2020-09-15T07:42:01Z</time>
      </trkpt>
      <trkpt lat="44.80456" lon="6.73633">
        <ele>2170</ele>
        <time>2020-09-15T07:42:04Z</time>
      </trkpt>
      <trkpt lat="44.80471" lon="6.73623">
        <ele>2170</ele>
        <time>2020-09-15T07:42:07Z</time>
      </trkpt>
      <trkpt lat="44.80531" lon="6.73558">
        <ele>2162</ele>
        <time>2020-09-15T07:42:21Z</time>
      </trkpt>
      <trkpt lat="44.80558" lon="6.73525">
        <ele>2160</ele>
        <time>2020-09-15T07:42:27Z</time>
      </trkpt>
      <trkpt lat="44.80566" lon="6.73511">
        <ele>2159</ele>
        <time>2020-09-15T07:42:29Z</time>
      </trkpt>
      <trkpt lat="44.80569" lon="6.73497">
        <ele>2157</ele>
        <time>2020-09-15T07:42:31Z</time>
      </trkpt>
      <trkpt lat="44.80568" lon="6.73481">
        <ele>2157</ele>
        <time>2020-09-15T07:42:33Z</time>
      </trkpt>
      <trkpt lat="44.80561" lon="6.73467">
        <ele>2155</ele>
        <time>2020-09-15T07:42:35Z</time>
      </trkpt>
      <trkpt lat="44.8054" lon="6.7345">
        <ele>2152</ele>
        <time>2020-09-15T07:42:40Z</time>
      </trkpt>
      <trkpt lat="44.80521" lon="6.73439">
        <ele>2151</ele>
        <time>2020-09-15T07:42:43Z</time>
      </trkpt>
      <trkpt lat="44.80503" lon="6.73435">
        <ele>2149</ele>
        <time>2020-09-15T07:42:46Z</time>
      </trkpt>
      <trkpt lat="44.80475" lon="6.73433">
        <ele>2146</ele>
        <time>2020-09-15T07:42:51Z</time>
      </trkpt>
      <trkpt lat="44.80412" lon="6.73446">
        <ele>2138</ele>
        <time>2020-09-15T07:43:03Z</time>
      </trkpt>
      <trkpt lat="44.80402" lon="6.73444">
        <ele>2136</ele>
        <time>2020-09-15T07:43:05Z</time>
      </trkpt>
      <trkpt lat="44.80329" lon="6.73401">
        <ele>2128</ele>
        <time>2020-09-15T07:43:19Z</time>
      </trkpt>
      <trkpt lat="44.80312" lon="6.73389">
        <ele>2126</ele>
        <time>2020-09-15T07:43:22Z</time>
      </trkpt>
      <trkpt lat="44.80287" lon="6.73367">
        <ele>2122</ele>
        <time>2020-09-15T07:43:27Z</time>
      </trkpt>
      <trkpt lat="44.80258" lon="6.73348">
        <ele>2116</ele>
        <time>2020-09-15T07:43:33Z</time>
      </trkpt>
      <trkpt lat="44.80245" lon="6.73336">
        <ele>2114</ele>
        <time>2020-09-15T07:43:36Z</time>
      </trkpt>
      <trkpt lat="44.80227" lon="6.73312">
        <ele>2111</ele>
        <time>2020-09-15T07:43:40Z</time>
      </trkpt>
      <trkpt lat="44.80173" lon="6.73219">
        <ele>2105</ele>
        <time>2020-09-15T07:43:55Z</time>
      </trkpt>
      <trkpt lat="44.80166" lon="6.7321">
        <ele>2103</ele>
        <time>2020-09-15T07:43:57Z</time>
      </trkpt>
      <trkpt lat="44.80136" lon="6.73186">
        <ele>2095</ele>
        <time>2020-09-15T07:44:03Z</time>
      </trkpt>
      <trkpt lat="44.80128" lon="6.73176">
        <ele>2094</ele>
        <time>2020-09-15T07:44:05Z</time>
      </trkpt>
      <trkpt lat="44.80117" lon="6.73157">
        <ele>2091</ele>
        <time>2020-09-15T07:44:08Z</time>
      </trkpt>
      <trkpt lat="44.80107" lon="6.73127">
        <ele>2084</ele>
        <time>2020-09-15T07:44:12Z</time>
      </trkpt>
      <trkpt lat="44.80099" lon="6.73118">
        <ele>2081</ele>
        <time>2020-09-15T07:44:14Z</time>
      </trkpt>
      <trkpt lat="44.8009" lon="6.73117">
        <ele>2079</ele>
        <time>2020-09-15T07:44:16Z</time>
      </trkpt>
      <trkpt lat="44.80082" lon="6.73122">
        <ele>2077</ele>
        <time>2020-09-15T07:44:17Z</time>
      </trkpt>
      <trkpt lat="44.8008" lon="6.73131">
        <ele>2077</ele>
        <time>2020-09-15T07:44:18Z</time>
      </trkpt>
      <trkpt lat="44.80081" lon="6.73141">
        <ele>2079</ele>
        <time>2020-09-15T07:44:20Z</time>
      </trkpt>
      <trkpt lat="44.80102" lon="6.73175">
        <ele>2086</ele>
        <time>2020-09-15T07:44:25Z</time>
      </trkpt>
      <trkpt lat="44.80131" lon="6.73264">
        <ele>2083</ele>
        <time>2020-09-15T07:44:38Z</time>
      </trkpt>
      <trkpt lat="44.80134" lon="6.73271">
        <ele>2083</ele>
        <time>2020-09-15T07:44:39Z</time>
      </trkpt>
      <trkpt lat="44.80153" lon="6.73301">
        <ele>2085</ele>
        <time>2020-09-15T07:44:44Z</time>
      </trkpt>
      <trkpt lat="44.80166" lon="6.73341">
        <ele>2083</ele>
        <time>2020-09-15T07:44:49Z</time>
      </trkpt>
      <trkpt lat="44.80204" lon="6.73395">
        <ele>2087</ele>
        <time>2020-09-15T07:44:59Z</time>
      </trkpt>
      <trkpt lat="44.80208" lon="6.73411">
        <ele>2085</ele>
        <time>2020-09-15T07:45:01Z</time>
      </trkpt>
      <trkpt lat="44.80207" lon="6.73417">
        <ele>2084</ele>
        <time>2020-09-15T07:45:02Z</time>
      </trkpt>
      <trkpt lat="44.80204" lon="6.73423">
        <ele>2083</ele>
        <time>2020-09-15T07:45:03Z</time>
      </trkpt>
      <trkpt lat="44.80199" lon="6.73425">
        <ele>2081</ele>
        <time>2020-09-15T07:45:04Z</time>
      </trkpt>
      <trkpt lat="44.80192" lon="6.73422">
        <ele>2078</ele>
        <time>2020-09-15T07:45:05Z</time>
      </trkpt>
      <trkpt lat="44.80172" lon="6.73386">
        <ele>2077</ele>
        <time>2020-09-15T07:45:11Z</time>
      </trkpt>
      <trkpt lat="44.80141" lon="6.73352">
        <ele>2069</ele>
        <time>2020-09-15T07:45:18Z</time>
      </trkpt>
      <trkpt lat="44.80125" lon="6.73326">
        <ele>2065</ele>
        <time>2020-09-15T07:45:22Z</time>
      </trkpt>
      <trkpt lat="44.80087" lon="6.7329">
        <ele>2057</ele>
        <time>2020-09-15T07:45:30Z</time>
      </trkpt>
      <trkpt lat="44.80066" lon="6.73262">
        <ele>2058</ele>
        <time>2020-09-15T07:45:36Z</time>
      </trkpt>
      <trkpt lat="44.80046" lon="6.73242">
        <ele>2056</ele>
        <time>2020-09-15T07:45:40Z</time>
      </trkpt>
      <trkpt lat="44.80038" lon="6.73237">
        <ele>2054</ele>
        <time>2020-09-15T07:45:41Z</time>
      </trkpt>
      <trkpt lat="44.80024" lon="6.73233">
        <ele>2050</ele>
        <time>2020-09-15T07:45:44Z</time>
      </trkpt>
      <trkpt lat="44.79984" lon="6.73232">
        <ele>2036</ele>
        <time>2020-09-15T07:45:51Z</time>
      </trkpt>
      <trkpt lat="44.79969" lon="6.73229">
        <ele>2030</ele>
        <time>2020-09-15T07:45:54Z</time>
      </trkpt>
      <trkpt lat="44.79947" lon="6.73217">
        <ele>2022</ele>
        <time>2020-09-15T07:45:58Z</time>
      </trkpt>
      <trkpt lat="44.79941" lon="6.73205">
        <ele>2020</ele>
        <time>2020-09-15T07:46:00Z</time>
      </trkpt>
      <trkpt lat="44.79941" lon="6.73185">
        <ele>2022</ele>
        <time>2020-09-15T07:46:02Z</time>
      </trkpt>
      <trkpt lat="44.79952" lon="6.73096">
        <ele>2018</ele>
        <time>2020-09-15T07:46:14Z</time>
      </trkpt>
      <trkpt lat="44.79958" lon="6.73072">
        <ele>2017</ele>
        <time>2020-09-15T07:46:17Z</time>
      </trkpt>
      <trkpt lat="44.79966" lon="6.73049">
        <ele>2016</ele>
        <time>2020-09-15T07:46:20Z</time>
      </trkpt>
      <trkpt lat="44.79978" lon="6.73025">
        <ele>2016</ele>
        <time>2020-09-15T07:46:24Z</time>
      </trkpt>
      <trkpt lat="44.80006" lon="6.72986">
        <ele>2017</ele>
        <time>2020-09-15T07:46:31Z</time>
      </trkpt>
      <trkpt lat="44.80027" lon="6.72965">
        <ele>2013</ele>
        <time>2020-09-15T07:46:36Z</time>
      </trkpt>
      <trkpt lat="44.80028" lon="6.72955">
        <ele>2008</ele>
        <time>2020-09-15T07:46:37Z</time>
      </trkpt>
      <trkpt lat="44.80025" lon="6.72948">
        <ele>2005</ele>
        <time>2020-09-15T07:46:38Z</time>
      </trkpt>
      <trkpt lat="44.80016" lon="6.72949">
        <ele>2004</ele>
        <time>2020-09-15T07:46:39Z</time>
      </trkpt>
      <trkpt lat="44.79979" lon="6.7299">
        <ele>2007</ele>
        <time>2020-09-15T07:46:48Z</time>
      </trkpt>
      <trkpt lat="44.79958" lon="6.73012">
        <ele>2002</ele>
        <time>2020-09-15T07:46:53Z</time>
      </trkpt>
      <trkpt lat="44.79947" lon="6.73026">
        <ele>2000</ele>
        <time>2020-09-15T07:46:55Z</time>
      </trkpt>
      <trkpt lat="44.79924" lon="6.73063">
        <ele>1996</ele>
        <time>2020-09-15T07:47:01Z</time>
      </trkpt>
      <trkpt lat="44.79915" lon="6.73085">
        <ele>1995</ele>
        <time>2020-09-15T07:47:05Z</time>
      </trkpt>
      <trkpt lat="44.79903" lon="6.73129">
        <ele>1996</ele>
        <time>2020-09-15T07:47:11Z</time>
      </trkpt>
      <trkpt lat="44.79898" lon="6.73137">
        <ele>1994</ele>
        <time>2020-09-15T07:47:12Z</time>
      </trkpt>
      <trkpt lat="44.79885" lon="6.73156">
        <ele>1989</ele>
        <time>2020-09-15T07:47:15Z</time>
      </trkpt>
      <trkpt lat="44.79878" lon="6.73171">
        <ele>1986</ele>
        <time>2020-09-15T07:47:17Z</time>
      </trkpt>
      <trkpt lat="44.79874" lon="6.73195">
        <ele>1984</ele>
        <time>2020-09-15T07:47:21Z</time>
      </trkpt>
      <trkpt lat="44.79873" lon="6.73239">
        <ele>1984</ele>
        <time>2020-09-15T07:47:26Z</time>
      </trkpt>
      <trkpt lat="44.79869" lon="6.73247">
        <ele>1982</ele>
        <time>2020-09-15T07:47:27Z</time>
      </trkpt>
      <trkpt lat="44.79863" lon="6.73246">
        <ele>1979</ele>
        <time>2020-09-15T07:47:28Z</time>
      </trkpt>
      <trkpt lat="44.79861" lon="6.7324">
        <ele>1978</ele>
        <time>2020-09-15T07:47:29Z</time>
      </trkpt>
      <trkpt lat="44.79862" lon="6.73157">
        <ele>1974</ele>
        <time>2020-09-15T07:47:40Z</time>
      </trkpt>
      <trkpt lat="44.79865" lon="6.73142">
        <ele>1974</ele>
        <time>2020-09-15T07:47:42Z</time>
      </trkpt>
      <trkpt lat="44.79879" lon="6.73108">
        <ele>1978</ele>
        <time>2020-09-15T07:47:47Z</time>
      </trkpt>
      <trkpt lat="44.79882" lon="6.73058">
        <ele>1971</ele>
        <time>2020-09-15T07:47:53Z</time>
      </trkpt>
      <trkpt lat="44.79885" lon="6.73034">
        <ele>1968</ele>
        <time>2020-09-15T07:47:56Z</time>
      </trkpt>
      <trkpt lat="44.79913" lon="6.72948">
        <ele>1963</ele>
        <time>2020-09-15T07:48:08Z</time>
      </trkpt>
      <trkpt lat="44.79917" lon="6.72925">
        <ele>1959</ele>
        <time>2020-09-15T07:48:11Z</time>
      </trkpt>
      <trkpt lat="44.79916" lon="6.72908">
        <ele>1954</ele>
        <time>2020-09-15T07:48:13Z</time>
      </trkpt>
      <trkpt lat="44.79915" lon="6.72899">
        <ele>1950</ele>
        <time>2020-09-15T07:48:14Z</time>
      </trkpt>
      <trkpt lat="44.79912" lon="6.72895">
        <ele>1948</ele>
        <time>2020-09-15T07:48:15Z</time>
      </trkpt>
      <trkpt lat="44.79907" lon="6.72894">
        <ele>1946</ele>
        <time>2020-09-15T07:48:16Z</time>
      </trkpt>
      <trkpt lat="44.79905" lon="6.72895">
        <ele>1945</ele>
        <time>2020-09-15T07:48:16Z</time>
      </trkpt>
      <trkpt lat="44.79901" lon="6.72899">
        <ele>1945</ele>
        <time>2020-09-15T07:48:17Z</time>
      </trkpt>
      <trkpt lat="44.79899" lon="6.72908">
        <ele>1947</ele>
        <time>2020-09-15T07:48:18Z</time>
      </trkpt>
      <trkpt lat="44.799" lon="6.72933">
        <ele>1953</ele>
        <time>2020-09-15T07:48:22Z</time>
      </trkpt>
      <trkpt lat="44.79897" lon="6.72945">
        <ele>1955</ele>
        <time>2020-09-15T07:48:23Z</time>
      </trkpt>
      <trkpt lat="44.79889" lon="6.72959">
        <ele>1954</ele>
        <time>2020-09-15T07:48:25Z</time>
      </trkpt>
      <trkpt lat="44.79856" lon="6.73003">
        <ele>1947</ele>
        <time>2020-09-15T07:48:34Z</time>
      </trkpt>
      <trkpt lat="44.79849" lon="6.7302">
        <ele>1946</ele>
        <time>2020-09-15T07:48:36Z</time>
      </trkpt>
      <trkpt lat="44.79841" lon="6.73053">
        <ele>1948</ele>
        <time>2020-09-15T07:48:40Z</time>
      </trkpt>
      <trkpt lat="44.79837" lon="6.73066">
        <ele>1947</ele>
        <time>2020-09-15T07:48:42Z</time>
      </trkpt>
      <trkpt lat="44.79831" lon="6.73076">
        <ele>1946</ele>
        <time>2020-09-15T07:48:44Z</time>
      </trkpt>
      <trkpt lat="44.7981" lon="6.731">
        <ele>1937</ele>
        <time>2020-09-15T07:48:49Z</time>
      </trkpt>
      <trkpt lat="44.79807" lon="6.73107">
        <ele>1936</ele>
        <time>2020-09-15T07:48:50Z</time>
      </trkpt>
      <trkpt lat="44.79802" lon="6.73131">
        <ele>1936</ele>
        <time>2020-09-15T07:48:53Z</time>
      </trkpt>
      <trkpt lat="44.79802" lon="6.73162">
        <ele>1940</ele>
        <time>2020-09-15T07:48:57Z</time>
      </trkpt>
      <trkpt lat="44.79801" lon="6.73171">
        <ele>1940</ele>
        <time>2020-09-15T07:48:58Z</time>
      </trkpt>
      <trkpt lat="44.79794" lon="6.73192">
        <ele>1938</ele>
        <time>2020-09-15T07:49:01Z</time>
      </trkpt>
      <trkpt lat="44.79786" lon="6.73209">
        <ele>1936</ele>
        <time>2020-09-15T07:49:03Z</time>
      </trkpt>
      <trkpt lat="44.79774" lon="6.73223">
        <ele>1932</ele>
        <time>2020-09-15T07:49:06Z</time>
      </trkpt>
      <trkpt lat="44.79763" lon="6.73229">
        <ele>1927</ele>
        <time>2020-09-15T07:49:08Z</time>
      </trkpt>
      <trkpt lat="44.79721" lon="6.73232">
        <ele>1909</ele>
        <time>2020-09-15T07:49:16Z</time>
      </trkpt>
      <trkpt lat="44.79716" lon="6.7324">
        <ele>1908</ele>
        <time>2020-09-15T07:49:17Z</time>
      </trkpt>
      <trkpt lat="44.79716" lon="6.7325">
        <ele>1910</ele>
        <time>2020-09-15T07:49:18Z</time>
      </trkpt>
      <trkpt lat="44.79722" lon="6.73272">
        <ele>1907</ele>
        <time>2020-09-15T07:49:21Z</time>
      </trkpt>
      <trkpt lat="44.7973" lon="6.73287">
        <ele>1906</ele>
        <time>2020-09-15T07:49:24Z</time>
      </trkpt>
      <trkpt lat="44.79754" lon="6.73313">
        <ele>1910</ele>
        <time>2020-09-15T07:49:29Z</time>
      </trkpt>
      <trkpt lat="44.79793" lon="6.73345">
        <ele>1916</ele>
        <time>2020-09-15T07:49:37Z</time>
      </trkpt>
      <trkpt lat="44.79804" lon="6.73361">
        <ele>1916</ele>
        <time>2020-09-15T07:49:40Z</time>
      </trkpt>
      <trkpt lat="44.79827" lon="6.73402">
        <ele>1911</ele>
        <time>2020-09-15T07:49:47Z</time>
      </trkpt>
      <trkpt lat="44.79854" lon="6.73434">
        <ele>1916</ele>
        <time>2020-09-15T07:49:53Z</time>
      </trkpt>
      <trkpt lat="44.79856" lon="6.7344">
        <ele>1917</ele>
        <time>2020-09-15T07:49:54Z</time>
      </trkpt>
      <trkpt lat="44.79857" lon="6.73447">
        <ele>1917</ele>
        <time>2020-09-15T07:49:55Z</time>
      </trkpt>
      <trkpt lat="44.79855" lon="6.73453">
        <ele>1916</ele>
        <time>2020-09-15T07:49:55Z</time>
      </trkpt>
      <trkpt lat="44.79852" lon="6.73456">
        <ele>1915</ele>
        <time>2020-09-15T07:49:56Z</time>
      </trkpt>
      <trkpt lat="44.79845" lon="6.73457">
        <ele>1912</ele>
        <time>2020-09-15T07:49:57Z</time>
      </trkpt>
      <trkpt lat="44.79838" lon="6.73451">
        <ele>1909</ele>
        <time>2020-09-15T07:49:59Z</time>
      </trkpt>
      <trkpt lat="44.79804" lon="6.73405">
        <ele>1902</ele>
        <time>2020-09-15T07:50:07Z</time>
      </trkpt>
      <trkpt lat="44.79783" lon="6.73383">
        <ele>1901</ele>
        <time>2020-09-15T07:50:12Z</time>
      </trkpt>
      <trkpt lat="44.79727" lon="6.73352">
        <ele>1889</ele>
        <time>2020-09-15T07:50:23Z</time>
      </trkpt>
      <trkpt lat="44.79699" lon="6.73339">
        <ele>1882</ele>
        <time>2020-09-15T07:50:28Z</time>
      </trkpt>
      <trkpt lat="44.79671" lon="6.73308">
        <ele>1878</ele>
        <time>2020-09-15T07:50:34Z</time>
      </trkpt>
      <trkpt lat="44.79646" lon="6.73288">
        <ele>1873</ele>
        <time>2020-09-15T07:50:39Z</time>
      </trkpt>
      <trkpt lat="44.79606" lon="6.7323">
        <ele>1861</ele>
        <time>2020-09-15T07:50:49Z</time>
      </trkpt>
      <trkpt lat="44.79603" lon="6.73219">
        <ele>1860</ele>
        <time>2020-09-15T07:50:51Z</time>
      </trkpt>
      <trkpt lat="44.79604" lon="6.73208">
        <ele>1859</ele>
        <time>2020-09-15T07:50:52Z</time>
      </trkpt>
      <trkpt lat="44.79608" lon="6.73191">
        <ele>1860</ele>
        <time>2020-09-15T07:50:55Z</time>
      </trkpt>
      <trkpt lat="44.79617" lon="6.73171">
        <ele>1862</ele>
        <time>2020-09-15T07:50:58Z</time>
      </trkpt>
      <trkpt lat="44.79624" lon="6.73161">
        <ele>1862</ele>
        <time>2020-09-15T07:50:59Z</time>
      </trkpt>
      <trkpt lat="44.7964" lon="6.73149">
        <ele>1865</ele>
        <time>2020-09-15T07:51:03Z</time>
      </trkpt>
      <trkpt lat="44.79653" lon="6.73134">
        <ele>1866</ele>
        <time>2020-09-15T07:51:06Z</time>
      </trkpt>
      <trkpt lat="44.79661" lon="6.73122">
        <ele>1866</ele>
        <time>2020-09-15T07:51:08Z</time>
      </trkpt>
      <trkpt lat="44.79666" lon="6.73107">
        <ele>1864</ele>
        <time>2020-09-15T07:51:10Z</time>
      </trkpt>
      <trkpt lat="44.79667" lon="6.73098">
        <ele>1862</ele>
        <time>2020-09-15T07:51:11Z</time>
      </trkpt>
      <trkpt lat="44.79665" lon="6.73092">
        <ele>1860</ele>
        <time>2020-09-15T07:51:12Z</time>
      </trkpt>
      <trkpt lat="44.7965" lon="6.73062">
        <ele>1851</ele>
        <time>2020-09-15T07:51:16Z</time>
      </trkpt>
      <trkpt lat="44.79646" lon="6.73048">
        <ele>1849</ele>
        <time>2020-09-15T07:51:18Z</time>
      </trkpt>
      <trkpt lat="44.79646" lon="6.73041">
        <ele>1848</ele>
        <time>2020-09-15T07:51:19Z</time>
      </trkpt>
      <trkpt lat="44.7965" lon="6.73017">
        <ele>1847</ele>
        <time>2020-09-15T07:51:22Z</time>
      </trkpt>
      <trkpt lat="44.79663" lon="6.7297">
        <ele>1846</ele>
        <time>2020-09-15T07:51:29Z</time>
      </trkpt>
      <trkpt lat="44.79668" lon="6.72958">
        <ele>1847</ele>
        <time>2020-09-15T07:51:30Z</time>
      </trkpt>
      <trkpt lat="44.79685" lon="6.72933">
        <ele>1851</ele>
        <time>2020-09-15T07:51:35Z</time>
      </trkpt>
      <trkpt lat="44.79691" lon="6.72916">
        <ele>1850</ele>
        <time>2020-09-15T07:51:37Z</time>
      </trkpt>
      <trkpt lat="44.79692" lon="6.72873">
        <ele>1847</ele>
        <time>2020-09-15T07:51:43Z</time>
      </trkpt>
      <trkpt lat="44.79683" lon="6.72831">
        <ele>1840</ele>
        <time>2020-09-15T07:51:48Z</time>
      </trkpt>
      <trkpt lat="44.7967" lon="6.72811">
        <ele>1836</ele>
        <time>2020-09-15T07:51:52Z</time>
      </trkpt>
      <trkpt lat="44.79662" lon="6.72806">
        <ele>1834</ele>
        <time>2020-09-15T07:51:53Z</time>
      </trkpt>
      <trkpt lat="44.7965" lon="6.72802">
        <ele>1832</ele>
        <time>2020-09-15T07:51:55Z</time>
      </trkpt>
      <trkpt lat="44.79634" lon="6.72804">
        <ele>1829</ele>
        <time>2020-09-15T07:51:58Z</time>
      </trkpt>
      <trkpt lat="44.79622" lon="6.72817">
        <ele>1827</ele>
        <time>2020-09-15T07:52:01Z</time>
      </trkpt>
      <trkpt lat="44.79614" lon="6.72832">
        <ele>1825</ele>
        <time>2020-09-15T07:52:03Z</time>
      </trkpt>
      <trkpt lat="44.796" lon="6.72868">
        <ele>1822</ele>
        <time>2020-09-15T07:52:08Z</time>
      </trkpt>
      <trkpt lat="44.79582" lon="6.72905">
        <ele>1817</ele>
        <time>2020-09-15T07:52:14Z</time>
      </trkpt>
      <trkpt lat="44.79539" lon="6.72968">
        <ele>1810</ele>
        <time>2020-09-15T07:52:25Z</time>
      </trkpt>
      <trkpt lat="44.79499" lon="6.73013">
        <ele>1801</ele>
        <time>2020-09-15T07:52:34Z</time>
      </trkpt>
      <trkpt lat="44.79457" lon="6.73047">
        <ele>1796</ele>
        <time>2020-09-15T07:52:43Z</time>
      </trkpt>
      <trkpt lat="44.79364" lon="6.73113">
        <ele>1784</ele>
        <time>2020-09-15T07:53:01Z</time>
      </trkpt>
      <trkpt lat="44.79345" lon="6.73125">
        <ele>1781</ele>
        <time>2020-09-15T07:53:05Z</time>
      </trkpt>
      <trkpt lat="44.79284" lon="6.73156">
        <ele>1775</ele>
        <time>2020-09-15T07:53:17Z</time>
      </trkpt>
      <trkpt lat="44.79182" lon="6.732">
        <ele>1766</ele>
        <time>2020-09-15T07:53:36Z</time>
      </trkpt>
      <trkpt lat="44.79137" lon="6.73212">
        <ele>1761</ele>
        <time>2020-09-15T07:53:44Z</time>
      </trkpt>
      <trkpt lat="44.79058" lon="6.73222">
        <ele>1751</ele>
        <time>2020-09-15T07:53:58Z</time>
      </trkpt>
      <trkpt lat="44.79024" lon="6.73231">
        <ele>1747</ele>
        <time>2020-09-15T07:54:04Z</time>
      </trkpt>
      <trkpt lat="44.78932" lon="6.73288">
        <ele>1741</ele>
        <time>2020-09-15T07:54:22Z</time>
      </trkpt>
      <trkpt lat="44.7889" lon="6.73296">
        <ele>1738</ele>
        <time>2020-09-15T07:54:29Z</time>
      </trkpt>
      <trkpt lat="44.78766" lon="6.73311">
        <ele>1730</ele>
        <time>2020-09-15T07:54:52Z</time>
      </trkpt>
      <trkpt lat="44.78686" lon="6.73305">
        <ele>1721</ele>
        <time>2020-09-15T07:55:06Z</time>
      </trkpt>
      <trkpt lat="44.78661" lon="6.73307">
        <ele>1719</ele>
        <time>2020-09-15T07:55:10Z</time>
      </trkpt>
      <trkpt lat="44.7863" lon="6.73314">
        <ele>1716</ele>
        <time>2020-09-15T07:55:16Z</time>
      </trkpt>
      <trkpt lat="44.78608" lon="6.73323">
        <ele>1714</ele>
        <time>2020-09-15T07:55:20Z</time>
      </trkpt>
      <trkpt lat="44.78486" lon="6.73395">
        <ele>1704</ele>
        <time>2020-09-15T07:55:43Z</time>
      </trkpt>
      <trkpt lat="44.78388" lon="6.73457">
        <ele>1695</ele>
        <time>2020-09-15T07:56:03Z</time>
      </trkpt>
      <trkpt lat="44.78356" lon="6.73472">
        <ele>1693</ele>
        <time>2020-09-15T07:56:09Z</time>
      </trkpt>
      <trkpt lat="44.78289" lon="6.73489">
        <ele>1688</ele>
        <time>2020-09-15T07:56:21Z</time>
      </trkpt>
      <trkpt lat="44.78244" lon="6.73495">
        <ele>1686</ele>
        <time>2020-09-15T07:56:29Z</time>
      </trkpt>
      <trkpt lat="44.78189" lon="6.73497">
        <ele>1684</ele>
        <time>2020-09-15T07:56:39Z</time>
      </trkpt>
      <trkpt lat="44.7815" lon="6.73493">
        <ele>1682</ele>
        <time>2020-09-15T07:56:45Z</time>
      </trkpt>
      <trkpt lat="44.78142" lon="6.73493">
        <ele>1682</ele>
        <time>2020-09-15T07:56:47Z</time>
      </trkpt>
      <trkpt lat="44.78128" lon="6.73496">
        <ele>1681</ele>
        <time>2020-09-15T07:56:49Z</time>
      </trkpt>
      <trkpt lat="44.78079" lon="6.73538">
        <ele>1681</ele>
        <time>2020-09-15T07:57:00Z</time>
      </trkpt>
      <trkpt lat="44.7806" lon="6.73544">
        <ele>1680</ele>
        <time>2020-09-15T07:57:03Z</time>
      </trkpt>
      <trkpt lat="44.77986" lon="6.73534">
        <ele>1672</ele>
        <time>2020-09-15T07:57:16Z</time>
      </trkpt>
      <trkpt lat="44.77878" lon="6.7351">
        <ele>1654</ele>
        <time>2020-09-15T07:57:36Z</time>
      </trkpt>
      <trkpt lat="44.77855" lon="6.73507">
        <ele>1651</ele>
        <time>2020-09-15T07:57:40Z</time>
      </trkpt>
      <trkpt lat="44.77813" lon="6.7351">
        <ele>1647</ele>
        <time>2020-09-15T07:57:47Z</time>
      </trkpt>
      <trkpt lat="44.77752" lon="6.73529">
        <ele>1643</ele>
        <time>2020-09-15T07:57:58Z</time>
      </trkpt>
      <trkpt lat="44.77726" lon="6.73532">
        <ele>1641</ele>
        <time>2020-09-15T07:58:03Z</time>
      </trkpt>
      <trkpt lat="44.77646" lon="6.73521">
        <ele>1632</ele>
        <time>2020-09-15T07:58:17Z</time>
      </trkpt>
      <trkpt lat="44.7762" lon="6.7352">
        <ele>1628</ele>
        <time>2020-09-15T07:58:22Z</time>
      </trkpt>
      <trkpt lat="44.77601" lon="6.73525">
        <ele>1626</ele>
        <time>2020-09-15T07:58:25Z</time>
      </trkpt>
      <trkpt lat="44.77532" lon="6.73561">
        <ele>1622</ele>
        <time>2020-09-15T07:58:39Z</time>
      </trkpt>
      <trkpt lat="44.77457" lon="6.73592">
        <ele>1617</ele>
        <time>2020-09-15T07:58:52Z</time>
      </trkpt>
      <trkpt lat="44.77349" lon="6.7363">
        <ele>1604</ele>
        <time>2020-09-15T07:59:12Z</time>
      </trkpt>
      <trkpt lat="44.77299" lon="6.73642">
        <ele>1599</ele>
        <time>2020-09-15T07:59:21Z</time>
      </trkpt>
      <trkpt lat="44.77129" lon="6.73666">
        <ele>1591</ele>
        <time>2020-09-15T07:59:52Z</time>
      </trkpt>
      <trkpt lat="44.77074" lon="6.73675">
        <ele>1589</ele>
        <time>2020-09-15T08:00:02Z</time>
      </trkpt>
      <trkpt lat="44.76997" lon="6.73683">
        <ele>1577</ele>
        <time>2020-09-15T08:00:15Z</time>
      </trkpt>
      <trkpt lat="44.76959" lon="6.73692">
        <ele>1574</ele>
        <time>2020-09-15T08:00:22Z</time>
      </trkpt>
      <trkpt lat="44.76932" lon="6.73706">
        <ele>1572</ele>
        <time>2020-09-15T08:00:27Z</time>
      </trkpt>
      <trkpt lat="44.76909" lon="6.73722">
        <ele>1570</ele>
        <time>2020-09-15T08:00:32Z</time>
      </trkpt>
      <trkpt lat="44.76846" lon="6.73774">
        <ele>1567</ele>
        <time>2020-09-15T08:00:45Z</time>
      </trkpt>
      <trkpt lat="44.76824" lon="6.73789">
        <ele>1565</ele>
        <time>2020-09-15T08:00:49Z</time>
      </trkpt>
      <trkpt lat="44.76811" lon="6.73795">
        <ele>1564</ele>
        <time>2020-09-15T08:00:52Z</time>
      </trkpt>
      <trkpt lat="44.76781" lon="6.73817">
        <ele>1562</ele>
        <time>2020-09-15T08:00:58Z</time>
      </trkpt>
      <trkpt lat="44.76723" lon="6.73851">
        <ele>1558</ele>
        <time>2020-09-15T08:01:09Z</time>
      </trkpt>
      <trkpt lat="44.76691" lon="6.73875">
        <ele>1556</ele>
        <time>2020-09-15T08:01:15Z</time>
      </trkpt>
      <trkpt lat="44.76627" lon="6.7395">
        <ele>1552</ele>
        <time>2020-09-15T08:01:30Z</time>
      </trkpt>
      <trkpt lat="44.76572" lon="6.73999">
        <ele>1546</ele>
        <time>2020-09-15T08:01:42Z</time>
      </trkpt>
      <trkpt lat="44.76517" lon="6.74061">
        <ele>1540</ele>
        <time>2020-09-15T08:01:54Z</time>
      </trkpt>
      <trkpt lat="44.76413" lon="6.74183">
        <ele>1530</ele>
        <time>2020-09-15T08:02:18Z</time>
      </trkpt>
      <trkpt lat="44.76317" lon="6.74286">
        <ele>1532</ele>
        <time>2020-09-15T08:02:40Z</time>
      </trkpt>
      <trkpt lat="44.76288" lon="6.74304">
        <ele>1534</ele>
        <time>2020-09-15T08:02:45Z</time>
      </trkpt>
      <trkpt lat="44.76227" lon="6.74324">
        <ele>1533</ele>
        <time>2020-09-15T08:02:57Z</time>
      </trkpt>
      <trkpt lat="44.76204" lon="6.74334">
        <ele>1530</ele>
        <time>2020-09-15T08:03:01Z</time>
      </trkpt>
      <trkpt lat="44.76183" lon="6.74349">
        <ele>1530</ele>
        <time>2020-09-15T08:03:05Z</time>
      </trkpt>
      <trkpt lat="44.76169" lon="6.74362">
        <ele>1530</ele>
        <time>2020-09-15T08:03:08Z</time>
      </trkpt>
      <trkpt lat="44.76162" lon="6.74371">
        <ele>1530</ele>
        <time>2020-09-15T08:03:10Z</time>
      </trkpt>
      <trkpt lat="44.76152" lon="6.74387">
        <ele>1530</ele>
        <time>2020-09-15T08:03:12Z</time>
      </trkpt>
      <trkpt lat="44.76123" lon="6.74455">
        <ele>1534</ele>
        <time>2020-09-15T08:03:22Z</time>
      </trkpt>
      <trkpt lat="44.76098" lon="6.74502">
        <ele>1535</ele>
        <time>2020-09-15T08:03:30Z</time>
      </trkpt>
      <trkpt lat="44.76087" lon="6.74519">
        <ele>1538</ele>
        <time>2020-09-15T08:03:33Z</time>
      </trkpt>
      <trkpt lat="44.76074" lon="6.74534">
        <ele>1540</ele>
        <time>2020-09-15T08:03:36Z</time>
      </trkpt>
      <trkpt lat="44.76056" lon="6.74545">
        <ele>1538</ele>
        <time>2020-09-15T08:03:39Z</time>
      </trkpt>
      <trkpt lat="44.76031" lon="6.74557">
        <ele>1533</ele>
        <time>2020-09-15T08:03:44Z</time>
      </trkpt>
      <trkpt lat="44.76016" lon="6.74568">
        <ele>1530</ele>
        <time>2020-09-15T08:03:47Z</time>
      </trkpt>
      <trkpt lat="44.75972" lon="6.74614">
        <ele>1525</ele>
        <time>2020-09-15T08:03:57Z</time>
      </trkpt>
      <trkpt lat="44.75936" lon="6.74646">
        <ele>1521</ele>
        <time>2020-09-15T08:04:04Z</time>
      </trkpt>
      <trkpt lat="44.75914" lon="6.74677">
        <ele>1519</ele>
        <time>2020-09-15T08:04:10Z</time>
      </trkpt>
      <trkpt lat="44.75897" lon="6.74696">
        <ele>1519</ele>
        <time>2020-09-15T08:04:14Z</time>
      </trkpt>
      <trkpt lat="44.75866" lon="6.74727">
        <ele>1515</ele>
        <time>2020-09-15T08:04:20Z</time>
      </trkpt>
      <trkpt lat="44.75859" lon="6.74737">
        <ele>1515</ele>
        <time>2020-09-15T08:04:22Z</time>
      </trkpt>
      <trkpt lat="44.75838" lon="6.74781">
        <ele>1513</ele>
        <time>2020-09-15T08:04:29Z</time>
      </trkpt>
      <trkpt lat="44.75795" lon="6.74854">
        <ele>1505</ele>
        <time>2020-09-15T08:04:41Z</time>
      </trkpt>
      <trkpt lat="44.75783" lon="6.74887">
        <ele>1503</ele>
        <time>2020-09-15T08:04:46Z</time>
      </trkpt>
      <trkpt lat="44.75775" lon="6.74924">
        <ele>1504</ele>
        <time>2020-09-15T08:04:50Z</time>
      </trkpt>
      <trkpt lat="44.75767" lon="6.74946">
        <ele>1503</ele>
        <time>2020-09-15T08:04:54Z</time>
      </trkpt>
      <trkpt lat="44.75759" lon="6.7496">
        <ele>1502</ele>
        <time>2020-09-15T08:04:56Z</time>
      </trkpt>
      <trkpt lat="44.75741" lon="6.74981">
        <ele>1500</ele>
        <time>2020-09-15T08:05:00Z</time>
      </trkpt>
      <trkpt lat="44.75713" lon="6.75001">
        <ele>1495</ele>
        <time>2020-09-15T08:05:06Z</time>
      </trkpt>
      <trkpt lat="44.75689" lon="6.7502">
        <ele>1491</ele>
        <time>2020-09-15T08:05:10Z</time>
      </trkpt>
      <trkpt lat="44.75669" lon="6.75043">
        <ele>1487</ele>
        <time>2020-09-15T08:05:15Z</time>
      </trkpt>
      <trkpt lat="44.75661" lon="6.75061">
        <ele>1486</ele>
        <time>2020-09-15T08:05:18Z</time>
      </trkpt>
      <trkpt lat="44.75659" lon="6.75077">
        <ele>1487</ele>
        <time>2020-09-15T08:05:20Z</time>
      </trkpt>
      <trkpt lat="44.75656" lon="6.7511">
        <ele>1488</ele>
        <time>2020-09-15T08:05:24Z</time>
      </trkpt>
      <trkpt lat="44.75651" lon="6.75129">
        <ele>1488</ele>
        <time>2020-09-15T08:05:27Z</time>
      </trkpt>
      <trkpt lat="44.75631" lon="6.75176">
        <ele>1485</ele>
        <time>2020-09-15T08:05:33Z</time>
      </trkpt>
      <trkpt lat="44.75619" lon="6.75219">
        <ele>1487</ele>
        <time>2020-09-15T08:05:39Z</time>
      </trkpt>
      <trkpt lat="44.7561" lon="6.75236">
        <ele>1487</ele>
        <time>2020-09-15T08:05:42Z</time>
      </trkpt>
      <trkpt lat="44.75601" lon="6.75246">
        <ele>1486</ele>
        <time>2020-09-15T08:05:44Z</time>
      </trkpt>
      <trkpt lat="44.75565" lon="6.75272">
        <ele>1478</ele>
        <time>2020-09-15T08:05:51Z</time>
      </trkpt>
      <trkpt lat="44.75552" lon="6.75286">
        <ele>1476</ele>
        <time>2020-09-15T08:05:54Z</time>
      </trkpt>
      <trkpt lat="44.75542" lon="6.75301">
        <ele>1475</ele>
        <time>2020-09-15T08:05:57Z</time>
      </trkpt>
      <trkpt lat="44.75521" lon="6.75341">
        <ele>1474</ele>
        <time>2020-09-15T08:06:03Z</time>
      </trkpt>
      <trkpt lat="44.7548" lon="6.75445">
        <ele>1466</ele>
        <time>2020-09-15T08:06:18Z</time>
      </trkpt>
      <trkpt lat="44.75472" lon="6.75475">
        <ele>1463</ele>
        <time>2020-09-15T08:06:22Z</time>
      </trkpt>
      <trkpt lat="44.7547" lon="6.75493">
        <ele>1463</ele>
        <time>2020-09-15T08:06:24Z</time>
      </trkpt>
      <trkpt lat="44.7547" lon="6.75541">
        <ele>1466</ele>
        <time>2020-09-15T08:06:30Z</time>
      </trkpt>
      <trkpt lat="44.75465" lon="6.75571">
        <ele>1466</ele>
        <time>2020-09-15T08:06:34Z</time>
      </trkpt>
      <trkpt lat="44.7546" lon="6.75588">
        <ele>1464</ele>
        <time>2020-09-15T08:06:37Z</time>
      </trkpt>
      <trkpt lat="44.75449" lon="6.7561">
        <ele>1461</ele>
        <time>2020-09-15T08:06:40Z</time>
      </trkpt>
      <trkpt lat="44.75438" lon="6.75641">
        <ele>1458</ele>
        <time>2020-09-15T08:06:44Z</time>
      </trkpt>
      <trkpt lat="44.75428" lon="6.75663">
        <ele>1454</ele>
        <time>2020-09-15T08:06:48Z</time>
      </trkpt>
      <trkpt lat="44.75416" lon="6.75702">
        <ele>1449</ele>
        <time>2020-09-15T08:06:53Z</time>
      </trkpt>
      <trkpt lat="44.7541" lon="6.75756">
        <ele>1448</ele>
        <time>2020-09-15T08:07:00Z</time>
      </trkpt>
      <trkpt lat="44.75404" lon="6.75776">
        <ele>1448</ele>
        <time>2020-09-15T08:07:03Z</time>
      </trkpt>
      <trkpt lat="44.75394" lon="6.75789">
        <ele>1445</ele>
        <time>2020-09-15T08:07:05Z</time>
      </trkpt>
      <trkpt lat="44.75371" lon="6.75806">
        <ele>1437</ele>
        <time>2020-09-15T08:07:10Z</time>
      </trkpt>
      <trkpt lat="44.75366" lon="6.75812">
        <ele>1435</ele>
        <time>2020-09-15T08:07:11Z</time>
      </trkpt>
      <trkpt lat="44.75361" lon="6.75824">
        <ele>1434</ele>
        <time>2020-09-15T08:07:13Z</time>
      </trkpt>
      <trkpt lat="44.75356" lon="6.75847">
        <ele>1433</ele>
        <time>2020-09-15T08:07:16Z</time>
      </trkpt>
      <trkpt lat="44.75348" lon="6.75901">
        <ele>1435</ele>
        <time>2020-09-15T08:07:23Z</time>
      </trkpt>
      <trkpt lat="44.7534" lon="6.75931">
        <ele>1434</ele>
        <time>2020-09-15T08:07:27Z</time>
      </trkpt>
      <trkpt lat="44.75325" lon="6.75961">
        <ele>1431</ele>
        <time>2020-09-15T08:07:31Z</time>
      </trkpt>
      <trkpt lat="44.75303" lon="6.75993">
        <ele>1426</ele>
        <time>2020-09-15T08:07:37Z</time>
      </trkpt>
      <trkpt lat="44.75288" lon="6.76033">
        <ele>1425</ele>
        <time>2020-09-15T08:07:43Z</time>
      </trkpt>
      <trkpt lat="44.75266" lon="6.76069">
        <ele>1421</ele>
        <time>2020-09-15T08:07:49Z</time>
      </trkpt>
      <trkpt lat="44.75259" lon="6.76088">
        <ele>1420</ele>
        <time>2020-09-15T08:07:52Z</time>
      </trkpt>
      <trkpt lat="44.7525" lon="6.76138">
        <ele>1424</ele>
        <time>2020-09-15T08:07:58Z</time>
      </trkpt>
      <trkpt lat="44.75245" lon="6.76157">
        <ele>1425</ele>
        <time>2020-09-15T08:08:01Z</time>
      </trkpt>
      <trkpt lat="44.75241" lon="6.76164">
        <ele>1425</ele>
        <time>2020-09-15T08:08:02Z</time>
      </trkpt>
      <trkpt lat="44.75229" lon="6.76176">
        <ele>1424</ele>
        <time>2020-09-15T08:08:04Z</time>
      </trkpt>
      <trkpt lat="44.75201" lon="6.76191">
        <ele>1419</ele>
        <time>2020-09-15T08:08:10Z</time>
      </trkpt>
      <trkpt lat="44.75188" lon="6.762">
        <ele>1416</ele>
        <time>2020-09-15T08:08:12Z</time>
      </trkpt>
      <trkpt lat="44.75166" lon="6.76224">
        <ele>1413</ele>
        <time>2020-09-15T08:08:17Z</time>
      </trkpt>
      <trkpt lat="44.75159" lon="6.76239">
        <ele>1414</ele>
        <time>2020-09-15T08:08:19Z</time>
      </trkpt>
      <trkpt lat="44.75144" lon="6.76277">
        <ele>1415</ele>
        <time>2020-09-15T08:08:25Z</time>
      </trkpt>
      <trkpt lat="44.75132" lon="6.76298">
        <ele>1413</ele>
        <time>2020-09-15T08:08:28Z</time>
      </trkpt>
      <trkpt lat="44.75127" lon="6.7631">
        <ele>1412</ele>
        <time>2020-09-15T08:08:30Z</time>
      </trkpt>
      <trkpt lat="44.75112" lon="6.76379">
        <ele>1414</ele>
        <time>2020-09-15T08:08:39Z</time>
      </trkpt>
      <trkpt lat="44.75105" lon="6.76398">
        <ele>1414</ele>
        <time>2020-09-15T08:08:42Z</time>
      </trkpt>
      <trkpt lat="44.75077" lon="6.76458">
        <ele>1411</ele>
        <time>2020-09-15T08:08:51Z</time>
      </trkpt>
      <trkpt lat="44.75042" lon="6.76526">
        <ele>1408</ele>
        <time>2020-09-15T08:09:02Z</time>
      </trkpt>
      <trkpt lat="44.75024" lon="6.76569">
        <ele>1410</ele>
        <time>2020-09-15T08:09:08Z</time>
      </trkpt>
      <trkpt lat="44.75014" lon="6.76609">
        <ele>1417</ele>
        <time>2020-09-15T08:09:13Z</time>
      </trkpt>
      <trkpt lat="44.7501" lon="6.76618">
        <ele>1418</ele>
        <time>2020-09-15T08:09:15Z</time>
      </trkpt>
      <trkpt lat="44.75003" lon="6.76627">
        <ele>1418</ele>
        <time>2020-09-15T08:09:16Z</time>
      </trkpt>
      <trkpt lat="44.74992" lon="6.76633">
        <ele>1416</ele>
        <time>2020-09-15T08:09:18Z</time>
      </trkpt>
      <trkpt lat="44.74945" lon="6.76648">
        <ele>1408</ele>
        <time>2020-09-15T08:09:27Z</time>
      </trkpt>
      <trkpt lat="44.74906" lon="6.76671">
        <ele>1406</ele>
        <time>2020-09-15T08:09:35Z</time>
      </trkpt>
      <trkpt lat="44.74894" lon="6.76674">
        <ele>1405</ele>
        <time>2020-09-15T08:09:37Z</time>
      </trkpt>
      <trkpt lat="44.74872" lon="6.76674">
        <ele>1401</ele>
        <time>2020-09-15T08:09:41Z</time>
      </trkpt>
      <trkpt lat="44.74838" lon="6.76666">
        <ele>1394</ele>
        <time>2020-09-15T08:09:47Z</time>
      </trkpt>
      <trkpt lat="44.74826" lon="6.76669">
        <ele>1394</ele>
        <time>2020-09-15T08:09:49Z</time>
      </trkpt>
      <trkpt lat="44.74819" lon="6.76675">
        <ele>1393</ele>
        <time>2020-09-15T08:09:50Z</time>
      </trkpt>
      <trkpt lat="44.74813" lon="6.76686">
        <ele>1393</ele>
        <time>2020-09-15T08:09:52Z</time>
      </trkpt>
      <trkpt lat="44.74791" lon="6.76782">
        <ele>1392</ele>
        <time>2020-09-15T08:10:05Z</time>
      </trkpt>
      <trkpt lat="44.74781" lon="6.76858">
        <ele>1391</ele>
        <time>2020-09-15T08:10:15Z</time>
      </trkpt>
      <trkpt lat="44.74774" lon="6.76891">
        <ele>1392</ele>
        <time>2020-09-15T08:10:19Z</time>
      </trkpt>
      <trkpt lat="44.74766" lon="6.76912">
        <ele>1391</ele>
        <time>2020-09-15T08:10:22Z</time>
      </trkpt>
      <trkpt lat="44.74757" lon="6.76931">
        <ele>1389</ele>
        <time>2020-09-15T08:10:25Z</time>
      </trkpt>
      <trkpt lat="44.74737" lon="6.76966">
        <ele>1386</ele>
        <time>2020-09-15T08:10:31Z</time>
      </trkpt>
      <trkpt lat="44.74713" lon="6.77006">
        <ele>1381</ele>
        <time>2020-09-15T08:10:37Z</time>
      </trkpt>
      <trkpt lat="44.7471" lon="6.77022">
        <ele>1377</ele>
        <time>2020-09-15T08:10:39Z</time>
      </trkpt>
      <trkpt lat="44.74713" lon="6.77038">
        <ele>1374</ele>
        <time>2020-09-15T08:10:41Z</time>
      </trkpt>
      <trkpt lat="44.74746" lon="6.77105">
        <ele>1368</ele>
        <time>2020-09-15T08:10:52Z</time>
      </trkpt>
      <trkpt lat="44.74769" lon="6.77134">
        <ele>1372</ele>
        <time>2020-09-15T08:10:57Z</time>
      </trkpt>
      <trkpt lat="44.74777" lon="6.77148">
        <ele>1373</ele>
        <time>2020-09-15T08:10:59Z</time>
      </trkpt>
      <trkpt lat="44.74791" lon="6.77181">
        <ele>1372</ele>
        <time>2020-09-15T08:11:04Z</time>
      </trkpt>
      <trkpt lat="44.74814" lon="6.77216">
        <ele>1372</ele>
        <time>2020-09-15T08:11:10Z</time>
      </trkpt>
      <trkpt lat="44.74814" lon="6.77234">
        <ele>1367</ele>
        <time>2020-09-15T08:11:13Z</time>
      </trkpt>
      <trkpt lat="44.74805" lon="6.77246">
        <ele>1360</ele>
        <time>2020-09-15T08:11:15Z</time>
      </trkpt>
      <trkpt lat="44.74787" lon="6.77225">
        <ele>1359</ele>
        <time>2020-09-15T08:11:19Z</time>
      </trkpt>
      <trkpt lat="44.74746" lon="6.77158">
        <ele>1357</ele>
        <time>2020-09-15T08:11:30Z</time>
      </trkpt>
      <trkpt lat="44.7469" lon="6.7709">
        <ele>1356</ele>
        <time>2020-09-15T08:11:43Z</time>
      </trkpt>
      <trkpt lat="44.74673" lon="6.77074">
        <ele>1355</ele>
        <time>2020-09-15T08:11:47Z</time>
      </trkpt>
      <trkpt lat="44.74649" lon="6.77056">
        <ele>1357</ele>
        <time>2020-09-15T08:11:52Z</time>
      </trkpt>
      <trkpt lat="44.74607" lon="6.77037">
        <ele>1357</ele>
        <time>2020-09-15T08:12:00Z</time>
      </trkpt>
      <trkpt lat="44.74552" lon="6.77016">
        <ele>1358</ele>
        <time>2020-09-15T08:12:10Z</time>
      </trkpt>
      <trkpt lat="44.74487" lon="6.76995">
        <ele>1359</ele>
        <time>2020-09-15T08:12:22Z</time>
      </trkpt>
      <trkpt lat="44.7446" lon="6.76976">
        <ele>1365</ele>
        <time>2020-09-15T08:12:27Z</time>
      </trkpt>
      <trkpt lat="44.74445" lon="6.76957">
        <ele>1367</ele>
        <time>2020-09-15T08:12:31Z</time>
      </trkpt>
      <trkpt lat="44.74437" lon="6.76931">
        <ele>1368</ele>
        <time>2020-09-15T08:12:34Z</time>
      </trkpt>
      <trkpt lat="44.74432" lon="6.76893">
        <ele>1365</ele>
        <time>2020-09-15T08:12:39Z</time>
      </trkpt>
      <trkpt lat="44.74432" lon="6.76848">
        <ele>1360</ele>
        <time>2020-09-15T08:12:45Z</time>
      </trkpt>
      <trkpt lat="44.74442" lon="6.76806">
        <ele>1355</ele>
        <time>2020-09-15T08:12:50Z</time>
      </trkpt>
      <trkpt lat="44.74454" lon="6.76766">
        <ele>1350</ele>
        <time>2020-09-15T08:12:56Z</time>
      </trkpt>
      <trkpt lat="44.74456" lon="6.76747">
        <ele>1346</ele>
        <time>2020-09-15T08:12:58Z</time>
      </trkpt>
      <trkpt lat="44.74452" lon="6.76729">
        <ele>1344</ele>
        <time>2020-09-15T08:13:01Z</time>
      </trkpt>
      <trkpt lat="44.74445" lon="6.76718">
        <ele>1342</ele>
        <time>2020-09-15T08:13:02Z</time>
      </trkpt>
      <trkpt lat="44.74436" lon="6.76715">
        <ele>1339</ele>
        <time>2020-09-15T08:13:04Z</time>
      </trkpt>
      <trkpt lat="44.74425" lon="6.7672">
        <ele>1335</ele>
        <time>2020-09-15T08:13:06Z</time>
      </trkpt>
      <trkpt lat="44.74416" lon="6.76731">
        <ele>1332</ele>
        <time>2020-09-15T08:13:08Z</time>
      </trkpt>
      <trkpt lat="44.74409" lon="6.76749">
        <ele>1330</ele>
        <time>2020-09-15T08:13:11Z</time>
      </trkpt>
      <trkpt lat="44.74409" lon="6.76768">
        <ele>1335</ele>
        <time>2020-09-15T08:13:13Z</time>
      </trkpt>
      <trkpt lat="44.74412" lon="6.76786">
        <ele>1340</ele>
        <time>2020-09-15T08:13:16Z</time>
      </trkpt>
      <trkpt lat="44.74414" lon="6.76803">
        <ele>1344</ele>
        <time>2020-09-15T08:13:18Z</time>
      </trkpt>
      <trkpt lat="44.74412" lon="6.76809">
        <ele>1346</ele>
        <time>2020-09-15T08:13:19Z</time>
      </trkpt>
      <trkpt lat="44.74407" lon="6.76818">
        <ele>1349</ele>
        <time>2020-09-15T08:13:20Z</time>
      </trkpt>
      <trkpt lat="44.74396" lon="6.76819">
        <ele>1350</ele>
        <time>2020-09-15T08:13:22Z</time>
      </trkpt>
      <trkpt lat="44.74391" lon="6.76815">
        <ele>1349</ele>
        <time>2020-09-15T08:13:23Z</time>
      </trkpt>
      <trkpt lat="44.74386" lon="6.76808">
        <ele>1347</ele>
        <time>2020-09-15T08:13:24Z</time>
      </trkpt>
      <trkpt lat="44.74375" lon="6.76777">
        <ele>1337</ele>
        <time>2020-09-15T08:13:29Z</time>
      </trkpt>
      <trkpt lat="44.74363" lon="6.76757">
        <ele>1330</ele>
        <time>2020-09-15T08:13:32Z</time>
      </trkpt>
      <trkpt lat="44.74351" lon="6.76748">
        <ele>1326</ele>
        <time>2020-09-15T08:13:34Z</time>
      </trkpt>
      <trkpt lat="44.74322" lon="6.76746">
        <ele>1328</ele>
        <time>2020-09-15T08:13:40Z</time>
      </trkpt>
      <trkpt lat="44.74308" lon="6.76738">
        <ele>1331</ele>
        <time>2020-09-15T08:13:42Z</time>
      </trkpt>
      <trkpt lat="44.74287" lon="6.76706">
        <ele>1327</ele>
        <time>2020-09-15T08:13:48Z</time>
      </trkpt>
      <trkpt lat="44.74271" lon="6.76693">
        <ele>1325</ele>
        <time>2020-09-15T08:13:51Z</time>
      </trkpt>
      <trkpt lat="44.74244" lon="6.7668">
        <ele>1322</ele>
        <time>2020-09-15T08:13:56Z</time>
      </trkpt>
      <trkpt lat="44.74198" lon="6.76671">
        <ele>1317</ele>
        <time>2020-09-15T08:14:04Z</time>
      </trkpt>
      <trkpt lat="44.74157" lon="6.7665">
        <ele>1313</ele>
        <time>2020-09-15T08:14:12Z</time>
      </trkpt>
      <trkpt lat="44.74136" lon="6.76641">
        <ele>1312</ele>
        <time>2020-09-15T08:14:16Z</time>
      </trkpt>
      <trkpt lat="44.74119" lon="6.76638">
        <ele>1311</ele>
        <time>2020-09-15T08:14:19Z</time>
      </trkpt>
      <trkpt lat="44.74105" lon="6.76639">
        <ele>1310</ele>
        <time>2020-09-15T08:14:22Z</time>
      </trkpt>
      <trkpt lat="44.74043" lon="6.76666">
        <ele>1306</ele>
        <time>2020-09-15T08:14:33Z</time>
      </trkpt>
      <trkpt lat="44.74019" lon="6.76667">
        <ele>1304</ele>
        <time>2020-09-15T08:14:37Z</time>
      </trkpt>
      <trkpt lat="44.73998" lon="6.76662">
        <ele>1303</ele>
        <time>2020-09-15T08:14:41Z</time>
      </trkpt>
      <trkpt lat="44.73981" lon="6.76662">
        <ele>1302</ele>
        <time>2020-09-15T08:14:44Z</time>
      </trkpt>
      <trkpt lat="44.73952" lon="6.76676">
        <ele>1301</ele>
        <time>2020-09-15T08:14:50Z</time>
      </trkpt>
      <trkpt lat="44.73919" lon="6.76713">
        <ele>1299</ele>
        <time>2020-09-15T08:14:57Z</time>
      </trkpt>
      <trkpt lat="44.73885" lon="6.76747">
        <ele>1295</ele>
        <time>2020-09-15T08:15:05Z</time>
      </trkpt>
      <trkpt lat="44.73822" lon="6.76828">
        <ele>1288</ele>
        <time>2020-09-15T08:15:20Z</time>
      </trkpt>
      <trkpt lat="44.73801" lon="6.76847">
        <ele>1285</ele>
        <time>2020-09-15T08:15:24Z</time>
      </trkpt>
      <trkpt lat="44.73791" lon="6.7685">
        <ele>1284</ele>
        <time>2020-09-15T08:15:26Z</time>
      </trkpt>
      <trkpt lat="44.73769" lon="6.76851">
        <ele>1279</ele>
        <time>2020-09-15T08:15:30Z</time>
      </trkpt>
      <trkpt lat="44.73741" lon="6.76845">
        <ele>1274</ele>
        <time>2020-09-15T08:15:35Z</time>
      </trkpt>
      <trkpt lat="44.73683" lon="6.7683">
        <ele>1272</ele>
        <time>2020-09-15T08:15:46Z</time>
      </trkpt>
      <trkpt lat="44.73632" lon="6.7682">
        <ele>1275</ele>
        <time>2020-09-15T08:15:55Z</time>
      </trkpt>
      <trkpt lat="44.73552" lon="6.76819">
        <ele>1273</ele>
        <time>2020-09-15T08:16:09Z</time>
      </trkpt>
      <trkpt lat="44.73522" lon="6.76815">
        <ele>1273</ele>
        <time>2020-09-15T08:16:14Z</time>
      </trkpt>
      <trkpt lat="44.73495" lon="6.76806">
        <ele>1274</ele>
        <time>2020-09-15T08:16:19Z</time>
      </trkpt>
      <trkpt lat="44.73303" lon="6.76724">
        <ele>1276</ele>
        <time>2020-09-15T08:16:55Z</time>
      </trkpt>
      <trkpt lat="44.73186" lon="6.76704">
        <ele>1268</ele>
        <time>2020-09-15T08:17:16Z</time>
      </trkpt>
      <trkpt lat="44.73156" lon="6.76695">
        <ele>1267</ele>
        <time>2020-09-15T08:17:21Z</time>
      </trkpt>
      <trkpt lat="44.73131" lon="6.76669">
        <ele>1268</ele>
        <time>2020-09-15T08:17:27Z</time>
      </trkpt>
      <trkpt lat="44.73083" lon="6.76574">
        <ele>1267</ele>
        <time>2020-09-15T08:17:42Z</time>
      </trkpt>
      <trkpt lat="44.73025" lon="6.76475">
        <ele>1283</ele>
        <time>2020-09-15T08:17:58Z</time>
      </trkpt>
      <trkpt lat="44.72997" lon="6.76441">
        <ele>1277</ele>
        <time>2020-09-15T08:18:04Z</time>
      </trkpt>
      <trkpt lat="44.72974" lon="6.7642">
        <ele>1282</ele>
        <time>2020-09-15T08:18:09Z</time>
      </trkpt>
      <trkpt lat="44.72958" lon="6.76409">
        <ele>1292</ele>
        <time>2020-09-15T08:18:12Z</time>
      </trkpt>
      <trkpt lat="44.72938" lon="6.76399">
        <ele>1303</ele>
        <time>2020-09-15T08:18:16Z</time>
      </trkpt>
      <trkpt lat="44.72918" lon="6.76393">
        <ele>1308</ele>
        <time>2020-09-15T08:18:20Z</time>
      </trkpt>
      <trkpt lat="44.72895" lon="6.76393">
        <ele>1312</ele>
        <time>2020-09-15T08:18:24Z</time>
      </trkpt>
      <trkpt lat="44.72872" lon="6.76397">
        <ele>1313</ele>
        <time>2020-09-15T08:18:28Z</time>
      </trkpt>
      <trkpt lat="44.7281" lon="6.76419">
        <ele>1313</ele>
        <time>2020-09-15T08:18:40Z</time>
      </trkpt>
      <trkpt lat="44.72737" lon="6.76415">
        <ele>1312</ele>
        <time>2020-09-15T08:18:53Z</time>
      </trkpt>
      <trkpt lat="44.726" lon="6.76386">
        <ele>1308</ele>
        <time>2020-09-15T08:19:17Z</time>
      </trkpt>
      <trkpt lat="44.7253" lon="6.76363">
        <ele>1320</ele>
        <time>2020-09-15T08:19:30Z</time>
      </trkpt>
      <trkpt lat="44.72447" lon="6.76285">
        <ele>1327</ele>
        <time>2020-09-15T08:19:48Z</time>
      </trkpt>
      <trkpt lat="44.72419" lon="6.76263">
        <ele>1324</ele>
        <time>2020-09-15T08:19:53Z</time>
      </trkpt>
      <trkpt lat="44.72389" lon="6.76249">
        <ele>1317</ele>
        <time>2020-09-15T08:19:59Z</time>
      </trkpt>
      <trkpt lat="44.72335" lon="6.76244">
        <ele>1309</ele>
        <time>2020-09-15T08:20:09Z</time>
      </trkpt>
      <trkpt lat="44.72249" lon="6.7625">
        <ele>1289</ele>
        <time>2020-09-15T08:20:24Z</time>
      </trkpt>
      <trkpt lat="44.72218" lon="6.76248">
        <ele>1284</ele>
        <time>2020-09-15T08:20:29Z</time>
      </trkpt>
      <trkpt lat="44.72171" lon="6.76236">
        <ele>1275</ele>
        <time>2020-09-15T08:20:38Z</time>
      </trkpt>
      <trkpt lat="44.72107" lon="6.7621">
        <ele>1245</ele>
        <time>2020-09-15T08:20:50Z</time>
      </trkpt>
      <trkpt lat="44.71968" lon="6.76162">
        <ele>1222</ele>
        <time>2020-09-15T08:21:15Z</time>
      </trkpt>
      <trkpt lat="44.71924" lon="6.76148">
        <ele>1223</ele>
        <time>2020-09-15T08:21:23Z</time>
      </trkpt>
      <trkpt lat="44.7186" lon="6.76119">
        <ele>1225</ele>
        <time>2020-09-15T08:21:35Z</time>
      </trkpt>
      <trkpt lat="44.71807" lon="6.76077">
        <ele>1223</ele>
        <time>2020-09-15T08:21:46Z</time>
      </trkpt>
      <trkpt lat="44.71776" lon="6.76046">
        <ele>1221</ele>
        <time>2020-09-15T08:21:53Z</time>
      </trkpt>
      <trkpt lat="44.7175" lon="6.76013">
        <ele>1217</ele>
        <time>2020-09-15T08:21:59Z</time>
      </trkpt>
      <trkpt lat="44.71674" lon="6.7585">
        <ele>1217</ele>
        <time>2020-09-15T08:22:24Z</time>
      </trkpt>
      <trkpt lat="44.71607" lon="6.75694">
        <ele>1224</ele>
        <time>2020-09-15T08:22:47Z</time>
      </trkpt>
      <trkpt lat="44.71587" lon="6.75611">
        <ele>1216</ele>
        <time>2020-09-15T08:22:58Z</time>
      </trkpt>
      <trkpt lat="44.71576" lon="6.75463">
        <ele>1222</ele>
        <time>2020-09-15T08:23:17Z</time>
      </trkpt>
      <trkpt lat="44.71568" lon="6.75287">
        <ele>1222</ele>
        <time>2020-09-15T08:23:39Z</time>
      </trkpt>
      <trkpt lat="44.71543" lon="6.75075">
        <ele>1210</ele>
        <time>2020-09-15T08:24:06Z</time>
      </trkpt>
      <trkpt lat="44.71521" lon="6.75001">
        <ele>1204</ele>
        <time>2020-09-15T08:24:16Z</time>
      </trkpt>
      <trkpt lat="44.7151" lon="6.74967">
        <ele>1206</ele>
        <time>2020-09-15T08:24:21Z</time>
      </trkpt>
      <trkpt lat="44.71493" lon="6.7492">
        <ele>1208</ele>
        <time>2020-09-15T08:24:28Z</time>
      </trkpt>
      <trkpt lat="44.71232" lon="6.7441">
        <ele>1205</ele>
        <time>2020-09-15T08:25:47Z</time>
      </trkpt>
      <trkpt lat="44.71215" lon="6.74366">
        <ele>1206</ele>
        <time>2020-09-15T08:25:54Z</time>
      </trkpt>
      <trkpt lat="44.71201" lon="6.74313">
        <ele>1208</ele>
        <time>2020-09-15T08:26:01Z</time>
      </trkpt>
      <trkpt lat="44.71196" lon="6.74284">
        <ele>1212</ele>
        <time>2020-09-15T08:26:04Z</time>
      </trkpt>
      <trkpt lat="44.71178" lon="6.74233">
        <ele>1211</ele>
        <time>2020-09-15T08:26:12Z</time>
      </trkpt>
      <trkpt lat="44.71164" lon="6.74209">
        <ele>1210</ele>
        <time>2020-09-15T08:26:16Z</time>
      </trkpt>
      <trkpt lat="44.71137" lon="6.74177">
        <ele>1209</ele>
        <time>2020-09-15T08:26:22Z</time>
      </trkpt>
      <trkpt lat="44.71057" lon="6.74069">
        <ele>1206</ele>
        <time>2020-09-15T08:26:42Z</time>
      </trkpt>
      <trkpt lat="44.70856" lon="6.73664">
        <ele>1191</ele>
        <time>2020-09-15T08:27:44Z</time>
      </trkpt>
      <trkpt lat="44.70829" lon="6.73543">
        <ele>1188</ele>
        <time>2020-09-15T08:28:00Z</time>
      </trkpt>
      <trkpt lat="44.70825" lon="6.73511">
        <ele>1190</ele>
        <time>2020-09-15T08:28:04Z</time>
      </trkpt>
      <trkpt lat="44.70825" lon="6.73465">
        <ele>1184</ele>
        <time>2020-09-15T08:28:10Z</time>
      </trkpt>
      <trkpt lat="44.70835" lon="6.73424">
        <ele>1177</ele>
        <time>2020-09-15T08:28:15Z</time>
      </trkpt>
      <trkpt lat="44.70844" lon="6.73375">
        <ele>1176</ele>
        <time>2020-09-15T08:28:22Z</time>
      </trkpt>
      <trkpt lat="44.70854" lon="6.7334">
        <ele>1175</ele>
        <time>2020-09-15T08:28:27Z</time>
      </trkpt>
      <trkpt lat="44.7088" lon="6.73287">
        <ele>1180</ele>
        <time>2020-09-15T08:28:35Z</time>
      </trkpt>
      <trkpt lat="44.70892" lon="6.73256">
        <ele>1180</ele>
        <time>2020-09-15T08:28:39Z</time>
      </trkpt>
      <trkpt lat="44.70901" lon="6.73207">
        <ele>1182</ele>
        <time>2020-09-15T08:28:46Z</time>
      </trkpt>
      <trkpt lat="44.70895" lon="6.73129">
        <ele>1190</ele>
        <time>2020-09-15T08:28:56Z</time>
      </trkpt>
      <trkpt lat="44.70885" lon="6.73088">
        <ele>1194</ele>
        <time>2020-09-15T08:29:01Z</time>
      </trkpt>
      <trkpt lat="44.70867" lon="6.73024">
        <ele>1189</ele>
        <time>2020-09-15T08:29:10Z</time>
      </trkpt>
      <trkpt lat="44.70841" lon="6.72946">
        <ele>1177</ele>
        <time>2020-09-15T08:29:21Z</time>
      </trkpt>
      <trkpt lat="44.70825" lon="6.72906">
        <ele>1176</ele>
        <time>2020-09-15T08:29:26Z</time>
      </trkpt>
      <trkpt lat="44.70653" lon="6.72545">
        <ele>1167</ele>
        <time>2020-09-15T08:30:21Z</time>
      </trkpt>
      <trkpt lat="44.70571" lon="6.72408">
        <ele>1168</ele>
        <time>2020-09-15T08:30:44Z</time>
      </trkpt>
      <trkpt lat="44.70551" lon="6.72371">
        <ele>1167</ele>
        <time>2020-09-15T08:30:50Z</time>
      </trkpt>
      <trkpt lat="44.70535" lon="6.72321">
        <ele>1165</ele>
        <time>2020-09-15T08:30:57Z</time>
      </trkpt>
      <trkpt lat="44.7053" lon="6.72302">
        <ele>1164</ele>
        <time>2020-09-15T08:30:59Z</time>
      </trkpt>
      <trkpt lat="44.70524" lon="6.72267">
        <ele>1163</ele>
        <time>2020-09-15T08:31:04Z</time>
      </trkpt>
      <trkpt lat="44.70523" lon="6.72226">
        <ele>1164</ele>
        <time>2020-09-15T08:31:09Z</time>
      </trkpt>
      <trkpt lat="44.70522" lon="6.72127">
        <ele>1171</ele>
        <time>2020-09-15T08:31:22Z</time>
      </trkpt>
      <trkpt lat="44.70521" lon="6.72097">
        <ele>1174</ele>
        <time>2020-09-15T08:31:26Z</time>
      </trkpt>
      <trkpt lat="44.70518" lon="6.72067">
        <ele>1178</ele>
        <time>2020-09-15T08:31:29Z</time>
      </trkpt>
      <trkpt lat="44.70506" lon="6.72025">
        <ele>1178</ele>
        <time>2020-09-15T08:31:35Z</time>
      </trkpt>
      <trkpt lat="44.70493" lon="6.71996">
        <ele>1176</ele>
        <time>2020-09-15T08:31:39Z</time>
      </trkpt>
      <trkpt lat="44.70472" lon="6.71966">
        <ele>1185</ele>
        <time>2020-09-15T08:31:45Z</time>
      </trkpt>
      <trkpt lat="44.70455" lon="6.71951">
        <ele>1183</ele>
        <time>2020-09-15T08:31:48Z</time>
      </trkpt>
      <trkpt lat="44.70436" lon="6.71939">
        <ele>1175</ele>
        <time>2020-09-15T08:31:52Z</time>
      </trkpt>
      <trkpt lat="44.70356" lon="6.71897">
        <ele>1160</ele>
        <time>2020-09-15T08:32:07Z</time>
      </trkpt>
      <trkpt lat="44.70329" lon="6.71877">
        <ele>1158</ele>
        <time>2020-09-15T08:32:13Z</time>
      </trkpt>
      <trkpt lat="44.70303" lon="6.71846">
        <ele>1158</ele>
        <time>2020-09-15T08:32:19Z</time>
      </trkpt>
      <trkpt lat="44.70279" lon="6.71793">
        <ele>1154</ele>
        <time>2020-09-15T08:32:27Z</time>
      </trkpt>
      <trkpt lat="44.70265" lon="6.71744">
        <ele>1154</ele>
        <time>2020-09-15T08:32:33Z</time>
      </trkpt>
      <trkpt lat="44.70242" lon="6.71702">
        <ele>1155</ele>
        <time>2020-09-15T08:32:40Z</time>
      </trkpt>
      <trkpt lat="44.70213" lon="6.71658">
        <ele>1155</ele>
        <time>2020-09-15T08:32:48Z</time>
      </trkpt>
      <trkpt lat="44.7017" lon="6.71619">
        <ele>1151</ele>
        <time>2020-09-15T08:32:57Z</time>
      </trkpt>
      <trkpt lat="44.70135" lon="6.7158">
        <ele>1154</ele>
        <time>2020-09-15T08:33:05Z</time>
      </trkpt>
      <trkpt lat="44.70123" lon="6.7156">
        <ele>1154</ele>
        <time>2020-09-15T08:33:08Z</time>
      </trkpt>
      <trkpt lat="44.70108" lon="6.71527">
        <ele>1151</ele>
        <time>2020-09-15T08:33:13Z</time>
      </trkpt>
      <trkpt lat="44.70088" lon="6.71466">
        <ele>1148</ele>
        <time>2020-09-15T08:33:21Z</time>
      </trkpt>
      <trkpt lat="44.70079" lon="6.71442">
        <ele>1150</ele>
        <time>2020-09-15T08:33:25Z</time>
      </trkpt>
      <trkpt lat="44.70026" lon="6.71331">
        <ele>1154</ele>
        <time>2020-09-15T08:33:42Z</time>
      </trkpt>
      <trkpt lat="44.7001" lon="6.71286">
        <ele>1151</ele>
        <time>2020-09-15T08:33:48Z</time>
      </trkpt>
      <trkpt lat="44.69989" lon="6.71215">
        <ele>1154</ele>
        <time>2020-09-15T08:33:58Z</time>
      </trkpt>
      <trkpt lat="44.69969" lon="6.71167">
        <ele>1152</ele>
        <time>2020-09-15T08:34:05Z</time>
      </trkpt>
      <trkpt lat="44.69885" lon="6.71022">
        <ele>1143</ele>
        <time>2020-09-15T08:34:29Z</time>
      </trkpt>
      <trkpt lat="44.69866" lon="6.70986">
        <ele>1136</ele>
        <time>2020-09-15T08:34:34Z</time>
      </trkpt>
      <trkpt lat="44.69816" lon="6.70901">
        <ele>1128</ele>
        <time>2020-09-15T08:34:48Z</time>
      </trkpt>
      <trkpt lat="44.69712" lon="6.70778">
        <ele>1127</ele>
        <time>2020-09-15T08:35:12Z</time>
      </trkpt>
      <trkpt lat="44.69591" lon="6.70642">
        <ele>1117</ele>
        <time>2020-09-15T08:35:40Z</time>
      </trkpt>
      <trkpt lat="44.69543" lon="6.70605">
        <ele>1117</ele>
        <time>2020-09-15T08:35:50Z</time>
      </trkpt>
      <trkpt lat="44.69413" lon="6.7054">
        <ele>1110</ele>
        <time>2020-09-15T08:36:14Z</time>
      </trkpt>
      <trkpt lat="44.69348" lon="6.705">
        <ele>1104</ele>
        <time>2020-09-15T08:36:27Z</time>
      </trkpt>
      <trkpt lat="44.69292" lon="6.70445">
        <ele>1107</ele>
        <time>2020-09-15T08:36:39Z</time>
      </trkpt>
      <trkpt lat="44.69234" lon="6.70333">
        <ele>1103</ele>
        <time>2020-09-15T08:36:56Z</time>
      </trkpt>
      <trkpt lat="44.69198" lon="6.70281">
        <ele>1105</ele>
        <time>2020-09-15T08:37:06Z</time>
      </trkpt>
      <trkpt lat="44.69135" lon="6.70213">
        <ele>1103</ele>
        <time>2020-09-15T08:37:20Z</time>
      </trkpt>
      <trkpt lat="44.68753" lon="6.699">
        <ele>1088</ele>
        <time>2020-09-15T08:38:38Z</time>
      </trkpt>
      <trkpt lat="44.68669" lon="6.69851">
        <ele>1084</ele>
        <time>2020-09-15T08:38:55Z</time>
      </trkpt>
      <trkpt lat="44.68659" lon="6.69848">
        <ele>1084</ele>
        <time>2020-09-15T08:38:56Z</time>
      </trkpt>
      <trkpt lat="44.68631" lon="6.69844">
        <ele>1083</ele>
        <time>2020-09-15T08:39:01Z</time>
      </trkpt>
      <trkpt lat="44.68579" lon="6.69841">
        <ele>1080</ele>
        <time>2020-09-15T08:39:11Z</time>
      </trkpt>
      <trkpt lat="44.6847" lon="6.6983">
        <ele>1083</ele>
        <time>2020-09-15T08:39:30Z</time>
      </trkpt>
      <trkpt lat="44.6845" lon="6.69826">
        <ele>1084</ele>
        <time>2020-09-15T08:39:34Z</time>
      </trkpt>
      <trkpt lat="44.68432" lon="6.69816">
        <ele>1086</ele>
        <time>2020-09-15T08:39:37Z</time>
      </trkpt>
      <trkpt lat="44.68388" lon="6.69772">
        <ele>1088</ele>
        <time>2020-09-15T08:39:47Z</time>
      </trkpt>
      <trkpt lat="44.68342" lon="6.69757">
        <ele>1075</ele>
        <time>2020-09-15T08:39:55Z</time>
      </trkpt>
      <trkpt lat="44.68295" lon="6.69735">
        <ele>1080</ele>
        <time>2020-09-15T08:40:04Z</time>
      </trkpt>
      <trkpt lat="44.6828" lon="6.6973">
        <ele>1082</ele>
        <time>2020-09-15T08:40:07Z</time>
      </trkpt>
      <trkpt lat="44.68267" lon="6.69731">
        <ele>1082</ele>
        <time>2020-09-15T08:40:09Z</time>
      </trkpt>
      <trkpt lat="44.68215" lon="6.69743">
        <ele>1076</ele>
        <time>2020-09-15T08:40:18Z</time>
      </trkpt>
      <trkpt lat="44.68194" lon="6.6974">
        <ele>1077</ele>
        <time>2020-09-15T08:40:22Z</time>
      </trkpt>
      <trkpt lat="44.68182" lon="6.69733">
        <ele>1078</ele>
        <time>2020-09-15T08:40:25Z</time>
      </trkpt>
      <trkpt lat="44.68051" lon="6.69589">
        <ele>1081</ele>
        <time>2020-09-15T08:40:54Z</time>
      </trkpt>
      <trkpt lat="44.68036" lon="6.6958">
        <ele>1079</ele>
        <time>2020-09-15T08:40:57Z</time>
      </trkpt>
      <trkpt lat="44.68014" lon="6.6957">
        <ele>1078</ele>
        <time>2020-09-15T08:41:01Z</time>
      </trkpt>
      <trkpt lat="44.67937" lon="6.69551">
        <ele>1077</ele>
        <time>2020-09-15T08:41:15Z</time>
      </trkpt>
      <trkpt lat="44.67915" lon="6.6954">
        <ele>1077</ele>
        <time>2020-09-15T08:41:19Z</time>
      </trkpt>
      <trkpt lat="44.67901" lon="6.69528">
        <ele>1078</ele>
        <time>2020-09-15T08:41:22Z</time>
      </trkpt>
      <trkpt lat="44.67884" lon="6.69518">
        <ele>1077</ele>
        <time>2020-09-15T08:41:25Z</time>
      </trkpt>
      <trkpt lat="44.67871" lon="6.69514">
        <ele>1075</ele>
        <time>2020-09-15T08:41:28Z</time>
      </trkpt>
      <trkpt lat="44.67823" lon="6.69499">
        <ele>1069</ele>
        <time>2020-09-15T08:41:37Z</time>
      </trkpt>
      <trkpt lat="44.67804" lon="6.69487">
        <ele>1072</ele>
        <time>2020-09-15T08:41:40Z</time>
      </trkpt>
      <trkpt lat="44.67755" lon="6.69407">
        <ele>1067</ele>
        <time>2020-09-15T08:41:54Z</time>
      </trkpt>
      <trkpt lat="44.67731" lon="6.69374">
        <ele>1063</ele>
        <time>2020-09-15T08:42:00Z</time>
      </trkpt>
      <trkpt lat="44.67719" lon="6.6937">
        <ele>1062</ele>
        <time>2020-09-15T08:42:02Z</time>
      </trkpt>
      <trkpt lat="44.67707" lon="6.69373">
        <ele>1062</ele>
        <time>2020-09-15T08:42:04Z</time>
      </trkpt>
      <trkpt lat="44.67689" lon="6.69389">
        <ele>1062</ele>
        <time>2020-09-15T08:42:08Z</time>
      </trkpt>
      <trkpt lat="44.67681" lon="6.69388">
        <ele>1062</ele>
        <time>2020-09-15T08:42:09Z</time>
      </trkpt>
      <trkpt lat="44.67663" lon="6.6937">
        <ele>1062</ele>
        <time>2020-09-15T08:42:13Z</time>
      </trkpt>
      <trkpt lat="44.67643" lon="6.69319">
        <ele>1066</ele>
        <time>2020-09-15T08:42:20Z</time>
      </trkpt>
      <trkpt lat="44.67631" lon="6.69309">
        <ele>1070</ele>
        <time>2020-09-15T08:42:23Z</time>
      </trkpt>
      <trkpt lat="44.67609" lon="6.69284">
        <ele>1074</ele>
        <time>2020-09-15T08:42:28Z</time>
      </trkpt>
      <trkpt lat="44.67596" lon="6.69261">
        <ele>1072</ele>
        <time>2020-09-15T08:42:32Z</time>
      </trkpt>
      <trkpt lat="44.67588" lon="6.69238">
        <ele>1068</ele>
        <time>2020-09-15T08:42:35Z</time>
      </trkpt>
      <trkpt lat="44.67558" lon="6.69195">
        <ele>1072</ele>
        <time>2020-09-15T08:42:43Z</time>
      </trkpt>
      <trkpt lat="44.67555" lon="6.6917">
        <ele>1067</ele>
        <time>2020-09-15T08:42:46Z</time>
      </trkpt>
      <trkpt lat="44.67553" lon="6.69136">
        <ele>1063</ele>
        <time>2020-09-15T08:42:50Z</time>
      </trkpt>
      <trkpt lat="44.67549" lon="6.6911">
        <ele>1061</ele>
        <time>2020-09-15T08:42:53Z</time>
      </trkpt>
      <trkpt lat="44.67536" lon="6.69081">
        <ele>1062</ele>
        <time>2020-09-15T08:42:58Z</time>
      </trkpt>
      <trkpt lat="44.67533" lon="6.69068">
        <ele>1064</ele>
        <time>2020-09-15T08:42:59Z</time>
      </trkpt>
      <trkpt lat="44.67528" lon="6.69036">
        <ele>1067</ele>
        <time>2020-09-15T08:43:04Z</time>
      </trkpt>
      <trkpt lat="44.67527" lon="6.69023">
        <ele>1067</ele>
        <time>2020-09-15T08:43:05Z</time>
      </trkpt>
      <trkpt lat="44.67511" lon="6.68974">
        <ele>1065</ele>
        <time>2020-09-15T08:43:12Z</time>
      </trkpt>
      <trkpt lat="44.67486" lon="6.68934">
        <ele>1065</ele>
        <time>2020-09-15T08:43:19Z</time>
      </trkpt>
      <trkpt lat="44.67472" lon="6.6892">
        <ele>1073</ele>
        <time>2020-09-15T08:43:22Z</time>
      </trkpt>
      <trkpt lat="44.6746" lon="6.689">
        <ele>1077</ele>
        <time>2020-09-15T08:43:25Z</time>
      </trkpt>
      <trkpt lat="44.67434" lon="6.68835">
        <ele>1077</ele>
        <time>2020-09-15T08:43:35Z</time>
      </trkpt>
      <trkpt lat="44.67416" lon="6.68768">
        <ele>1072</ele>
        <time>2020-09-15T08:43:44Z</time>
      </trkpt>
      <trkpt lat="44.67401" lon="6.68692">
        <ele>1082</ele>
        <time>2020-09-15T08:43:54Z</time>
      </trkpt>
      <trkpt lat="44.67404" lon="6.68647">
        <ele>1081</ele>
        <time>2020-09-15T08:43:59Z</time>
      </trkpt>
      <trkpt lat="44.67416" lon="6.6859">
        <ele>1076</ele>
        <time>2020-09-15T08:44:07Z</time>
      </trkpt>
      <trkpt lat="44.67424" lon="6.68564">
        <ele>1071</ele>
        <time>2020-09-15T08:44:11Z</time>
      </trkpt>
      <trkpt lat="44.67443" lon="6.68545">
        <ele>1063</ele>
        <time>2020-09-15T08:44:15Z</time>
      </trkpt>
      <trkpt lat="44.67453" lon="6.68529">
        <ele>1057</ele>
        <time>2020-09-15T08:44:17Z</time>
      </trkpt>
      <trkpt lat="44.67455" lon="6.68508">
        <ele>1054</ele>
        <time>2020-09-15T08:44:20Z</time>
      </trkpt>
      <trkpt lat="44.67451" lon="6.68495">
        <ele>1055</ele>
        <time>2020-09-15T08:44:22Z</time>
      </trkpt>
      <trkpt lat="44.67418" lon="6.68448">
        <ele>1052</ele>
        <time>2020-09-15T08:44:30Z</time>
      </trkpt>
      <trkpt lat="44.67403" lon="6.68439">
        <ele>1059</ele>
        <time>2020-09-15T08:44:33Z</time>
      </trkpt>
      <trkpt lat="44.67382" lon="6.68429">
        <ele>1070</ele>
        <time>2020-09-15T08:44:37Z</time>
      </trkpt>
      <trkpt lat="44.6737" lon="6.68418">
        <ele>1074</ele>
        <time>2020-09-15T08:44:40Z</time>
      </trkpt>
      <trkpt lat="44.67356" lon="6.68394">
        <ele>1075</ele>
        <time>2020-09-15T08:44:44Z</time>
      </trkpt>
      <trkpt lat="44.67337" lon="6.68377">
        <ele>1074</ele>
        <time>2020-09-15T08:44:48Z</time>
      </trkpt>
      <trkpt lat="44.67317" lon="6.68351">
        <ele>1072</ele>
        <time>2020-09-15T08:44:52Z</time>
      </trkpt>
      <trkpt lat="44.67279" lon="6.6831">
        <ele>1080</ele>
        <time>2020-09-15T08:45:01Z</time>
      </trkpt>
      <trkpt lat="44.67273" lon="6.683">
        <ele>1079</ele>
        <time>2020-09-15T08:45:03Z</time>
      </trkpt>
      <trkpt lat="44.67264" lon="6.68273">
        <ele>1071</ele>
        <time>2020-09-15T08:45:06Z</time>
      </trkpt>
      <trkpt lat="44.67253" lon="6.68253">
        <ele>1065</ele>
        <time>2020-09-15T08:45:10Z</time>
      </trkpt>
      <trkpt lat="44.67235" lon="6.68235">
        <ele>1069</ele>
        <time>2020-09-15T08:45:13Z</time>
      </trkpt>
      <trkpt lat="44.67222" lon="6.68206">
        <ele>1063</ele>
        <time>2020-09-15T08:45:18Z</time>
      </trkpt>
      <trkpt lat="44.67203" lon="6.6819">
        <ele>1065</ele>
        <time>2020-09-15T08:45:22Z</time>
      </trkpt>
      <trkpt lat="44.67191" lon="6.68187">
        <ele>1069</ele>
        <time>2020-09-15T08:45:24Z</time>
      </trkpt>
      <trkpt lat="44.67114" lon="6.68162">
        <ele>1094</ele>
        <time>2020-09-15T08:45:38Z</time>
      </trkpt>
      <trkpt lat="44.67091" lon="6.68152">
        <ele>1101</ele>
        <time>2020-09-15T08:45:42Z</time>
      </trkpt>
      <trkpt lat="44.6707" lon="6.68138">
        <ele>1103</ele>
        <time>2020-09-15T08:45:46Z</time>
      </trkpt>
      <trkpt lat="44.6699" lon="6.68066">
        <ele>1117</ele>
        <time>2020-09-15T08:46:03Z</time>
      </trkpt>
      <trkpt lat="44.66935" lon="6.68038">
        <ele>1148</ele>
        <time>2020-09-15T08:46:14Z</time>
      </trkpt>
      <trkpt lat="44.66902" lon="6.67974">
        <ele>1142</ele>
        <time>2020-09-15T08:46:24Z</time>
      </trkpt>
      <trkpt lat="44.66886" lon="6.67905">
        <ele>1121</ele>
        <time>2020-09-15T08:46:33Z</time>
      </trkpt>
      <trkpt lat="44.66894" lon="6.67853">
        <ele>1096</ele>
        <time>2020-09-15T08:46:40Z</time>
      </trkpt>
      <trkpt lat="44.66895" lon="6.67842">
        <ele>1091</ele>
        <time>2020-09-15T08:46:41Z</time>
      </trkpt>
      <trkpt lat="44.66893" lon="6.67815">
        <ele>1087</ele>
        <time>2020-09-15T08:46:44Z</time>
      </trkpt>
      <trkpt lat="44.66881" lon="6.67775">
        <ele>1091</ele>
        <time>2020-09-15T08:46:50Z</time>
      </trkpt>
      <trkpt lat="44.66883" lon="6.67756">
        <ele>1086</ele>
        <time>2020-09-15T08:46:52Z</time>
      </trkpt>
      <trkpt lat="44.66887" lon="6.67733">
        <ele>1080</ele>
        <time>2020-09-15T08:46:55Z</time>
      </trkpt>
      <trkpt lat="44.66877" lon="6.67684">
        <ele>1085</ele>
        <time>2020-09-15T08:47:02Z</time>
      </trkpt>
      <trkpt lat="44.66877" lon="6.67671">
        <ele>1084</ele>
        <time>2020-09-15T08:47:03Z</time>
      </trkpt>
      <trkpt lat="44.66894" lon="6.67647">
        <ele>1070</ele>
        <time>2020-09-15T08:47:08Z</time>
      </trkpt>
      <trkpt lat="44.66889" lon="6.67618">
        <ele>1073</ele>
        <time>2020-09-15T08:47:12Z</time>
      </trkpt>
      <trkpt lat="44.66887" lon="6.67574">
        <ele>1073</ele>
        <time>2020-09-15T08:47:17Z</time>
      </trkpt>
      <trkpt lat="44.66877" lon="6.67541">
        <ele>1075</ele>
        <time>2020-09-15T08:47:22Z</time>
      </trkpt>
      <trkpt lat="44.66872" lon="6.67527">
        <ele>1076</ele>
        <time>2020-09-15T08:47:24Z</time>
      </trkpt>
      <trkpt lat="44.66861" lon="6.67506">
        <ele>1078</ele>
        <time>2020-09-15T08:47:27Z</time>
      </trkpt>
      <trkpt lat="44.66852" lon="6.67492">
        <ele>1080</ele>
        <time>2020-09-15T08:47:29Z</time>
      </trkpt>
      <trkpt lat="44.66786" lon="6.6742">
        <ele>1089</ele>
        <time>2020-09-15T08:47:44Z</time>
      </trkpt>
      <trkpt lat="44.66771" lon="6.67391">
        <ele>1089</ele>
        <time>2020-09-15T08:47:49Z</time>
      </trkpt>
      <trkpt lat="44.66762" lon="6.67371">
        <ele>1090</ele>
        <time>2020-09-15T08:47:52Z</time>
      </trkpt>
      <trkpt lat="44.66741" lon="6.67259">
        <ele>1088</ele>
        <time>2020-09-15T08:48:06Z</time>
      </trkpt>
      <trkpt lat="44.6673" lon="6.6721">
        <ele>1089</ele>
        <time>2020-09-15T08:48:13Z</time>
      </trkpt>
      <trkpt lat="44.66725" lon="6.67151">
        <ele>1086</ele>
        <time>2020-09-15T08:48:20Z</time>
      </trkpt>
      <trkpt lat="44.66702" lon="6.6703">
        <ele>1083</ele>
        <time>2020-09-15T08:48:36Z</time>
      </trkpt>
      <trkpt lat="44.66684" lon="6.67">
        <ele>1093</ele>
        <time>2020-09-15T08:48:41Z</time>
      </trkpt>
      <trkpt lat="44.66681" lon="6.66977">
        <ele>1093</ele>
        <time>2020-09-15T08:48:44Z</time>
      </trkpt>
      <trkpt lat="44.66685" lon="6.66924">
        <ele>1084</ele>
        <time>2020-09-15T08:48:51Z</time>
      </trkpt>
      <trkpt lat="44.66683" lon="6.66909">
        <ele>1085</ele>
        <time>2020-09-15T08:48:53Z</time>
      </trkpt>
      <trkpt lat="44.66673" lon="6.66897">
        <ele>1096</ele>
        <time>2020-09-15T08:48:55Z</time>
      </trkpt>
      <trkpt lat="44.66629" lon="6.66873">
        <ele>1128</ele>
        <time>2020-09-15T08:49:04Z</time>
      </trkpt>
      <trkpt lat="44.66625" lon="6.66867">
        <ele>1130</ele>
        <time>2020-09-15T08:49:05Z</time>
      </trkpt>
      <trkpt lat="44.66622" lon="6.66859">
        <ele>1132</ele>
        <time>2020-09-15T08:49:06Z</time>
      </trkpt>
      <trkpt lat="44.66625" lon="6.66842">
        <ele>1129</ele>
        <time>2020-09-15T08:49:08Z</time>
      </trkpt>
      <trkpt lat="44.66637" lon="6.66819">
        <ele>1120</ele>
        <time>2020-09-15T08:49:12Z</time>
      </trkpt>
      <trkpt lat="44.66649" lon="6.66789">
        <ele>1111</ele>
        <time>2020-09-15T08:49:16Z</time>
      </trkpt>
      <trkpt lat="44.66666" lon="6.66736">
        <ele>1099</ele>
        <time>2020-09-15T08:49:23Z</time>
      </trkpt>
      <trkpt lat="44.66666" lon="6.66709">
        <ele>1089</ele>
        <time>2020-09-15T08:49:27Z</time>
      </trkpt>
      <trkpt lat="44.66656" lon="6.66688">
        <ele>1086</ele>
        <time>2020-09-15T08:49:30Z</time>
      </trkpt>
      <trkpt lat="44.66587" lon="6.66656">
        <ele>1101</ele>
        <time>2020-09-15T08:49:43Z</time>
      </trkpt>
      <trkpt lat="44.6657" lon="6.66633">
        <ele>1100</ele>
        <time>2020-09-15T08:49:47Z</time>
      </trkpt>
      <trkpt lat="44.66541" lon="6.66583">
        <ele>1098</ele>
        <time>2020-09-15T08:49:55Z</time>
      </trkpt>
      <trkpt lat="44.66533" lon="6.66562">
        <ele>1099</ele>
        <time>2020-09-15T08:49:58Z</time>
      </trkpt>
      <trkpt lat="44.6653" lon="6.66545">
        <ele>1099</ele>
        <time>2020-09-15T08:50:00Z</time>
      </trkpt>
      <trkpt lat="44.66522" lon="6.66391">
        <ele>1102</ele>
        <time>2020-09-15T08:50:20Z</time>
      </trkpt>
      <trkpt lat="44.66519" lon="6.66378">
        <ele>1103</ele>
        <time>2020-09-15T08:50:22Z</time>
      </trkpt>
      <trkpt lat="44.66514" lon="6.66367">
        <ele>1104</ele>
        <time>2020-09-15T08:50:23Z</time>
      </trkpt>
      <trkpt lat="44.665" lon="6.66352">
        <ele>1105</ele>
        <time>2020-09-15T08:50:26Z</time>
      </trkpt>
      <trkpt lat="44.66491" lon="6.66348">
        <ele>1105</ele>
        <time>2020-09-15T08:50:28Z</time>
      </trkpt>
      <trkpt lat="44.66458" lon="6.66344">
        <ele>1102</ele>
        <time>2020-09-15T08:50:34Z</time>
      </trkpt>
      <trkpt lat="44.66441" lon="6.66335">
        <ele>1100</ele>
        <time>2020-09-15T08:50:37Z</time>
      </trkpt>
      <trkpt lat="44.66432" lon="6.66326">
        <ele>1099</ele>
        <time>2020-09-15T08:50:39Z</time>
      </trkpt>
      <trkpt lat="44.66339" lon="6.66185">
        <ele>1092</ele>
        <time>2020-09-15T08:51:04Z</time>
      </trkpt>
      <trkpt lat="44.66318" lon="6.66163">
        <ele>1092</ele>
        <time>2020-09-15T08:51:08Z</time>
      </trkpt>
      <trkpt lat="44.66235" lon="6.66114">
        <ele>1086</ele>
        <time>2020-09-15T08:51:24Z</time>
      </trkpt>
      <trkpt lat="44.66225" lon="6.66106">
        <ele>1084</ele>
        <time>2020-09-15T08:51:26Z</time>
      </trkpt>
      <trkpt lat="44.66201" lon="6.66074">
        <ele>1081</ele>
        <time>2020-09-15T08:51:32Z</time>
      </trkpt>
      <trkpt lat="44.66127" lon="6.65964">
        <ele>1078</ele>
        <time>2020-09-15T08:51:51Z</time>
      </trkpt>
      <trkpt lat="44.6608" lon="6.6591">
        <ele>1076</ele>
        <time>2020-09-15T08:52:02Z</time>
      </trkpt>
      <trkpt lat="44.66042" lon="6.65864">
        <ele>1074</ele>
        <time>2020-09-15T08:52:11Z</time>
      </trkpt>
      <trkpt lat="44.6596" lon="6.65773">
        <ele>1070</ele>
        <time>2020-09-15T08:52:30Z</time>
      </trkpt>
      <trkpt lat="44.65891" lon="6.65692">
        <ele>1064</ele>
        <time>2020-09-15T08:52:46Z</time>
      </trkpt>
      <trkpt lat="44.65869" lon="6.65669">
        <ele>1062</ele>
        <time>2020-09-15T08:52:51Z</time>
      </trkpt>
      <trkpt lat="44.65845" lon="6.65657">
        <ele>1062</ele>
        <time>2020-09-15T08:52:55Z</time>
      </trkpt>
      <trkpt lat="44.65817" lon="6.65649">
        <ele>1062</ele>
        <time>2020-09-15T08:53:00Z</time>
      </trkpt>
      <trkpt lat="44.65773" lon="6.65642">
        <ele>1062</ele>
        <time>2020-09-15T08:53:08Z</time>
      </trkpt>
      <trkpt lat="44.6572" lon="6.65606">
        <ele>1061</ele>
        <time>2020-09-15T08:53:18Z</time>
      </trkpt>
      <trkpt lat="44.65669" lon="6.65567">
        <ele>1059</ele>
        <time>2020-09-15T08:53:29Z</time>
      </trkpt>
      <trkpt lat="44.65635" lon="6.65537">
        <ele>1058</ele>
        <time>2020-09-15T08:53:36Z</time>
      </trkpt>
      <trkpt lat="44.65624" lon="6.6552">
        <ele>1057</ele>
        <time>2020-09-15T08:53:39Z</time>
      </trkpt>
      <trkpt lat="44.65609" lon="6.6549">
        <ele>1055</ele>
        <time>2020-09-15T08:53:44Z</time>
      </trkpt>
      <trkpt lat="44.65605" lon="6.65474">
        <ele>1054</ele>
        <time>2020-09-15T08:53:46Z</time>
      </trkpt>
      <trkpt lat="44.65603" lon="6.65464">
        <ele>1053</ele>
        <time>2020-09-15T08:53:47Z</time>
      </trkpt>
      <trkpt lat="44.65605" lon="6.65464">
        <ele>1053</ele>
        <time>2020-09-15T08:53:47Z</time>
      </trkpt>
      <trkpt lat="44.65612" lon="6.65461">
        <ele>1052</ele>
        <time>2020-09-15T08:53:49Z</time>
      </trkpt>
      <trkpt lat="44.65616" lon="6.65453">
        <ele>1051</ele>
        <time>2020-09-15T08:53:50Z</time>
      </trkpt>
      <trkpt lat="44.65617" lon="6.65442">
        <ele>1050</ele>
        <time>2020-09-15T08:53:51Z</time>
      </trkpt>
      <trkpt lat="44.65613" lon="6.65432">
        <ele>1049</ele>
        <time>2020-09-15T08:53:53Z</time>
      </trkpt>
      <trkpt lat="44.65607" lon="6.65427">
        <ele>1049</ele>
        <time>2020-09-15T08:53:54Z</time>
      </trkpt>
      <trkpt lat="44.656" lon="6.65427">
        <ele>1050</ele>
        <time>2020-09-15T08:53:55Z</time>
      </trkpt>
      <trkpt lat="44.65593" lon="6.65435">
        <ele>1051</ele>
        <time>2020-09-15T08:53:57Z</time>
      </trkpt>
      <trkpt lat="44.65571" lon="6.65413">
        <ele>1049</ele>
        <time>2020-09-15T08:54:02Z</time>
      </trkpt>
      <trkpt lat="44.65558" lon="6.65405">
        <ele>1048</ele>
        <time>2020-09-15T08:54:04Z</time>
      </trkpt>
      <trkpt lat="44.65552" lon="6.65402">
        <ele>1047</ele>
        <time>2020-09-15T08:54:05Z</time>
      </trkpt>
      <trkpt lat="44.65529" lon="6.65403">
        <ele>1047</ele>
        <time>2020-09-15T08:54:09Z</time>
      </trkpt>
      <trkpt lat="44.65522" lon="6.65408">
        <ele>1047</ele>
        <time>2020-09-15T08:54:11Z</time>
      </trkpt>
      <trkpt lat="44.65514" lon="6.65417">
        <ele>1048</ele>
        <time>2020-09-15T08:54:13Z</time>
      </trkpt>
      <trkpt lat="44.65488" lon="6.65457">
        <ele>1053</ele>
        <time>2020-09-15T08:54:19Z</time>
      </trkpt>
      <trkpt lat="44.65472" lon="6.65474">
        <ele>1055</ele>
        <time>2020-09-15T08:54:23Z</time>
      </trkpt>
      <trkpt lat="44.65455" lon="6.65485">
        <ele>1056</ele>
        <time>2020-09-15T08:54:26Z</time>
      </trkpt>
      <trkpt lat="44.65433" lon="6.65491">
        <ele>1056</ele>
        <time>2020-09-15T08:54:30Z</time>
      </trkpt>
      <trkpt lat="44.65409" lon="6.65491">
        <ele>1056</ele>
        <time>2020-09-15T08:54:35Z</time>
      </trkpt>
      <trkpt lat="44.65394" lon="6.65483">
        <ele>1057</ele>
        <time>2020-09-15T08:54:37Z</time>
      </trkpt>
      <trkpt lat="44.6538" lon="6.65469">
        <ele>1059</ele>
        <time>2020-09-15T08:54:41Z</time>
      </trkpt>
      <trkpt lat="44.65374" lon="6.65448">
        <ele>1060</ele>
        <time>2020-09-15T08:54:43Z</time>
      </trkpt>
      <trkpt lat="44.65375" lon="6.65413">
        <ele>1061</ele>
        <time>2020-09-15T08:54:48Z</time>
      </trkpt>
      <trkpt lat="44.65381" lon="6.65392">
        <ele>1060</ele>
        <time>2020-09-15T08:54:51Z</time>
      </trkpt>
      <trkpt lat="44.65391" lon="6.65365">
        <ele>1057</ele>
        <time>2020-09-15T08:54:55Z</time>
      </trkpt>
      <trkpt lat="44.65432" lon="6.65295">
        <ele>1050</ele>
        <time>2020-09-15T08:55:06Z</time>
      </trkpt>
      <trkpt lat="44.65473" lon="6.65225">
        <ele>1045</ele>
        <time>2020-09-15T08:55:17Z</time>
      </trkpt>
      <trkpt lat="44.65488" lon="6.6521">
        <ele>1042</ele>
        <time>2020-09-15T08:55:21Z</time>
      </trkpt>
      <trkpt lat="44.65496" lon="6.65211">
        <ele>1039</ele>
        <time>2020-09-15T08:55:22Z</time>
      </trkpt>
      <trkpt lat="44.65503" lon="6.65205">
        <ele>1038</ele>
        <time>2020-09-15T08:55:24Z</time>
      </trkpt>
      <trkpt lat="44.65506" lon="6.65195">
        <ele>1038</ele>
        <time>2020-09-15T08:55:25Z</time>
      </trkpt>
      <trkpt lat="44.65505" lon="6.65185">
        <ele>1039</ele>
        <time>2020-09-15T08:55:26Z</time>
      </trkpt>
      <trkpt lat="44.65506" lon="6.65169">
        <ele>1040</ele>
        <time>2020-09-15T08:55:28Z</time>
      </trkpt>
      <trkpt lat="44.65509" lon="6.65156">
        <ele>1040</ele>
        <time>2020-09-15T08:55:30Z</time>
      </trkpt>
      <trkpt lat="44.6552" lon="6.65144">
        <ele>1039</ele>
        <time>2020-09-15T08:55:33Z</time>
      </trkpt>
      <trkpt lat="44.65533" lon="6.65136">
        <ele>1038</ele>
        <time>2020-09-15T08:55:35Z</time>
      </trkpt>
      <trkpt lat="44.65547" lon="6.65127">
        <ele>1036</ele>
        <time>2020-09-15T08:55:38Z</time>
      </trkpt>
      <trkpt lat="44.65555" lon="6.65113">
        <ele>1035</ele>
        <time>2020-09-15T08:55:40Z</time>
      </trkpt>
      <trkpt lat="44.65557" lon="6.651">
        <ele>1036</ele>
        <time>2020-09-15T08:55:42Z</time>
      </trkpt>
      <trkpt lat="44.65555" lon="6.65081">
        <ele>1037</ele>
        <time>2020-09-15T08:55:44Z</time>
      </trkpt>
      <trkpt lat="44.6552" lon="6.65024">
        <ele>1043</ele>
        <time>2020-09-15T08:55:54Z</time>
      </trkpt>
      <trkpt lat="44.65509" lon="6.64991">
        <ele>1043</ele>
        <time>2020-09-15T08:55:58Z</time>
      </trkpt>
      <trkpt lat="44.65498" lon="6.64977">
        <ele>1043</ele>
        <time>2020-09-15T08:56:01Z</time>
      </trkpt>
      <trkpt lat="44.65487" lon="6.64968">
        <ele>1043</ele>
        <time>2020-09-15T08:56:03Z</time>
      </trkpt>
      <trkpt lat="44.65479" lon="6.64966">
        <ele>1044</ele>
        <time>2020-09-15T08:56:05Z</time>
      </trkpt>
      <trkpt lat="44.65473" lon="6.64966">
        <ele>1044</ele>
        <time>2020-09-15T08:56:06Z</time>
      </trkpt>
      <trkpt lat="44.65458" lon="6.64967">
        <ele>1046</ele>
        <time>2020-09-15T08:56:08Z</time>
      </trkpt>
      <trkpt lat="44.65443" lon="6.64968">
        <ele>1048</ele>
        <time>2020-09-15T08:56:11Z</time>
      </trkpt>
      <trkpt lat="44.65429" lon="6.64964">
        <ele>1049</ele>
        <time>2020-09-15T08:56:14Z</time>
      </trkpt>
      <trkpt lat="44.65411" lon="6.64955">
        <ele>1049</ele>
        <time>2020-09-15T08:56:17Z</time>
      </trkpt>
      <trkpt lat="44.65402" lon="6.64954">
        <ele>1051</ele>
        <time>2020-09-15T08:56:19Z</time>
      </trkpt>
      <trkpt lat="44.6539" lon="6.64956">
        <ele>1053</ele>
        <time>2020-09-15T08:56:21Z</time>
      </trkpt>
      <trkpt lat="44.65383" lon="6.64964">
        <ele>1057</ele>
        <time>2020-09-15T08:56:22Z</time>
      </trkpt>
      <trkpt lat="44.65377" lon="6.64979">
        <ele>1062</ele>
        <time>2020-09-15T08:56:25Z</time>
      </trkpt>
      <trkpt lat="44.65379" lon="6.64997">
        <ele>1067</ele>
        <time>2020-09-15T08:56:27Z</time>
      </trkpt>
      <trkpt lat="44.65386" lon="6.6501">
        <ele>1067</ele>
        <time>2020-09-15T08:56:29Z</time>
      </trkpt>
      <trkpt lat="44.65404" lon="6.65022">
        <ele>1064</ele>
        <time>2020-09-15T08:56:32Z</time>
      </trkpt>
      <trkpt lat="44.65417" lon="6.65037">
        <ele>1063</ele>
        <time>2020-09-15T08:56:35Z</time>
      </trkpt>
      <trkpt lat="44.65425" lon="6.65054">
        <ele>1063</ele>
        <time>2020-09-15T08:56:38Z</time>
      </trkpt>
      <trkpt lat="44.65429" lon="6.65072">
        <ele>1064</ele>
        <time>2020-09-15T08:56:40Z</time>
      </trkpt>
      <trkpt lat="44.65428" lon="6.65126">
        <ele>1065</ele>
        <time>2020-09-15T08:56:47Z</time>
      </trkpt>
      <trkpt lat="44.65424" lon="6.65151">
        <ele>1065</ele>
        <time>2020-09-15T08:56:51Z</time>
      </trkpt>
      <trkpt lat="44.65416" lon="6.65173">
        <ele>1066</ele>
        <time>2020-09-15T08:56:54Z</time>
      </trkpt>
      <trkpt lat="44.65403" lon="6.65193">
        <ele>1067</ele>
        <time>2020-09-15T08:56:57Z</time>
      </trkpt>
      <trkpt lat="44.65388" lon="6.65207">
        <ele>1070</ele>
        <time>2020-09-15T08:57:00Z</time>
      </trkpt>
      <trkpt lat="44.65371" lon="6.65216">
        <ele>1074</ele>
        <time>2020-09-15T08:57:04Z</time>
      </trkpt>
      <trkpt lat="44.65357" lon="6.65215">
        <ele>1077</ele>
        <time>2020-09-15T08:57:06Z</time>
      </trkpt>
      <trkpt lat="44.65344" lon="6.65207">
        <ele>1081</ele>
        <time>2020-09-15T08:57:09Z</time>
      </trkpt>
      <trkpt lat="44.65337" lon="6.65189">
        <ele>1083</ele>
        <time>2020-09-15T08:57:11Z</time>
      </trkpt>
      <trkpt lat="44.65331" lon="6.65162">
        <ele>1085</ele>
        <time>2020-09-15T08:57:15Z</time>
      </trkpt>
      <trkpt lat="44.65324" lon="6.65115">
        <ele>1088</ele>
        <time>2020-09-15T08:57:21Z</time>
      </trkpt>
      <trkpt lat="44.65318" lon="6.65075">
        <ele>1089</ele>
        <time>2020-09-15T08:57:26Z</time>
      </trkpt>
      <trkpt lat="44.65313" lon="6.65028">
        <ele>1085</ele>
        <time>2020-09-15T08:57:32Z</time>
      </trkpt>
      <trkpt lat="44.65307" lon="6.65008">
        <ele>1084</ele>
        <time>2020-09-15T08:57:35Z</time>
      </trkpt>
      <trkpt lat="44.653" lon="6.6499">
        <ele>1080</ele>
        <time>2020-09-15T08:57:37Z</time>
      </trkpt>
      <trkpt lat="44.65289" lon="6.6498">
        <ele>1077</ele>
        <time>2020-09-15T08:57:40Z</time>
      </trkpt>
      <trkpt lat="44.65274" lon="6.64979">
        <ele>1078</ele>
        <time>2020-09-15T08:57:42Z</time>
      </trkpt>
      <trkpt lat="44.6523" lon="6.65009">
        <ele>1091</ele>
        <time>2020-09-15T08:57:51Z</time>
      </trkpt>
      <trkpt lat="44.65203" lon="6.65024">
        <ele>1093</ele>
        <time>2020-09-15T08:57:56Z</time>
      </trkpt>
      <trkpt lat="44.65159" lon="6.65048">
        <ele>1098</ele>
        <time>2020-09-15T08:58:05Z</time>
      </trkpt>
      <trkpt lat="44.65138" lon="6.65053">
        <ele>1099</ele>
        <time>2020-09-15T08:58:08Z</time>
      </trkpt>
      <trkpt lat="44.65122" lon="6.65052">
        <ele>1098</ele>
        <time>2020-09-15T08:58:11Z</time>
      </trkpt>
      <trkpt lat="44.65098" lon="6.65042">
        <ele>1094</ele>
        <time>2020-09-15T08:58:16Z</time>
      </trkpt>
      <trkpt lat="44.6508" lon="6.6504">
        <ele>1091</ele>
        <time>2020-09-15T08:58:19Z</time>
      </trkpt>
      <trkpt lat="44.65063" lon="6.65051">
        <ele>1089</ele>
        <time>2020-09-15T08:58:22Z</time>
      </trkpt>
      <trkpt lat="44.65053" lon="6.6507">
        <ele>1092</ele>
        <time>2020-09-15T08:58:25Z</time>
      </trkpt>
      <trkpt lat="44.65045" lon="6.65092">
        <ele>1095</ele>
        <time>2020-09-15T08:58:28Z</time>
      </trkpt>
      <trkpt lat="44.65045" lon="6.65121">
        <ele>1100</ele>
        <time>2020-09-15T08:58:32Z</time>
      </trkpt>
      <trkpt lat="44.65059" lon="6.65183">
        <ele>1115</ele>
        <time>2020-09-15T08:58:40Z</time>
      </trkpt>
      <trkpt lat="44.65059" lon="6.65203">
        <ele>1118</ele>
        <time>2020-09-15T08:58:43Z</time>
      </trkpt>
      <trkpt lat="44.65055" lon="6.65227">
        <ele>1121</ele>
        <time>2020-09-15T08:58:46Z</time>
      </trkpt>
      <trkpt lat="44.65047" lon="6.65244">
        <ele>1122</ele>
        <time>2020-09-15T08:58:48Z</time>
      </trkpt>
      <trkpt lat="44.6502" lon="6.65284">
        <ele>1123</ele>
        <time>2020-09-15T08:58:55Z</time>
      </trkpt>
      <trkpt lat="44.6501" lon="6.65303">
        <ele>1125</ele>
        <time>2020-09-15T08:58:58Z</time>
      </trkpt>
      <trkpt lat="44.65008" lon="6.65324">
        <ele>1128</ele>
        <time>2020-09-15T08:59:01Z</time>
      </trkpt>
      <trkpt lat="44.65008" lon="6.65393">
        <ele>1136</ele>
        <time>2020-09-15T08:59:10Z</time>
      </trkpt>
      <trkpt lat="44.65004" lon="6.65419">
        <ele>1139</ele>
        <time>2020-09-15T08:59:13Z</time>
      </trkpt>
      <trkpt lat="44.64997" lon="6.65438">
        <ele>1138</ele>
        <time>2020-09-15T08:59:16Z</time>
      </trkpt>
      <trkpt lat="44.64986" lon="6.65453">
        <ele>1137</ele>
        <time>2020-09-15T08:59:19Z</time>
      </trkpt>
      <trkpt lat="44.64974" lon="6.65461">
        <ele>1137</ele>
        <time>2020-09-15T08:59:21Z</time>
      </trkpt>
      <trkpt lat="44.64943" lon="6.65468">
        <ele>1139</ele>
        <time>2020-09-15T08:59:27Z</time>
      </trkpt>
      <trkpt lat="44.64921" lon="6.65475">
        <ele>1141</ele>
        <time>2020-09-15T08:59:31Z</time>
      </trkpt>
      <trkpt lat="44.64867" lon="6.65517">
        <ele>1148</ele>
        <time>2020-09-15T08:59:42Z</time>
      </trkpt>
      <trkpt lat="44.6485" lon="6.65524">
        <ele>1150</ele>
        <time>2020-09-15T08:59:45Z</time>
      </trkpt>
      <trkpt lat="44.64795" lon="6.65534">
        <ele>1157</ele>
        <time>2020-09-15T08:59:55Z</time>
      </trkpt>
      <trkpt lat="44.64769" lon="6.65542">
        <ele>1161</ele>
        <time>2020-09-15T08:59:59Z</time>
      </trkpt>
      <trkpt lat="44.64737" lon="6.65552">
        <ele>1167</ele>
        <time>2020-09-15T09:00:05Z</time>
      </trkpt>
      <trkpt lat="44.64694" lon="6.65557">
        <ele>1173</ele>
        <time>2020-09-15T09:00:13Z</time>
      </trkpt>
      <trkpt lat="44.64663" lon="6.65557">
        <ele>1176</ele>
        <time>2020-09-15T09:00:18Z</time>
      </trkpt>
      <trkpt lat="44.64578" lon="6.65541">
        <ele>1177</ele>
        <time>2020-09-15T09:00:34Z</time>
      </trkpt>
      <trkpt lat="44.64557" lon="6.65546">
        <ele>1177</ele>
        <time>2020-09-15T09:00:37Z</time>
      </trkpt>
      <trkpt lat="44.64544" lon="6.65554">
        <ele>1178</ele>
        <time>2020-09-15T09:00:40Z</time>
      </trkpt>
      <trkpt lat="44.64467" lon="6.65631">
        <ele>1195</ele>
        <time>2020-09-15T09:00:57Z</time>
      </trkpt>
      <trkpt lat="44.6441" lon="6.65671">
        <ele>1201</ele>
        <time>2020-09-15T09:01:08Z</time>
      </trkpt>
      <trkpt lat="44.64384" lon="6.65683">
        <ele>1199</ele>
        <time>2020-09-15T09:01:13Z</time>
      </trkpt>
      <trkpt lat="44.64372" lon="6.65691">
        <ele>1199</ele>
        <time>2020-09-15T09:01:15Z</time>
      </trkpt>
      <trkpt lat="44.64365" lon="6.65708">
        <ele>1201</ele>
        <time>2020-09-15T09:01:18Z</time>
      </trkpt>
      <trkpt lat="44.64366" lon="6.65719">
        <ele>1204</ele>
        <time>2020-09-15T09:01:19Z</time>
      </trkpt>
      <trkpt lat="44.64367" lon="6.65723">
        <ele>1205</ele>
        <time>2020-09-15T09:01:20Z</time>
      </trkpt>
      <trkpt lat="44.64373" lon="6.65733">
        <ele>1208</ele>
        <time>2020-09-15T09:01:21Z</time>
      </trkpt>
      <trkpt lat="44.64385" lon="6.65734">
        <ele>1210</ele>
        <time>2020-09-15T09:01:24Z</time>
      </trkpt>
      <trkpt lat="44.64395" lon="6.6573">
        <ele>1210</ele>
        <time>2020-09-15T09:01:25Z</time>
      </trkpt>
      <trkpt lat="44.64474" lon="6.65678">
        <ele>1209</ele>
        <time>2020-09-15T09:01:41Z</time>
      </trkpt>
      <trkpt lat="44.64562" lon="6.65648">
        <ele>1206</ele>
        <time>2020-09-15T09:01:57Z</time>
      </trkpt>
      <trkpt lat="44.64575" lon="6.65647">
        <ele>1207</ele>
        <time>2020-09-15T09:01:59Z</time>
      </trkpt>
      <trkpt lat="44.64585" lon="6.65655">
        <ele>1208</ele>
        <time>2020-09-15T09:02:01Z</time>
      </trkpt>
      <trkpt lat="44.6459" lon="6.65668">
        <ele>1210</ele>
        <time>2020-09-15T09:02:03Z</time>
      </trkpt>
      <trkpt lat="44.64591" lon="6.65671">
        <ele>1209</ele>
        <time>2020-09-15T09:02:04Z</time>
      </trkpt>
      <trkpt lat="44.64591" lon="6.65687">
        <ele>1210</ele>
        <time>2020-09-15T09:02:06Z</time>
      </trkpt>
      <trkpt lat="44.64585" lon="6.65702">
        <ele>1212</ele>
        <time>2020-09-15T09:02:08Z</time>
      </trkpt>
      <trkpt lat="44.64553" lon="6.65753">
        <ele>1217</ele>
        <time>2020-09-15T09:02:17Z</time>
      </trkpt>
      <trkpt lat="44.64524" lon="6.65822">
        <ele>1221</ele>
        <time>2020-09-15T09:02:27Z</time>
      </trkpt>
      <trkpt lat="44.64519" lon="6.65833">
        <ele>1222</ele>
        <time>2020-09-15T09:02:28Z</time>
      </trkpt>
      <trkpt lat="44.64512" lon="6.65846">
        <ele>1223</ele>
        <time>2020-09-15T09:02:30Z</time>
      </trkpt>
      <trkpt lat="44.64495" lon="6.65864">
        <ele>1226</ele>
        <time>2020-09-15T09:02:34Z</time>
      </trkpt>
      <trkpt lat="44.64414" lon="6.65928">
        <ele>1239</ele>
        <time>2020-09-15T09:02:51Z</time>
      </trkpt>
      <trkpt lat="44.64392" lon="6.65955">
        <ele>1240</ele>
        <time>2020-09-15T09:02:56Z</time>
      </trkpt>
      <trkpt lat="44.64372" lon="6.66">
        <ele>1243</ele>
        <time>2020-09-15T09:03:03Z</time>
      </trkpt>
      <trkpt lat="44.64354" lon="6.66032">
        <ele>1251</ele>
        <time>2020-09-15T09:03:08Z</time>
      </trkpt>
      <trkpt lat="44.64327" lon="6.66062">
        <ele>1257</ele>
        <time>2020-09-15T09:03:14Z</time>
      </trkpt>
      <trkpt lat="44.64316" lon="6.66082">
        <ele>1260</ele>
        <time>2020-09-15T09:03:17Z</time>
      </trkpt>
      <trkpt lat="44.64312" lon="6.66153">
        <ele>1272</ele>
        <time>2020-09-15T09:03:26Z</time>
      </trkpt>
      <trkpt lat="44.64307" lon="6.66166">
        <ele>1274</ele>
        <time>2020-09-15T09:03:28Z</time>
      </trkpt>
      <trkpt lat="44.64305" lon="6.6617">
        <ele>1275</ele>
        <time>2020-09-15T09:03:29Z</time>
      </trkpt>
      <trkpt lat="44.64292" lon="6.66182">
        <ele>1277</ele>
        <time>2020-09-15T09:03:31Z</time>
      </trkpt>
      <trkpt lat="44.64249" lon="6.66206">
        <ele>1284</ele>
        <time>2020-09-15T09:03:40Z</time>
      </trkpt>
      <trkpt lat="44.64229" lon="6.66211">
        <ele>1285</ele>
        <time>2020-09-15T09:03:43Z</time>
      </trkpt>
      <trkpt lat="44.64212" lon="6.6621">
        <ele>1284</ele>
        <time>2020-09-15T09:03:46Z</time>
      </trkpt>
      <trkpt lat="44.64161" lon="6.66204">
        <ele>1280</ele>
        <time>2020-09-15T09:03:55Z</time>
      </trkpt>
      <trkpt lat="44.64143" lon="6.66202">
        <ele>1277</ele>
        <time>2020-09-15T09:03:59Z</time>
      </trkpt>
      <trkpt lat="44.64124" lon="6.66205">
        <ele>1275</ele>
        <time>2020-09-15T09:04:02Z</time>
      </trkpt>
      <trkpt lat="44.64111" lon="6.66215">
        <ele>1275</ele>
        <time>2020-09-15T09:04:05Z</time>
      </trkpt>
      <trkpt lat="44.64106" lon="6.66231">
        <ele>1276</ele>
        <time>2020-09-15T09:04:07Z</time>
      </trkpt>
      <trkpt lat="44.64107" lon="6.66252">
        <ele>1280</ele>
        <time>2020-09-15T09:04:10Z</time>
      </trkpt>
      <trkpt lat="44.64119" lon="6.66263">
        <ele>1286</ele>
        <time>2020-09-15T09:04:12Z</time>
      </trkpt>
      <trkpt lat="44.64165" lon="6.6627">
        <ele>1300</ele>
        <time>2020-09-15T09:04:20Z</time>
      </trkpt>
      <trkpt lat="44.64198" lon="6.66269">
        <ele>1303</ele>
        <time>2020-09-15T09:04:26Z</time>
      </trkpt>
      <trkpt lat="44.64243" lon="6.6625">
        <ele>1302</ele>
        <time>2020-09-15T09:04:35Z</time>
      </trkpt>
      <trkpt lat="44.64274" lon="6.66248">
        <ele>1301</ele>
        <time>2020-09-15T09:04:40Z</time>
      </trkpt>
      <trkpt lat="44.64311" lon="6.66234">
        <ele>1296</ele>
        <time>2020-09-15T09:04:47Z</time>
      </trkpt>
      <trkpt lat="44.64323" lon="6.6624">
        <ele>1297</ele>
        <time>2020-09-15T09:04:49Z</time>
      </trkpt>
      <trkpt lat="44.6433" lon="6.66253">
        <ele>1300</ele>
        <time>2020-09-15T09:04:51Z</time>
      </trkpt>
      <trkpt lat="44.64332" lon="6.6627">
        <ele>1299</ele>
        <time>2020-09-15T09:04:53Z</time>
      </trkpt>
      <trkpt lat="44.64326" lon="6.66286">
        <ele>1299</ele>
        <time>2020-09-15T09:04:56Z</time>
      </trkpt>
      <trkpt lat="44.64316" lon="6.66297">
        <ele>1301</ele>
        <time>2020-09-15T09:04:58Z</time>
      </trkpt>
      <trkpt lat="44.6426" lon="6.66328">
        <ele>1318</ele>
        <time>2020-09-15T09:05:09Z</time>
      </trkpt>
      <trkpt lat="44.64232" lon="6.66338">
        <ele>1323</ele>
        <time>2020-09-15T09:05:14Z</time>
      </trkpt>
      <trkpt lat="44.64209" lon="6.66336">
        <ele>1323</ele>
        <time>2020-09-15T09:05:18Z</time>
      </trkpt>
      <trkpt lat="44.64186" lon="6.66337">
        <ele>1323</ele>
        <time>2020-09-15T09:05:22Z</time>
      </trkpt>
      <trkpt lat="44.64174" lon="6.66344">
        <ele>1325</ele>
        <time>2020-09-15T09:05:24Z</time>
      </trkpt>
      <trkpt lat="44.64167" lon="6.66357">
        <ele>1328</ele>
        <time>2020-09-15T09:05:26Z</time>
      </trkpt>
      <trkpt lat="44.64154" lon="6.66406">
        <ele>1334</ele>
        <time>2020-09-15T09:05:33Z</time>
      </trkpt>
      <trkpt lat="44.64123" lon="6.66498">
        <ele>1349</ele>
        <time>2020-09-15T09:05:46Z</time>
      </trkpt>
      <trkpt lat="44.64112" lon="6.66525">
        <ele>1352</ele>
        <time>2020-09-15T09:05:50Z</time>
      </trkpt>
      <trkpt lat="44.64094" lon="6.66543">
        <ele>1356</ele>
        <time>2020-09-15T09:05:54Z</time>
      </trkpt>
      <trkpt lat="44.64055" lon="6.66568">
        <ele>1367</ele>
        <time>2020-09-15T09:06:01Z</time>
      </trkpt>
      <trkpt lat="44.64033" lon="6.66578">
        <ele>1372</ele>
        <time>2020-09-15T09:06:05Z</time>
      </trkpt>
      <trkpt lat="44.64014" lon="6.66576">
        <ele>1372</ele>
        <time>2020-09-15T09:06:09Z</time>
      </trkpt>
      <trkpt lat="44.63974" lon="6.66557">
        <ele>1368</ele>
        <time>2020-09-15T09:06:16Z</time>
      </trkpt>
      <trkpt lat="44.63955" lon="6.66552">
        <ele>1368</ele>
        <time>2020-09-15T09:06:20Z</time>
      </trkpt>
      <trkpt lat="44.63935" lon="6.66551">
        <ele>1370</ele>
        <time>2020-09-15T09:06:23Z</time>
      </trkpt>
      <trkpt lat="44.63858" lon="6.66572">
        <ele>1379</ele>
        <time>2020-09-15T09:06:37Z</time>
      </trkpt>
      <trkpt lat="44.63831" lon="6.66576">
        <ele>1380</ele>
        <time>2020-09-15T09:06:42Z</time>
      </trkpt>
      <trkpt lat="44.63752" lon="6.66571">
        <ele>1371</ele>
        <time>2020-09-15T09:06:56Z</time>
      </trkpt>
      <trkpt lat="44.6374" lon="6.66575">
        <ele>1369</ele>
        <time>2020-09-15T09:06:58Z</time>
      </trkpt>
      <trkpt lat="44.63732" lon="6.66585">
        <ele>1370</ele>
        <time>2020-09-15T09:07:00Z</time>
      </trkpt>
      <trkpt lat="44.6373" lon="6.66598">
        <ele>1373</ele>
        <time>2020-09-15T09:07:02Z</time>
      </trkpt>
      <trkpt lat="44.63734" lon="6.6661">
        <ele>1378</ele>
        <time>2020-09-15T09:07:04Z</time>
      </trkpt>
      <trkpt lat="44.63742" lon="6.66616">
        <ele>1383</ele>
        <time>2020-09-15T09:07:05Z</time>
      </trkpt>
      <trkpt lat="44.63756" lon="6.66619">
        <ele>1387</ele>
        <time>2020-09-15T09:07:08Z</time>
      </trkpt>
      <trkpt lat="44.63791" lon="6.66616">
        <ele>1390</ele>
        <time>2020-09-15T09:07:14Z</time>
      </trkpt>
      <trkpt lat="44.63825" lon="6.66624">
        <ele>1397</ele>
        <time>2020-09-15T09:07:20Z</time>
      </trkpt>
      <trkpt lat="44.63931" lon="6.66671">
        <ele>1412</ele>
        <time>2020-09-15T09:07:40Z</time>
      </trkpt>
      <trkpt lat="44.63982" lon="6.66694">
        <ele>1416</ele>
        <time>2020-09-15T09:07:49Z</time>
      </trkpt>
      <trkpt lat="44.63992" lon="6.66705">
        <ele>1418</ele>
        <time>2020-09-15T09:07:52Z</time>
      </trkpt>
      <trkpt lat="44.63996" lon="6.66719">
        <ele>1420</ele>
        <time>2020-09-15T09:07:54Z</time>
      </trkpt>
      <trkpt lat="44.63994" lon="6.66732">
        <ele>1423</ele>
        <time>2020-09-15T09:07:55Z</time>
      </trkpt>
      <trkpt lat="44.63986" lon="6.66739">
        <ele>1424</ele>
        <time>2020-09-15T09:07:57Z</time>
      </trkpt>
      <trkpt lat="44.63977" lon="6.66743">
        <ele>1426</ele>
        <time>2020-09-15T09:07:59Z</time>
      </trkpt>
      <trkpt lat="44.63942" lon="6.66736">
        <ele>1426</ele>
        <time>2020-09-15T09:08:05Z</time>
      </trkpt>
      <trkpt lat="44.63939" lon="6.66735">
        <ele>1426</ele>
        <time>2020-09-15T09:08:06Z</time>
      </trkpt>
      <trkpt lat="44.639" lon="6.66731">
        <ele>1426</ele>
        <time>2020-09-15T09:08:12Z</time>
      </trkpt>
      <trkpt lat="44.63893" lon="6.6673">
        <ele>1426</ele>
        <time>2020-09-15T09:08:14Z</time>
      </trkpt>
      <trkpt lat="44.63877" lon="6.66736">
        <ele>1428</ele>
        <time>2020-09-15T09:08:17Z</time>
      </trkpt>
      <trkpt lat="44.63867" lon="6.66747">
        <ele>1430</ele>
        <time>2020-09-15T09:08:19Z</time>
      </trkpt>
      <trkpt lat="44.63848" lon="6.66774">
        <ele>1434</ele>
        <time>2020-09-15T09:08:24Z</time>
      </trkpt>
      <trkpt lat="44.63832" lon="6.66791">
        <ele>1437</ele>
        <time>2020-09-15T09:08:27Z</time>
      </trkpt>
      <trkpt lat="44.63819" lon="6.668">
        <ele>1438</ele>
        <time>2020-09-15T09:08:30Z</time>
      </trkpt>
      <trkpt lat="44.63721" lon="6.66846">
        <ele>1446</ele>
        <time>2020-09-15T09:08:48Z</time>
      </trkpt>
      <trkpt lat="44.63705" lon="6.66852">
        <ele>1447</ele>
        <time>2020-09-15T09:08:51Z</time>
      </trkpt>
      <trkpt lat="44.6369" lon="6.66852">
        <ele>1448</ele>
        <time>2020-09-15T09:08:54Z</time>
      </trkpt>
      <trkpt lat="44.63635" lon="6.66838">
        <ele>1448</ele>
        <time>2020-09-15T09:09:04Z</time>
      </trkpt>
      <trkpt lat="44.63625" lon="6.66839">
        <ele>1448</ele>
        <time>2020-09-15T09:09:06Z</time>
      </trkpt>
      <trkpt lat="44.63617" lon="6.66848">
        <ele>1450</ele>
        <time>2020-09-15T09:09:07Z</time>
      </trkpt>
      <trkpt lat="44.63614" lon="6.6686">
        <ele>1453</ele>
        <time>2020-09-15T09:09:09Z</time>
      </trkpt>
      <trkpt lat="44.63614" lon="6.66873">
        <ele>1455</ele>
        <time>2020-09-15T09:09:11Z</time>
      </trkpt>
      <trkpt lat="44.63622" lon="6.66888">
        <ele>1457</ele>
        <time>2020-09-15T09:09:13Z</time>
      </trkpt>
      <trkpt lat="44.63634" lon="6.66898">
        <ele>1458</ele>
        <time>2020-09-15T09:09:16Z</time>
      </trkpt>
      <trkpt lat="44.63674" lon="6.66924">
        <ele>1458</ele>
        <time>2020-09-15T09:09:23Z</time>
      </trkpt>
      <trkpt lat="44.63693" lon="6.66933">
        <ele>1459</ele>
        <time>2020-09-15T09:09:27Z</time>
      </trkpt>
      <trkpt lat="44.63709" lon="6.66935">
        <ele>1459</ele>
        <time>2020-09-15T09:09:30Z</time>
      </trkpt>
      <trkpt lat="44.63748" lon="6.66934">
        <ele>1458</ele>
        <time>2020-09-15T09:09:37Z</time>
      </trkpt>
      <trkpt lat="44.6376" lon="6.66938">
        <ele>1456</ele>
        <time>2020-09-15T09:09:39Z</time>
      </trkpt>
      <trkpt lat="44.63768" lon="6.66949">
        <ele>1454</ele>
        <time>2020-09-15T09:09:41Z</time>
      </trkpt>
      <trkpt lat="44.63771" lon="6.66963">
        <ele>1453</ele>
        <time>2020-09-15T09:09:43Z</time>
      </trkpt>
      <trkpt lat="44.63768" lon="6.66975">
        <ele>1454</ele>
        <time>2020-09-15T09:09:44Z</time>
      </trkpt>
      <trkpt lat="44.63764" lon="6.6698">
        <ele>1455</ele>
        <time>2020-09-15T09:09:45Z</time>
      </trkpt>
      <trkpt lat="44.63761" lon="6.66984">
        <ele>1457</ele>
        <time>2020-09-15T09:09:46Z</time>
      </trkpt>
      <trkpt lat="44.63746" lon="6.66988">
        <ele>1462</ele>
        <time>2020-09-15T09:09:49Z</time>
      </trkpt>
      <trkpt lat="44.63741" lon="6.66989">
        <ele>1463</ele>
        <time>2020-09-15T09:09:50Z</time>
      </trkpt>
      <trkpt lat="44.63661" lon="6.66999">
        <ele>1476</ele>
        <time>2020-09-15T09:10:04Z</time>
      </trkpt>
      <trkpt lat="44.63657" lon="6.66999">
        <ele>1476</ele>
        <time>2020-09-15T09:10:05Z</time>
      </trkpt>
      <trkpt lat="44.63623" lon="6.66999">
        <ele>1481</ele>
        <time>2020-09-15T09:10:11Z</time>
      </trkpt>
      <trkpt lat="44.63517" lon="6.66965">
        <ele>1488</ele>
        <time>2020-09-15T09:10:30Z</time>
      </trkpt>
      <trkpt lat="44.63499" lon="6.66965">
        <ele>1490</ele>
        <time>2020-09-15T09:10:33Z</time>
      </trkpt>
      <trkpt lat="44.63479" lon="6.66973">
        <ele>1487</ele>
        <time>2020-09-15T09:10:37Z</time>
      </trkpt>
      <trkpt lat="44.63324" lon="6.67098">
        <ele>1496</ele>
        <time>2020-09-15T09:11:09Z</time>
      </trkpt>
      <trkpt lat="44.63308" lon="6.67118">
        <ele>1490</ele>
        <time>2020-09-15T09:11:13Z</time>
      </trkpt>
      <trkpt lat="44.63303" lon="6.67142">
        <ele>1488</ele>
        <time>2020-09-15T09:11:16Z</time>
      </trkpt>
      <trkpt lat="44.63303" lon="6.6716">
        <ele>1488</ele>
        <time>2020-09-15T09:11:18Z</time>
      </trkpt>
      <trkpt lat="44.63309" lon="6.67177">
        <ele>1489</ele>
        <time>2020-09-15T09:11:20Z</time>
      </trkpt>
      <trkpt lat="44.63322" lon="6.67186">
        <ele>1493</ele>
        <time>2020-09-15T09:11:23Z</time>
      </trkpt>
      <trkpt lat="44.63341" lon="6.67193">
        <ele>1500</ele>
        <time>2020-09-15T09:11:27Z</time>
      </trkpt>
      <trkpt lat="44.63387" lon="6.67216">
        <ele>1509</ele>
        <time>2020-09-15T09:11:35Z</time>
      </trkpt>
      <trkpt lat="44.63444" lon="6.67286">
        <ele>1513</ele>
        <time>2020-09-15T09:11:49Z</time>
      </trkpt>
      <trkpt lat="44.63456" lon="6.67313">
        <ele>1514</ele>
        <time>2020-09-15T09:11:53Z</time>
      </trkpt>
      <trkpt lat="44.63464" lon="6.67342">
        <ele>1514</ele>
        <time>2020-09-15T09:11:57Z</time>
      </trkpt>
      <trkpt lat="44.6347" lon="6.67387">
        <ele>1515</ele>
        <time>2020-09-15T09:12:02Z</time>
      </trkpt>
      <trkpt lat="44.63472" lon="6.67427">
        <ele>1516</ele>
        <time>2020-09-15T09:12:08Z</time>
      </trkpt>
      <trkpt lat="44.6347" lon="6.67448">
        <ele>1518</ele>
        <time>2020-09-15T09:12:10Z</time>
      </trkpt>
      <trkpt lat="44.63469" lon="6.67458">
        <ele>1519</ele>
        <time>2020-09-15T09:12:12Z</time>
      </trkpt>
      <trkpt lat="44.63463" lon="6.67484">
        <ele>1522</ele>
        <time>2020-09-15T09:12:15Z</time>
      </trkpt>
      <trkpt lat="44.63451" lon="6.67509">
        <ele>1524</ele>
        <time>2020-09-15T09:12:19Z</time>
      </trkpt>
      <trkpt lat="44.63423" lon="6.6755">
        <ele>1529</ele>
        <time>2020-09-15T09:12:26Z</time>
      </trkpt>
      <trkpt lat="44.63388" lon="6.676">
        <ele>1536</ele>
        <time>2020-09-15T09:12:35Z</time>
      </trkpt>
      <trkpt lat="44.63373" lon="6.6762">
        <ele>1540</ele>
        <time>2020-09-15T09:12:39Z</time>
      </trkpt>
      <trkpt lat="44.63348" lon="6.67652">
        <ele>1546</ele>
        <time>2020-09-15T09:12:45Z</time>
      </trkpt>
      <trkpt lat="44.63326" lon="6.67669">
        <ele>1552</ele>
        <time>2020-09-15T09:12:49Z</time>
      </trkpt>
      <trkpt lat="44.63306" lon="6.67675">
        <ele>1556</ele>
        <time>2020-09-15T09:12:53Z</time>
      </trkpt>
      <trkpt lat="44.63286" lon="6.67677">
        <ele>1558</ele>
        <time>2020-09-15T09:12:56Z</time>
      </trkpt>
      <trkpt lat="44.63262" lon="6.67667">
        <ele>1558</ele>
        <time>2020-09-15T09:13:01Z</time>
      </trkpt>
      <trkpt lat="44.63227" lon="6.67657">
        <ele>1555</ele>
        <time>2020-09-15T09:13:07Z</time>
      </trkpt>
      <trkpt lat="44.63199" lon="6.67659">
        <ele>1555</ele>
        <time>2020-09-15T09:13:12Z</time>
      </trkpt>
      <trkpt lat="44.6317" lon="6.67676">
        <ele>1559</ele>
        <time>2020-09-15T09:13:18Z</time>
      </trkpt>
      <trkpt lat="44.63145" lon="6.67714">
        <ele>1567</ele>
        <time>2020-09-15T09:13:24Z</time>
      </trkpt>
      <trkpt lat="44.63131" lon="6.67729">
        <ele>1569</ele>
        <time>2020-09-15T09:13:27Z</time>
      </trkpt>
      <trkpt lat="44.63115" lon="6.67738">
        <ele>1570</ele>
        <time>2020-09-15T09:13:30Z</time>
      </trkpt>
      <trkpt lat="44.63084" lon="6.67741">
        <ele>1569</ele>
        <time>2020-09-15T09:13:36Z</time>
      </trkpt>
      <trkpt lat="44.63068" lon="6.67751">
        <ele>1567</ele>
        <time>2020-09-15T09:13:39Z</time>
      </trkpt>
      <trkpt lat="44.62939" lon="6.67888">
        <ele>1580</ele>
        <time>2020-09-15T09:14:08Z</time>
      </trkpt>
      <trkpt lat="44.62926" lon="6.67915">
        <ele>1585</ele>
        <time>2020-09-15T09:14:12Z</time>
      </trkpt>
      <trkpt lat="44.62915" lon="6.67956">
        <ele>1597</ele>
        <time>2020-09-15T09:14:17Z</time>
      </trkpt>
      <trkpt lat="44.62902" lon="6.67983">
        <ele>1603</ele>
        <time>2020-09-15T09:14:22Z</time>
      </trkpt>
      <trkpt lat="44.62864" lon="6.68047">
        <ele>1613</ele>
        <time>2020-09-15T09:14:32Z</time>
      </trkpt>
      <trkpt lat="44.62831" lon="6.68088">
        <ele>1615</ele>
        <time>2020-09-15T09:14:40Z</time>
      </trkpt>
      <trkpt lat="44.62794" lon="6.68113">
        <ele>1631</ele>
        <time>2020-09-15T09:14:47Z</time>
      </trkpt>
      <trkpt lat="44.62785" lon="6.68113">
        <ele>1633</ele>
        <time>2020-09-15T09:14:49Z</time>
      </trkpt>
      <trkpt lat="44.62776" lon="6.68103">
        <ele>1630</ele>
        <time>2020-09-15T09:14:51Z</time>
      </trkpt>
      <trkpt lat="44.62741" lon="6.6805">
        <ele>1619</ele>
        <time>2020-09-15T09:15:00Z</time>
      </trkpt>
      <trkpt lat="44.62735" lon="6.68035">
        <ele>1616</ele>
        <time>2020-09-15T09:15:02Z</time>
      </trkpt>
      <trkpt lat="44.62727" lon="6.68026">
        <ele>1615</ele>
        <time>2020-09-15T09:15:04Z</time>
      </trkpt>
      <trkpt lat="44.62711" lon="6.68018">
        <ele>1615</ele>
        <time>2020-09-15T09:15:07Z</time>
      </trkpt>
      <trkpt lat="44.6267" lon="6.6801">
        <ele>1620</ele>
        <time>2020-09-15T09:15:14Z</time>
      </trkpt>
      <trkpt lat="44.62656" lon="6.68011">
        <ele>1618</ele>
        <time>2020-09-15T09:15:17Z</time>
      </trkpt>
      <trkpt lat="44.62631" lon="6.68017">
        <ele>1613</ele>
        <time>2020-09-15T09:15:21Z</time>
      </trkpt>
      <trkpt lat="44.62579" lon="6.6805">
        <ele>1608</ele>
        <time>2020-09-15T09:15:32Z</time>
      </trkpt>
      <trkpt lat="44.62569" lon="6.68063">
        <ele>1606</ele>
        <time>2020-09-15T09:15:34Z</time>
      </trkpt>
      <trkpt lat="44.62561" lon="6.68076">
        <ele>1605</ele>
        <time>2020-09-15T09:15:36Z</time>
      </trkpt>
      <trkpt lat="44.62558" lon="6.68098">
        <ele>1609</ele>
        <time>2020-09-15T09:15:39Z</time>
      </trkpt>
      <trkpt lat="44.62566" lon="6.68127">
        <ele>1619</ele>
        <time>2020-09-15T09:15:43Z</time>
      </trkpt>
      <trkpt lat="44.62568" lon="6.68152">
        <ele>1625</ele>
        <time>2020-09-15T09:15:46Z</time>
      </trkpt>
      <trkpt lat="44.62564" lon="6.68173">
        <ele>1628</ele>
        <time>2020-09-15T09:15:49Z</time>
      </trkpt>
      <trkpt lat="44.62524" lon="6.68248">
        <ele>1623</ele>
        <time>2020-09-15T09:16:01Z</time>
      </trkpt>
      <trkpt lat="44.62493" lon="6.68303">
        <ele>1626</ele>
        <time>2020-09-15T09:16:10Z</time>
      </trkpt>
      <trkpt lat="44.62474" lon="6.6833">
        <ele>1631</ele>
        <time>2020-09-15T09:16:15Z</time>
      </trkpt>
      <trkpt lat="44.62447" lon="6.68347">
        <ele>1634</ele>
        <time>2020-09-15T09:16:20Z</time>
      </trkpt>
      <trkpt lat="44.62426" lon="6.68348">
        <ele>1632</ele>
        <time>2020-09-15T09:16:24Z</time>
      </trkpt>
      <trkpt lat="44.62404" lon="6.68336">
        <ele>1628</ele>
        <time>2020-09-15T09:16:28Z</time>
      </trkpt>
      <trkpt lat="44.62379" lon="6.68327">
        <ele>1627</ele>
        <time>2020-09-15T09:16:32Z</time>
      </trkpt>
      <trkpt lat="44.62233" lon="6.68313">
        <ele>1627</ele>
        <time>2020-09-15T09:16:58Z</time>
      </trkpt>
      <trkpt lat="44.6219" lon="6.68304">
        <ele>1625</ele>
        <time>2020-09-15T09:17:06Z</time>
      </trkpt>
      <trkpt lat="44.62174" lon="6.68311">
        <ele>1627</ele>
        <time>2020-09-15T09:17:09Z</time>
      </trkpt>
      <trkpt lat="44.6216" lon="6.68323">
        <ele>1631</ele>
        <time>2020-09-15T09:17:12Z</time>
      </trkpt>
      <trkpt lat="44.62145" lon="6.68342">
        <ele>1636</ele>
        <time>2020-09-15T09:17:16Z</time>
      </trkpt>
      <trkpt lat="44.62122" lon="6.68393">
        <ele>1648</ele>
        <time>2020-09-15T09:17:23Z</time>
      </trkpt>
      <trkpt lat="44.62107" lon="6.68408">
        <ele>1650</ele>
        <time>2020-09-15T09:17:27Z</time>
      </trkpt>
      <trkpt lat="44.62082" lon="6.68417">
        <ele>1648</ele>
        <time>2020-09-15T09:17:31Z</time>
      </trkpt>
      <trkpt lat="44.62059" lon="6.68412">
        <ele>1651</ele>
        <time>2020-09-15T09:17:35Z</time>
      </trkpt>
      <trkpt lat="44.6204" lon="6.68401">
        <ele>1651</ele>
        <time>2020-09-15T09:17:39Z</time>
      </trkpt>
      <trkpt lat="44.62001" lon="6.68373">
        <ele>1648</ele>
        <time>2020-09-15T09:17:47Z</time>
      </trkpt>
      <trkpt lat="44.61979" lon="6.68362">
        <ele>1645</ele>
        <time>2020-09-15T09:17:51Z</time>
      </trkpt>
      <trkpt lat="44.61962" lon="6.6836">
        <ele>1645</ele>
        <time>2020-09-15T09:17:54Z</time>
      </trkpt>
      <trkpt lat="44.61946" lon="6.68365">
        <ele>1647</ele>
        <time>2020-09-15T09:17:57Z</time>
      </trkpt>
      <trkpt lat="44.61918" lon="6.68385">
        <ele>1655</ele>
        <time>2020-09-15T09:18:02Z</time>
      </trkpt>
      <trkpt lat="44.61901" lon="6.6839">
        <ele>1655</ele>
        <time>2020-09-15T09:18:05Z</time>
      </trkpt>
      <trkpt lat="44.61855" lon="6.68392">
        <ele>1651</ele>
        <time>2020-09-15T09:18:14Z</time>
      </trkpt>
      <trkpt lat="44.61833" lon="6.684">
        <ele>1652</ele>
        <time>2020-09-15T09:18:18Z</time>
      </trkpt>
      <trkpt lat="44.61807" lon="6.68414">
        <ele>1650</ele>
        <time>2020-09-15T09:18:23Z</time>
      </trkpt>
      <trkpt lat="44.61714" lon="6.68503">
        <ele>1655</ele>
        <time>2020-09-15T09:18:43Z</time>
      </trkpt>
      <trkpt lat="44.61689" lon="6.68519">
        <ele>1656</ele>
        <time>2020-09-15T09:18:48Z</time>
      </trkpt>
      <trkpt lat="44.6163" lon="6.68541">
        <ele>1650</ele>
        <time>2020-09-15T09:18:58Z</time>
      </trkpt>
      <trkpt lat="44.61596" lon="6.68565">
        <ele>1651</ele>
        <time>2020-09-15T09:19:05Z</time>
      </trkpt>
      <trkpt lat="44.61549" lon="6.68579">
        <ele>1653</ele>
        <time>2020-09-15T09:19:14Z</time>
      </trkpt>
      <trkpt lat="44.61498" lon="6.68568">
        <ele>1648</ele>
        <time>2020-09-15T09:19:23Z</time>
      </trkpt>
      <trkpt lat="44.61467" lon="6.6857">
        <ele>1644</ele>
        <time>2020-09-15T09:19:28Z</time>
      </trkpt>
      <trkpt lat="44.61409" lon="6.6859">
        <ele>1640</ele>
        <time>2020-09-15T09:19:39Z</time>
      </trkpt>
      <trkpt lat="44.61386" lon="6.68606">
        <ele>1637</ele>
        <time>2020-09-15T09:19:44Z</time>
      </trkpt>
      <trkpt lat="44.61372" lon="6.68622">
        <ele>1636</ele>
        <time>2020-09-15T09:19:47Z</time>
      </trkpt>
      <trkpt lat="44.61345" lon="6.68667">
        <ele>1636</ele>
        <time>2020-09-15T09:19:54Z</time>
      </trkpt>
      <trkpt lat="44.61327" lon="6.68685">
        <ele>1638</ele>
        <time>2020-09-15T09:19:58Z</time>
      </trkpt>
      <trkpt lat="44.61306" lon="6.68697">
        <ele>1640</ele>
        <time>2020-09-15T09:20:02Z</time>
      </trkpt>
      <trkpt lat="44.6126" lon="6.68704">
        <ele>1639</ele>
        <time>2020-09-15T09:20:11Z</time>
      </trkpt>
      <trkpt lat="44.61231" lon="6.6871">
        <ele>1639</ele>
        <time>2020-09-15T09:20:16Z</time>
      </trkpt>
      <trkpt lat="44.612" lon="6.68722">
        <ele>1640</ele>
        <time>2020-09-15T09:20:21Z</time>
      </trkpt>
      <trkpt lat="44.61103" lon="6.68766">
        <ele>1638</ele>
        <time>2020-09-15T09:20:40Z</time>
      </trkpt>
      <trkpt lat="44.61049" lon="6.68795">
        <ele>1639</ele>
        <time>2020-09-15T09:20:50Z</time>
      </trkpt>
      <trkpt lat="44.61029" lon="6.68799">
        <ele>1638</ele>
        <time>2020-09-15T09:20:53Z</time>
      </trkpt>
      <trkpt lat="44.61015" lon="6.68799">
        <ele>1638</ele>
        <time>2020-09-15T09:20:56Z</time>
      </trkpt>
      <trkpt lat="44.61007" lon="6.68806">
        <ele>1638</ele>
        <time>2020-09-15T09:20:58Z</time>
      </trkpt>
      <trkpt lat="44.60996" lon="6.68825">
        <ele>1641</ele>
        <time>2020-09-15T09:21:01Z</time>
      </trkpt>
      <trkpt lat="44.60989" lon="6.68844">
        <ele>1644</ele>
        <time>2020-09-15T09:21:03Z</time>
      </trkpt>
      <trkpt lat="44.6098" lon="6.68847">
        <ele>1644</ele>
        <time>2020-09-15T09:21:05Z</time>
      </trkpt>
      <trkpt lat="44.6095" lon="6.68843">
        <ele>1642</ele>
        <time>2020-09-15T09:21:10Z</time>
      </trkpt>
      <trkpt lat="44.60926" lon="6.68847">
        <ele>1641</ele>
        <time>2020-09-15T09:21:15Z</time>
      </trkpt>
      <trkpt lat="44.60898" lon="6.68848">
        <ele>1640</ele>
        <time>2020-09-15T09:21:20Z</time>
      </trkpt>
      <trkpt lat="44.60851" lon="6.68835">
        <ele>1637</ele>
        <time>2020-09-15T09:21:28Z</time>
      </trkpt>
      <trkpt lat="44.60846" lon="6.68835">
        <ele>1637</ele>
        <time>2020-09-15T09:21:29Z</time>
      </trkpt>
      <trkpt lat="44.60829" lon="6.68841">
        <ele>1637</ele>
        <time>2020-09-15T09:21:32Z</time>
      </trkpt>
      <trkpt lat="44.60819" lon="6.68844">
        <ele>1637</ele>
        <time>2020-09-15T09:21:34Z</time>
      </trkpt>
      <trkpt lat="44.60793" lon="6.68842">
        <ele>1635</ele>
        <time>2020-09-15T09:21:39Z</time>
      </trkpt>
      <trkpt lat="44.60779" lon="6.68838">
        <ele>1634</ele>
        <time>2020-09-15T09:21:41Z</time>
      </trkpt>
      <trkpt lat="44.60761" lon="6.68835">
        <ele>1632</ele>
        <time>2020-09-15T09:21:44Z</time>
      </trkpt>
      <trkpt lat="44.60731" lon="6.68843">
        <ele>1632</ele>
        <time>2020-09-15T09:21:50Z</time>
      </trkpt>
      <trkpt lat="44.60639" lon="6.6888">
        <ele>1631</ele>
        <time>2020-09-15T09:22:07Z</time>
      </trkpt>
      <trkpt lat="44.6053" lon="6.68933">
        <ele>1635</ele>
        <time>2020-09-15T09:22:27Z</time>
      </trkpt>
      <trkpt lat="44.60507" lon="6.68938">
        <ele>1637</ele>
        <time>2020-09-15T09:22:32Z</time>
      </trkpt>
      <trkpt lat="44.60486" lon="6.68927">
        <ele>1635</ele>
        <time>2020-09-15T09:22:36Z</time>
      </trkpt>
      <trkpt lat="44.60454" lon="6.68888">
        <ele>1631</ele>
        <time>2020-09-15T09:22:43Z</time>
      </trkpt>
      <trkpt lat="44.60432" lon="6.68872">
        <ele>1630</ele>
        <time>2020-09-15T09:22:48Z</time>
      </trkpt>
      <trkpt lat="44.60406" lon="6.68864">
        <ele>1631</ele>
        <time>2020-09-15T09:22:52Z</time>
      </trkpt>
      <trkpt lat="44.60373" lon="6.68859">
        <ele>1632</ele>
        <time>2020-09-15T09:22:58Z</time>
      </trkpt>
      <trkpt lat="44.60345" lon="6.68858">
        <ele>1633</ele>
        <time>2020-09-15T09:23:03Z</time>
      </trkpt>
      <trkpt lat="44.60317" lon="6.68869">
        <ele>1637</ele>
        <time>2020-09-15T09:23:08Z</time>
      </trkpt>
      <trkpt lat="44.60285" lon="6.68897">
        <ele>1645</ele>
        <time>2020-09-15T09:23:15Z</time>
      </trkpt>
      <trkpt lat="44.6027" lon="6.68903">
        <ele>1646</ele>
        <time>2020-09-15T09:23:18Z</time>
      </trkpt>
      <trkpt lat="44.6025" lon="6.68904">
        <ele>1647</ele>
        <time>2020-09-15T09:23:21Z</time>
      </trkpt>
      <trkpt lat="44.60223" lon="6.68898">
        <ele>1645</ele>
        <time>2020-09-15T09:23:26Z</time>
      </trkpt>
      <trkpt lat="44.60204" lon="6.68897">
        <ele>1645</ele>
        <time>2020-09-15T09:23:30Z</time>
      </trkpt>
      <trkpt lat="44.6018" lon="6.68902">
        <ele>1647</ele>
        <time>2020-09-15T09:23:34Z</time>
      </trkpt>
      <trkpt lat="44.60003" lon="6.68979">
        <ele>1656</ele>
        <time>2020-09-15T09:24:07Z</time>
      </trkpt>
      <trkpt lat="44.59975" lon="6.68987">
        <ele>1659</ele>
        <time>2020-09-15T09:24:12Z</time>
      </trkpt>
      <trkpt lat="44.59954" lon="6.68987">
        <ele>1659</ele>
        <time>2020-09-15T09:24:16Z</time>
      </trkpt>
      <trkpt lat="44.59857" lon="6.68973">
        <ele>1657</ele>
        <time>2020-09-15T09:24:33Z</time>
      </trkpt>
      <trkpt lat="44.59753" lon="6.6898">
        <ele>1660</ele>
        <time>2020-09-15T09:24:52Z</time>
      </trkpt>
      <trkpt lat="44.59666" lon="6.68999">
        <ele>1662</ele>
        <time>2020-09-15T09:25:07Z</time>
      </trkpt>
      <trkpt lat="44.5964" lon="6.68998">
        <ele>1662</ele>
        <time>2020-09-15T09:25:12Z</time>
      </trkpt>
      <trkpt lat="44.59597" lon="6.68989">
        <ele>1661</ele>
        <time>2020-09-15T09:25:20Z</time>
      </trkpt>
      <trkpt lat="44.59471" lon="6.68991">
        <ele>1658</ele>
        <time>2020-09-15T09:25:42Z</time>
      </trkpt>
      <trkpt lat="44.59459" lon="6.68989">
        <ele>1658</ele>
        <time>2020-09-15T09:25:44Z</time>
      </trkpt>
      <trkpt lat="44.59422" lon="6.6896">
        <ele>1657</ele>
        <time>2020-09-15T09:25:52Z</time>
      </trkpt>
      <trkpt lat="44.59405" lon="6.6895">
        <ele>1658</ele>
        <time>2020-09-15T09:25:55Z</time>
      </trkpt>
      <trkpt lat="44.5939" lon="6.68946">
        <ele>1659</ele>
        <time>2020-09-15T09:25:58Z</time>
      </trkpt>
      <trkpt lat="44.5933" lon="6.68938">
        <ele>1663</ele>
        <time>2020-09-15T09:26:08Z</time>
      </trkpt>
      <trkpt lat="44.59318" lon="6.6894">
        <ele>1664</ele>
        <time>2020-09-15T09:26:11Z</time>
      </trkpt>
      <trkpt lat="44.59292" lon="6.6894">
        <ele>1665</ele>
        <time>2020-09-15T09:26:15Z</time>
      </trkpt>
      <trkpt lat="44.59277" lon="6.68938">
        <ele>1666</ele>
        <time>2020-09-15T09:26:18Z</time>
      </trkpt>
      <trkpt lat="44.59268" lon="6.68933">
        <ele>1666</ele>
        <time>2020-09-15T09:26:20Z</time>
      </trkpt>
      <trkpt lat="44.5923" lon="6.68901">
        <ele>1670</ele>
        <time>2020-09-15T09:26:28Z</time>
      </trkpt>
      <trkpt lat="44.59208" lon="6.6889">
        <ele>1672</ele>
        <time>2020-09-15T09:26:32Z</time>
      </trkpt>
      <trkpt lat="44.5918" lon="6.68882">
        <ele>1674</ele>
        <time>2020-09-15T09:26:37Z</time>
      </trkpt>
      <trkpt lat="44.59156" lon="6.6888">
        <ele>1674</ele>
        <time>2020-09-15T09:26:41Z</time>
      </trkpt>
      <trkpt lat="44.59137" lon="6.68881">
        <ele>1675</ele>
        <time>2020-09-15T09:26:44Z</time>
      </trkpt>
      <trkpt lat="44.59127" lon="6.68873">
        <ele>1676</ele>
        <time>2020-09-15T09:26:46Z</time>
      </trkpt>
      <trkpt lat="44.59119" lon="6.68861">
        <ele>1676</ele>
        <time>2020-09-15T09:26:49Z</time>
      </trkpt>
      <trkpt lat="44.59114" lon="6.68846">
        <ele>1677</ele>
        <time>2020-09-15T09:26:51Z</time>
      </trkpt>
      <trkpt lat="44.5911" lon="6.68822">
        <ele>1679</ele>
        <time>2020-09-15T09:26:54Z</time>
      </trkpt>
      <trkpt lat="44.59104" lon="6.68803">
        <ele>1683</ele>
        <time>2020-09-15T09:26:56Z</time>
      </trkpt>
      <trkpt lat="44.59096" lon="6.68791">
        <ele>1684</ele>
        <time>2020-09-15T09:26:59Z</time>
      </trkpt>
      <trkpt lat="44.59081" lon="6.68779">
        <ele>1686</ele>
        <time>2020-09-15T09:27:02Z</time>
      </trkpt>
      <trkpt lat="44.59059" lon="6.68772">
        <ele>1688</ele>
        <time>2020-09-15T09:27:06Z</time>
      </trkpt>
      <trkpt lat="44.59031" lon="6.68769">
        <ele>1690</ele>
        <time>2020-09-15T09:27:11Z</time>
      </trkpt>
      <trkpt lat="44.58968" lon="6.68782">
        <ele>1692</ele>
        <time>2020-09-15T09:27:22Z</time>
      </trkpt>
      <trkpt lat="44.58869" lon="6.68771">
        <ele>1701</ele>
        <time>2020-09-15T09:27:40Z</time>
      </trkpt>
      <trkpt lat="44.58859" lon="6.68767">
        <ele>1703</ele>
        <time>2020-09-15T09:27:41Z</time>
      </trkpt>
      <trkpt lat="44.58761" lon="6.68717">
        <ele>1711</ele>
        <time>2020-09-15T09:28:00Z</time>
      </trkpt>
      <trkpt lat="44.58658" lon="6.6866">
        <ele>1720</ele>
        <time>2020-09-15T09:28:20Z</time>
      </trkpt>
      <trkpt lat="44.58644" lon="6.6864">
        <ele>1723</ele>
        <time>2020-09-15T09:28:23Z</time>
      </trkpt>
      <trkpt lat="44.58607" lon="6.68568">
        <ele>1732</ele>
        <time>2020-09-15T09:28:34Z</time>
      </trkpt>
      <trkpt lat="44.58557" lon="6.68495">
        <ele>1741</ele>
        <time>2020-09-15T09:28:47Z</time>
      </trkpt>
      <trkpt lat="44.58527" lon="6.68459">
        <ele>1746</ele>
        <time>2020-09-15T09:28:54Z</time>
      </trkpt>
      <trkpt lat="44.58496" lon="6.68426">
        <ele>1749</ele>
        <time>2020-09-15T09:29:01Z</time>
      </trkpt>
      <trkpt lat="44.58469" lon="6.68379">
        <ele>1754</ele>
        <time>2020-09-15T09:29:09Z</time>
      </trkpt>
      <trkpt lat="44.58453" lon="6.68359">
        <ele>1755</ele>
        <time>2020-09-15T09:29:13Z</time>
      </trkpt>
      <trkpt lat="44.58365" lon="6.68294">
        <ele>1765</ele>
        <time>2020-09-15T09:29:30Z</time>
      </trkpt>
      <trkpt lat="44.58351" lon="6.68284">
        <ele>1767</ele>
        <time>2020-09-15T09:29:33Z</time>
      </trkpt>
      <trkpt lat="44.58326" lon="6.68277">
        <ele>1769</ele>
        <time>2020-09-15T09:29:38Z</time>
      </trkpt>
      <trkpt lat="44.583" lon="6.68285">
        <ele>1771</ele>
        <time>2020-09-15T09:29:42Z</time>
      </trkpt>
      <trkpt lat="44.58278" lon="6.68299">
        <ele>1771</ele>
        <time>2020-09-15T09:29:47Z</time>
      </trkpt>
      <trkpt lat="44.58239" lon="6.68333">
        <ele>1767</ele>
        <time>2020-09-15T09:29:55Z</time>
      </trkpt>
      <trkpt lat="44.58208" lon="6.6835">
        <ele>1769</ele>
        <time>2020-09-15T09:30:01Z</time>
      </trkpt>
      <trkpt lat="44.58197" lon="6.68354">
        <ele>1770</ele>
        <time>2020-09-15T09:30:03Z</time>
      </trkpt>
      <trkpt lat="44.58139" lon="6.6838">
        <ele>1774</ele>
        <time>2020-09-15T09:30:14Z</time>
      </trkpt>
      <trkpt lat="44.58129" lon="6.68387">
        <ele>1775</ele>
        <time>2020-09-15T09:30:16Z</time>
      </trkpt>
      <trkpt lat="44.58057" lon="6.68444">
        <ele>1780</ele>
        <time>2020-09-15T09:30:30Z</time>
      </trkpt>
      <trkpt lat="44.58037" lon="6.68448">
        <ele>1781</ele>
        <time>2020-09-15T09:30:34Z</time>
      </trkpt>
      <trkpt lat="44.57995" lon="6.68442">
        <ele>1785</ele>
        <time>2020-09-15T09:30:42Z</time>
      </trkpt>
      <trkpt lat="44.57925" lon="6.68421">
        <ele>1786</ele>
        <time>2020-09-15T09:30:54Z</time>
      </trkpt>
      <trkpt lat="44.57902" lon="6.68402">
        <ele>1789</ele>
        <time>2020-09-15T09:30:59Z</time>
      </trkpt>
      <trkpt lat="44.57872" lon="6.68349">
        <ele>1796</ele>
        <time>2020-09-15T09:31:08Z</time>
      </trkpt>
      <trkpt lat="44.57862" lon="6.68327">
        <ele>1798</ele>
        <time>2020-09-15T09:31:11Z</time>
      </trkpt>
      <trkpt lat="44.57852" lon="6.68311">
        <ele>1800</ele>
        <time>2020-09-15T09:31:14Z</time>
      </trkpt>
      <trkpt lat="44.57847" lon="6.68303">
        <ele>1801</ele>
        <time>2020-09-15T09:31:15Z</time>
      </trkpt>
      <trkpt lat="44.57834" lon="6.68289">
        <ele>1803</ele>
        <time>2020-09-15T09:31:18Z</time>
      </trkpt>
      <trkpt lat="44.57821" lon="6.68285">
        <ele>1804</ele>
        <time>2020-09-15T09:31:20Z</time>
      </trkpt>
      <trkpt lat="44.57781" lon="6.68294">
        <ele>1804</ele>
        <time>2020-09-15T09:31:27Z</time>
      </trkpt>
      <trkpt lat="44.57766" lon="6.68294">
        <ele>1804</ele>
        <time>2020-09-15T09:31:30Z</time>
      </trkpt>
      <trkpt lat="44.57751" lon="6.68286">
        <ele>1806</ele>
        <time>2020-09-15T09:31:33Z</time>
      </trkpt>
      <trkpt lat="44.5765" lon="6.68208">
        <ele>1822</ele>
        <time>2020-09-15T09:31:53Z</time>
      </trkpt>
      <trkpt lat="44.5764" lon="6.68205">
        <ele>1822</ele>
        <time>2020-09-15T09:31:55Z</time>
      </trkpt>
      <trkpt lat="44.57627" lon="6.68204">
        <ele>1823</ele>
        <time>2020-09-15T09:31:58Z</time>
      </trkpt>
      <trkpt lat="44.57577" lon="6.68211">
        <ele>1823</ele>
        <time>2020-09-15T09:32:07Z</time>
      </trkpt>
      <trkpt lat="44.57559" lon="6.68209">
        <ele>1824</ele>
        <time>2020-09-15T09:32:10Z</time>
      </trkpt>
      <trkpt lat="44.57532" lon="6.68199">
        <ele>1827</ele>
        <time>2020-09-15T09:32:15Z</time>
      </trkpt>
      <trkpt lat="44.57505" lon="6.68185">
        <ele>1830</ele>
        <time>2020-09-15T09:32:20Z</time>
      </trkpt>
      <trkpt lat="44.57489" lon="6.6818">
        <ele>1832</ele>
        <time>2020-09-15T09:32:23Z</time>
      </trkpt>
      <trkpt lat="44.57466" lon="6.68181">
        <ele>1833</ele>
        <time>2020-09-15T09:32:27Z</time>
      </trkpt>
      <trkpt lat="44.57452" lon="6.68184">
        <ele>1834</ele>
        <time>2020-09-15T09:32:29Z</time>
      </trkpt>
      <trkpt lat="44.57438" lon="6.68186">
        <ele>1835</ele>
        <time>2020-09-15T09:32:32Z</time>
      </trkpt>
      <trkpt lat="44.57387" lon="6.68198">
        <ele>1838</ele>
        <time>2020-09-15T09:32:41Z</time>
      </trkpt>
      <trkpt lat="44.57368" lon="6.68198">
        <ele>1840</ele>
        <time>2020-09-15T09:32:44Z</time>
      </trkpt>
      <trkpt lat="44.57353" lon="6.68191">
        <ele>1842</ele>
        <time>2020-09-15T09:32:47Z</time>
      </trkpt>
      <trkpt lat="44.57338" lon="6.68175">
        <ele>1844</ele>
        <time>2020-09-15T09:32:51Z</time>
      </trkpt>
      <trkpt lat="44.57299" lon="6.68046">
        <ele>1853</ele>
        <time>2020-09-15T09:33:08Z</time>
      </trkpt>
      <trkpt lat="44.57291" lon="6.68025">
        <ele>1854</ele>
        <time>2020-09-15T09:33:11Z</time>
      </trkpt>
      <trkpt lat="44.57284" lon="6.68013">
        <ele>1854</ele>
        <time>2020-09-15T09:33:13Z</time>
      </trkpt>
      <trkpt lat="44.57273" lon="6.68005">
        <ele>1855</ele>
        <time>2020-09-15T09:33:16Z</time>
      </trkpt>
      <trkpt lat="44.57265" lon="6.68002">
        <ele>1856</ele>
        <time>2020-09-15T09:33:17Z</time>
      </trkpt>
      <trkpt lat="44.57228" lon="6.68">
        <ele>1859</ele>
        <time>2020-09-15T09:33:24Z</time>
      </trkpt>
      <trkpt lat="44.57216" lon="6.68001">
        <ele>1860</ele>
        <time>2020-09-15T09:33:26Z</time>
      </trkpt>
      <trkpt lat="44.57194" lon="6.68007">
        <ele>1862</ele>
        <time>2020-09-15T09:33:30Z</time>
      </trkpt>
      <trkpt lat="44.57182" lon="6.68021">
        <ele>1864</ele>
        <time>2020-09-15T09:33:33Z</time>
      </trkpt>
      <trkpt lat="44.57173" lon="6.68037">
        <ele>1866</ele>
        <time>2020-09-15T09:33:35Z</time>
      </trkpt>
      <trkpt lat="44.5717" lon="6.68051">
        <ele>1867</ele>
        <time>2020-09-15T09:33:37Z</time>
      </trkpt>
      <trkpt lat="44.57168" lon="6.68068">
        <ele>1868</ele>
        <time>2020-09-15T09:33:39Z</time>
      </trkpt>
      <trkpt lat="44.57172" lon="6.68136">
        <ele>1870</ele>
        <time>2020-09-15T09:33:48Z</time>
      </trkpt>
      <trkpt lat="44.57171" lon="6.68159">
        <ele>1871</ele>
        <time>2020-09-15T09:33:51Z</time>
      </trkpt>
      <trkpt lat="44.57166" lon="6.6818">
        <ele>1872</ele>
        <time>2020-09-15T09:33:54Z</time>
      </trkpt>
      <trkpt lat="44.57146" lon="6.68214">
        <ele>1875</ele>
        <time>2020-09-15T09:33:59Z</time>
      </trkpt>
      <trkpt lat="44.57138" lon="6.68225">
        <ele>1876</ele>
        <time>2020-09-15T09:34:01Z</time>
      </trkpt>
      <trkpt lat="44.57132" lon="6.68233">
        <ele>1877</ele>
        <time>2020-09-15T09:34:03Z</time>
      </trkpt>
      <trkpt lat="44.5711" lon="6.68262">
        <ele>1880</ele>
        <time>2020-09-15T09:34:08Z</time>
      </trkpt>
      <trkpt lat="44.57092" lon="6.68272">
        <ele>1883</ele>
        <time>2020-09-15T09:34:11Z</time>
      </trkpt>
      <trkpt lat="44.57079" lon="6.68276">
        <ele>1884</ele>
        <time>2020-09-15T09:34:14Z</time>
      </trkpt>
      <trkpt lat="44.57071" lon="6.68277">
        <ele>1885</ele>
        <time>2020-09-15T09:34:15Z</time>
      </trkpt>
      <trkpt lat="44.57066" lon="6.68277">
        <ele>1886</ele>
        <time>2020-09-15T09:34:16Z</time>
      </trkpt>
      <trkpt lat="44.57053" lon="6.68275">
        <ele>1887</ele>
        <time>2020-09-15T09:34:18Z</time>
      </trkpt>
      <trkpt lat="44.57032" lon="6.68269">
        <ele>1889</ele>
        <time>2020-09-15T09:34:22Z</time>
      </trkpt>
      <trkpt lat="44.57021" lon="6.68265">
        <ele>1890</ele>
        <time>2020-09-15T09:34:24Z</time>
      </trkpt>
      <trkpt lat="44.56997" lon="6.68258">
        <ele>1891</ele>
        <time>2020-09-15T09:34:29Z</time>
      </trkpt>
      <trkpt lat="44.56978" lon="6.68257">
        <ele>1893</ele>
        <time>2020-09-15T09:34:32Z</time>
      </trkpt>
      <trkpt lat="44.56973" lon="6.68259">
        <ele>1893</ele>
        <time>2020-09-15T09:34:33Z</time>
      </trkpt>
      <trkpt lat="44.5696" lon="6.68268">
        <ele>1894</ele>
        <time>2020-09-15T09:34:36Z</time>
      </trkpt>
      <trkpt lat="44.56927" lon="6.68301">
        <ele>1898</ele>
        <time>2020-09-15T09:34:43Z</time>
      </trkpt>
      <trkpt lat="44.56922" lon="6.68309">
        <ele>1899</ele>
        <time>2020-09-15T09:34:44Z</time>
      </trkpt>
      <trkpt lat="44.56917" lon="6.68324">
        <ele>1900</ele>
        <time>2020-09-15T09:34:46Z</time>
      </trkpt>
      <trkpt lat="44.56916" lon="6.68333">
        <ele>1901</ele>
        <time>2020-09-15T09:34:47Z</time>
      </trkpt>
      <trkpt lat="44.56916" lon="6.68339">
        <ele>1902</ele>
        <time>2020-09-15T09:34:48Z</time>
      </trkpt>
      <trkpt lat="44.56917" lon="6.68346">
        <ele>1902</ele>
        <time>2020-09-15T09:34:49Z</time>
      </trkpt>
      <trkpt lat="44.56923" lon="6.68362">
        <ele>1903</ele>
        <time>2020-09-15T09:34:51Z</time>
      </trkpt>
      <trkpt lat="44.56939" lon="6.68389">
        <ele>1903</ele>
        <time>2020-09-15T09:34:56Z</time>
      </trkpt>
      <trkpt lat="44.56944" lon="6.68402">
        <ele>1904</ele>
        <time>2020-09-15T09:34:58Z</time>
      </trkpt>
      <trkpt lat="44.56945" lon="6.68416">
        <ele>1905</ele>
        <time>2020-09-15T09:34:59Z</time>
      </trkpt>
      <trkpt lat="44.56942" lon="6.68429">
        <ele>1905</ele>
        <time>2020-09-15T09:35:01Z</time>
      </trkpt>
      <trkpt lat="44.5693" lon="6.68445">
        <ele>1906</ele>
        <time>2020-09-15T09:35:04Z</time>
      </trkpt>
      <trkpt lat="44.56901" lon="6.68465">
        <ele>1910</ele>
        <time>2020-09-15T09:35:10Z</time>
      </trkpt>
      <trkpt lat="44.5686" lon="6.68485">
        <ele>1917</ele>
        <time>2020-09-15T09:35:18Z</time>
      </trkpt>
      <trkpt lat="44.56826" lon="6.68498">
        <ele>1922</ele>
        <time>2020-09-15T09:35:24Z</time>
      </trkpt>
      <trkpt lat="44.56791" lon="6.68505">
        <ele>1924</ele>
        <time>2020-09-15T09:35:30Z</time>
      </trkpt>
      <trkpt lat="44.56769" lon="6.68502">
        <ele>1926</ele>
        <time>2020-09-15T09:35:34Z</time>
      </trkpt>
      <trkpt lat="44.56739" lon="6.68496">
        <ele>1928</ele>
        <time>2020-09-15T09:35:39Z</time>
      </trkpt>
      <trkpt lat="44.56731" lon="6.68496">
        <ele>1929</ele>
        <time>2020-09-15T09:35:41Z</time>
      </trkpt>
      <trkpt lat="44.56714" lon="6.68498">
        <ele>1930</ele>
        <time>2020-09-15T09:35:44Z</time>
      </trkpt>
      <trkpt lat="44.56703" lon="6.68505">
        <ele>1931</ele>
        <time>2020-09-15T09:35:46Z</time>
      </trkpt>
      <trkpt lat="44.56693" lon="6.68515">
        <ele>1932</ele>
        <time>2020-09-15T09:35:48Z</time>
      </trkpt>
      <trkpt lat="44.56675" lon="6.68542">
        <ele>1932</ele>
        <time>2020-09-15T09:35:53Z</time>
      </trkpt>
      <trkpt lat="44.5667" lon="6.68552">
        <ele>1933</ele>
        <time>2020-09-15T09:35:54Z</time>
      </trkpt>
      <trkpt lat="44.56656" lon="6.68574">
        <ele>1932</ele>
        <time>2020-09-15T09:35:58Z</time>
      </trkpt>
      <trkpt lat="44.56647" lon="6.68587">
        <ele>1931</ele>
        <time>2020-09-15T09:36:00Z</time>
      </trkpt>
      <trkpt lat="44.56643" lon="6.68593">
        <ele>1931</ele>
        <time>2020-09-15T09:36:02Z</time>
      </trkpt>
      <trkpt lat="44.56622" lon="6.68615">
        <ele>1931</ele>
        <time>2020-09-15T09:36:06Z</time>
      </trkpt>
      <trkpt lat="44.56577" lon="6.68657">
        <ele>1931</ele>
        <time>2020-09-15T09:36:16Z</time>
      </trkpt>
      <trkpt lat="44.5655" lon="6.68688">
        <ele>1933</ele>
        <time>2020-09-15T09:36:22Z</time>
      </trkpt>
      <trkpt lat="44.56516" lon="6.68733">
        <ele>1937</ele>
        <time>2020-09-15T09:36:30Z</time>
      </trkpt>
      <trkpt lat="44.565" lon="6.68746">
        <ele>1938</ele>
        <time>2020-09-15T09:36:34Z</time>
      </trkpt>
      <trkpt lat="44.56425" lon="6.68766">
        <ele>1945</ele>
        <time>2020-09-15T09:36:47Z</time>
      </trkpt>
      <trkpt lat="44.56406" lon="6.68779">
        <ele>1948</ele>
        <time>2020-09-15T09:36:51Z</time>
      </trkpt>
      <trkpt lat="44.56391" lon="6.68797">
        <ele>1951</ele>
        <time>2020-09-15T09:36:54Z</time>
      </trkpt>
      <trkpt lat="44.5633" lon="6.68889">
        <ele>1952</ele>
        <time>2020-09-15T09:37:10Z</time>
      </trkpt>
      <trkpt lat="44.56312" lon="6.68907">
        <ele>1952</ele>
        <time>2020-09-15T09:37:14Z</time>
      </trkpt>
      <trkpt lat="44.56295" lon="6.68925">
        <ele>1950</ele>
        <time>2020-09-15T09:37:18Z</time>
      </trkpt>
      <trkpt lat="44.56273" lon="6.68938">
        <ele>1948</ele>
        <time>2020-09-15T09:37:22Z</time>
      </trkpt>
      <trkpt lat="44.5624" lon="6.68949">
        <ele>1949</ele>
        <time>2020-09-15T09:37:28Z</time>
      </trkpt>
      <trkpt lat="44.56227" lon="6.68952">
        <ele>1950</ele>
        <time>2020-09-15T09:37:31Z</time>
      </trkpt>
      <trkpt lat="44.56216" lon="6.68955">
        <ele>1952</ele>
        <time>2020-09-15T09:37:33Z</time>
      </trkpt>
      <trkpt lat="44.56192" lon="6.68963">
        <ele>1954</ele>
        <time>2020-09-15T09:37:37Z</time>
      </trkpt>
      <trkpt lat="44.56162" lon="6.68983">
        <ele>1954</ele>
        <time>2020-09-15T09:37:43Z</time>
      </trkpt>
      <trkpt lat="44.56064" lon="6.69064">
        <ele>1960</ele>
        <time>2020-09-15T09:38:03Z</time>
      </trkpt>
      <trkpt lat="44.56037" lon="6.69105">
        <ele>1962</ele>
        <time>2020-09-15T09:38:10Z</time>
      </trkpt>
      <trkpt lat="44.56021" lon="6.69162">
        <ele>1965</ele>
        <time>2020-09-15T09:38:18Z</time>
      </trkpt>
      <trkpt lat="44.56007" lon="6.69186">
        <ele>1971</ele>
        <time>2020-09-15T09:38:22Z</time>
      </trkpt>
      <trkpt lat="44.55941" lon="6.69259">
        <ele>1988</ele>
        <time>2020-09-15T09:38:37Z</time>
      </trkpt>
      <trkpt lat="44.55913" lon="6.69286">
        <ele>1990</ele>
        <time>2020-09-15T09:38:43Z</time>
      </trkpt>
      <trkpt lat="44.55841" lon="6.69344">
        <ele>1991</ele>
        <time>2020-09-15T09:38:58Z</time>
      </trkpt>
      <trkpt lat="44.55757" lon="6.69418">
        <ele>1990</ele>
        <time>2020-09-15T09:39:15Z</time>
      </trkpt>
      <trkpt lat="44.55731" lon="6.69457">
        <ele>1993</ele>
        <time>2020-09-15T09:39:22Z</time>
      </trkpt>
      <trkpt lat="44.55715" lon="6.69485">
        <ele>1993</ele>
        <time>2020-09-15T09:39:27Z</time>
      </trkpt>
      <trkpt lat="44.55706" lon="6.69504">
        <ele>1993</ele>
        <time>2020-09-15T09:39:30Z</time>
      </trkpt>
      <trkpt lat="44.55648" lon="6.69696">
        <ele>1993</ele>
        <time>2020-09-15T09:39:56Z</time>
      </trkpt>
      <trkpt lat="44.55637" lon="6.69724">
        <ele>1995</ele>
        <time>2020-09-15T09:40:00Z</time>
      </trkpt>
      <trkpt lat="44.55622" lon="6.69751">
        <ele>1995</ele>
        <time>2020-09-15T09:40:05Z</time>
      </trkpt>
      <trkpt lat="44.55567" lon="6.69827">
        <ele>1997</ele>
        <time>2020-09-15T09:40:18Z</time>
      </trkpt>
      <trkpt lat="44.55534" lon="6.69854">
        <ele>1999</ele>
        <time>2020-09-15T09:40:25Z</time>
      </trkpt>
      <trkpt lat="44.55502" lon="6.69873">
        <ele>2000</ele>
        <time>2020-09-15T09:40:31Z</time>
      </trkpt>
      <trkpt lat="44.55479" lon="6.6988">
        <ele>2000</ele>
        <time>2020-09-15T09:40:35Z</time>
      </trkpt>
      <trkpt lat="44.55383" lon="6.69899">
        <ele>1999</ele>
        <time>2020-09-15T09:40:53Z</time>
      </trkpt>
      <trkpt lat="44.55355" lon="6.69907">
        <ele>1999</ele>
        <time>2020-09-15T09:40:58Z</time>
      </trkpt>
      <trkpt lat="44.55322" lon="6.69925">
        <ele>2001</ele>
        <time>2020-09-15T09:41:04Z</time>
      </trkpt>
      <trkpt lat="44.55298" lon="6.69941">
        <ele>2003</ele>
        <time>2020-09-15T09:41:09Z</time>
      </trkpt>
      <trkpt lat="44.55282" lon="6.6996">
        <ele>2005</ele>
        <time>2020-09-15T09:41:13Z</time>
      </trkpt>
      <trkpt lat="44.55261" lon="6.70009">
        <ele>2010</ele>
        <time>2020-09-15T09:41:20Z</time>
      </trkpt>
      <trkpt lat="44.55248" lon="6.70035">
        <ele>2014</ele>
        <time>2020-09-15T09:41:24Z</time>
      </trkpt>
      <trkpt lat="44.55237" lon="6.70045">
        <ele>2016</ele>
        <time>2020-09-15T09:41:26Z</time>
      </trkpt>
      <trkpt lat="44.55228" lon="6.70049">
        <ele>2017</ele>
        <time>2020-09-15T09:41:28Z</time>
      </trkpt>
      <trkpt lat="44.55187" lon="6.70045">
        <ele>2017</ele>
        <time>2020-09-15T09:41:35Z</time>
      </trkpt>
      <trkpt lat="44.55151" lon="6.70037">
        <ele>2018</ele>
        <time>2020-09-15T09:41:42Z</time>
      </trkpt>
      <trkpt lat="44.55134" lon="6.7004">
        <ele>2020</ele>
        <time>2020-09-15T09:41:45Z</time>
      </trkpt>
      <trkpt lat="44.55114" lon="6.70051">
        <ele>2024</ele>
        <time>2020-09-15T09:41:48Z</time>
      </trkpt>
      <trkpt lat="44.55079" lon="6.70082">
        <ele>2030</ele>
        <time>2020-09-15T09:41:56Z</time>
      </trkpt>
      <trkpt lat="44.55046" lon="6.70104">
        <ele>2036</ele>
        <time>2020-09-15T09:42:02Z</time>
      </trkpt>
      <trkpt lat="44.5501" lon="6.70122">
        <ele>2041</ele>
        <time>2020-09-15T09:42:09Z</time>
      </trkpt>
      <trkpt lat="44.54984" lon="6.70138">
        <ele>2044</ele>
        <time>2020-09-15T09:42:14Z</time>
      </trkpt>
      <trkpt lat="44.54937" lon="6.7018">
        <ele>2049</ele>
        <time>2020-09-15T09:42:24Z</time>
      </trkpt>
      <trkpt lat="44.54882" lon="6.70215">
        <ele>2053</ele>
        <time>2020-09-15T09:42:35Z</time>
      </trkpt>
      <trkpt lat="44.5482" lon="6.70271">
        <ele>2058</ele>
        <time>2020-09-15T09:42:48Z</time>
      </trkpt>
      <trkpt lat="44.54809" lon="6.70277">
        <ele>2059</ele>
        <time>2020-09-15T09:42:50Z</time>
      </trkpt>
      <trkpt lat="44.54801" lon="6.70279">
        <ele>2059</ele>
        <time>2020-09-15T09:42:52Z</time>
      </trkpt>
      <trkpt lat="44.54788" lon="6.70279">
        <ele>2058</ele>
        <time>2020-09-15T09:42:54Z</time>
      </trkpt>
      <trkpt lat="44.54729" lon="6.70248">
        <ele>2057</ele>
        <time>2020-09-15T09:43:05Z</time>
      </trkpt>
      <trkpt lat="44.5471" lon="6.7024">
        <ele>2059</ele>
        <time>2020-09-15T09:43:09Z</time>
      </trkpt>
      <trkpt lat="44.54694" lon="6.70236">
        <ele>2061</ele>
        <time>2020-09-15T09:43:11Z</time>
      </trkpt>
      <trkpt lat="44.54619" lon="6.70224">
        <ele>2069</ele>
        <time>2020-09-15T09:43:25Z</time>
      </trkpt>
      <trkpt lat="44.54579" lon="6.70225">
        <ele>2072</ele>
        <time>2020-09-15T09:43:32Z</time>
      </trkpt>
      <trkpt lat="44.54547" lon="6.70217">
        <ele>2073</ele>
        <time>2020-09-15T09:43:38Z</time>
      </trkpt>
      <trkpt lat="44.54526" lon="6.70221">
        <ele>2075</ele>
        <time>2020-09-15T09:43:42Z</time>
      </trkpt>
      <trkpt lat="44.54459" lon="6.70245">
        <ele>2081</ele>
        <time>2020-09-15T09:43:54Z</time>
      </trkpt>
      <trkpt lat="44.54395" lon="6.70245">
        <ele>2084</ele>
        <time>2020-09-15T09:44:05Z</time>
      </trkpt>
      <trkpt lat="44.54381" lon="6.70249">
        <ele>2084</ele>
        <time>2020-09-15T09:44:08Z</time>
      </trkpt>
      <trkpt lat="44.54355" lon="6.70266">
        <ele>2089</ele>
        <time>2020-09-15T09:44:13Z</time>
      </trkpt>
      <trkpt lat="44.54332" lon="6.70269">
        <ele>2090</ele>
        <time>2020-09-15T09:44:17Z</time>
      </trkpt>
      <trkpt lat="44.54309" lon="6.70266">
        <ele>2089</ele>
        <time>2020-09-15T09:44:21Z</time>
      </trkpt>
      <trkpt lat="44.54294" lon="6.7027">
        <ele>2090</ele>
        <time>2020-09-15T09:44:24Z</time>
      </trkpt>
      <trkpt lat="44.54249" lon="6.70291">
        <ele>2093</ele>
        <time>2020-09-15T09:44:32Z</time>
      </trkpt>
      <trkpt lat="44.54239" lon="6.70293">
        <ele>2095</ele>
        <time>2020-09-15T09:44:34Z</time>
      </trkpt>
      <trkpt lat="44.54228" lon="6.70293">
        <ele>2096</ele>
        <time>2020-09-15T09:44:36Z</time>
      </trkpt>
      <trkpt lat="44.54201" lon="6.70276">
        <ele>2095</ele>
        <time>2020-09-15T09:44:41Z</time>
      </trkpt>
      <trkpt lat="44.54166" lon="6.70258">
        <ele>2093</ele>
        <time>2020-09-15T09:44:48Z</time>
      </trkpt>
      <trkpt lat="44.54136" lon="6.70255">
        <ele>2094</ele>
        <time>2020-09-15T09:44:53Z</time>
      </trkpt>
      <trkpt lat="44.54084" lon="6.70257">
        <ele>2097</ele>
        <time>2020-09-15T09:45:03Z</time>
      </trkpt>
      <trkpt lat="44.54051" lon="6.7025">
        <ele>2099</ele>
        <time>2020-09-15T09:45:08Z</time>
      </trkpt>
      <trkpt lat="44.54019" lon="6.70227">
        <ele>2102</ele>
        <time>2020-09-15T09:45:15Z</time>
      </trkpt>
      <trkpt lat="44.53994" lon="6.70223">
        <ele>2104</ele>
        <time>2020-09-15T09:45:19Z</time>
      </trkpt>
      <trkpt lat="44.53977" lon="6.70226">
        <ele>2105</ele>
        <time>2020-09-15T09:45:22Z</time>
      </trkpt>
      <trkpt lat="44.53956" lon="6.70232">
        <ele>2107</ele>
        <time>2020-09-15T09:45:26Z</time>
      </trkpt>
      <trkpt lat="44.53928" lon="6.70242">
        <ele>2108</ele>
        <time>2020-09-15T09:45:31Z</time>
      </trkpt>
      <trkpt lat="44.53898" lon="6.70264">
        <ele>2112</ele>
        <time>2020-09-15T09:45:37Z</time>
      </trkpt>
      <trkpt lat="44.53877" lon="6.70284">
        <ele>2115</ele>
        <time>2020-09-15T09:45:42Z</time>
      </trkpt>
      <trkpt lat="44.53872" lon="6.70286">
        <ele>2115</ele>
        <time>2020-09-15T09:45:43Z</time>
      </trkpt>
      <trkpt lat="44.5383" lon="6.70298">
        <ele>2112</ele>
        <time>2020-09-15T09:45:50Z</time>
      </trkpt>
      <trkpt lat="44.53815" lon="6.70298">
        <ele>2111</ele>
        <time>2020-09-15T09:45:53Z</time>
      </trkpt>
      <trkpt lat="44.53777" lon="6.70298">
        <ele>2107</ele>
        <time>2020-09-15T09:46:00Z</time>
      </trkpt>
      <trkpt lat="44.53747" lon="6.70299">
        <ele>2103</ele>
        <time>2020-09-15T09:46:05Z</time>
      </trkpt>
      <trkpt lat="44.53728" lon="6.70304">
        <ele>2101</ele>
        <time>2020-09-15T09:46:09Z</time>
      </trkpt>
      <trkpt lat="44.53708" lon="6.70315">
        <ele>2098</ele>
        <time>2020-09-15T09:46:12Z</time>
      </trkpt>
      <trkpt lat="44.53683" lon="6.70326">
        <ele>2094</ele>
        <time>2020-09-15T09:46:17Z</time>
      </trkpt>
      <trkpt lat="44.53647" lon="6.70331">
        <ele>2091</ele>
        <time>2020-09-15T09:46:24Z</time>
      </trkpt>
      <trkpt lat="44.53617" lon="6.70344">
        <ele>2089</ele>
        <time>2020-09-15T09:46:29Z</time>
      </trkpt>
      <trkpt lat="44.53601" lon="6.70356">
        <ele>2087</ele>
        <time>2020-09-15T09:46:32Z</time>
      </trkpt>
      <trkpt lat="44.5359" lon="6.70372">
        <ele>2085</ele>
        <time>2020-09-15T09:46:35Z</time>
      </trkpt>
      <trkpt lat="44.53543" lon="6.70453">
        <ele>2078</ele>
        <time>2020-09-15T09:46:48Z</time>
      </trkpt>
      <trkpt lat="44.53526" lon="6.70468">
        <ele>2075</ele>
        <time>2020-09-15T09:46:52Z</time>
      </trkpt>
      <trkpt lat="44.53509" lon="6.70481">
        <ele>2070</ele>
        <time>2020-09-15T09:46:55Z</time>
      </trkpt>
      <trkpt lat="44.53495" lon="6.70486">
        <ele>2067</ele>
        <time>2020-09-15T09:46:58Z</time>
      </trkpt>
      <trkpt lat="44.53482" lon="6.70487">
        <ele>2065</ele>
        <time>2020-09-15T09:47:00Z</time>
      </trkpt>
      <trkpt lat="44.53422" lon="6.70461">
        <ele>2058</ele>
        <time>2020-09-15T09:47:12Z</time>
      </trkpt>
      <trkpt lat="44.53406" lon="6.70455">
        <ele>2057</ele>
        <time>2020-09-15T09:47:14Z</time>
      </trkpt>
      <trkpt lat="44.53376" lon="6.70457">
        <ele>2053</ele>
        <time>2020-09-15T09:47:20Z</time>
      </trkpt>
      <trkpt lat="44.53356" lon="6.70466">
        <ele>2049</ele>
        <time>2020-09-15T09:47:24Z</time>
      </trkpt>
      <trkpt lat="44.5334" lon="6.70471">
        <ele>2046</ele>
        <time>2020-09-15T09:47:26Z</time>
      </trkpt>
      <trkpt lat="44.53326" lon="6.7047">
        <ele>2043</ele>
        <time>2020-09-15T09:47:29Z</time>
      </trkpt>
      <trkpt lat="44.53315" lon="6.70464">
        <ele>2040</ele>
        <time>2020-09-15T09:47:31Z</time>
      </trkpt>
      <trkpt lat="44.53307" lon="6.70455">
        <ele>2038</ele>
        <time>2020-09-15T09:47:33Z</time>
      </trkpt>
      <trkpt lat="44.53301" lon="6.70441">
        <ele>2038</ele>
        <time>2020-09-15T09:47:35Z</time>
      </trkpt>
      <trkpt lat="44.53286" lon="6.70386">
        <ele>2039</ele>
        <time>2020-09-15T09:47:42Z</time>
      </trkpt>
      <trkpt lat="44.53278" lon="6.70362">
        <ele>2039</ele>
        <time>2020-09-15T09:47:46Z</time>
      </trkpt>
      <trkpt lat="44.53242" lon="6.70277">
        <ele>2033</ele>
        <time>2020-09-15T09:47:58Z</time>
      </trkpt>
      <trkpt lat="44.53214" lon="6.70185">
        <ele>2037</ele>
        <time>2020-09-15T09:48:11Z</time>
      </trkpt>
      <trkpt lat="44.53203" lon="6.70155">
        <ele>2038</ele>
        <time>2020-09-15T09:48:15Z</time>
      </trkpt>
      <trkpt lat="44.53196" lon="6.70143">
        <ele>2038</ele>
        <time>2020-09-15T09:48:17Z</time>
      </trkpt>
      <trkpt lat="44.53188" lon="6.70138">
        <ele>2036</ele>
        <time>2020-09-15T09:48:19Z</time>
      </trkpt>
      <trkpt lat="44.53181" lon="6.70141">
        <ele>2032</ele>
        <time>2020-09-15T09:48:20Z</time>
      </trkpt>
      <trkpt lat="44.53178" lon="6.70148">
        <ele>2029</ele>
        <time>2020-09-15T09:48:21Z</time>
      </trkpt>
      <trkpt lat="44.53178" lon="6.70162">
        <ele>2026</ele>
        <time>2020-09-15T09:48:23Z</time>
      </trkpt>
      <trkpt lat="44.53207" lon="6.70254">
        <ele>2021</ele>
        <time>2020-09-15T09:48:36Z</time>
      </trkpt>
      <trkpt lat="44.53214" lon="6.70292">
        <ele>2019</ele>
        <time>2020-09-15T09:48:41Z</time>
      </trkpt>
      <trkpt lat="44.53216" lon="6.70321">
        <ele>2016</ele>
        <time>2020-09-15T09:48:44Z</time>
      </trkpt>
      <trkpt lat="44.53216" lon="6.70353">
        <ele>2013</ele>
        <time>2020-09-15T09:48:48Z</time>
      </trkpt>
      <trkpt lat="44.53211" lon="6.70433">
        <ele>2004</ele>
        <time>2020-09-15T09:48:59Z</time>
      </trkpt>
      <trkpt lat="44.53212" lon="6.70455">
        <ele>2003</ele>
        <time>2020-09-15T09:49:01Z</time>
      </trkpt>
      <trkpt lat="44.53225" lon="6.70527">
        <ele>2001</ele>
        <time>2020-09-15T09:49:11Z</time>
      </trkpt>
      <trkpt lat="44.53229" lon="6.70559">
        <ele>1998</ele>
        <time>2020-09-15T09:49:15Z</time>
      </trkpt>
      <trkpt lat="44.53232" lon="6.70689">
        <ele>1987</ele>
        <time>2020-09-15T09:49:31Z</time>
      </trkpt>
      <trkpt lat="44.53234" lon="6.70726">
        <ele>1984</ele>
        <time>2020-09-15T09:49:36Z</time>
      </trkpt>
      <trkpt lat="44.53241" lon="6.70747">
        <ele>1985</ele>
        <time>2020-09-15T09:49:39Z</time>
      </trkpt>
      <trkpt lat="44.53251" lon="6.70762">
        <ele>1985</ele>
        <time>2020-09-15T09:49:42Z</time>
      </trkpt>
      <trkpt lat="44.53269" lon="6.70776">
        <ele>1987</ele>
        <time>2020-09-15T09:49:45Z</time>
      </trkpt>
      <trkpt lat="44.53283" lon="6.7079">
        <ele>1988</ele>
        <time>2020-09-15T09:49:48Z</time>
      </trkpt>
      <trkpt lat="44.53291" lon="6.70807">
        <ele>1988</ele>
        <time>2020-09-15T09:49:51Z</time>
      </trkpt>
      <trkpt lat="44.53293" lon="6.70823">
        <ele>1987</ele>
        <time>2020-09-15T09:49:53Z</time>
      </trkpt>
      <trkpt lat="44.5329" lon="6.70844">
        <ele>1985</ele>
        <time>2020-09-15T09:49:56Z</time>
      </trkpt>
      <trkpt lat="44.53282" lon="6.70861">
        <ele>1983</ele>
        <time>2020-09-15T09:49:58Z</time>
      </trkpt>
      <trkpt lat="44.53241" lon="6.70933">
        <ele>1970</ele>
        <time>2020-09-15T09:50:10Z</time>
      </trkpt>
      <trkpt lat="44.53223" lon="6.7096">
        <ele>1967</ele>
        <time>2020-09-15T09:50:15Z</time>
      </trkpt>
      <trkpt lat="44.53142" lon="6.71038">
        <ele>1944</ele>
        <time>2020-09-15T09:50:32Z</time>
      </trkpt>
      <trkpt lat="44.53122" lon="6.71072">
        <ele>1940</ele>
        <time>2020-09-15T09:50:38Z</time>
      </trkpt>
      <trkpt lat="44.53114" lon="6.71098">
        <ele>1939</ele>
        <time>2020-09-15T09:50:41Z</time>
      </trkpt>
      <trkpt lat="44.53109" lon="6.71138">
        <ele>1938</ele>
        <time>2020-09-15T09:50:47Z</time>
      </trkpt>
      <trkpt lat="44.53113" lon="6.71173">
        <ele>1939</ele>
        <time>2020-09-15T09:50:51Z</time>
      </trkpt>
      <trkpt lat="44.53141" lon="6.71262">
        <ele>1941</ele>
        <time>2020-09-15T09:51:03Z</time>
      </trkpt>
      <trkpt lat="44.5314" lon="6.71279">
        <ele>1941</ele>
        <time>2020-09-15T09:51:06Z</time>
      </trkpt>
      <trkpt lat="44.53136" lon="6.71296">
        <ele>1940</ele>
        <time>2020-09-15T09:51:08Z</time>
      </trkpt>
      <trkpt lat="44.53126" lon="6.71306">
        <ele>1937</ele>
        <time>2020-09-15T09:51:10Z</time>
      </trkpt>
      <trkpt lat="44.53111" lon="6.71308">
        <ele>1933</ele>
        <time>2020-09-15T09:51:13Z</time>
      </trkpt>
      <trkpt lat="44.531" lon="6.71302">
        <ele>1930</ele>
        <time>2020-09-15T09:51:15Z</time>
      </trkpt>
      <trkpt lat="44.53087" lon="6.71288">
        <ele>1926</ele>
        <time>2020-09-15T09:51:18Z</time>
      </trkpt>
      <trkpt lat="44.53058" lon="6.71224">
        <ele>1918</ele>
        <time>2020-09-15T09:51:27Z</time>
      </trkpt>
      <trkpt lat="44.53047" lon="6.71188">
        <ele>1916</ele>
        <time>2020-09-15T09:51:32Z</time>
      </trkpt>
      <trkpt lat="44.53042" lon="6.71157">
        <ele>1915</ele>
        <time>2020-09-15T09:51:36Z</time>
      </trkpt>
      <trkpt lat="44.5304" lon="6.71126">
        <ele>1911</ele>
        <time>2020-09-15T09:51:40Z</time>
      </trkpt>
      <trkpt lat="44.53043" lon="6.71101">
        <ele>1910</ele>
        <time>2020-09-15T09:51:44Z</time>
      </trkpt>
      <trkpt lat="44.53049" lon="6.7108">
        <ele>1911</ele>
        <time>2020-09-15T09:51:46Z</time>
      </trkpt>
      <trkpt lat="44.53078" lon="6.71022">
        <ele>1919</ele>
        <time>2020-09-15T09:51:55Z</time>
      </trkpt>
      <trkpt lat="44.5308" lon="6.71009">
        <ele>1919</ele>
        <time>2020-09-15T09:51:57Z</time>
      </trkpt>
      <trkpt lat="44.53079" lon="6.70997">
        <ele>1917</ele>
        <time>2020-09-15T09:51:59Z</time>
      </trkpt>
      <trkpt lat="44.53073" lon="6.7099">
        <ele>1914</ele>
        <time>2020-09-15T09:52:00Z</time>
      </trkpt>
      <trkpt lat="44.53066" lon="6.70989">
        <ele>1912</ele>
        <time>2020-09-15T09:52:01Z</time>
      </trkpt>
      <trkpt lat="44.53059" lon="6.70991">
        <ele>1909</ele>
        <time>2020-09-15T09:52:02Z</time>
      </trkpt>
      <trkpt lat="44.53037" lon="6.7104">
        <ele>1903</ele>
        <time>2020-09-15T09:52:10Z</time>
      </trkpt>
      <trkpt lat="44.52978" lon="6.7114">
        <ele>1885</ele>
        <time>2020-09-15T09:52:26Z</time>
      </trkpt>
      <trkpt lat="44.52962" lon="6.71179">
        <ele>1881</ele>
        <time>2020-09-15T09:52:32Z</time>
      </trkpt>
      <trkpt lat="44.52953" lon="6.71224">
        <ele>1878</ele>
        <time>2020-09-15T09:52:38Z</time>
      </trkpt>
      <trkpt lat="44.52951" lon="6.71276">
        <ele>1876</ele>
        <time>2020-09-15T09:52:45Z</time>
      </trkpt>
      <trkpt lat="44.52958" lon="6.71332">
        <ele>1876</ele>
        <time>2020-09-15T09:52:52Z</time>
      </trkpt>
      <trkpt lat="44.52959" lon="6.71364">
        <ele>1875</ele>
        <time>2020-09-15T09:52:56Z</time>
      </trkpt>
      <trkpt lat="44.52952" lon="6.71411">
        <ele>1870</ele>
        <time>2020-09-15T09:53:02Z</time>
      </trkpt>
      <trkpt lat="44.52943" lon="6.71517">
        <ele>1865</ele>
        <time>2020-09-15T09:53:15Z</time>
      </trkpt>
      <trkpt lat="44.52934" lon="6.71596">
        <ele>1858</ele>
        <time>2020-09-15T09:53:26Z</time>
      </trkpt>
      <trkpt lat="44.52933" lon="6.71642">
        <ele>1855</ele>
        <time>2020-09-15T09:53:31Z</time>
      </trkpt>
      <trkpt lat="44.52939" lon="6.71686">
        <ele>1854</ele>
        <time>2020-09-15T09:53:37Z</time>
      </trkpt>
      <trkpt lat="44.5294" lon="6.7171">
        <ele>1852</ele>
        <time>2020-09-15T09:53:40Z</time>
      </trkpt>
      <trkpt lat="44.52921" lon="6.71876">
        <ele>1841</ele>
        <time>2020-09-15T09:54:01Z</time>
      </trkpt>
      <trkpt lat="44.52891" lon="6.72101">
        <ele>1822</ele>
        <time>2020-09-15T09:54:31Z</time>
      </trkpt>
      <trkpt lat="44.52887" lon="6.72161">
        <ele>1819</ele>
        <time>2020-09-15T09:54:38Z</time>
      </trkpt>
      <trkpt lat="44.52886" lon="6.72202">
        <ele>1813</ele>
        <time>2020-09-15T09:54:43Z</time>
      </trkpt>
      <trkpt lat="44.52883" lon="6.72216">
        <ele>1810</ele>
        <time>2020-09-15T09:54:45Z</time>
      </trkpt>
      <trkpt lat="44.52878" lon="6.72221">
        <ele>1807</ele>
        <time>2020-09-15T09:54:46Z</time>
      </trkpt>
      <trkpt lat="44.52873" lon="6.72221">
        <ele>1805</ele>
        <time>2020-09-15T09:54:47Z</time>
      </trkpt>
      <trkpt lat="44.52867" lon="6.72219">
        <ele>1803</ele>
        <time>2020-09-15T09:54:48Z</time>
      </trkpt>
      <trkpt lat="44.52864" lon="6.72211">
        <ele>1803</ele>
        <time>2020-09-15T09:54:49Z</time>
      </trkpt>
      <trkpt lat="44.52863" lon="6.72158">
        <ele>1808</ele>
        <time>2020-09-15T09:54:56Z</time>
      </trkpt>
      <trkpt lat="44.52857" lon="6.72104">
        <ele>1805</ele>
        <time>2020-09-15T09:55:03Z</time>
      </trkpt>
      <trkpt lat="44.52832" lon="6.71939">
        <ele>1789</ele>
        <time>2020-09-15T09:55:25Z</time>
      </trkpt>
      <trkpt lat="44.52804" lon="6.71818">
        <ele>1775</ele>
        <time>2020-09-15T09:55:41Z</time>
      </trkpt>
      <trkpt lat="44.52806" lon="6.71782">
        <ele>1776</ele>
        <time>2020-09-15T09:55:45Z</time>
      </trkpt>
      <trkpt lat="44.52806" lon="6.71773">
        <ele>1776</ele>
        <time>2020-09-15T09:55:46Z</time>
      </trkpt>
      <trkpt lat="44.52805" lon="6.71746">
        <ele>1776</ele>
        <time>2020-09-15T09:55:50Z</time>
      </trkpt>
      <trkpt lat="44.52796" lon="6.71722">
        <ele>1775</ele>
        <time>2020-09-15T09:55:53Z</time>
      </trkpt>
      <trkpt lat="44.5278" lon="6.71698">
        <ele>1770</ele>
        <time>2020-09-15T09:55:57Z</time>
      </trkpt>
      <trkpt lat="44.5277" lon="6.7168">
        <ele>1767</ele>
        <time>2020-09-15T09:56:00Z</time>
      </trkpt>
      <trkpt lat="44.52721" lon="6.71554">
        <ele>1756</ele>
        <time>2020-09-15T09:56:19Z</time>
      </trkpt>
      <trkpt lat="44.52716" lon="6.71511">
        <ele>1758</ele>
        <time>2020-09-15T09:56:24Z</time>
      </trkpt>
      <trkpt lat="44.52711" lon="6.71501">
        <ele>1756</ele>
        <time>2020-09-15T09:56:26Z</time>
      </trkpt>
      <trkpt lat="44.52704" lon="6.71498">
        <ele>1753</ele>
        <time>2020-09-15T09:56:27Z</time>
      </trkpt>
      <trkpt lat="44.52697" lon="6.71501">
        <ele>1749</ele>
        <time>2020-09-15T09:56:28Z</time>
      </trkpt>
      <trkpt lat="44.52693" lon="6.71511">
        <ele>1747</ele>
        <time>2020-09-15T09:56:30Z</time>
      </trkpt>
      <trkpt lat="44.52696" lon="6.71552">
        <ele>1744</ele>
        <time>2020-09-15T09:56:35Z</time>
      </trkpt>
      <trkpt lat="44.52696" lon="6.71582">
        <ele>1741</ele>
        <time>2020-09-15T09:56:39Z</time>
      </trkpt>
      <trkpt lat="44.52693" lon="6.71663">
        <ele>1736</ele>
        <time>2020-09-15T09:56:49Z</time>
      </trkpt>
      <trkpt lat="44.52688" lon="6.71712">
        <ele>1728</ele>
        <time>2020-09-15T09:56:55Z</time>
      </trkpt>
      <trkpt lat="44.52689" lon="6.71732">
        <ele>1726</ele>
        <time>2020-09-15T09:56:58Z</time>
      </trkpt>
      <trkpt lat="44.52693" lon="6.71746">
        <ele>1726</ele>
        <time>2020-09-15T09:57:00Z</time>
      </trkpt>
      <trkpt lat="44.52701" lon="6.71758">
        <ele>1728</ele>
        <time>2020-09-15T09:57:02Z</time>
      </trkpt>
      <trkpt lat="44.52712" lon="6.71769">
        <ele>1732</ele>
        <time>2020-09-15T09:57:04Z</time>
      </trkpt>
      <trkpt lat="44.52717" lon="6.71782">
        <ele>1734</ele>
        <time>2020-09-15T09:57:06Z</time>
      </trkpt>
      <trkpt lat="44.52716" lon="6.71793">
        <ele>1733</ele>
        <time>2020-09-15T09:57:07Z</time>
      </trkpt>
      <trkpt lat="44.52712" lon="6.71802">
        <ele>1730</ele>
        <time>2020-09-15T09:57:09Z</time>
      </trkpt>
      <trkpt lat="44.52704" lon="6.71811">
        <ele>1726</ele>
        <time>2020-09-15T09:57:11Z</time>
      </trkpt>
      <trkpt lat="44.52679" lon="6.7183">
        <ele>1714</ele>
        <time>2020-09-15T09:57:16Z</time>
      </trkpt>
      <trkpt lat="44.5267" lon="6.71851">
        <ele>1709</ele>
        <time>2020-09-15T09:57:19Z</time>
      </trkpt>
      <trkpt lat="44.52664" lon="6.71878">
        <ele>1707</ele>
        <time>2020-09-15T09:57:22Z</time>
      </trkpt>
      <trkpt lat="44.52655" lon="6.71935">
        <ele>1705</ele>
        <time>2020-09-15T09:57:30Z</time>
      </trkpt>
      <trkpt lat="44.52646" lon="6.7196">
        <ele>1704</ele>
        <time>2020-09-15T09:57:33Z</time>
      </trkpt>
      <trkpt lat="44.5262" lon="6.72009">
        <ele>1697</ele>
        <time>2020-09-15T09:57:41Z</time>
      </trkpt>
      <trkpt lat="44.52579" lon="6.72145">
        <ele>1688</ele>
        <time>2020-09-15T09:58:00Z</time>
      </trkpt>
      <trkpt lat="44.52572" lon="6.72191">
        <ele>1686</ele>
        <time>2020-09-15T09:58:06Z</time>
      </trkpt>
      <trkpt lat="44.52564" lon="6.72218">
        <ele>1682</ele>
        <time>2020-09-15T09:58:10Z</time>
      </trkpt>
      <trkpt lat="44.52554" lon="6.7224">
        <ele>1678</ele>
        <time>2020-09-15T09:58:13Z</time>
      </trkpt>
      <trkpt lat="44.52548" lon="6.72291">
        <ele>1672</ele>
        <time>2020-09-15T09:58:19Z</time>
      </trkpt>
      <trkpt lat="44.52541" lon="6.72322">
        <ele>1667</ele>
        <time>2020-09-15T09:58:23Z</time>
      </trkpt>
      <trkpt lat="44.52537" lon="6.72353">
        <ele>1664</ele>
        <time>2020-09-15T09:58:27Z</time>
      </trkpt>
      <trkpt lat="44.52536" lon="6.72385">
        <ele>1662</ele>
        <time>2020-09-15T09:58:32Z</time>
      </trkpt>
      <trkpt lat="44.52547" lon="6.72465">
        <ele>1666</ele>
        <time>2020-09-15T09:58:42Z</time>
      </trkpt>
      <trkpt lat="44.52542" lon="6.72493">
        <ele>1664</ele>
        <time>2020-09-15T09:58:46Z</time>
      </trkpt>
      <trkpt lat="44.52545" lon="6.7252">
        <ele>1663</ele>
        <time>2020-09-15T09:58:49Z</time>
      </trkpt>
      <trkpt lat="44.52555" lon="6.72573">
        <ele>1662</ele>
        <time>2020-09-15T09:58:56Z</time>
      </trkpt>
      <trkpt lat="44.52566" lon="6.72591">
        <ele>1664</ele>
        <time>2020-09-15T09:58:59Z</time>
      </trkpt>
      <trkpt lat="44.5258" lon="6.72599">
        <ele>1668</ele>
        <time>2020-09-15T09:59:02Z</time>
      </trkpt>
      <trkpt lat="44.52595" lon="6.72603">
        <ele>1672</ele>
        <time>2020-09-15T09:59:04Z</time>
      </trkpt>
      <trkpt lat="44.52619" lon="6.72601">
        <ele>1680</ele>
        <time>2020-09-15T09:59:09Z</time>
      </trkpt>
      <trkpt lat="44.52629" lon="6.72606">
        <ele>1683</ele>
        <time>2020-09-15T09:59:11Z</time>
      </trkpt>
      <trkpt lat="44.52634" lon="6.72615">
        <ele>1684</ele>
        <time>2020-09-15T09:59:12Z</time>
      </trkpt>
      <trkpt lat="44.52635" lon="6.72628">
        <ele>1685</ele>
        <time>2020-09-15T09:59:14Z</time>
      </trkpt>
      <trkpt lat="44.52631" lon="6.72638">
        <ele>1683</ele>
        <time>2020-09-15T09:59:15Z</time>
      </trkpt>
      <trkpt lat="44.52624" lon="6.72651">
        <ele>1680</ele>
        <time>2020-09-15T09:59:17Z</time>
      </trkpt>
      <trkpt lat="44.52614" lon="6.72665">
        <ele>1675</ele>
        <time>2020-09-15T09:59:20Z</time>
      </trkpt>
      <trkpt lat="44.52604" lon="6.72676">
        <ele>1672</ele>
        <time>2020-09-15T09:59:22Z</time>
      </trkpt>
      <trkpt lat="44.52581" lon="6.72682">
        <ele>1664</ele>
        <time>2020-09-15T09:59:26Z</time>
      </trkpt>
      <trkpt lat="44.5256" lon="6.72685">
        <ele>1659</ele>
        <time>2020-09-15T09:59:30Z</time>
      </trkpt>
      <trkpt lat="44.52547" lon="6.72693">
        <ele>1656</ele>
        <time>2020-09-15T09:59:32Z</time>
      </trkpt>
      <trkpt lat="44.52538" lon="6.72712">
        <ele>1657</ele>
        <time>2020-09-15T09:59:35Z</time>
      </trkpt>
      <trkpt lat="44.52531" lon="6.72777">
        <ele>1664</ele>
        <time>2020-09-15T09:59:44Z</time>
      </trkpt>
      <trkpt lat="44.52527" lon="6.72799">
        <ele>1663</ele>
        <time>2020-09-15T09:59:47Z</time>
      </trkpt>
      <trkpt lat="44.5251" lon="6.72843">
        <ele>1659</ele>
        <time>2020-09-15T09:59:53Z</time>
      </trkpt>
      <trkpt lat="44.52504" lon="6.72868">
        <ele>1658</ele>
        <time>2020-09-15T09:59:56Z</time>
      </trkpt>
      <trkpt lat="44.52507" lon="6.73022">
        <ele>1662</ele>
        <time>2020-09-15T10:00:16Z</time>
      </trkpt>
      <trkpt lat="44.52503" lon="6.73065">
        <ele>1658</ele>
        <time>2020-09-15T10:00:21Z</time>
      </trkpt>
      <trkpt lat="44.52493" lon="6.73135">
        <ele>1652</ele>
        <time>2020-09-15T10:00:30Z</time>
      </trkpt>
      <trkpt lat="44.5249" lon="6.73196">
        <ele>1655</ele>
        <time>2020-09-15T10:00:38Z</time>
      </trkpt>
      <trkpt lat="44.52486" lon="6.73214">
        <ele>1657</ele>
        <time>2020-09-15T10:00:40Z</time>
      </trkpt>
      <trkpt lat="44.52477" lon="6.73227">
        <ele>1657</ele>
        <time>2020-09-15T10:00:43Z</time>
      </trkpt>
      <trkpt lat="44.52466" lon="6.73236">
        <ele>1656</ele>
        <time>2020-09-15T10:00:45Z</time>
      </trkpt>
      <trkpt lat="44.52441" lon="6.73244">
        <ele>1652</ele>
        <time>2020-09-15T10:00:50Z</time>
      </trkpt>
      <trkpt lat="44.52411" lon="6.73258">
        <ele>1647</ele>
        <time>2020-09-15T10:00:55Z</time>
      </trkpt>
      <trkpt lat="44.5238" lon="6.73282">
        <ele>1643</ele>
        <time>2020-09-15T10:01:02Z</time>
      </trkpt>
      <trkpt lat="44.52357" lon="6.73316">
        <ele>1642</ele>
        <time>2020-09-15T10:01:07Z</time>
      </trkpt>
      <trkpt lat="44.52342" lon="6.7335">
        <ele>1641</ele>
        <time>2020-09-15T10:01:13Z</time>
      </trkpt>
      <trkpt lat="44.52334" lon="6.73376">
        <ele>1639</ele>
        <time>2020-09-15T10:01:16Z</time>
      </trkpt>
      <trkpt lat="44.52331" lon="6.73384">
        <ele>1638</ele>
        <time>2020-09-15T10:01:17Z</time>
      </trkpt>
      <trkpt lat="44.52325" lon="6.73424">
        <ele>1637</ele>
        <time>2020-09-15T10:01:22Z</time>
      </trkpt>
      <trkpt lat="44.52329" lon="6.73463">
        <ele>1638</ele>
        <time>2020-09-15T10:01:27Z</time>
      </trkpt>
      <trkpt lat="44.52339" lon="6.73505">
        <ele>1642</ele>
        <time>2020-09-15T10:01:33Z</time>
      </trkpt>
      <trkpt lat="44.52337" lon="6.7354">
        <ele>1641</ele>
        <time>2020-09-15T10:01:38Z</time>
      </trkpt>
      <trkpt lat="44.52317" lon="6.73615">
        <ele>1631</ele>
        <time>2020-09-15T10:01:48Z</time>
      </trkpt>
      <trkpt lat="44.52296" lon="6.73717">
        <ele>1621</ele>
        <time>2020-09-15T10:02:01Z</time>
      </trkpt>
      <trkpt lat="44.52296" lon="6.73754">
        <ele>1622</ele>
        <time>2020-09-15T10:02:06Z</time>
      </trkpt>
      <trkpt lat="44.52301" lon="6.73785">
        <ele>1622</ele>
        <time>2020-09-15T10:02:10Z</time>
      </trkpt>
      <trkpt lat="44.52311" lon="6.73818">
        <ele>1623</ele>
        <time>2020-09-15T10:02:14Z</time>
      </trkpt>
      <trkpt lat="44.52314" lon="6.73847">
        <ele>1623</ele>
        <time>2020-09-15T10:02:18Z</time>
      </trkpt>
      <trkpt lat="44.52312" lon="6.73874">
        <ele>1624</ele>
        <time>2020-09-15T10:02:22Z</time>
      </trkpt>
      <trkpt lat="44.52302" lon="6.739">
        <ele>1622</ele>
        <time>2020-09-15T10:02:25Z</time>
      </trkpt>
      <trkpt lat="44.52288" lon="6.73921">
        <ele>1618</ele>
        <time>2020-09-15T10:02:29Z</time>
      </trkpt>
      <trkpt lat="44.52269" lon="6.73936">
        <ele>1613</ele>
        <time>2020-09-15T10:02:33Z</time>
      </trkpt>
      <trkpt lat="44.52213" lon="6.73949">
        <ele>1599</ele>
        <time>2020-09-15T10:02:43Z</time>
      </trkpt>
      <trkpt lat="44.52196" lon="6.73963">
        <ele>1596</ele>
        <time>2020-09-15T10:02:46Z</time>
      </trkpt>
      <trkpt lat="44.52184" lon="6.7398">
        <ele>1594</ele>
        <time>2020-09-15T10:02:49Z</time>
      </trkpt>
      <trkpt lat="44.52164" lon="6.74024">
        <ele>1592</ele>
        <time>2020-09-15T10:02:56Z</time>
      </trkpt>
      <trkpt lat="44.52151" lon="6.74046">
        <ele>1593</ele>
        <time>2020-09-15T10:03:00Z</time>
      </trkpt>
      <trkpt lat="44.52135" lon="6.7406">
        <ele>1594</ele>
        <time>2020-09-15T10:03:03Z</time>
      </trkpt>
      <trkpt lat="44.52122" lon="6.74062">
        <ele>1593</ele>
        <time>2020-09-15T10:03:05Z</time>
      </trkpt>
      <trkpt lat="44.52109" lon="6.7406">
        <ele>1592</ele>
        <time>2020-09-15T10:03:08Z</time>
      </trkpt>
      <trkpt lat="44.52054" lon="6.74048">
        <ele>1584</ele>
        <time>2020-09-15T10:03:18Z</time>
      </trkpt>
      <trkpt lat="44.52042" lon="6.74048">
        <ele>1582</ele>
        <time>2020-09-15T10:03:20Z</time>
      </trkpt>
      <trkpt lat="44.52031" lon="6.74055">
        <ele>1582</ele>
        <time>2020-09-15T10:03:22Z</time>
      </trkpt>
      <trkpt lat="44.52015" lon="6.74078">
        <ele>1584</ele>
        <time>2020-09-15T10:03:26Z</time>
      </trkpt>
      <trkpt lat="44.52009" lon="6.74095">
        <ele>1583</ele>
        <time>2020-09-15T10:03:28Z</time>
      </trkpt>
      <trkpt lat="44.52007" lon="6.74119">
        <ele>1582</ele>
        <time>2020-09-15T10:03:31Z</time>
      </trkpt>
      <trkpt lat="44.52033" lon="6.74245">
        <ele>1585</ele>
        <time>2020-09-15T10:03:48Z</time>
      </trkpt>
      <trkpt lat="44.52036" lon="6.74275">
        <ele>1586</ele>
        <time>2020-09-15T10:03:52Z</time>
      </trkpt>
      <trkpt lat="44.52034" lon="6.74309">
        <ele>1586</ele>
        <time>2020-09-15T10:03:56Z</time>
      </trkpt>
      <trkpt lat="44.52027" lon="6.7434">
        <ele>1584</ele>
        <time>2020-09-15T10:04:00Z</time>
      </trkpt>
      <trkpt lat="44.52014" lon="6.74372">
        <ele>1583</ele>
        <time>2020-09-15T10:04:05Z</time>
      </trkpt>
      <trkpt lat="44.51996" lon="6.74398">
        <ele>1579</ele>
        <time>2020-09-15T10:04:10Z</time>
      </trkpt>
      <trkpt lat="44.51854" lon="6.74528">
        <ele>1558</ele>
        <time>2020-09-15T10:04:40Z</time>
      </trkpt>
      <trkpt lat="44.51822" lon="6.74559">
        <ele>1552</ele>
        <time>2020-09-15T10:04:47Z</time>
      </trkpt>
      <trkpt lat="44.51761" lon="6.74668">
        <ele>1542</ele>
        <time>2020-09-15T10:05:04Z</time>
      </trkpt>
      <trkpt lat="44.5173" lon="6.74734">
        <ele>1535</ele>
        <time>2020-09-15T10:05:14Z</time>
      </trkpt>
      <trkpt lat="44.51719" lon="6.74773">
        <ele>1531</ele>
        <time>2020-09-15T10:05:20Z</time>
      </trkpt>
      <trkpt lat="44.51712" lon="6.74821">
        <ele>1526</ele>
        <time>2020-09-15T10:05:26Z</time>
      </trkpt>
      <trkpt lat="44.51708" lon="6.74863">
        <ele>1523</ele>
        <time>2020-09-15T10:05:31Z</time>
      </trkpt>
      <trkpt lat="44.51711" lon="6.74903">
        <ele>1522</ele>
        <time>2020-09-15T10:05:36Z</time>
      </trkpt>
      <trkpt lat="44.51719" lon="6.74943">
        <ele>1521</ele>
        <time>2020-09-15T10:05:42Z</time>
      </trkpt>
      <trkpt lat="44.51735" lon="6.74995">
        <ele>1520</ele>
        <time>2020-09-15T10:05:49Z</time>
      </trkpt>
      <trkpt lat="44.51782" lon="6.75111">
        <ele>1516</ele>
        <time>2020-09-15T10:06:06Z</time>
      </trkpt>
      <trkpt lat="44.51798" lon="6.75151">
        <ele>1515</ele>
        <time>2020-09-15T10:06:12Z</time>
      </trkpt>
      <trkpt lat="44.51803" lon="6.75174">
        <ele>1513</ele>
        <time>2020-09-15T10:06:15Z</time>
      </trkpt>
      <trkpt lat="44.51805" lon="6.75204">
        <ele>1512</ele>
        <time>2020-09-15T10:06:18Z</time>
      </trkpt>
      <trkpt lat="44.51804" lon="6.75237">
        <ele>1509</ele>
        <time>2020-09-15T10:06:23Z</time>
      </trkpt>
      <trkpt lat="44.51798" lon="6.75262">
        <ele>1506</ele>
        <time>2020-09-15T10:06:26Z</time>
      </trkpt>
      <trkpt lat="44.5179" lon="6.75273">
        <ele>1503</ele>
        <time>2020-09-15T10:06:28Z</time>
      </trkpt>
      <trkpt lat="44.51781" lon="6.75277">
        <ele>1500</ele>
        <time>2020-09-15T10:06:30Z</time>
      </trkpt>
      <trkpt lat="44.51771" lon="6.75273">
        <ele>1498</ele>
        <time>2020-09-15T10:06:32Z</time>
      </trkpt>
      <trkpt lat="44.51762" lon="6.75256">
        <ele>1497</ele>
        <time>2020-09-15T10:06:34Z</time>
      </trkpt>
      <trkpt lat="44.5176" lon="6.75193">
        <ele>1500</ele>
        <time>2020-09-15T10:06:42Z</time>
      </trkpt>
      <trkpt lat="44.51753" lon="6.7516">
        <ele>1501</ele>
        <time>2020-09-15T10:06:47Z</time>
      </trkpt>
      <trkpt lat="44.51739" lon="6.75137">
        <ele>1501</ele>
        <time>2020-09-15T10:06:50Z</time>
      </trkpt>
      <trkpt lat="44.51723" lon="6.75118">
        <ele>1499</ele>
        <time>2020-09-15T10:06:54Z</time>
      </trkpt>
      <trkpt lat="44.51701" lon="6.75106">
        <ele>1496</ele>
        <time>2020-09-15T10:06:58Z</time>
      </trkpt>
      <trkpt lat="44.51655" lon="6.75095">
        <ele>1488</ele>
        <time>2020-09-15T10:07:07Z</time>
      </trkpt>
      <trkpt lat="44.516" lon="6.75081">
        <ele>1484</ele>
        <time>2020-09-15T10:07:17Z</time>
      </trkpt>
      <trkpt lat="44.51575" lon="6.75066">
        <ele>1483</ele>
        <time>2020-09-15T10:07:21Z</time>
      </trkpt>
      <trkpt lat="44.51562" lon="6.75056">
        <ele>1482</ele>
        <time>2020-09-15T10:07:24Z</time>
      </trkpt>
      <trkpt lat="44.51536" lon="6.75032">
        <ele>1481</ele>
        <time>2020-09-15T10:07:30Z</time>
      </trkpt>
      <trkpt lat="44.51517" lon="6.75003">
        <ele>1479</ele>
        <time>2020-09-15T10:07:35Z</time>
      </trkpt>
      <trkpt lat="44.51482" lon="6.74931">
        <ele>1472</ele>
        <time>2020-09-15T10:07:46Z</time>
      </trkpt>
      <trkpt lat="44.51458" lon="6.74869">
        <ele>1467</ele>
        <time>2020-09-15T10:07:55Z</time>
      </trkpt>
      <trkpt lat="44.51456" lon="6.74846">
        <ele>1466</ele>
        <time>2020-09-15T10:07:58Z</time>
      </trkpt>
      <trkpt lat="44.51457" lon="6.74815">
        <ele>1465</ele>
        <time>2020-09-15T10:08:02Z</time>
      </trkpt>
      <trkpt lat="44.51472" lon="6.74682">
        <ele>1461</ele>
        <time>2020-09-15T10:08:19Z</time>
      </trkpt>
      <trkpt lat="44.51481" lon="6.74655">
        <ele>1461</ele>
        <time>2020-09-15T10:08:22Z</time>
      </trkpt>
      <trkpt lat="44.51516" lon="6.74596">
        <ele>1466</ele>
        <time>2020-09-15T10:08:32Z</time>
      </trkpt>
      <trkpt lat="44.5153" lon="6.74563">
        <ele>1469</ele>
        <time>2020-09-15T10:08:37Z</time>
      </trkpt>
      <trkpt lat="44.5155" lon="6.74489">
        <ele>1469</ele>
        <time>2020-09-15T10:08:47Z</time>
      </trkpt>
      <trkpt lat="44.51561" lon="6.7446">
        <ele>1471</ele>
        <time>2020-09-15T10:08:51Z</time>
      </trkpt>
      <trkpt lat="44.51564" lon="6.74444">
        <ele>1470</ele>
        <time>2020-09-15T10:08:53Z</time>
      </trkpt>
      <trkpt lat="44.51553" lon="6.74413">
        <ele>1469</ele>
        <time>2020-09-15T10:08:58Z</time>
      </trkpt>
      <trkpt lat="44.51536" lon="6.74405">
        <ele>1471</ele>
        <time>2020-09-15T10:09:01Z</time>
      </trkpt>
      <trkpt lat="44.51506" lon="6.74404">
        <ele>1471</ele>
        <time>2020-09-15T10:09:06Z</time>
      </trkpt>
      <trkpt lat="44.51211" lon="6.74429">
        <ele>1459</ele>
        <time>2020-09-15T10:09:59Z</time>
      </trkpt>
      <trkpt lat="44.51162" lon="6.74419">
        <ele>1459</ele>
        <time>2020-09-15T10:10:08Z</time>
      </trkpt>
      <trkpt lat="44.51141" lon="6.74421">
        <ele>1457</ele>
        <time>2020-09-15T10:10:11Z</time>
      </trkpt>
      <trkpt lat="44.51096" lon="6.74447">
        <ele>1449</ele>
        <time>2020-09-15T10:10:20Z</time>
      </trkpt>
      <trkpt lat="44.51049" lon="6.74514">
        <ele>1442</ele>
        <time>2020-09-15T10:10:32Z</time>
      </trkpt>
      <trkpt lat="44.51031" lon="6.74584">
        <ele>1435</ele>
        <time>2020-09-15T10:10:41Z</time>
      </trkpt>
      <trkpt lat="44.51019" lon="6.74643">
        <ele>1427</ele>
        <time>2020-09-15T10:10:49Z</time>
      </trkpt>
      <trkpt lat="44.51002" lon="6.7466">
        <ele>1423</ele>
        <time>2020-09-15T10:10:53Z</time>
      </trkpt>
      <trkpt lat="44.50983" lon="6.74666">
        <ele>1421</ele>
        <time>2020-09-15T10:10:56Z</time>
      </trkpt>
      <trkpt lat="44.50962" lon="6.74665">
        <ele>1420</ele>
        <time>2020-09-15T10:11:00Z</time>
      </trkpt>
      <trkpt lat="44.50909" lon="6.74643">
        <ele>1422</ele>
        <time>2020-09-15T10:11:10Z</time>
      </trkpt>
      <trkpt lat="44.50681" lon="6.74559">
        <ele>1447</ele>
        <time>2020-09-15T10:11:52Z</time>
      </trkpt>
      <trkpt lat="44.50596" lon="6.74531">
        <ele>1433</ele>
        <time>2020-09-15T10:12:07Z</time>
      </trkpt>
      <trkpt lat="44.5052" lon="6.74502">
        <ele>1408</ele>
        <time>2020-09-15T10:12:21Z</time>
      </trkpt>
      <trkpt lat="44.50507" lon="6.74497">
        <ele>1406</ele>
        <time>2020-09-15T10:12:24Z</time>
      </trkpt>
      <trkpt lat="44.50481" lon="6.74475">
        <ele>1420</ele>
        <time>2020-09-15T10:12:29Z</time>
      </trkpt>
      <trkpt lat="44.50453" lon="6.74383">
        <ele>1450</ele>
        <time>2020-09-15T10:12:42Z</time>
      </trkpt>
      <trkpt lat="44.50433" lon="6.74352">
        <ele>1454</ele>
        <time>2020-09-15T10:12:47Z</time>
      </trkpt>
      <trkpt lat="44.50387" lon="6.74336">
        <ele>1440</ele>
        <time>2020-09-15T10:12:56Z</time>
      </trkpt>
      <trkpt lat="44.50321" lon="6.74304">
        <ele>1416</ele>
        <time>2020-09-15T10:13:08Z</time>
      </trkpt>
      <trkpt lat="44.50299" lon="6.74277">
        <ele>1414</ele>
        <time>2020-09-15T10:13:13Z</time>
      </trkpt>
      <trkpt lat="44.50278" lon="6.74155">
        <ele>1395</ele>
        <time>2020-09-15T10:13:29Z</time>
      </trkpt>
      <trkpt lat="44.50266" lon="6.74116">
        <ele>1390</ele>
        <time>2020-09-15T10:13:35Z</time>
      </trkpt>
      <trkpt lat="44.50248" lon="6.74085">
        <ele>1384</ele>
        <time>2020-09-15T10:13:40Z</time>
      </trkpt>
      <trkpt lat="44.50226" lon="6.74067">
        <ele>1388</ele>
        <time>2020-09-15T10:13:44Z</time>
      </trkpt>
      <trkpt lat="44.502" lon="6.74057">
        <ele>1390</ele>
        <time>2020-09-15T10:13:49Z</time>
      </trkpt>
      <trkpt lat="44.50158" lon="6.7406">
        <ele>1389</ele>
        <time>2020-09-15T10:13:56Z</time>
      </trkpt>
      <trkpt lat="44.50114" lon="6.74058">
        <ele>1388</ele>
        <time>2020-09-15T10:14:04Z</time>
      </trkpt>
      <trkpt lat="44.50085" lon="6.74049">
        <ele>1388</ele>
        <time>2020-09-15T10:14:10Z</time>
      </trkpt>
      <trkpt lat="44.50056" lon="6.74032">
        <ele>1387</ele>
        <time>2020-09-15T10:14:15Z</time>
      </trkpt>
      <trkpt lat="44.49975" lon="6.73964">
        <ele>1389</ele>
        <time>2020-09-15T10:14:32Z</time>
      </trkpt>
      <trkpt lat="44.49938" lon="6.73942">
        <ele>1390</ele>
        <time>2020-09-15T10:14:39Z</time>
      </trkpt>
      <trkpt lat="44.49913" lon="6.73932">
        <ele>1388</ele>
        <time>2020-09-15T10:14:44Z</time>
      </trkpt>
      <trkpt lat="44.49839" lon="6.73915">
        <ele>1390</ele>
        <time>2020-09-15T10:14:57Z</time>
      </trkpt>
      <trkpt lat="44.49809" lon="6.73925">
        <ele>1387</ele>
        <time>2020-09-15T10:15:03Z</time>
      </trkpt>
      <trkpt lat="44.49722" lon="6.73979">
        <ele>1381</ele>
        <time>2020-09-15T10:15:20Z</time>
      </trkpt>
      <trkpt lat="44.49635" lon="6.74052">
        <ele>1375</ele>
        <time>2020-09-15T10:15:38Z</time>
      </trkpt>
      <trkpt lat="44.49595" lon="6.74077">
        <ele>1373</ele>
        <time>2020-09-15T10:15:45Z</time>
      </trkpt>
      <trkpt lat="44.49495" lon="6.74107">
        <ele>1372</ele>
        <time>2020-09-15T10:16:04Z</time>
      </trkpt>
      <trkpt lat="44.49469" lon="6.74115">
        <ele>1371</ele>
        <time>2020-09-15T10:16:08Z</time>
      </trkpt>
      <trkpt lat="44.49432" lon="6.74126">
        <ele>1370</ele>
        <time>2020-09-15T10:16:15Z</time>
      </trkpt>
      <trkpt lat="44.49369" lon="6.74151">
        <ele>1368</ele>
        <time>2020-09-15T10:16:27Z</time>
      </trkpt>
      <trkpt lat="44.49308" lon="6.74191">
        <ele>1366</ele>
        <time>2020-09-15T10:16:39Z</time>
      </trkpt>
      <trkpt lat="44.49279" lon="6.74205">
        <ele>1366</ele>
        <time>2020-09-15T10:16:44Z</time>
      </trkpt>
      <trkpt lat="44.49156" lon="6.74211">
        <ele>1365</ele>
        <time>2020-09-15T10:17:06Z</time>
      </trkpt>
      <trkpt lat="44.49131" lon="6.74216">
        <ele>1366</ele>
        <time>2020-09-15T10:17:10Z</time>
      </trkpt>
      <trkpt lat="44.49108" lon="6.74235">
        <ele>1364</ele>
        <time>2020-09-15T10:17:15Z</time>
      </trkpt>
      <trkpt lat="44.4907" lon="6.7428">
        <ele>1358</ele>
        <time>2020-09-15T10:17:24Z</time>
      </trkpt>
      <trkpt lat="44.49042" lon="6.74305">
        <ele>1355</ele>
        <time>2020-09-15T10:17:30Z</time>
      </trkpt>
      <trkpt lat="44.49001" lon="6.7432">
        <ele>1354</ele>
        <time>2020-09-15T10:17:38Z</time>
      </trkpt>
      <trkpt lat="44.48963" lon="6.74331">
        <ele>1358</ele>
        <time>2020-09-15T10:17:44Z</time>
      </trkpt>
      <trkpt lat="44.48936" lon="6.74351">
        <ele>1359</ele>
        <time>2020-09-15T10:17:50Z</time>
      </trkpt>
      <trkpt lat="44.48909" lon="6.74388">
        <ele>1358</ele>
        <time>2020-09-15T10:17:57Z</time>
      </trkpt>
      <trkpt lat="44.48876" lon="6.74454">
        <ele>1358</ele>
        <time>2020-09-15T10:18:07Z</time>
      </trkpt>
      <trkpt lat="44.4885" lon="6.74491">
        <ele>1356</ele>
        <time>2020-09-15T10:18:13Z</time>
      </trkpt>
      <trkpt lat="44.4881" lon="6.74538">
        <ele>1354</ele>
        <time>2020-09-15T10:18:23Z</time>
      </trkpt>
      <trkpt lat="44.48724" lon="6.74592">
        <ele>1352</ele>
        <time>2020-09-15T10:18:39Z</time>
      </trkpt>
      <trkpt lat="44.48691" lon="6.74621">
        <ele>1352</ele>
        <time>2020-09-15T10:18:46Z</time>
      </trkpt>
      <trkpt lat="44.48614" lon="6.74736">
        <ele>1341</ele>
        <time>2020-09-15T10:19:06Z</time>
      </trkpt>
      <trkpt lat="44.48596" lon="6.74749">
        <ele>1339</ele>
        <time>2020-09-15T10:19:10Z</time>
      </trkpt>
      <trkpt lat="44.48524" lon="6.7478">
        <ele>1347</ele>
        <time>2020-09-15T10:19:23Z</time>
      </trkpt>
      <trkpt lat="44.4847" lon="6.74817">
        <ele>1348</ele>
        <time>2020-09-15T10:19:34Z</time>
      </trkpt>
      <trkpt lat="44.4841" lon="6.74874">
        <ele>1345</ele>
        <time>2020-09-15T10:19:47Z</time>
      </trkpt>
      <trkpt lat="44.48342" lon="6.7497">
        <ele>1334</ele>
        <time>2020-09-15T10:20:04Z</time>
      </trkpt>
      <trkpt lat="44.4818" lon="6.75145">
        <ele>1338</ele>
        <time>2020-09-15T10:20:41Z</time>
      </trkpt>
      <trkpt lat="44.48072" lon="6.75309">
        <ele>1335</ele>
        <time>2020-09-15T10:21:09Z</time>
      </trkpt>
      <trkpt lat="44.48056" lon="6.75349">
        <ele>1332</ele>
        <time>2020-09-15T10:21:15Z</time>
      </trkpt>
      <trkpt lat="44.48047" lon="6.7539">
        <ele>1327</ele>
        <time>2020-09-15T10:21:20Z</time>
      </trkpt>
      <trkpt lat="44.48023" lon="6.75498">
        <ele>1320</ele>
        <time>2020-09-15T10:21:35Z</time>
      </trkpt>
      <trkpt lat="44.48" lon="6.75555">
        <ele>1323</ele>
        <time>2020-09-15T10:21:43Z</time>
      </trkpt>
      <trkpt lat="44.47972" lon="6.756">
        <ele>1325</ele>
        <time>2020-09-15T10:21:50Z</time>
      </trkpt>
      <trkpt lat="44.47942" lon="6.75642">
        <ele>1324</ele>
        <time>2020-09-15T10:21:58Z</time>
      </trkpt>
      <trkpt lat="44.47889" lon="6.75692">
        <ele>1321</ele>
        <time>2020-09-15T10:22:09Z</time>
      </trkpt>
      <trkpt lat="44.47842" lon="6.75742">
        <ele>1316</ele>
        <time>2020-09-15T10:22:20Z</time>
      </trkpt>
      <trkpt lat="44.47811" lon="6.75784">
        <ele>1315</ele>
        <time>2020-09-15T10:22:28Z</time>
      </trkpt>
      <trkpt lat="44.47783" lon="6.75832">
        <ele>1312</ele>
        <time>2020-09-15T10:22:35Z</time>
      </trkpt>
      <trkpt lat="44.47712" lon="6.75983">
        <ele>1311</ele>
        <time>2020-09-15T10:22:58Z</time>
      </trkpt>
      <trkpt lat="44.47705" lon="6.76">
        <ele>1311</ele>
        <time>2020-09-15T10:23:01Z</time>
      </trkpt>
      <trkpt lat="44.47689" lon="6.76026">
        <ele>1310</ele>
        <time>2020-09-15T10:23:05Z</time>
      </trkpt>
      <trkpt lat="44.47675" lon="6.76044">
        <ele>1309</ele>
        <time>2020-09-15T10:23:09Z</time>
      </trkpt>
      <trkpt lat="44.47653" lon="6.76063">
        <ele>1309</ele>
        <time>2020-09-15T10:23:13Z</time>
      </trkpt>
      <trkpt lat="44.47599" lon="6.76093">
        <ele>1311</ele>
        <time>2020-09-15T10:23:24Z</time>
      </trkpt>
      <trkpt lat="44.47571" lon="6.76109">
        <ele>1311</ele>
        <time>2020-09-15T10:23:29Z</time>
      </trkpt>
      <trkpt lat="44.47475" lon="6.76164">
        <ele>1309</ele>
        <time>2020-09-15T10:23:47Z</time>
      </trkpt>
      <trkpt lat="44.47284" lon="6.76275">
        <ele>1308</ele>
        <time>2020-09-15T10:24:24Z</time>
      </trkpt>
      <trkpt lat="44.47267" lon="6.76285">
        <ele>1308</ele>
        <time>2020-09-15T10:24:27Z</time>
      </trkpt>
      <trkpt lat="44.47241" lon="6.76309">
        <ele>1308</ele>
        <time>2020-09-15T10:24:33Z</time>
      </trkpt>
      <trkpt lat="44.47234" lon="6.76315">
        <ele>1308</ele>
        <time>2020-09-15T10:24:34Z</time>
      </trkpt>
      <trkpt lat="44.47225" lon="6.76317">
        <ele>1308</ele>
        <time>2020-09-15T10:24:36Z</time>
      </trkpt>
      <trkpt lat="44.47213" lon="6.76322">
        <ele>1307</ele>
        <time>2020-09-15T10:24:38Z</time>
      </trkpt>
      <trkpt lat="44.47194" lon="6.76335">
        <ele>1307</ele>
        <time>2020-09-15T10:24:42Z</time>
      </trkpt>
      <trkpt lat="44.47158" lon="6.76362">
        <ele>1307</ele>
        <time>2020-09-15T10:24:49Z</time>
      </trkpt>
      <trkpt lat="44.4714" lon="6.76371">
        <ele>1308</ele>
        <time>2020-09-15T10:24:53Z</time>
      </trkpt>
      <trkpt lat="44.47124" lon="6.76376">
        <ele>1310</ele>
        <time>2020-09-15T10:24:56Z</time>
      </trkpt>
      <trkpt lat="44.47101" lon="6.76376">
        <ele>1311</ele>
        <time>2020-09-15T10:25:00Z</time>
      </trkpt>
      <trkpt lat="44.47084" lon="6.76369">
        <ele>1311</ele>
        <time>2020-09-15T10:25:03Z</time>
      </trkpt>
      <trkpt lat="44.4704" lon="6.76334">
        <ele>1308</ele>
        <time>2020-09-15T10:25:12Z</time>
      </trkpt>
      <trkpt lat="44.46942" lon="6.76281">
        <ele>1308</ele>
        <time>2020-09-15T10:25:31Z</time>
      </trkpt>
      <trkpt lat="44.46766" lon="6.76194">
        <ele>1305</ele>
        <time>2020-09-15T10:26:04Z</time>
      </trkpt>
      <trkpt lat="44.4674" lon="6.76168">
        <ele>1302</ele>
        <time>2020-09-15T10:26:09Z</time>
      </trkpt>
      <trkpt lat="44.46715" lon="6.76129">
        <ele>1304</ele>
        <time>2020-09-15T10:26:16Z</time>
      </trkpt>
      <trkpt lat="44.46499" lon="6.75708">
        <ele>1298</ele>
        <time>2020-09-15T10:27:22Z</time>
      </trkpt>
      <trkpt lat="44.46491" lon="6.75649">
        <ele>1293</ele>
        <time>2020-09-15T10:27:30Z</time>
      </trkpt>
      <trkpt lat="44.46499" lon="6.75592">
        <ele>1288</ele>
        <time>2020-09-15T10:27:37Z</time>
      </trkpt>
      <trkpt lat="44.46509" lon="6.75521">
        <ele>1288</ele>
        <time>2020-09-15T10:27:46Z</time>
      </trkpt>
      <trkpt lat="44.46524" lon="6.75404">
        <ele>1293</ele>
        <time>2020-09-15T10:28:01Z</time>
      </trkpt>
      <trkpt lat="44.46527" lon="6.75354">
        <ele>1297</ele>
        <time>2020-09-15T10:28:08Z</time>
      </trkpt>
      <trkpt lat="44.46524" lon="6.75325">
        <ele>1299</ele>
        <time>2020-09-15T10:28:11Z</time>
      </trkpt>
      <trkpt lat="44.46513" lon="6.75293">
        <ele>1301</ele>
        <time>2020-09-15T10:28:16Z</time>
      </trkpt>
      <trkpt lat="44.46488" lon="6.75236">
        <ele>1304</ele>
        <time>2020-09-15T10:28:24Z</time>
      </trkpt>
      <trkpt lat="44.46451" lon="6.75181">
        <ele>1306</ele>
        <time>2020-09-15T10:28:34Z</time>
      </trkpt>
      <trkpt lat="44.4636" lon="6.75066">
        <ele>1309</ele>
        <time>2020-09-15T10:28:56Z</time>
      </trkpt>
      <trkpt lat="44.46331" lon="6.75042">
        <ele>1305</ele>
        <time>2020-09-15T10:29:02Z</time>
      </trkpt>
      <trkpt lat="44.46301" lon="6.75024">
        <ele>1303</ele>
        <time>2020-09-15T10:29:08Z</time>
      </trkpt>
      <trkpt lat="44.46255" lon="6.75008">
        <ele>1295</ele>
        <time>2020-09-15T10:29:16Z</time>
      </trkpt>
      <trkpt lat="44.46236" lon="6.74996">
        <ele>1294</ele>
        <time>2020-09-15T10:29:20Z</time>
      </trkpt>
      <trkpt lat="44.46193" lon="6.74941">
        <ele>1295</ele>
        <time>2020-09-15T10:29:30Z</time>
      </trkpt>
      <trkpt lat="44.46099" lon="6.74803">
        <ele>1296</ele>
        <time>2020-09-15T10:29:54Z</time>
      </trkpt>
      <trkpt lat="44.4606" lon="6.74752">
        <ele>1294</ele>
        <time>2020-09-15T10:30:04Z</time>
      </trkpt>
      <trkpt lat="44.46039" lon="6.74733">
        <ele>1294</ele>
        <time>2020-09-15T10:30:08Z</time>
      </trkpt>
      <trkpt lat="44.46016" lon="6.74714">
        <ele>1293</ele>
        <time>2020-09-15T10:30:13Z</time>
      </trkpt>
      <trkpt lat="44.45981" lon="6.74691">
        <ele>1295</ele>
        <time>2020-09-15T10:30:20Z</time>
      </trkpt>
      <trkpt lat="44.45961" lon="6.74682">
        <ele>1296</ele>
        <time>2020-09-15T10:30:24Z</time>
      </trkpt>
      <trkpt lat="44.45916" lon="6.74673">
        <ele>1295</ele>
        <time>2020-09-15T10:30:32Z</time>
      </trkpt>
      <trkpt lat="44.45861" lon="6.74669">
        <ele>1288</ele>
        <time>2020-09-15T10:30:41Z</time>
      </trkpt>
      <trkpt lat="44.45849" lon="6.74663">
        <ele>1287</ele>
        <time>2020-09-15T10:30:44Z</time>
      </trkpt>
      <trkpt lat="44.45833" lon="6.74648">
        <ele>1286</ele>
        <time>2020-09-15T10:30:47Z</time>
      </trkpt>
      <trkpt lat="44.45825" lon="6.74632">
        <ele>1286</ele>
        <time>2020-09-15T10:30:50Z</time>
      </trkpt>
      <trkpt lat="44.4582" lon="6.74614">
        <ele>1287</ele>
        <time>2020-09-15T10:30:52Z</time>
      </trkpt>
      <trkpt lat="44.45815" lon="6.74563">
        <ele>1289</ele>
        <time>2020-09-15T10:30:59Z</time>
      </trkpt>
      <trkpt lat="44.45803" lon="6.74517">
        <ele>1289</ele>
        <time>2020-09-15T10:31:05Z</time>
      </trkpt>
      <trkpt lat="44.45798" lon="6.74508">
        <ele>1289</ele>
        <time>2020-09-15T10:31:06Z</time>
      </trkpt>
      <trkpt lat="44.45796" lon="6.74504">
        <ele>1289</ele>
        <time>2020-09-15T10:31:07Z</time>
      </trkpt>
      <trkpt lat="44.45791" lon="6.74494">
        <ele>1289</ele>
        <time>2020-09-15T10:31:08Z</time>
      </trkpt>
      <trkpt lat="44.4578" lon="6.74482">
        <ele>1290</ele>
        <time>2020-09-15T10:31:11Z</time>
      </trkpt>
      <trkpt lat="44.45763" lon="6.74465">
        <ele>1290</ele>
        <time>2020-09-15T10:31:15Z</time>
      </trkpt>
      <trkpt lat="44.45754" lon="6.7446">
        <ele>1290</ele>
        <time>2020-09-15T10:31:16Z</time>
      </trkpt>
      <trkpt lat="44.45742" lon="6.74452">
        <ele>1290</ele>
        <time>2020-09-15T10:31:19Z</time>
      </trkpt>
      <trkpt lat="44.45705" lon="6.74424">
        <ele>1290</ele>
        <time>2020-09-15T10:31:26Z</time>
      </trkpt>
      <trkpt lat="44.4568" lon="6.74413">
        <ele>1290</ele>
        <time>2020-09-15T10:31:31Z</time>
      </trkpt>
      <trkpt lat="44.45664" lon="6.74408">
        <ele>1291</ele>
        <time>2020-09-15T10:31:34Z</time>
      </trkpt>
      <trkpt lat="44.45641" lon="6.74407">
        <ele>1290</ele>
        <time>2020-09-15T10:31:38Z</time>
      </trkpt>
      <trkpt lat="44.45608" lon="6.74409">
        <ele>1288</ele>
        <time>2020-09-15T10:31:44Z</time>
      </trkpt>
      <trkpt lat="44.45589" lon="6.74406">
        <ele>1288</ele>
        <time>2020-09-15T10:31:47Z</time>
      </trkpt>
      <trkpt lat="44.4557" lon="6.74396">
        <ele>1290</ele>
        <time>2020-09-15T10:31:51Z</time>
      </trkpt>
      <trkpt lat="44.45547" lon="6.74381">
        <ele>1293</ele>
        <time>2020-09-15T10:31:55Z</time>
      </trkpt>
      <trkpt lat="44.45532" lon="6.74372">
        <ele>1294</ele>
        <time>2020-09-15T10:31:58Z</time>
      </trkpt>
      <trkpt lat="44.45506" lon="6.74366">
        <ele>1292</ele>
        <time>2020-09-15T10:32:03Z</time>
      </trkpt>
      <trkpt lat="44.45495" lon="6.74366">
        <ele>1291</ele>
        <time>2020-09-15T10:32:05Z</time>
      </trkpt>
      <trkpt lat="44.45476" lon="6.74364">
        <ele>1289</ele>
        <time>2020-09-15T10:32:08Z</time>
      </trkpt>
      <trkpt lat="44.45409" lon="6.74362">
        <ele>1281</ele>
        <time>2020-09-15T10:32:20Z</time>
      </trkpt>
      <trkpt lat="44.4539" lon="6.74364">
        <ele>1281</ele>
        <time>2020-09-15T10:32:24Z</time>
      </trkpt>
      <trkpt lat="44.45366" lon="6.74377">
        <ele>1280</ele>
        <time>2020-09-15T10:32:28Z</time>
      </trkpt>
      <trkpt lat="44.45345" lon="6.74384">
        <ele>1279</ele>
        <time>2020-09-15T10:32:32Z</time>
      </trkpt>
      <trkpt lat="44.4533" lon="6.74385">
        <ele>1279</ele>
        <time>2020-09-15T10:32:35Z</time>
      </trkpt>
      <trkpt lat="44.45315" lon="6.74381">
        <ele>1280</ele>
        <time>2020-09-15T10:32:37Z</time>
      </trkpt>
      <trkpt lat="44.45301" lon="6.74372">
        <ele>1281</ele>
        <time>2020-09-15T10:32:40Z</time>
      </trkpt>
      <trkpt lat="44.45289" lon="6.74357">
        <ele>1280</ele>
        <time>2020-09-15T10:32:43Z</time>
      </trkpt>
      <trkpt lat="44.45269" lon="6.74324">
        <ele>1278</ele>
        <time>2020-09-15T10:32:48Z</time>
      </trkpt>
      <trkpt lat="44.45255" lon="6.74309">
        <ele>1280</ele>
        <time>2020-09-15T10:32:52Z</time>
      </trkpt>
      <trkpt lat="44.45169" lon="6.74252">
        <ele>1281</ele>
        <time>2020-09-15T10:33:09Z</time>
      </trkpt>
      <trkpt lat="44.45133" lon="6.74225">
        <ele>1278</ele>
        <time>2020-09-15T10:33:16Z</time>
      </trkpt>
      <trkpt lat="44.45045" lon="6.74132">
        <ele>1273</ele>
        <time>2020-09-15T10:33:35Z</time>
      </trkpt>
      <trkpt lat="44.45002" lon="6.74082">
        <ele>1272</ele>
        <time>2020-09-15T10:33:45Z</time>
      </trkpt>
      <trkpt lat="44.44988" lon="6.74074">
        <ele>1272</ele>
        <time>2020-09-15T10:33:48Z</time>
      </trkpt>
      <trkpt lat="44.44919" lon="6.74048">
        <ele>1269</ele>
        <time>2020-09-15T10:34:01Z</time>
      </trkpt>
      <trkpt lat="44.44867" lon="6.7404">
        <ele>1269</ele>
        <time>2020-09-15T10:34:10Z</time>
      </trkpt>
      <trkpt lat="44.44804" lon="6.74022">
        <ele>1271</ele>
        <time>2020-09-15T10:34:21Z</time>
      </trkpt>
      <trkpt lat="44.44774" lon="6.74019">
        <ele>1272</ele>
        <time>2020-09-15T10:34:27Z</time>
      </trkpt>
      <trkpt lat="44.44759" lon="6.7402">
        <ele>1272</ele>
        <time>2020-09-15T10:34:30Z</time>
      </trkpt>
      <trkpt lat="44.44742" lon="6.74026">
        <ele>1272</ele>
        <time>2020-09-15T10:34:33Z</time>
      </trkpt>
      <trkpt lat="44.44721" lon="6.7404">
        <ele>1272</ele>
        <time>2020-09-15T10:34:37Z</time>
      </trkpt>
      <trkpt lat="44.44701" lon="6.74058">
        <ele>1271</ele>
        <time>2020-09-15T10:34:41Z</time>
      </trkpt>
      <trkpt lat="44.44669" lon="6.74088">
        <ele>1268</ele>
        <time>2020-09-15T10:34:48Z</time>
      </trkpt>
      <trkpt lat="44.44581" lon="6.7417">
        <ele>1268</ele>
        <time>2020-09-15T10:35:07Z</time>
      </trkpt>
      <trkpt lat="44.4449" lon="6.74239">
        <ele>1270</ele>
        <time>2020-09-15T10:35:25Z</time>
      </trkpt>
      <trkpt lat="44.44461" lon="6.74252">
        <ele>1270</ele>
        <time>2020-09-15T10:35:30Z</time>
      </trkpt>
      <trkpt lat="44.44432" lon="6.74256">
        <ele>1273</ele>
        <time>2020-09-15T10:35:36Z</time>
      </trkpt>
      <trkpt lat="44.44397" lon="6.74247">
        <ele>1274</ele>
        <time>2020-09-15T10:35:42Z</time>
      </trkpt>
      <trkpt lat="44.44356" lon="6.7423">
        <ele>1274</ele>
        <time>2020-09-15T10:35:50Z</time>
      </trkpt>
      <trkpt lat="44.44308" lon="6.74216">
        <ele>1274</ele>
        <time>2020-09-15T10:35:58Z</time>
      </trkpt>
      <trkpt lat="44.44194" lon="6.74199">
        <ele>1270</ele>
        <time>2020-09-15T10:36:19Z</time>
      </trkpt>
      <trkpt lat="44.44157" lon="6.74196">
        <ele>1269</ele>
        <time>2020-09-15T10:36:25Z</time>
      </trkpt>
      <trkpt lat="44.44139" lon="6.74202">
        <ele>1271</ele>
        <time>2020-09-15T10:36:29Z</time>
      </trkpt>
      <trkpt lat="44.44075" lon="6.74266">
        <ele>1266</ele>
        <time>2020-09-15T10:36:43Z</time>
      </trkpt>
      <trkpt lat="44.44052" lon="6.74277">
        <ele>1266</ele>
        <time>2020-09-15T10:36:47Z</time>
      </trkpt>
      <trkpt lat="44.44004" lon="6.74275">
        <ele>1268</ele>
        <time>2020-09-15T10:36:55Z</time>
      </trkpt>
      <trkpt lat="44.43981" lon="6.7428">
        <ele>1271</ele>
        <time>2020-09-15T10:37:00Z</time>
      </trkpt>
      <trkpt lat="44.43949" lon="6.74315">
        <ele>1271</ele>
        <time>2020-09-15T10:37:07Z</time>
      </trkpt>
      <trkpt lat="44.43928" lon="6.74354">
        <ele>1267</ele>
        <time>2020-09-15T10:37:13Z</time>
      </trkpt>
      <trkpt lat="44.43909" lon="6.74376">
        <ele>1264</ele>
        <time>2020-09-15T10:37:17Z</time>
      </trkpt>
      <trkpt lat="44.43872" lon="6.74394">
        <ele>1260</ele>
        <time>2020-09-15T10:37:24Z</time>
      </trkpt>
      <trkpt lat="44.43857" lon="6.74393">
        <ele>1260</ele>
        <time>2020-09-15T10:37:27Z</time>
      </trkpt>
      <trkpt lat="44.43833" lon="6.74387">
        <ele>1262</ele>
        <time>2020-09-15T10:37:31Z</time>
      </trkpt>
      <trkpt lat="44.4381" lon="6.74384">
        <ele>1263</ele>
        <time>2020-09-15T10:37:36Z</time>
      </trkpt>
      <trkpt lat="44.4377" lon="6.74405">
        <ele>1257</ele>
        <time>2020-09-15T10:37:43Z</time>
      </trkpt>
      <trkpt lat="44.43754" lon="6.7441">
        <ele>1256</ele>
        <time>2020-09-15T10:37:46Z</time>
      </trkpt>
      <trkpt lat="44.43741" lon="6.7441">
        <ele>1256</ele>
        <time>2020-09-15T10:37:48Z</time>
      </trkpt>
      <trkpt lat="44.43708" lon="6.74399">
        <ele>1258</ele>
        <time>2020-09-15T10:37:54Z</time>
      </trkpt>
      <trkpt lat="44.43685" lon="6.74391">
        <ele>1260</ele>
        <time>2020-09-15T10:37:59Z</time>
      </trkpt>
      <trkpt lat="44.43659" lon="6.74382">
        <ele>1262</ele>
        <time>2020-09-15T10:38:03Z</time>
      </trkpt>
      <trkpt lat="44.43627" lon="6.74367">
        <ele>1263</ele>
        <time>2020-09-15T10:38:09Z</time>
      </trkpt>
      <trkpt lat="44.43615" lon="6.74368">
        <ele>1262</ele>
        <time>2020-09-15T10:38:12Z</time>
      </trkpt>
      <trkpt lat="44.43593" lon="6.74377">
        <ele>1258</ele>
        <time>2020-09-15T10:38:16Z</time>
      </trkpt>
      <trkpt lat="44.43574" lon="6.74396">
        <ele>1255</ele>
        <time>2020-09-15T10:38:20Z</time>
      </trkpt>
      <trkpt lat="44.43554" lon="6.74406">
        <ele>1254</ele>
        <time>2020-09-15T10:38:24Z</time>
      </trkpt>
      <trkpt lat="44.43519" lon="6.74406">
        <ele>1256</ele>
        <time>2020-09-15T10:38:30Z</time>
      </trkpt>
      <trkpt lat="44.43476" lon="6.74401">
        <ele>1255</ele>
        <time>2020-09-15T10:38:37Z</time>
      </trkpt>
      <trkpt lat="44.43447" lon="6.74394">
        <ele>1252</ele>
        <time>2020-09-15T10:38:43Z</time>
      </trkpt>
      <trkpt lat="44.43435" lon="6.74375">
        <ele>1252</ele>
        <time>2020-09-15T10:38:46Z</time>
      </trkpt>
      <trkpt lat="44.434" lon="6.74261">
        <ele>1250</ele>
        <time>2020-09-15T10:39:02Z</time>
      </trkpt>
      <trkpt lat="44.43388" lon="6.7422">
        <ele>1245</ele>
        <time>2020-09-15T10:39:07Z</time>
      </trkpt>
      <trkpt lat="44.43368" lon="6.74148">
        <ele>1241</ele>
        <time>2020-09-15T10:39:17Z</time>
      </trkpt>
      <trkpt lat="44.43361" lon="6.74131">
        <ele>1242</ele>
        <time>2020-09-15T10:39:20Z</time>
      </trkpt>
      <trkpt lat="44.43353" lon="6.74117">
        <ele>1243</ele>
        <time>2020-09-15T10:39:22Z</time>
      </trkpt>
      <trkpt lat="44.43323" lon="6.74086">
        <ele>1243</ele>
        <time>2020-09-15T10:39:29Z</time>
      </trkpt>
      <trkpt lat="44.43291" lon="6.7406">
        <ele>1248</ele>
        <time>2020-09-15T10:39:35Z</time>
      </trkpt>
      <trkpt lat="44.43268" lon="6.74036">
        <ele>1250</ele>
        <time>2020-09-15T10:39:40Z</time>
      </trkpt>
      <trkpt lat="44.43227" lon="6.73965">
        <ele>1256</ele>
        <time>2020-09-15T10:39:52Z</time>
      </trkpt>
      <trkpt lat="44.43199" lon="6.73913">
        <ele>1258</ele>
        <time>2020-09-15T10:40:00Z</time>
      </trkpt>
      <trkpt lat="44.43182" lon="6.73884">
        <ele>1258</ele>
        <time>2020-09-15T10:40:05Z</time>
      </trkpt>
      <trkpt lat="44.43159" lon="6.73867">
        <ele>1254</ele>
        <time>2020-09-15T10:40:09Z</time>
      </trkpt>
      <trkpt lat="44.43099" lon="6.73842">
        <ele>1246</ele>
        <time>2020-09-15T10:40:21Z</time>
      </trkpt>
      <trkpt lat="44.43073" lon="6.73813">
        <ele>1246</ele>
        <time>2020-09-15T10:40:27Z</time>
      </trkpt>
      <trkpt lat="44.4305" lon="6.73767">
        <ele>1248</ele>
        <time>2020-09-15T10:40:34Z</time>
      </trkpt>
      <trkpt lat="44.43034" lon="6.73731">
        <ele>1249</ele>
        <time>2020-09-15T10:40:39Z</time>
      </trkpt>
      <trkpt lat="44.42983" lon="6.73659">
        <ele>1248</ele>
        <time>2020-09-15T10:40:52Z</time>
      </trkpt>
      <trkpt lat="44.42948" lon="6.73637">
        <ele>1243</ele>
        <time>2020-09-15T10:40:59Z</time>
      </trkpt>
      <trkpt lat="44.42924" lon="6.73627">
        <ele>1239</ele>
        <time>2020-09-15T10:41:03Z</time>
      </trkpt>
      <trkpt lat="44.42901" lon="6.73625">
        <ele>1237</ele>
        <time>2020-09-15T10:41:07Z</time>
      </trkpt>
      <trkpt lat="44.42875" lon="6.73628">
        <ele>1238</ele>
        <time>2020-09-15T10:41:12Z</time>
      </trkpt>
      <trkpt lat="44.42849" lon="6.7364">
        <ele>1237</ele>
        <time>2020-09-15T10:41:17Z</time>
      </trkpt>
      <trkpt lat="44.42806" lon="6.7366">
        <ele>1234</ele>
        <time>2020-09-15T10:41:25Z</time>
      </trkpt>
      <trkpt lat="44.4275" lon="6.73686">
        <ele>1233</ele>
        <time>2020-09-15T10:41:35Z</time>
      </trkpt>
      <trkpt lat="44.42708" lon="6.73694">
        <ele>1233</ele>
        <time>2020-09-15T10:41:43Z</time>
      </trkpt>
      <trkpt lat="44.42646" lon="6.73696">
        <ele>1234</ele>
        <time>2020-09-15T10:41:54Z</time>
      </trkpt>
      <trkpt lat="44.42625" lon="6.73697">
        <ele>1234</ele>
        <time>2020-09-15T10:41:58Z</time>
      </trkpt>
      <trkpt lat="44.42521" lon="6.73701">
        <ele>1232</ele>
        <time>2020-09-15T10:42:16Z</time>
      </trkpt>
      <trkpt lat="44.42426" lon="6.73709">
        <ele>1230</ele>
        <time>2020-09-15T10:42:33Z</time>
      </trkpt>
      <trkpt lat="44.42422" lon="6.7371">
        <ele>1230</ele>
        <time>2020-09-15T10:42:34Z</time>
      </trkpt>
      <trkpt lat="44.42418" lon="6.7371">
        <ele>1230</ele>
        <time>2020-09-15T10:42:35Z</time>
      </trkpt>
      <trkpt lat="44.42415" lon="6.7371">
        <ele>1229</ele>
        <time>2020-09-15T10:42:35Z</time>
      </trkpt>
      <trkpt lat="44.42384" lon="6.73712">
        <ele>1228</ele>
        <time>2020-09-15T10:42:41Z</time>
      </trkpt>
      <trkpt lat="44.42339" lon="6.73715">
        <ele>1227</ele>
        <time>2020-09-15T10:42:49Z</time>
      </trkpt>
      <trkpt lat="44.42274" lon="6.73719">
        <ele>1226</ele>
        <time>2020-09-15T10:43:00Z</time>
      </trkpt>
      <trkpt lat="44.42219" lon="6.73719">
        <ele>1224</ele>
        <time>2020-09-15T10:43:10Z</time>
      </trkpt>
      <trkpt lat="44.42182" lon="6.73712">
        <ele>1222</ele>
        <time>2020-09-15T10:43:17Z</time>
      </trkpt>
      <trkpt lat="44.42109" lon="6.73687">
        <ele>1220</ele>
        <time>2020-09-15T10:43:30Z</time>
      </trkpt>
      <trkpt lat="44.4209" lon="6.7368">
        <ele>1219</ele>
        <time>2020-09-15T10:43:34Z</time>
      </trkpt>
      <trkpt lat="44.42057" lon="6.73662">
        <ele>1219</ele>
        <time>2020-09-15T10:43:40Z</time>
      </trkpt>
      <trkpt lat="44.42026" lon="6.73635">
        <ele>1220</ele>
        <time>2020-09-15T10:43:46Z</time>
      </trkpt>
      <trkpt lat="44.42019" lon="6.73625">
        <ele>1220</ele>
        <time>2020-09-15T10:43:48Z</time>
      </trkpt>
      <trkpt lat="44.42014" lon="6.73615">
        <ele>1220</ele>
        <time>2020-09-15T10:43:50Z</time>
      </trkpt>
      <trkpt lat="44.42011" lon="6.73603">
        <ele>1220</ele>
        <time>2020-09-15T10:43:51Z</time>
      </trkpt>
      <trkpt lat="44.42006" lon="6.73606">
        <ele>1220</ele>
        <time>2020-09-15T10:43:52Z</time>
      </trkpt>
      <trkpt lat="44.42001" lon="6.73601">
        <ele>1220</ele>
        <time>2020-09-15T10:43:53Z</time>
      </trkpt>
      <trkpt lat="44.4198" lon="6.73568">
        <ele>1220</ele>
        <time>2020-09-15T10:43:59Z</time>
      </trkpt>
      <trkpt lat="44.42001" lon="6.73601">
        <ele>1220</ele>
        <time>2020-09-15T10:44:05Z</time>
      </trkpt>
      <trkpt lat="44.42006" lon="6.73606">
        <ele>1220</ele>
        <time>2020-09-15T10:44:06Z</time>
      </trkpt>
      <trkpt lat="44.42011" lon="6.73603">
        <ele>1220</ele>
        <time>2020-09-15T10:44:07Z</time>
      </trkpt>
      <trkpt lat="44.42019" lon="6.73625">
        <ele>1220</ele>
        <time>2020-09-15T10:44:10Z</time>
      </trkpt>
      <trkpt lat="44.42026" lon="6.73635">
        <ele>1220</ele>
        <time>2020-09-15T10:44:12Z</time>
      </trkpt>
      <trkpt lat="44.42057" lon="6.73662">
        <ele>1219</ele>
        <time>2020-09-15T10:44:18Z</time>
      </trkpt>
      <trkpt lat="44.42045" lon="6.73691">
        <ele>1219</ele>
        <time>2020-09-15T10:44:22Z</time>
      </trkpt>
      <trkpt lat="44.42037" lon="6.73708">
        <ele>1220</ele>
        <time>2020-09-15T10:44:25Z</time>
      </trkpt>
      <trkpt lat="44.42027" lon="6.73743">
        <ele>1219</ele>
        <time>2020-09-15T10:44:30Z</time>
      </trkpt>
      <trkpt lat="44.42021" lon="6.7377">
        <ele>1219</ele>
        <time>2020-09-15T10:44:33Z</time>
      </trkpt>
      <trkpt lat="44.42014" lon="6.73833">
        <ele>1220</ele>
        <time>2020-09-15T10:44:41Z</time>
      </trkpt>
      <trkpt lat="44.42013" lon="6.7384">
        <ele>1220</ele>
        <time>2020-09-15T10:44:42Z</time>
      </trkpt>
      <trkpt lat="44.42009" lon="6.73872">
        <ele>1221</ele>
        <time>2020-09-15T10:44:46Z</time>
      </trkpt>
      <trkpt lat="44.42" lon="6.73929">
        <ele>1222</ele>
        <time>2020-09-15T10:44:54Z</time>
      </trkpt>
      <trkpt lat="44.41996" lon="6.73942">
        <ele>1223</ele>
        <time>2020-09-15T10:44:56Z</time>
      </trkpt>
      <trkpt lat="44.41983" lon="6.73965">
        <ele>1223</ele>
        <time>2020-09-15T10:44:59Z</time>
      </trkpt>
      <trkpt lat="44.41971" lon="6.73981">
        <ele>1223</ele>
        <time>2020-09-15T10:45:02Z</time>
      </trkpt>
      <trkpt lat="44.41953" lon="6.73999">
        <ele>1223</ele>
        <time>2020-09-15T10:45:06Z</time>
      </trkpt>
      <trkpt lat="44.41869" lon="6.74056">
        <ele>1223</ele>
        <time>2020-09-15T10:45:23Z</time>
      </trkpt>
      <trkpt lat="44.4181" lon="6.74112">
        <ele>1227</ele>
        <time>2020-09-15T10:45:36Z</time>
      </trkpt>
      <trkpt lat="44.41728" lon="6.74172">
        <ele>1234</ele>
        <time>2020-09-15T10:45:52Z</time>
      </trkpt>
      <trkpt lat="44.41713" lon="6.74191">
        <ele>1236</ele>
        <time>2020-09-15T10:45:56Z</time>
      </trkpt>
      <trkpt lat="44.41689" lon="6.74228">
        <ele>1238</ele>
        <time>2020-09-15T10:46:02Z</time>
      </trkpt>
      <trkpt lat="44.41633" lon="6.74297">
        <ele>1239</ele>
        <time>2020-09-15T10:46:15Z</time>
      </trkpt>
      <trkpt lat="44.41611" lon="6.74319">
        <ele>1240</ele>
        <time>2020-09-15T10:46:20Z</time>
      </trkpt>
      <trkpt lat="44.41593" lon="6.74329">
        <ele>1240</ele>
        <time>2020-09-15T10:46:23Z</time>
      </trkpt>
      <trkpt lat="44.41584" lon="6.74338">
        <ele>1240</ele>
        <time>2020-09-15T10:46:25Z</time>
      </trkpt>
      <trkpt lat="44.41545" lon="6.74434">
        <ele>1246</ele>
        <time>2020-09-15T10:46:39Z</time>
      </trkpt>
      <trkpt lat="44.41525" lon="6.7449">
        <ele>1250</ele>
        <time>2020-09-15T10:46:47Z</time>
      </trkpt>
      <trkpt lat="44.41522" lon="6.74514">
        <ele>1252</ele>
        <time>2020-09-15T10:46:51Z</time>
      </trkpt>
      <trkpt lat="44.41523" lon="6.74539">
        <ele>1254</ele>
        <time>2020-09-15T10:46:54Z</time>
      </trkpt>
      <trkpt lat="44.4152" lon="6.74578">
        <ele>1258</ele>
        <time>2020-09-15T10:46:59Z</time>
      </trkpt>
      <trkpt lat="44.41493" lon="6.74669">
        <ele>1257</ele>
        <time>2020-09-15T10:47:11Z</time>
      </trkpt>
      <trkpt lat="44.41479" lon="6.74751">
        <ele>1260</ele>
        <time>2020-09-15T10:47:22Z</time>
      </trkpt>
      <trkpt lat="44.41459" lon="6.74807">
        <ele>1261</ele>
        <time>2020-09-15T10:47:30Z</time>
      </trkpt>
      <trkpt lat="44.41456" lon="6.74821">
        <ele>1262</ele>
        <time>2020-09-15T10:47:32Z</time>
      </trkpt>
      <trkpt lat="44.41456" lon="6.7484">
        <ele>1263</ele>
        <time>2020-09-15T10:47:34Z</time>
      </trkpt>
      <trkpt lat="44.41459" lon="6.74857">
        <ele>1264</ele>
        <time>2020-09-15T10:47:36Z</time>
      </trkpt>
      <trkpt lat="44.41477" lon="6.7491">
        <ele>1268</ele>
        <time>2020-09-15T10:47:44Z</time>
      </trkpt>
      <trkpt lat="44.41522" lon="6.75021">
        <ele>1277</ele>
        <time>2020-09-15T10:48:00Z</time>
      </trkpt>
      <trkpt lat="44.41532" lon="6.75041">
        <ele>1280</ele>
        <time>2020-09-15T10:48:03Z</time>
      </trkpt>
      <trkpt lat="44.41551" lon="6.75067">
        <ele>1287</ele>
        <time>2020-09-15T10:48:08Z</time>
      </trkpt>
      <trkpt lat="44.41553" lon="6.7508">
        <ele>1288</ele>
        <time>2020-09-15T10:48:10Z</time>
      </trkpt>
      <trkpt lat="44.4155" lon="6.75092">
        <ele>1287</ele>
        <time>2020-09-15T10:48:11Z</time>
      </trkpt>
      <trkpt lat="44.41542" lon="6.75104">
        <ele>1286</ele>
        <time>2020-09-15T10:48:13Z</time>
      </trkpt>
      <trkpt lat="44.41519" lon="6.75123">
        <ele>1281</ele>
        <time>2020-09-15T10:48:18Z</time>
      </trkpt>
      <trkpt lat="44.41513" lon="6.75127">
        <ele>1280</ele>
        <time>2020-09-15T10:48:19Z</time>
      </trkpt>
      <trkpt lat="44.41478" lon="6.75137">
        <ele>1279</ele>
        <time>2020-09-15T10:48:26Z</time>
      </trkpt>
      <trkpt lat="44.41466" lon="6.75145">
        <ele>1281</ele>
        <time>2020-09-15T10:48:28Z</time>
      </trkpt>
      <trkpt lat="44.41462" lon="6.75156">
        <ele>1282</ele>
        <time>2020-09-15T10:48:30Z</time>
      </trkpt>
      <trkpt lat="44.41463" lon="6.75173">
        <ele>1284</ele>
        <time>2020-09-15T10:48:32Z</time>
      </trkpt>
      <trkpt lat="44.41473" lon="6.75196">
        <ele>1286</ele>
        <time>2020-09-15T10:48:35Z</time>
      </trkpt>
      <trkpt lat="44.41501" lon="6.75246">
        <ele>1286</ele>
        <time>2020-09-15T10:48:43Z</time>
      </trkpt>
      <trkpt lat="44.41503" lon="6.75261">
        <ele>1288</ele>
        <time>2020-09-15T10:48:45Z</time>
      </trkpt>
      <trkpt lat="44.41501" lon="6.75275">
        <ele>1289</ele>
        <time>2020-09-15T10:48:47Z</time>
      </trkpt>
      <trkpt lat="44.41494" lon="6.75283">
        <ele>1291</ele>
        <time>2020-09-15T10:48:49Z</time>
      </trkpt>
      <trkpt lat="44.41485" lon="6.75285">
        <ele>1293</ele>
        <time>2020-09-15T10:48:50Z</time>
      </trkpt>
      <trkpt lat="44.41475" lon="6.75272">
        <ele>1294</ele>
        <time>2020-09-15T10:48:53Z</time>
      </trkpt>
      <trkpt lat="44.41456" lon="6.75232">
        <ele>1293</ele>
        <time>2020-09-15T10:48:59Z</time>
      </trkpt>
      <trkpt lat="44.41433" lon="6.75197">
        <ele>1292</ele>
        <time>2020-09-15T10:49:05Z</time>
      </trkpt>
      <trkpt lat="44.41387" lon="6.75171">
        <ele>1296</ele>
        <time>2020-09-15T10:49:14Z</time>
      </trkpt>
      <trkpt lat="44.4138" lon="6.75176">
        <ele>1298</ele>
        <time>2020-09-15T10:49:15Z</time>
      </trkpt>
      <trkpt lat="44.41383" lon="6.75193">
        <ele>1300</ele>
        <time>2020-09-15T10:49:17Z</time>
      </trkpt>
      <trkpt lat="44.4142" lon="6.75285">
        <ele>1306</ele>
        <time>2020-09-15T10:49:31Z</time>
      </trkpt>
      <trkpt lat="44.41421" lon="6.753">
        <ele>1307</ele>
        <time>2020-09-15T10:49:33Z</time>
      </trkpt>
      <trkpt lat="44.41366" lon="6.75261">
        <ele>1314</ele>
        <time>2020-09-15T10:49:43Z</time>
      </trkpt>
      <trkpt lat="44.41354" lon="6.75245">
        <ele>1315</ele>
        <time>2020-09-15T10:49:46Z</time>
      </trkpt>
      <trkpt lat="44.4134" lon="6.75239">
        <ele>1316</ele>
        <time>2020-09-15T10:49:49Z</time>
      </trkpt>
      <trkpt lat="44.4136" lon="6.75304">
        <ele>1319</ele>
        <time>2020-09-15T10:49:58Z</time>
      </trkpt>
      <trkpt lat="44.41365" lon="6.75333">
        <ele>1320</ele>
        <time>2020-09-15T10:50:02Z</time>
      </trkpt>
      <trkpt lat="44.41369" lon="6.7538">
        <ele>1325</ele>
        <time>2020-09-15T10:50:08Z</time>
      </trkpt>
      <trkpt lat="44.41367" lon="6.75395">
        <ele>1327</ele>
        <time>2020-09-15T10:50:10Z</time>
      </trkpt>
      <trkpt lat="44.41361" lon="6.75406">
        <ele>1330</ele>
        <time>2020-09-15T10:50:12Z</time>
      </trkpt>
      <trkpt lat="44.41353" lon="6.75408">
        <ele>1332</ele>
        <time>2020-09-15T10:50:13Z</time>
      </trkpt>
      <trkpt lat="44.41342" lon="6.75401">
        <ele>1333</ele>
        <time>2020-09-15T10:50:15Z</time>
      </trkpt>
      <trkpt lat="44.4131" lon="6.75342">
        <ele>1333</ele>
        <time>2020-09-15T10:50:25Z</time>
      </trkpt>
      <trkpt lat="44.41272" lon="6.75285">
        <ele>1336</ele>
        <time>2020-09-15T10:50:34Z</time>
      </trkpt>
      <trkpt lat="44.41259" lon="6.75274">
        <ele>1337</ele>
        <time>2020-09-15T10:50:37Z</time>
      </trkpt>
      <trkpt lat="44.4125" lon="6.75273">
        <ele>1339</ele>
        <time>2020-09-15T10:50:39Z</time>
      </trkpt>
      <trkpt lat="44.41242" lon="6.75281">
        <ele>1343</ele>
        <time>2020-09-15T10:50:41Z</time>
      </trkpt>
      <trkpt lat="44.41241" lon="6.75297">
        <ele>1345</ele>
        <time>2020-09-15T10:50:43Z</time>
      </trkpt>
      <trkpt lat="44.41246" lon="6.75313">
        <ele>1346</ele>
        <time>2020-09-15T10:50:45Z</time>
      </trkpt>
      <trkpt lat="44.4127" lon="6.75362">
        <ele>1347</ele>
        <time>2020-09-15T10:50:52Z</time>
      </trkpt>
      <trkpt lat="44.41302" lon="6.75459">
        <ele>1350</ele>
        <time>2020-09-15T10:51:06Z</time>
      </trkpt>
      <trkpt lat="44.41307" lon="6.75487">
        <ele>1351</ele>
        <time>2020-09-15T10:51:10Z</time>
      </trkpt>
      <trkpt lat="44.41307" lon="6.75513">
        <ele>1352</ele>
        <time>2020-09-15T10:51:13Z</time>
      </trkpt>
      <trkpt lat="44.41301" lon="6.75546">
        <ele>1355</ele>
        <time>2020-09-15T10:51:17Z</time>
      </trkpt>
      <trkpt lat="44.41291" lon="6.75572">
        <ele>1358</ele>
        <time>2020-09-15T10:51:21Z</time>
      </trkpt>
      <trkpt lat="44.41282" lon="6.75586">
        <ele>1361</ele>
        <time>2020-09-15T10:51:23Z</time>
      </trkpt>
      <trkpt lat="44.4127" lon="6.75591">
        <ele>1363</ele>
        <time>2020-09-15T10:51:26Z</time>
      </trkpt>
      <trkpt lat="44.4126" lon="6.75581">
        <ele>1365</ele>
        <time>2020-09-15T10:51:28Z</time>
      </trkpt>
      <trkpt lat="44.41257" lon="6.75559">
        <ele>1365</ele>
        <time>2020-09-15T10:51:31Z</time>
      </trkpt>
      <trkpt lat="44.41266" lon="6.75522">
        <ele>1362</ele>
        <time>2020-09-15T10:51:36Z</time>
      </trkpt>
      <trkpt lat="44.41265" lon="6.75498">
        <ele>1362</ele>
        <time>2020-09-15T10:51:39Z</time>
      </trkpt>
      <trkpt lat="44.41262" lon="6.75478">
        <ele>1362</ele>
        <time>2020-09-15T10:51:41Z</time>
      </trkpt>
      <trkpt lat="44.4125" lon="6.75459">
        <ele>1364</ele>
        <time>2020-09-15T10:51:44Z</time>
      </trkpt>
      <trkpt lat="44.41132" lon="6.75296">
        <ele>1377</ele>
        <time>2020-09-15T10:52:14Z</time>
      </trkpt>
      <trkpt lat="44.4112" lon="6.75263">
        <ele>1379</ele>
        <time>2020-09-15T10:52:19Z</time>
      </trkpt>
      <trkpt lat="44.41118" lon="6.75225">
        <ele>1380</ele>
        <time>2020-09-15T10:52:24Z</time>
      </trkpt>
      <trkpt lat="44.41118" lon="6.75164">
        <ele>1382</ele>
        <time>2020-09-15T10:52:31Z</time>
      </trkpt>
      <trkpt lat="44.41124" lon="6.75114">
        <ele>1382</ele>
        <time>2020-09-15T10:52:38Z</time>
      </trkpt>
      <trkpt lat="44.4112" lon="6.75103">
        <ele>1383</ele>
        <time>2020-09-15T10:52:39Z</time>
      </trkpt>
      <trkpt lat="44.41109" lon="6.75097">
        <ele>1386</ele>
        <time>2020-09-15T10:52:41Z</time>
      </trkpt>
      <trkpt lat="44.411" lon="6.75105">
        <ele>1387</ele>
        <time>2020-09-15T10:52:43Z</time>
      </trkpt>
      <trkpt lat="44.41088" lon="6.75143">
        <ele>1390</ele>
        <time>2020-09-15T10:52:49Z</time>
      </trkpt>
      <trkpt lat="44.41083" lon="6.75225">
        <ele>1390</ele>
        <time>2020-09-15T10:52:59Z</time>
      </trkpt>
      <trkpt lat="44.41076" lon="6.75256">
        <ele>1389</ele>
        <time>2020-09-15T10:53:03Z</time>
      </trkpt>
      <trkpt lat="44.41064" lon="6.75278">
        <ele>1390</ele>
        <time>2020-09-15T10:53:07Z</time>
      </trkpt>
      <trkpt lat="44.41041" lon="6.75305">
        <ele>1394</ele>
        <time>2020-09-15T10:53:12Z</time>
      </trkpt>
      <trkpt lat="44.41017" lon="6.7532">
        <ele>1399</ele>
        <time>2020-09-15T10:53:17Z</time>
      </trkpt>
      <trkpt lat="44.40981" lon="6.75337">
        <ele>1407</ele>
        <time>2020-09-15T10:53:23Z</time>
      </trkpt>
      <trkpt lat="44.40963" lon="6.75342">
        <ele>1410</ele>
        <time>2020-09-15T10:53:27Z</time>
      </trkpt>
      <trkpt lat="44.40904" lon="6.75339">
        <ele>1414</ele>
        <time>2020-09-15T10:53:37Z</time>
      </trkpt>
      <trkpt lat="44.4088" lon="6.75351">
        <ele>1417</ele>
        <time>2020-09-15T10:53:42Z</time>
      </trkpt>
      <trkpt lat="44.40842" lon="6.75394">
        <ele>1423</ele>
        <time>2020-09-15T10:53:50Z</time>
      </trkpt>
      <trkpt lat="44.40814" lon="6.75408">
        <ele>1426</ele>
        <time>2020-09-15T10:53:56Z</time>
      </trkpt>
      <trkpt lat="44.40782" lon="6.7541">
        <ele>1428</ele>
        <time>2020-09-15T10:54:01Z</time>
      </trkpt>
      <trkpt lat="44.40755" lon="6.75422">
        <ele>1430</ele>
        <time>2020-09-15T10:54:06Z</time>
      </trkpt>
      <trkpt lat="44.40744" lon="6.75432">
        <ele>1430</ele>
        <time>2020-09-15T10:54:09Z</time>
      </trkpt>
      <trkpt lat="44.40733" lon="6.75445">
        <ele>1431</ele>
        <time>2020-09-15T10:54:11Z</time>
      </trkpt>
      <trkpt lat="44.40729" lon="6.75458">
        <ele>1432</ele>
        <time>2020-09-15T10:54:13Z</time>
      </trkpt>
      <trkpt lat="44.40715" lon="6.75517">
        <ele>1436</ele>
        <time>2020-09-15T10:54:21Z</time>
      </trkpt>
      <trkpt lat="44.40709" lon="6.75528">
        <ele>1438</ele>
        <time>2020-09-15T10:54:23Z</time>
      </trkpt>
      <trkpt lat="44.40696" lon="6.75539">
        <ele>1441</ele>
        <time>2020-09-15T10:54:26Z</time>
      </trkpt>
      <trkpt lat="44.40697" lon="6.75555">
        <ele>1442</ele>
        <time>2020-09-15T10:54:28Z</time>
      </trkpt>
      <trkpt lat="44.40709" lon="6.75576">
        <ele>1444</ele>
        <time>2020-09-15T10:54:31Z</time>
      </trkpt>
      <trkpt lat="44.40709" lon="6.75585">
        <ele>1445</ele>
        <time>2020-09-15T10:54:32Z</time>
      </trkpt>
      <trkpt lat="44.40703" lon="6.75594">
        <ele>1446</ele>
        <time>2020-09-15T10:54:34Z</time>
      </trkpt>
      <trkpt lat="44.40682" lon="6.75606">
        <ele>1449</ele>
        <time>2020-09-15T10:54:38Z</time>
      </trkpt>
      <trkpt lat="44.40653" lon="6.75611">
        <ele>1451</ele>
        <time>2020-09-15T10:54:43Z</time>
      </trkpt>
      <trkpt lat="44.40646" lon="6.75618">
        <ele>1451</ele>
        <time>2020-09-15T10:54:44Z</time>
      </trkpt>
      <trkpt lat="44.40646" lon="6.75636">
        <ele>1452</ele>
        <time>2020-09-15T10:54:47Z</time>
      </trkpt>
      <trkpt lat="44.40651" lon="6.75651">
        <ele>1453</ele>
        <time>2020-09-15T10:54:49Z</time>
      </trkpt>
      <trkpt lat="44.40646" lon="6.75689">
        <ele>1456</ele>
        <time>2020-09-15T10:54:54Z</time>
      </trkpt>
      <trkpt lat="44.40616" lon="6.75763">
        <ele>1466</ele>
        <time>2020-09-15T10:55:05Z</time>
      </trkpt>
      <trkpt lat="44.40606" lon="6.75783">
        <ele>1469</ele>
        <time>2020-09-15T10:55:08Z</time>
      </trkpt>
      <trkpt lat="44.40585" lon="6.75854">
        <ele>1477</ele>
        <time>2020-09-15T10:55:17Z</time>
      </trkpt>
      <trkpt lat="44.40583" lon="6.75866">
        <ele>1478</ele>
        <time>2020-09-15T10:55:19Z</time>
      </trkpt>
      <trkpt lat="44.40568" lon="6.75912">
        <ele>1480</ele>
        <time>2020-09-15T10:55:25Z</time>
      </trkpt>
      <trkpt lat="44.40559" lon="6.75953">
        <ele>1484</ele>
        <time>2020-09-15T10:55:31Z</time>
      </trkpt>
      <trkpt lat="44.40541" lon="6.75997">
        <ele>1487</ele>
        <time>2020-09-15T10:55:37Z</time>
      </trkpt>
      <trkpt lat="44.40529" lon="6.76033">
        <ele>1493</ele>
        <time>2020-09-15T10:55:42Z</time>
      </trkpt>
      <trkpt lat="44.40512" lon="6.76058">
        <ele>1498</ele>
        <time>2020-09-15T10:55:47Z</time>
      </trkpt>
      <trkpt lat="44.40494" lon="6.76068">
        <ele>1499</ele>
        <time>2020-09-15T10:55:50Z</time>
      </trkpt>
      <trkpt lat="44.40468" lon="6.76091">
        <ele>1500</ele>
        <time>2020-09-15T10:55:56Z</time>
      </trkpt>
      <trkpt lat="44.4045" lon="6.7612">
        <ele>1503</ele>
        <time>2020-09-15T10:56:01Z</time>
      </trkpt>
      <trkpt lat="44.40436" lon="6.7613">
        <ele>1503</ele>
        <time>2020-09-15T10:56:03Z</time>
      </trkpt>
      <trkpt lat="44.40424" lon="6.76147">
        <ele>1506</ele>
        <time>2020-09-15T10:56:06Z</time>
      </trkpt>
      <trkpt lat="44.40418" lon="6.76166">
        <ele>1510</ele>
        <time>2020-09-15T10:56:09Z</time>
      </trkpt>
      <trkpt lat="44.40404" lon="6.76168">
        <ele>1506</ele>
        <time>2020-09-15T10:56:12Z</time>
      </trkpt>
      <trkpt lat="44.40389" lon="6.76173">
        <ele>1501</ele>
        <time>2020-09-15T10:56:14Z</time>
      </trkpt>
      <trkpt lat="44.40371" lon="6.76209">
        <ele>1498</ele>
        <time>2020-09-15T10:56:20Z</time>
      </trkpt>
      <trkpt lat="44.40364" lon="6.7623">
        <ele>1498</ele>
        <time>2020-09-15T10:56:23Z</time>
      </trkpt>
      <trkpt lat="44.4036" lon="6.76252">
        <ele>1499</ele>
        <time>2020-09-15T10:56:26Z</time>
      </trkpt>
      <trkpt lat="44.4033" lon="6.76323">
        <ele>1502</ele>
        <time>2020-09-15T10:56:36Z</time>
      </trkpt>
      <trkpt lat="44.40308" lon="6.76367">
        <ele>1502</ele>
        <time>2020-09-15T10:56:43Z</time>
      </trkpt>
      <trkpt lat="44.40291" lon="6.76377">
        <ele>1498</ele>
        <time>2020-09-15T10:56:46Z</time>
      </trkpt>
      <trkpt lat="44.40273" lon="6.76414">
        <ele>1497</ele>
        <time>2020-09-15T10:56:52Z</time>
      </trkpt>
      <trkpt lat="44.40264" lon="6.76453">
        <ele>1500</ele>
        <time>2020-09-15T10:56:57Z</time>
      </trkpt>
      <trkpt lat="44.40243" lon="6.76556">
        <ele>1511</ele>
        <time>2020-09-15T10:57:11Z</time>
      </trkpt>
      <trkpt lat="44.40236" lon="6.76574">
        <ele>1514</ele>
        <time>2020-09-15T10:57:13Z</time>
      </trkpt>
      <trkpt lat="44.40228" lon="6.76587">
        <ele>1515</ele>
        <time>2020-09-15T10:57:16Z</time>
      </trkpt>
      <trkpt lat="44.40211" lon="6.76596">
        <ele>1515</ele>
        <time>2020-09-15T10:57:19Z</time>
      </trkpt>
      <trkpt lat="44.40203" lon="6.76597">
        <ele>1515</ele>
        <time>2020-09-15T10:57:20Z</time>
      </trkpt>
      <trkpt lat="44.40192" lon="6.76597">
        <ele>1514</ele>
        <time>2020-09-15T10:57:22Z</time>
      </trkpt>
      <trkpt lat="44.4017" lon="6.76592">
        <ele>1511</ele>
        <time>2020-09-15T10:57:26Z</time>
      </trkpt>
      <trkpt lat="44.40147" lon="6.76598">
        <ele>1510</ele>
        <time>2020-09-15T10:57:30Z</time>
      </trkpt>
      <trkpt lat="44.4013" lon="6.7661">
        <ele>1511</ele>
        <time>2020-09-15T10:57:34Z</time>
      </trkpt>
      <trkpt lat="44.40093" lon="6.76666">
        <ele>1518</ele>
        <time>2020-09-15T10:57:43Z</time>
      </trkpt>
      <trkpt lat="44.40082" lon="6.76683">
        <ele>1521</ele>
        <time>2020-09-15T10:57:46Z</time>
      </trkpt>
      <trkpt lat="44.40061" lon="6.76716">
        <ele>1526</ele>
        <time>2020-09-15T10:57:52Z</time>
      </trkpt>
      <trkpt lat="44.40017" lon="6.7677">
        <ele>1532</ele>
        <time>2020-09-15T10:58:02Z</time>
      </trkpt>
      <trkpt lat="44.39997" lon="6.76789">
        <ele>1532</ele>
        <time>2020-09-15T10:58:07Z</time>
      </trkpt>
      <trkpt lat="44.39954" lon="6.7681">
        <ele>1533</ele>
        <time>2020-09-15T10:58:15Z</time>
      </trkpt>
      <trkpt lat="44.39936" lon="6.76823">
        <ele>1534</ele>
        <time>2020-09-15T10:58:18Z</time>
      </trkpt>
      <trkpt lat="44.39893" lon="6.76875">
        <ele>1544</ele>
        <time>2020-09-15T10:58:29Z</time>
      </trkpt>
      <trkpt lat="44.39877" lon="6.76888">
        <ele>1548</ele>
        <time>2020-09-15T10:58:32Z</time>
      </trkpt>
      <trkpt lat="44.39859" lon="6.7689">
        <ele>1550</ele>
        <time>2020-09-15T10:58:35Z</time>
      </trkpt>
      <trkpt lat="44.39834" lon="6.76886">
        <ele>1551</ele>
        <time>2020-09-15T10:58:40Z</time>
      </trkpt>
      <trkpt lat="44.3982" lon="6.76878">
        <ele>1554</ele>
        <time>2020-09-15T10:58:42Z</time>
      </trkpt>
      <trkpt lat="44.39806" lon="6.76863">
        <ele>1556</ele>
        <time>2020-09-15T10:58:45Z</time>
      </trkpt>
      <trkpt lat="44.39754" lon="6.76774">
        <ele>1558</ele>
        <time>2020-09-15T10:59:00Z</time>
      </trkpt>
      <trkpt lat="44.39729" lon="6.76741">
        <ele>1558</ele>
        <time>2020-09-15T10:59:06Z</time>
      </trkpt>
      <trkpt lat="44.39711" lon="6.76735">
        <ele>1561</ele>
        <time>2020-09-15T10:59:09Z</time>
      </trkpt>
      <trkpt lat="44.3966" lon="6.76743">
        <ele>1570</ele>
        <time>2020-09-15T10:59:18Z</time>
      </trkpt>
      <trkpt lat="44.39626" lon="6.76735">
        <ele>1570</ele>
        <time>2020-09-15T10:59:25Z</time>
      </trkpt>
      <trkpt lat="44.396" lon="6.76732">
        <ele>1570</ele>
        <time>2020-09-15T10:59:29Z</time>
      </trkpt>
      <trkpt lat="44.39575" lon="6.76738">
        <ele>1572</ele>
        <time>2020-09-15T10:59:34Z</time>
      </trkpt>
      <trkpt lat="44.39547" lon="6.76762">
        <ele>1575</ele>
        <time>2020-09-15T10:59:40Z</time>
      </trkpt>
      <trkpt lat="44.39502" lon="6.76807">
        <ele>1580</ele>
        <time>2020-09-15T10:59:49Z</time>
      </trkpt>
      <trkpt lat="44.39487" lon="6.76832">
        <ele>1581</ele>
        <time>2020-09-15T10:59:54Z</time>
      </trkpt>
      <trkpt lat="44.39475" lon="6.76856">
        <ele>1582</ele>
        <time>2020-09-15T10:59:57Z</time>
      </trkpt>
      <trkpt lat="44.3947" lon="6.76873">
        <ele>1583</ele>
        <time>2020-09-15T11:00:00Z</time>
      </trkpt>
      <trkpt lat="44.39465" lon="6.76888">
        <ele>1584</ele>
        <time>2020-09-15T11:00:02Z</time>
      </trkpt>
      <trkpt lat="44.3946" lon="6.76916">
        <ele>1586</ele>
        <time>2020-09-15T11:00:05Z</time>
      </trkpt>
      <trkpt lat="44.39454" lon="6.76968">
        <ele>1592</ele>
        <time>2020-09-15T11:00:12Z</time>
      </trkpt>
      <trkpt lat="44.39444" lon="6.77008">
        <ele>1596</ele>
        <time>2020-09-15T11:00:18Z</time>
      </trkpt>
      <trkpt lat="44.3943" lon="6.77043">
        <ele>1600</ele>
        <time>2020-09-15T11:00:23Z</time>
      </trkpt>
      <trkpt lat="44.39414" lon="6.77067">
        <ele>1602</ele>
        <time>2020-09-15T11:00:27Z</time>
      </trkpt>
      <trkpt lat="44.39386" lon="6.77103">
        <ele>1604</ele>
        <time>2020-09-15T11:00:34Z</time>
      </trkpt>
      <trkpt lat="44.39345" lon="6.77153">
        <ele>1606</ele>
        <time>2020-09-15T11:00:43Z</time>
      </trkpt>
      <trkpt lat="44.3931" lon="6.77211">
        <ele>1609</ele>
        <time>2020-09-15T11:00:53Z</time>
      </trkpt>
      <trkpt lat="44.39302" lon="6.7723">
        <ele>1611</ele>
        <time>2020-09-15T11:00:56Z</time>
      </trkpt>
      <trkpt lat="44.39283" lon="6.77313">
        <ele>1621</ele>
        <time>2020-09-15T11:01:07Z</time>
      </trkpt>
      <trkpt lat="44.39276" lon="6.77332">
        <ele>1622</ele>
        <time>2020-09-15T11:01:09Z</time>
      </trkpt>
      <trkpt lat="44.39213" lon="6.77465">
        <ele>1632</ele>
        <time>2020-09-15T11:01:30Z</time>
      </trkpt>
      <trkpt lat="44.39201" lon="6.77483">
        <ele>1633</ele>
        <time>2020-09-15T11:01:33Z</time>
      </trkpt>
      <trkpt lat="44.39181" lon="6.77502">
        <ele>1631</ele>
        <time>2020-09-15T11:01:37Z</time>
      </trkpt>
      <trkpt lat="44.39164" lon="6.77522">
        <ele>1631</ele>
        <time>2020-09-15T11:01:41Z</time>
      </trkpt>
      <trkpt lat="44.39158" lon="6.77535">
        <ele>1632</ele>
        <time>2020-09-15T11:01:43Z</time>
      </trkpt>
      <trkpt lat="44.39154" lon="6.77549">
        <ele>1634</ele>
        <time>2020-09-15T11:01:45Z</time>
      </trkpt>
      <trkpt lat="44.39151" lon="6.77583">
        <ele>1640</ele>
        <time>2020-09-15T11:01:49Z</time>
      </trkpt>
      <trkpt lat="44.39149" lon="6.77599">
        <ele>1642</ele>
        <time>2020-09-15T11:01:51Z</time>
      </trkpt>
      <trkpt lat="44.39133" lon="6.7765">
        <ele>1645</ele>
        <time>2020-09-15T11:01:59Z</time>
      </trkpt>
      <trkpt lat="44.39126" lon="6.77686">
        <ele>1648</ele>
        <time>2020-09-15T11:02:03Z</time>
      </trkpt>
      <trkpt lat="44.39121" lon="6.77701">
        <ele>1649</ele>
        <time>2020-09-15T11:02:05Z</time>
      </trkpt>
      <trkpt lat="44.39108" lon="6.77725">
        <ele>1650</ele>
        <time>2020-09-15T11:02:09Z</time>
      </trkpt>
      <trkpt lat="44.39068" lon="6.77764">
        <ele>1654</ele>
        <time>2020-09-15T11:02:18Z</time>
      </trkpt>
      <trkpt lat="44.39051" lon="6.77772">
        <ele>1654</ele>
        <time>2020-09-15T11:02:21Z</time>
      </trkpt>
      <trkpt lat="44.39035" lon="6.77777">
        <ele>1653</ele>
        <time>2020-09-15T11:02:24Z</time>
      </trkpt>
      <trkpt lat="44.39021" lon="6.77784">
        <ele>1653</ele>
        <time>2020-09-15T11:02:27Z</time>
      </trkpt>
      <trkpt lat="44.39" lon="6.77807">
        <ele>1656</ele>
        <time>2020-09-15T11:02:31Z</time>
      </trkpt>
      <trkpt lat="44.38995" lon="6.77813">
        <ele>1658</ele>
        <time>2020-09-15T11:02:33Z</time>
      </trkpt>
      <trkpt lat="44.38963" lon="6.7782">
        <ele>1664</ele>
        <time>2020-09-15T11:02:38Z</time>
      </trkpt>
      <trkpt lat="44.38947" lon="6.77823">
        <ele>1666</ele>
        <time>2020-09-15T11:02:41Z</time>
      </trkpt>
      <trkpt lat="44.38936" lon="6.77819">
        <ele>1666</ele>
        <time>2020-09-15T11:02:43Z</time>
      </trkpt>
      <trkpt lat="44.38908" lon="6.77798">
        <ele>1661</ele>
        <time>2020-09-15T11:02:49Z</time>
      </trkpt>
      <trkpt lat="44.38887" lon="6.77788">
        <ele>1658</ele>
        <time>2020-09-15T11:02:53Z</time>
      </trkpt>
      <trkpt lat="44.38877" lon="6.77789">
        <ele>1659</ele>
        <time>2020-09-15T11:02:55Z</time>
      </trkpt>
      <trkpt lat="44.38867" lon="6.77796">
        <ele>1661</ele>
        <time>2020-09-15T11:02:57Z</time>
      </trkpt>
      <trkpt lat="44.38852" lon="6.77813">
        <ele>1666</ele>
        <time>2020-09-15T11:03:00Z</time>
      </trkpt>
      <trkpt lat="44.38834" lon="6.77841">
        <ele>1673</ele>
        <time>2020-09-15T11:03:05Z</time>
      </trkpt>
      <trkpt lat="44.38822" lon="6.77849">
        <ele>1675</ele>
        <time>2020-09-15T11:03:07Z</time>
      </trkpt>
      <trkpt lat="44.38812" lon="6.77853">
        <ele>1675</ele>
        <time>2020-09-15T11:03:09Z</time>
      </trkpt>
      <trkpt lat="44.38807" lon="6.77859">
        <ele>1676</ele>
        <time>2020-09-15T11:03:10Z</time>
      </trkpt>
      <trkpt lat="44.38808" lon="6.77866">
        <ele>1679</ele>
        <time>2020-09-15T11:03:11Z</time>
      </trkpt>
      <trkpt lat="44.38813" lon="6.7787">
        <ele>1680</ele>
        <time>2020-09-15T11:03:12Z</time>
      </trkpt>
      <trkpt lat="44.38821" lon="6.77869">
        <ele>1680</ele>
        <time>2020-09-15T11:03:14Z</time>
      </trkpt>
      <trkpt lat="44.38848" lon="6.7785">
        <ele>1676</ele>
        <time>2020-09-15T11:03:19Z</time>
      </trkpt>
      <trkpt lat="44.3886" lon="6.77836">
        <ele>1673</ele>
        <time>2020-09-15T11:03:22Z</time>
      </trkpt>
      <trkpt lat="44.38872" lon="6.77826">
        <ele>1670</ele>
        <time>2020-09-15T11:03:24Z</time>
      </trkpt>
      <trkpt lat="44.38883" lon="6.77823">
        <ele>1669</ele>
        <time>2020-09-15T11:03:26Z</time>
      </trkpt>
      <trkpt lat="44.38894" lon="6.77829">
        <ele>1672</ele>
        <time>2020-09-15T11:03:28Z</time>
      </trkpt>
      <trkpt lat="44.38912" lon="6.77868">
        <ele>1684</ele>
        <time>2020-09-15T11:03:34Z</time>
      </trkpt>
      <trkpt lat="44.38942" lon="6.77925">
        <ele>1696</ele>
        <time>2020-09-15T11:03:43Z</time>
      </trkpt>
      <trkpt lat="44.38945" lon="6.77933">
        <ele>1697</ele>
        <time>2020-09-15T11:03:44Z</time>
      </trkpt>
      <trkpt lat="44.38945" lon="6.77944">
        <ele>1700</ele>
        <time>2020-09-15T11:03:46Z</time>
      </trkpt>
      <trkpt lat="44.3894" lon="6.77947">
        <ele>1701</ele>
        <time>2020-09-15T11:03:47Z</time>
      </trkpt>
      <trkpt lat="44.38934" lon="6.77945">
        <ele>1702</ele>
        <time>2020-09-15T11:03:48Z</time>
      </trkpt>
      <trkpt lat="44.38925" lon="6.77936">
        <ele>1702</ele>
        <time>2020-09-15T11:03:50Z</time>
      </trkpt>
      <trkpt lat="44.38909" lon="6.77909">
        <ele>1696</ele>
        <time>2020-09-15T11:03:54Z</time>
      </trkpt>
      <trkpt lat="44.38895" lon="6.77898">
        <ele>1692</ele>
        <time>2020-09-15T11:03:57Z</time>
      </trkpt>
      <trkpt lat="44.38886" lon="6.77896">
        <ele>1691</ele>
        <time>2020-09-15T11:03:59Z</time>
      </trkpt>
      <trkpt lat="44.38875" lon="6.77899">
        <ele>1692</ele>
        <time>2020-09-15T11:04:01Z</time>
      </trkpt>
      <trkpt lat="44.38866" lon="6.77911">
        <ele>1695</ele>
        <time>2020-09-15T11:04:03Z</time>
      </trkpt>
      <trkpt lat="44.38851" lon="6.77951">
        <ele>1707</ele>
        <time>2020-09-15T11:04:09Z</time>
      </trkpt>
      <trkpt lat="44.3884" lon="6.77966">
        <ele>1711</ele>
        <time>2020-09-15T11:04:11Z</time>
      </trkpt>
      <trkpt lat="44.38829" lon="6.77974">
        <ele>1714</ele>
        <time>2020-09-15T11:04:14Z</time>
      </trkpt>
      <trkpt lat="44.38821" lon="6.77977">
        <ele>1715</ele>
        <time>2020-09-15T11:04:15Z</time>
      </trkpt>
      <trkpt lat="44.38814" lon="6.77977">
        <ele>1715</ele>
        <time>2020-09-15T11:04:16Z</time>
      </trkpt>
      <trkpt lat="44.38803" lon="6.77975">
        <ele>1714</ele>
        <time>2020-09-15T11:04:18Z</time>
      </trkpt>
      <trkpt lat="44.38795" lon="6.77967">
        <ele>1711</ele>
        <time>2020-09-15T11:04:20Z</time>
      </trkpt>
      <trkpt lat="44.38787" lon="6.77967">
        <ele>1710</ele>
        <time>2020-09-15T11:04:21Z</time>
      </trkpt>
      <trkpt lat="44.38754" lon="6.77979">
        <ele>1714</ele>
        <time>2020-09-15T11:04:28Z</time>
      </trkpt>
      <trkpt lat="44.38751" lon="6.77988">
        <ele>1717</ele>
        <time>2020-09-15T11:04:29Z</time>
      </trkpt>
      <trkpt lat="44.38753" lon="6.77995">
        <ele>1719</ele>
        <time>2020-09-15T11:04:30Z</time>
      </trkpt>
      <trkpt lat="44.3876" lon="6.77999">
        <ele>1721</ele>
        <time>2020-09-15T11:04:31Z</time>
      </trkpt>
      <trkpt lat="44.38773" lon="6.77992">
        <ele>1719</ele>
        <time>2020-09-15T11:04:34Z</time>
      </trkpt>
      <trkpt lat="44.38782" lon="6.77991">
        <ele>1719</ele>
        <time>2020-09-15T11:04:35Z</time>
      </trkpt>
      <trkpt lat="44.38803" lon="6.78008">
        <ele>1725</ele>
        <time>2020-09-15T11:04:40Z</time>
      </trkpt>
      <trkpt lat="44.38812" lon="6.78011">
        <ele>1726</ele>
        <time>2020-09-15T11:04:41Z</time>
      </trkpt>
      <trkpt lat="44.38852" lon="6.78013">
        <ele>1726</ele>
        <time>2020-09-15T11:04:48Z</time>
      </trkpt>
      <trkpt lat="44.38881" lon="6.78021">
        <ele>1726</ele>
        <time>2020-09-15T11:04:54Z</time>
      </trkpt>
      <trkpt lat="44.38913" lon="6.78049">
        <ele>1731</ele>
        <time>2020-09-15T11:05:00Z</time>
      </trkpt>
      <trkpt lat="44.38925" lon="6.78062">
        <ele>1732</ele>
        <time>2020-09-15T11:05:03Z</time>
      </trkpt>
      <trkpt lat="44.38928" lon="6.78067">
        <ele>1732</ele>
        <time>2020-09-15T11:05:04Z</time>
      </trkpt>
      <trkpt lat="44.38927" lon="6.78073">
        <ele>1734</ele>
        <time>2020-09-15T11:05:05Z</time>
      </trkpt>
      <trkpt lat="44.38926" lon="6.78077">
        <ele>1735</ele>
        <time>2020-09-15T11:05:05Z</time>
      </trkpt>
      <trkpt lat="44.3892" lon="6.78079">
        <ele>1737</ele>
        <time>2020-09-15T11:05:06Z</time>
      </trkpt>
      <trkpt lat="44.38913" lon="6.78074">
        <ele>1737</ele>
        <time>2020-09-15T11:05:08Z</time>
      </trkpt>
      <trkpt lat="44.38906" lon="6.78063">
        <ele>1735</ele>
        <time>2020-09-15T11:05:09Z</time>
      </trkpt>
      <trkpt lat="44.38891" lon="6.78056">
        <ele>1734</ele>
        <time>2020-09-15T11:05:12Z</time>
      </trkpt>
      <trkpt lat="44.38808" lon="6.7806">
        <ele>1742</ele>
        <time>2020-09-15T11:05:27Z</time>
      </trkpt>
      <trkpt lat="44.3877" lon="6.78077">
        <ele>1749</ele>
        <time>2020-09-15T11:05:34Z</time>
      </trkpt>
      <trkpt lat="44.3875" lon="6.78078">
        <ele>1750</ele>
        <time>2020-09-15T11:05:38Z</time>
      </trkpt>
      <trkpt lat="44.38737" lon="6.7808">
        <ele>1753</ele>
        <time>2020-09-15T11:05:40Z</time>
      </trkpt>
      <trkpt lat="44.38722" lon="6.78088">
        <ele>1760</ele>
        <time>2020-09-15T11:05:43Z</time>
      </trkpt>
      <trkpt lat="44.38709" lon="6.781">
        <ele>1769</ele>
        <time>2020-09-15T11:05:46Z</time>
      </trkpt>
      <trkpt lat="44.38694" lon="6.78102">
        <ele>1773</ele>
        <time>2020-09-15T11:05:48Z</time>
      </trkpt>
      <trkpt lat="44.3868" lon="6.78099">
        <ele>1775</ele>
        <time>2020-09-15T11:05:51Z</time>
      </trkpt>
      <trkpt lat="44.38645" lon="6.78061">
        <ele>1763</ele>
        <time>2020-09-15T11:05:59Z</time>
      </trkpt>
      <trkpt lat="44.38622" lon="6.78052">
        <ele>1766</ele>
        <time>2020-09-15T11:06:03Z</time>
      </trkpt>
      <trkpt lat="44.38603" lon="6.78038">
        <ele>1765</ele>
        <time>2020-09-15T11:06:07Z</time>
      </trkpt>
      <trkpt lat="44.38561" lon="6.78044">
        <ele>1778</ele>
        <time>2020-09-15T11:06:14Z</time>
      </trkpt>
      <trkpt lat="44.38511" lon="6.78039">
        <ele>1786</ele>
        <time>2020-09-15T11:06:23Z</time>
      </trkpt>
      <trkpt lat="44.38501" lon="6.78035">
        <ele>1787</ele>
        <time>2020-09-15T11:06:25Z</time>
      </trkpt>
      <trkpt lat="44.38494" lon="6.78025">
        <ele>1785</ele>
        <time>2020-09-15T11:06:27Z</time>
      </trkpt>
      <trkpt lat="44.38477" lon="6.77994">
        <ele>1779</ele>
        <time>2020-09-15T11:06:32Z</time>
      </trkpt>
      <trkpt lat="44.38467" lon="6.77988">
        <ele>1778</ele>
        <time>2020-09-15T11:06:34Z</time>
      </trkpt>
      <trkpt lat="44.38456" lon="6.7799">
        <ele>1778</ele>
        <time>2020-09-15T11:06:36Z</time>
      </trkpt>
      <trkpt lat="44.38393" lon="6.78027">
        <ele>1788</ele>
        <time>2020-09-15T11:06:48Z</time>
      </trkpt>
      <trkpt lat="44.38377" lon="6.78045">
        <ele>1793</ele>
        <time>2020-09-15T11:06:52Z</time>
      </trkpt>
      <trkpt lat="44.38368" lon="6.78052">
        <ele>1795</ele>
        <time>2020-09-15T11:06:53Z</time>
      </trkpt>
      <trkpt lat="44.38361" lon="6.78052">
        <ele>1795</ele>
        <time>2020-09-15T11:06:55Z</time>
      </trkpt>
      <trkpt lat="44.38354" lon="6.78047">
        <ele>1794</ele>
        <time>2020-09-15T11:06:56Z</time>
      </trkpt>
      <trkpt lat="44.38335" lon="6.7804">
        <ele>1793</ele>
        <time>2020-09-15T11:07:00Z</time>
      </trkpt>
      <trkpt lat="44.38319" lon="6.78042">
        <ele>1794</ele>
        <time>2020-09-15T11:07:02Z</time>
      </trkpt>
      <trkpt lat="44.38298" lon="6.78056">
        <ele>1797</ele>
        <time>2020-09-15T11:07:07Z</time>
      </trkpt>
      <trkpt lat="44.38285" lon="6.7806">
        <ele>1798</ele>
        <time>2020-09-15T11:07:09Z</time>
      </trkpt>
      <trkpt lat="44.38273" lon="6.78052">
        <ele>1797</ele>
        <time>2020-09-15T11:07:11Z</time>
      </trkpt>
      <trkpt lat="44.38261" lon="6.78032">
        <ele>1794</ele>
        <time>2020-09-15T11:07:15Z</time>
      </trkpt>
      <trkpt lat="44.38251" lon="6.78027">
        <ele>1794</ele>
        <time>2020-09-15T11:07:17Z</time>
      </trkpt>
      <trkpt lat="44.38207" lon="6.78029">
        <ele>1796</ele>
        <time>2020-09-15T11:07:24Z</time>
      </trkpt>
      <trkpt lat="44.38188" lon="6.78033">
        <ele>1798</ele>
        <time>2020-09-15T11:07:28Z</time>
      </trkpt>
      <trkpt lat="44.38172" lon="6.78041">
        <ele>1801</ele>
        <time>2020-09-15T11:07:31Z</time>
      </trkpt>
      <trkpt lat="44.38157" lon="6.78045">
        <ele>1803</ele>
        <time>2020-09-15T11:07:33Z</time>
      </trkpt>
      <trkpt lat="44.38148" lon="6.78043">
        <ele>1804</ele>
        <time>2020-09-15T11:07:35Z</time>
      </trkpt>
      <trkpt lat="44.38131" lon="6.78035">
        <ele>1803</ele>
        <time>2020-09-15T11:07:38Z</time>
      </trkpt>
      <trkpt lat="44.38118" lon="6.78035">
        <ele>1804</ele>
        <time>2020-09-15T11:07:41Z</time>
      </trkpt>
      <trkpt lat="44.38087" lon="6.78052">
        <ele>1811</ele>
        <time>2020-09-15T11:07:47Z</time>
      </trkpt>
      <trkpt lat="44.38065" lon="6.78053">
        <ele>1811</ele>
        <time>2020-09-15T11:07:50Z</time>
      </trkpt>
      <trkpt lat="44.38061" lon="6.78059">
        <ele>1812</ele>
        <time>2020-09-15T11:07:52Z</time>
      </trkpt>
      <trkpt lat="44.38059" lon="6.78066">
        <ele>1813</ele>
        <time>2020-09-15T11:07:52Z</time>
      </trkpt>
      <trkpt lat="44.38061" lon="6.78073">
        <ele>1815</ele>
        <time>2020-09-15T11:07:53Z</time>
      </trkpt>
      <trkpt lat="44.38067" lon="6.78077">
        <ele>1816</ele>
        <time>2020-09-15T11:07:55Z</time>
      </trkpt>
      <trkpt lat="44.3808" lon="6.78074">
        <ele>1816</ele>
        <time>2020-09-15T11:07:57Z</time>
      </trkpt>
      <trkpt lat="44.38094" lon="6.78075">
        <ele>1815</ele>
        <time>2020-09-15T11:07:59Z</time>
      </trkpt>
      <trkpt lat="44.38107" lon="6.78081">
        <ele>1816</ele>
        <time>2020-09-15T11:08:02Z</time>
      </trkpt>
      <trkpt lat="44.38124" lon="6.78096">
        <ele>1818</ele>
        <time>2020-09-15T11:08:05Z</time>
      </trkpt>
      <trkpt lat="44.38145" lon="6.7812">
        <ele>1823</ele>
        <time>2020-09-15T11:08:10Z</time>
      </trkpt>
      <trkpt lat="44.38152" lon="6.78124">
        <ele>1824</ele>
        <time>2020-09-15T11:08:12Z</time>
      </trkpt>
      <trkpt lat="44.38181" lon="6.7813">
        <ele>1822</ele>
        <time>2020-09-15T11:08:17Z</time>
      </trkpt>
      <trkpt lat="44.38186" lon="6.78137">
        <ele>1824</ele>
        <time>2020-09-15T11:08:18Z</time>
      </trkpt>
      <trkpt lat="44.38186" lon="6.78144">
        <ele>1825</ele>
        <time>2020-09-15T11:08:19Z</time>
      </trkpt>
      <trkpt lat="44.38183" lon="6.7815">
        <ele>1827</ele>
        <time>2020-09-15T11:08:20Z</time>
      </trkpt>
      <trkpt lat="44.38178" lon="6.78154">
        <ele>1829</ele>
        <time>2020-09-15T11:08:21Z</time>
      </trkpt>
      <trkpt lat="44.38156" lon="6.78158">
        <ele>1832</ele>
        <time>2020-09-15T11:08:25Z</time>
      </trkpt>
      <trkpt lat="44.38096" lon="6.78149">
        <ele>1832</ele>
        <time>2020-09-15T11:08:36Z</time>
      </trkpt>
      <trkpt lat="44.38076" lon="6.78153">
        <ele>1834</ele>
        <time>2020-09-15T11:08:39Z</time>
      </trkpt>
      <trkpt lat="44.38039" lon="6.78173">
        <ele>1838</ele>
        <time>2020-09-15T11:08:46Z</time>
      </trkpt>
      <trkpt lat="44.3799" lon="6.78191">
        <ele>1846</ele>
        <time>2020-09-15T11:08:55Z</time>
      </trkpt>
      <trkpt lat="44.37963" lon="6.78195">
        <ele>1849</ele>
        <time>2020-09-15T11:09:00Z</time>
      </trkpt>
      <trkpt lat="44.37853" lon="6.78185">
        <ele>1856</ele>
        <time>2020-09-15T11:09:20Z</time>
      </trkpt>
      <trkpt lat="44.37821" lon="6.78178">
        <ele>1860</ele>
        <time>2020-09-15T11:09:26Z</time>
      </trkpt>
      <trkpt lat="44.37797" lon="6.78164">
        <ele>1863</ele>
        <time>2020-09-15T11:09:30Z</time>
      </trkpt>
      <trkpt lat="44.37758" lon="6.78122">
        <ele>1855</ele>
        <time>2020-09-15T11:09:39Z</time>
      </trkpt>
      <trkpt lat="44.37739" lon="6.78114">
        <ele>1855</ele>
        <time>2020-09-15T11:09:42Z</time>
      </trkpt>
      <trkpt lat="44.37719" lon="6.78113">
        <ele>1857</ele>
        <time>2020-09-15T11:09:46Z</time>
      </trkpt>
      <trkpt lat="44.37698" lon="6.78118">
        <ele>1861</ele>
        <time>2020-09-15T11:09:50Z</time>
      </trkpt>
      <trkpt lat="44.37674" lon="6.78132">
        <ele>1870</ele>
        <time>2020-09-15T11:09:54Z</time>
      </trkpt>
      <trkpt lat="44.37651" lon="6.78154">
        <ele>1877</ele>
        <time>2020-09-15T11:09:59Z</time>
      </trkpt>
      <trkpt lat="44.37627" lon="6.78185">
        <ele>1884</ele>
        <time>2020-09-15T11:10:05Z</time>
      </trkpt>
      <trkpt lat="44.37609" lon="6.78204">
        <ele>1886</ele>
        <time>2020-09-15T11:10:09Z</time>
      </trkpt>
      <trkpt lat="44.37587" lon="6.78216">
        <ele>1885</ele>
        <time>2020-09-15T11:10:13Z</time>
      </trkpt>
      <trkpt lat="44.37556" lon="6.78223">
        <ele>1884</ele>
        <time>2020-09-15T11:10:19Z</time>
      </trkpt>
      <trkpt lat="44.37535" lon="6.78233">
        <ele>1886</ele>
        <time>2020-09-15T11:10:23Z</time>
      </trkpt>
      <trkpt lat="44.3751" lon="6.78248">
        <ele>1889</ele>
        <time>2020-09-15T11:10:28Z</time>
      </trkpt>
      <trkpt lat="44.37491" lon="6.78254">
        <ele>1891</ele>
        <time>2020-09-15T11:10:31Z</time>
      </trkpt>
      <trkpt lat="44.3739" lon="6.78255">
        <ele>1901</ele>
        <time>2020-09-15T11:10:49Z</time>
      </trkpt>
      <trkpt lat="44.37361" lon="6.78249">
        <ele>1903</ele>
        <time>2020-09-15T11:10:54Z</time>
      </trkpt>
      <trkpt lat="44.3734" lon="6.78237">
        <ele>1902</ele>
        <time>2020-09-15T11:10:58Z</time>
      </trkpt>
      <trkpt lat="44.37302" lon="6.78202">
        <ele>1900</ele>
        <time>2020-09-15T11:11:07Z</time>
      </trkpt>
      <trkpt lat="44.37285" lon="6.78193">
        <ele>1902</ele>
        <time>2020-09-15T11:11:10Z</time>
      </trkpt>
      <trkpt lat="44.37269" lon="6.78191">
        <ele>1906</ele>
        <time>2020-09-15T11:11:13Z</time>
      </trkpt>
      <trkpt lat="44.37228" lon="6.78204">
        <ele>1917</ele>
        <time>2020-09-15T11:11:20Z</time>
      </trkpt>
      <trkpt lat="44.3721" lon="6.78214">
        <ele>1921</ele>
        <time>2020-09-15T11:11:24Z</time>
      </trkpt>
      <trkpt lat="44.37172" lon="6.78217">
        <ele>1923</ele>
        <time>2020-09-15T11:11:30Z</time>
      </trkpt>
      <trkpt lat="44.37153" lon="6.78225">
        <ele>1925</ele>
        <time>2020-09-15T11:11:34Z</time>
      </trkpt>
      <trkpt lat="44.37134" lon="6.78237">
        <ele>1927</ele>
        <time>2020-09-15T11:11:38Z</time>
      </trkpt>
      <trkpt lat="44.37088" lon="6.78271">
        <ele>1931</ele>
        <time>2020-09-15T11:11:47Z</time>
      </trkpt>
      <trkpt lat="44.37057" lon="6.7831">
        <ele>1938</ele>
        <time>2020-09-15T11:11:54Z</time>
      </trkpt>
      <trkpt lat="44.37033" lon="6.78356">
        <ele>1943</ele>
        <time>2020-09-15T11:12:01Z</time>
      </trkpt>
      <trkpt lat="44.37016" lon="6.78396">
        <ele>1948</ele>
        <time>2020-09-15T11:12:07Z</time>
      </trkpt>
      <trkpt lat="44.37002" lon="6.78414">
        <ele>1948</ele>
        <time>2020-09-15T11:12:11Z</time>
      </trkpt>
      <trkpt lat="44.36956" lon="6.78461">
        <ele>1952</ele>
        <time>2020-09-15T11:12:21Z</time>
      </trkpt>
      <trkpt lat="44.3693" lon="6.78485">
        <ele>1953</ele>
        <time>2020-09-15T11:12:26Z</time>
      </trkpt>
      <trkpt lat="44.36924" lon="6.78508">
        <ele>1957</ele>
        <time>2020-09-15T11:12:30Z</time>
      </trkpt>
      <trkpt lat="44.36919" lon="6.78519">
        <ele>1959</ele>
        <time>2020-09-15T11:12:31Z</time>
      </trkpt>
      <trkpt lat="44.36911" lon="6.78529">
        <ele>1960</ele>
        <time>2020-09-15T11:12:33Z</time>
      </trkpt>
      <trkpt lat="44.36901" lon="6.78534">
        <ele>1961</ele>
        <time>2020-09-15T11:12:35Z</time>
      </trkpt>
      <trkpt lat="44.3687" lon="6.78543">
        <ele>1960</ele>
        <time>2020-09-15T11:12:41Z</time>
      </trkpt>
      <trkpt lat="44.36841" lon="6.78567">
        <ele>1964</ele>
        <time>2020-09-15T11:12:47Z</time>
      </trkpt>
      <trkpt lat="44.3682" lon="6.78591">
        <ele>1970</ele>
        <time>2020-09-15T11:12:51Z</time>
      </trkpt>
      <trkpt lat="44.36786" lon="6.786">
        <ele>1972</ele>
        <time>2020-09-15T11:12:58Z</time>
      </trkpt>
      <trkpt lat="44.36742" lon="6.7863">
        <ele>1978</ele>
        <time>2020-09-15T11:13:06Z</time>
      </trkpt>
      <trkpt lat="44.36719" lon="6.78639">
        <ele>1979</ele>
        <time>2020-09-15T11:13:11Z</time>
      </trkpt>
      <trkpt lat="44.36674" lon="6.78648">
        <ele>1980</ele>
        <time>2020-09-15T11:13:19Z</time>
      </trkpt>
      <trkpt lat="44.36656" lon="6.78656">
        <ele>1980</ele>
        <time>2020-09-15T11:13:22Z</time>
      </trkpt>
      <trkpt lat="44.36651" lon="6.7866">
        <ele>1980</ele>
        <time>2020-09-15T11:13:23Z</time>
      </trkpt>
      <trkpt lat="44.36648" lon="6.78666">
        <ele>1981</ele>
        <time>2020-09-15T11:13:24Z</time>
      </trkpt>
      <trkpt lat="44.36649" lon="6.78679">
        <ele>1984</ele>
        <time>2020-09-15T11:13:26Z</time>
      </trkpt>
      <trkpt lat="44.36656" lon="6.78682">
        <ele>1986</ele>
        <time>2020-09-15T11:13:27Z</time>
      </trkpt>
      <trkpt lat="44.36674" lon="6.78673">
        <ele>1985</ele>
        <time>2020-09-15T11:13:30Z</time>
      </trkpt>
      <trkpt lat="44.36689" lon="6.78672">
        <ele>1985</ele>
        <time>2020-09-15T11:13:33Z</time>
      </trkpt>
      <trkpt lat="44.367" lon="6.78675">
        <ele>1986</ele>
        <time>2020-09-15T11:13:35Z</time>
      </trkpt>
      <trkpt lat="44.36724" lon="6.78688">
        <ele>1991</ele>
        <time>2020-09-15T11:13:40Z</time>
      </trkpt>
      <trkpt lat="44.36731" lon="6.78689">
        <ele>1992</ele>
        <time>2020-09-15T11:13:41Z</time>
      </trkpt>
      <trkpt lat="44.3674" lon="6.78688">
        <ele>1992</ele>
        <time>2020-09-15T11:13:42Z</time>
      </trkpt>
      <trkpt lat="44.36757" lon="6.78678">
        <ele>1990</ele>
        <time>2020-09-15T11:13:46Z</time>
      </trkpt>
      <trkpt lat="44.36771" lon="6.78675">
        <ele>1991</ele>
        <time>2020-09-15T11:13:48Z</time>
      </trkpt>
      <trkpt lat="44.36821" lon="6.78681">
        <ele>1998</ele>
        <time>2020-09-15T11:13:57Z</time>
      </trkpt>
      <trkpt lat="44.36873" lon="6.78679">
        <ele>2002</ele>
        <time>2020-09-15T11:14:06Z</time>
      </trkpt>
      <trkpt lat="44.36877" lon="6.78681">
        <ele>2003</ele>
        <time>2020-09-15T11:14:07Z</time>
      </trkpt>
      <trkpt lat="44.36879" lon="6.78689">
        <ele>2005</ele>
        <time>2020-09-15T11:14:08Z</time>
      </trkpt>
      <trkpt lat="44.36875" lon="6.78698">
        <ele>2008</ele>
        <time>2020-09-15T11:14:10Z</time>
      </trkpt>
      <trkpt lat="44.36845" lon="6.78705">
        <ele>2008</ele>
        <time>2020-09-15T11:14:15Z</time>
      </trkpt>
      <trkpt lat="44.36803" lon="6.7872">
        <ele>2009</ele>
        <time>2020-09-15T11:14:23Z</time>
      </trkpt>
      <trkpt lat="44.36788" lon="6.78729">
        <ele>2010</ele>
        <time>2020-09-15T11:14:26Z</time>
      </trkpt>
      <trkpt lat="44.36775" lon="6.78742">
        <ele>2013</ele>
        <time>2020-09-15T11:14:29Z</time>
      </trkpt>
      <trkpt lat="44.36745" lon="6.78757">
        <ele>2014</ele>
        <time>2020-09-15T11:14:34Z</time>
      </trkpt>
      <trkpt lat="44.36735" lon="6.78764">
        <ele>2015</ele>
        <time>2020-09-15T11:14:36Z</time>
      </trkpt>
      <trkpt lat="44.36704" lon="6.78801">
        <ele>2020</ele>
        <time>2020-09-15T11:14:43Z</time>
      </trkpt>
      <trkpt lat="44.36687" lon="6.7883">
        <ele>2026</ele>
        <time>2020-09-15T11:14:48Z</time>
      </trkpt>
      <trkpt lat="44.36677" lon="6.78839">
        <ele>2028</ele>
        <time>2020-09-15T11:14:50Z</time>
      </trkpt>
      <trkpt lat="44.36644" lon="6.7885">
        <ele>2031</ele>
        <time>2020-09-15T11:14:56Z</time>
      </trkpt>
      <trkpt lat="44.36631" lon="6.7886">
        <ele>2035</ele>
        <time>2020-09-15T11:14:59Z</time>
      </trkpt>
      <trkpt lat="44.36619" lon="6.78866">
        <ele>2038</ele>
        <time>2020-09-15T11:15:01Z</time>
      </trkpt>
      <trkpt lat="44.36602" lon="6.78869">
        <ele>2040</ele>
        <time>2020-09-15T11:15:04Z</time>
      </trkpt>
      <trkpt lat="44.36582" lon="6.78862">
        <ele>2037</ele>
        <time>2020-09-15T11:15:08Z</time>
      </trkpt>
      <trkpt lat="44.36546" lon="6.78861">
        <ele>2044</ele>
        <time>2020-09-15T11:15:14Z</time>
      </trkpt>
      <trkpt lat="44.36525" lon="6.78855">
        <ele>2045</ele>
        <time>2020-09-15T11:15:18Z</time>
      </trkpt>
      <trkpt lat="44.36507" lon="6.78845">
        <ele>2045</ele>
        <time>2020-09-15T11:15:22Z</time>
      </trkpt>
      <trkpt lat="44.36496" lon="6.78833">
        <ele>2042</ele>
        <time>2020-09-15T11:15:24Z</time>
      </trkpt>
      <trkpt lat="44.36481" lon="6.7881">
        <ele>2038</ele>
        <time>2020-09-15T11:15:28Z</time>
      </trkpt>
      <trkpt lat="44.36463" lon="6.78796">
        <ele>2037</ele>
        <time>2020-09-15T11:15:32Z</time>
      </trkpt>
      <trkpt lat="44.36454" lon="6.78793">
        <ele>2038</ele>
        <time>2020-09-15T11:15:33Z</time>
      </trkpt>
      <trkpt lat="44.36443" lon="6.78794">
        <ele>2041</ele>
        <time>2020-09-15T11:15:35Z</time>
      </trkpt>
      <trkpt lat="44.36406" lon="6.7881">
        <ele>2054</ele>
        <time>2020-09-15T11:15:42Z</time>
      </trkpt>
      <trkpt lat="44.36398" lon="6.7881">
        <ele>2054</ele>
        <time>2020-09-15T11:15:44Z</time>
      </trkpt>
      <trkpt lat="44.36384" lon="6.78803">
        <ele>2053</ele>
        <time>2020-09-15T11:15:46Z</time>
      </trkpt>
      <trkpt lat="44.36376" lon="6.78801">
        <ele>2052</ele>
        <time>2020-09-15T11:15:48Z</time>
      </trkpt>
      <trkpt lat="44.36334" lon="6.78817">
        <ele>2059</ele>
        <time>2020-09-15T11:15:56Z</time>
      </trkpt>
      <trkpt lat="44.36319" lon="6.78811">
        <ele>2058</ele>
        <time>2020-09-15T11:15:58Z</time>
      </trkpt>
      <trkpt lat="44.36277" lon="6.78784">
        <ele>2054</ele>
        <time>2020-09-15T11:16:07Z</time>
      </trkpt>
      <trkpt lat="44.36265" lon="6.78778">
        <ele>2054</ele>
        <time>2020-09-15T11:16:09Z</time>
      </trkpt>
      <trkpt lat="44.36197" lon="6.78756">
        <ele>2055</ele>
        <time>2020-09-15T11:16:21Z</time>
      </trkpt>
      <trkpt lat="44.36185" lon="6.7875">
        <ele>2054</ele>
        <time>2020-09-15T11:16:23Z</time>
      </trkpt>
      <trkpt lat="44.36163" lon="6.78732">
        <ele>2058</ele>
        <time>2020-09-15T11:16:28Z</time>
      </trkpt>
      <trkpt lat="44.36145" lon="6.78711">
        <ele>2065</ele>
        <time>2020-09-15T11:16:32Z</time>
      </trkpt>
      <trkpt lat="44.36126" lon="6.78683">
        <ele>2070</ele>
        <time>2020-09-15T11:16:37Z</time>
      </trkpt>
      <trkpt lat="44.36117" lon="6.78661">
        <ele>2072</ele>
        <time>2020-09-15T11:16:40Z</time>
      </trkpt>
      <trkpt lat="44.36113" lon="6.78633">
        <ele>2074</ele>
        <time>2020-09-15T11:16:44Z</time>
      </trkpt>
      <trkpt lat="44.3611" lon="6.7862">
        <ele>2074</ele>
        <time>2020-09-15T11:16:46Z</time>
      </trkpt>
      <trkpt lat="44.36103" lon="6.78607">
        <ele>2075</ele>
        <time>2020-09-15T11:16:48Z</time>
      </trkpt>
      <trkpt lat="44.36081" lon="6.78589">
        <ele>2074</ele>
        <time>2020-09-15T11:16:52Z</time>
      </trkpt>
      <trkpt lat="44.36058" lon="6.78563">
        <ele>2078</ele>
        <time>2020-09-15T11:16:58Z</time>
      </trkpt>
      <trkpt lat="44.3603" lon="6.78552">
        <ele>2080</ele>
        <time>2020-09-15T11:17:03Z</time>
      </trkpt>
      <trkpt lat="44.36027" lon="6.78543">
        <ele>2080</ele>
        <time>2020-09-15T11:17:04Z</time>
      </trkpt>
      <trkpt lat="44.36021" lon="6.78509">
        <ele>2079</ele>
        <time>2020-09-15T11:17:08Z</time>
      </trkpt>
      <trkpt lat="44.36018" lon="6.78488">
        <ele>2080</ele>
        <time>2020-09-15T11:17:11Z</time>
      </trkpt>
      <trkpt lat="44.36011" lon="6.78463">
        <ele>2082</ele>
        <time>2020-09-15T11:17:15Z</time>
      </trkpt>
      <trkpt lat="44.36001" lon="6.78444">
        <ele>2082</ele>
        <time>2020-09-15T11:17:18Z</time>
      </trkpt>
      <trkpt lat="44.35953" lon="6.78379">
        <ele>2087</ele>
        <time>2020-09-15T11:17:29Z</time>
      </trkpt>
      <trkpt lat="44.35899" lon="6.78311">
        <ele>2094</ele>
        <time>2020-09-15T11:17:42Z</time>
      </trkpt>
      <trkpt lat="44.35887" lon="6.783">
        <ele>2095</ele>
        <time>2020-09-15T11:17:45Z</time>
      </trkpt>
      <trkpt lat="44.35873" lon="6.78296">
        <ele>2096</ele>
        <time>2020-09-15T11:17:47Z</time>
      </trkpt>
      <trkpt lat="44.35859" lon="6.78306">
        <ele>2094</ele>
        <time>2020-09-15T11:17:50Z</time>
      </trkpt>
      <trkpt lat="44.35828" lon="6.78346">
        <ele>2089</ele>
        <time>2020-09-15T11:17:58Z</time>
      </trkpt>
      <trkpt lat="44.3581" lon="6.78357">
        <ele>2091</ele>
        <time>2020-09-15T11:18:01Z</time>
      </trkpt>
      <trkpt lat="44.35793" lon="6.78361">
        <ele>2093</ele>
        <time>2020-09-15T11:18:04Z</time>
      </trkpt>
      <trkpt lat="44.35705" lon="6.78339">
        <ele>2100</ele>
        <time>2020-09-15T11:18:20Z</time>
      </trkpt>
      <trkpt lat="44.35681" lon="6.78328">
        <ele>2103</ele>
        <time>2020-09-15T11:18:25Z</time>
      </trkpt>
      <trkpt lat="44.35604" lon="6.78269">
        <ele>2117</ele>
        <time>2020-09-15T11:18:40Z</time>
      </trkpt>
      <trkpt lat="44.35569" lon="6.78257">
        <ele>2120</ele>
        <time>2020-09-15T11:18:47Z</time>
      </trkpt>
      <trkpt lat="44.35552" lon="6.78255">
        <ele>2123</ele>
        <time>2020-09-15T11:18:50Z</time>
      </trkpt>
      <trkpt lat="44.35536" lon="6.78256">
        <ele>2124</ele>
        <time>2020-09-15T11:18:53Z</time>
      </trkpt>
      <trkpt lat="44.35512" lon="6.78263">
        <ele>2125</ele>
        <time>2020-09-15T11:18:57Z</time>
      </trkpt>
      <trkpt lat="44.35495" lon="6.78273">
        <ele>2126</ele>
        <time>2020-09-15T11:19:00Z</time>
      </trkpt>
      <trkpt lat="44.35449" lon="6.78326">
        <ele>2125</ele>
        <time>2020-09-15T11:19:11Z</time>
      </trkpt>
      <trkpt lat="44.35431" lon="6.78334">
        <ele>2126</ele>
        <time>2020-09-15T11:19:14Z</time>
      </trkpt>
      <trkpt lat="44.35407" lon="6.78336">
        <ele>2130</ele>
        <time>2020-09-15T11:19:19Z</time>
      </trkpt>
      <trkpt lat="44.35373" lon="6.78353">
        <ele>2133</ele>
        <time>2020-09-15T11:19:25Z</time>
      </trkpt>
      <trkpt lat="44.35347" lon="6.78359">
        <ele>2136</ele>
        <time>2020-09-15T11:19:30Z</time>
      </trkpt>
      <trkpt lat="44.35309" lon="6.78353">
        <ele>2141</ele>
        <time>2020-09-15T11:19:36Z</time>
      </trkpt>
      <trkpt lat="44.3526" lon="6.78317">
        <ele>2147</ele>
        <time>2020-09-15T11:19:46Z</time>
      </trkpt>
      <trkpt lat="44.35218" lon="6.78281">
        <ele>2154</ele>
        <time>2020-09-15T11:19:55Z</time>
      </trkpt>
      <trkpt lat="44.35198" lon="6.78268">
        <ele>2157</ele>
        <time>2020-09-15T11:19:59Z</time>
      </trkpt>
      <trkpt lat="44.35182" lon="6.78264">
        <ele>2159</ele>
        <time>2020-09-15T11:20:02Z</time>
      </trkpt>
      <trkpt lat="44.35169" lon="6.78269">
        <ele>2161</ele>
        <time>2020-09-15T11:20:04Z</time>
      </trkpt>
      <trkpt lat="44.35161" lon="6.78276">
        <ele>2162</ele>
        <time>2020-09-15T11:20:06Z</time>
      </trkpt>
      <trkpt lat="44.35157" lon="6.78285">
        <ele>2162</ele>
        <time>2020-09-15T11:20:07Z</time>
      </trkpt>
      <trkpt lat="44.35153" lon="6.78301">
        <ele>2162</ele>
        <time>2020-09-15T11:20:09Z</time>
      </trkpt>
      <trkpt lat="44.35151" lon="6.78335">
        <ele>2162</ele>
        <time>2020-09-15T11:20:14Z</time>
      </trkpt>
      <trkpt lat="44.35152" lon="6.78399">
        <ele>2167</ele>
        <time>2020-09-15T11:20:22Z</time>
      </trkpt>
      <trkpt lat="44.3514" lon="6.78431">
        <ele>2172</ele>
        <time>2020-09-15T11:20:27Z</time>
      </trkpt>
      <trkpt lat="44.35139" lon="6.78444">
        <ele>2173</ele>
        <time>2020-09-15T11:20:28Z</time>
      </trkpt>
      <trkpt lat="44.35143" lon="6.78457">
        <ele>2173</ele>
        <time>2020-09-15T11:20:30Z</time>
      </trkpt>
      <trkpt lat="44.35167" lon="6.78475">
        <ele>2169</ele>
        <time>2020-09-15T11:20:35Z</time>
      </trkpt>
      <trkpt lat="44.35173" lon="6.78487">
        <ele>2169</ele>
        <time>2020-09-15T11:20:37Z</time>
      </trkpt>
      <trkpt lat="44.35173" lon="6.78495">
        <ele>2170</ele>
        <time>2020-09-15T11:20:38Z</time>
      </trkpt>
      <trkpt lat="44.3517" lon="6.78503">
        <ele>2170</ele>
        <time>2020-09-15T11:20:39Z</time>
      </trkpt>
      <trkpt lat="44.35162" lon="6.78509">
        <ele>2172</ele>
        <time>2020-09-15T11:20:41Z</time>
      </trkpt>
      <trkpt lat="44.35155" lon="6.78511">
        <ele>2174</ele>
        <time>2020-09-15T11:20:42Z</time>
      </trkpt>
      <trkpt lat="44.35112" lon="6.78488">
        <ele>2182</ele>
        <time>2020-09-15T11:20:50Z</time>
      </trkpt>
      <trkpt lat="44.35061" lon="6.78452">
        <ele>2190</ele>
        <time>2020-09-15T11:21:00Z</time>
      </trkpt>
      <trkpt lat="44.35054" lon="6.78441">
        <ele>2191</ele>
        <time>2020-09-15T11:21:02Z</time>
      </trkpt>
      <trkpt lat="44.3505" lon="6.78412">
        <ele>2188</ele>
        <time>2020-09-15T11:21:06Z</time>
      </trkpt>
      <trkpt lat="44.35044" lon="6.7839">
        <ele>2186</ele>
        <time>2020-09-15T11:21:09Z</time>
      </trkpt>
      <trkpt lat="44.35034" lon="6.78369">
        <ele>2186</ele>
        <time>2020-09-15T11:21:12Z</time>
      </trkpt>
      <trkpt lat="44.35023" lon="6.78351">
        <ele>2186</ele>
        <time>2020-09-15T11:21:15Z</time>
      </trkpt>
      <trkpt lat="44.35011" lon="6.78345">
        <ele>2187</ele>
        <time>2020-09-15T11:21:17Z</time>
      </trkpt>
      <trkpt lat="44.34999" lon="6.78344">
        <ele>2190</ele>
        <time>2020-09-15T11:21:19Z</time>
      </trkpt>
      <trkpt lat="44.34959" lon="6.78353">
        <ele>2197</ele>
        <time>2020-09-15T11:21:27Z</time>
      </trkpt>
      <trkpt lat="44.34877" lon="6.78356">
        <ele>2213</ele>
        <time>2020-09-15T11:21:41Z</time>
      </trkpt>
      <trkpt lat="44.34867" lon="6.78361">
        <ele>2216</ele>
        <time>2020-09-15T11:21:43Z</time>
      </trkpt>
      <trkpt lat="44.34865" lon="6.78378">
        <ele>2220</ele>
        <time>2020-09-15T11:21:45Z</time>
      </trkpt>
      <trkpt lat="44.34868" lon="6.78388">
        <ele>2221</ele>
        <time>2020-09-15T11:21:47Z</time>
      </trkpt>
      <trkpt lat="44.34878" lon="6.78404">
        <ele>2221</ele>
        <time>2020-09-15T11:21:49Z</time>
      </trkpt>
      <trkpt lat="44.34915" lon="6.78453">
        <ele>2225</ele>
        <time>2020-09-15T11:21:58Z</time>
      </trkpt>
      <trkpt lat="44.34982" lon="6.78513">
        <ele>2223</ele>
        <time>2020-09-15T11:22:13Z</time>
      </trkpt>
      <trkpt lat="44.34986" lon="6.7852">
        <ele>2223</ele>
        <time>2020-09-15T11:22:14Z</time>
      </trkpt>
      <trkpt lat="44.34986" lon="6.78528">
        <ele>2225</ele>
        <time>2020-09-15T11:22:15Z</time>
      </trkpt>
      <trkpt lat="44.34984" lon="6.78532">
        <ele>2226</ele>
        <time>2020-09-15T11:22:15Z</time>
      </trkpt>
      <trkpt lat="44.34979" lon="6.78533">
        <ele>2228</ele>
        <time>2020-09-15T11:22:16Z</time>
      </trkpt>
      <trkpt lat="44.34924" lon="6.78493">
        <ele>2234</ele>
        <time>2020-09-15T11:22:27Z</time>
      </trkpt>
      <trkpt lat="44.34911" lon="6.7849">
        <ele>2236</ele>
        <time>2020-09-15T11:22:30Z</time>
      </trkpt>
      <trkpt lat="44.34865" lon="6.78489">
        <ele>2243</ele>
        <time>2020-09-15T11:22:38Z</time>
      </trkpt>
      <trkpt lat="44.34847" lon="6.78483">
        <ele>2245</ele>
        <time>2020-09-15T11:22:41Z</time>
      </trkpt>
      <trkpt lat="44.34838" lon="6.78469">
        <ele>2244</ele>
        <time>2020-09-15T11:22:44Z</time>
      </trkpt>
      <trkpt lat="44.34833" lon="6.78453">
        <ele>2242</ele>
        <time>2020-09-15T11:22:46Z</time>
      </trkpt>
      <trkpt lat="44.34826" lon="6.78424">
        <ele>2240</ele>
        <time>2020-09-15T11:22:50Z</time>
      </trkpt>
      <trkpt lat="44.34822" lon="6.78421">
        <ele>2241</ele>
        <time>2020-09-15T11:22:50Z</time>
      </trkpt>
      <trkpt lat="44.34817" lon="6.78421">
        <ele>2243</ele>
        <time>2020-09-15T11:22:51Z</time>
      </trkpt>
      <trkpt lat="44.34813" lon="6.78426">
        <ele>2246</ele>
        <time>2020-09-15T11:22:52Z</time>
      </trkpt>
      <trkpt lat="44.34812" lon="6.78453">
        <ele>2249</ele>
        <time>2020-09-15T11:22:56Z</time>
      </trkpt>
      <trkpt lat="44.34808" lon="6.78468">
        <ele>2252</ele>
        <time>2020-09-15T11:22:58Z</time>
      </trkpt>
      <trkpt lat="44.34773" lon="6.78517">
        <ele>2264</ele>
        <time>2020-09-15T11:23:07Z</time>
      </trkpt>
      <trkpt lat="44.3477" lon="6.78532">
        <ele>2266</ele>
        <time>2020-09-15T11:23:09Z</time>
      </trkpt>
      <trkpt lat="44.34772" lon="6.78548">
        <ele>2266</ele>
        <time>2020-09-15T11:23:11Z</time>
      </trkpt>
      <trkpt lat="44.34778" lon="6.78557">
        <ele>2266</ele>
        <time>2020-09-15T11:23:12Z</time>
      </trkpt>
      <trkpt lat="44.34789" lon="6.78559">
        <ele>2265</ele>
        <time>2020-09-15T11:23:14Z</time>
      </trkpt>
      <trkpt lat="44.34816" lon="6.7855">
        <ele>2261</ele>
        <time>2020-09-15T11:23:19Z</time>
      </trkpt>
      <trkpt lat="44.34827" lon="6.78549">
        <ele>2260</ele>
        <time>2020-09-15T11:23:21Z</time>
      </trkpt>
      <trkpt lat="44.34832" lon="6.78552">
        <ele>2260</ele>
        <time>2020-09-15T11:23:22Z</time>
      </trkpt>
      <trkpt lat="44.34835" lon="6.78559">
        <ele>2261</ele>
        <time>2020-09-15T11:23:23Z</time>
      </trkpt>
      <trkpt lat="44.34836" lon="6.78568">
        <ele>2262</ele>
        <time>2020-09-15T11:23:24Z</time>
      </trkpt>
      <trkpt lat="44.34832" lon="6.78579">
        <ele>2264</ele>
        <time>2020-09-15T11:23:26Z</time>
      </trkpt>
      <trkpt lat="44.34816" lon="6.78599">
        <ele>2267</ele>
        <time>2020-09-15T11:23:30Z</time>
      </trkpt>
      <trkpt lat="44.34756" lon="6.78667">
        <ele>2278</ele>
        <time>2020-09-15T11:23:43Z</time>
      </trkpt>
      <trkpt lat="44.34722" lon="6.78702">
        <ele>2279</ele>
        <time>2020-09-15T11:23:51Z</time>
      </trkpt>
      <trkpt lat="44.34708" lon="6.78709">
        <ele>2280</ele>
        <time>2020-09-15T11:23:54Z</time>
      </trkpt>
      <trkpt lat="44.34694" lon="6.78711">
        <ele>2281</ele>
        <time>2020-09-15T11:23:56Z</time>
      </trkpt>
      <trkpt lat="44.34678" lon="6.78707">
        <ele>2283</ele>
        <time>2020-09-15T11:23:59Z</time>
      </trkpt>
      <trkpt lat="44.34606" lon="6.78663">
        <ele>2289</ele>
        <time>2020-09-15T11:24:13Z</time>
      </trkpt>
      <trkpt lat="44.34581" lon="6.78645">
        <ele>2291</ele>
        <time>2020-09-15T11:24:18Z</time>
      </trkpt>
      <trkpt lat="44.34567" lon="6.78632">
        <ele>2292</ele>
        <time>2020-09-15T11:24:21Z</time>
      </trkpt>
      <trkpt lat="44.34526" lon="6.7858">
        <ele>2295</ele>
        <time>2020-09-15T11:24:31Z</time>
      </trkpt>
      <trkpt lat="44.34504" lon="6.78564">
        <ele>2296</ele>
        <time>2020-09-15T11:24:35Z</time>
      </trkpt>
      <trkpt lat="44.34495" lon="6.78554">
        <ele>2298</ele>
        <time>2020-09-15T11:24:37Z</time>
      </trkpt>
      <trkpt lat="44.34491" lon="6.78531">
        <ele>2301</ele>
        <time>2020-09-15T11:24:40Z</time>
      </trkpt>
      <trkpt lat="44.34497" lon="6.78481">
        <ele>2306</ele>
        <time>2020-09-15T11:24:47Z</time>
      </trkpt>
      <trkpt lat="44.34493" lon="6.78464">
        <ele>2308</ele>
        <time>2020-09-15T11:24:49Z</time>
      </trkpt>
      <trkpt lat="44.34488" lon="6.78455">
        <ele>2309</ele>
        <time>2020-09-15T11:24:50Z</time>
      </trkpt>
      <trkpt lat="44.34477" lon="6.78452">
        <ele>2311</ele>
        <time>2020-09-15T11:24:52Z</time>
      </trkpt>
      <trkpt lat="44.34454" lon="6.78451">
        <ele>2313</ele>
        <time>2020-09-15T11:24:56Z</time>
      </trkpt>
      <trkpt lat="44.34418" lon="6.78445">
        <ele>2317</ele>
        <time>2020-09-15T11:25:03Z</time>
      </trkpt>
      <trkpt lat="44.34404" lon="6.78448">
        <ele>2318</ele>
        <time>2020-09-15T11:25:05Z</time>
      </trkpt>
      <trkpt lat="44.34375" lon="6.7846">
        <ele>2318</ele>
        <time>2020-09-15T11:25:11Z</time>
      </trkpt>
      <trkpt lat="44.34359" lon="6.78463">
        <ele>2319</ele>
        <time>2020-09-15T11:25:14Z</time>
      </trkpt>
      <trkpt lat="44.34346" lon="6.78462">
        <ele>2321</ele>
        <time>2020-09-15T11:25:16Z</time>
      </trkpt>
      <trkpt lat="44.3433" lon="6.78452">
        <ele>2323</ele>
        <time>2020-09-15T11:25:19Z</time>
      </trkpt>
      <trkpt lat="44.34317" lon="6.78438">
        <ele>2325</ele>
        <time>2020-09-15T11:25:22Z</time>
      </trkpt>
      <trkpt lat="44.3431" lon="6.78429">
        <ele>2326</ele>
        <time>2020-09-15T11:25:24Z</time>
      </trkpt>
      <trkpt lat="44.34307" lon="6.78418">
        <ele>2327</ele>
        <time>2020-09-15T11:25:25Z</time>
      </trkpt>
      <trkpt lat="44.34309" lon="6.7839">
        <ele>2329</ele>
        <time>2020-09-15T11:25:29Z</time>
      </trkpt>
      <trkpt lat="44.34312" lon="6.78375">
        <ele>2330</ele>
        <time>2020-09-15T11:25:31Z</time>
      </trkpt>
      <trkpt lat="44.34317" lon="6.78346">
        <ele>2333</ele>
        <time>2020-09-15T11:25:35Z</time>
      </trkpt>
      <trkpt lat="44.34319" lon="6.78324">
        <ele>2335</ele>
        <time>2020-09-15T11:25:37Z</time>
      </trkpt>
      <trkpt lat="44.34318" lon="6.78313">
        <ele>2336</ele>
        <time>2020-09-15T11:25:39Z</time>
      </trkpt>
      <trkpt lat="44.34315" lon="6.783">
        <ele>2337</ele>
        <time>2020-09-15T11:25:41Z</time>
      </trkpt>
      <trkpt lat="44.34278" lon="6.78231">
        <ele>2341</ele>
        <time>2020-09-15T11:25:52Z</time>
      </trkpt>
      <trkpt lat="44.3426" lon="6.78221">
        <ele>2340</ele>
        <time>2020-09-15T11:25:55Z</time>
      </trkpt>
      <trkpt lat="44.34202" lon="6.78215">
        <ele>2343</ele>
        <time>2020-09-15T11:26:05Z</time>
      </trkpt>
      <trkpt lat="44.34188" lon="6.78219">
        <ele>2343</ele>
        <time>2020-09-15T11:26:08Z</time>
      </trkpt>
      <trkpt lat="44.34112" lon="6.78255">
        <ele>2342</ele>
        <time>2020-09-15T11:26:22Z</time>
      </trkpt>
      <trkpt lat="44.34027" lon="6.7827">
        <ele>2351</ele>
        <time>2020-09-15T11:26:37Z</time>
      </trkpt>
      <trkpt lat="44.34013" lon="6.78268">
        <ele>2352</ele>
        <time>2020-09-15T11:26:40Z</time>
      </trkpt>
      <trkpt lat="44.3399" lon="6.78255">
        <ele>2356</ele>
        <time>2020-09-15T11:26:44Z</time>
      </trkpt>
      <trkpt lat="44.33973" lon="6.7825">
        <ele>2360</ele>
        <time>2020-09-15T11:26:47Z</time>
      </trkpt>
      <trkpt lat="44.33963" lon="6.7825">
        <ele>2361</ele>
        <time>2020-09-15T11:26:49Z</time>
      </trkpt>
      <trkpt lat="44.33949" lon="6.78258">
        <ele>2363</ele>
        <time>2020-09-15T11:26:52Z</time>
      </trkpt>
      <trkpt lat="44.33912" lon="6.7829">
        <ele>2365</ele>
        <time>2020-09-15T11:27:00Z</time>
      </trkpt>
      <trkpt lat="44.33901" lon="6.78304">
        <ele>2365</ele>
        <time>2020-09-15T11:27:02Z</time>
      </trkpt>
      <trkpt lat="44.33861" lon="6.78395">
        <ele>2367</ele>
        <time>2020-09-15T11:27:16Z</time>
      </trkpt>
      <trkpt lat="44.33852" lon="6.78406">
        <ele>2368</ele>
        <time>2020-09-15T11:27:18Z</time>
      </trkpt>
      <trkpt lat="44.3384" lon="6.78415">
        <ele>2369</ele>
        <time>2020-09-15T11:27:20Z</time>
      </trkpt>
      <trkpt lat="44.33811" lon="6.78426">
        <ele>2373</ele>
        <time>2020-09-15T11:27:26Z</time>
      </trkpt>
      <trkpt lat="44.33803" lon="6.78433">
        <ele>2374</ele>
        <time>2020-09-15T11:27:27Z</time>
      </trkpt>
      <trkpt lat="44.33801" lon="6.78442">
        <ele>2375</ele>
        <time>2020-09-15T11:27:29Z</time>
      </trkpt>
      <trkpt lat="44.33803" lon="6.78456">
        <ele>2375</ele>
        <time>2020-09-15T11:27:30Z</time>
      </trkpt>
      <trkpt lat="44.33806" lon="6.78464">
        <ele>2375</ele>
        <time>2020-09-15T11:27:32Z</time>
      </trkpt>
      <trkpt lat="44.33817" lon="6.78472">
        <ele>2373</ele>
        <time>2020-09-15T11:27:34Z</time>
      </trkpt>
      <trkpt lat="44.33831" lon="6.78477">
        <ele>2371</ele>
        <time>2020-09-15T11:27:36Z</time>
      </trkpt>
      <trkpt lat="44.3384" lon="6.78486">
        <ele>2370</ele>
        <time>2020-09-15T11:27:38Z</time>
      </trkpt>
      <trkpt lat="44.33845" lon="6.78498">
        <ele>2370</ele>
        <time>2020-09-15T11:27:40Z</time>
      </trkpt>
      <trkpt lat="44.33846" lon="6.78511">
        <ele>2370</ele>
        <time>2020-09-15T11:27:42Z</time>
      </trkpt>
      <trkpt lat="44.33839" lon="6.78537">
        <ele>2371</ele>
        <time>2020-09-15T11:27:45Z</time>
      </trkpt>
      <trkpt lat="44.33838" lon="6.78564">
        <ele>2371</ele>
        <time>2020-09-15T11:27:49Z</time>
      </trkpt>
      <trkpt lat="44.33843" lon="6.78588">
        <ele>2371</ele>
        <time>2020-09-15T11:27:52Z</time>
      </trkpt>
      <trkpt lat="44.33842" lon="6.78604">
        <ele>2371</ele>
        <time>2020-09-15T11:27:54Z</time>
      </trkpt>
      <trkpt lat="44.33838" lon="6.78617">
        <ele>2371</ele>
        <time>2020-09-15T11:27:56Z</time>
      </trkpt>
      <trkpt lat="44.33772" lon="6.78711">
        <ele>2386</ele>
        <time>2020-09-15T11:28:13Z</time>
      </trkpt>
      <trkpt lat="44.33761" lon="6.78732">
        <ele>2389</ele>
        <time>2020-09-15T11:28:16Z</time>
      </trkpt>
      <trkpt lat="44.33754" lon="6.78752">
        <ele>2390</ele>
        <time>2020-09-15T11:28:19Z</time>
      </trkpt>
      <trkpt lat="44.33753" lon="6.78767">
        <ele>2391</ele>
        <time>2020-09-15T11:28:21Z</time>
      </trkpt>
      <trkpt lat="44.33757" lon="6.78785">
        <ele>2391</ele>
        <time>2020-09-15T11:28:23Z</time>
      </trkpt>
      <trkpt lat="44.33765" lon="6.78802">
        <ele>2390</ele>
        <time>2020-09-15T11:28:26Z</time>
      </trkpt>
      <trkpt lat="44.33771" lon="6.78819">
        <ele>2390</ele>
        <time>2020-09-15T11:28:28Z</time>
      </trkpt>
      <trkpt lat="44.33772" lon="6.78833">
        <ele>2390</ele>
        <time>2020-09-15T11:28:30Z</time>
      </trkpt>
      <trkpt lat="44.33766" lon="6.78868">
        <ele>2392</ele>
        <time>2020-09-15T11:28:34Z</time>
      </trkpt>
      <trkpt lat="44.33764" lon="6.78893">
        <ele>2393</ele>
        <time>2020-09-15T11:28:38Z</time>
      </trkpt>
      <trkpt lat="44.33768" lon="6.78915">
        <ele>2393</ele>
        <time>2020-09-15T11:28:40Z</time>
      </trkpt>
      <trkpt lat="44.33779" lon="6.78961">
        <ele>2393</ele>
        <time>2020-09-15T11:28:47Z</time>
      </trkpt>
      <trkpt lat="44.33783" lon="6.78999">
        <ele>2394</ele>
        <time>2020-09-15T11:28:52Z</time>
      </trkpt>
      <trkpt lat="44.33784" lon="6.79031">
        <ele>2397</ele>
        <time>2020-09-15T11:28:56Z</time>
      </trkpt>
      <trkpt lat="44.33782" lon="6.79059">
        <ele>2400</ele>
        <time>2020-09-15T11:28:59Z</time>
      </trkpt>
      <trkpt lat="44.33788" lon="6.79105">
        <ele>2403</ele>
        <time>2020-09-15T11:29:05Z</time>
      </trkpt>
      <trkpt lat="44.33792" lon="6.79167">
        <ele>2412</ele>
        <time>2020-09-15T11:29:13Z</time>
      </trkpt>
      <trkpt lat="44.33795" lon="6.79182">
        <ele>2415</ele>
        <time>2020-09-15T11:29:15Z</time>
      </trkpt>
      <trkpt lat="44.33803" lon="6.79192">
        <ele>2415</ele>
        <time>2020-09-15T11:29:17Z</time>
      </trkpt>
      <trkpt lat="44.33813" lon="6.79198">
        <ele>2414</ele>
        <time>2020-09-15T11:29:19Z</time>
      </trkpt>
      <trkpt lat="44.33825" lon="6.792">
        <ele>2411</ele>
        <time>2020-09-15T11:29:21Z</time>
      </trkpt>
      <trkpt lat="44.33832" lon="6.79198">
        <ele>2409</ele>
        <time>2020-09-15T11:29:22Z</time>
      </trkpt>
      <trkpt lat="44.33883" lon="6.79169">
        <ele>2409</ele>
        <time>2020-09-15T11:29:32Z</time>
      </trkpt>
      <trkpt lat="44.33973" lon="6.79152">
        <ele>2425</ele>
        <time>2020-09-15T11:29:48Z</time>
      </trkpt>
      <trkpt lat="44.33982" lon="6.79149">
        <ele>2427</ele>
        <time>2020-09-15T11:29:50Z</time>
      </trkpt>
      <trkpt lat="44.33991" lon="6.7914">
        <ele>2428</ele>
        <time>2020-09-15T11:29:52Z</time>
      </trkpt>
      <trkpt lat="44.34001" lon="6.79125">
        <ele>2428</ele>
        <time>2020-09-15T11:29:54Z</time>
      </trkpt>
      <trkpt lat="44.34026" lon="6.79072">
        <ele>2430</ele>
        <time>2020-09-15T11:30:03Z</time>
      </trkpt>
      <trkpt lat="44.34036" lon="6.79012">
        <ele>2428</ele>
        <time>2020-09-15T11:30:10Z</time>
      </trkpt>
      <trkpt lat="44.34046" lon="6.78987">
        <ele>2429</ele>
        <time>2020-09-15T11:30:14Z</time>
      </trkpt>
      <trkpt lat="44.34068" lon="6.78935">
        <ele>2428</ele>
        <time>2020-09-15T11:30:22Z</time>
      </trkpt>
      <trkpt lat="44.34079" lon="6.78915">
        <ele>2428</ele>
        <time>2020-09-15T11:30:25Z</time>
      </trkpt>
      <trkpt lat="44.34084" lon="6.78912">
        <ele>2429</ele>
        <time>2020-09-15T11:30:26Z</time>
      </trkpt>
      <trkpt lat="44.34089" lon="6.78914">
        <ele>2430</ele>
        <time>2020-09-15T11:30:27Z</time>
      </trkpt>
      <trkpt lat="44.34092" lon="6.78921">
        <ele>2432</ele>
        <time>2020-09-15T11:30:28Z</time>
      </trkpt>
      <trkpt lat="44.34092" lon="6.7893">
        <ele>2433</ele>
        <time>2020-09-15T11:30:29Z</time>
      </trkpt>
      <trkpt lat="44.34075" lon="6.78976">
        <ele>2438</ele>
        <time>2020-09-15T11:30:36Z</time>
      </trkpt>
      <trkpt lat="44.34074" lon="6.78995">
        <ele>2441</ele>
        <time>2020-09-15T11:30:38Z</time>
      </trkpt>
      <trkpt lat="44.34082" lon="6.79043">
        <ele>2447</ele>
        <time>2020-09-15T11:30:44Z</time>
      </trkpt>
      <trkpt lat="44.34081" lon="6.79075">
        <ele>2448</ele>
        <time>2020-09-15T11:30:48Z</time>
      </trkpt>
      <trkpt lat="44.34081" lon="6.7908">
        <ele>2448</ele>
        <time>2020-09-15T11:30:49Z</time>
      </trkpt>
      <trkpt lat="44.34082" lon="6.79134">
        <ele>2452</ele>
        <time>2020-09-15T11:30:56Z</time>
      </trkpt>
      <trkpt lat="44.34075" lon="6.7917">
        <ele>2453</ele>
        <time>2020-09-15T11:31:01Z</time>
      </trkpt>
      <trkpt lat="44.34054" lon="6.79207">
        <ele>2454</ele>
        <time>2020-09-15T11:31:07Z</time>
      </trkpt>
      <trkpt lat="44.34037" lon="6.79242">
        <ele>2456</ele>
        <time>2020-09-15T11:31:12Z</time>
      </trkpt>
      <trkpt lat="44.34003" lon="6.79295">
        <ele>2460</ele>
        <time>2020-09-15T11:31:21Z</time>
      </trkpt>
      <trkpt lat="44.33996" lon="6.79311">
        <ele>2461</ele>
        <time>2020-09-15T11:31:23Z</time>
      </trkpt>
      <trkpt lat="44.33994" lon="6.79325">
        <ele>2463</ele>
        <time>2020-09-15T11:31:25Z</time>
      </trkpt>
      <trkpt lat="44.33995" lon="6.79334">
        <ele>2465</ele>
        <time>2020-09-15T11:31:26Z</time>
      </trkpt>
      <trkpt lat="44.34" lon="6.79342">
        <ele>2467</ele>
        <time>2020-09-15T11:31:28Z</time>
      </trkpt>
      <trkpt lat="44.34007" lon="6.79349">
        <ele>2468</ele>
        <time>2020-09-15T11:31:29Z</time>
      </trkpt>
      <trkpt lat="44.34019" lon="6.79353">
        <ele>2470</ele>
        <time>2020-09-15T11:31:32Z</time>
      </trkpt>
      <trkpt lat="44.34061" lon="6.79354">
        <ele>2474</ele>
        <time>2020-09-15T11:31:39Z</time>
      </trkpt>
      <trkpt lat="44.34074" lon="6.7936">
        <ele>2476</ele>
        <time>2020-09-15T11:31:41Z</time>
      </trkpt>
      <trkpt lat="44.34085" lon="6.79371">
        <ele>2478</ele>
        <time>2020-09-15T11:31:44Z</time>
      </trkpt>
      <trkpt lat="44.34093" lon="6.79389">
        <ele>2480</ele>
        <time>2020-09-15T11:31:47Z</time>
      </trkpt>
      <trkpt lat="44.341" lon="6.79426">
        <ele>2484</ele>
        <time>2020-09-15T11:31:51Z</time>
      </trkpt>
      <trkpt lat="44.34104" lon="6.79436">
        <ele>2485</ele>
        <time>2020-09-15T11:31:53Z</time>
      </trkpt>
      <trkpt lat="44.34129" lon="6.79476">
        <ele>2492</ele>
        <time>2020-09-15T11:32:00Z</time>
      </trkpt>
      <trkpt lat="44.34139" lon="6.79483">
        <ele>2494</ele>
        <time>2020-09-15T11:32:02Z</time>
      </trkpt>
      <trkpt lat="44.34148" lon="6.79483">
        <ele>2495</ele>
        <time>2020-09-15T11:32:03Z</time>
      </trkpt>
      <trkpt lat="44.34177" lon="6.79475">
        <ele>2498</ele>
        <time>2020-09-15T11:32:09Z</time>
      </trkpt>
      <trkpt lat="44.34195" lon="6.79456">
        <ele>2498</ele>
        <time>2020-09-15T11:32:13Z</time>
      </trkpt>
      <trkpt lat="44.342" lon="6.79452">
        <ele>2498</ele>
        <time>2020-09-15T11:32:14Z</time>
      </trkpt>
      <trkpt lat="44.34206" lon="6.79449">
        <ele>2498</ele>
        <time>2020-09-15T11:32:15Z</time>
      </trkpt>
      <trkpt lat="44.34266" lon="6.79432">
        <ele>2503</ele>
        <time>2020-09-15T11:32:26Z</time>
      </trkpt>
      <trkpt lat="44.34309" lon="6.79421">
        <ele>2504</ele>
        <time>2020-09-15T11:32:33Z</time>
      </trkpt>
      <trkpt lat="44.34323" lon="6.79419">
        <ele>2505</ele>
        <time>2020-09-15T11:32:36Z</time>
      </trkpt>
      <trkpt lat="44.34363" lon="6.79438">
        <ele>2512</ele>
        <time>2020-09-15T11:32:43Z</time>
      </trkpt>
      <trkpt lat="44.34386" lon="6.79437">
        <ele>2513</ele>
        <time>2020-09-15T11:32:47Z</time>
      </trkpt>
      <trkpt lat="44.34392" lon="6.79445">
        <ele>2515</ele>
        <time>2020-09-15T11:32:49Z</time>
      </trkpt>
      <trkpt lat="44.34393" lon="6.79455">
        <ele>2518</ele>
        <time>2020-09-15T11:32:50Z</time>
      </trkpt>
      <trkpt lat="44.3439" lon="6.79461">
        <ele>2519</ele>
        <time>2020-09-15T11:32:51Z</time>
      </trkpt>
      <trkpt lat="44.34386" lon="6.79466">
        <ele>2520</ele>
        <time>2020-09-15T11:32:52Z</time>
      </trkpt>
      <trkpt lat="44.34378" lon="6.79468">
        <ele>2521</ele>
        <time>2020-09-15T11:32:54Z</time>
      </trkpt>
      <trkpt lat="44.3434" lon="6.79464">
        <ele>2518</ele>
        <time>2020-09-15T11:33:00Z</time>
      </trkpt>
      <trkpt lat="44.34331" lon="6.79466">
        <ele>2518</ele>
        <time>2020-09-15T11:33:02Z</time>
      </trkpt>
      <trkpt lat="44.34321" lon="6.79475">
        <ele>2519</ele>
        <time>2020-09-15T11:33:04Z</time>
      </trkpt>
      <trkpt lat="44.34287" lon="6.7952">
        <ele>2525</ele>
        <time>2020-09-15T11:33:12Z</time>
      </trkpt>
      <trkpt lat="44.34274" lon="6.79531">
        <ele>2525</ele>
        <time>2020-09-15T11:33:15Z</time>
      </trkpt>
      <trkpt lat="44.34256" lon="6.79538">
        <ele>2523</ele>
        <time>2020-09-15T11:33:18Z</time>
      </trkpt>
      <trkpt lat="44.34249" lon="6.79543">
        <ele>2523</ele>
        <time>2020-09-15T11:33:20Z</time>
      </trkpt>
      <trkpt lat="44.34246" lon="6.7955">
        <ele>2523</ele>
        <time>2020-09-15T11:33:21Z</time>
      </trkpt>
      <trkpt lat="44.34246" lon="6.79557">
        <ele>2525</ele>
        <time>2020-09-15T11:33:22Z</time>
      </trkpt>
      <trkpt lat="44.34247" lon="6.79562">
        <ele>2526</ele>
        <time>2020-09-15T11:33:22Z</time>
      </trkpt>
      <trkpt lat="44.34251" lon="6.79565">
        <ele>2527</ele>
        <time>2020-09-15T11:33:23Z</time>
      </trkpt>
      <trkpt lat="44.34263" lon="6.79565">
        <ele>2529</ele>
        <time>2020-09-15T11:33:25Z</time>
      </trkpt>
      <trkpt lat="44.34274" lon="6.7957">
        <ele>2532</ele>
        <time>2020-09-15T11:33:27Z</time>
      </trkpt>
      <trkpt lat="44.34295" lon="6.79595">
        <ele>2539</ele>
        <time>2020-09-15T11:33:32Z</time>
      </trkpt>
      <trkpt lat="44.34303" lon="6.79609">
        <ele>2541</ele>
        <time>2020-09-15T11:33:35Z</time>
      </trkpt>
      <trkpt lat="44.34317" lon="6.79649">
        <ele>2544</ele>
        <time>2020-09-15T11:33:40Z</time>
      </trkpt>
      <trkpt lat="44.34335" lon="6.7969">
        <ele>2546</ele>
        <time>2020-09-15T11:33:46Z</time>
      </trkpt>
      <trkpt lat="44.34341" lon="6.79714">
        <ele>2548</ele>
        <time>2020-09-15T11:33:50Z</time>
      </trkpt>
      <trkpt lat="44.3437" lon="6.79783">
        <ele>2554</ele>
        <time>2020-09-15T11:34:00Z</time>
      </trkpt>
      <trkpt lat="44.34374" lon="6.79796">
        <ele>2555</ele>
        <time>2020-09-15T11:34:02Z</time>
      </trkpt>
      <trkpt lat="44.34375" lon="6.79813">
        <ele>2555</ele>
        <time>2020-09-15T11:34:04Z</time>
      </trkpt>
      <trkpt lat="44.34376" lon="6.7982">
        <ele>2555</ele>
        <time>2020-09-15T11:34:05Z</time>
      </trkpt>
      <trkpt lat="44.34381" lon="6.79823">
        <ele>2557</ele>
        <time>2020-09-15T11:34:06Z</time>
      </trkpt>
      <trkpt lat="44.34387" lon="6.79821">
        <ele>2558</ele>
        <time>2020-09-15T11:34:07Z</time>
      </trkpt>
      <trkpt lat="44.34406" lon="6.7976">
        <ele>2562</ele>
        <time>2020-09-15T11:34:15Z</time>
      </trkpt>
      <trkpt lat="44.34404" lon="6.79748">
        <ele>2561</ele>
        <time>2020-09-15T11:34:17Z</time>
      </trkpt>
      <trkpt lat="44.34387" lon="6.79714">
        <ele>2557</ele>
        <time>2020-09-15T11:34:22Z</time>
      </trkpt>
      <trkpt lat="44.34384" lon="6.79702">
        <ele>2556</ele>
        <time>2020-09-15T11:34:24Z</time>
      </trkpt>
      <trkpt lat="44.34387" lon="6.79686">
        <ele>2557</ele>
        <time>2020-09-15T11:34:26Z</time>
      </trkpt>
      <trkpt lat="44.3439" lon="6.79682">
        <ele>2557</ele>
        <time>2020-09-15T11:34:27Z</time>
      </trkpt>
      <trkpt lat="44.34393" lon="6.79681">
        <ele>2558</ele>
        <time>2020-09-15T11:34:27Z</time>
      </trkpt>
      <trkpt lat="44.34398" lon="6.79684">
        <ele>2559</ele>
        <time>2020-09-15T11:34:28Z</time>
      </trkpt>
      <trkpt lat="44.34401" lon="6.79688">
        <ele>2559</ele>
        <time>2020-09-15T11:34:29Z</time>
      </trkpt>
      <trkpt lat="44.34408" lon="6.79718">
        <ele>2561</ele>
        <time>2020-09-15T11:34:33Z</time>
      </trkpt>
      <trkpt lat="44.34413" lon="6.79727">
        <ele>2563</ele>
        <time>2020-09-15T11:34:34Z</time>
      </trkpt>
      <trkpt lat="44.34433" lon="6.79746">
        <ele>2565</ele>
        <time>2020-09-15T11:34:39Z</time>
      </trkpt>
      <trkpt lat="44.34454" lon="6.79753">
        <ele>2567</ele>
        <time>2020-09-15T11:34:42Z</time>
      </trkpt>
      <trkpt lat="44.34464" lon="6.79759">
        <ele>2568</ele>
        <time>2020-09-15T11:34:44Z</time>
      </trkpt>
      <trkpt lat="44.34473" lon="6.7978">
        <ele>2571</ele>
        <time>2020-09-15T11:34:47Z</time>
      </trkpt>
      <trkpt lat="44.34482" lon="6.79783">
        <ele>2572</ele>
        <time>2020-09-15T11:34:49Z</time>
      </trkpt>
      <trkpt lat="44.34507" lon="6.79763">
        <ele>2572</ele>
        <time>2020-09-15T11:34:54Z</time>
      </trkpt>
      <trkpt lat="44.34516" lon="6.79763">
        <ele>2572</ele>
        <time>2020-09-15T11:34:56Z</time>
      </trkpt>
      <trkpt lat="44.34523" lon="6.79768">
        <ele>2573</ele>
        <time>2020-09-15T11:34:57Z</time>
      </trkpt>
      <trkpt lat="44.34527" lon="6.79778">
        <ele>2574</ele>
        <time>2020-09-15T11:34:59Z</time>
      </trkpt>
      <trkpt lat="44.34526" lon="6.79791">
        <ele>2576</ele>
        <time>2020-09-15T11:35:00Z</time>
      </trkpt>
      <trkpt lat="44.34521" lon="6.79799">
        <ele>2577</ele>
        <time>2020-09-15T11:35:02Z</time>
      </trkpt>
      <trkpt lat="44.34513" lon="6.79804">
        <ele>2577</ele>
        <time>2020-09-15T11:35:03Z</time>
      </trkpt>
      <trkpt lat="44.34462" lon="6.79828">
        <ele>2573</ele>
        <time>2020-09-15T11:35:13Z</time>
      </trkpt>
      <trkpt lat="44.34427" lon="6.79872">
        <ele>2576</ele>
        <time>2020-09-15T11:35:21Z</time>
      </trkpt>
      <trkpt lat="44.34424" lon="6.79882">
        <ele>2577</ele>
        <time>2020-09-15T11:35:23Z</time>
      </trkpt>
      <trkpt lat="44.34424" lon="6.79893">
        <ele>2579</ele>
        <time>2020-09-15T11:35:24Z</time>
      </trkpt>
      <trkpt lat="44.34433" lon="6.79921">
        <ele>2585</ele>
        <time>2020-09-15T11:35:28Z</time>
      </trkpt>
      <trkpt lat="44.34434" lon="6.79933">
        <ele>2587</ele>
        <time>2020-09-15T11:35:29Z</time>
      </trkpt>
      <trkpt lat="44.34429" lon="6.79964">
        <ele>2589</ele>
        <time>2020-09-15T11:35:33Z</time>
      </trkpt>
      <trkpt lat="44.34428" lon="6.79986">
        <ele>2591</ele>
        <time>2020-09-15T11:35:36Z</time>
      </trkpt>
      <trkpt lat="44.34422" lon="6.80004">
        <ele>2592</ele>
        <time>2020-09-15T11:35:39Z</time>
      </trkpt>
      <trkpt lat="44.34408" lon="6.80022">
        <ele>2592</ele>
        <time>2020-09-15T11:35:42Z</time>
      </trkpt>
      <trkpt lat="44.34396" lon="6.80041">
        <ele>2593</ele>
        <time>2020-09-15T11:35:45Z</time>
      </trkpt>
      <trkpt lat="44.34388" lon="6.80062">
        <ele>2595</ele>
        <time>2020-09-15T11:35:48Z</time>
      </trkpt>
      <trkpt lat="44.34379" lon="6.80096">
        <ele>2600</ele>
        <time>2020-09-15T11:35:53Z</time>
      </trkpt>
      <trkpt lat="44.34372" lon="6.80118">
        <ele>2603</ele>
        <time>2020-09-15T11:35:56Z</time>
      </trkpt>
      <trkpt lat="44.34364" lon="6.80128">
        <ele>2604</ele>
        <time>2020-09-15T11:35:58Z</time>
      </trkpt>
      <trkpt lat="44.34329" lon="6.80152">
        <ele>2601</ele>
        <time>2020-09-15T11:36:05Z</time>
      </trkpt>
      <trkpt lat="44.3432" lon="6.8016">
        <ele>2601</ele>
        <time>2020-09-15T11:36:07Z</time>
      </trkpt>
      <trkpt lat="44.3431" lon="6.80174">
        <ele>2603</ele>
        <time>2020-09-15T11:36:09Z</time>
      </trkpt>
      <trkpt lat="44.34285" lon="6.8019">
        <ele>2604</ele>
        <time>2020-09-15T11:36:14Z</time>
      </trkpt>
      <trkpt lat="44.34248" lon="6.80205">
        <ele>2604</ele>
        <time>2020-09-15T11:36:21Z</time>
      </trkpt>
      <trkpt lat="44.34222" lon="6.80197">
        <ele>2603</ele>
        <time>2020-09-15T11:36:26Z</time>
      </trkpt>
      <trkpt lat="44.34207" lon="6.80195">
        <ele>2604</ele>
        <time>2020-09-15T11:36:29Z</time>
      </trkpt>
      <trkpt lat="44.34174" lon="6.80206">
        <ele>2609</ele>
        <time>2020-09-15T11:36:35Z</time>
      </trkpt>
      <trkpt lat="44.34168" lon="6.80206">
        <ele>2609</ele>
        <time>2020-09-15T11:36:36Z</time>
      </trkpt>
      <trkpt lat="44.34125" lon="6.80193">
        <ele>2611</ele>
        <time>2020-09-15T11:36:43Z</time>
      </trkpt>
      <trkpt lat="44.341" lon="6.80179">
        <ele>2610</ele>
        <time>2020-09-15T11:36:48Z</time>
      </trkpt>
      <trkpt lat="44.34059" lon="6.8017">
        <ele>2613</ele>
        <time>2020-09-15T11:36:56Z</time>
      </trkpt>
      <trkpt lat="44.34013" lon="6.80143">
        <ele>2613</ele>
        <time>2020-09-15T11:37:05Z</time>
      </trkpt>
      <trkpt lat="44.33994" lon="6.80137">
        <ele>2612</ele>
        <time>2020-09-15T11:37:08Z</time>
      </trkpt>
      <trkpt lat="44.33987" lon="6.80139">
        <ele>2612</ele>
        <time>2020-09-15T11:37:09Z</time>
      </trkpt>
      <trkpt lat="44.3398" lon="6.80146">
        <ele>2614</ele>
        <time>2020-09-15T11:37:11Z</time>
      </trkpt>
      <trkpt lat="44.33958" lon="6.80193">
        <ele>2624</ele>
        <time>2020-09-15T11:37:18Z</time>
      </trkpt>
      <trkpt lat="44.33943" lon="6.80209">
        <ele>2627</ele>
        <time>2020-09-15T11:37:21Z</time>
      </trkpt>
      <trkpt lat="44.33919" lon="6.80227">
        <ele>2630</ele>
        <time>2020-09-15T11:37:26Z</time>
      </trkpt>
      <trkpt lat="44.3389" lon="6.80243">
        <ele>2639</ele>
        <time>2020-09-15T11:37:32Z</time>
      </trkpt>
      <trkpt lat="44.33876" lon="6.80247">
        <ele>2642</ele>
        <time>2020-09-15T11:37:34Z</time>
      </trkpt>
      <trkpt lat="44.33866" lon="6.80247">
        <ele>2644</ele>
        <time>2020-09-15T11:37:36Z</time>
      </trkpt>
      <trkpt lat="44.33831" lon="6.80229">
        <ele>2645</ele>
        <time>2020-09-15T11:37:43Z</time>
      </trkpt>
      <trkpt lat="44.3381" lon="6.80211">
        <ele>2645</ele>
        <time>2020-09-15T11:37:47Z</time>
      </trkpt>
      <trkpt lat="44.33791" lon="6.80199">
        <ele>2647</ele>
        <time>2020-09-15T11:37:51Z</time>
      </trkpt>
      <trkpt lat="44.33765" lon="6.80189">
        <ele>2651</ele>
        <time>2020-09-15T11:37:56Z</time>
      </trkpt>
      <trkpt lat="44.3376" lon="6.80185">
        <ele>2651</ele>
        <time>2020-09-15T11:37:57Z</time>
      </trkpt>
      <trkpt lat="44.33751" lon="6.80177">
        <ele>2651</ele>
        <time>2020-09-15T11:37:58Z</time>
      </trkpt>
      <trkpt lat="44.33723" lon="6.80144">
        <ele>2646</ele>
        <time>2020-09-15T11:38:05Z</time>
      </trkpt>
      <trkpt lat="44.33709" lon="6.80132">
        <ele>2644</ele>
        <time>2020-09-15T11:38:08Z</time>
      </trkpt>
      <trkpt lat="44.33696" lon="6.80127">
        <ele>2644</ele>
        <time>2020-09-15T11:38:10Z</time>
      </trkpt>
      <trkpt lat="44.33689" lon="6.80127">
        <ele>2645</ele>
        <time>2020-09-15T11:38:12Z</time>
      </trkpt>
      <trkpt lat="44.33681" lon="6.80128">
        <ele>2646</ele>
        <time>2020-09-15T11:38:13Z</time>
      </trkpt>
      <trkpt lat="44.33674" lon="6.80138">
        <ele>2648</ele>
        <time>2020-09-15T11:38:15Z</time>
      </trkpt>
      <trkpt lat="44.33671" lon="6.80151">
        <ele>2650</ele>
        <time>2020-09-15T11:38:16Z</time>
      </trkpt>
      <trkpt lat="44.33669" lon="6.80174">
        <ele>2654</ele>
        <time>2020-09-15T11:38:19Z</time>
      </trkpt>
      <trkpt lat="44.33672" lon="6.80281">
        <ele>2664</ele>
        <time>2020-09-15T11:38:33Z</time>
      </trkpt>
      <trkpt lat="44.33666" lon="6.80395">
        <ele>2668</ele>
        <time>2020-09-15T11:38:48Z</time>
      </trkpt>
      <trkpt lat="44.33663" lon="6.80416">
        <ele>2668</ele>
        <time>2020-09-15T11:38:50Z</time>
      </trkpt>
      <trkpt lat="44.33653" lon="6.80455">
        <ele>2666</ele>
        <time>2020-09-15T11:38:56Z</time>
      </trkpt>
      <trkpt lat="44.33653" lon="6.80472">
        <ele>2667</ele>
        <time>2020-09-15T11:38:58Z</time>
      </trkpt>
      <trkpt lat="44.33658" lon="6.80521">
        <ele>2672</ele>
        <time>2020-09-15T11:39:04Z</time>
      </trkpt>
      <trkpt lat="44.33643" lon="6.80645">
        <ele>2672</ele>
        <time>2020-09-15T11:39:20Z</time>
      </trkpt>
      <trkpt lat="44.33638" lon="6.80715">
        <ele>2674</ele>
        <time>2020-09-15T11:39:29Z</time>
      </trkpt>
      <trkpt lat="44.33628" lon="6.80777">
        <ele>2674</ele>
        <time>2020-09-15T11:39:37Z</time>
      </trkpt>
      <trkpt lat="44.33608" lon="6.80817">
        <ele>2670</ele>
        <time>2020-09-15T11:39:43Z</time>
      </trkpt>
      <trkpt lat="44.33597" lon="6.80846">
        <ele>2669</ele>
        <time>2020-09-15T11:39:48Z</time>
      </trkpt>
      <trkpt lat="44.33564" lon="6.80899">
        <ele>2668</ele>
        <time>2020-09-15T11:39:56Z</time>
      </trkpt>
      <trkpt lat="44.33533" lon="6.80954">
        <ele>2670</ele>
        <time>2020-09-15T11:40:05Z</time>
      </trkpt>
      <trkpt lat="44.33475" lon="6.81006">
        <ele>2673</ele>
        <time>2020-09-15T11:40:18Z</time>
      </trkpt>
      <trkpt lat="44.33458" lon="6.81014">
        <ele>2673</ele>
        <time>2020-09-15T11:40:21Z</time>
      </trkpt>
      <trkpt lat="44.33434" lon="6.81022">
        <ele>2673</ele>
        <time>2020-09-15T11:40:25Z</time>
      </trkpt>
      <trkpt lat="44.33398" lon="6.81047">
        <ele>2680</ele>
        <time>2020-09-15T11:40:32Z</time>
      </trkpt>
      <trkpt lat="44.33373" lon="6.81056">
        <ele>2684</ele>
        <time>2020-09-15T11:40:37Z</time>
      </trkpt>
      <trkpt lat="44.33347" lon="6.81061">
        <ele>2687</ele>
        <time>2020-09-15T11:40:42Z</time>
      </trkpt>
      <trkpt lat="44.33286" lon="6.81062">
        <ele>2688</ele>
        <time>2020-09-15T11:40:52Z</time>
      </trkpt>
      <trkpt lat="44.33269" lon="6.81065">
        <ele>2689</ele>
        <time>2020-09-15T11:40:56Z</time>
      </trkpt>
      <trkpt lat="44.33244" lon="6.81079">
        <ele>2693</ele>
        <time>2020-09-15T11:41:00Z</time>
      </trkpt>
      <trkpt lat="44.33232" lon="6.81079">
        <ele>2694</ele>
        <time>2020-09-15T11:41:02Z</time>
      </trkpt>
      <trkpt lat="44.33215" lon="6.81075">
        <ele>2695</ele>
        <time>2020-09-15T11:41:06Z</time>
      </trkpt>
      <trkpt lat="44.33187" lon="6.81061">
        <ele>2695</ele>
        <time>2020-09-15T11:41:11Z</time>
      </trkpt>
      <trkpt lat="44.33179" lon="6.81054">
        <ele>2694</ele>
        <time>2020-09-15T11:41:12Z</time>
      </trkpt>
      <trkpt lat="44.33111" lon="6.80967">
        <ele>2691</ele>
        <time>2020-09-15T11:41:29Z</time>
      </trkpt>
      <trkpt lat="44.33063" lon="6.80919">
        <ele>2697</ele>
        <time>2020-09-15T11:41:39Z</time>
      </trkpt>
      <trkpt lat="44.33039" lon="6.80885">
        <ele>2697</ele>
        <time>2020-09-15T11:41:45Z</time>
      </trkpt>
      <trkpt lat="44.33018" lon="6.80858">
        <ele>2698</ele>
        <time>2020-09-15T11:41:51Z</time>
      </trkpt>
      <trkpt lat="44.32979" lon="6.80823">
        <ele>2700</ele>
        <time>2020-09-15T11:41:59Z</time>
      </trkpt>
      <trkpt lat="44.32963" lon="6.80811">
        <ele>2698</ele>
        <time>2020-09-15T11:42:02Z</time>
      </trkpt>
      <trkpt lat="44.32903" lon="6.80785">
        <ele>2695</ele>
        <time>2020-09-15T11:42:13Z</time>
      </trkpt>
      <trkpt lat="44.3288" lon="6.80779">
        <ele>2694</ele>
        <time>2020-09-15T11:42:17Z</time>
      </trkpt>
      <trkpt lat="44.32859" lon="6.80776">
        <ele>2694</ele>
        <time>2020-09-15T11:42:21Z</time>
      </trkpt>
      <trkpt lat="44.32834" lon="6.80783">
        <ele>2697</ele>
        <time>2020-09-15T11:42:26Z</time>
      </trkpt>
      <trkpt lat="44.32812" lon="6.80785">
        <ele>2696</ele>
        <time>2020-09-15T11:42:30Z</time>
      </trkpt>
      <trkpt lat="44.3279" lon="6.80793">
        <ele>2696</ele>
        <time>2020-09-15T11:42:34Z</time>
      </trkpt>
      <trkpt lat="44.32774" lon="6.80796">
        <ele>2695</ele>
        <time>2020-09-15T11:42:36Z</time>
      </trkpt>
      <trkpt lat="44.3276" lon="6.80794">
        <ele>2694</ele>
        <time>2020-09-15T11:42:39Z</time>
      </trkpt>
      <trkpt lat="44.32737" lon="6.80784">
        <ele>2691</ele>
        <time>2020-09-15T11:42:43Z</time>
      </trkpt>
      <trkpt lat="44.3271" lon="6.80767">
        <ele>2692</ele>
        <time>2020-09-15T11:42:49Z</time>
      </trkpt>
      <trkpt lat="44.32673" lon="6.80738">
        <ele>2696</ele>
        <time>2020-09-15T11:42:56Z</time>
      </trkpt>
      <trkpt lat="44.3266" lon="6.80721">
        <ele>2694</ele>
        <time>2020-09-15T11:42:59Z</time>
      </trkpt>
      <trkpt lat="44.32651" lon="6.80707">
        <ele>2692</ele>
        <time>2020-09-15T11:43:02Z</time>
      </trkpt>
      <trkpt lat="44.32645" lon="6.80699">
        <ele>2692</ele>
        <time>2020-09-15T11:43:03Z</time>
      </trkpt>
      <trkpt lat="44.32618" lon="6.80684">
        <ele>2696</ele>
        <time>2020-09-15T11:43:08Z</time>
      </trkpt>
      <trkpt lat="44.32603" lon="6.80668">
        <ele>2700</ele>
        <time>2020-09-15T11:43:12Z</time>
      </trkpt>
      <trkpt lat="44.32596" lon="6.80657">
        <ele>2700</ele>
        <time>2020-09-15T11:43:14Z</time>
      </trkpt>
      <trkpt lat="44.32576" lon="6.80616">
        <ele>2695</ele>
        <time>2020-09-15T11:43:20Z</time>
      </trkpt>
      <trkpt lat="44.3257" lon="6.80607">
        <ele>2694</ele>
        <time>2020-09-15T11:43:21Z</time>
      </trkpt>
      <trkpt lat="44.32563" lon="6.80604">
        <ele>2694</ele>
        <time>2020-09-15T11:43:23Z</time>
      </trkpt>
      <trkpt lat="44.32556" lon="6.80607">
        <ele>2695</ele>
        <time>2020-09-15T11:43:24Z</time>
      </trkpt>
      <trkpt lat="44.32531" lon="6.80631">
        <ele>2701</ele>
        <time>2020-09-15T11:43:29Z</time>
      </trkpt>
      <trkpt lat="44.32518" lon="6.80641">
        <ele>2704</ele>
        <time>2020-09-15T11:43:32Z</time>
      </trkpt>
      <trkpt lat="44.32509" lon="6.80646">
        <ele>2706</ele>
        <time>2020-09-15T11:43:34Z</time>
      </trkpt>
      <trkpt lat="44.32496" lon="6.80648">
        <ele>2708</ele>
        <time>2020-09-15T11:43:36Z</time>
      </trkpt>
      <trkpt lat="44.32486" lon="6.80648">
        <ele>2710</ele>
        <time>2020-09-15T11:43:38Z</time>
      </trkpt>
      <trkpt lat="44.32422" lon="6.80618">
        <ele>2715</ele>
        <time>2020-09-15T11:43:50Z</time>
      </trkpt>
      <trkpt lat="44.32398" lon="6.80618">
        <ele>2722</ele>
        <time>2020-09-15T11:43:54Z</time>
      </trkpt>
      <trkpt lat="44.3238" lon="6.80616">
        <ele>2728</ele>
        <time>2020-09-15T11:43:57Z</time>
      </trkpt>
      <trkpt lat="44.32365" lon="6.8061">
        <ele>2731</ele>
        <time>2020-09-15T11:44:00Z</time>
      </trkpt>
      <trkpt lat="44.32342" lon="6.80594">
        <ele>2734</ele>
        <time>2020-09-15T11:44:05Z</time>
      </trkpt>
      <trkpt lat="44.32325" lon="6.80581">
        <ele>2737</ele>
        <time>2020-09-15T11:44:08Z</time>
      </trkpt>
      <trkpt lat="44.32299" lon="6.80551">
        <ele>2736</ele>
        <time>2020-09-15T11:44:14Z</time>
      </trkpt>
      <trkpt lat="44.32291" lon="6.80546">
        <ele>2738</ele>
        <time>2020-09-15T11:44:16Z</time>
      </trkpt>
      <trkpt lat="44.32256" lon="6.8054">
        <ele>2752</ele>
        <time>2020-09-15T11:44:22Z</time>
      </trkpt>
      <trkpt lat="44.32246" lon="6.8053">
        <ele>2753</ele>
        <time>2020-09-15T11:44:24Z</time>
      </trkpt>
      <trkpt lat="44.32208" lon="6.8046">
        <ele>2741</ele>
        <time>2020-09-15T11:44:35Z</time>
      </trkpt>
      <trkpt lat="44.322" lon="6.80454">
        <ele>2742</ele>
        <time>2020-09-15T11:44:37Z</time>
      </trkpt>
      <trkpt lat="44.32184" lon="6.80449">
        <ele>2746</ele>
        <time>2020-09-15T11:44:40Z</time>
      </trkpt>
      <trkpt lat="44.32174" lon="6.80448">
        <ele>2750</ele>
        <time>2020-09-15T11:44:42Z</time>
      </trkpt>
      <trkpt lat="44.32157" lon="6.80455">
        <ele>2759</ele>
        <time>2020-09-15T11:44:45Z</time>
      </trkpt>
      <trkpt lat="44.32145" lon="6.80455">
        <ele>2762</ele>
        <time>2020-09-15T11:44:47Z</time>
      </trkpt>
      <trkpt lat="44.32124" lon="6.8045">
        <ele>2764</ele>
        <time>2020-09-15T11:44:51Z</time>
      </trkpt>
      <trkpt lat="44.321" lon="6.80454">
        <ele>2772</ele>
        <time>2020-09-15T11:44:55Z</time>
      </trkpt>
      <trkpt lat="44.32089" lon="6.80451">
        <ele>2773</ele>
        <time>2020-09-15T11:44:57Z</time>
      </trkpt>
      <trkpt lat="44.3207" lon="6.80439">
        <ele>2768</ele>
        <time>2020-09-15T11:45:01Z</time>
      </trkpt>
      <trkpt lat="44.32061" lon="6.80434">
        <ele>2765</ele>
        <time>2020-09-15T11:45:03Z</time>
      </trkpt>
      <trkpt lat="44.32049" lon="6.80432">
        <ele>2763</ele>
        <time>2020-09-15T11:45:05Z</time>
      </trkpt>
      <trkpt lat="44.3204" lon="6.80432">
        <ele>2762</ele>
        <time>2020-09-15T11:45:06Z</time>
      </trkpt>
      <trkpt lat="44.32034" lon="6.80437">
        <ele>2762</ele>
        <time>2020-09-15T11:45:08Z</time>
      </trkpt>
      <trkpt lat="44.32032" lon="6.80441">
        <ele>2763</ele>
        <time>2020-09-15T11:45:08Z</time>
      </trkpt>
      <trkpt lat="44.32033" lon="6.80454">
        <ele>2765</ele>
        <time>2020-09-15T11:45:10Z</time>
      </trkpt>
      <trkpt lat="44.32046" lon="6.80498">
        <ele>2779</ele>
        <time>2020-09-15T11:45:16Z</time>
      </trkpt>
      <trkpt lat="44.3205" lon="6.80531">
        <ele>2783</ele>
        <time>2020-09-15T11:45:20Z</time>
      </trkpt>
      <trkpt lat="44.32054" lon="6.80553">
        <ele>2787</ele>
        <time>2020-09-15T11:45:23Z</time>
      </trkpt>
      <trkpt lat="44.32063" lon="6.80584">
        <ele>2796</ele>
        <time>2020-09-15T11:45:27Z</time>
      </trkpt>
      <trkpt lat="44.32075" lon="6.80618">
        <ele>2804</ele>
        <time>2020-09-15T11:45:32Z</time>
      </trkpt>
      <trkpt lat="44.32076" lon="6.80635">
        <ele>2806</ele>
        <time>2020-09-15T11:45:34Z</time>
      </trkpt>
      <trkpt lat="44.32076" lon="6.80643">
        <ele>2806</ele>
        <time>2020-09-15T11:45:35Z</time>
      </trkpt>
      <trkpt lat="44.32072" lon="6.80655">
        <ele>2804</ele>
        <time>2020-09-15T11:45:37Z</time>
      </trkpt>
      <trkpt lat="44.32048" lon="6.80706">
        <ele>2795</ele>
        <time>2020-09-15T11:45:45Z</time>
      </trkpt>
      <trkpt lat="44.32046" lon="6.80716">
        <ele>2795</ele>
        <time>2020-09-15T11:45:46Z</time>
      </trkpt>
      <trkpt lat="44.32046" lon="6.80727">
        <ele>2796</ele>
        <time>2020-09-15T11:45:47Z</time>
      </trkpt>
      <trkpt lat="44.32047" lon="6.80736">
        <ele>2797</ele>
        <time>2020-09-15T11:45:49Z</time>
      </trkpt>
      <trkpt lat="44.32051" lon="6.80746">
        <ele>2800</ele>
        <time>2020-09-15T11:45:50Z</time>
      </trkpt>
      <trkpt lat="44.32055" lon="6.80753">
        <ele>2802</ele>
        <time>2020-09-15T11:45:51Z</time>
      </trkpt>
      <trkpt lat="44.32061" lon="6.80765">
        <ele>2801</ele>
        <time>2020-09-15T11:45:53Z</time>
      </trkpt>
      <trkpt lat="44.32067" lon="6.80776">
        <ele>2801</ele>
        <time>2020-09-15T11:45:55Z</time>
      </trkpt>
      <trkpt lat="44.32071" lon="6.80788">
        <ele>2800</ele>
        <time>2020-09-15T11:45:57Z</time>
      </trkpt>
      <trkpt lat="44.3208" lon="6.80823">
        <ele>2795</ele>
        <time>2020-09-15T11:46:01Z</time>
      </trkpt>
      <trkpt lat="44.32111" lon="6.80868">
        <ele>2785</ele>
        <time>2020-09-15T11:46:09Z</time>
      </trkpt>
      <trkpt lat="44.32123" lon="6.8089">
        <ele>2779</ele>
        <time>2020-09-15T11:46:13Z</time>
      </trkpt>
      <trkpt lat="44.32147" lon="6.80941">
        <ele>2766</ele>
        <time>2020-09-15T11:46:21Z</time>
      </trkpt>
      <trkpt lat="44.32154" lon="6.80948">
        <ele>2765</ele>
        <time>2020-09-15T11:46:22Z</time>
      </trkpt>
      <trkpt lat="44.32159" lon="6.80947">
        <ele>2766</ele>
        <time>2020-09-15T11:46:23Z</time>
      </trkpt>
      <trkpt lat="44.32164" lon="6.80945">
        <ele>2767</ele>
        <time>2020-09-15T11:46:24Z</time>
      </trkpt>
      <trkpt lat="44.32174" lon="6.80931">
        <ele>2768</ele>
        <time>2020-09-15T11:46:26Z</time>
      </trkpt>
      <trkpt lat="44.32199" lon="6.80891">
        <ele>2768</ele>
        <time>2020-09-15T11:46:33Z</time>
      </trkpt>
      <trkpt lat="44.32219" lon="6.80849">
        <ele>2771</ele>
        <time>2020-09-15T11:46:40Z</time>
      </trkpt>
      <trkpt lat="44.32245" lon="6.80816">
        <ele>2768</ele>
        <time>2020-09-15T11:46:46Z</time>
      </trkpt>
      <trkpt lat="44.32263" lon="6.80787">
        <ele>2769</ele>
        <time>2020-09-15T11:46:51Z</time>
      </trkpt>
      <trkpt lat="44.3227" lon="6.8078">
        <ele>2768</ele>
        <time>2020-09-15T11:46:52Z</time>
      </trkpt>
      <trkpt lat="44.32287" lon="6.8077">
        <ele>2762</ele>
        <time>2020-09-15T11:46:56Z</time>
      </trkpt>
      <trkpt lat="44.32302" lon="6.80753">
        <ele>2760</ele>
        <time>2020-09-15T11:46:59Z</time>
      </trkpt>
      <trkpt lat="44.32345" lon="6.80721">
        <ele>2745</ele>
        <time>2020-09-15T11:47:08Z</time>
      </trkpt>
      <trkpt lat="44.32371" lon="6.80712">
        <ele>2736</ele>
        <time>2020-09-15T11:47:12Z</time>
      </trkpt>
      <trkpt lat="44.32398" lon="6.80694">
        <ele>2730</ele>
        <time>2020-09-15T11:47:18Z</time>
      </trkpt>
      <trkpt lat="44.32411" lon="6.80688">
        <ele>2727</ele>
        <time>2020-09-15T11:47:20Z</time>
      </trkpt>
      <trkpt lat="44.32435" lon="6.80681">
        <ele>2722</ele>
        <time>2020-09-15T11:47:24Z</time>
      </trkpt>
      <trkpt lat="44.32451" lon="6.80681">
        <ele>2718</ele>
        <time>2020-09-15T11:47:27Z</time>
      </trkpt>
      <trkpt lat="44.32472" lon="6.80672">
        <ele>2716</ele>
        <time>2020-09-15T11:47:31Z</time>
      </trkpt>
      <trkpt lat="44.32498" lon="6.80668">
        <ele>2711</ele>
        <time>2020-09-15T11:47:36Z</time>
      </trkpt>
      <trkpt lat="44.32567" lon="6.8068">
        <ele>2704</ele>
        <time>2020-09-15T11:47:48Z</time>
      </trkpt>
      <trkpt lat="44.3259" lon="6.80687">
        <ele>2701</ele>
        <time>2020-09-15T11:47:52Z</time>
      </trkpt>
      <trkpt lat="44.32616" lon="6.80704">
        <ele>2696</ele>
        <time>2020-09-15T11:47:58Z</time>
      </trkpt>
      <trkpt lat="44.32642" lon="6.8074">
        <ele>2697</ele>
        <time>2020-09-15T11:48:04Z</time>
      </trkpt>
      <trkpt lat="44.32661" lon="6.80758">
        <ele>2697</ele>
        <time>2020-09-15T11:48:08Z</time>
      </trkpt>
      <trkpt lat="44.32682" lon="6.80778">
        <ele>2692</ele>
        <time>2020-09-15T11:48:13Z</time>
      </trkpt>
      <trkpt lat="44.32702" lon="6.80793">
        <ele>2691</ele>
        <time>2020-09-15T11:48:17Z</time>
      </trkpt>
      <trkpt lat="44.32712" lon="6.80803">
        <ele>2691</ele>
        <time>2020-09-15T11:48:19Z</time>
      </trkpt>
      <trkpt lat="44.32774" lon="6.80873">
        <ele>2694</ele>
        <time>2020-09-15T11:48:33Z</time>
      </trkpt>
      <trkpt lat="44.32787" lon="6.80891">
        <ele>2693</ele>
        <time>2020-09-15T11:48:36Z</time>
      </trkpt>
      <trkpt lat="44.32798" lon="6.809">
        <ele>2694</ele>
        <time>2020-09-15T11:48:39Z</time>
      </trkpt>
      <trkpt lat="44.32826" lon="6.80916">
        <ele>2698</ele>
        <time>2020-09-15T11:48:44Z</time>
      </trkpt>
      <trkpt lat="44.32838" lon="6.80925">
        <ele>2699</ele>
        <time>2020-09-15T11:48:46Z</time>
      </trkpt>
      <trkpt lat="44.32847" lon="6.80938">
        <ele>2697</ele>
        <time>2020-09-15T11:48:49Z</time>
      </trkpt>
      <trkpt lat="44.32861" lon="6.80968">
        <ele>2692</ele>
        <time>2020-09-15T11:48:53Z</time>
      </trkpt>
      <trkpt lat="44.32894" lon="6.81002">
        <ele>2690</ele>
        <time>2020-09-15T11:49:01Z</time>
      </trkpt>
      <trkpt lat="44.32917" lon="6.81033">
        <ele>2685</ele>
        <time>2020-09-15T11:49:06Z</time>
      </trkpt>
      <trkpt lat="44.3293" lon="6.81046">
        <ele>2682</ele>
        <time>2020-09-15T11:49:09Z</time>
      </trkpt>
      <trkpt lat="44.32944" lon="6.8105">
        <ele>2681</ele>
        <time>2020-09-15T11:49:12Z</time>
      </trkpt>
      <trkpt lat="44.32966" lon="6.81051">
        <ele>2682</ele>
        <time>2020-09-15T11:49:16Z</time>
      </trkpt>
      <trkpt lat="44.32986" lon="6.81058">
        <ele>2681</ele>
        <time>2020-09-15T11:49:19Z</time>
      </trkpt>
      <trkpt lat="44.33028" lon="6.81078">
        <ele>2680</ele>
        <time>2020-09-15T11:49:27Z</time>
      </trkpt>
      <trkpt lat="44.33045" lon="6.81089">
        <ele>2681</ele>
        <time>2020-09-15T11:49:30Z</time>
      </trkpt>
      <trkpt lat="44.33059" lon="6.81109">
        <ele>2680</ele>
        <time>2020-09-15T11:49:34Z</time>
      </trkpt>
      <trkpt lat="44.33075" lon="6.81143">
        <ele>2678</ele>
        <time>2020-09-15T11:49:39Z</time>
      </trkpt>
      <trkpt lat="44.33085" lon="6.81182">
        <ele>2675</ele>
        <time>2020-09-15T11:49:44Z</time>
      </trkpt>
      <trkpt lat="44.33089" lon="6.81209">
        <ele>2675</ele>
        <time>2020-09-15T11:49:48Z</time>
      </trkpt>
      <trkpt lat="44.3309" lon="6.81228">
        <ele>2674</ele>
        <time>2020-09-15T11:49:50Z</time>
      </trkpt>
      <trkpt lat="44.33089" lon="6.81285">
        <ele>2670</ele>
        <time>2020-09-15T11:49:58Z</time>
      </trkpt>
      <trkpt lat="44.33084" lon="6.81313">
        <ele>2667</ele>
        <time>2020-09-15T11:50:01Z</time>
      </trkpt>
      <trkpt lat="44.33066" lon="6.81356">
        <ele>2662</ele>
        <time>2020-09-15T11:50:08Z</time>
      </trkpt>
      <trkpt lat="44.33055" lon="6.81407">
        <ele>2660</ele>
        <time>2020-09-15T11:50:14Z</time>
      </trkpt>
      <trkpt lat="44.33047" lon="6.81478">
        <ele>2660</ele>
        <time>2020-09-15T11:50:24Z</time>
      </trkpt>
      <trkpt lat="44.33044" lon="6.81583">
        <ele>2654</ele>
        <time>2020-09-15T11:50:37Z</time>
      </trkpt>
      <trkpt lat="44.33049" lon="6.81667">
        <ele>2643</ele>
        <time>2020-09-15T11:50:48Z</time>
      </trkpt>
      <trkpt lat="44.33052" lon="6.81677">
        <ele>2642</ele>
        <time>2020-09-15T11:50:49Z</time>
      </trkpt>
      <trkpt lat="44.33076" lon="6.81708">
        <ele>2647</ele>
        <time>2020-09-15T11:50:55Z</time>
      </trkpt>
      <trkpt lat="44.33083" lon="6.81722">
        <ele>2648</ele>
        <time>2020-09-15T11:50:57Z</time>
      </trkpt>
      <trkpt lat="44.33084" lon="6.8174">
        <ele>2645</ele>
        <time>2020-09-15T11:50:59Z</time>
      </trkpt>
      <trkpt lat="44.33076" lon="6.81788">
        <ele>2636</ele>
        <time>2020-09-15T11:51:06Z</time>
      </trkpt>
      <trkpt lat="44.33074" lon="6.81829">
        <ele>2633</ele>
        <time>2020-09-15T11:51:11Z</time>
      </trkpt>
      <trkpt lat="44.33073" lon="6.81841">
        <ele>2632</ele>
        <time>2020-09-15T11:51:12Z</time>
      </trkpt>
      <trkpt lat="44.33065" lon="6.81863">
        <ele>2625</ele>
        <time>2020-09-15T11:51:16Z</time>
      </trkpt>
      <trkpt lat="44.33067" lon="6.81877">
        <ele>2626</ele>
        <time>2020-09-15T11:51:17Z</time>
      </trkpt>
      <trkpt lat="44.33073" lon="6.81892">
        <ele>2629</ele>
        <time>2020-09-15T11:51:20Z</time>
      </trkpt>
      <trkpt lat="44.33077" lon="6.81907">
        <ele>2631</ele>
        <time>2020-09-15T11:51:22Z</time>
      </trkpt>
      <trkpt lat="44.33068" lon="6.81955">
        <ele>2621</ele>
        <time>2020-09-15T11:51:28Z</time>
      </trkpt>
      <trkpt lat="44.33069" lon="6.81995">
        <ele>2619</ele>
        <time>2020-09-15T11:51:33Z</time>
      </trkpt>
      <trkpt lat="44.33063" lon="6.82018">
        <ele>2613</ele>
        <time>2020-09-15T11:51:36Z</time>
      </trkpt>
      <trkpt lat="44.33059" lon="6.8206">
        <ele>2608</ele>
        <time>2020-09-15T11:51:42Z</time>
      </trkpt>
      <trkpt lat="44.33051" lon="6.8209">
        <ele>2602</ele>
        <time>2020-09-15T11:51:46Z</time>
      </trkpt>
      <trkpt lat="44.3305" lon="6.82098">
        <ele>2600</ele>
        <time>2020-09-15T11:51:47Z</time>
      </trkpt>
      <trkpt lat="44.33052" lon="6.82112">
        <ele>2600</ele>
        <time>2020-09-15T11:51:48Z</time>
      </trkpt>
      <trkpt lat="44.33062" lon="6.8213">
        <ele>2603</ele>
        <time>2020-09-15T11:51:51Z</time>
      </trkpt>
      <trkpt lat="44.3308" lon="6.82154">
        <ele>2609</ele>
        <time>2020-09-15T11:51:56Z</time>
      </trkpt>
      <trkpt lat="44.33092" lon="6.82166">
        <ele>2613</ele>
        <time>2020-09-15T11:51:58Z</time>
      </trkpt>
      <trkpt lat="44.33099" lon="6.8218">
        <ele>2614</ele>
        <time>2020-09-15T11:52:01Z</time>
      </trkpt>
      <trkpt lat="44.33101" lon="6.82195">
        <ele>2612</ele>
        <time>2020-09-15T11:52:03Z</time>
      </trkpt>
      <trkpt lat="44.331" lon="6.8221">
        <ele>2609</ele>
        <time>2020-09-15T11:52:04Z</time>
      </trkpt>
      <trkpt lat="44.33095" lon="6.82257">
        <ele>2599</ele>
        <time>2020-09-15T11:52:10Z</time>
      </trkpt>
      <trkpt lat="44.33095" lon="6.82278">
        <ele>2597</ele>
        <time>2020-09-15T11:52:13Z</time>
      </trkpt>
      <trkpt lat="44.33105" lon="6.82335">
        <ele>2598</ele>
        <time>2020-09-15T11:52:21Z</time>
      </trkpt>
      <trkpt lat="44.33106" lon="6.82347">
        <ele>2598</ele>
        <time>2020-09-15T11:52:22Z</time>
      </trkpt>
      <trkpt lat="44.331" lon="6.82407">
        <ele>2593</ele>
        <time>2020-09-15T11:52:30Z</time>
      </trkpt>
      <trkpt lat="44.33101" lon="6.82432">
        <ele>2591</ele>
        <time>2020-09-15T11:52:33Z</time>
      </trkpt>
      <trkpt lat="44.33108" lon="6.82458">
        <ele>2590</ele>
        <time>2020-09-15T11:52:37Z</time>
      </trkpt>
      <trkpt lat="44.33126" lon="6.82518">
        <ele>2585</ele>
        <time>2020-09-15T11:52:45Z</time>
      </trkpt>
      <trkpt lat="44.33132" lon="6.82529">
        <ele>2584</ele>
        <time>2020-09-15T11:52:47Z</time>
      </trkpt>
      <trkpt lat="44.33153" lon="6.82559">
        <ele>2583</ele>
        <time>2020-09-15T11:52:52Z</time>
      </trkpt>
      <trkpt lat="44.33158" lon="6.82571">
        <ele>2581</ele>
        <time>2020-09-15T11:52:54Z</time>
      </trkpt>
      <trkpt lat="44.33167" lon="6.82605">
        <ele>2577</ele>
        <time>2020-09-15T11:52:58Z</time>
      </trkpt>
      <trkpt lat="44.33172" lon="6.82613">
        <ele>2575</ele>
        <time>2020-09-15T11:53:00Z</time>
      </trkpt>
      <trkpt lat="44.33177" lon="6.82619">
        <ele>2574</ele>
        <time>2020-09-15T11:53:01Z</time>
      </trkpt>
      <trkpt lat="44.33182" lon="6.82622">
        <ele>2574</ele>
        <time>2020-09-15T11:53:02Z</time>
      </trkpt>
      <trkpt lat="44.33189" lon="6.82623">
        <ele>2574</ele>
        <time>2020-09-15T11:53:03Z</time>
      </trkpt>
      <trkpt lat="44.33195" lon="6.82623">
        <ele>2574</ele>
        <time>2020-09-15T11:53:04Z</time>
      </trkpt>
      <trkpt lat="44.33208" lon="6.82618">
        <ele>2575</ele>
        <time>2020-09-15T11:53:07Z</time>
      </trkpt>
      <trkpt lat="44.33226" lon="6.82611">
        <ele>2577</ele>
        <time>2020-09-15T11:53:10Z</time>
      </trkpt>
      <trkpt lat="44.33236" lon="6.82612">
        <ele>2577</ele>
        <time>2020-09-15T11:53:12Z</time>
      </trkpt>
      <trkpt lat="44.33254" lon="6.82632">
        <ele>2573</ele>
        <time>2020-09-15T11:53:16Z</time>
      </trkpt>
      <trkpt lat="44.33269" lon="6.82643">
        <ele>2569</ele>
        <time>2020-09-15T11:53:19Z</time>
      </trkpt>
      <trkpt lat="44.33285" lon="6.82645">
        <ele>2567</ele>
        <time>2020-09-15T11:53:22Z</time>
      </trkpt>
      <trkpt lat="44.33299" lon="6.82643">
        <ele>2566</ele>
        <time>2020-09-15T11:53:24Z</time>
      </trkpt>
      <trkpt lat="44.33312" lon="6.82637">
        <ele>2566</ele>
        <time>2020-09-15T11:53:27Z</time>
      </trkpt>
      <trkpt lat="44.33324" lon="6.82628">
        <ele>2568</ele>
        <time>2020-09-15T11:53:29Z</time>
      </trkpt>
      <trkpt lat="44.33335" lon="6.82619">
        <ele>2569</ele>
        <time>2020-09-15T11:53:31Z</time>
      </trkpt>
      <trkpt lat="44.33365" lon="6.82579">
        <ele>2576</ele>
        <time>2020-09-15T11:53:39Z</time>
      </trkpt>
      <trkpt lat="44.33372" lon="6.82578">
        <ele>2576</ele>
        <time>2020-09-15T11:53:40Z</time>
      </trkpt>
      <trkpt lat="44.33404" lon="6.82592">
        <ele>2568</ele>
        <time>2020-09-15T11:53:46Z</time>
      </trkpt>
      <trkpt lat="44.33414" lon="6.82594">
        <ele>2566</ele>
        <time>2020-09-15T11:53:48Z</time>
      </trkpt>
      <trkpt lat="44.33424" lon="6.82593">
        <ele>2567</ele>
        <time>2020-09-15T11:53:49Z</time>
      </trkpt>
      <trkpt lat="44.33437" lon="6.82587">
        <ele>2569</ele>
        <time>2020-09-15T11:53:52Z</time>
      </trkpt>
      <trkpt lat="44.33448" lon="6.82586">
        <ele>2569</ele>
        <time>2020-09-15T11:53:54Z</time>
      </trkpt>
      <trkpt lat="44.33457" lon="6.82593">
        <ele>2568</ele>
        <time>2020-09-15T11:53:56Z</time>
      </trkpt>
      <trkpt lat="44.33472" lon="6.82613">
        <ele>2564</ele>
        <time>2020-09-15T11:53:59Z</time>
      </trkpt>
      <trkpt lat="44.33497" lon="6.8264">
        <ele>2561</ele>
        <time>2020-09-15T11:54:05Z</time>
      </trkpt>
      <trkpt lat="44.33513" lon="6.82663">
        <ele>2558</ele>
        <time>2020-09-15T11:54:09Z</time>
      </trkpt>
      <trkpt lat="44.33532" lon="6.82686">
        <ele>2554</ele>
        <time>2020-09-15T11:54:14Z</time>
      </trkpt>
      <trkpt lat="44.3356" lon="6.82711">
        <ele>2554</ele>
        <time>2020-09-15T11:54:19Z</time>
      </trkpt>
      <trkpt lat="44.33587" lon="6.82731">
        <ele>2557</ele>
        <time>2020-09-15T11:54:25Z</time>
      </trkpt>
      <trkpt lat="44.33606" lon="6.82753">
        <ele>2558</ele>
        <time>2020-09-15T11:54:29Z</time>
      </trkpt>
      <trkpt lat="44.33625" lon="6.82769">
        <ele>2557</ele>
        <time>2020-09-15T11:54:33Z</time>
      </trkpt>
      <trkpt lat="44.33643" lon="6.82797">
        <ele>2555</ele>
        <time>2020-09-15T11:54:38Z</time>
      </trkpt>
      <trkpt lat="44.33649" lon="6.82811">
        <ele>2554</ele>
        <time>2020-09-15T11:54:40Z</time>
      </trkpt>
      <trkpt lat="44.33673" lon="6.82852">
        <ele>2551</ele>
        <time>2020-09-15T11:54:47Z</time>
      </trkpt>
      <trkpt lat="44.33704" lon="6.82916">
        <ele>2540</ele>
        <time>2020-09-15T11:54:57Z</time>
      </trkpt>
      <trkpt lat="44.33732" lon="6.82957">
        <ele>2540</ele>
        <time>2020-09-15T11:55:04Z</time>
      </trkpt>
      <trkpt lat="44.33775" lon="6.83007">
        <ele>2536</ele>
        <time>2020-09-15T11:55:14Z</time>
      </trkpt>
      <trkpt lat="44.33816" lon="6.83058">
        <ele>2520</ele>
        <time>2020-09-15T11:55:24Z</time>
      </trkpt>
      <trkpt lat="44.3386" lon="6.83094">
        <ele>2513</ele>
        <time>2020-09-15T11:55:33Z</time>
      </trkpt>
      <trkpt lat="44.33873" lon="6.83098">
        <ele>2512</ele>
        <time>2020-09-15T11:55:35Z</time>
      </trkpt>
      <trkpt lat="44.33916" lon="6.83106">
        <ele>2511</ele>
        <time>2020-09-15T11:55:43Z</time>
      </trkpt>
      <trkpt lat="44.33932" lon="6.83112">
        <ele>2506</ele>
        <time>2020-09-15T11:55:46Z</time>
      </trkpt>
      <trkpt lat="44.33991" lon="6.83147">
        <ele>2500</ele>
        <time>2020-09-15T11:55:57Z</time>
      </trkpt>
      <trkpt lat="44.3402" lon="6.83165">
        <ele>2498</ele>
        <time>2020-09-15T11:56:03Z</time>
      </trkpt>
      <trkpt lat="44.34039" lon="6.83182">
        <ele>2495</ele>
        <time>2020-09-15T11:56:07Z</time>
      </trkpt>
      <trkpt lat="44.34047" lon="6.83192">
        <ele>2496</ele>
        <time>2020-09-15T11:56:09Z</time>
      </trkpt>
      <trkpt lat="44.34052" lon="6.83203">
        <ele>2498</ele>
        <time>2020-09-15T11:56:10Z</time>
      </trkpt>
      <trkpt lat="44.34054" lon="6.83215">
        <ele>2501</ele>
        <time>2020-09-15T11:56:12Z</time>
      </trkpt>
      <trkpt lat="44.34051" lon="6.83228">
        <ele>2504</ele>
        <time>2020-09-15T11:56:14Z</time>
      </trkpt>
      <trkpt lat="44.34048" lon="6.83235">
        <ele>2505</ele>
        <time>2020-09-15T11:56:15Z</time>
      </trkpt>
      <trkpt lat="44.34029" lon="6.83255">
        <ele>2507</ele>
        <time>2020-09-15T11:56:19Z</time>
      </trkpt>
      <trkpt lat="44.34024" lon="6.83268">
        <ele>2507</ele>
        <time>2020-09-15T11:56:21Z</time>
      </trkpt>
      <trkpt lat="44.34021" lon="6.83321">
        <ele>2511</ele>
        <time>2020-09-15T11:56:28Z</time>
      </trkpt>
      <trkpt lat="44.34011" lon="6.83356">
        <ele>2510</ele>
        <time>2020-09-15T11:56:32Z</time>
      </trkpt>
      <trkpt lat="44.34006" lon="6.83373">
        <ele>2509</ele>
        <time>2020-09-15T11:56:35Z</time>
      </trkpt>
      <trkpt lat="44.34002" lon="6.83402">
        <ele>2508</ele>
        <time>2020-09-15T11:56:38Z</time>
      </trkpt>
      <trkpt lat="44.34011" lon="6.83458">
        <ele>2509</ele>
        <time>2020-09-15T11:56:46Z</time>
      </trkpt>
      <trkpt lat="44.34012" lon="6.83471">
        <ele>2509</ele>
        <time>2020-09-15T11:56:47Z</time>
      </trkpt>
      <trkpt lat="44.3401" lon="6.83528">
        <ele>2503</ele>
        <time>2020-09-15T11:56:55Z</time>
      </trkpt>
      <trkpt lat="44.34016" lon="6.83549">
        <ele>2502</ele>
        <time>2020-09-15T11:56:58Z</time>
      </trkpt>
      <trkpt lat="44.34033" lon="6.83571">
        <ele>2505</ele>
        <time>2020-09-15T11:57:02Z</time>
      </trkpt>
      <trkpt lat="44.34039" lon="6.83586">
        <ele>2506</ele>
        <time>2020-09-15T11:57:04Z</time>
      </trkpt>
      <trkpt lat="44.34045" lon="6.83604">
        <ele>2506</ele>
        <time>2020-09-15T11:57:06Z</time>
      </trkpt>
      <trkpt lat="44.34045" lon="6.83615">
        <ele>2505</ele>
        <time>2020-09-15T11:57:08Z</time>
      </trkpt>
      <trkpt lat="44.3404" lon="6.8366">
        <ele>2498</ele>
        <time>2020-09-15T11:57:14Z</time>
      </trkpt>
      <trkpt lat="44.3404" lon="6.83677">
        <ele>2496</ele>
        <time>2020-09-15T11:57:16Z</time>
      </trkpt>
      <trkpt lat="44.34044" lon="6.83691">
        <ele>2496</ele>
        <time>2020-09-15T11:57:18Z</time>
      </trkpt>
      <trkpt lat="44.34056" lon="6.83719">
        <ele>2497</ele>
        <time>2020-09-15T11:57:22Z</time>
      </trkpt>
      <trkpt lat="44.34072" lon="6.83743">
        <ele>2500</ele>
        <time>2020-09-15T11:57:26Z</time>
      </trkpt>
      <trkpt lat="44.34083" lon="6.83764">
        <ele>2501</ele>
        <time>2020-09-15T11:57:29Z</time>
      </trkpt>
      <trkpt lat="44.34087" lon="6.83777">
        <ele>2502</ele>
        <time>2020-09-15T11:57:31Z</time>
      </trkpt>
      <trkpt lat="44.34087" lon="6.8379">
        <ele>2500</ele>
        <time>2020-09-15T11:57:33Z</time>
      </trkpt>
      <trkpt lat="44.34085" lon="6.83803">
        <ele>2498</ele>
        <time>2020-09-15T11:57:34Z</time>
      </trkpt>
      <trkpt lat="44.34076" lon="6.83814">
        <ele>2494</ele>
        <time>2020-09-15T11:57:37Z</time>
      </trkpt>
      <trkpt lat="44.34066" lon="6.83824">
        <ele>2490</ele>
        <time>2020-09-15T11:57:39Z</time>
      </trkpt>
      <trkpt lat="44.34062" lon="6.83842">
        <ele>2488</ele>
        <time>2020-09-15T11:57:41Z</time>
      </trkpt>
      <trkpt lat="44.34058" lon="6.83906">
        <ele>2486</ele>
        <time>2020-09-15T11:57:49Z</time>
      </trkpt>
      <trkpt lat="44.34059" lon="6.83917">
        <ele>2487</ele>
        <time>2020-09-15T11:57:51Z</time>
      </trkpt>
      <trkpt lat="44.34063" lon="6.83935">
        <ele>2487</ele>
        <time>2020-09-15T11:57:53Z</time>
      </trkpt>
      <trkpt lat="44.34082" lon="6.8399">
        <ele>2489</ele>
        <time>2020-09-15T11:58:01Z</time>
      </trkpt>
      <trkpt lat="44.34089" lon="6.84016">
        <ele>2491</ele>
        <time>2020-09-15T11:58:04Z</time>
      </trkpt>
      <trkpt lat="44.34091" lon="6.84029">
        <ele>2492</ele>
        <time>2020-09-15T11:58:06Z</time>
      </trkpt>
      <trkpt lat="44.3409" lon="6.84043">
        <ele>2491</ele>
        <time>2020-09-15T11:58:08Z</time>
      </trkpt>
      <trkpt lat="44.34084" lon="6.8406">
        <ele>2489</ele>
        <time>2020-09-15T11:58:10Z</time>
      </trkpt>
      <trkpt lat="44.34065" lon="6.84098">
        <ele>2481</ele>
        <time>2020-09-15T11:58:16Z</time>
      </trkpt>
      <trkpt lat="44.34057" lon="6.84125">
        <ele>2476</ele>
        <time>2020-09-15T11:58:20Z</time>
      </trkpt>
      <trkpt lat="44.34055" lon="6.84148">
        <ele>2474</ele>
        <time>2020-09-15T11:58:23Z</time>
      </trkpt>
      <trkpt lat="44.34061" lon="6.84184">
        <ele>2473</ele>
        <time>2020-09-15T11:58:28Z</time>
      </trkpt>
      <trkpt lat="44.34061" lon="6.84197">
        <ele>2472</ele>
        <time>2020-09-15T11:58:29Z</time>
      </trkpt>
      <trkpt lat="44.34053" lon="6.84232">
        <ele>2467</ele>
        <time>2020-09-15T11:58:34Z</time>
      </trkpt>
      <trkpt lat="44.34051" lon="6.84249">
        <ele>2465</ele>
        <time>2020-09-15T11:58:36Z</time>
      </trkpt>
      <trkpt lat="44.34053" lon="6.84264">
        <ele>2464</ele>
        <time>2020-09-15T11:58:38Z</time>
      </trkpt>
      <trkpt lat="44.34065" lon="6.84308">
        <ele>2461</ele>
        <time>2020-09-15T11:58:44Z</time>
      </trkpt>
      <trkpt lat="44.3407" lon="6.8432">
        <ele>2461</ele>
        <time>2020-09-15T11:58:46Z</time>
      </trkpt>
      <trkpt lat="44.34104" lon="6.84359">
        <ele>2462</ele>
        <time>2020-09-15T11:58:54Z</time>
      </trkpt>
      <trkpt lat="44.34167" lon="6.8442">
        <ele>2463</ele>
        <time>2020-09-15T11:59:07Z</time>
      </trkpt>
      <trkpt lat="44.34187" lon="6.84445">
        <ele>2463</ele>
        <time>2020-09-15T11:59:12Z</time>
      </trkpt>
      <trkpt lat="44.34195" lon="6.84463">
        <ele>2460</ele>
        <time>2020-09-15T11:59:15Z</time>
      </trkpt>
      <trkpt lat="44.34203" lon="6.845">
        <ele>2453</ele>
        <time>2020-09-15T11:59:20Z</time>
      </trkpt>
      <trkpt lat="44.34218" lon="6.84533">
        <ele>2453</ele>
        <time>2020-09-15T11:59:25Z</time>
      </trkpt>
      <trkpt lat="44.34232" lon="6.84571">
        <ele>2450</ele>
        <time>2020-09-15T11:59:30Z</time>
      </trkpt>
      <trkpt lat="44.34233" lon="6.8458">
        <ele>2449</ele>
        <time>2020-09-15T11:59:31Z</time>
      </trkpt>
      <trkpt lat="44.34232" lon="6.8459">
        <ele>2448</ele>
        <time>2020-09-15T11:59:33Z</time>
      </trkpt>
      <trkpt lat="44.34228" lon="6.84599">
        <ele>2448</ele>
        <time>2020-09-15T11:59:34Z</time>
      </trkpt>
      <trkpt lat="44.3421" lon="6.84618">
        <ele>2443</ele>
        <time>2020-09-15T11:59:38Z</time>
      </trkpt>
      <trkpt lat="44.34171" lon="6.84673">
        <ele>2435</ele>
        <time>2020-09-15T11:59:48Z</time>
      </trkpt>
      <trkpt lat="44.34169" lon="6.84683">
        <ele>2435</ele>
        <time>2020-09-15T11:59:49Z</time>
      </trkpt>
      <trkpt lat="44.34169" lon="6.84711">
        <ele>2438</ele>
        <time>2020-09-15T11:59:53Z</time>
      </trkpt>
      <trkpt lat="44.34167" lon="6.84719">
        <ele>2438</ele>
        <time>2020-09-15T11:59:54Z</time>
      </trkpt>
      <trkpt lat="44.34158" lon="6.84731">
        <ele>2437</ele>
        <time>2020-09-15T11:59:56Z</time>
      </trkpt>
      <trkpt lat="44.34151" lon="6.84735">
        <ele>2435</ele>
        <time>2020-09-15T11:59:57Z</time>
      </trkpt>
      <trkpt lat="44.34121" lon="6.84736">
        <ele>2428</ele>
        <time>2020-09-15T12:00:03Z</time>
      </trkpt>
      <trkpt lat="44.34105" lon="6.84744">
        <ele>2425</ele>
        <time>2020-09-15T12:00:06Z</time>
      </trkpt>
      <trkpt lat="44.34088" lon="6.84768">
        <ele>2424</ele>
        <time>2020-09-15T12:00:10Z</time>
      </trkpt>
      <trkpt lat="44.3406" lon="6.84794">
        <ele>2419</ele>
        <time>2020-09-15T12:00:16Z</time>
      </trkpt>
      <trkpt lat="44.34048" lon="6.84808">
        <ele>2416</ele>
        <time>2020-09-15T12:00:19Z</time>
      </trkpt>
      <trkpt lat="44.34041" lon="6.84822">
        <ele>2416</ele>
        <time>2020-09-15T12:00:21Z</time>
      </trkpt>
      <trkpt lat="44.34026" lon="6.84877">
        <ele>2417</ele>
        <time>2020-09-15T12:00:28Z</time>
      </trkpt>
      <trkpt lat="44.34025" lon="6.84887">
        <ele>2418</ele>
        <time>2020-09-15T12:00:30Z</time>
      </trkpt>
      <trkpt lat="44.34027" lon="6.84898">
        <ele>2420</ele>
        <time>2020-09-15T12:00:31Z</time>
      </trkpt>
      <trkpt lat="44.34033" lon="6.84912">
        <ele>2424</ele>
        <time>2020-09-15T12:00:33Z</time>
      </trkpt>
      <trkpt lat="44.34034" lon="6.84925">
        <ele>2426</ele>
        <time>2020-09-15T12:00:35Z</time>
      </trkpt>
      <trkpt lat="44.34033" lon="6.84943">
        <ele>2428</ele>
        <time>2020-09-15T12:00:37Z</time>
      </trkpt>
      <trkpt lat="44.3403" lon="6.84952">
        <ele>2429</ele>
        <time>2020-09-15T12:00:38Z</time>
      </trkpt>
      <trkpt lat="44.34015" lon="6.84967">
        <ele>2426</ele>
        <time>2020-09-15T12:00:42Z</time>
      </trkpt>
      <trkpt lat="44.33995" lon="6.84979">
        <ele>2423</ele>
        <time>2020-09-15T12:00:46Z</time>
      </trkpt>
      <trkpt lat="44.33967" lon="6.85005">
        <ele>2423</ele>
        <time>2020-09-15T12:00:52Z</time>
      </trkpt>
      <trkpt lat="44.33958" lon="6.85008">
        <ele>2422</ele>
        <time>2020-09-15T12:00:53Z</time>
      </trkpt>
      <trkpt lat="44.33946" lon="6.85008">
        <ele>2420</ele>
        <time>2020-09-15T12:00:55Z</time>
      </trkpt>
      <trkpt lat="44.33928" lon="6.85003">
        <ele>2416</ele>
        <time>2020-09-15T12:00:59Z</time>
      </trkpt>
      <trkpt lat="44.33915" lon="6.85002">
        <ele>2413</ele>
        <time>2020-09-15T12:01:01Z</time>
      </trkpt>
      <trkpt lat="44.33896" lon="6.85007">
        <ele>2411</ele>
        <time>2020-09-15T12:01:04Z</time>
      </trkpt>
      <trkpt lat="44.33878" lon="6.85014">
        <ele>2410</ele>
        <time>2020-09-15T12:01:08Z</time>
      </trkpt>
      <trkpt lat="44.33816" lon="6.85049">
        <ele>2409</ele>
        <time>2020-09-15T12:01:20Z</time>
      </trkpt>
      <trkpt lat="44.33802" lon="6.85052">
        <ele>2408</ele>
        <time>2020-09-15T12:01:22Z</time>
      </trkpt>
      <trkpt lat="44.33786" lon="6.8505">
        <ele>2406</ele>
        <time>2020-09-15T12:01:25Z</time>
      </trkpt>
      <trkpt lat="44.33754" lon="6.85039">
        <ele>2398</ele>
        <time>2020-09-15T12:01:31Z</time>
      </trkpt>
      <trkpt lat="44.33743" lon="6.85038">
        <ele>2396</ele>
        <time>2020-09-15T12:01:33Z</time>
      </trkpt>
      <trkpt lat="44.3371" lon="6.85043">
        <ele>2395</ele>
        <time>2020-09-15T12:01:39Z</time>
      </trkpt>
      <trkpt lat="44.33698" lon="6.85043">
        <ele>2394</ele>
        <time>2020-09-15T12:01:41Z</time>
      </trkpt>
      <trkpt lat="44.33671" lon="6.8503">
        <ele>2386</ele>
        <time>2020-09-15T12:01:46Z</time>
      </trkpt>
      <trkpt lat="44.3364" lon="6.85009">
        <ele>2370</ele>
        <time>2020-09-15T12:01:52Z</time>
      </trkpt>
      <trkpt lat="44.33632" lon="6.8501">
        <ele>2369</ele>
        <time>2020-09-15T12:01:53Z</time>
      </trkpt>
      <trkpt lat="44.33624" lon="6.85016">
        <ele>2370</ele>
        <time>2020-09-15T12:01:55Z</time>
      </trkpt>
      <trkpt lat="44.33605" lon="6.85048">
        <ele>2379</ele>
        <time>2020-09-15T12:02:00Z</time>
      </trkpt>
      <trkpt lat="44.33595" lon="6.85056">
        <ele>2379</ele>
        <time>2020-09-15T12:02:02Z</time>
      </trkpt>
      <trkpt lat="44.33581" lon="6.85062">
        <ele>2379</ele>
        <time>2020-09-15T12:02:05Z</time>
      </trkpt>
      <trkpt lat="44.33554" lon="6.85066">
        <ele>2379</ele>
        <time>2020-09-15T12:02:10Z</time>
      </trkpt>
      <trkpt lat="44.3354" lon="6.85066">
        <ele>2378</ele>
        <time>2020-09-15T12:02:12Z</time>
      </trkpt>
      <trkpt lat="44.33527" lon="6.85063">
        <ele>2376</ele>
        <time>2020-09-15T12:02:15Z</time>
      </trkpt>
      <trkpt lat="44.33467" lon="6.85039">
        <ele>2361</ele>
        <time>2020-09-15T12:02:26Z</time>
      </trkpt>
      <trkpt lat="44.3343" lon="6.85031">
        <ele>2353</ele>
        <time>2020-09-15T12:02:32Z</time>
      </trkpt>
      <trkpt lat="44.33362" lon="6.85033">
        <ele>2338</ele>
        <time>2020-09-15T12:02:45Z</time>
      </trkpt>
      <trkpt lat="44.3335" lon="6.85035">
        <ele>2336</ele>
        <time>2020-09-15T12:02:47Z</time>
      </trkpt>
      <trkpt lat="44.33329" lon="6.85043">
        <ele>2333</ele>
        <time>2020-09-15T12:02:51Z</time>
      </trkpt>
      <trkpt lat="44.33306" lon="6.85056">
        <ele>2327</ele>
        <time>2020-09-15T12:02:55Z</time>
      </trkpt>
      <trkpt lat="44.33299" lon="6.85064">
        <ele>2327</ele>
        <time>2020-09-15T12:02:57Z</time>
      </trkpt>
      <trkpt lat="44.3329" lon="6.85081">
        <ele>2329</ele>
        <time>2020-09-15T12:02:59Z</time>
      </trkpt>
      <trkpt lat="44.33282" lon="6.85096">
        <ele>2328</ele>
        <time>2020-09-15T12:03:02Z</time>
      </trkpt>
      <trkpt lat="44.33281" lon="6.85099">
        <ele>2328</ele>
        <time>2020-09-15T12:03:02Z</time>
      </trkpt>
      <trkpt lat="44.33276" lon="6.85119">
        <ele>2330</ele>
        <time>2020-09-15T12:03:05Z</time>
      </trkpt>
      <trkpt lat="44.33277" lon="6.85134">
        <ele>2334</ele>
        <time>2020-09-15T12:03:07Z</time>
      </trkpt>
      <trkpt lat="44.33279" lon="6.85189">
        <ele>2344</ele>
        <time>2020-09-15T12:03:14Z</time>
      </trkpt>
      <trkpt lat="44.33279" lon="6.85203">
        <ele>2344</ele>
        <time>2020-09-15T12:03:16Z</time>
      </trkpt>
      <trkpt lat="44.33277" lon="6.85213">
        <ele>2343</ele>
        <time>2020-09-15T12:03:17Z</time>
      </trkpt>
      <trkpt lat="44.33262" lon="6.85251">
        <ele>2331</ele>
        <time>2020-09-15T12:03:22Z</time>
      </trkpt>
      <trkpt lat="44.33245" lon="6.85285">
        <ele>2321</ele>
        <time>2020-09-15T12:03:28Z</time>
      </trkpt>
      <trkpt lat="44.33246" lon="6.85324">
        <ele>2328</ele>
        <time>2020-09-15T12:03:33Z</time>
      </trkpt>
      <trkpt lat="44.33244" lon="6.85341">
        <ele>2329</ele>
        <time>2020-09-15T12:03:35Z</time>
      </trkpt>
      <trkpt lat="44.33236" lon="6.85362">
        <ele>2325</ele>
        <time>2020-09-15T12:03:38Z</time>
      </trkpt>
      <trkpt lat="44.33223" lon="6.85429">
        <ele>2323</ele>
        <time>2020-09-15T12:03:47Z</time>
      </trkpt>
      <trkpt lat="44.33218" lon="6.85449">
        <ele>2319</ele>
        <time>2020-09-15T12:03:49Z</time>
      </trkpt>
      <trkpt lat="44.33211" lon="6.85467">
        <ele>2314</ele>
        <time>2020-09-15T12:03:52Z</time>
      </trkpt>
      <trkpt lat="44.33209" lon="6.85477">
        <ele>2313</ele>
        <time>2020-09-15T12:03:53Z</time>
      </trkpt>
      <trkpt lat="44.33211" lon="6.85493">
        <ele>2315</ele>
        <time>2020-09-15T12:03:55Z</time>
      </trkpt>
      <trkpt lat="44.33232" lon="6.85571">
        <ele>2322</ele>
        <time>2020-09-15T12:04:06Z</time>
      </trkpt>
      <trkpt lat="44.33239" lon="6.85608">
        <ele>2323</ele>
        <time>2020-09-15T12:04:11Z</time>
      </trkpt>
      <trkpt lat="44.33241" lon="6.8568">
        <ele>2318</ele>
        <time>2020-09-15T12:04:20Z</time>
      </trkpt>
      <trkpt lat="44.33235" lon="6.85793">
        <ele>2313</ele>
        <time>2020-09-15T12:04:34Z</time>
      </trkpt>
      <trkpt lat="44.33232" lon="6.85815">
        <ele>2311</ele>
        <time>2020-09-15T12:04:37Z</time>
      </trkpt>
      <trkpt lat="44.33221" lon="6.85852">
        <ele>2305</ele>
        <time>2020-09-15T12:04:42Z</time>
      </trkpt>
      <trkpt lat="44.33221" lon="6.8588">
        <ele>2306</ele>
        <time>2020-09-15T12:04:46Z</time>
      </trkpt>
      <trkpt lat="44.33217" lon="6.85903">
        <ele>2305</ele>
        <time>2020-09-15T12:04:49Z</time>
      </trkpt>
      <trkpt lat="44.33209" lon="6.85922">
        <ele>2301</ele>
        <time>2020-09-15T12:04:52Z</time>
      </trkpt>
      <trkpt lat="44.33206" lon="6.85941">
        <ele>2301</ele>
        <time>2020-09-15T12:04:54Z</time>
      </trkpt>
      <trkpt lat="44.33184" lon="6.86002">
        <ele>2294</ele>
        <time>2020-09-15T12:05:03Z</time>
      </trkpt>
      <trkpt lat="44.33173" lon="6.86022">
        <ele>2287</ele>
        <time>2020-09-15T12:05:06Z</time>
      </trkpt>
      <trkpt lat="44.33164" lon="6.86034">
        <ele>2282</ele>
        <time>2020-09-15T12:05:08Z</time>
      </trkpt>
      <trkpt lat="44.33161" lon="6.86043">
        <ele>2280</ele>
        <time>2020-09-15T12:05:10Z</time>
      </trkpt>
      <trkpt lat="44.33162" lon="6.86053">
        <ele>2280</ele>
        <time>2020-09-15T12:05:11Z</time>
      </trkpt>
      <trkpt lat="44.33177" lon="6.86087">
        <ele>2284</ele>
        <time>2020-09-15T12:05:16Z</time>
      </trkpt>
      <trkpt lat="44.33187" lon="6.86104">
        <ele>2285</ele>
        <time>2020-09-15T12:05:19Z</time>
      </trkpt>
      <trkpt lat="44.33205" lon="6.86119">
        <ele>2288</ele>
        <time>2020-09-15T12:05:23Z</time>
      </trkpt>
      <trkpt lat="44.33217" lon="6.86132">
        <ele>2289</ele>
        <time>2020-09-15T12:05:25Z</time>
      </trkpt>
      <trkpt lat="44.33268" lon="6.86213">
        <ele>2279</ele>
        <time>2020-09-15T12:05:39Z</time>
      </trkpt>
      <trkpt lat="44.3338" lon="6.86328">
        <ele>2277</ele>
        <time>2020-09-15T12:06:04Z</time>
      </trkpt>
      <trkpt lat="44.33387" lon="6.86339">
        <ele>2277</ele>
        <time>2020-09-15T12:06:06Z</time>
      </trkpt>
      <trkpt lat="44.3339" lon="6.86352">
        <ele>2276</ele>
        <time>2020-09-15T12:06:07Z</time>
      </trkpt>
      <trkpt lat="44.3339" lon="6.86368">
        <ele>2274</ele>
        <time>2020-09-15T12:06:09Z</time>
      </trkpt>
      <trkpt lat="44.33388" lon="6.86383">
        <ele>2272</ele>
        <time>2020-09-15T12:06:11Z</time>
      </trkpt>
      <trkpt lat="44.33381" lon="6.86432">
        <ele>2266</ele>
        <time>2020-09-15T12:06:18Z</time>
      </trkpt>
      <trkpt lat="44.33378" lon="6.86445">
        <ele>2266</ele>
        <time>2020-09-15T12:06:19Z</time>
      </trkpt>
      <trkpt lat="44.33374" lon="6.86459">
        <ele>2265</ele>
        <time>2020-09-15T12:06:21Z</time>
      </trkpt>
      <trkpt lat="44.33374" lon="6.86523">
        <ele>2266</ele>
        <time>2020-09-15T12:06:29Z</time>
      </trkpt>
      <trkpt lat="44.33374" lon="6.86575">
        <ele>2267</ele>
        <time>2020-09-15T12:06:36Z</time>
      </trkpt>
      <trkpt lat="44.33373" lon="6.86587">
        <ele>2267</ele>
        <time>2020-09-15T12:06:38Z</time>
      </trkpt>
      <trkpt lat="44.33371" lon="6.86596">
        <ele>2267</ele>
        <time>2020-09-15T12:06:39Z</time>
      </trkpt>
      <trkpt lat="44.33366" lon="6.86611">
        <ele>2266</ele>
        <time>2020-09-15T12:06:41Z</time>
      </trkpt>
      <trkpt lat="44.33355" lon="6.86637">
        <ele>2263</ele>
        <time>2020-09-15T12:06:45Z</time>
      </trkpt>
      <trkpt lat="44.33332" lon="6.86676">
        <ele>2258</ele>
        <time>2020-09-15T12:06:51Z</time>
      </trkpt>
      <trkpt lat="44.33326" lon="6.86696">
        <ele>2256</ele>
        <time>2020-09-15T12:06:54Z</time>
      </trkpt>
      <trkpt lat="44.33325" lon="6.86711">
        <ele>2255</ele>
        <time>2020-09-15T12:06:56Z</time>
      </trkpt>
      <trkpt lat="44.33326" lon="6.86726">
        <ele>2255</ele>
        <time>2020-09-15T12:06:58Z</time>
      </trkpt>
      <trkpt lat="44.33336" lon="6.86785">
        <ele>2255</ele>
        <time>2020-09-15T12:07:05Z</time>
      </trkpt>
      <trkpt lat="44.33338" lon="6.86806">
        <ele>2255</ele>
        <time>2020-09-15T12:07:08Z</time>
      </trkpt>
      <trkpt lat="44.33336" lon="6.86833">
        <ele>2253</ele>
        <time>2020-09-15T12:07:12Z</time>
      </trkpt>
      <trkpt lat="44.33333" lon="6.8684">
        <ele>2253</ele>
        <time>2020-09-15T12:07:13Z</time>
      </trkpt>
      <trkpt lat="44.33327" lon="6.86848">
        <ele>2252</ele>
        <time>2020-09-15T12:07:14Z</time>
      </trkpt>
      <trkpt lat="44.33322" lon="6.86853">
        <ele>2252</ele>
        <time>2020-09-15T12:07:15Z</time>
      </trkpt>
      <trkpt lat="44.33291" lon="6.86863">
        <ele>2247</ele>
        <time>2020-09-15T12:07:21Z</time>
      </trkpt>
      <trkpt lat="44.33285" lon="6.86864">
        <ele>2246</ele>
        <time>2020-09-15T12:07:22Z</time>
      </trkpt>
      <trkpt lat="44.33281" lon="6.86862">
        <ele>2245</ele>
        <time>2020-09-15T12:07:23Z</time>
      </trkpt>
      <trkpt lat="44.33277" lon="6.86858">
        <ele>2244</ele>
        <time>2020-09-15T12:07:24Z</time>
      </trkpt>
      <trkpt lat="44.33274" lon="6.86847">
        <ele>2243</ele>
        <time>2020-09-15T12:07:25Z</time>
      </trkpt>
      <trkpt lat="44.33276" lon="6.86834">
        <ele>2243</ele>
        <time>2020-09-15T12:07:27Z</time>
      </trkpt>
      <trkpt lat="44.33291" lon="6.86807">
        <ele>2245</ele>
        <time>2020-09-15T12:07:31Z</time>
      </trkpt>
      <trkpt lat="44.33293" lon="6.86797">
        <ele>2246</ele>
        <time>2020-09-15T12:07:32Z</time>
      </trkpt>
      <trkpt lat="44.33295" lon="6.86784">
        <ele>2246</ele>
        <time>2020-09-15T12:07:34Z</time>
      </trkpt>
      <trkpt lat="44.33292" lon="6.86763">
        <ele>2246</ele>
        <time>2020-09-15T12:07:37Z</time>
      </trkpt>
      <trkpt lat="44.33289" lon="6.86749">
        <ele>2245</ele>
        <time>2020-09-15T12:07:39Z</time>
      </trkpt>
      <trkpt lat="44.33282" lon="6.86738">
        <ele>2243</ele>
        <time>2020-09-15T12:07:41Z</time>
      </trkpt>
      <trkpt lat="44.33273" lon="6.86733">
        <ele>2241</ele>
        <time>2020-09-15T12:07:42Z</time>
      </trkpt>
      <trkpt lat="44.33261" lon="6.86733">
        <ele>2238</ele>
        <time>2020-09-15T12:07:44Z</time>
      </trkpt>
      <trkpt lat="44.33235" lon="6.86742">
        <ele>2232</ele>
        <time>2020-09-15T12:07:49Z</time>
      </trkpt>
      <trkpt lat="44.3323" lon="6.86742">
        <ele>2231</ele>
        <time>2020-09-15T12:07:50Z</time>
      </trkpt>
      <trkpt lat="44.33223" lon="6.86739">
        <ele>2229</ele>
        <time>2020-09-15T12:07:51Z</time>
      </trkpt>
      <trkpt lat="44.33214" lon="6.86729">
        <ele>2228</ele>
        <time>2020-09-15T12:07:53Z</time>
      </trkpt>
      <trkpt lat="44.33187" lon="6.86685">
        <ele>2226</ele>
        <time>2020-09-15T12:08:01Z</time>
      </trkpt>
      <trkpt lat="44.33179" lon="6.8666">
        <ele>2227</ele>
        <time>2020-09-15T12:08:04Z</time>
      </trkpt>
      <trkpt lat="44.33173" lon="6.86654">
        <ele>2227</ele>
        <time>2020-09-15T12:08:06Z</time>
      </trkpt>
      <trkpt lat="44.33167" lon="6.86653">
        <ele>2226</ele>
        <time>2020-09-15T12:08:07Z</time>
      </trkpt>
      <trkpt lat="44.33161" lon="6.8666">
        <ele>2224</ele>
        <time>2020-09-15T12:08:08Z</time>
      </trkpt>
      <trkpt lat="44.3316" lon="6.8667">
        <ele>2223</ele>
        <time>2020-09-15T12:08:09Z</time>
      </trkpt>
      <trkpt lat="44.33162" lon="6.86682">
        <ele>2222</ele>
        <time>2020-09-15T12:08:11Z</time>
      </trkpt>
      <trkpt lat="44.33171" lon="6.86711">
        <ele>2221</ele>
        <time>2020-09-15T12:08:15Z</time>
      </trkpt>
      <trkpt lat="44.33176" lon="6.86732">
        <ele>2220</ele>
        <time>2020-09-15T12:08:18Z</time>
      </trkpt>
      <trkpt lat="44.33181" lon="6.86759">
        <ele>2219</ele>
        <time>2020-09-15T12:08:21Z</time>
      </trkpt>
      <trkpt lat="44.33181" lon="6.8678">
        <ele>2219</ele>
        <time>2020-09-15T12:08:24Z</time>
      </trkpt>
      <trkpt lat="44.33178" lon="6.86793">
        <ele>2219</ele>
        <time>2020-09-15T12:08:26Z</time>
      </trkpt>
      <trkpt lat="44.33171" lon="6.86808">
        <ele>2217</ele>
        <time>2020-09-15T12:08:28Z</time>
      </trkpt>
      <trkpt lat="44.3315" lon="6.86834">
        <ele>2213</ele>
        <time>2020-09-15T12:08:33Z</time>
      </trkpt>
      <trkpt lat="44.3313" lon="6.86853">
        <ele>2212</ele>
        <time>2020-09-15T12:08:37Z</time>
      </trkpt>
      <trkpt lat="44.33118" lon="6.8686">
        <ele>2211</ele>
        <time>2020-09-15T12:08:40Z</time>
      </trkpt>
      <trkpt lat="44.33111" lon="6.86862">
        <ele>2211</ele>
        <time>2020-09-15T12:08:41Z</time>
      </trkpt>
      <trkpt lat="44.33081" lon="6.8686">
        <ele>2206</ele>
        <time>2020-09-15T12:08:46Z</time>
      </trkpt>
      <trkpt lat="44.33071" lon="6.86863">
        <ele>2205</ele>
        <time>2020-09-15T12:08:48Z</time>
      </trkpt>
      <trkpt lat="44.33042" lon="6.86876">
        <ele>2205</ele>
        <time>2020-09-15T12:08:54Z</time>
      </trkpt>
      <trkpt lat="44.33025" lon="6.86877">
        <ele>2204</ele>
        <time>2020-09-15T12:08:57Z</time>
      </trkpt>
      <trkpt lat="44.33012" lon="6.86875">
        <ele>2202</ele>
        <time>2020-09-15T12:08:59Z</time>
      </trkpt>
      <trkpt lat="44.3295" lon="6.8685">
        <ele>2196</ele>
        <time>2020-09-15T12:09:10Z</time>
      </trkpt>
      <trkpt lat="44.32924" lon="6.86846">
        <ele>2196</ele>
        <time>2020-09-15T12:09:15Z</time>
      </trkpt>
      <trkpt lat="44.32871" lon="6.8682">
        <ele>2193</ele>
        <time>2020-09-15T12:09:25Z</time>
      </trkpt>
      <trkpt lat="44.32867" lon="6.86815">
        <ele>2191</ele>
        <time>2020-09-15T12:09:26Z</time>
      </trkpt>
      <trkpt lat="44.32865" lon="6.86806">
        <ele>2189</ele>
        <time>2020-09-15T12:09:27Z</time>
      </trkpt>
      <trkpt lat="44.32867" lon="6.86801">
        <ele>2187</ele>
        <time>2020-09-15T12:09:28Z</time>
      </trkpt>
      <trkpt lat="44.32874" lon="6.86798">
        <ele>2186</ele>
        <time>2020-09-15T12:09:29Z</time>
      </trkpt>
      <trkpt lat="44.32906" lon="6.86818">
        <ele>2190</ele>
        <time>2020-09-15T12:09:35Z</time>
      </trkpt>
      <trkpt lat="44.32916" lon="6.86819">
        <ele>2189</ele>
        <time>2020-09-15T12:09:37Z</time>
      </trkpt>
      <trkpt lat="44.32937" lon="6.86815">
        <ele>2188</ele>
        <time>2020-09-15T12:09:41Z</time>
      </trkpt>
      <trkpt lat="44.32978" lon="6.86802">
        <ele>2184</ele>
        <time>2020-09-15T12:09:48Z</time>
      </trkpt>
      <trkpt lat="44.33009" lon="6.86783">
        <ele>2184</ele>
        <time>2020-09-15T12:09:54Z</time>
      </trkpt>
      <trkpt lat="44.33014" lon="6.86776">
        <ele>2184</ele>
        <time>2020-09-15T12:09:56Z</time>
      </trkpt>
      <trkpt lat="44.33017" lon="6.86766">
        <ele>2183</ele>
        <time>2020-09-15T12:09:57Z</time>
      </trkpt>
      <trkpt lat="44.33017" lon="6.86756">
        <ele>2182</ele>
        <time>2020-09-15T12:09:58Z</time>
      </trkpt>
      <trkpt lat="44.33001" lon="6.86719">
        <ele>2179</ele>
        <time>2020-09-15T12:10:04Z</time>
      </trkpt>
      <trkpt lat="44.32958" lon="6.86607">
        <ele>2171</ele>
        <time>2020-09-15T12:10:20Z</time>
      </trkpt>
      <trkpt lat="44.32947" lon="6.8657">
        <ele>2169</ele>
        <time>2020-09-15T12:10:25Z</time>
      </trkpt>
      <trkpt lat="44.3294" lon="6.86555">
        <ele>2167</ele>
        <time>2020-09-15T12:10:27Z</time>
      </trkpt>
      <trkpt lat="44.32885" lon="6.86479">
        <ele>2156</ele>
        <time>2020-09-15T12:10:41Z</time>
      </trkpt>
      <trkpt lat="44.32879" lon="6.86468">
        <ele>2154</ele>
        <time>2020-09-15T12:10:43Z</time>
      </trkpt>
      <trkpt lat="44.32877" lon="6.86458">
        <ele>2154</ele>
        <time>2020-09-15T12:10:44Z</time>
      </trkpt>
      <trkpt lat="44.32876" lon="6.86444">
        <ele>2153</ele>
        <time>2020-09-15T12:10:46Z</time>
      </trkpt>
      <trkpt lat="44.32889" lon="6.86404">
        <ele>2154</ele>
        <time>2020-09-15T12:10:52Z</time>
      </trkpt>
      <trkpt lat="44.32893" lon="6.86384">
        <ele>2154</ele>
        <time>2020-09-15T12:10:54Z</time>
      </trkpt>
      <trkpt lat="44.32892" lon="6.86371">
        <ele>2153</ele>
        <time>2020-09-15T12:10:56Z</time>
      </trkpt>
      <trkpt lat="44.32882" lon="6.86333">
        <ele>2148</ele>
        <time>2020-09-15T12:11:01Z</time>
      </trkpt>
      <trkpt lat="44.32882" lon="6.86316">
        <ele>2147</ele>
        <time>2020-09-15T12:11:03Z</time>
      </trkpt>
      <trkpt lat="44.32886" lon="6.86295">
        <ele>2146</ele>
        <time>2020-09-15T12:11:06Z</time>
      </trkpt>
      <trkpt lat="44.32887" lon="6.86285">
        <ele>2145</ele>
        <time>2020-09-15T12:11:07Z</time>
      </trkpt>
      <trkpt lat="44.32884" lon="6.86278">
        <ele>2144</ele>
        <time>2020-09-15T12:11:08Z</time>
      </trkpt>
      <trkpt lat="44.3288" lon="6.86274">
        <ele>2142</ele>
        <time>2020-09-15T12:11:09Z</time>
      </trkpt>
      <trkpt lat="44.32872" lon="6.86275">
        <ele>2140</ele>
        <time>2020-09-15T12:11:11Z</time>
      </trkpt>
      <trkpt lat="44.32846" lon="6.86303">
        <ele>2135</ele>
        <time>2020-09-15T12:11:17Z</time>
      </trkpt>
      <trkpt lat="44.32839" lon="6.86314">
        <ele>2134</ele>
        <time>2020-09-15T12:11:18Z</time>
      </trkpt>
      <trkpt lat="44.32835" lon="6.86327">
        <ele>2135</ele>
        <time>2020-09-15T12:11:20Z</time>
      </trkpt>
      <trkpt lat="44.32831" lon="6.8635">
        <ele>2136</ele>
        <time>2020-09-15T12:11:23Z</time>
      </trkpt>
      <trkpt lat="44.32823" lon="6.86363">
        <ele>2135</ele>
        <time>2020-09-15T12:11:25Z</time>
      </trkpt>
      <trkpt lat="44.32815" lon="6.86367">
        <ele>2133</ele>
        <time>2020-09-15T12:11:27Z</time>
      </trkpt>
      <trkpt lat="44.32787" lon="6.8637">
        <ele>2126</ele>
        <time>2020-09-15T12:11:32Z</time>
      </trkpt>
      <trkpt lat="44.32775" lon="6.86375">
        <ele>2124</ele>
        <time>2020-09-15T12:11:34Z</time>
      </trkpt>
      <trkpt lat="44.32767" lon="6.86384">
        <ele>2123</ele>
        <time>2020-09-15T12:11:36Z</time>
      </trkpt>
      <trkpt lat="44.32746" lon="6.86415">
        <ele>2122</ele>
        <time>2020-09-15T12:11:41Z</time>
      </trkpt>
      <trkpt lat="44.3272" lon="6.86457">
        <ele>2118</ele>
        <time>2020-09-15T12:11:48Z</time>
      </trkpt>
      <trkpt lat="44.32709" lon="6.86492">
        <ele>2119</ele>
        <time>2020-09-15T12:11:53Z</time>
      </trkpt>
      <trkpt lat="44.32704" lon="6.86502">
        <ele>2119</ele>
        <time>2020-09-15T12:11:55Z</time>
      </trkpt>
      <trkpt lat="44.32696" lon="6.86506">
        <ele>2117</ele>
        <time>2020-09-15T12:11:56Z</time>
      </trkpt>
      <trkpt lat="44.32689" lon="6.86506">
        <ele>2116</ele>
        <time>2020-09-15T12:11:58Z</time>
      </trkpt>
      <trkpt lat="44.32684" lon="6.86504">
        <ele>2115</ele>
        <time>2020-09-15T12:11:59Z</time>
      </trkpt>
      <trkpt lat="44.32679" lon="6.86497">
        <ele>2112</ele>
        <time>2020-09-15T12:12:00Z</time>
      </trkpt>
      <trkpt lat="44.32678" lon="6.86494">
        <ele>2112</ele>
        <time>2020-09-15T12:12:00Z</time>
      </trkpt>
      <trkpt lat="44.32678" lon="6.86487">
        <ele>2111</ele>
        <time>2020-09-15T12:12:01Z</time>
      </trkpt>
      <trkpt lat="44.32682" lon="6.86463">
        <ele>2109</ele>
        <time>2020-09-15T12:12:04Z</time>
      </trkpt>
      <trkpt lat="44.32707" lon="6.86404">
        <ele>2109</ele>
        <time>2020-09-15T12:12:13Z</time>
      </trkpt>
      <trkpt lat="44.32711" lon="6.86389">
        <ele>2108</ele>
        <time>2020-09-15T12:12:15Z</time>
      </trkpt>
      <trkpt lat="44.3271" lon="6.86372">
        <ele>2105</ele>
        <time>2020-09-15T12:12:17Z</time>
      </trkpt>
      <trkpt lat="44.32708" lon="6.8634">
        <ele>2099</ele>
        <time>2020-09-15T12:12:21Z</time>
      </trkpt>
      <trkpt lat="44.3271" lon="6.86329">
        <ele>2098</ele>
        <time>2020-09-15T12:12:23Z</time>
      </trkpt>
      <trkpt lat="44.32713" lon="6.86319">
        <ele>2097</ele>
        <time>2020-09-15T12:12:24Z</time>
      </trkpt>
      <trkpt lat="44.32741" lon="6.86301">
        <ele>2103</ele>
        <time>2020-09-15T12:12:30Z</time>
      </trkpt>
      <trkpt lat="44.32765" lon="6.86249">
        <ele>2100</ele>
        <time>2020-09-15T12:12:37Z</time>
      </trkpt>
      <trkpt lat="44.32797" lon="6.86204">
        <ele>2102</ele>
        <time>2020-09-15T12:12:46Z</time>
      </trkpt>
      <trkpt lat="44.32802" lon="6.86192">
        <ele>2101</ele>
        <time>2020-09-15T12:12:47Z</time>
      </trkpt>
      <trkpt lat="44.32803" lon="6.86167">
        <ele>2097</ele>
        <time>2020-09-15T12:12:51Z</time>
      </trkpt>
      <trkpt lat="44.32801" lon="6.86135">
        <ele>2092</ele>
        <time>2020-09-15T12:12:55Z</time>
      </trkpt>
      <trkpt lat="44.32804" lon="6.86092">
        <ele>2088</ele>
        <time>2020-09-15T12:13:00Z</time>
      </trkpt>
      <trkpt lat="44.32814" lon="6.8605">
        <ele>2090</ele>
        <time>2020-09-15T12:13:06Z</time>
      </trkpt>
      <trkpt lat="44.32816" lon="6.86028">
        <ele>2091</ele>
        <time>2020-09-15T12:13:09Z</time>
      </trkpt>
      <trkpt lat="44.32812" lon="6.85996">
        <ele>2088</ele>
        <time>2020-09-15T12:13:13Z</time>
      </trkpt>
      <trkpt lat="44.32806" lon="6.85963">
        <ele>2084</ele>
        <time>2020-09-15T12:13:17Z</time>
      </trkpt>
      <trkpt lat="44.32803" lon="6.85959">
        <ele>2083</ele>
        <time>2020-09-15T12:13:18Z</time>
      </trkpt>
      <trkpt lat="44.32797" lon="6.85958">
        <ele>2080</ele>
        <time>2020-09-15T12:13:19Z</time>
      </trkpt>
      <trkpt lat="44.32792" lon="6.85963">
        <ele>2078</ele>
        <time>2020-09-15T12:13:20Z</time>
      </trkpt>
      <trkpt lat="44.32785" lon="6.86016">
        <ele>2077</ele>
        <time>2020-09-15T12:13:27Z</time>
      </trkpt>
      <trkpt lat="44.32779" lon="6.86052">
        <ele>2075</ele>
        <time>2020-09-15T12:13:32Z</time>
      </trkpt>
      <trkpt lat="44.32768" lon="6.86088">
        <ele>2072</ele>
        <time>2020-09-15T12:13:36Z</time>
      </trkpt>
      <trkpt lat="44.32752" lon="6.86122">
        <ele>2071</ele>
        <time>2020-09-15T12:13:42Z</time>
      </trkpt>
      <trkpt lat="44.32714" lon="6.86183">
        <ele>2068</ele>
        <time>2020-09-15T12:13:52Z</time>
      </trkpt>
      <trkpt lat="44.3269" lon="6.86209">
        <ele>2066</ele>
        <time>2020-09-15T12:13:57Z</time>
      </trkpt>
      <trkpt lat="44.32679" lon="6.86217">
        <ele>2064</ele>
        <time>2020-09-15T12:14:00Z</time>
      </trkpt>
      <trkpt lat="44.32663" lon="6.86219">
        <ele>2060</ele>
        <time>2020-09-15T12:14:02Z</time>
      </trkpt>
      <trkpt lat="44.32639" lon="6.86228">
        <ele>2053</ele>
        <time>2020-09-15T12:14:07Z</time>
      </trkpt>
      <trkpt lat="44.32624" lon="6.86235">
        <ele>2050</ele>
        <time>2020-09-15T12:14:10Z</time>
      </trkpt>
      <trkpt lat="44.32613" lon="6.86248">
        <ele>2048</ele>
        <time>2020-09-15T12:14:12Z</time>
      </trkpt>
      <trkpt lat="44.32608" lon="6.86247">
        <ele>2046</ele>
        <time>2020-09-15T12:14:13Z</time>
      </trkpt>
      <trkpt lat="44.32607" lon="6.86245">
        <ele>2045</ele>
        <time>2020-09-15T12:14:13Z</time>
      </trkpt>
      <trkpt lat="44.32606" lon="6.86238">
        <ele>2044</ele>
        <time>2020-09-15T12:14:14Z</time>
      </trkpt>
      <trkpt lat="44.32608" lon="6.86227">
        <ele>2042</ele>
        <time>2020-09-15T12:14:16Z</time>
      </trkpt>
      <trkpt lat="44.32616" lon="6.86216">
        <ele>2043</ele>
        <time>2020-09-15T12:14:18Z</time>
      </trkpt>
      <trkpt lat="44.32636" lon="6.86205">
        <ele>2047</ele>
        <time>2020-09-15T12:14:22Z</time>
      </trkpt>
      <trkpt lat="44.32657" lon="6.86189">
        <ele>2050</ele>
        <time>2020-09-15T12:14:26Z</time>
      </trkpt>
      <trkpt lat="44.32663" lon="6.86178">
        <ele>2049</ele>
        <time>2020-09-15T12:14:28Z</time>
      </trkpt>
      <trkpt lat="44.32666" lon="6.86169">
        <ele>2047</ele>
        <time>2020-09-15T12:14:29Z</time>
      </trkpt>
      <trkpt lat="44.3267" lon="6.86136">
        <ele>2044</ele>
        <time>2020-09-15T12:14:33Z</time>
      </trkpt>
      <trkpt lat="44.32676" lon="6.86116">
        <ele>2044</ele>
        <time>2020-09-15T12:14:36Z</time>
      </trkpt>
      <trkpt lat="44.32706" lon="6.86062">
        <ele>2047</ele>
        <time>2020-09-15T12:14:45Z</time>
      </trkpt>
      <trkpt lat="44.32711" lon="6.86045">
        <ele>2048</ele>
        <time>2020-09-15T12:14:47Z</time>
      </trkpt>
      <trkpt lat="44.32713" lon="6.8603">
        <ele>2047</ele>
        <time>2020-09-15T12:14:49Z</time>
      </trkpt>
      <trkpt lat="44.32712" lon="6.86013">
        <ele>2046</ele>
        <time>2020-09-15T12:14:51Z</time>
      </trkpt>
      <trkpt lat="44.32706" lon="6.85979">
        <ele>2041</ele>
        <time>2020-09-15T12:14:56Z</time>
      </trkpt>
      <trkpt lat="44.32705" lon="6.85962">
        <ele>2040</ele>
        <time>2020-09-15T12:14:58Z</time>
      </trkpt>
      <trkpt lat="44.32704" lon="6.8593">
        <ele>2038</ele>
        <time>2020-09-15T12:15:02Z</time>
      </trkpt>
      <trkpt lat="44.32709" lon="6.85882">
        <ele>2037</ele>
        <time>2020-09-15T12:15:08Z</time>
      </trkpt>
      <trkpt lat="44.32708" lon="6.85857">
        <ele>2035</ele>
        <time>2020-09-15T12:15:11Z</time>
      </trkpt>
      <trkpt lat="44.32697" lon="6.85792">
        <ele>2027</ele>
        <time>2020-09-15T12:15:20Z</time>
      </trkpt>
      <trkpt lat="44.32696" lon="6.85762">
        <ele>2025</ele>
        <time>2020-09-15T12:15:23Z</time>
      </trkpt>
      <trkpt lat="44.32696" lon="6.85735">
        <ele>2022</ele>
        <time>2020-09-15T12:15:27Z</time>
      </trkpt>
      <trkpt lat="44.327" lon="6.85713">
        <ele>2020</ele>
        <time>2020-09-15T12:15:30Z</time>
      </trkpt>
      <trkpt lat="44.32715" lon="6.85657">
        <ele>2017</ele>
        <time>2020-09-15T12:15:37Z</time>
      </trkpt>
      <trkpt lat="44.32723" lon="6.85638">
        <ele>2017</ele>
        <time>2020-09-15T12:15:40Z</time>
      </trkpt>
      <trkpt lat="44.3274" lon="6.85574">
        <ele>2015</ele>
        <time>2020-09-15T12:15:49Z</time>
      </trkpt>
      <trkpt lat="44.32746" lon="6.85545">
        <ele>2015</ele>
        <time>2020-09-15T12:15:53Z</time>
      </trkpt>
      <trkpt lat="44.32748" lon="6.85523">
        <ele>2014</ele>
        <time>2020-09-15T12:15:56Z</time>
      </trkpt>
      <trkpt lat="44.32747" lon="6.85509">
        <ele>2013</ele>
        <time>2020-09-15T12:15:57Z</time>
      </trkpt>
      <trkpt lat="44.32727" lon="6.85462">
        <ele>2006</ele>
        <time>2020-09-15T12:16:04Z</time>
      </trkpt>
      <trkpt lat="44.32716" lon="6.85416">
        <ele>2003</ele>
        <time>2020-09-15T12:16:10Z</time>
      </trkpt>
      <trkpt lat="44.32706" lon="6.85393">
        <ele>2002</ele>
        <time>2020-09-15T12:16:14Z</time>
      </trkpt>
      <trkpt lat="44.32672" lon="6.85341">
        <ele>1996</ele>
        <time>2020-09-15T12:16:23Z</time>
      </trkpt>
      <trkpt lat="44.32667" lon="6.85326">
        <ele>1995</ele>
        <time>2020-09-15T12:16:25Z</time>
      </trkpt>
      <trkpt lat="44.32666" lon="6.85293">
        <ele>1992</ele>
        <time>2020-09-15T12:16:29Z</time>
      </trkpt>
      <trkpt lat="44.32668" lon="6.85234">
        <ele>1989</ele>
        <time>2020-09-15T12:16:37Z</time>
      </trkpt>
      <trkpt lat="44.32664" lon="6.85226">
        <ele>1987</ele>
        <time>2020-09-15T12:16:38Z</time>
      </trkpt>
      <trkpt lat="44.32661" lon="6.85225">
        <ele>1986</ele>
        <time>2020-09-15T12:16:38Z</time>
      </trkpt>
      <trkpt lat="44.32659" lon="6.85226">
        <ele>1985</ele>
        <time>2020-09-15T12:16:39Z</time>
      </trkpt>
      <trkpt lat="44.32655" lon="6.85232">
        <ele>1984</ele>
        <time>2020-09-15T12:16:40Z</time>
      </trkpt>
      <trkpt lat="44.32651" lon="6.85263">
        <ele>1984</ele>
        <time>2020-09-15T12:16:44Z</time>
      </trkpt>
      <trkpt lat="44.3264" lon="6.85303">
        <ele>1983</ele>
        <time>2020-09-15T12:16:49Z</time>
      </trkpt>
      <trkpt lat="44.32627" lon="6.85326">
        <ele>1980</ele>
        <time>2020-09-15T12:16:53Z</time>
      </trkpt>
      <trkpt lat="44.32619" lon="6.85338">
        <ele>1977</ele>
        <time>2020-09-15T12:16:55Z</time>
      </trkpt>
      <trkpt lat="44.32615" lon="6.8535">
        <ele>1976</ele>
        <time>2020-09-15T12:16:57Z</time>
      </trkpt>
      <trkpt lat="44.32598" lon="6.85436">
        <ele>1971</ele>
        <time>2020-09-15T12:17:08Z</time>
      </trkpt>
      <trkpt lat="44.32597" lon="6.85455">
        <ele>1970</ele>
        <time>2020-09-15T12:17:11Z</time>
      </trkpt>
      <trkpt lat="44.32603" lon="6.85488">
        <ele>1972</ele>
        <time>2020-09-15T12:17:15Z</time>
      </trkpt>
      <trkpt lat="44.32602" lon="6.85505">
        <ele>1972</ele>
        <time>2020-09-15T12:17:17Z</time>
      </trkpt>
      <trkpt lat="44.32599" lon="6.85514">
        <ele>1971</ele>
        <time>2020-09-15T12:17:18Z</time>
      </trkpt>
      <trkpt lat="44.32592" lon="6.85523">
        <ele>1970</ele>
        <time>2020-09-15T12:17:20Z</time>
      </trkpt>
      <trkpt lat="44.32548" lon="6.85557">
        <ele>1963</ele>
        <time>2020-09-15T12:17:29Z</time>
      </trkpt>
      <trkpt lat="44.32518" lon="6.85589">
        <ele>1960</ele>
        <time>2020-09-15T12:17:36Z</time>
      </trkpt>
      <trkpt lat="44.32509" lon="6.85604">
        <ele>1959</ele>
        <time>2020-09-15T12:17:38Z</time>
      </trkpt>
      <trkpt lat="44.32497" lon="6.85638">
        <ele>1958</ele>
        <time>2020-09-15T12:17:43Z</time>
      </trkpt>
      <trkpt lat="44.32475" lon="6.85678">
        <ele>1953</ele>
        <time>2020-09-15T12:17:50Z</time>
      </trkpt>
      <trkpt lat="44.32428" lon="6.85809">
        <ele>1941</ele>
        <time>2020-09-15T12:18:08Z</time>
      </trkpt>
      <trkpt lat="44.32426" lon="6.85821">
        <ele>1940</ele>
        <time>2020-09-15T12:18:10Z</time>
      </trkpt>
      <trkpt lat="44.32432" lon="6.85848">
        <ele>1943</ele>
        <time>2020-09-15T12:18:13Z</time>
      </trkpt>
      <trkpt lat="44.32432" lon="6.85874">
        <ele>1944</ele>
        <time>2020-09-15T12:18:17Z</time>
      </trkpt>
      <trkpt lat="44.32429" lon="6.85896">
        <ele>1943</ele>
        <time>2020-09-15T12:18:20Z</time>
      </trkpt>
      <trkpt lat="44.32426" lon="6.85905">
        <ele>1942</ele>
        <time>2020-09-15T12:18:21Z</time>
      </trkpt>
      <trkpt lat="44.32401" lon="6.85934">
        <ele>1935</ele>
        <time>2020-09-15T12:18:27Z</time>
      </trkpt>
      <trkpt lat="44.32374" lon="6.85979">
        <ele>1929</ele>
        <time>2020-09-15T12:18:34Z</time>
      </trkpt>
      <trkpt lat="44.32368" lon="6.85993">
        <ele>1928</ele>
        <time>2020-09-15T12:18:36Z</time>
      </trkpt>
      <trkpt lat="44.32362" lon="6.86034">
        <ele>1928</ele>
        <time>2020-09-15T12:18:41Z</time>
      </trkpt>
      <trkpt lat="44.32361" lon="6.86048">
        <ele>1928</ele>
        <time>2020-09-15T12:18:43Z</time>
      </trkpt>
      <trkpt lat="44.3236" lon="6.86064">
        <ele>1928</ele>
        <time>2020-09-15T12:18:45Z</time>
      </trkpt>
      <trkpt lat="44.3236" lon="6.86065">
        <ele>1928</ele>
        <time>2020-09-15T12:18:45Z</time>
      </trkpt>
      <trkpt lat="44.32359" lon="6.86076">
        <ele>1928</ele>
        <time>2020-09-15T12:18:47Z</time>
      </trkpt>
      <trkpt lat="44.3234" lon="6.86121">
        <ele>1925</ele>
        <time>2020-09-15T12:18:53Z</time>
      </trkpt>
      <trkpt lat="44.32325" lon="6.86144">
        <ele>1923</ele>
        <time>2020-09-15T12:18:57Z</time>
      </trkpt>
      <trkpt lat="44.32316" lon="6.86154">
        <ele>1922</ele>
        <time>2020-09-15T12:18:59Z</time>
      </trkpt>
      <trkpt lat="44.32306" lon="6.86162">
        <ele>1920</ele>
        <time>2020-09-15T12:19:02Z</time>
      </trkpt>
      <trkpt lat="44.32277" lon="6.86177">
        <ele>1914</ele>
        <time>2020-09-15T12:19:07Z</time>
      </trkpt>
      <trkpt lat="44.3227" lon="6.86185">
        <ele>1912</ele>
        <time>2020-09-15T12:19:09Z</time>
      </trkpt>
      <trkpt lat="44.3227" lon="6.86194">
        <ele>1912</ele>
        <time>2020-09-15T12:19:10Z</time>
      </trkpt>
      <trkpt lat="44.32273" lon="6.86203">
        <ele>1912</ele>
        <time>2020-09-15T12:19:11Z</time>
      </trkpt>
      <trkpt lat="44.32295" lon="6.86232">
        <ele>1917</ele>
        <time>2020-09-15T12:19:16Z</time>
      </trkpt>
      <trkpt lat="44.32301" lon="6.86246">
        <ele>1918</ele>
        <time>2020-09-15T12:19:18Z</time>
      </trkpt>
      <trkpt lat="44.32302" lon="6.8626">
        <ele>1919</ele>
        <time>2020-09-15T12:19:20Z</time>
      </trkpt>
      <trkpt lat="44.32299" lon="6.86276">
        <ele>1918</ele>
        <time>2020-09-15T12:19:22Z</time>
      </trkpt>
      <trkpt lat="44.32296" lon="6.86284">
        <ele>1917</ele>
        <time>2020-09-15T12:19:24Z</time>
      </trkpt>
      <trkpt lat="44.3228" lon="6.86314">
        <ele>1911</ele>
        <time>2020-09-15T12:19:28Z</time>
      </trkpt>
      <trkpt lat="44.32272" lon="6.86367">
        <ele>1909</ele>
        <time>2020-09-15T12:19:35Z</time>
      </trkpt>
      <trkpt lat="44.32269" lon="6.86377">
        <ele>1908</ele>
        <time>2020-09-15T12:19:37Z</time>
      </trkpt>
      <trkpt lat="44.32262" lon="6.86391">
        <ele>1904</ele>
        <time>2020-09-15T12:19:39Z</time>
      </trkpt>
      <trkpt lat="44.32256" lon="6.86396">
        <ele>1901</ele>
        <time>2020-09-15T12:19:40Z</time>
      </trkpt>
      <trkpt lat="44.3225" lon="6.86392">
        <ele>1898</ele>
        <time>2020-09-15T12:19:41Z</time>
      </trkpt>
      <trkpt lat="44.32251" lon="6.86345">
        <ele>1898</ele>
        <time>2020-09-15T12:19:47Z</time>
      </trkpt>
      <trkpt lat="44.32249" lon="6.86314">
        <ele>1899</ele>
        <time>2020-09-15T12:19:51Z</time>
      </trkpt>
      <trkpt lat="44.32246" lon="6.86289">
        <ele>1901</ele>
        <time>2020-09-15T12:19:54Z</time>
      </trkpt>
      <trkpt lat="44.32236" lon="6.86273">
        <ele>1899</ele>
        <time>2020-09-15T12:19:57Z</time>
      </trkpt>
      <trkpt lat="44.32214" lon="6.86256">
        <ele>1894</ele>
        <time>2020-09-15T12:20:02Z</time>
      </trkpt>
      <trkpt lat="44.32198" lon="6.8624">
        <ele>1891</ele>
        <time>2020-09-15T12:20:05Z</time>
      </trkpt>
      <trkpt lat="44.32178" lon="6.86204">
        <ele>1888</ele>
        <time>2020-09-15T12:20:11Z</time>
      </trkpt>
      <trkpt lat="44.32157" lon="6.8616">
        <ele>1882</ele>
        <time>2020-09-15T12:20:18Z</time>
      </trkpt>
      <trkpt lat="44.32156" lon="6.86154">
        <ele>1880</ele>
        <time>2020-09-15T12:20:18Z</time>
      </trkpt>
      <trkpt lat="44.32158" lon="6.86143">
        <ele>1879</ele>
        <time>2020-09-15T12:20:20Z</time>
      </trkpt>
      <trkpt lat="44.32161" lon="6.86137">
        <ele>1879</ele>
        <time>2020-09-15T12:20:21Z</time>
      </trkpt>
      <trkpt lat="44.32199" lon="6.86107">
        <ele>1883</ele>
        <time>2020-09-15T12:20:28Z</time>
      </trkpt>
      <trkpt lat="44.32208" lon="6.86094">
        <ele>1883</ele>
        <time>2020-09-15T12:20:31Z</time>
      </trkpt>
      <trkpt lat="44.32212" lon="6.86084">
        <ele>1882</ele>
        <time>2020-09-15T12:20:32Z</time>
      </trkpt>
      <trkpt lat="44.32218" lon="6.86061">
        <ele>1879</ele>
        <time>2020-09-15T12:20:35Z</time>
      </trkpt>
      <trkpt lat="44.32224" lon="6.86019">
        <ele>1874</ele>
        <time>2020-09-15T12:20:41Z</time>
      </trkpt>
      <trkpt lat="44.32228" lon="6.86004">
        <ele>1873</ele>
        <time>2020-09-15T12:20:43Z</time>
      </trkpt>
      <trkpt lat="44.32232" lon="6.85995">
        <ele>1873</ele>
        <time>2020-09-15T12:20:44Z</time>
      </trkpt>
      <trkpt lat="44.32242" lon="6.85985">
        <ele>1874</ele>
        <time>2020-09-15T12:20:46Z</time>
      </trkpt>
      <trkpt lat="44.32245" lon="6.85981">
        <ele>1874</ele>
        <time>2020-09-15T12:20:47Z</time>
      </trkpt>
      <trkpt lat="44.32265" lon="6.85936">
        <ele>1876</ele>
        <time>2020-09-15T12:20:54Z</time>
      </trkpt>
      <trkpt lat="44.32265" lon="6.85928">
        <ele>1876</ele>
        <time>2020-09-15T12:20:55Z</time>
      </trkpt>
      <trkpt lat="44.32263" lon="6.85923">
        <ele>1874</ele>
        <time>2020-09-15T12:20:56Z</time>
      </trkpt>
      <trkpt lat="44.32256" lon="6.85921">
        <ele>1871</ele>
        <time>2020-09-15T12:20:57Z</time>
      </trkpt>
      <trkpt lat="44.32251" lon="6.85925">
        <ele>1869</ele>
        <time>2020-09-15T12:20:58Z</time>
      </trkpt>
      <trkpt lat="44.32202" lon="6.85997">
        <ele>1865</ele>
        <time>2020-09-15T12:21:11Z</time>
      </trkpt>
      <trkpt lat="44.32189" lon="6.86007">
        <ele>1863</ele>
        <time>2020-09-15T12:21:13Z</time>
      </trkpt>
      <trkpt lat="44.32155" lon="6.86027">
        <ele>1858</ele>
        <time>2020-09-15T12:21:20Z</time>
      </trkpt>
      <trkpt lat="44.32147" lon="6.86034">
        <ele>1857</ele>
        <time>2020-09-15T12:21:21Z</time>
      </trkpt>
      <trkpt lat="44.3214" lon="6.8605">
        <ele>1857</ele>
        <time>2020-09-15T12:21:24Z</time>
      </trkpt>
      <trkpt lat="44.32124" lon="6.86107">
        <ele>1858</ele>
        <time>2020-09-15T12:21:32Z</time>
      </trkpt>
      <trkpt lat="44.32117" lon="6.86118">
        <ele>1856</ele>
        <time>2020-09-15T12:21:34Z</time>
      </trkpt>
      <trkpt lat="44.32096" lon="6.86135">
        <ele>1848</ele>
        <time>2020-09-15T12:21:38Z</time>
      </trkpt>
      <trkpt lat="44.32093" lon="6.8614">
        <ele>1847</ele>
        <time>2020-09-15T12:21:39Z</time>
      </trkpt>
      <trkpt lat="44.3209" lon="6.8615">
        <ele>1846</ele>
        <time>2020-09-15T12:21:40Z</time>
      </trkpt>
      <trkpt lat="44.32089" lon="6.8616">
        <ele>1847</ele>
        <time>2020-09-15T12:21:41Z</time>
      </trkpt>
      <trkpt lat="44.32097" lon="6.86216">
        <ele>1844</ele>
        <time>2020-09-15T12:21:49Z</time>
      </trkpt>
      <trkpt lat="44.32099" lon="6.86284">
        <ele>1835</ele>
        <time>2020-09-15T12:21:57Z</time>
      </trkpt>
      <trkpt lat="44.32109" lon="6.86388">
        <ele>1827</ele>
        <time>2020-09-15T12:22:11Z</time>
      </trkpt>
      <trkpt lat="44.32108" lon="6.86433">
        <ele>1825</ele>
        <time>2020-09-15T12:22:16Z</time>
      </trkpt>
      <trkpt lat="44.32096" lon="6.86485">
        <ele>1818</ele>
        <time>2020-09-15T12:22:23Z</time>
      </trkpt>
      <trkpt lat="44.32099" lon="6.86533">
        <ele>1824</ele>
        <time>2020-09-15T12:22:29Z</time>
      </trkpt>
      <trkpt lat="44.32097" lon="6.86541">
        <ele>1824</ele>
        <time>2020-09-15T12:22:31Z</time>
      </trkpt>
      <trkpt lat="44.32096" lon="6.86547">
        <ele>1824</ele>
        <time>2020-09-15T12:22:31Z</time>
      </trkpt>
      <trkpt lat="44.32081" lon="6.86563">
        <ele>1817</ele>
        <time>2020-09-15T12:22:35Z</time>
      </trkpt>
      <trkpt lat="44.32077" lon="6.8657">
        <ele>1816</ele>
        <time>2020-09-15T12:22:36Z</time>
      </trkpt>
      <trkpt lat="44.32048" lon="6.86644">
        <ele>1810</ele>
        <time>2020-09-15T12:22:47Z</time>
      </trkpt>
      <trkpt lat="44.32033" lon="6.86709">
        <ele>1807</ele>
        <time>2020-09-15T12:22:55Z</time>
      </trkpt>
      <trkpt lat="44.32022" lon="6.86782">
        <ele>1804</ele>
        <time>2020-09-15T12:23:05Z</time>
      </trkpt>
      <trkpt lat="44.32019" lon="6.86835">
        <ele>1805</ele>
        <time>2020-09-15T12:23:11Z</time>
      </trkpt>
      <trkpt lat="44.32015" lon="6.86842">
        <ele>1802</ele>
        <time>2020-09-15T12:23:13Z</time>
      </trkpt>
      <trkpt lat="44.32012" lon="6.86843">
        <ele>1800</ele>
        <time>2020-09-15T12:23:13Z</time>
      </trkpt>
      <trkpt lat="44.32009" lon="6.86841">
        <ele>1799</ele>
        <time>2020-09-15T12:23:14Z</time>
      </trkpt>
      <trkpt lat="44.32005" lon="6.86834">
        <ele>1796</ele>
        <time>2020-09-15T12:23:15Z</time>
      </trkpt>
      <trkpt lat="44.32005" lon="6.86827">
        <ele>1796</ele>
        <time>2020-09-15T12:23:16Z</time>
      </trkpt>
      <trkpt lat="44.32008" lon="6.86791">
        <ele>1796</ele>
        <time>2020-09-15T12:23:20Z</time>
      </trkpt>
      <trkpt lat="44.32004" lon="6.86696">
        <ele>1791</ele>
        <time>2020-09-15T12:23:33Z</time>
      </trkpt>
      <trkpt lat="44.32007" lon="6.86636">
        <ele>1790</ele>
        <time>2020-09-15T12:23:40Z</time>
      </trkpt>
      <trkpt lat="44.32006" lon="6.86632">
        <ele>1789</ele>
        <time>2020-09-15T12:23:41Z</time>
      </trkpt>
      <trkpt lat="44.32001" lon="6.8663">
        <ele>1786</ele>
        <time>2020-09-15T12:23:42Z</time>
      </trkpt>
      <trkpt lat="44.31996" lon="6.86634">
        <ele>1787</ele>
        <time>2020-09-15T12:23:43Z</time>
      </trkpt>
      <trkpt lat="44.31993" lon="6.86639">
        <ele>1788</ele>
        <time>2020-09-15T12:23:44Z</time>
      </trkpt>
      <trkpt lat="44.31985" lon="6.86721">
        <ele>1790</ele>
        <time>2020-09-15T12:23:54Z</time>
      </trkpt>
      <trkpt lat="44.31983" lon="6.86763">
        <ele>1789</ele>
        <time>2020-09-15T12:23:59Z</time>
      </trkpt>
      <trkpt lat="44.31968" lon="6.86838">
        <ele>1785</ele>
        <time>2020-09-15T12:24:09Z</time>
      </trkpt>
      <trkpt lat="44.3197" lon="6.86904">
        <ele>1782</ele>
        <time>2020-09-15T12:24:18Z</time>
      </trkpt>
      <trkpt lat="44.31963" lon="6.86958">
        <ele>1777</ele>
        <time>2020-09-15T12:24:25Z</time>
      </trkpt>
      <trkpt lat="44.31959" lon="6.87021">
        <ele>1773</ele>
        <time>2020-09-15T12:24:33Z</time>
      </trkpt>
      <trkpt lat="44.31958" lon="6.87108">
        <ele>1770</ele>
        <time>2020-09-15T12:24:44Z</time>
      </trkpt>
      <trkpt lat="44.31969" lon="6.87182">
        <ele>1772</ele>
        <time>2020-09-15T12:24:53Z</time>
      </trkpt>
      <trkpt lat="44.31969" lon="6.87206">
        <ele>1770</ele>
        <time>2020-09-15T12:24:57Z</time>
      </trkpt>
      <trkpt lat="44.32" lon="6.87405">
        <ele>1752</ele>
        <time>2020-09-15T12:25:22Z</time>
      </trkpt>
      <trkpt lat="44.32003" lon="6.87443">
        <ele>1747</ele>
        <time>2020-09-15T12:25:27Z</time>
      </trkpt>
      <trkpt lat="44.32009" lon="6.87481">
        <ele>1743</ele>
        <time>2020-09-15T12:25:32Z</time>
      </trkpt>
      <trkpt lat="44.32033" lon="6.8753">
        <ele>1747</ele>
        <time>2020-09-15T12:25:40Z</time>
      </trkpt>
      <trkpt lat="44.32051" lon="6.8761">
        <ele>1740</ele>
        <time>2020-09-15T12:25:50Z</time>
      </trkpt>
      <trkpt lat="44.32061" lon="6.87632">
        <ele>1740</ele>
        <time>2020-09-15T12:25:54Z</time>
      </trkpt>
      <trkpt lat="44.32067" lon="6.87651">
        <ele>1739</ele>
        <time>2020-09-15T12:25:56Z</time>
      </trkpt>
      <trkpt lat="44.32071" lon="6.87694">
        <ele>1732</ele>
        <time>2020-09-15T12:26:02Z</time>
      </trkpt>
      <trkpt lat="44.32075" lon="6.87712">
        <ele>1730</ele>
        <time>2020-09-15T12:26:04Z</time>
      </trkpt>
      <trkpt lat="44.32085" lon="6.87731">
        <ele>1728</ele>
        <time>2020-09-15T12:26:07Z</time>
      </trkpt>
      <trkpt lat="44.32095" lon="6.87744">
        <ele>1731</ele>
        <time>2020-09-15T12:26:10Z</time>
      </trkpt>
      <trkpt lat="44.32104" lon="6.87763">
        <ele>1732</ele>
        <time>2020-09-15T12:26:13Z</time>
      </trkpt>
      <trkpt lat="44.32114" lon="6.87797">
        <ele>1730</ele>
        <time>2020-09-15T12:26:17Z</time>
      </trkpt>
      <trkpt lat="44.3212" lon="6.87823">
        <ele>1728</ele>
        <time>2020-09-15T12:26:21Z</time>
      </trkpt>
      <trkpt lat="44.32143" lon="6.87882">
        <ele>1726</ele>
        <time>2020-09-15T12:26:29Z</time>
      </trkpt>
      <trkpt lat="44.3215" lon="6.87906">
        <ele>1723</ele>
        <time>2020-09-15T12:26:33Z</time>
      </trkpt>
      <trkpt lat="44.32155" lon="6.87943">
        <ele>1717</ele>
        <time>2020-09-15T12:26:38Z</time>
      </trkpt>
      <trkpt lat="44.32162" lon="6.87975">
        <ele>1712</ele>
        <time>2020-09-15T12:26:42Z</time>
      </trkpt>
      <trkpt lat="44.32168" lon="6.87994">
        <ele>1710</ele>
        <time>2020-09-15T12:26:44Z</time>
      </trkpt>
      <trkpt lat="44.32181" lon="6.88021">
        <ele>1711</ele>
        <time>2020-09-15T12:26:49Z</time>
      </trkpt>
      <trkpt lat="44.32188" lon="6.88041">
        <ele>1710</ele>
        <time>2020-09-15T12:26:51Z</time>
      </trkpt>
      <trkpt lat="44.32193" lon="6.88077">
        <ele>1702</ele>
        <time>2020-09-15T12:26:56Z</time>
      </trkpt>
      <trkpt lat="44.32201" lon="6.88111">
        <ele>1698</ele>
        <time>2020-09-15T12:27:01Z</time>
      </trkpt>
      <trkpt lat="44.32233" lon="6.88197">
        <ele>1693</ele>
        <time>2020-09-15T12:27:13Z</time>
      </trkpt>
      <trkpt lat="44.32247" lon="6.88228">
        <ele>1690</ele>
        <time>2020-09-15T12:27:18Z</time>
      </trkpt>
      <trkpt lat="44.3226" lon="6.88243">
        <ele>1690</ele>
        <time>2020-09-15T12:27:21Z</time>
      </trkpt>
      <trkpt lat="44.32284" lon="6.88258">
        <ele>1693</ele>
        <time>2020-09-15T12:27:25Z</time>
      </trkpt>
      <trkpt lat="44.32302" lon="6.88278">
        <ele>1692</ele>
        <time>2020-09-15T12:27:29Z</time>
      </trkpt>
      <trkpt lat="44.32327" lon="6.88314">
        <ele>1686</ele>
        <time>2020-09-15T12:27:36Z</time>
      </trkpt>
      <trkpt lat="44.32352" lon="6.88347">
        <ele>1684</ele>
        <time>2020-09-15T12:27:42Z</time>
      </trkpt>
      <trkpt lat="44.32354" lon="6.8835">
        <ele>1684</ele>
        <time>2020-09-15T12:27:42Z</time>
      </trkpt>
      <trkpt lat="44.32355" lon="6.88362">
        <ele>1683</ele>
        <time>2020-09-15T12:27:44Z</time>
      </trkpt>
      <trkpt lat="44.32358" lon="6.88405">
        <ele>1679</ele>
        <time>2020-09-15T12:27:49Z</time>
      </trkpt>
      <trkpt lat="44.32357" lon="6.88422">
        <ele>1678</ele>
        <time>2020-09-15T12:27:52Z</time>
      </trkpt>
      <trkpt lat="44.32349" lon="6.88445">
        <ele>1678</ele>
        <time>2020-09-15T12:27:55Z</time>
      </trkpt>
      <trkpt lat="44.32334" lon="6.88465">
        <ele>1674</ele>
        <time>2020-09-15T12:27:59Z</time>
      </trkpt>
      <trkpt lat="44.32207" lon="6.88653">
        <ele>1661</ele>
        <time>2020-09-15T12:28:31Z</time>
      </trkpt>
      <trkpt lat="44.32184" lon="6.8869">
        <ele>1661</ele>
        <time>2020-09-15T12:28:38Z</time>
      </trkpt>
      <trkpt lat="44.32162" lon="6.88737">
        <ele>1663</ele>
        <time>2020-09-15T12:28:45Z</time>
      </trkpt>
      <trkpt lat="44.32121" lon="6.88847">
        <ele>1662</ele>
        <time>2020-09-15T12:29:01Z</time>
      </trkpt>
      <trkpt lat="44.32066" lon="6.88972">
        <ele>1652</ele>
        <time>2020-09-15T12:29:19Z</time>
      </trkpt>
      <trkpt lat="44.32063" lon="6.88988">
        <ele>1652</ele>
        <time>2020-09-15T12:29:21Z</time>
      </trkpt>
      <trkpt lat="44.32061" lon="6.89051">
        <ele>1651</ele>
        <time>2020-09-15T12:29:29Z</time>
      </trkpt>
      <trkpt lat="44.32033" lon="6.8927">
        <ele>1651</ele>
        <time>2020-09-15T12:29:58Z</time>
      </trkpt>
      <trkpt lat="44.32031" lon="6.8928">
        <ele>1651</ele>
        <time>2020-09-15T12:29:59Z</time>
      </trkpt>
      <trkpt lat="44.32017" lon="6.89315">
        <ele>1647</ele>
        <time>2020-09-15T12:30:04Z</time>
      </trkpt>
      <trkpt lat="44.31994" lon="6.89372">
        <ele>1643</ele>
        <time>2020-09-15T12:30:13Z</time>
      </trkpt>
      <trkpt lat="44.31987" lon="6.89382">
        <ele>1642</ele>
        <time>2020-09-15T12:30:14Z</time>
      </trkpt>
      <trkpt lat="44.31965" lon="6.89402">
        <ele>1633</ele>
        <time>2020-09-15T12:30:19Z</time>
      </trkpt>
      <trkpt lat="44.3196" lon="6.89415">
        <ele>1632</ele>
        <time>2020-09-15T12:30:21Z</time>
      </trkpt>
      <trkpt lat="44.31952" lon="6.89454">
        <ele>1635</ele>
        <time>2020-09-15T12:30:26Z</time>
      </trkpt>
      <trkpt lat="44.31948" lon="6.89466">
        <ele>1634</ele>
        <time>2020-09-15T12:30:28Z</time>
      </trkpt>
      <trkpt lat="44.31942" lon="6.89478">
        <ele>1632</ele>
        <time>2020-09-15T12:30:30Z</time>
      </trkpt>
      <trkpt lat="44.31913" lon="6.89529">
        <ele>1621</ele>
        <time>2020-09-15T12:30:38Z</time>
      </trkpt>
      <trkpt lat="44.31902" lon="6.89553">
        <ele>1621</ele>
        <time>2020-09-15T12:30:42Z</time>
      </trkpt>
      <trkpt lat="44.3189" lon="6.89594">
        <ele>1622</ele>
        <time>2020-09-15T12:30:47Z</time>
      </trkpt>
      <trkpt lat="44.31872" lon="6.8969">
        <ele>1626</ele>
        <time>2020-09-15T12:31:00Z</time>
      </trkpt>
      <trkpt lat="44.31868" lon="6.89704">
        <ele>1626</ele>
        <time>2020-09-15T12:31:02Z</time>
      </trkpt>
      <trkpt lat="44.31856" lon="6.89724">
        <ele>1623</ele>
        <time>2020-09-15T12:31:05Z</time>
      </trkpt>
      <trkpt lat="44.31809" lon="6.89783">
        <ele>1611</ele>
        <time>2020-09-15T12:31:16Z</time>
      </trkpt>
      <trkpt lat="44.31791" lon="6.89817">
        <ele>1609</ele>
        <time>2020-09-15T12:31:22Z</time>
      </trkpt>
      <trkpt lat="44.31764" lon="6.8988">
        <ele>1606</ele>
        <time>2020-09-15T12:31:31Z</time>
      </trkpt>
      <trkpt lat="44.31724" lon="6.89932">
        <ele>1601</ele>
        <time>2020-09-15T12:31:41Z</time>
      </trkpt>
      <trkpt lat="44.31705" lon="6.89955">
        <ele>1601</ele>
        <time>2020-09-15T12:31:45Z</time>
      </trkpt>
      <trkpt lat="44.31641" lon="6.9">
        <ele>1591</ele>
        <time>2020-09-15T12:31:58Z</time>
      </trkpt>
      <trkpt lat="44.31618" lon="6.90023">
        <ele>1594</ele>
        <time>2020-09-15T12:32:03Z</time>
      </trkpt>
      <trkpt lat="44.31596" lon="6.90038">
        <ele>1594</ele>
        <time>2020-09-15T12:32:07Z</time>
      </trkpt>
      <trkpt lat="44.31564" lon="6.9005">
        <ele>1593</ele>
        <time>2020-09-15T12:32:13Z</time>
      </trkpt>
      <trkpt lat="44.31515" lon="6.90059">
        <ele>1589</ele>
        <time>2020-09-15T12:32:22Z</time>
      </trkpt>
      <trkpt lat="44.31475" lon="6.90071">
        <ele>1587</ele>
        <time>2020-09-15T12:32:29Z</time>
      </trkpt>
      <trkpt lat="44.31448" lon="6.90087">
        <ele>1588</ele>
        <time>2020-09-15T12:32:35Z</time>
      </trkpt>
      <trkpt lat="44.31428" lon="6.90093">
        <ele>1588</ele>
        <time>2020-09-15T12:32:38Z</time>
      </trkpt>
      <trkpt lat="44.31401" lon="6.90094">
        <ele>1586</ele>
        <time>2020-09-15T12:32:43Z</time>
      </trkpt>
      <trkpt lat="44.31369" lon="6.90089">
        <ele>1583</ele>
        <time>2020-09-15T12:32:49Z</time>
      </trkpt>
      <trkpt lat="44.31297" lon="6.90064">
        <ele>1575</ele>
        <time>2020-09-15T12:33:02Z</time>
      </trkpt>
      <trkpt lat="44.31227" lon="6.90045">
        <ele>1569</ele>
        <time>2020-09-15T12:33:15Z</time>
      </trkpt>
      <trkpt lat="44.31196" lon="6.90067">
        <ele>1569</ele>
        <time>2020-09-15T12:33:21Z</time>
      </trkpt>
      <trkpt lat="44.31159" lon="6.90071">
        <ele>1564</ele>
        <time>2020-09-15T12:33:27Z</time>
      </trkpt>
      <trkpt lat="44.31128" lon="6.90081">
        <ele>1559</ele>
        <time>2020-09-15T12:33:33Z</time>
      </trkpt>
      <trkpt lat="44.31108" lon="6.90095">
        <ele>1559</ele>
        <time>2020-09-15T12:33:37Z</time>
      </trkpt>
      <trkpt lat="44.31092" lon="6.90098">
        <ele>1557</ele>
        <time>2020-09-15T12:33:40Z</time>
      </trkpt>
      <trkpt lat="44.31076" lon="6.90096">
        <ele>1553</ele>
        <time>2020-09-15T12:33:43Z</time>
      </trkpt>
      <trkpt lat="44.31052" lon="6.90097">
        <ele>1553</ele>
        <time>2020-09-15T12:33:47Z</time>
      </trkpt>
      <trkpt lat="44.3101" lon="6.90112">
        <ele>1554</ele>
        <time>2020-09-15T12:33:55Z</time>
      </trkpt>
      <trkpt lat="44.30979" lon="6.90133">
        <ele>1554</ele>
        <time>2020-09-15T12:34:01Z</time>
      </trkpt>
      <trkpt lat="44.3094" lon="6.90169">
        <ele>1547</ele>
        <time>2020-09-15T12:34:09Z</time>
      </trkpt>
      <trkpt lat="44.30909" lon="6.90193">
        <ele>1549</ele>
        <time>2020-09-15T12:34:15Z</time>
      </trkpt>
      <trkpt lat="44.30884" lon="6.90203">
        <ele>1547</ele>
        <time>2020-09-15T12:34:20Z</time>
      </trkpt>
      <trkpt lat="44.30852" lon="6.90207">
        <ele>1542</ele>
        <time>2020-09-15T12:34:26Z</time>
      </trkpt>
      <trkpt lat="44.30794" lon="6.90236">
        <ele>1531</ele>
        <time>2020-09-15T12:34:37Z</time>
      </trkpt>
      <trkpt lat="44.30764" lon="6.90244">
        <ele>1525</ele>
        <time>2020-09-15T12:34:42Z</time>
      </trkpt>
      <trkpt lat="44.30699" lon="6.90281">
        <ele>1521</ele>
        <time>2020-09-15T12:34:55Z</time>
      </trkpt>
      <trkpt lat="44.30663" lon="6.90292">
        <ele>1516</ele>
        <time>2020-09-15T12:35:01Z</time>
      </trkpt>
      <trkpt lat="44.30641" lon="6.90302">
        <ele>1512</ele>
        <time>2020-09-15T12:35:05Z</time>
      </trkpt>
      <trkpt lat="44.30618" lon="6.90332">
        <ele>1507</ele>
        <time>2020-09-15T12:35:11Z</time>
      </trkpt>
      <trkpt lat="44.3061" lon="6.90353">
        <ele>1507</ele>
        <time>2020-09-15T12:35:14Z</time>
      </trkpt>
      <trkpt lat="44.30571" lon="6.90496">
        <ele>1517</ele>
        <time>2020-09-15T12:35:33Z</time>
      </trkpt>
      <trkpt lat="44.30567" lon="6.90501">
        <ele>1518</ele>
        <time>2020-09-15T12:35:34Z</time>
      </trkpt>
      <trkpt lat="44.3056" lon="6.90501">
        <ele>1517</ele>
        <time>2020-09-15T12:35:36Z</time>
      </trkpt>
      <trkpt lat="44.30559" lon="6.90493">
        <ele>1516</ele>
        <time>2020-09-15T12:35:37Z</time>
      </trkpt>
      <trkpt lat="44.30564" lon="6.9047">
        <ele>1511</ele>
        <time>2020-09-15T12:35:40Z</time>
      </trkpt>
      <trkpt lat="44.30567" lon="6.90435">
        <ele>1505</ele>
        <time>2020-09-15T12:35:44Z</time>
      </trkpt>
      <trkpt lat="44.30567" lon="6.9039">
        <ele>1499</ele>
        <time>2020-09-15T12:35:50Z</time>
      </trkpt>
      <trkpt lat="44.3057" lon="6.90365">
        <ele>1496</ele>
        <time>2020-09-15T12:35:53Z</time>
      </trkpt>
      <trkpt lat="44.30575" lon="6.90342">
        <ele>1495</ele>
        <time>2020-09-15T12:35:56Z</time>
      </trkpt>
      <trkpt lat="44.30575" lon="6.90335">
        <ele>1494</ele>
        <time>2020-09-15T12:35:57Z</time>
      </trkpt>
      <trkpt lat="44.30573" lon="6.90332">
        <ele>1494</ele>
        <time>2020-09-15T12:35:58Z</time>
      </trkpt>
      <trkpt lat="44.30568" lon="6.90331">
        <ele>1493</ele>
        <time>2020-09-15T12:35:59Z</time>
      </trkpt>
      <trkpt lat="44.30557" lon="6.90359">
        <ele>1492</ele>
        <time>2020-09-15T12:36:03Z</time>
      </trkpt>
      <trkpt lat="44.30547" lon="6.90395">
        <ele>1494</ele>
        <time>2020-09-15T12:36:08Z</time>
      </trkpt>
      <trkpt lat="44.30547" lon="6.9043">
        <ele>1500</ele>
        <time>2020-09-15T12:36:12Z</time>
      </trkpt>
      <trkpt lat="44.30544" lon="6.90449">
        <ele>1504</ele>
        <time>2020-09-15T12:36:15Z</time>
      </trkpt>
      <trkpt lat="44.30537" lon="6.9046">
        <ele>1506</ele>
        <time>2020-09-15T12:36:16Z</time>
      </trkpt>
      <trkpt lat="44.30526" lon="6.90464">
        <ele>1505</ele>
        <time>2020-09-15T12:36:18Z</time>
      </trkpt>
      <trkpt lat="44.30508" lon="6.90453">
        <ele>1499</ele>
        <time>2020-09-15T12:36:22Z</time>
      </trkpt>
      <trkpt lat="44.30475" lon="6.90413">
        <ele>1488</ele>
        <time>2020-09-15T12:36:30Z</time>
      </trkpt>
      <trkpt lat="44.30435" lon="6.90375">
        <ele>1482</ele>
        <time>2020-09-15T12:36:38Z</time>
      </trkpt>
      <trkpt lat="44.30401" lon="6.9035">
        <ele>1476</ele>
        <time>2020-09-15T12:36:45Z</time>
      </trkpt>
      <trkpt lat="44.30346" lon="6.90331">
        <ele>1472</ele>
        <time>2020-09-15T12:36:55Z</time>
      </trkpt>
      <trkpt lat="44.30313" lon="6.90325">
        <ele>1471</ele>
        <time>2020-09-15T12:37:01Z</time>
      </trkpt>
      <trkpt lat="44.30219" lon="6.90339">
        <ele>1465</ele>
        <time>2020-09-15T12:37:18Z</time>
      </trkpt>
      <trkpt lat="44.30181" lon="6.90337">
        <ele>1460</ele>
        <time>2020-09-15T12:37:25Z</time>
      </trkpt>
      <trkpt lat="44.30156" lon="6.90328">
        <ele>1458</ele>
        <time>2020-09-15T12:37:29Z</time>
      </trkpt>
      <trkpt lat="44.30143" lon="6.90319">
        <ele>1459</ele>
        <time>2020-09-15T12:37:32Z</time>
      </trkpt>
      <trkpt lat="44.30134" lon="6.903">
        <ele>1458</ele>
        <time>2020-09-15T12:37:35Z</time>
      </trkpt>
      <trkpt lat="44.30125" lon="6.90271">
        <ele>1454</ele>
        <time>2020-09-15T12:37:39Z</time>
      </trkpt>
      <trkpt lat="44.30122" lon="6.9026">
        <ele>1452</ele>
        <time>2020-09-15T12:37:40Z</time>
      </trkpt>
      <trkpt lat="44.30107" lon="6.90244">
        <ele>1452</ele>
        <time>2020-09-15T12:37:44Z</time>
      </trkpt>
      <trkpt lat="44.30077" lon="6.90234">
        <ele>1454</ele>
        <time>2020-09-15T12:37:49Z</time>
      </trkpt>
      <trkpt lat="44.30062" lon="6.90223">
        <ele>1456</ele>
        <time>2020-09-15T12:37:52Z</time>
      </trkpt>
      <trkpt lat="44.3004" lon="6.90214">
        <ele>1455</ele>
        <time>2020-09-15T12:37:56Z</time>
      </trkpt>
      <trkpt lat="44.29991" lon="6.90181">
        <ele>1456</ele>
        <time>2020-09-15T12:38:06Z</time>
      </trkpt>
      <trkpt lat="44.2998" lon="6.90178">
        <ele>1455</ele>
        <time>2020-09-15T12:38:08Z</time>
      </trkpt>
      <trkpt lat="44.29923" lon="6.90194">
        <ele>1445</ele>
        <time>2020-09-15T12:38:18Z</time>
      </trkpt>
      <trkpt lat="44.29912" lon="6.90192">
        <ele>1444</ele>
        <time>2020-09-15T12:38:20Z</time>
      </trkpt>
      <trkpt lat="44.29871" lon="6.90172">
        <ele>1442</ele>
        <time>2020-09-15T12:38:28Z</time>
      </trkpt>
      <trkpt lat="44.29837" lon="6.90166">
        <ele>1438</ele>
        <time>2020-09-15T12:38:34Z</time>
      </trkpt>
      <trkpt lat="44.29781" lon="6.90153">
        <ele>1444</ele>
        <time>2020-09-15T12:38:44Z</time>
      </trkpt>
      <trkpt lat="44.29752" lon="6.90157">
        <ele>1440</ele>
        <time>2020-09-15T12:38:49Z</time>
      </trkpt>
      <trkpt lat="44.29734" lon="6.90153">
        <ele>1442</ele>
        <time>2020-09-15T12:38:53Z</time>
      </trkpt>
      <trkpt lat="44.29696" lon="6.90155">
        <ele>1439</ele>
        <time>2020-09-15T12:38:59Z</time>
      </trkpt>
      <trkpt lat="44.29657" lon="6.90168">
        <ele>1430</ele>
        <time>2020-09-15T12:39:07Z</time>
      </trkpt>
      <trkpt lat="44.29641" lon="6.90162">
        <ele>1436</ele>
        <time>2020-09-15T12:39:09Z</time>
      </trkpt>
      <trkpt lat="44.29623" lon="6.90159">
        <ele>1441</ele>
        <time>2020-09-15T12:39:13Z</time>
      </trkpt>
      <trkpt lat="44.29593" lon="6.90169">
        <ele>1437</ele>
        <time>2020-09-15T12:39:18Z</time>
      </trkpt>
      <trkpt lat="44.29564" lon="6.90162">
        <ele>1445</ele>
        <time>2020-09-15T12:39:23Z</time>
      </trkpt>
      <trkpt lat="44.29547" lon="6.9017">
        <ele>1440</ele>
        <time>2020-09-15T12:39:27Z</time>
      </trkpt>
      <trkpt lat="44.29511" lon="6.90177">
        <ele>1440</ele>
        <time>2020-09-15T12:39:33Z</time>
      </trkpt>
      <trkpt lat="44.29467" lon="6.90169">
        <ele>1437</ele>
        <time>2020-09-15T12:39:41Z</time>
      </trkpt>
      <trkpt lat="44.29399" lon="6.90169">
        <ele>1422</ele>
        <time>2020-09-15T12:39:53Z</time>
      </trkpt>
      <trkpt lat="44.29337" lon="6.90166">
        <ele>1410</ele>
        <time>2020-09-15T12:40:04Z</time>
      </trkpt>
      <trkpt lat="44.29293" lon="6.90151">
        <ele>1409</ele>
        <time>2020-09-15T12:40:12Z</time>
      </trkpt>
      <trkpt lat="44.29257" lon="6.90132">
        <ele>1411</ele>
        <time>2020-09-15T12:40:19Z</time>
      </trkpt>
      <trkpt lat="44.29231" lon="6.90133">
        <ele>1404</ele>
        <time>2020-09-15T12:40:24Z</time>
      </trkpt>
      <trkpt lat="44.29221" lon="6.90111">
        <ele>1412</ele>
        <time>2020-09-15T12:40:27Z</time>
      </trkpt>
      <trkpt lat="44.29213" lon="6.90104">
        <ele>1413</ele>
        <time>2020-09-15T12:40:29Z</time>
      </trkpt>
      <trkpt lat="44.29155" lon="6.90111">
        <ele>1393</ele>
        <time>2020-09-15T12:40:39Z</time>
      </trkpt>
      <trkpt lat="44.29129" lon="6.90108">
        <ele>1387</ele>
        <time>2020-09-15T12:40:44Z</time>
      </trkpt>
      <trkpt lat="44.2911" lon="6.90098">
        <ele>1383</ele>
        <time>2020-09-15T12:40:47Z</time>
      </trkpt>
      <trkpt lat="44.29078" lon="6.90064">
        <ele>1380</ele>
        <time>2020-09-15T12:40:54Z</time>
      </trkpt>
      <trkpt lat="44.29073" lon="6.90046">
        <ele>1384</ele>
        <time>2020-09-15T12:40:57Z</time>
      </trkpt>
      <trkpt lat="44.29072" lon="6.90015">
        <ele>1394</ele>
        <time>2020-09-15T12:41:01Z</time>
      </trkpt>
      <trkpt lat="44.29067" lon="6.89998">
        <ele>1398</ele>
        <time>2020-09-15T12:41:03Z</time>
      </trkpt>
      <trkpt lat="44.29057" lon="6.89985">
        <ele>1401</ele>
        <time>2020-09-15T12:41:06Z</time>
      </trkpt>
      <trkpt lat="44.29046" lon="6.89984">
        <ele>1398</ele>
        <time>2020-09-15T12:41:08Z</time>
      </trkpt>
      <trkpt lat="44.2901" lon="6.89999">
        <ele>1380</ele>
        <time>2020-09-15T12:41:14Z</time>
      </trkpt>
      <trkpt lat="44.28983" lon="6.89998">
        <ele>1373</ele>
        <time>2020-09-15T12:41:19Z</time>
      </trkpt>
      <trkpt lat="44.28968" lon="6.89984">
        <ele>1377</ele>
        <time>2020-09-15T12:41:22Z</time>
      </trkpt>
      <trkpt lat="44.28938" lon="6.89964">
        <ele>1380</ele>
        <time>2020-09-15T12:41:28Z</time>
      </trkpt>
      <trkpt lat="44.28914" lon="6.89952">
        <ele>1381</ele>
        <time>2020-09-15T12:41:33Z</time>
      </trkpt>
      <trkpt lat="44.28895" lon="6.8994">
        <ele>1384</ele>
        <time>2020-09-15T12:41:36Z</time>
      </trkpt>
      <trkpt lat="44.28882" lon="6.8994">
        <ele>1382</ele>
        <time>2020-09-15T12:41:39Z</time>
      </trkpt>
      <trkpt lat="44.28855" lon="6.89955">
        <ele>1372</ele>
        <time>2020-09-15T12:41:44Z</time>
      </trkpt>
      <trkpt lat="44.28836" lon="6.89953">
        <ele>1370</ele>
        <time>2020-09-15T12:41:47Z</time>
      </trkpt>
      <trkpt lat="44.28816" lon="6.89947">
        <ele>1370</ele>
        <time>2020-09-15T12:41:51Z</time>
      </trkpt>
      <trkpt lat="44.28798" lon="6.89929">
        <ele>1373</ele>
        <time>2020-09-15T12:41:55Z</time>
      </trkpt>
      <trkpt lat="44.28782" lon="6.89929">
        <ele>1370</ele>
        <time>2020-09-15T12:41:58Z</time>
      </trkpt>
      <trkpt lat="44.28761" lon="6.89944">
        <ele>1364</ele>
        <time>2020-09-15T12:42:02Z</time>
      </trkpt>
      <trkpt lat="44.28733" lon="6.89946">
        <ele>1359</ele>
        <time>2020-09-15T12:42:07Z</time>
      </trkpt>
      <trkpt lat="44.28721" lon="6.8994">
        <ele>1358</ele>
        <time>2020-09-15T12:42:09Z</time>
      </trkpt>
      <trkpt lat="44.28712" lon="6.8993">
        <ele>1358</ele>
        <time>2020-09-15T12:42:11Z</time>
      </trkpt>
      <trkpt lat="44.28703" lon="6.89925">
        <ele>1357</ele>
        <time>2020-09-15T12:42:13Z</time>
      </trkpt>
      <trkpt lat="44.2869" lon="6.89922">
        <ele>1355</ele>
        <time>2020-09-15T12:42:15Z</time>
      </trkpt>
      <trkpt lat="44.28682" lon="6.89929">
        <ele>1353</ele>
        <time>2020-09-15T12:42:17Z</time>
      </trkpt>
      <trkpt lat="44.28678" lon="6.8995">
        <ele>1348</ele>
        <time>2020-09-15T12:42:20Z</time>
      </trkpt>
      <trkpt lat="44.28668" lon="6.90007">
        <ele>1341</ele>
        <time>2020-09-15T12:42:27Z</time>
      </trkpt>
      <trkpt lat="44.28662" lon="6.90023">
        <ele>1348</ele>
        <time>2020-09-15T12:42:29Z</time>
      </trkpt>
      <trkpt lat="44.28654" lon="6.90036">
        <ele>1353</ele>
        <time>2020-09-15T12:42:32Z</time>
      </trkpt>
      <trkpt lat="44.2864" lon="6.90047">
        <ele>1356</ele>
        <time>2020-09-15T12:42:35Z</time>
      </trkpt>
      <trkpt lat="44.28627" lon="6.90048">
        <ele>1353</ele>
        <time>2020-09-15T12:42:37Z</time>
      </trkpt>
      <trkpt lat="44.28606" lon="6.90042">
        <ele>1347</ele>
        <time>2020-09-15T12:42:41Z</time>
      </trkpt>
      <trkpt lat="44.28569" lon="6.90055">
        <ele>1344</ele>
        <time>2020-09-15T12:42:47Z</time>
      </trkpt>
      <trkpt lat="44.28545" lon="6.90047">
        <ele>1336</ele>
        <time>2020-09-15T12:42:52Z</time>
      </trkpt>
      <trkpt lat="44.28512" lon="6.90065">
        <ele>1332</ele>
        <time>2020-09-15T12:42:58Z</time>
      </trkpt>
      <trkpt lat="44.28482" lon="6.90095">
        <ele>1333</ele>
        <time>2020-09-15T12:43:05Z</time>
      </trkpt>
      <trkpt lat="44.28424" lon="6.90129">
        <ele>1326</ele>
        <time>2020-09-15T12:43:16Z</time>
      </trkpt>
      <trkpt lat="44.28385" lon="6.90159">
        <ele>1325</ele>
        <time>2020-09-15T12:43:24Z</time>
      </trkpt>
      <trkpt lat="44.28354" lon="6.90203">
        <ele>1334</ele>
        <time>2020-09-15T12:43:32Z</time>
      </trkpt>
      <trkpt lat="44.2832" lon="6.90201">
        <ele>1324</ele>
        <time>2020-09-15T12:43:38Z</time>
      </trkpt>
      <trkpt lat="44.28265" lon="6.90226">
        <ele>1317</ele>
        <time>2020-09-15T12:43:48Z</time>
      </trkpt>
      <trkpt lat="44.28238" lon="6.90259">
        <ele>1316</ele>
        <time>2020-09-15T12:43:54Z</time>
      </trkpt>
      <trkpt lat="44.28165" lon="6.90321">
        <ele>1316</ele>
        <time>2020-09-15T12:44:10Z</time>
      </trkpt>
      <trkpt lat="44.2811" lon="6.90351">
        <ele>1306</ele>
        <time>2020-09-15T12:44:20Z</time>
      </trkpt>
      <trkpt lat="44.28067" lon="6.9038">
        <ele>1305</ele>
        <time>2020-09-15T12:44:29Z</time>
      </trkpt>
      <trkpt lat="44.28042" lon="6.90427">
        <ele>1308</ele>
        <time>2020-09-15T12:44:36Z</time>
      </trkpt>
      <trkpt lat="44.28" lon="6.90492">
        <ele>1297</ele>
        <time>2020-09-15T12:44:47Z</time>
      </trkpt>
      <trkpt lat="44.27973" lon="6.90542">
        <ele>1304</ele>
        <time>2020-09-15T12:44:55Z</time>
      </trkpt>
      <trkpt lat="44.27929" lon="6.90661">
        <ele>1293</ele>
        <time>2020-09-15T12:45:12Z</time>
      </trkpt>
      <trkpt lat="44.27898" lon="6.90713">
        <ele>1296</ele>
        <time>2020-09-15T12:45:21Z</time>
      </trkpt>
      <trkpt lat="44.27858" lon="6.90769">
        <ele>1290</ele>
        <time>2020-09-15T12:45:31Z</time>
      </trkpt>
      <trkpt lat="44.2782" lon="6.90807">
        <ele>1282</ele>
        <time>2020-09-15T12:45:39Z</time>
      </trkpt>
      <trkpt lat="44.27798" lon="6.90849">
        <ele>1282</ele>
        <time>2020-09-15T12:45:46Z</time>
      </trkpt>
      <trkpt lat="44.27783" lon="6.90913">
        <ele>1283</ele>
        <time>2020-09-15T12:45:54Z</time>
      </trkpt>
      <trkpt lat="44.27759" lon="6.9097">
        <ele>1281</ele>
        <time>2020-09-15T12:46:03Z</time>
      </trkpt>
      <trkpt lat="44.27737" lon="6.90998">
        <ele>1278</ele>
        <time>2020-09-15T12:46:08Z</time>
      </trkpt>
      <trkpt lat="44.27707" lon="6.91027">
        <ele>1277</ele>
        <time>2020-09-15T12:46:15Z</time>
      </trkpt>
      <trkpt lat="44.27663" lon="6.9105">
        <ele>1268</ele>
        <time>2020-09-15T12:46:23Z</time>
      </trkpt>
      <trkpt lat="44.27643" lon="6.9107">
        <ele>1270</ele>
        <time>2020-09-15T12:46:27Z</time>
      </trkpt>
      <trkpt lat="44.27627" lon="6.91119">
        <ele>1271</ele>
        <time>2020-09-15T12:46:34Z</time>
      </trkpt>
      <trkpt lat="44.27608" lon="6.91192">
        <ele>1269</ele>
        <time>2020-09-15T12:46:44Z</time>
      </trkpt>
      <trkpt lat="44.2759" lon="6.9125">
        <ele>1264</ele>
        <time>2020-09-15T12:46:52Z</time>
      </trkpt>
      <trkpt lat="44.27551" lon="6.91323">
        <ele>1264</ele>
        <time>2020-09-15T12:47:04Z</time>
      </trkpt>
      <trkpt lat="44.27503" lon="6.91402">
        <ele>1254</ele>
        <time>2020-09-15T12:47:17Z</time>
      </trkpt>
      <trkpt lat="44.27442" lon="6.91494">
        <ele>1256</ele>
        <time>2020-09-15T12:47:33Z</time>
      </trkpt>
      <trkpt lat="44.27431" lon="6.91509">
        <ele>1254</ele>
        <time>2020-09-15T12:47:36Z</time>
      </trkpt>
      <trkpt lat="44.27419" lon="6.91531">
        <ele>1253</ele>
        <time>2020-09-15T12:47:39Z</time>
      </trkpt>
      <trkpt lat="44.27399" lon="6.9158">
        <ele>1252</ele>
        <time>2020-09-15T12:47:46Z</time>
      </trkpt>
      <trkpt lat="44.27388" lon="6.91616">
        <ele>1253</ele>
        <time>2020-09-15T12:47:51Z</time>
      </trkpt>
      <trkpt lat="44.27376" lon="6.91647">
        <ele>1251</ele>
        <time>2020-09-15T12:47:56Z</time>
      </trkpt>
      <trkpt lat="44.27358" lon="6.91676">
        <ele>1248</ele>
        <time>2020-09-15T12:48:01Z</time>
      </trkpt>
      <trkpt lat="44.27334" lon="6.91697">
        <ele>1247</ele>
        <time>2020-09-15T12:48:06Z</time>
      </trkpt>
      <trkpt lat="44.2725" lon="6.91734">
        <ele>1246</ele>
        <time>2020-09-15T12:48:22Z</time>
      </trkpt>
      <trkpt lat="44.27221" lon="6.91753">
        <ele>1250</ele>
        <time>2020-09-15T12:48:27Z</time>
      </trkpt>
      <trkpt lat="44.272" lon="6.91771">
        <ele>1253</ele>
        <time>2020-09-15T12:48:32Z</time>
      </trkpt>
      <trkpt lat="44.27182" lon="6.91789">
        <ele>1252</ele>
        <time>2020-09-15T12:48:36Z</time>
      </trkpt>
      <trkpt lat="44.27165" lon="6.91818">
        <ele>1246</ele>
        <time>2020-09-15T12:48:40Z</time>
      </trkpt>
      <trkpt lat="44.27133" lon="6.9191">
        <ele>1246</ele>
        <time>2020-09-15T12:48:53Z</time>
      </trkpt>
      <trkpt lat="44.27102" lon="6.9198">
        <ele>1237</ele>
        <time>2020-09-15T12:49:04Z</time>
      </trkpt>
      <trkpt lat="44.27068" lon="6.92039">
        <ele>1232</ele>
        <time>2020-09-15T12:49:14Z</time>
      </trkpt>
      <trkpt lat="44.27032" lon="6.92082">
        <ele>1229</ele>
        <time>2020-09-15T12:49:22Z</time>
      </trkpt>
      <trkpt lat="44.27011" lon="6.92095">
        <ele>1230</ele>
        <time>2020-09-15T12:49:26Z</time>
      </trkpt>
      <trkpt lat="44.2697" lon="6.92108">
        <ele>1232</ele>
        <time>2020-09-15T12:49:33Z</time>
      </trkpt>
      <trkpt lat="44.26922" lon="6.92118">
        <ele>1234</ele>
        <time>2020-09-15T12:49:42Z</time>
      </trkpt>
      <trkpt lat="44.26846" lon="6.92103">
        <ele>1231</ele>
        <time>2020-09-15T12:49:56Z</time>
      </trkpt>
      <trkpt lat="44.26826" lon="6.92092">
        <ele>1227</ele>
        <time>2020-09-15T12:50:00Z</time>
      </trkpt>
      <trkpt lat="44.26805" lon="6.92084">
        <ele>1223</ele>
        <time>2020-09-15T12:50:03Z</time>
      </trkpt>
      <trkpt lat="44.26785" lon="6.9208">
        <ele>1222</ele>
        <time>2020-09-15T12:50:07Z</time>
      </trkpt>
      <trkpt lat="44.26764" lon="6.92082">
        <ele>1220</ele>
        <time>2020-09-15T12:50:11Z</time>
      </trkpt>
      <trkpt lat="44.26743" lon="6.92089">
        <ele>1219</ele>
        <time>2020-09-15T12:50:15Z</time>
      </trkpt>
      <trkpt lat="44.26707" lon="6.92106">
        <ele>1220</ele>
        <time>2020-09-15T12:50:21Z</time>
      </trkpt>
      <trkpt lat="44.26646" lon="6.9212">
        <ele>1218</ele>
        <time>2020-09-15T12:50:32Z</time>
      </trkpt>
      <trkpt lat="44.26615" lon="6.92137">
        <ele>1219</ele>
        <time>2020-09-15T12:50:38Z</time>
      </trkpt>
      <trkpt lat="44.26586" lon="6.92149">
        <ele>1218</ele>
        <time>2020-09-15T12:50:44Z</time>
      </trkpt>
      <trkpt lat="44.2656" lon="6.92156">
        <ele>1216</ele>
        <time>2020-09-15T12:50:48Z</time>
      </trkpt>
      <trkpt lat="44.26536" lon="6.92158">
        <ele>1213</ele>
        <time>2020-09-15T12:50:53Z</time>
      </trkpt>
      <trkpt lat="44.2646" lon="6.92145">
        <ele>1206</ele>
        <time>2020-09-15T12:51:06Z</time>
      </trkpt>
      <trkpt lat="44.26351" lon="6.9214">
        <ele>1207</ele>
        <time>2020-09-15T12:51:26Z</time>
      </trkpt>
      <trkpt lat="44.26306" lon="6.92159">
        <ele>1204</ele>
        <time>2020-09-15T12:51:34Z</time>
      </trkpt>
      <trkpt lat="44.26285" lon="6.92163">
        <ele>1200</ele>
        <time>2020-09-15T12:51:38Z</time>
      </trkpt>
      <trkpt lat="44.26268" lon="6.92161">
        <ele>1197</ele>
        <time>2020-09-15T12:51:41Z</time>
      </trkpt>
      <trkpt lat="44.26221" lon="6.92144">
        <ele>1190</ele>
        <time>2020-09-15T12:51:50Z</time>
      </trkpt>
      <trkpt lat="44.26195" lon="6.9214">
        <ele>1186</ele>
        <time>2020-09-15T12:51:54Z</time>
      </trkpt>
      <trkpt lat="44.26175" lon="6.9214">
        <ele>1182</ele>
        <time>2020-09-15T12:51:58Z</time>
      </trkpt>
      <trkpt lat="44.26165" lon="6.92146">
        <ele>1181</ele>
        <time>2020-09-15T12:52:00Z</time>
      </trkpt>
      <trkpt lat="44.26152" lon="6.9216">
        <ele>1178</ele>
        <time>2020-09-15T12:52:03Z</time>
      </trkpt>
      <trkpt lat="44.26145" lon="6.92163">
        <ele>1177</ele>
        <time>2020-09-15T12:52:04Z</time>
      </trkpt>
      <trkpt lat="44.26122" lon="6.92163">
        <ele>1175</ele>
        <time>2020-09-15T12:52:08Z</time>
      </trkpt>
      <trkpt lat="44.26106" lon="6.92161">
        <ele>1173</ele>
        <time>2020-09-15T12:52:11Z</time>
      </trkpt>
      <trkpt lat="44.26066" lon="6.92191">
        <ele>1171</ele>
        <time>2020-09-15T12:52:19Z</time>
      </trkpt>
      <trkpt lat="44.26056" lon="6.92197">
        <ele>1170</ele>
        <time>2020-09-15T12:52:21Z</time>
      </trkpt>
      <trkpt lat="44.26044" lon="6.922">
        <ele>1168</ele>
        <time>2020-09-15T12:52:23Z</time>
      </trkpt>
      <trkpt lat="44.26032" lon="6.92209">
        <ele>1167</ele>
        <time>2020-09-15T12:52:25Z</time>
      </trkpt>
      <trkpt lat="44.26015" lon="6.92231">
        <ele>1166</ele>
        <time>2020-09-15T12:52:30Z</time>
      </trkpt>
      <trkpt lat="44.25997" lon="6.92264">
        <ele>1165</ele>
        <time>2020-09-15T12:52:35Z</time>
      </trkpt>
      <trkpt lat="44.25986" lon="6.92291">
        <ele>1163</ele>
        <time>2020-09-15T12:52:39Z</time>
      </trkpt>
      <trkpt lat="44.25962" lon="6.92361">
        <ele>1160</ele>
        <time>2020-09-15T12:52:49Z</time>
      </trkpt>
      <trkpt lat="44.25958" lon="6.92396">
        <ele>1160</ele>
        <time>2020-09-15T12:52:53Z</time>
      </trkpt>
      <trkpt lat="44.25946" lon="6.92428">
        <ele>1158</ele>
        <time>2020-09-15T12:52:58Z</time>
      </trkpt>
      <trkpt lat="44.25942" lon="6.92438">
        <ele>1157</ele>
        <time>2020-09-15T12:52:59Z</time>
      </trkpt>
      <trkpt lat="44.25938" lon="6.9249">
        <ele>1158</ele>
        <time>2020-09-15T12:53:06Z</time>
      </trkpt>
      <trkpt lat="44.25931" lon="6.92513">
        <ele>1157</ele>
        <time>2020-09-15T12:53:09Z</time>
      </trkpt>
      <trkpt lat="44.25892" lon="6.92571">
        <ele>1154</ele>
        <time>2020-09-15T12:53:19Z</time>
      </trkpt>
      <trkpt lat="44.25874" lon="6.92594">
        <ele>1154</ele>
        <time>2020-09-15T12:53:24Z</time>
      </trkpt>
      <trkpt lat="44.25862" lon="6.92606">
        <ele>1153</ele>
        <time>2020-09-15T12:53:26Z</time>
      </trkpt>
      <trkpt lat="44.25856" lon="6.92598">
        <ele>1150</ele>
        <time>2020-09-15T12:53:28Z</time>
      </trkpt>
      <trkpt lat="44.25831" lon="6.92551">
        <ele>1144</ele>
        <time>2020-09-15T12:53:35Z</time>
      </trkpt>
      <trkpt lat="44.25807" lon="6.92511">
        <ele>1145</ele>
        <time>2020-09-15T12:53:42Z</time>
      </trkpt>
      <trkpt lat="44.258" lon="6.92498">
        <ele>1145</ele>
        <time>2020-09-15T12:53:44Z</time>
      </trkpt>
      <trkpt lat="44.25746" lon="6.92569">
        <ele>1144</ele>
        <time>2020-09-15T12:53:57Z</time>
      </trkpt>
      <trkpt lat="44.25716" lon="6.92604">
        <ele>1145</ele>
        <time>2020-09-15T12:54:04Z</time>
      </trkpt>
      <trkpt lat="44.25701" lon="6.92613">
        <ele>1145</ele>
        <time>2020-09-15T12:54:07Z</time>
      </trkpt>
      <trkpt lat="44.2567" lon="6.92623">
        <ele>1147</ele>
        <time>2020-09-15T12:54:13Z</time>
      </trkpt>
      <trkpt lat="44.25629" lon="6.92632">
        <ele>1147</ele>
        <time>2020-09-15T12:54:20Z</time>
      </trkpt>
      <trkpt lat="44.25619" lon="6.9263">
        <ele>1148</ele>
        <time>2020-09-15T12:54:22Z</time>
      </trkpt>
      <trkpt lat="44.25594" lon="6.92608">
        <ele>1151</ele>
        <time>2020-09-15T12:54:27Z</time>
      </trkpt>
      <trkpt lat="44.25592" lon="6.92596">
        <ele>1153</ele>
        <time>2020-09-15T12:54:29Z</time>
      </trkpt>
      <trkpt lat="44.25568" lon="6.92573">
        <ele>1155</ele>
        <time>2020-09-15T12:54:34Z</time>
      </trkpt>
      <trkpt lat="44.25563" lon="6.92575">
        <ele>1154</ele>
        <time>2020-09-15T12:54:35Z</time>
      </trkpt>
      <trkpt lat="44.2556" lon="6.92579">
        <ele>1154</ele>
        <time>2020-09-15T12:54:36Z</time>
      </trkpt>
      <trkpt lat="44.25521" lon="6.92548">
        <ele>1153</ele>
        <time>2020-09-15T12:54:44Z</time>
      </trkpt>
      <trkpt lat="44.25455" lon="6.92456">
        <ele>1163</ele>
        <time>2020-09-15T12:55:00Z</time>
      </trkpt>
      <trkpt lat="44.25401" lon="6.92498">
        <ele>1168</ele>
        <time>2020-09-15T12:55:11Z</time>
      </trkpt>
      <trkpt lat="44.25369" lon="6.92542">
        <ele>1171</ele>
        <time>2020-09-15T12:55:19Z</time>
      </trkpt>
      <trkpt lat="44.253" lon="6.92628">
        <ele>1169</ele>
        <time>2020-09-15T12:55:36Z</time>
      </trkpt>
      <trkpt lat="44.25289" lon="6.92639">
        <ele>1168</ele>
        <time>2020-09-15T12:55:38Z</time>
      </trkpt>
      <trkpt lat="44.2524" lon="6.9267">
        <ele>1166</ele>
        <time>2020-09-15T12:55:48Z</time>
      </trkpt>
      <trkpt lat="44.25213" lon="6.92676">
        <ele>1168</ele>
        <time>2020-09-15T12:55:52Z</time>
      </trkpt>
      <trkpt lat="44.25204" lon="6.9268">
        <ele>1168</ele>
        <time>2020-09-15T12:55:54Z</time>
      </trkpt>
      <trkpt lat="44.2519" lon="6.92688">
        <ele>1168</ele>
        <time>2020-09-15T12:55:57Z</time>
      </trkpt>
      <trkpt lat="44.25168" lon="6.92705">
        <ele>1167</ele>
        <time>2020-09-15T12:56:01Z</time>
      </trkpt>
      <trkpt lat="44.25133" lon="6.92723">
        <ele>1171</ele>
        <time>2020-09-15T12:56:08Z</time>
      </trkpt>
      <trkpt lat="44.25118" lon="6.92734">
        <ele>1172</ele>
        <time>2020-09-15T12:56:11Z</time>
      </trkpt>
      <trkpt lat="44.2507" lon="6.92782">
        <ele>1172</ele>
        <time>2020-09-15T12:56:21Z</time>
      </trkpt>
      <trkpt lat="44.25039" lon="6.92801">
        <ele>1176</ele>
        <time>2020-09-15T12:56:27Z</time>
      </trkpt>
      <trkpt lat="44.25025" lon="6.92813">
        <ele>1177</ele>
        <time>2020-09-15T12:56:30Z</time>
      </trkpt>
      <trkpt lat="44.25014" lon="6.92823">
        <ele>1177</ele>
        <time>2020-09-15T12:56:33Z</time>
      </trkpt>
      <trkpt lat="44.25004" lon="6.92839">
        <ele>1175</ele>
        <time>2020-09-15T12:56:35Z</time>
      </trkpt>
      <trkpt lat="44.24995" lon="6.92848">
        <ele>1176</ele>
        <time>2020-09-15T12:56:37Z</time>
      </trkpt>
      <trkpt lat="44.24964" lon="6.92868">
        <ele>1183</ele>
        <time>2020-09-15T12:56:43Z</time>
      </trkpt>
      <trkpt lat="44.24934" lon="6.92898">
        <ele>1185</ele>
        <time>2020-09-15T12:56:50Z</time>
      </trkpt>
      <trkpt lat="44.24921" lon="6.92914">
        <ele>1184</ele>
        <time>2020-09-15T12:56:53Z</time>
      </trkpt>
      <trkpt lat="44.24906" lon="6.92927">
        <ele>1186</ele>
        <time>2020-09-15T12:56:56Z</time>
      </trkpt>
      <trkpt lat="44.24897" lon="6.92933">
        <ele>1187</ele>
        <time>2020-09-15T12:56:58Z</time>
      </trkpt>
      <trkpt lat="44.24878" lon="6.92945">
        <ele>1191</ele>
        <time>2020-09-15T12:57:02Z</time>
      </trkpt>
      <trkpt lat="44.24866" lon="6.92957">
        <ele>1192</ele>
        <time>2020-09-15T12:57:04Z</time>
      </trkpt>
      <trkpt lat="44.24854" lon="6.92976">
        <ele>1191</ele>
        <time>2020-09-15T12:57:08Z</time>
      </trkpt>
      <trkpt lat="44.2481" lon="6.93077">
        <ele>1177</ele>
        <time>2020-09-15T12:57:23Z</time>
      </trkpt>
      <trkpt lat="44.2476" lon="6.93144">
        <ele>1174</ele>
        <time>2020-09-15T12:57:35Z</time>
      </trkpt>
      <trkpt lat="44.24755" lon="6.93154">
        <ele>1174</ele>
        <time>2020-09-15T12:57:37Z</time>
      </trkpt>
      <trkpt lat="44.24737" lon="6.93206">
        <ele>1169</ele>
        <time>2020-09-15T12:57:44Z</time>
      </trkpt>
      <trkpt lat="44.24727" lon="6.93225">
        <ele>1170</ele>
        <time>2020-09-15T12:57:47Z</time>
      </trkpt>
      <trkpt lat="44.24715" lon="6.93241">
        <ele>1172</ele>
        <time>2020-09-15T12:57:50Z</time>
      </trkpt>
      <trkpt lat="44.24687" lon="6.93268">
        <ele>1179</ele>
        <time>2020-09-15T12:57:56Z</time>
      </trkpt>
      <trkpt lat="44.24675" lon="6.93287">
        <ele>1180</ele>
        <time>2020-09-15T12:57:59Z</time>
      </trkpt>
      <trkpt lat="44.24652" lon="6.93344">
        <ele>1177</ele>
        <time>2020-09-15T12:58:07Z</time>
      </trkpt>
      <trkpt lat="44.24647" lon="6.93352">
        <ele>1176</ele>
        <time>2020-09-15T12:58:09Z</time>
      </trkpt>
      <trkpt lat="44.24612" lon="6.93398">
        <ele>1173</ele>
        <time>2020-09-15T12:58:17Z</time>
      </trkpt>
      <trkpt lat="44.24604" lon="6.93401">
        <ele>1174</ele>
        <time>2020-09-15T12:58:19Z</time>
      </trkpt>
      <trkpt lat="44.24591" lon="6.93404">
        <ele>1176</ele>
        <time>2020-09-15T12:58:21Z</time>
      </trkpt>
      <trkpt lat="44.24572" lon="6.93403">
        <ele>1179</ele>
        <time>2020-09-15T12:58:25Z</time>
      </trkpt>
      <trkpt lat="44.24552" lon="6.93394">
        <ele>1183</ele>
        <time>2020-09-15T12:58:28Z</time>
      </trkpt>
      <trkpt lat="44.24535" lon="6.93388">
        <ele>1185</ele>
        <time>2020-09-15T12:58:31Z</time>
      </trkpt>
      <trkpt lat="44.24532" lon="6.93387">
        <ele>1186</ele>
        <time>2020-09-15T12:58:32Z</time>
      </trkpt>
      <trkpt lat="44.24514" lon="6.9338">
        <ele>1188</ele>
        <time>2020-09-15T12:58:35Z</time>
      </trkpt>
      <trkpt lat="44.24504" lon="6.93378">
        <ele>1189</ele>
        <time>2020-09-15T12:58:37Z</time>
      </trkpt>
      <trkpt lat="44.24494" lon="6.9338">
        <ele>1191</ele>
        <time>2020-09-15T12:58:39Z</time>
      </trkpt>
      <trkpt lat="44.24484" lon="6.93386">
        <ele>1192</ele>
        <time>2020-09-15T12:58:41Z</time>
      </trkpt>
      <trkpt lat="44.24472" lon="6.93405">
        <ele>1193</ele>
        <time>2020-09-15T12:58:44Z</time>
      </trkpt>
      <trkpt lat="44.24469" lon="6.93415">
        <ele>1192</ele>
        <time>2020-09-15T12:58:45Z</time>
      </trkpt>
      <trkpt lat="44.24468" lon="6.93425">
        <ele>1191</ele>
        <time>2020-09-15T12:58:47Z</time>
      </trkpt>
      <trkpt lat="44.24469" lon="6.93473">
        <ele>1186</ele>
        <time>2020-09-15T12:58:53Z</time>
      </trkpt>
      <trkpt lat="44.24468" lon="6.93485">
        <ele>1185</ele>
        <time>2020-09-15T12:58:54Z</time>
      </trkpt>
      <trkpt lat="44.24466" lon="6.93493">
        <ele>1185</ele>
        <time>2020-09-15T12:58:55Z</time>
      </trkpt>
      <trkpt lat="44.24459" lon="6.93509">
        <ele>1185</ele>
        <time>2020-09-15T12:58:58Z</time>
      </trkpt>
      <trkpt lat="44.24443" lon="6.93532">
        <ele>1187</ele>
        <time>2020-09-15T12:59:02Z</time>
      </trkpt>
      <trkpt lat="44.24391" lon="6.93593">
        <ele>1190</ele>
        <time>2020-09-15T12:59:14Z</time>
      </trkpt>
      <trkpt lat="44.2434" lon="6.93663">
        <ele>1197</ele>
        <time>2020-09-15T12:59:27Z</time>
      </trkpt>
      <trkpt lat="44.24322" lon="6.93683">
        <ele>1198</ele>
        <time>2020-09-15T12:59:31Z</time>
      </trkpt>
      <trkpt lat="44.24302" lon="6.93698">
        <ele>1198</ele>
        <time>2020-09-15T12:59:35Z</time>
      </trkpt>
      <trkpt lat="44.24291" lon="6.93697">
        <ele>1200</ele>
        <time>2020-09-15T12:59:37Z</time>
      </trkpt>
      <trkpt lat="44.24283" lon="6.93694">
        <ele>1202</ele>
        <time>2020-09-15T12:59:38Z</time>
      </trkpt>
      <trkpt lat="44.2428" lon="6.93689">
        <ele>1203</ele>
        <time>2020-09-15T12:59:39Z</time>
      </trkpt>
      <trkpt lat="44.24276" lon="6.93686">
        <ele>1204</ele>
        <time>2020-09-15T12:59:40Z</time>
      </trkpt>
      <trkpt lat="44.24271" lon="6.93685">
        <ele>1205</ele>
        <time>2020-09-15T12:59:41Z</time>
      </trkpt>
      <trkpt lat="44.24266" lon="6.93686">
        <ele>1206</ele>
        <time>2020-09-15T12:59:42Z</time>
      </trkpt>
      <trkpt lat="44.24262" lon="6.93689">
        <ele>1206</ele>
        <time>2020-09-15T12:59:43Z</time>
      </trkpt>
      <trkpt lat="44.24258" lon="6.93694">
        <ele>1206</ele>
        <time>2020-09-15T12:59:44Z</time>
      </trkpt>
      <trkpt lat="44.24256" lon="6.937">
        <ele>1206</ele>
        <time>2020-09-15T12:59:44Z</time>
      </trkpt>
      <trkpt lat="44.24255" lon="6.93707">
        <ele>1205</ele>
        <time>2020-09-15T12:59:45Z</time>
      </trkpt>
      <trkpt lat="44.24256" lon="6.93714">
        <ele>1204</ele>
        <time>2020-09-15T12:59:46Z</time>
      </trkpt>
      <trkpt lat="44.24255" lon="6.93722">
        <ele>1204</ele>
        <time>2020-09-15T12:59:47Z</time>
      </trkpt>
      <trkpt lat="44.24249" lon="6.93737">
        <ele>1203</ele>
        <time>2020-09-15T12:59:49Z</time>
      </trkpt>
      <trkpt lat="44.2424" lon="6.93747">
        <ele>1203</ele>
        <time>2020-09-15T12:59:51Z</time>
      </trkpt>
      <trkpt lat="44.24221" lon="6.93764">
        <ele>1201</ele>
        <time>2020-09-15T12:59:55Z</time>
      </trkpt>
      <trkpt lat="44.24209" lon="6.93772">
        <ele>1201</ele>
        <time>2020-09-15T12:59:58Z</time>
      </trkpt>
      <trkpt lat="44.24192" lon="6.93777">
        <ele>1201</ele>
        <time>2020-09-15T13:00:01Z</time>
      </trkpt>
      <trkpt lat="44.24108" lon="6.93782">
        <ele>1203</ele>
        <time>2020-09-15T13:00:16Z</time>
      </trkpt>
      <trkpt lat="44.24093" lon="6.93785">
        <ele>1203</ele>
        <time>2020-09-15T13:00:19Z</time>
      </trkpt>
      <trkpt lat="44.2407" lon="6.93796">
        <ele>1204</ele>
        <time>2020-09-15T13:00:23Z</time>
      </trkpt>
      <trkpt lat="44.24045" lon="6.93822">
        <ele>1203</ele>
        <time>2020-09-15T13:00:28Z</time>
      </trkpt>
      <trkpt lat="44.23911" lon="6.94019">
        <ele>1185</ele>
        <time>2020-09-15T13:01:03Z</time>
      </trkpt>
      <trkpt lat="44.23888" lon="6.94049">
        <ele>1186</ele>
        <time>2020-09-15T13:01:09Z</time>
      </trkpt>
      <trkpt lat="44.23818" lon="6.9413">
        <ele>1181</ele>
        <time>2020-09-15T13:01:25Z</time>
      </trkpt>
      <trkpt lat="44.23806" lon="6.94147">
        <ele>1180</ele>
        <time>2020-09-15T13:01:28Z</time>
      </trkpt>
      <trkpt lat="44.23801" lon="6.94158">
        <ele>1179</ele>
        <time>2020-09-15T13:01:30Z</time>
      </trkpt>
      <trkpt lat="44.23798" lon="6.94169">
        <ele>1176</ele>
        <time>2020-09-15T13:01:31Z</time>
      </trkpt>
      <trkpt lat="44.23797" lon="6.94181">
        <ele>1174</ele>
        <time>2020-09-15T13:01:33Z</time>
      </trkpt>
      <trkpt lat="44.238" lon="6.94192">
        <ele>1170</ele>
        <time>2020-09-15T13:01:34Z</time>
      </trkpt>
      <trkpt lat="44.23806" lon="6.94204">
        <ele>1165</ele>
        <time>2020-09-15T13:01:36Z</time>
      </trkpt>
      <trkpt lat="44.23814" lon="6.94208">
        <ele>1161</ele>
        <time>2020-09-15T13:01:37Z</time>
      </trkpt>
      <trkpt lat="44.23821" lon="6.94208">
        <ele>1159</ele>
        <time>2020-09-15T13:01:39Z</time>
      </trkpt>
      <trkpt lat="44.23826" lon="6.94206">
        <ele>1157</ele>
        <time>2020-09-15T13:01:40Z</time>
      </trkpt>
      <trkpt lat="44.23837" lon="6.94195">
        <ele>1156</ele>
        <time>2020-09-15T13:01:42Z</time>
      </trkpt>
      <trkpt lat="44.23862" lon="6.9414">
        <ele>1164</ele>
        <time>2020-09-15T13:01:50Z</time>
      </trkpt>
      <trkpt lat="44.23881" lon="6.94112">
        <ele>1167</ele>
        <time>2020-09-15T13:01:55Z</time>
      </trkpt>
      <trkpt lat="44.23893" lon="6.94097">
        <ele>1168</ele>
        <time>2020-09-15T13:01:58Z</time>
      </trkpt>
      <trkpt lat="44.23979" lon="6.94019">
        <ele>1160</ele>
        <time>2020-09-15T13:02:16Z</time>
      </trkpt>
      <trkpt lat="44.2402" lon="6.93961">
        <ele>1164</ele>
        <time>2020-09-15T13:02:27Z</time>
      </trkpt>
      <trkpt lat="44.24029" lon="6.93955">
        <ele>1164</ele>
        <time>2020-09-15T13:02:29Z</time>
      </trkpt>
      <trkpt lat="44.24041" lon="6.93956">
        <ele>1163</ele>
        <time>2020-09-15T13:02:31Z</time>
      </trkpt>
      <trkpt lat="44.24048" lon="6.93962">
        <ele>1161</ele>
        <time>2020-09-15T13:02:32Z</time>
      </trkpt>
      <trkpt lat="44.24052" lon="6.93971">
        <ele>1159</ele>
        <time>2020-09-15T13:02:34Z</time>
      </trkpt>
      <trkpt lat="44.24054" lon="6.93988">
        <ele>1155</ele>
        <time>2020-09-15T13:02:36Z</time>
      </trkpt>
      <trkpt lat="44.2405" lon="6.94">
        <ele>1153</ele>
        <time>2020-09-15T13:02:37Z</time>
      </trkpt>
      <trkpt lat="44.23965" lon="6.94113">
        <ele>1143</ele>
        <time>2020-09-15T13:02:58Z</time>
      </trkpt>
      <trkpt lat="44.23954" lon="6.94131">
        <ele>1141</ele>
        <time>2020-09-15T13:03:01Z</time>
      </trkpt>
      <trkpt lat="44.23941" lon="6.94156">
        <ele>1138</ele>
        <time>2020-09-15T13:03:05Z</time>
      </trkpt>
      <trkpt lat="44.23931" lon="6.94186">
        <ele>1134</ele>
        <time>2020-09-15T13:03:09Z</time>
      </trkpt>
      <trkpt lat="44.23905" lon="6.94278">
        <ele>1124</ele>
        <time>2020-09-15T13:03:22Z</time>
      </trkpt>
      <trkpt lat="44.2389" lon="6.94322">
        <ele>1118</ele>
        <time>2020-09-15T13:03:28Z</time>
      </trkpt>
      <trkpt lat="44.23872" lon="6.94351">
        <ele>1114</ele>
        <time>2020-09-15T13:03:33Z</time>
      </trkpt>
      <trkpt lat="44.23838" lon="6.94384">
        <ele>1110</ele>
        <time>2020-09-15T13:03:41Z</time>
      </trkpt>
      <trkpt lat="44.23816" lon="6.94399">
        <ele>1110</ele>
        <time>2020-09-15T13:03:45Z</time>
      </trkpt>
      <trkpt lat="44.2374" lon="6.94433">
        <ele>1111</ele>
        <time>2020-09-15T13:03:59Z</time>
      </trkpt>
      <trkpt lat="44.2369" lon="6.94473">
        <ele>1110</ele>
        <time>2020-09-15T13:04:09Z</time>
      </trkpt>
      <trkpt lat="44.23658" lon="6.94507">
        <ele>1106</ele>
        <time>2020-09-15T13:04:16Z</time>
      </trkpt>
      <trkpt lat="44.23627" lon="6.94546">
        <ele>1111</ele>
        <time>2020-09-15T13:04:24Z</time>
      </trkpt>
      <trkpt lat="44.23517" lon="6.94732">
        <ele>1099</ele>
        <time>2020-09-15T13:04:55Z</time>
      </trkpt>
      <trkpt lat="44.23472" lon="6.94794">
        <ele>1098</ele>
        <time>2020-09-15T13:05:06Z</time>
      </trkpt>
      <trkpt lat="44.23443" lon="6.94832">
        <ele>1094</ele>
        <time>2020-09-15T13:05:13Z</time>
      </trkpt>
      <trkpt lat="44.23428" lon="6.94852">
        <ele>1092</ele>
        <time>2020-09-15T13:05:17Z</time>
      </trkpt>
      <trkpt lat="44.2342" lon="6.94862">
        <ele>1091</ele>
        <time>2020-09-15T13:05:19Z</time>
      </trkpt>
      <trkpt lat="44.23376" lon="6.9492">
        <ele>1088</ele>
        <time>2020-09-15T13:05:29Z</time>
      </trkpt>
      <trkpt lat="44.23348" lon="6.9497">
        <ele>1085</ele>
        <time>2020-09-15T13:05:37Z</time>
      </trkpt>
      <trkpt lat="44.23299" lon="6.9508">
        <ele>1073</ele>
        <time>2020-09-15T13:05:54Z</time>
      </trkpt>
      <trkpt lat="44.23291" lon="6.95098">
        <ele>1073</ele>
        <time>2020-09-15T13:05:57Z</time>
      </trkpt>
      <trkpt lat="44.23275" lon="6.95137">
        <ele>1072</ele>
        <time>2020-09-15T13:06:02Z</time>
      </trkpt>
      <trkpt lat="44.23257" lon="6.95179">
        <ele>1070</ele>
        <time>2020-09-15T13:06:09Z</time>
      </trkpt>
      <trkpt lat="44.23238" lon="6.95226">
        <ele>1070</ele>
        <time>2020-09-15T13:06:16Z</time>
      </trkpt>
      <trkpt lat="44.23223" lon="6.95265">
        <ele>1069</ele>
        <time>2020-09-15T13:06:21Z</time>
      </trkpt>
      <trkpt lat="44.23212" lon="6.95296">
        <ele>1068</ele>
        <time>2020-09-15T13:06:26Z</time>
      </trkpt>
      <trkpt lat="44.23204" lon="6.95315">
        <ele>1067</ele>
        <time>2020-09-15T13:06:28Z</time>
      </trkpt>
      <trkpt lat="44.23204" lon="6.95317">
        <ele>1067</ele>
        <time>2020-09-15T13:06:29Z</time>
      </trkpt>
      <trkpt lat="44.23191" lon="6.95348">
        <ele>1066</ele>
        <time>2020-09-15T13:06:33Z</time>
      </trkpt>
      <trkpt lat="44.23188" lon="6.95356">
        <ele>1066</ele>
        <time>2020-09-15T13:06:34Z</time>
      </trkpt>
      <trkpt lat="44.2317" lon="6.95395">
        <ele>1064</ele>
        <time>2020-09-15T13:06:40Z</time>
      </trkpt>
      <trkpt lat="44.23122" lon="6.95473">
        <ele>1064</ele>
        <time>2020-09-15T13:06:53Z</time>
      </trkpt>
      <trkpt lat="44.23057" lon="6.95579">
        <ele>1062</ele>
        <time>2020-09-15T13:07:11Z</time>
      </trkpt>
      <trkpt lat="44.23022" lon="6.95634">
        <ele>1061</ele>
        <time>2020-09-15T13:07:21Z</time>
      </trkpt>
      <trkpt lat="44.22973" lon="6.95713">
        <ele>1060</ele>
        <time>2020-09-15T13:07:34Z</time>
      </trkpt>
      <trkpt lat="44.22927" lon="6.95771">
        <ele>1060</ele>
        <time>2020-09-15T13:07:45Z</time>
      </trkpt>
      <trkpt lat="44.22905" lon="6.9579">
        <ele>1060</ele>
        <time>2020-09-15T13:07:50Z</time>
      </trkpt>
      <trkpt lat="44.22881" lon="6.95804">
        <ele>1060</ele>
        <time>2020-09-15T13:07:54Z</time>
      </trkpt>
      <trkpt lat="44.22821" lon="6.95826">
        <ele>1060</ele>
        <time>2020-09-15T13:08:05Z</time>
      </trkpt>
      <trkpt lat="44.22791" lon="6.95841">
        <ele>1059</ele>
        <time>2020-09-15T13:08:11Z</time>
      </trkpt>
      <trkpt lat="44.22728" lon="6.95893">
        <ele>1058</ele>
        <time>2020-09-15T13:08:24Z</time>
      </trkpt>
      <trkpt lat="44.22699" lon="6.95915">
        <ele>1058</ele>
        <time>2020-09-15T13:08:30Z</time>
      </trkpt>
      <trkpt lat="44.22634" lon="6.95949">
        <ele>1057</ele>
        <time>2020-09-15T13:08:42Z</time>
      </trkpt>
      <trkpt lat="44.22594" lon="6.9597">
        <ele>1056</ele>
        <time>2020-09-15T13:08:50Z</time>
      </trkpt>
      <trkpt lat="44.22579" lon="6.95979">
        <ele>1055</ele>
        <time>2020-09-15T13:08:53Z</time>
      </trkpt>
      <trkpt lat="44.22564" lon="6.95992">
        <ele>1055</ele>
        <time>2020-09-15T13:08:56Z</time>
      </trkpt>
      <trkpt lat="44.22556" lon="6.96003">
        <ele>1055</ele>
        <time>2020-09-15T13:08:58Z</time>
      </trkpt>
      <trkpt lat="44.22548" lon="6.96019">
        <ele>1056</ele>
        <time>2020-09-15T13:09:00Z</time>
      </trkpt>
      <trkpt lat="44.22539" lon="6.96044">
        <ele>1056</ele>
        <time>2020-09-15T13:09:04Z</time>
      </trkpt>
      <trkpt lat="44.22531" lon="6.96082">
        <ele>1055</ele>
        <time>2020-09-15T13:09:09Z</time>
      </trkpt>
      <trkpt lat="44.22518" lon="6.96152">
        <ele>1054</ele>
        <time>2020-09-15T13:09:18Z</time>
      </trkpt>
      <trkpt lat="44.22512" lon="6.96188">
        <ele>1054</ele>
        <time>2020-09-15T13:09:23Z</time>
      </trkpt>
      <trkpt lat="44.225" lon="6.96251">
        <ele>1054</ele>
        <time>2020-09-15T13:09:31Z</time>
      </trkpt>
      <trkpt lat="44.22494" lon="6.96273">
        <ele>1056</ele>
        <time>2020-09-15T13:09:34Z</time>
      </trkpt>
      <trkpt lat="44.22486" lon="6.96297">
        <ele>1057</ele>
        <time>2020-09-15T13:09:37Z</time>
      </trkpt>
      <trkpt lat="44.22474" lon="6.96316">
        <ele>1057</ele>
        <time>2020-09-15T13:09:41Z</time>
      </trkpt>
      <trkpt lat="44.22461" lon="6.96331">
        <ele>1056</ele>
        <time>2020-09-15T13:09:44Z</time>
      </trkpt>
      <trkpt lat="44.22444" lon="6.96346">
        <ele>1056</ele>
        <time>2020-09-15T13:09:47Z</time>
      </trkpt>
      <trkpt lat="44.22379" lon="6.9639">
        <ele>1055</ele>
        <time>2020-09-15T13:10:00Z</time>
      </trkpt>
      <trkpt lat="44.22032" lon="6.96643">
        <ele>1050</ele>
        <time>2020-09-15T13:11:10Z</time>
      </trkpt>
      <trkpt lat="44.22011" lon="6.96663">
        <ele>1048</ele>
        <time>2020-09-15T13:11:14Z</time>
      </trkpt>
      <trkpt lat="44.21943" lon="6.9676">
        <ele>1055</ele>
        <time>2020-09-15T13:11:32Z</time>
      </trkpt>
      <trkpt lat="44.21921" lon="6.96784">
        <ele>1056</ele>
        <time>2020-09-15T13:11:37Z</time>
      </trkpt>
      <trkpt lat="44.21875" lon="6.96821">
        <ele>1052</ele>
        <time>2020-09-15T13:11:46Z</time>
      </trkpt>
      <trkpt lat="44.21855" lon="6.96848">
        <ele>1053</ele>
        <time>2020-09-15T13:11:51Z</time>
      </trkpt>
      <trkpt lat="44.21831" lon="6.96876">
        <ele>1054</ele>
        <time>2020-09-15T13:11:57Z</time>
      </trkpt>
      <trkpt lat="44.21792" lon="6.96913">
        <ele>1056</ele>
        <time>2020-09-15T13:12:05Z</time>
      </trkpt>
      <trkpt lat="44.21756" lon="6.96953">
        <ele>1051</ele>
        <time>2020-09-15T13:12:13Z</time>
      </trkpt>
      <trkpt lat="44.21706" lon="6.97019">
        <ele>1050</ele>
        <time>2020-09-15T13:12:25Z</time>
      </trkpt>
      <trkpt lat="44.21667" lon="6.97061">
        <ele>1044</ele>
        <time>2020-09-15T13:12:34Z</time>
      </trkpt>
      <trkpt lat="44.21646" lon="6.97079">
        <ele>1043</ele>
        <time>2020-09-15T13:12:39Z</time>
      </trkpt>
      <trkpt lat="44.21619" lon="6.97096">
        <ele>1043</ele>
        <time>2020-09-15T13:12:44Z</time>
      </trkpt>
      <trkpt lat="44.21602" lon="6.97103">
        <ele>1041</ele>
        <time>2020-09-15T13:12:47Z</time>
      </trkpt>
      <trkpt lat="44.21579" lon="6.97108">
        <ele>1038</ele>
        <time>2020-09-15T13:12:51Z</time>
      </trkpt>
      <trkpt lat="44.2156" lon="6.97112">
        <ele>1036</ele>
        <time>2020-09-15T13:12:55Z</time>
      </trkpt>
      <trkpt lat="44.21517" lon="6.97132">
        <ele>1031</ele>
        <time>2020-09-15T13:13:03Z</time>
      </trkpt>
      <trkpt lat="44.21484" lon="6.9716">
        <ele>1027</ele>
        <time>2020-09-15T13:13:09Z</time>
      </trkpt>
      <trkpt lat="44.21404" lon="6.97262">
        <ele>1027</ele>
        <time>2020-09-15T13:13:29Z</time>
      </trkpt>
      <trkpt lat="44.21353" lon="6.97334">
        <ele>1024</ele>
        <time>2020-09-15T13:13:42Z</time>
      </trkpt>
      <trkpt lat="44.21309" lon="6.97384">
        <ele>1030</ele>
        <time>2020-09-15T13:13:52Z</time>
      </trkpt>
      <trkpt lat="44.21265" lon="6.97414">
        <ele>1029</ele>
        <time>2020-09-15T13:14:00Z</time>
      </trkpt>
      <trkpt lat="44.212" lon="6.9745">
        <ele>1029</ele>
        <time>2020-09-15T13:14:13Z</time>
      </trkpt>
      <trkpt lat="44.21145" lon="6.97481">
        <ele>1024</ele>
        <time>2020-09-15T13:14:23Z</time>
      </trkpt>
      <trkpt lat="44.21078" lon="6.9753">
        <ele>1017</ele>
        <time>2020-09-15T13:14:37Z</time>
      </trkpt>
      <trkpt lat="44.21055" lon="6.9755">
        <ele>1017</ele>
        <time>2020-09-15T13:14:42Z</time>
      </trkpt>
      <trkpt lat="44.21035" lon="6.97574">
        <ele>1018</ele>
        <time>2020-09-15T13:14:46Z</time>
      </trkpt>
      <trkpt lat="44.21017" lon="6.97602">
        <ele>1018</ele>
        <time>2020-09-15T13:14:51Z</time>
      </trkpt>
      <trkpt lat="44.20996" lon="6.97629">
        <ele>1016</ele>
        <time>2020-09-15T13:14:56Z</time>
      </trkpt>
      <trkpt lat="44.20984" lon="6.97642">
        <ele>1015</ele>
        <time>2020-09-15T13:14:59Z</time>
      </trkpt>
      <trkpt lat="44.2098" lon="6.97646">
        <ele>1015</ele>
        <time>2020-09-15T13:15:00Z</time>
      </trkpt>
      <trkpt lat="44.20976" lon="6.97649">
        <ele>1015</ele>
        <time>2020-09-15T13:15:01Z</time>
      </trkpt>
      <trkpt lat="44.20966" lon="6.97657">
        <ele>1014</ele>
        <time>2020-09-15T13:15:03Z</time>
      </trkpt>
      <trkpt lat="44.20935" lon="6.97683">
        <ele>1013</ele>
        <time>2020-09-15T13:15:09Z</time>
      </trkpt>
      <trkpt lat="44.20927" lon="6.97692">
        <ele>1012</ele>
        <time>2020-09-15T13:15:11Z</time>
      </trkpt>
      <trkpt lat="44.20917" lon="6.97703">
        <ele>1011</ele>
        <time>2020-09-15T13:15:13Z</time>
      </trkpt>
      <trkpt lat="44.209" lon="6.97726">
        <ele>1010</ele>
        <time>2020-09-15T13:15:17Z</time>
      </trkpt>
      <trkpt lat="44.2086" lon="6.97788">
        <ele>1009</ele>
        <time>2020-09-15T13:15:28Z</time>
      </trkpt>
      <trkpt lat="44.20807" lon="6.97881">
        <ele>1014</ele>
        <time>2020-09-15T13:15:43Z</time>
      </trkpt>
      <trkpt lat="44.2078" lon="6.97912">
        <ele>1015</ele>
        <time>2020-09-15T13:15:50Z</time>
      </trkpt>
      <trkpt lat="44.2077" lon="6.97925">
        <ele>1015</ele>
        <time>2020-09-15T13:15:52Z</time>
      </trkpt>
      <trkpt lat="44.20754" lon="6.97936">
        <ele>1016</ele>
        <time>2020-09-15T13:15:55Z</time>
      </trkpt>
      <trkpt lat="44.20729" lon="6.97966">
        <ele>1019</ele>
        <time>2020-09-15T13:16:01Z</time>
      </trkpt>
      <trkpt lat="44.20715" lon="6.97987">
        <ele>1019</ele>
        <time>2020-09-15T13:16:05Z</time>
      </trkpt>
      <trkpt lat="44.20698" lon="6.98026">
        <ele>1018</ele>
        <time>2020-09-15T13:16:10Z</time>
      </trkpt>
      <trkpt lat="44.20688" lon="6.9807">
        <ele>1017</ele>
        <time>2020-09-15T13:16:16Z</time>
      </trkpt>
      <trkpt lat="44.2068" lon="6.98249">
        <ele>1011</ele>
        <time>2020-09-15T13:16:39Z</time>
      </trkpt>
      <trkpt lat="44.20676" lon="6.98287">
        <ele>1013</ele>
        <time>2020-09-15T13:16:44Z</time>
      </trkpt>
      <trkpt lat="44.2067" lon="6.98312">
        <ele>1011</ele>
        <time>2020-09-15T13:16:47Z</time>
      </trkpt>
      <trkpt lat="44.20662" lon="6.98336">
        <ele>1012</ele>
        <time>2020-09-15T13:16:51Z</time>
      </trkpt>
      <trkpt lat="44.20636" lon="6.98377">
        <ele>1018</ele>
        <time>2020-09-15T13:16:58Z</time>
      </trkpt>
      <trkpt lat="44.20593" lon="6.98426">
        <ele>1012</ele>
        <time>2020-09-15T13:17:08Z</time>
      </trkpt>
      <trkpt lat="44.2056" lon="6.98471">
        <ele>1013</ele>
        <time>2020-09-15T13:17:16Z</time>
      </trkpt>
      <trkpt lat="44.20541" lon="6.98491">
        <ele>1011</ele>
        <time>2020-09-15T13:17:20Z</time>
      </trkpt>
      <trkpt lat="44.20509" lon="6.9852">
        <ele>1008</ele>
        <time>2020-09-15T13:17:27Z</time>
      </trkpt>
      <trkpt lat="44.20476" lon="6.98562">
        <ele>1011</ele>
        <time>2020-09-15T13:17:35Z</time>
      </trkpt>
      <trkpt lat="44.20459" lon="6.98591">
        <ele>1010</ele>
        <time>2020-09-15T13:17:40Z</time>
      </trkpt>
      <trkpt lat="44.20412" lon="6.98703">
        <ele>1012</ele>
        <time>2020-09-15T13:17:56Z</time>
      </trkpt>
      <trkpt lat="44.20374" lon="6.98786">
        <ele>1013</ele>
        <time>2020-09-15T13:18:09Z</time>
      </trkpt>
      <trkpt lat="44.20313" lon="6.98891">
        <ele>1004</ele>
        <time>2020-09-15T13:18:26Z</time>
      </trkpt>
      <trkpt lat="44.20291" lon="6.98924">
        <ele>1004</ele>
        <time>2020-09-15T13:18:32Z</time>
      </trkpt>
      <trkpt lat="44.20266" lon="6.98956">
        <ele>1004</ele>
        <time>2020-09-15T13:18:38Z</time>
      </trkpt>
      <trkpt lat="44.20248" lon="6.98974">
        <ele>1002</ele>
        <time>2020-09-15T13:18:42Z</time>
      </trkpt>
      <trkpt lat="44.20216" lon="6.99005">
        <ele>1001</ele>
        <time>2020-09-15T13:18:49Z</time>
      </trkpt>
      <trkpt lat="44.20201" lon="6.9902">
        <ele>999</ele>
        <time>2020-09-15T13:18:52Z</time>
      </trkpt>
      <trkpt lat="44.20187" lon="6.99039">
        <ele>998</ele>
        <time>2020-09-15T13:18:55Z</time>
      </trkpt>
      <trkpt lat="44.20174" lon="6.99062">
        <ele>997</ele>
        <time>2020-09-15T13:18:59Z</time>
      </trkpt>
      <trkpt lat="44.20162" lon="6.99087">
        <ele>997</ele>
        <time>2020-09-15T13:19:03Z</time>
      </trkpt>
      <trkpt lat="44.2015" lon="6.99117">
        <ele>999</ele>
        <time>2020-09-15T13:19:07Z</time>
      </trkpt>
      <trkpt lat="44.20141" lon="6.99155">
        <ele>1000</ele>
        <time>2020-09-15T13:19:13Z</time>
      </trkpt>
      <trkpt lat="44.20136" lon="6.99208">
        <ele>997</ele>
        <time>2020-09-15T13:19:19Z</time>
      </trkpt>
      <trkpt lat="44.20131" lon="6.99326">
        <ele>989</ele>
        <time>2020-09-15T13:19:34Z</time>
      </trkpt>
      <trkpt lat="44.20126" lon="6.99401">
        <ele>989</ele>
        <time>2020-09-15T13:19:44Z</time>
      </trkpt>
      <trkpt lat="44.2012" lon="6.99438">
        <ele>991</ele>
        <time>2020-09-15T13:19:49Z</time>
      </trkpt>
      <trkpt lat="44.20112" lon="6.99465">
        <ele>992</ele>
        <time>2020-09-15T13:19:53Z</time>
      </trkpt>
      <trkpt lat="44.20095" lon="6.99504">
        <ele>990</ele>
        <time>2020-09-15T13:19:58Z</time>
      </trkpt>
      <trkpt lat="44.20042" lon="6.99593">
        <ele>992</ele>
        <time>2020-09-15T13:20:13Z</time>
      </trkpt>
      <trkpt lat="44.20029" lon="6.99626">
        <ele>991</ele>
        <time>2020-09-15T13:20:18Z</time>
      </trkpt>
      <trkpt lat="44.20019" lon="6.9966">
        <ele>990</ele>
        <time>2020-09-15T13:20:23Z</time>
      </trkpt>
      <trkpt lat="44.20011" lon="6.99709">
        <ele>988</ele>
        <time>2020-09-15T13:20:29Z</time>
      </trkpt>
      <trkpt lat="44.19995" lon="6.99821">
        <ele>982</ele>
        <time>2020-09-15T13:20:44Z</time>
      </trkpt>
      <trkpt lat="44.19987" lon="6.99857">
        <ele>982</ele>
        <time>2020-09-15T13:20:48Z</time>
      </trkpt>
      <trkpt lat="44.1998" lon="6.99883">
        <ele>983</ele>
        <time>2020-09-15T13:20:52Z</time>
      </trkpt>
      <trkpt lat="44.1997" lon="6.99911">
        <ele>982</ele>
        <time>2020-09-15T13:20:56Z</time>
      </trkpt>
      <trkpt lat="44.19956" lon="6.99941">
        <ele>981</ele>
        <time>2020-09-15T13:21:01Z</time>
      </trkpt>
      <trkpt lat="44.19939" lon="6.99972">
        <ele>980</ele>
        <time>2020-09-15T13:21:06Z</time>
      </trkpt>
      <trkpt lat="44.19913" lon="7.00013">
        <ele>977</ele>
        <time>2020-09-15T13:21:12Z</time>
      </trkpt>
      <trkpt lat="44.19893" lon="7.00044">
        <ele>978</ele>
        <time>2020-09-15T13:21:18Z</time>
      </trkpt>
      <trkpt lat="44.19866" lon="7.00089">
        <ele>976</ele>
        <time>2020-09-15T13:21:25Z</time>
      </trkpt>
      <trkpt lat="44.19843" lon="7.00132">
        <ele>973</ele>
        <time>2020-09-15T13:21:32Z</time>
      </trkpt>
      <trkpt lat="44.19824" lon="7.00188">
        <ele>973</ele>
        <time>2020-09-15T13:21:40Z</time>
      </trkpt>
      <trkpt lat="44.19812" lon="7.00254">
        <ele>974</ele>
        <time>2020-09-15T13:21:49Z</time>
      </trkpt>
      <trkpt lat="44.19797" lon="7.00356">
        <ele>980</ele>
        <time>2020-09-15T13:22:02Z</time>
      </trkpt>
      <trkpt lat="44.19787" lon="7.00402">
        <ele>980</ele>
        <time>2020-09-15T13:22:08Z</time>
      </trkpt>
      <trkpt lat="44.1977" lon="7.00452">
        <ele>974</ele>
        <time>2020-09-15T13:22:15Z</time>
      </trkpt>
      <trkpt lat="44.1975" lon="7.00491">
        <ele>966</ele>
        <time>2020-09-15T13:22:21Z</time>
      </trkpt>
      <trkpt lat="44.19729" lon="7.00522">
        <ele>967</ele>
        <time>2020-09-15T13:22:27Z</time>
      </trkpt>
      <trkpt lat="44.19689" lon="7.00575">
        <ele>967</ele>
        <time>2020-09-15T13:22:37Z</time>
      </trkpt>
      <trkpt lat="44.1967" lon="7.00601">
        <ele>965</ele>
        <time>2020-09-15T13:22:41Z</time>
      </trkpt>
      <trkpt lat="44.19636" lon="7.00644">
        <ele>965</ele>
        <time>2020-09-15T13:22:49Z</time>
      </trkpt>
      <trkpt lat="44.19602" lon="7.00685">
        <ele>965</ele>
        <time>2020-09-15T13:22:57Z</time>
      </trkpt>
      <trkpt lat="44.19585" lon="7.00702">
        <ele>966</ele>
        <time>2020-09-15T13:23:01Z</time>
      </trkpt>
      <trkpt lat="44.19567" lon="7.00717">
        <ele>967</ele>
        <time>2020-09-15T13:23:05Z</time>
      </trkpt>
      <trkpt lat="44.19527" lon="7.00752">
        <ele>965</ele>
        <time>2020-09-15T13:23:13Z</time>
      </trkpt>
      <trkpt lat="44.19506" lon="7.00769">
        <ele>964</ele>
        <time>2020-09-15T13:23:18Z</time>
      </trkpt>
      <trkpt lat="44.19488" lon="7.00788">
        <ele>966</ele>
        <time>2020-09-15T13:23:22Z</time>
      </trkpt>
      <trkpt lat="44.19476" lon="7.00803">
        <ele>967</ele>
        <time>2020-09-15T13:23:25Z</time>
      </trkpt>
      <trkpt lat="44.19466" lon="7.0082">
        <ele>968</ele>
        <time>2020-09-15T13:23:27Z</time>
      </trkpt>
      <trkpt lat="44.19457" lon="7.00842">
        <ele>967</ele>
        <time>2020-09-15T13:23:31Z</time>
      </trkpt>
      <trkpt lat="44.19447" lon="7.0088">
        <ele>965</ele>
        <time>2020-09-15T13:23:36Z</time>
      </trkpt>
      <trkpt lat="44.19425" lon="7.00984">
        <ele>959</ele>
        <time>2020-09-15T13:23:50Z</time>
      </trkpt>
      <trkpt lat="44.19416" lon="7.01018">
        <ele>959</ele>
        <time>2020-09-15T13:23:54Z</time>
      </trkpt>
      <trkpt lat="44.19403" lon="7.01048">
        <ele>961</ele>
        <time>2020-09-15T13:23:59Z</time>
      </trkpt>
      <trkpt lat="44.19355" lon="7.0112">
        <ele>957</ele>
        <time>2020-09-15T13:24:11Z</time>
      </trkpt>
      <trkpt lat="44.19343" lon="7.0114">
        <ele>954</ele>
        <time>2020-09-15T13:24:15Z</time>
      </trkpt>
      <trkpt lat="44.19318" lon="7.01182">
        <ele>955</ele>
        <time>2020-09-15T13:24:21Z</time>
      </trkpt>
      <trkpt lat="44.19261" lon="7.01284">
        <ele>955</ele>
        <time>2020-09-15T13:24:38Z</time>
      </trkpt>
      <trkpt lat="44.19228" lon="7.01348">
        <ele>955</ele>
        <time>2020-09-15T13:24:48Z</time>
      </trkpt>
      <trkpt lat="44.19147" lon="7.01534">
        <ele>953</ele>
        <time>2020-09-15T13:25:16Z</time>
      </trkpt>
      <trkpt lat="44.19094" lon="7.01669">
        <ele>948</ele>
        <time>2020-09-15T13:25:35Z</time>
      </trkpt>
      <trkpt lat="44.19074" lon="7.01703">
        <ele>947</ele>
        <time>2020-09-15T13:25:41Z</time>
      </trkpt>
      <trkpt lat="44.1902" lon="7.01782">
        <ele>940</ele>
        <time>2020-09-15T13:25:55Z</time>
      </trkpt>
      <trkpt lat="44.19" lon="7.01821">
        <ele>936</ele>
        <time>2020-09-15T13:26:01Z</time>
      </trkpt>
      <trkpt lat="44.18986" lon="7.01863">
        <ele>935</ele>
        <time>2020-09-15T13:26:07Z</time>
      </trkpt>
      <trkpt lat="44.18975" lon="7.0191">
        <ele>933</ele>
        <time>2020-09-15T13:26:13Z</time>
      </trkpt>
      <trkpt lat="44.1897" lon="7.01966">
        <ele>931</ele>
        <time>2020-09-15T13:26:21Z</time>
      </trkpt>
      <trkpt lat="44.18968" lon="7.02034">
        <ele>929</ele>
        <time>2020-09-15T13:26:29Z</time>
      </trkpt>
      <trkpt lat="44.18968" lon="7.02118">
        <ele>927</ele>
        <time>2020-09-15T13:26:40Z</time>
      </trkpt>
      <trkpt lat="44.18968" lon="7.02139">
        <ele>927</ele>
        <time>2020-09-15T13:26:43Z</time>
      </trkpt>
      <trkpt lat="44.18963" lon="7.02223">
        <ele>925</ele>
        <time>2020-09-15T13:26:53Z</time>
      </trkpt>
      <trkpt lat="44.18956" lon="7.02281">
        <ele>925</ele>
        <time>2020-09-15T13:27:01Z</time>
      </trkpt>
      <trkpt lat="44.18947" lon="7.02335">
        <ele>923</ele>
        <time>2020-09-15T13:27:08Z</time>
      </trkpt>
      <trkpt lat="44.18929" lon="7.02418">
        <ele>925</ele>
        <time>2020-09-15T13:27:19Z</time>
      </trkpt>
      <trkpt lat="44.18919" lon="7.02477">
        <ele>925</ele>
        <time>2020-09-15T13:27:27Z</time>
      </trkpt>
      <trkpt lat="44.18918" lon="7.02485">
        <ele>925</ele>
        <time>2020-09-15T13:27:28Z</time>
      </trkpt>
      <trkpt lat="44.18917" lon="7.02523">
        <ele>923</ele>
        <time>2020-09-15T13:27:33Z</time>
      </trkpt>
      <trkpt lat="44.18924" lon="7.02567">
        <ele>923</ele>
        <time>2020-09-15T13:27:38Z</time>
      </trkpt>
      <trkpt lat="44.1894" lon="7.02619">
        <ele>931</ele>
        <time>2020-09-15T13:27:46Z</time>
      </trkpt>
      <trkpt lat="44.18965" lon="7.0269">
        <ele>940</ele>
        <time>2020-09-15T13:27:56Z</time>
      </trkpt>
      <trkpt lat="44.18997" lon="7.02768">
        <ele>932</ele>
        <time>2020-09-15T13:28:07Z</time>
      </trkpt>
      <trkpt lat="44.19023" lon="7.02847">
        <ele>932</ele>
        <time>2020-09-15T13:28:18Z</time>
      </trkpt>
      <trkpt lat="44.19045" lon="7.02947">
        <ele>928</ele>
        <time>2020-09-15T13:28:32Z</time>
      </trkpt>
      <trkpt lat="44.19053" lon="7.03012">
        <ele>923</ele>
        <time>2020-09-15T13:28:40Z</time>
      </trkpt>
      <trkpt lat="44.19056" lon="7.03076">
        <ele>917</ele>
        <time>2020-09-15T13:28:48Z</time>
      </trkpt>
      <trkpt lat="44.19054" lon="7.03138">
        <ele>914</ele>
        <time>2020-09-15T13:28:56Z</time>
      </trkpt>
      <trkpt lat="44.19045" lon="7.0324">
        <ele>914</ele>
        <time>2020-09-15T13:29:09Z</time>
      </trkpt>
      <trkpt lat="44.19027" lon="7.03342">
        <ele>916</ele>
        <time>2020-09-15T13:29:23Z</time>
      </trkpt>
      <trkpt lat="44.18998" lon="7.03465">
        <ele>905</ele>
        <time>2020-09-15T13:29:39Z</time>
      </trkpt>
      <trkpt lat="44.18991" lon="7.03506">
        <ele>906</ele>
        <time>2020-09-15T13:29:45Z</time>
      </trkpt>
      <trkpt lat="44.18989" lon="7.03534">
        <ele>907</ele>
        <time>2020-09-15T13:29:48Z</time>
      </trkpt>
      <trkpt lat="44.1897" lon="7.03639">
        <ele>910</ele>
        <time>2020-09-15T13:30:02Z</time>
      </trkpt>
      <trkpt lat="44.18948" lon="7.03731">
        <ele>908</ele>
        <time>2020-09-15T13:30:14Z</time>
      </trkpt>
      <trkpt lat="44.18933" lon="7.03791">
        <ele>904</ele>
        <time>2020-09-15T13:30:22Z</time>
      </trkpt>
      <trkpt lat="44.18903" lon="7.03925">
        <ele>893</ele>
        <time>2020-09-15T13:30:40Z</time>
      </trkpt>
      <trkpt lat="44.189" lon="7.03959">
        <ele>893</ele>
        <time>2020-09-15T13:30:45Z</time>
      </trkpt>
      <trkpt lat="44.18898" lon="7.04025">
        <ele>895</ele>
        <time>2020-09-15T13:30:53Z</time>
      </trkpt>
      <trkpt lat="44.18894" lon="7.04054">
        <ele>898</ele>
        <time>2020-09-15T13:30:57Z</time>
      </trkpt>
      <trkpt lat="44.18862" lon="7.04188">
        <ele>896</ele>
        <time>2020-09-15T13:31:15Z</time>
      </trkpt>
      <trkpt lat="44.18847" lon="7.04256">
        <ele>894</ele>
        <time>2020-09-15T13:31:24Z</time>
      </trkpt>
      <trkpt lat="44.18835" lon="7.04292">
        <ele>890</ele>
        <time>2020-09-15T13:31:29Z</time>
      </trkpt>
      <trkpt lat="44.18821" lon="7.04327">
        <ele>890</ele>
        <time>2020-09-15T13:31:34Z</time>
      </trkpt>
      <trkpt lat="44.18785" lon="7.04398">
        <ele>890</ele>
        <time>2020-09-15T13:31:45Z</time>
      </trkpt>
      <trkpt lat="44.18758" lon="7.04465">
        <ele>884</ele>
        <time>2020-09-15T13:31:55Z</time>
      </trkpt>
      <trkpt lat="44.18745" lon="7.04509">
        <ele>884</ele>
        <time>2020-09-15T13:32:01Z</time>
      </trkpt>
      <trkpt lat="44.18743" lon="7.04516">
        <ele>884</ele>
        <time>2020-09-15T13:32:02Z</time>
      </trkpt>
      <trkpt lat="44.18723" lon="7.04591">
        <ele>889</ele>
        <time>2020-09-15T13:32:12Z</time>
      </trkpt>
      <trkpt lat="44.18719" lon="7.04599">
        <ele>889</ele>
        <time>2020-09-15T13:32:14Z</time>
      </trkpt>
      <trkpt lat="44.18713" lon="7.04606">
        <ele>888</ele>
        <time>2020-09-15T13:32:15Z</time>
      </trkpt>
      <trkpt lat="44.18703" lon="7.04613">
        <ele>885</ele>
        <time>2020-09-15T13:32:17Z</time>
      </trkpt>
      <trkpt lat="44.18698" lon="7.04616">
        <ele>884</ele>
        <time>2020-09-15T13:32:18Z</time>
      </trkpt>
      <trkpt lat="44.18689" lon="7.04621">
        <ele>880</ele>
        <time>2020-09-15T13:32:20Z</time>
      </trkpt>
      <trkpt lat="44.18649" lon="7.04641">
        <ele>873</ele>
        <time>2020-09-15T13:32:27Z</time>
      </trkpt>
      <trkpt lat="44.18639" lon="7.0465">
        <ele>874</ele>
        <time>2020-09-15T13:32:29Z</time>
      </trkpt>
      <trkpt lat="44.18635" lon="7.04658">
        <ele>874</ele>
        <time>2020-09-15T13:32:31Z</time>
      </trkpt>
      <trkpt lat="44.18632" lon="7.0467">
        <ele>873</ele>
        <time>2020-09-15T13:32:32Z</time>
      </trkpt>
      <trkpt lat="44.18626" lon="7.0471">
        <ele>873</ele>
        <time>2020-09-15T13:32:37Z</time>
      </trkpt>
      <trkpt lat="44.18619" lon="7.04746">
        <ele>872</ele>
        <time>2020-09-15T13:32:42Z</time>
      </trkpt>
      <trkpt lat="44.18617" lon="7.04758">
        <ele>872</ele>
        <time>2020-09-15T13:32:44Z</time>
      </trkpt>
      <trkpt lat="44.18615" lon="7.04768">
        <ele>872</ele>
        <time>2020-09-15T13:32:45Z</time>
      </trkpt>
      <trkpt lat="44.18608" lon="7.04788">
        <ele>872</ele>
        <time>2020-09-15T13:32:48Z</time>
      </trkpt>
      <trkpt lat="44.18604" lon="7.04799">
        <ele>871</ele>
        <time>2020-09-15T13:32:49Z</time>
      </trkpt>
      <trkpt lat="44.18598" lon="7.04819">
        <ele>870</ele>
        <time>2020-09-15T13:32:52Z</time>
      </trkpt>
      <trkpt lat="44.18578" lon="7.04879">
        <ele>868</ele>
        <time>2020-09-15T13:33:01Z</time>
      </trkpt>
      <trkpt lat="44.18551" lon="7.04942">
        <ele>869</ele>
        <time>2020-09-15T13:33:10Z</time>
      </trkpt>
      <trkpt lat="44.18542" lon="7.04976">
        <ele>868</ele>
        <time>2020-09-15T13:33:15Z</time>
      </trkpt>
      <trkpt lat="44.18538" lon="7.04997">
        <ele>868</ele>
        <time>2020-09-15T13:33:17Z</time>
      </trkpt>
      <trkpt lat="44.18534" lon="7.05039">
        <ele>867</ele>
        <time>2020-09-15T13:33:23Z</time>
      </trkpt>
      <trkpt lat="44.18531" lon="7.05081">
        <ele>867</ele>
        <time>2020-09-15T13:33:28Z</time>
      </trkpt>
      <trkpt lat="44.18527" lon="7.05139">
        <ele>865</ele>
        <time>2020-09-15T13:33:36Z</time>
      </trkpt>
      <trkpt lat="44.18518" lon="7.05254">
        <ele>864</ele>
        <time>2020-09-15T13:33:50Z</time>
      </trkpt>
      <trkpt lat="44.18516" lon="7.05286">
        <ele>864</ele>
        <time>2020-09-15T13:33:54Z</time>
      </trkpt>
      <trkpt lat="44.18609" lon="7.05311">
        <ele>873</ele>
        <time>2020-09-15T13:34:11Z</time>
      </trkpt>
      <trkpt lat="44.18624" lon="7.05251">
        <ele>876</ele>
        <time>2020-09-15T13:34:19Z</time>
      </trkpt>
      <trkpt lat="44.18645" lon="7.0519">
        <ele>881</ele>
        <time>2020-09-15T13:34:28Z</time>
      </trkpt>
      <trkpt lat="44.18637" lon="7.05171">
        <ele>880</ele>
        <time>2020-09-15T13:34:31Z</time>
      </trkpt>
      <trkpt lat="44.1862" lon="7.05145">
        <ele>878</ele>
        <time>2020-09-15T13:34:35Z</time>
      </trkpt>
      <trkpt lat="44.1861" lon="7.05123">
        <ele>878</ele>
        <time>2020-09-15T13:34:39Z</time>
      </trkpt>
      <trkpt lat="44.18597" lon="7.05078">
        <ele>876</ele>
        <time>2020-09-15T13:34:45Z</time>
      </trkpt>
      <trkpt lat="44.18595" lon="7.05064">
        <ele>876</ele>
        <time>2020-09-15T13:34:47Z</time>
      </trkpt>
      <trkpt lat="44.18577" lon="7.05065">
        <ele>872</ele>
        <time>2020-09-15T13:34:50Z</time>
      </trkpt>
      <trkpt lat="44.18568" lon="7.05059">
        <ele>871</ele>
        <time>2020-09-15T13:34:52Z</time>
      </trkpt>
      <trkpt lat="44.18549" lon="7.05062">
        <ele>869</ele>
        <time>2020-09-15T13:34:55Z</time>
      </trkpt>
      <trkpt lat="44.18537" lon="7.05078">
        <ele>868</ele>
        <time>2020-09-15T13:34:58Z</time>
      </trkpt>
      <trkpt lat="44.18531" lon="7.05081">
        <ele>867</ele>
        <time>2020-09-15T13:34:59Z</time>
      </trkpt>
      <trkpt lat="44.18527" lon="7.05139">
        <ele>865</ele>
        <time>2020-09-15T13:35:07Z</time>
      </trkpt>
      <trkpt lat="44.18518" lon="7.05254">
        <ele>864</ele>
        <time>2020-09-15T13:35:21Z</time>
      </trkpt>
      <trkpt lat="44.18516" lon="7.05286">
        <ele>864</ele>
        <time>2020-09-15T13:35:25Z</time>
      </trkpt>
      <trkpt lat="44.18515" lon="7.05307">
        <ele>863</ele>
        <time>2020-09-15T13:35:28Z</time>
      </trkpt>
      <trkpt lat="44.18511" lon="7.05353">
        <ele>864</ele>
        <time>2020-09-15T13:35:34Z</time>
      </trkpt>
      <trkpt lat="44.18508" lon="7.05378">
        <ele>865</ele>
        <time>2020-09-15T13:35:37Z</time>
      </trkpt>
      <trkpt lat="44.18503" lon="7.05401">
        <ele>866</ele>
        <time>2020-09-15T13:35:40Z</time>
      </trkpt>
      <trkpt lat="44.18494" lon="7.05428">
        <ele>865</ele>
        <time>2020-09-15T13:35:44Z</time>
      </trkpt>
      <trkpt lat="44.18483" lon="7.05454">
        <ele>864</ele>
        <time>2020-09-15T13:35:48Z</time>
      </trkpt>
      <trkpt lat="44.1848" lon="7.05451">
        <ele>864</ele>
        <time>2020-09-15T13:35:49Z</time>
      </trkpt>
      <trkpt lat="44.18472" lon="7.0545">
        <ele>863</ele>
        <time>2020-09-15T13:35:50Z</time>
      </trkpt>
      <trkpt lat="44.18465" lon="7.05456">
        <ele>862</ele>
        <time>2020-09-15T13:35:52Z</time>
      </trkpt>
      <trkpt lat="44.18462" lon="7.05467">
        <ele>862</ele>
        <time>2020-09-15T13:35:53Z</time>
      </trkpt>
      <trkpt lat="44.18464" lon="7.05478">
        <ele>862</ele>
        <time>2020-09-15T13:35:55Z</time>
      </trkpt>
      <trkpt lat="44.18467" lon="7.05482">
        <ele>863</ele>
        <time>2020-09-15T13:35:55Z</time>
      </trkpt>
      <trkpt lat="44.18426" lon="7.05546">
        <ele>858</ele>
        <time>2020-09-15T13:36:06Z</time>
      </trkpt>
      <trkpt lat="44.18315" lon="7.05777">
        <ele>864</ele>
        <time>2020-09-15T13:36:42Z</time>
      </trkpt>
      <trkpt lat="44.18297" lon="7.05802">
        <ele>866</ele>
        <time>2020-09-15T13:36:46Z</time>
      </trkpt>
      <trkpt lat="44.1827" lon="7.05832">
        <ele>864</ele>
        <time>2020-09-15T13:36:52Z</time>
      </trkpt>
      <trkpt lat="44.18191" lon="7.05906">
        <ele>859</ele>
        <time>2020-09-15T13:37:09Z</time>
      </trkpt>
      <trkpt lat="44.18174" lon="7.05929">
        <ele>857</ele>
        <time>2020-09-15T13:37:13Z</time>
      </trkpt>
      <trkpt lat="44.18149" lon="7.05973">
        <ele>860</ele>
        <time>2020-09-15T13:37:21Z</time>
      </trkpt>
      <trkpt lat="44.1811" lon="7.06058">
        <ele>861</ele>
        <time>2020-09-15T13:37:34Z</time>
      </trkpt>
      <trkpt lat="44.18083" lon="7.06106">
        <ele>855</ele>
        <time>2020-09-15T13:37:41Z</time>
      </trkpt>
      <trkpt lat="44.18028" lon="7.06193">
        <ele>861</ele>
        <time>2020-09-15T13:37:56Z</time>
      </trkpt>
      <trkpt lat="44.18002" lon="7.06237">
        <ele>854</ele>
        <time>2020-09-15T13:38:03Z</time>
      </trkpt>
      <trkpt lat="44.1797" lon="7.063">
        <ele>865</ele>
        <time>2020-09-15T13:38:13Z</time>
      </trkpt>
      <trkpt lat="44.17951" lon="7.06349">
        <ele>862</ele>
        <time>2020-09-15T13:38:20Z</time>
      </trkpt>
      <trkpt lat="44.17912" lon="7.0647">
        <ele>852</ele>
        <time>2020-09-15T13:38:37Z</time>
      </trkpt>
      <trkpt lat="44.17895" lon="7.06544">
        <ele>854</ele>
        <time>2020-09-15T13:38:47Z</time>
      </trkpt>
      <trkpt lat="44.17882" lon="7.06583">
        <ele>853</ele>
        <time>2020-09-15T13:38:53Z</time>
      </trkpt>
      <trkpt lat="44.17869" lon="7.0661">
        <ele>854</ele>
        <time>2020-09-15T13:38:57Z</time>
      </trkpt>
      <trkpt lat="44.17852" lon="7.06638">
        <ele>853</ele>
        <time>2020-09-15T13:39:02Z</time>
      </trkpt>
      <trkpt lat="44.17754" lon="7.06773">
        <ele>844</ele>
        <time>2020-09-15T13:39:26Z</time>
      </trkpt>
      <trkpt lat="44.17737" lon="7.06799">
        <ele>846</ele>
        <time>2020-09-15T13:39:31Z</time>
      </trkpt>
      <trkpt lat="44.17667" lon="7.06934">
        <ele>836</ele>
        <time>2020-09-15T13:39:52Z</time>
      </trkpt>
      <trkpt lat="44.17657" lon="7.06961">
        <ele>838</ele>
        <time>2020-09-15T13:39:56Z</time>
      </trkpt>
      <trkpt lat="44.1765" lon="7.06991">
        <ele>838</ele>
        <time>2020-09-15T13:40:00Z</time>
      </trkpt>
      <trkpt lat="44.17623" lon="7.07149">
        <ele>845</ele>
        <time>2020-09-15T13:40:20Z</time>
      </trkpt>
      <trkpt lat="44.17614" lon="7.07223">
        <ele>844</ele>
        <time>2020-09-15T13:40:30Z</time>
      </trkpt>
      <trkpt lat="44.17613" lon="7.07245">
        <ele>843</ele>
        <time>2020-09-15T13:40:33Z</time>
      </trkpt>
      <trkpt lat="44.17623" lon="7.07329">
        <ele>848</ele>
        <time>2020-09-15T13:40:44Z</time>
      </trkpt>
      <trkpt lat="44.17622" lon="7.07371">
        <ele>850</ele>
        <time>2020-09-15T13:40:49Z</time>
      </trkpt>
      <trkpt lat="44.17614" lon="7.07435">
        <ele>852</ele>
        <time>2020-09-15T13:40:57Z</time>
      </trkpt>
      <trkpt lat="44.17572" lon="7.07547">
        <ele>851</ele>
        <time>2020-09-15T13:41:13Z</time>
      </trkpt>
      <trkpt lat="44.17495" lon="7.07786">
        <ele>851</ele>
        <time>2020-09-15T13:41:47Z</time>
      </trkpt>
      <trkpt lat="44.17484" lon="7.07808">
        <ele>852</ele>
        <time>2020-09-15T13:41:50Z</time>
      </trkpt>
      <trkpt lat="44.17396" lon="7.07952">
        <ele>843</ele>
        <time>2020-09-15T13:42:14Z</time>
      </trkpt>
      <trkpt lat="44.17384" lon="7.07966">
        <ele>844</ele>
        <time>2020-09-15T13:42:17Z</time>
      </trkpt>
      <trkpt lat="44.17306" lon="7.08031">
        <ele>852</ele>
        <time>2020-09-15T13:42:33Z</time>
      </trkpt>
      <trkpt lat="44.17297" lon="7.08046">
        <ele>854</ele>
        <time>2020-09-15T13:42:36Z</time>
      </trkpt>
      <trkpt lat="44.17287" lon="7.08097">
        <ele>851</ele>
        <time>2020-09-15T13:42:43Z</time>
      </trkpt>
      <trkpt lat="44.17286" lon="7.08141">
        <ele>850</ele>
        <time>2020-09-15T13:42:48Z</time>
      </trkpt>
      <trkpt lat="44.17288" lon="7.08185">
        <ele>846</ele>
        <time>2020-09-15T13:42:54Z</time>
      </trkpt>
      <trkpt lat="44.17285" lon="7.08217">
        <ele>843</ele>
        <time>2020-09-15T13:42:58Z</time>
      </trkpt>
      <trkpt lat="44.17276" lon="7.08249">
        <ele>839</ele>
        <time>2020-09-15T13:43:02Z</time>
      </trkpt>
      <trkpt lat="44.1721" lon="7.08364">
        <ele>841</ele>
        <time>2020-09-15T13:43:21Z</time>
      </trkpt>
      <trkpt lat="44.17149" lon="7.08451">
        <ele>833</ele>
        <time>2020-09-15T13:43:37Z</time>
      </trkpt>
      <trkpt lat="44.17059" lon="7.08562">
        <ele>826</ele>
        <time>2020-09-15T13:43:58Z</time>
      </trkpt>
      <trkpt lat="44.17039" lon="7.08584">
        <ele>823</ele>
        <time>2020-09-15T13:44:03Z</time>
      </trkpt>
      <trkpt lat="44.16922" lon="7.08678">
        <ele>823</ele>
        <time>2020-09-15T13:44:27Z</time>
      </trkpt>
      <trkpt lat="44.16885" lon="7.08701">
        <ele>825</ele>
        <time>2020-09-15T13:44:34Z</time>
      </trkpt>
      <trkpt lat="44.16863" lon="7.0871">
        <ele>826</ele>
        <time>2020-09-15T13:44:38Z</time>
      </trkpt>
      <trkpt lat="44.16784" lon="7.08768">
        <ele>818</ele>
        <time>2020-09-15T13:44:54Z</time>
      </trkpt>
      <trkpt lat="44.16758" lon="7.08778">
        <ele>822</ele>
        <time>2020-09-15T13:44:59Z</time>
      </trkpt>
      <trkpt lat="44.1671" lon="7.08789">
        <ele>824</ele>
        <time>2020-09-15T13:45:07Z</time>
      </trkpt>
      <trkpt lat="44.16647" lon="7.088">
        <ele>821</ele>
        <time>2020-09-15T13:45:19Z</time>
      </trkpt>
      <trkpt lat="44.16588" lon="7.08805">
        <ele>814</ele>
        <time>2020-09-15T13:45:29Z</time>
      </trkpt>
      <trkpt lat="44.1654" lon="7.08806">
        <ele>813</ele>
        <time>2020-09-15T13:45:38Z</time>
      </trkpt>
      <trkpt lat="44.16506" lon="7.08813">
        <ele>808</ele>
        <time>2020-09-15T13:45:44Z</time>
      </trkpt>
      <trkpt lat="44.16421" lon="7.08853">
        <ele>799</ele>
        <time>2020-09-15T13:46:00Z</time>
      </trkpt>
      <trkpt lat="44.16403" lon="7.08867">
        <ele>802</ele>
        <time>2020-09-15T13:46:03Z</time>
      </trkpt>
      <trkpt lat="44.16355" lon="7.08924">
        <ele>795</ele>
        <time>2020-09-15T13:46:15Z</time>
      </trkpt>
      <trkpt lat="44.16319" lon="7.08958">
        <ele>795</ele>
        <time>2020-09-15T13:46:22Z</time>
      </trkpt>
      <trkpt lat="44.16281" lon="7.08989">
        <ele>791</ele>
        <time>2020-09-15T13:46:30Z</time>
      </trkpt>
      <trkpt lat="44.16248" lon="7.09009">
        <ele>787</ele>
        <time>2020-09-15T13:46:37Z</time>
      </trkpt>
      <trkpt lat="44.16219" lon="7.09017">
        <ele>787</ele>
        <time>2020-09-15T13:46:42Z</time>
      </trkpt>
      <trkpt lat="44.16147" lon="7.09016">
        <ele>790</ele>
        <time>2020-09-15T13:46:55Z</time>
      </trkpt>
      <trkpt lat="44.16098" lon="7.09019">
        <ele>791</ele>
        <time>2020-09-15T13:47:03Z</time>
      </trkpt>
      <trkpt lat="44.16069" lon="7.09026">
        <ele>790</ele>
        <time>2020-09-15T13:47:09Z</time>
      </trkpt>
      <trkpt lat="44.16021" lon="7.09042">
        <ele>786</ele>
        <time>2020-09-15T13:47:17Z</time>
      </trkpt>
      <trkpt lat="44.15916" lon="7.09084">
        <ele>777</ele>
        <time>2020-09-15T13:47:37Z</time>
      </trkpt>
      <trkpt lat="44.15882" lon="7.09088">
        <ele>775</ele>
        <time>2020-09-15T13:47:43Z</time>
      </trkpt>
      <trkpt lat="44.15845" lon="7.09086">
        <ele>772</ele>
        <time>2020-09-15T13:47:49Z</time>
      </trkpt>
      <trkpt lat="44.15819" lon="7.09079">
        <ele>771</ele>
        <time>2020-09-15T13:47:54Z</time>
      </trkpt>
      <trkpt lat="44.15725" lon="7.09038">
        <ele>780</ele>
        <time>2020-09-15T13:48:12Z</time>
      </trkpt>
      <trkpt lat="44.15686" lon="7.09029">
        <ele>776</ele>
        <time>2020-09-15T13:48:19Z</time>
      </trkpt>
      <trkpt lat="44.15641" lon="7.09028">
        <ele>773</ele>
        <time>2020-09-15T13:48:27Z</time>
      </trkpt>
      <trkpt lat="44.1558" lon="7.09051">
        <ele>766</ele>
        <time>2020-09-15T13:48:38Z</time>
      </trkpt>
      <trkpt lat="44.15481" lon="7.09139">
        <ele>759</ele>
        <time>2020-09-15T13:48:59Z</time>
      </trkpt>
      <trkpt lat="44.15459" lon="7.09167">
        <ele>761</ele>
        <time>2020-09-15T13:49:04Z</time>
      </trkpt>
      <trkpt lat="44.1544" lon="7.09202">
        <ele>764</ele>
        <time>2020-09-15T13:49:10Z</time>
      </trkpt>
      <trkpt lat="44.15421" lon="7.09245">
        <ele>758</ele>
        <time>2020-09-15T13:49:16Z</time>
      </trkpt>
      <trkpt lat="44.154" lon="7.09303">
        <ele>759</ele>
        <time>2020-09-15T13:49:25Z</time>
      </trkpt>
      <trkpt lat="44.15387" lon="7.09331">
        <ele>758</ele>
        <time>2020-09-15T13:49:29Z</time>
      </trkpt>
      <trkpt lat="44.15367" lon="7.09361">
        <ele>758</ele>
        <time>2020-09-15T13:49:34Z</time>
      </trkpt>
      <trkpt lat="44.15338" lon="7.09386">
        <ele>755</ele>
        <time>2020-09-15T13:49:40Z</time>
      </trkpt>
      <trkpt lat="44.15301" lon="7.09394">
        <ele>753</ele>
        <time>2020-09-15T13:49:47Z</time>
      </trkpt>
      <trkpt lat="44.15263" lon="7.09392">
        <ele>754</ele>
        <time>2020-09-15T13:49:54Z</time>
      </trkpt>
      <trkpt lat="44.15226" lon="7.09393">
        <ele>756</ele>
        <time>2020-09-15T13:50:00Z</time>
      </trkpt>
      <trkpt lat="44.15193" lon="7.09407">
        <ele>754</ele>
        <time>2020-09-15T13:50:06Z</time>
      </trkpt>
      <trkpt lat="44.1516" lon="7.09437">
        <ele>753</ele>
        <time>2020-09-15T13:50:13Z</time>
      </trkpt>
      <trkpt lat="44.1511" lon="7.09509">
        <ele>755</ele>
        <time>2020-09-15T13:50:26Z</time>
      </trkpt>
      <trkpt lat="44.15063" lon="7.09591">
        <ele>753</ele>
        <time>2020-09-15T13:50:39Z</time>
      </trkpt>
      <trkpt lat="44.1503" lon="7.09625">
        <ele>757</ele>
        <time>2020-09-15T13:50:47Z</time>
      </trkpt>
      <trkpt lat="44.14995" lon="7.0965">
        <ele>751</ele>
        <time>2020-09-15T13:50:54Z</time>
      </trkpt>
      <trkpt lat="44.14961" lon="7.0966">
        <ele>746</ele>
        <time>2020-09-15T13:51:00Z</time>
      </trkpt>
      <trkpt lat="44.14927" lon="7.09659">
        <ele>747</ele>
        <time>2020-09-15T13:51:06Z</time>
      </trkpt>
      <trkpt lat="44.14861" lon="7.09643">
        <ele>744</ele>
        <time>2020-09-15T13:51:18Z</time>
      </trkpt>
      <trkpt lat="44.14786" lon="7.0963">
        <ele>748</ele>
        <time>2020-09-15T13:51:31Z</time>
      </trkpt>
      <trkpt lat="44.14756" lon="7.09633">
        <ele>748</ele>
        <time>2020-09-15T13:51:37Z</time>
      </trkpt>
      <trkpt lat="44.14655" lon="7.09688">
        <ele>748</ele>
        <time>2020-09-15T13:51:56Z</time>
      </trkpt>
      <trkpt lat="44.14631" lon="7.09707">
        <ele>749</ele>
        <time>2020-09-15T13:52:01Z</time>
      </trkpt>
      <trkpt lat="44.14602" lon="7.09748">
        <ele>736</ele>
        <time>2020-09-15T13:52:08Z</time>
      </trkpt>
      <trkpt lat="44.14576" lon="7.09775">
        <ele>734</ele>
        <time>2020-09-15T13:52:14Z</time>
      </trkpt>
      <trkpt lat="44.14537" lon="7.09801">
        <ele>729</ele>
        <time>2020-09-15T13:52:22Z</time>
      </trkpt>
      <trkpt lat="44.14515" lon="7.09808">
        <ele>727</ele>
        <time>2020-09-15T13:52:26Z</time>
      </trkpt>
      <trkpt lat="44.14451" lon="7.09798">
        <ele>732</ele>
        <time>2020-09-15T13:52:37Z</time>
      </trkpt>
      <trkpt lat="44.14385" lon="7.09774">
        <ele>740</ele>
        <time>2020-09-15T13:52:49Z</time>
      </trkpt>
      <trkpt lat="44.14335" lon="7.0976">
        <ele>740</ele>
        <time>2020-09-15T13:52:58Z</time>
      </trkpt>
      <trkpt lat="44.14306" lon="7.09763">
        <ele>739</ele>
        <time>2020-09-15T13:53:04Z</time>
      </trkpt>
      <trkpt lat="44.1428" lon="7.0977">
        <ele>738</ele>
        <time>2020-09-15T13:53:08Z</time>
      </trkpt>
      <trkpt lat="44.1419" lon="7.09829">
        <ele>729</ele>
        <time>2020-09-15T13:53:26Z</time>
      </trkpt>
      <trkpt lat="44.14098" lon="7.0986">
        <ele>731</ele>
        <time>2020-09-15T13:53:43Z</time>
      </trkpt>
      <trkpt lat="44.14041" lon="7.09856">
        <ele>737</ele>
        <time>2020-09-15T13:53:53Z</time>
      </trkpt>
      <trkpt lat="44.14022" lon="7.09861">
        <ele>737</ele>
        <time>2020-09-15T13:53:56Z</time>
      </trkpt>
      <trkpt lat="44.13922" lon="7.09937">
        <ele>730</ele>
        <time>2020-09-15T13:54:17Z</time>
      </trkpt>
      <trkpt lat="44.13861" lon="7.09992">
        <ele>724</ele>
        <time>2020-09-15T13:54:30Z</time>
      </trkpt>
      <trkpt lat="44.13835" lon="7.10012">
        <ele>721</ele>
        <time>2020-09-15T13:54:35Z</time>
      </trkpt>
      <trkpt lat="44.13819" lon="7.10018">
        <ele>721</ele>
        <time>2020-09-15T13:54:38Z</time>
      </trkpt>
      <trkpt lat="44.13806" lon="7.10018">
        <ele>722</ele>
        <time>2020-09-15T13:54:40Z</time>
      </trkpt>
      <trkpt lat="44.13793" lon="7.10021">
        <ele>722</ele>
        <time>2020-09-15T13:54:43Z</time>
      </trkpt>
      <trkpt lat="44.1371" lon="7.10002">
        <ele>726</ele>
        <time>2020-09-15T13:54:57Z</time>
      </trkpt>
      <trkpt lat="44.13685" lon="7.09993">
        <ele>730</ele>
        <time>2020-09-15T13:55:02Z</time>
      </trkpt>
      <trkpt lat="44.13654" lon="7.09991">
        <ele>729</ele>
        <time>2020-09-15T13:55:08Z</time>
      </trkpt>
      <trkpt lat="44.13624" lon="7.09998">
        <ele>723</ele>
        <time>2020-09-15T13:55:13Z</time>
      </trkpt>
      <trkpt lat="44.1359" lon="7.10011">
        <ele>719</ele>
        <time>2020-09-15T13:55:19Z</time>
      </trkpt>
      <trkpt lat="44.13526" lon="7.10048">
        <ele>715</ele>
        <time>2020-09-15T13:55:32Z</time>
      </trkpt>
      <trkpt lat="44.13341" lon="7.10094">
        <ele>705</ele>
        <time>2020-09-15T13:56:05Z</time>
      </trkpt>
      <trkpt lat="44.1331" lon="7.10101">
        <ele>706</ele>
        <time>2020-09-15T13:56:11Z</time>
      </trkpt>
      <trkpt lat="44.13283" lon="7.101">
        <ele>707</ele>
        <time>2020-09-15T13:56:15Z</time>
      </trkpt>
      <trkpt lat="44.13251" lon="7.1009">
        <ele>704</ele>
        <time>2020-09-15T13:56:21Z</time>
      </trkpt>
      <trkpt lat="44.13218" lon="7.10072">
        <ele>700</ele>
        <time>2020-09-15T13:56:28Z</time>
      </trkpt>
      <trkpt lat="44.13186" lon="7.10047">
        <ele>702</ele>
        <time>2020-09-15T13:56:34Z</time>
      </trkpt>
      <trkpt lat="44.13134" lon="7.10026">
        <ele>698</ele>
        <time>2020-09-15T13:56:44Z</time>
      </trkpt>
      <trkpt lat="44.13092" lon="7.10023">
        <ele>690</ele>
        <time>2020-09-15T13:56:51Z</time>
      </trkpt>
      <trkpt lat="44.13049" lon="7.10009">
        <ele>686</ele>
        <time>2020-09-15T13:56:59Z</time>
      </trkpt>
      <trkpt lat="44.13013" lon="7.09987">
        <ele>685</ele>
        <time>2020-09-15T13:57:06Z</time>
      </trkpt>
      <trkpt lat="44.12974" lon="7.0994">
        <ele>686</ele>
        <time>2020-09-15T13:57:15Z</time>
      </trkpt>
      <trkpt lat="44.12892" lon="7.09776">
        <ele>696</ele>
        <time>2020-09-15T13:57:41Z</time>
      </trkpt>
      <trkpt lat="44.12854" lon="7.09723">
        <ele>692</ele>
        <time>2020-09-15T13:57:50Z</time>
      </trkpt>
      <trkpt lat="44.12779" lon="7.09643">
        <ele>689</ele>
        <time>2020-09-15T13:58:07Z</time>
      </trkpt>
      <trkpt lat="44.12767" lon="7.09628">
        <ele>686</ele>
        <time>2020-09-15T13:58:10Z</time>
      </trkpt>
      <trkpt lat="44.12759" lon="7.09612">
        <ele>681</ele>
        <time>2020-09-15T13:58:12Z</time>
      </trkpt>
      <trkpt lat="44.12716" lon="7.09492">
        <ele>680</ele>
        <time>2020-09-15T13:58:30Z</time>
      </trkpt>
      <trkpt lat="44.12703" lon="7.0947">
        <ele>684</ele>
        <time>2020-09-15T13:58:33Z</time>
      </trkpt>
      <trkpt lat="44.12682" lon="7.09441">
        <ele>679</ele>
        <time>2020-09-15T13:58:39Z</time>
      </trkpt>
      <trkpt lat="44.12653" lon="7.09416">
        <ele>670</ele>
        <time>2020-09-15T13:58:45Z</time>
      </trkpt>
      <trkpt lat="44.1257" lon="7.09376">
        <ele>671</ele>
        <time>2020-09-15T13:59:00Z</time>
      </trkpt>
      <trkpt lat="44.12534" lon="7.09355">
        <ele>675</ele>
        <time>2020-09-15T13:59:07Z</time>
      </trkpt>
      <trkpt lat="44.12516" lon="7.09338">
        <ele>671</ele>
        <time>2020-09-15T13:59:11Z</time>
      </trkpt>
      <trkpt lat="44.12452" lon="7.09265">
        <ele>661</ele>
        <time>2020-09-15T13:59:26Z</time>
      </trkpt>
      <trkpt lat="44.12438" lon="7.09253">
        <ele>656</ele>
        <time>2020-09-15T13:59:29Z</time>
      </trkpt>
      <trkpt lat="44.12425" lon="7.09243">
        <ele>655</ele>
        <time>2020-09-15T13:59:31Z</time>
      </trkpt>
      <trkpt lat="44.12398" lon="7.09229">
        <ele>658</ele>
        <time>2020-09-15T13:59:36Z</time>
      </trkpt>
      <trkpt lat="44.12385" lon="7.09225">
        <ele>660</ele>
        <time>2020-09-15T13:59:39Z</time>
      </trkpt>
      <trkpt lat="44.12216" lon="7.09188">
        <ele>667</ele>
        <time>2020-09-15T14:00:09Z</time>
      </trkpt>
      <trkpt lat="44.12001" lon="7.0921">
        <ele>658</ele>
        <time>2020-09-15T14:00:48Z</time>
      </trkpt>
      <trkpt lat="44.11979" lon="7.09214">
        <ele>657</ele>
        <time>2020-09-15T14:00:52Z</time>
      </trkpt>
      <trkpt lat="44.11814" lon="7.09274">
        <ele>661</ele>
        <time>2020-09-15T14:01:22Z</time>
      </trkpt>
      <trkpt lat="44.11786" lon="7.09271">
        <ele>656</ele>
        <time>2020-09-15T14:01:27Z</time>
      </trkpt>
      <trkpt lat="44.11737" lon="7.09251">
        <ele>643</ele>
        <time>2020-09-15T14:01:36Z</time>
      </trkpt>
      <trkpt lat="44.11688" lon="7.09238">
        <ele>640</ele>
        <time>2020-09-15T14:01:45Z</time>
      </trkpt>
      <trkpt lat="44.1166" lon="7.09238">
        <ele>639</ele>
        <time>2020-09-15T14:01:50Z</time>
      </trkpt>
      <trkpt lat="44.11624" lon="7.09262">
        <ele>639</ele>
        <time>2020-09-15T14:01:57Z</time>
      </trkpt>
      <trkpt lat="44.11589" lon="7.09329">
        <ele>646</ele>
        <time>2020-09-15T14:02:08Z</time>
      </trkpt>
      <trkpt lat="44.11509" lon="7.09514">
        <ele>649</ele>
        <time>2020-09-15T14:02:35Z</time>
      </trkpt>
      <trkpt lat="44.11428" lon="7.096">
        <ele>641</ele>
        <time>2020-09-15T14:02:53Z</time>
      </trkpt>
      <trkpt lat="44.11352" lon="7.09642">
        <ele>636</ele>
        <time>2020-09-15T14:03:08Z</time>
      </trkpt>
      <trkpt lat="44.11312" lon="7.09676">
        <ele>636</ele>
        <time>2020-09-15T14:03:16Z</time>
      </trkpt>
      <trkpt lat="44.11267" lon="7.09721">
        <ele>646</ele>
        <time>2020-09-15T14:03:26Z</time>
      </trkpt>
      <trkpt lat="44.11129" lon="7.09765">
        <ele>629</ele>
        <time>2020-09-15T14:03:51Z</time>
      </trkpt>
      <trkpt lat="44.11083" lon="7.09822">
        <ele>626</ele>
        <time>2020-09-15T14:04:02Z</time>
      </trkpt>
      <trkpt lat="44.1104" lon="7.0987">
        <ele>625</ele>
        <time>2020-09-15T14:04:12Z</time>
      </trkpt>
      <trkpt lat="44.10963" lon="7.10011">
        <ele>625</ele>
        <time>2020-09-15T14:04:35Z</time>
      </trkpt>
      <trkpt lat="44.10924" lon="7.10098">
        <ele>622</ele>
        <time>2020-09-15T14:04:48Z</time>
      </trkpt>
      <trkpt lat="44.10886" lon="7.10161">
        <ele>623</ele>
        <time>2020-09-15T14:04:58Z</time>
      </trkpt>
      <trkpt lat="44.10842" lon="7.10193">
        <ele>626</ele>
        <time>2020-09-15T14:05:07Z</time>
      </trkpt>
      <trkpt lat="44.10784" lon="7.10205">
        <ele>623</ele>
        <time>2020-09-15T14:05:17Z</time>
      </trkpt>
      <trkpt lat="44.10669" lon="7.10211">
        <ele>626</ele>
        <time>2020-09-15T14:05:38Z</time>
      </trkpt>
      <trkpt lat="44.10615" lon="7.10192">
        <ele>613</ele>
        <time>2020-09-15T14:05:48Z</time>
      </trkpt>
      <trkpt lat="44.10586" lon="7.10189">
        <ele>611</ele>
        <time>2020-09-15T14:05:53Z</time>
      </trkpt>
      <trkpt lat="44.10495" lon="7.10209">
        <ele>613</ele>
        <time>2020-09-15T14:06:09Z</time>
      </trkpt>
      <trkpt lat="44.10442" lon="7.10224">
        <ele>608</ele>
        <time>2020-09-15T14:06:19Z</time>
      </trkpt>
      <trkpt lat="44.10381" lon="7.1026">
        <ele>611</ele>
        <time>2020-09-15T14:06:31Z</time>
      </trkpt>
      <trkpt lat="44.10241" lon="7.103">
        <ele>610</ele>
        <time>2020-09-15T14:06:56Z</time>
      </trkpt>
      <trkpt lat="44.10082" lon="7.10337">
        <ele>608</ele>
        <time>2020-09-15T14:07:25Z</time>
      </trkpt>
      <trkpt lat="44.10012" lon="7.10347">
        <ele>600</ele>
        <time>2020-09-15T14:07:37Z</time>
      </trkpt>
      <trkpt lat="44.09954" lon="7.10367">
        <ele>603</ele>
        <time>2020-09-15T14:07:48Z</time>
      </trkpt>
      <trkpt lat="44.09856" lon="7.10369">
        <ele>581</ele>
        <time>2020-09-15T14:08:06Z</time>
      </trkpt>
      <trkpt lat="44.09837" lon="7.10377">
        <ele>579</ele>
        <time>2020-09-15T14:08:09Z</time>
      </trkpt>
      <trkpt lat="44.09754" lon="7.10458">
        <ele>592</ele>
        <time>2020-09-15T14:08:27Z</time>
      </trkpt>
      <trkpt lat="44.09653" lon="7.10497">
        <ele>569</ele>
        <time>2020-09-15T14:08:46Z</time>
      </trkpt>
      <trkpt lat="44.09641" lon="7.10509">
        <ele>570</ele>
        <time>2020-09-15T14:08:48Z</time>
      </trkpt>
      <trkpt lat="44.09616" lon="7.10567">
        <ele>583</ele>
        <time>2020-09-15T14:08:57Z</time>
      </trkpt>
      <trkpt lat="44.09607" lon="7.10581">
        <ele>583</ele>
        <time>2020-09-15T14:08:59Z</time>
      </trkpt>
      <trkpt lat="44.09546" lon="7.10624">
        <ele>584</ele>
        <time>2020-09-15T14:09:12Z</time>
      </trkpt>
      <trkpt lat="44.09521" lon="7.10632">
        <ele>583</ele>
        <time>2020-09-15T14:09:16Z</time>
      </trkpt>
      <trkpt lat="44.09483" lon="7.1063">
        <ele>575</ele>
        <time>2020-09-15T14:09:23Z</time>
      </trkpt>
      <trkpt lat="44.09326" lon="7.10665">
        <ele>557</ele>
        <time>2020-09-15T14:09:51Z</time>
      </trkpt>
      <trkpt lat="44.09121" lon="7.10763">
        <ele>548</ele>
        <time>2020-09-15T14:10:30Z</time>
      </trkpt>
      <trkpt lat="44.09105" lon="7.10778">
        <ele>553</ele>
        <time>2020-09-15T14:10:33Z</time>
      </trkpt>
      <trkpt lat="44.09093" lon="7.10784">
        <ele>553</ele>
        <time>2020-09-15T14:10:35Z</time>
      </trkpt>
      <trkpt lat="44.09078" lon="7.10783">
        <ele>552</ele>
        <time>2020-09-15T14:10:38Z</time>
      </trkpt>
      <trkpt lat="44.09033" lon="7.1075">
        <ele>543</ele>
        <time>2020-09-15T14:10:47Z</time>
      </trkpt>
      <trkpt lat="44.09017" lon="7.10732">
        <ele>543</ele>
        <time>2020-09-15T14:10:51Z</time>
      </trkpt>
      <trkpt lat="44.08995" lon="7.1073">
        <ele>545</ele>
        <time>2020-09-15T14:10:55Z</time>
      </trkpt>
      <trkpt lat="44.08911" lon="7.10753">
        <ele>538</ele>
        <time>2020-09-15T14:11:10Z</time>
      </trkpt>
      <trkpt lat="44.08894" lon="7.10758">
        <ele>540</ele>
        <time>2020-09-15T14:11:13Z</time>
      </trkpt>
      <trkpt lat="44.0887" lon="7.10758">
        <ele>539</ele>
        <time>2020-09-15T14:11:17Z</time>
      </trkpt>
      <trkpt lat="44.08834" lon="7.10757">
        <ele>537</ele>
        <time>2020-09-15T14:11:24Z</time>
      </trkpt>
      <trkpt lat="44.08788" lon="7.10743">
        <ele>542</ele>
        <time>2020-09-15T14:11:32Z</time>
      </trkpt>
      <trkpt lat="44.08763" lon="7.1072">
        <ele>538</ele>
        <time>2020-09-15T14:11:37Z</time>
      </trkpt>
      <trkpt lat="44.08738" lon="7.10687">
        <ele>532</ele>
        <time>2020-09-15T14:11:44Z</time>
      </trkpt>
      <trkpt lat="44.08723" lon="7.10653">
        <ele>525</ele>
        <time>2020-09-15T14:11:49Z</time>
      </trkpt>
      <trkpt lat="44.08705" lon="7.10621">
        <ele>519</ele>
        <time>2020-09-15T14:11:54Z</time>
      </trkpt>
      <trkpt lat="44.08684" lon="7.10612">
        <ele>519</ele>
        <time>2020-09-15T14:11:58Z</time>
      </trkpt>
      <trkpt lat="44.08665" lon="7.10611">
        <ele>522</ele>
        <time>2020-09-15T14:12:01Z</time>
      </trkpt>
      <trkpt lat="44.08616" lon="7.10615">
        <ele>519</ele>
        <time>2020-09-15T14:12:10Z</time>
      </trkpt>
      <trkpt lat="44.08595" lon="7.10615">
        <ele>516</ele>
        <time>2020-09-15T14:12:14Z</time>
      </trkpt>
      <trkpt lat="44.08562" lon="7.10629">
        <ele>520</ele>
        <time>2020-09-15T14:12:20Z</time>
      </trkpt>
      <trkpt lat="44.08547" lon="7.10632">
        <ele>518</ele>
        <time>2020-09-15T14:12:22Z</time>
      </trkpt>
      <trkpt lat="44.08517" lon="7.10629">
        <ele>512</ele>
        <time>2020-09-15T14:12:28Z</time>
      </trkpt>
      <trkpt lat="44.08477" lon="7.10631">
        <ele>517</ele>
        <time>2020-09-15T14:12:35Z</time>
      </trkpt>
      <trkpt lat="44.08461" lon="7.10628">
        <ele>521</ele>
        <time>2020-09-15T14:12:38Z</time>
      </trkpt>
      <trkpt lat="44.08451" lon="7.10619">
        <ele>520</ele>
        <time>2020-09-15T14:12:40Z</time>
      </trkpt>
      <trkpt lat="44.08442" lon="7.10602">
        <ele>514</ele>
        <time>2020-09-15T14:12:43Z</time>
      </trkpt>
      <trkpt lat="44.08433" lon="7.10562">
        <ele>504</ele>
        <time>2020-09-15T14:12:48Z</time>
      </trkpt>
      <trkpt lat="44.08425" lon="7.10549">
        <ele>502</ele>
        <time>2020-09-15T14:12:50Z</time>
      </trkpt>
      <trkpt lat="44.0842" lon="7.10541">
        <ele>501</ele>
        <time>2020-09-15T14:12:52Z</time>
      </trkpt>
      <trkpt lat="44.08413" lon="7.10512">
        <ele>496</ele>
        <time>2020-09-15T14:12:55Z</time>
      </trkpt>
      <trkpt lat="44.08405" lon="7.10494">
        <ele>492</ele>
        <time>2020-09-15T14:12:58Z</time>
      </trkpt>
      <trkpt lat="44.08407" lon="7.10493">
        <ele>492</ele>
        <time>2020-09-15T14:12:59Z</time>
      </trkpt>
      <trkpt lat="44.0842" lon="7.10518">
        <ele>497</ele>
        <time>2020-09-15T14:13:02Z</time>
      </trkpt>
      <trkpt lat="44.08424" lon="7.10531">
        <ele>499</ele>
        <time>2020-09-15T14:13:04Z</time>
      </trkpt>
      <trkpt lat="44.08436" lon="7.10547">
        <ele>500</ele>
        <time>2020-09-15T14:13:07Z</time>
      </trkpt>
      <trkpt lat="44.08441" lon="7.10549">
        <ele>500</ele>
        <time>2020-09-15T14:13:08Z</time>
      </trkpt>
      <trkpt lat="44.08445" lon="7.10549">
        <ele>500</ele>
        <time>2020-09-15T14:13:09Z</time>
      </trkpt>
      <trkpt lat="44.08448" lon="7.10548">
        <ele>499</ele>
        <time>2020-09-15T14:13:09Z</time>
      </trkpt>
      <trkpt lat="44.08468" lon="7.10539">
        <ele>495</ele>
        <time>2020-09-15T14:13:13Z</time>
      </trkpt>
      <trkpt lat="44.08448" lon="7.10548">
        <ele>499</ele>
        <time>2020-09-15T14:13:17Z</time>
      </trkpt>
      <trkpt lat="44.08445" lon="7.10549">
        <ele>500</ele>
        <time>2020-09-15T14:13:17Z</time>
      </trkpt>
      <trkpt lat="44.08441" lon="7.10549">
        <ele>500</ele>
        <time>2020-09-15T14:13:18Z</time>
      </trkpt>
      <trkpt lat="44.08436" lon="7.10547">
        <ele>500</ele>
        <time>2020-09-15T14:13:19Z</time>
      </trkpt>
      <trkpt lat="44.08424" lon="7.10531">
        <ele>499</ele>
        <time>2020-09-15T14:13:22Z</time>
      </trkpt>
      <trkpt lat="44.0842" lon="7.10518">
        <ele>497</ele>
        <time>2020-09-15T14:13:24Z</time>
      </trkpt>
      <trkpt lat="44.08407" lon="7.10493">
        <ele>492</ele>
        <time>2020-09-15T14:13:28Z</time>
      </trkpt>
      <trkpt lat="44.08405" lon="7.10494">
        <ele>492</ele>
        <time>2020-09-15T14:13:28Z</time>
      </trkpt>
      <trkpt lat="44.08401" lon="7.1049">
        <ele>492</ele>
        <time>2020-09-15T14:13:29Z</time>
      </trkpt>
      <trkpt lat="44.08393" lon="7.10488">
        <ele>492</ele>
        <time>2020-09-15T14:13:31Z</time>
      </trkpt>
      <trkpt lat="44.08384" lon="7.1049">
        <ele>492</ele>
        <time>2020-09-15T14:13:32Z</time>
      </trkpt>
      <trkpt lat="44.0838" lon="7.10493">
        <ele>492</ele>
        <time>2020-09-15T14:13:33Z</time>
      </trkpt>
      <trkpt lat="44.08366" lon="7.10504">
        <ele>494</ele>
        <time>2020-09-15T14:13:36Z</time>
      </trkpt>
      <trkpt lat="44.08363" lon="7.10506">
        <ele>494</ele>
        <time>2020-09-15T14:13:36Z</time>
      </trkpt>
      <trkpt lat="44.08351" lon="7.10516">
        <ele>496</ele>
        <time>2020-09-15T14:13:39Z</time>
      </trkpt>
      <trkpt lat="44.08339" lon="7.10525">
        <ele>497</ele>
        <time>2020-09-15T14:13:41Z</time>
      </trkpt>
      <trkpt lat="44.08337" lon="7.10527">
        <ele>497</ele>
        <time>2020-09-15T14:13:42Z</time>
      </trkpt>
      <trkpt lat="44.08322" lon="7.10539">
        <ele>497</ele>
        <time>2020-09-15T14:13:45Z</time>
      </trkpt>
      <trkpt lat="44.08319" lon="7.10541">
        <ele>497</ele>
        <time>2020-09-15T14:13:45Z</time>
      </trkpt>
      <trkpt lat="44.08293" lon="7.10561">
        <ele>496</ele>
        <time>2020-09-15T14:13:51Z</time>
      </trkpt>
      <trkpt lat="44.08289" lon="7.10564">
        <ele>496</ele>
        <time>2020-09-15T14:13:52Z</time>
      </trkpt>
      <trkpt lat="44.08287" lon="7.10566">
        <ele>496</ele>
        <time>2020-09-15T14:13:52Z</time>
      </trkpt>
      <trkpt lat="44.08264" lon="7.10583">
        <ele>495</ele>
        <time>2020-09-15T14:13:57Z</time>
      </trkpt>
      <trkpt lat="44.08261" lon="7.10586">
        <ele>495</ele>
        <time>2020-09-15T14:13:57Z</time>
      </trkpt>
      <trkpt lat="44.08246" lon="7.10597">
        <ele>495</ele>
        <time>2020-09-15T14:14:00Z</time>
      </trkpt>
      <trkpt lat="44.0823" lon="7.1061">
        <ele>496</ele>
        <time>2020-09-15T14:14:04Z</time>
      </trkpt>
      <trkpt lat="44.08227" lon="7.10612">
        <ele>496</ele>
        <time>2020-09-15T14:14:04Z</time>
      </trkpt>
      <trkpt lat="44.08226" lon="7.10613">
        <ele>497</ele>
        <time>2020-09-15T14:14:04Z</time>
      </trkpt>
      <trkpt lat="44.08217" lon="7.10621">
        <ele>498</ele>
        <time>2020-09-15T14:14:06Z</time>
      </trkpt>
      <trkpt lat="44.08173" lon="7.10652">
        <ele>503</ele>
        <time>2020-09-15T14:14:15Z</time>
      </trkpt>
      <trkpt lat="44.08118" lon="7.10685">
        <ele>512</ele>
        <time>2020-09-15T14:14:26Z</time>
      </trkpt>
      <trkpt lat="44.08102" lon="7.10687">
        <ele>512</ele>
        <time>2020-09-15T14:14:29Z</time>
      </trkpt>
      <trkpt lat="44.08048" lon="7.10667">
        <ele>522</ele>
        <time>2020-09-15T14:14:38Z</time>
      </trkpt>
      <trkpt lat="44.08025" lon="7.1064">
        <ele>522</ele>
        <time>2020-09-15T14:14:44Z</time>
      </trkpt>
      <trkpt lat="44.07988" lon="7.10553">
        <ele>499</ele>
        <time>2020-09-15T14:14:57Z</time>
      </trkpt>
      <trkpt lat="44.07974" lon="7.10537">
        <ele>499</ele>
        <time>2020-09-15T14:15:00Z</time>
      </trkpt>
      <trkpt lat="44.07959" lon="7.1053">
        <ele>501</ele>
        <time>2020-09-15T14:15:03Z</time>
      </trkpt>
      <trkpt lat="44.07912" lon="7.10513">
        <ele>502</ele>
        <time>2020-09-15T14:15:11Z</time>
      </trkpt>
      <trkpt lat="44.07884" lon="7.10512">
        <ele>501</ele>
        <time>2020-09-15T14:15:16Z</time>
      </trkpt>
      <trkpt lat="44.0785" lon="7.10506">
        <ele>495</ele>
        <time>2020-09-15T14:15:23Z</time>
      </trkpt>
      <trkpt lat="44.07822" lon="7.10492">
        <ele>487</ele>
        <time>2020-09-15T14:15:28Z</time>
      </trkpt>
      <trkpt lat="44.07797" lon="7.10483">
        <ele>483</ele>
        <time>2020-09-15T14:15:32Z</time>
      </trkpt>
      <trkpt lat="44.07784" lon="7.10484">
        <ele>482</ele>
        <time>2020-09-15T14:15:35Z</time>
      </trkpt>
      <trkpt lat="44.07771" lon="7.10492">
        <ele>481</ele>
        <time>2020-09-15T14:15:37Z</time>
      </trkpt>
      <trkpt lat="44.07748" lon="7.10516">
        <ele>485</ele>
        <time>2020-09-15T14:15:42Z</time>
      </trkpt>
      <trkpt lat="44.07731" lon="7.10539">
        <ele>489</ele>
        <time>2020-09-15T14:15:47Z</time>
      </trkpt>
      <trkpt lat="44.077" lon="7.10618">
        <ele>497</ele>
        <time>2020-09-15T14:15:58Z</time>
      </trkpt>
      <trkpt lat="44.07686" lon="7.10647">
        <ele>496</ele>
        <time>2020-09-15T14:16:03Z</time>
      </trkpt>
      <trkpt lat="44.07646" lon="7.10706">
        <ele>495</ele>
        <time>2020-09-15T14:16:13Z</time>
      </trkpt>
      <trkpt lat="44.07596" lon="7.10773">
        <ele>494</ele>
        <time>2020-09-15T14:16:25Z</time>
      </trkpt>
      <trkpt lat="44.07553" lon="7.10811">
        <ele>494</ele>
        <time>2020-09-15T14:16:34Z</time>
      </trkpt>
      <trkpt lat="44.07491" lon="7.1086">
        <ele>488</ele>
        <time>2020-09-15T14:16:47Z</time>
      </trkpt>
      <trkpt lat="44.07459" lon="7.10894">
        <ele>493</ele>
        <time>2020-09-15T14:16:54Z</time>
      </trkpt>
      <trkpt lat="44.07431" lon="7.10912">
        <ele>489</ele>
        <time>2020-09-15T14:17:00Z</time>
      </trkpt>
      <trkpt lat="44.07371" lon="7.10943">
        <ele>483</ele>
        <time>2020-09-15T14:17:11Z</time>
      </trkpt>
      <trkpt lat="44.07346" lon="7.10954">
        <ele>480</ele>
        <time>2020-09-15T14:17:16Z</time>
      </trkpt>
      <trkpt lat="44.07299" lon="7.10965">
        <ele>480</ele>
        <time>2020-09-15T14:17:24Z</time>
      </trkpt>
      <trkpt lat="44.07242" lon="7.10965">
        <ele>482</ele>
        <time>2020-09-15T14:17:34Z</time>
      </trkpt>
      <trkpt lat="44.07151" lon="7.10954">
        <ele>477</ele>
        <time>2020-09-15T14:17:51Z</time>
      </trkpt>
      <trkpt lat="44.07125" lon="7.10957">
        <ele>475</ele>
        <time>2020-09-15T14:17:55Z</time>
      </trkpt>
      <trkpt lat="44.07055" lon="7.11022">
        <ele>490</ele>
        <time>2020-09-15T14:18:10Z</time>
      </trkpt>
      <trkpt lat="44.06977" lon="7.11076">
        <ele>482</ele>
        <time>2020-09-15T14:18:26Z</time>
      </trkpt>
      <trkpt lat="44.06943" lon="7.11126">
        <ele>491</ele>
        <time>2020-09-15T14:18:35Z</time>
      </trkpt>
      <trkpt lat="44.06894" lon="7.11166">
        <ele>483</ele>
        <time>2020-09-15T14:18:45Z</time>
      </trkpt>
      <trkpt lat="44.06876" lon="7.11187">
        <ele>481</ele>
        <time>2020-09-15T14:18:49Z</time>
      </trkpt>
      <trkpt lat="44.06849" lon="7.1131">
        <ele>488</ele>
        <time>2020-09-15T14:19:05Z</time>
      </trkpt>
      <trkpt lat="44.06822" lon="7.11405">
        <ele>494</ele>
        <time>2020-09-15T14:19:18Z</time>
      </trkpt>
      <trkpt lat="44.06807" lon="7.11423">
        <ele>493</ele>
        <time>2020-09-15T14:19:22Z</time>
      </trkpt>
      <trkpt lat="44.06716" lon="7.11477">
        <ele>494</ele>
        <time>2020-09-15T14:19:39Z</time>
      </trkpt>
      <trkpt lat="44.06672" lon="7.11477">
        <ele>489</ele>
        <time>2020-09-15T14:19:47Z</time>
      </trkpt>
      <trkpt lat="44.06645" lon="7.11495">
        <ele>496</ele>
        <time>2020-09-15T14:19:53Z</time>
      </trkpt>
      <trkpt lat="44.0663" lon="7.11491">
        <ele>492</ele>
        <time>2020-09-15T14:19:55Z</time>
      </trkpt>
      <trkpt lat="44.06596" lon="7.11459">
        <ele>474</ele>
        <time>2020-09-15T14:20:03Z</time>
      </trkpt>
      <trkpt lat="44.06552" lon="7.11442">
        <ele>462</ele>
        <time>2020-09-15T14:20:11Z</time>
      </trkpt>
      <trkpt lat="44.06532" lon="7.11448">
        <ele>462</ele>
        <time>2020-09-15T14:20:14Z</time>
      </trkpt>
      <trkpt lat="44.06523" lon="7.11457">
        <ele>463</ele>
        <time>2020-09-15T14:20:16Z</time>
      </trkpt>
      <trkpt lat="44.06513" lon="7.11475">
        <ele>465</ele>
        <time>2020-09-15T14:20:19Z</time>
      </trkpt>
      <trkpt lat="44.06497" lon="7.11534">
        <ele>475</ele>
        <time>2020-09-15T14:20:27Z</time>
      </trkpt>
      <trkpt lat="44.06484" lon="7.11557">
        <ele>475</ele>
        <time>2020-09-15T14:20:31Z</time>
      </trkpt>
      <trkpt lat="44.06472" lon="7.11599">
        <ele>478</ele>
        <time>2020-09-15T14:20:37Z</time>
      </trkpt>
      <trkpt lat="44.06459" lon="7.11632">
        <ele>478</ele>
        <time>2020-09-15T14:20:42Z</time>
      </trkpt>
      <trkpt lat="44.0646" lon="7.11673">
        <ele>486</ele>
        <time>2020-09-15T14:20:47Z</time>
      </trkpt>
      <trkpt lat="44.06458" lon="7.11703">
        <ele>493</ele>
        <time>2020-09-15T14:20:51Z</time>
      </trkpt>
      <trkpt lat="44.06446" lon="7.11718">
        <ele>494</ele>
        <time>2020-09-15T14:20:54Z</time>
      </trkpt>
      <trkpt lat="44.06433" lon="7.11725">
        <ele>492</ele>
        <time>2020-09-15T14:20:56Z</time>
      </trkpt>
      <trkpt lat="44.0637" lon="7.11709">
        <ele>479</ele>
        <time>2020-09-15T14:21:08Z</time>
      </trkpt>
      <trkpt lat="44.0634" lon="7.11717">
        <ele>483</ele>
        <time>2020-09-15T14:21:13Z</time>
      </trkpt>
      <trkpt lat="44.06302" lon="7.11718">
        <ele>478</ele>
        <time>2020-09-15T14:21:20Z</time>
      </trkpt>
      <trkpt lat="44.06275" lon="7.11702">
        <ele>467</ele>
        <time>2020-09-15T14:21:25Z</time>
      </trkpt>
      <trkpt lat="44.06263" lon="7.11703">
        <ele>466</ele>
        <time>2020-09-15T14:21:27Z</time>
      </trkpt>
      <trkpt lat="44.06256" lon="7.11709">
        <ele>467</ele>
        <time>2020-09-15T14:21:29Z</time>
      </trkpt>
      <trkpt lat="44.06241" lon="7.11741">
        <ele>475</ele>
        <time>2020-09-15T14:21:33Z</time>
      </trkpt>
      <trkpt lat="44.06211" lon="7.1179">
        <ele>490</ele>
        <time>2020-09-15T14:21:42Z</time>
      </trkpt>
      <trkpt lat="44.06201" lon="7.11799">
        <ele>492</ele>
        <time>2020-09-15T14:21:44Z</time>
      </trkpt>
      <trkpt lat="44.06192" lon="7.118">
        <ele>489</ele>
        <time>2020-09-15T14:21:45Z</time>
      </trkpt>
      <trkpt lat="44.06167" lon="7.11794">
        <ele>478</ele>
        <time>2020-09-15T14:21:50Z</time>
      </trkpt>
      <trkpt lat="44.06155" lon="7.11794">
        <ele>480</ele>
        <time>2020-09-15T14:21:52Z</time>
      </trkpt>
      <trkpt lat="44.06129" lon="7.11805">
        <ele>492</ele>
        <time>2020-09-15T14:21:57Z</time>
      </trkpt>
      <trkpt lat="44.06117" lon="7.11804">
        <ele>493</ele>
        <time>2020-09-15T14:21:59Z</time>
      </trkpt>
      <trkpt lat="44.06091" lon="7.11776">
        <ele>480</ele>
        <time>2020-09-15T14:22:05Z</time>
      </trkpt>
      <trkpt lat="44.06073" lon="7.11769">
        <ele>475</ele>
        <time>2020-09-15T14:22:08Z</time>
      </trkpt>
      <trkpt lat="44.06037" lon="7.11767">
        <ele>469</ele>
        <time>2020-09-15T14:22:15Z</time>
      </trkpt>
      <trkpt lat="44.05995" lon="7.1177">
        <ele>464</ele>
        <time>2020-09-15T14:22:22Z</time>
      </trkpt>
      <trkpt lat="44.05983" lon="7.11786">
        <ele>471</ele>
        <time>2020-09-15T14:22:25Z</time>
      </trkpt>
      <trkpt lat="44.05971" lon="7.11804">
        <ele>479</ele>
        <time>2020-09-15T14:22:28Z</time>
      </trkpt>
      <trkpt lat="44.05948" lon="7.11827">
        <ele>485</ele>
        <time>2020-09-15T14:22:33Z</time>
      </trkpt>
      <trkpt lat="44.05916" lon="7.11827">
        <ele>475</ele>
        <time>2020-09-15T14:22:39Z</time>
      </trkpt>
      <trkpt lat="44.05882" lon="7.11854">
        <ele>486</ele>
        <time>2020-09-15T14:22:46Z</time>
      </trkpt>
      <trkpt lat="44.05858" lon="7.11869">
        <ele>494</ele>
        <time>2020-09-15T14:22:51Z</time>
      </trkpt>
      <trkpt lat="44.05839" lon="7.11864">
        <ele>487</ele>
        <time>2020-09-15T14:22:54Z</time>
      </trkpt>
      <trkpt lat="44.05798" lon="7.11835">
        <ele>462</ele>
        <time>2020-09-15T14:23:02Z</time>
      </trkpt>
      <trkpt lat="44.05778" lon="7.11843">
        <ele>467</ele>
        <time>2020-09-15T14:23:06Z</time>
      </trkpt>
      <trkpt lat="44.05767" lon="7.11849">
        <ele>471</ele>
        <time>2020-09-15T14:23:08Z</time>
      </trkpt>
      <trkpt lat="44.05754" lon="7.11863">
        <ele>480</ele>
        <time>2020-09-15T14:23:11Z</time>
      </trkpt>
      <trkpt lat="44.05743" lon="7.11887">
        <ele>496</ele>
        <time>2020-09-15T14:23:15Z</time>
      </trkpt>
      <trkpt lat="44.05728" lon="7.11897">
        <ele>499</ele>
        <time>2020-09-15T14:23:17Z</time>
      </trkpt>
      <trkpt lat="44.05712" lon="7.119">
        <ele>497</ele>
        <time>2020-09-15T14:23:20Z</time>
      </trkpt>
      <trkpt lat="44.05685" lon="7.11896">
        <ele>486</ele>
        <time>2020-09-15T14:23:25Z</time>
      </trkpt>
      <trkpt lat="44.05665" lon="7.11884">
        <ele>473</ele>
        <time>2020-09-15T14:23:29Z</time>
      </trkpt>
      <trkpt lat="44.05644" lon="7.11875">
        <ele>465</ele>
        <time>2020-09-15T14:23:33Z</time>
      </trkpt>
      <trkpt lat="44.05627" lon="7.11894">
        <ele>474</ele>
        <time>2020-09-15T14:23:37Z</time>
      </trkpt>
      <trkpt lat="44.05612" lon="7.11918">
        <ele>484</ele>
        <time>2020-09-15T14:23:41Z</time>
      </trkpt>
      <trkpt lat="44.05593" lon="7.11939">
        <ele>492</ele>
        <time>2020-09-15T14:23:45Z</time>
      </trkpt>
      <trkpt lat="44.05571" lon="7.11947">
        <ele>493</ele>
        <time>2020-09-15T14:23:49Z</time>
      </trkpt>
      <trkpt lat="44.05544" lon="7.11925">
        <ele>479</ele>
        <time>2020-09-15T14:23:55Z</time>
      </trkpt>
      <trkpt lat="44.05495" lon="7.11863">
        <ele>454</ele>
        <time>2020-09-15T14:24:07Z</time>
      </trkpt>
      <trkpt lat="44.05482" lon="7.11859">
        <ele>450</ele>
        <time>2020-09-15T14:24:09Z</time>
      </trkpt>
      <trkpt lat="44.05472" lon="7.11857">
        <ele>448</ele>
        <time>2020-09-15T14:24:11Z</time>
      </trkpt>
      <trkpt lat="44.05459" lon="7.11863">
        <ele>448</ele>
        <time>2020-09-15T14:24:13Z</time>
      </trkpt>
      <trkpt lat="44.0545" lon="7.1187">
        <ele>448</ele>
        <time>2020-09-15T14:24:15Z</time>
      </trkpt>
      <trkpt lat="44.05446" lon="7.11882">
        <ele>449</ele>
        <time>2020-09-15T14:24:17Z</time>
      </trkpt>
      <trkpt lat="44.05446" lon="7.11896">
        <ele>452</ele>
        <time>2020-09-15T14:24:19Z</time>
      </trkpt>
      <trkpt lat="44.05463" lon="7.11941">
        <ele>465</ele>
        <time>2020-09-15T14:24:25Z</time>
      </trkpt>
      <trkpt lat="44.0547" lon="7.11966">
        <ele>471</ele>
        <time>2020-09-15T14:24:28Z</time>
      </trkpt>
      <trkpt lat="44.0547" lon="7.12016">
        <ele>477</ele>
        <time>2020-09-15T14:24:35Z</time>
      </trkpt>
      <trkpt lat="44.05475" lon="7.1206">
        <ele>486</ele>
        <time>2020-09-15T14:24:41Z</time>
      </trkpt>
      <trkpt lat="44.0547" lon="7.12091">
        <ele>487</ele>
        <time>2020-09-15T14:24:45Z</time>
      </trkpt>
      <trkpt lat="44.05464" lon="7.12111">
        <ele>486</ele>
        <time>2020-09-15T14:24:47Z</time>
      </trkpt>
      <trkpt lat="44.05464" lon="7.12141">
        <ele>491</ele>
        <time>2020-09-15T14:24:51Z</time>
      </trkpt>
      <trkpt lat="44.05462" lon="7.12167">
        <ele>494</ele>
        <time>2020-09-15T14:24:55Z</time>
      </trkpt>
      <trkpt lat="44.05456" lon="7.12189">
        <ele>495</ele>
        <time>2020-09-15T14:24:58Z</time>
      </trkpt>
      <trkpt lat="44.05422" lon="7.12231">
        <ele>484</ele>
        <time>2020-09-15T14:25:06Z</time>
      </trkpt>
      <trkpt lat="44.05394" lon="7.12258">
        <ele>475</ele>
        <time>2020-09-15T14:25:12Z</time>
      </trkpt>
      <trkpt lat="44.0535" lon="7.12324">
        <ele>463</ele>
        <time>2020-09-15T14:25:23Z</time>
      </trkpt>
      <trkpt lat="44.05343" lon="7.12341">
        <ele>463</ele>
        <time>2020-09-15T14:25:26Z</time>
      </trkpt>
      <trkpt lat="44.05343" lon="7.1236">
        <ele>469</ele>
        <time>2020-09-15T14:25:28Z</time>
      </trkpt>
      <trkpt lat="44.05347" lon="7.12378">
        <ele>476</ele>
        <time>2020-09-15T14:25:31Z</time>
      </trkpt>
      <trkpt lat="44.05349" lon="7.12401">
        <ele>484</ele>
        <time>2020-09-15T14:25:34Z</time>
      </trkpt>
      <trkpt lat="44.05341" lon="7.12423">
        <ele>487</ele>
        <time>2020-09-15T14:25:37Z</time>
      </trkpt>
      <trkpt lat="44.05324" lon="7.12444">
        <ele>487</ele>
        <time>2020-09-15T14:25:41Z</time>
      </trkpt>
      <trkpt lat="44.05307" lon="7.12449">
        <ele>482</ele>
        <time>2020-09-15T14:25:44Z</time>
      </trkpt>
      <trkpt lat="44.05276" lon="7.1244">
        <ele>467</ele>
        <time>2020-09-15T14:25:49Z</time>
      </trkpt>
      <trkpt lat="44.05256" lon="7.12447">
        <ele>462</ele>
        <time>2020-09-15T14:25:53Z</time>
      </trkpt>
      <trkpt lat="44.05242" lon="7.12464">
        <ele>462</ele>
        <time>2020-09-15T14:25:56Z</time>
      </trkpt>
      <trkpt lat="44.05229" lon="7.12497">
        <ele>466</ele>
        <time>2020-09-15T14:26:01Z</time>
      </trkpt>
      <trkpt lat="44.0522" lon="7.12528">
        <ele>472</ele>
        <time>2020-09-15T14:26:06Z</time>
      </trkpt>
      <trkpt lat="44.05208" lon="7.12553">
        <ele>474</ele>
        <time>2020-09-15T14:26:09Z</time>
      </trkpt>
      <trkpt lat="44.05176" lon="7.12576">
        <ele>466</ele>
        <time>2020-09-15T14:26:16Z</time>
      </trkpt>
      <trkpt lat="44.05125" lon="7.1261">
        <ele>456</ele>
        <time>2020-09-15T14:26:26Z</time>
      </trkpt>
      <trkpt lat="44.05111" lon="7.12628">
        <ele>455</ele>
        <time>2020-09-15T14:26:29Z</time>
      </trkpt>
      <trkpt lat="44.05089" lon="7.12671">
        <ele>457</ele>
        <time>2020-09-15T14:26:36Z</time>
      </trkpt>
      <trkpt lat="44.05072" lon="7.1271">
        <ele>467</ele>
        <time>2020-09-15T14:26:42Z</time>
      </trkpt>
      <trkpt lat="44.04971" lon="7.12822">
        <ele>471</ele>
        <time>2020-09-15T14:27:05Z</time>
      </trkpt>
      <trkpt lat="44.04945" lon="7.12823">
        <ele>455</ele>
        <time>2020-09-15T14:27:09Z</time>
      </trkpt>
      <trkpt lat="44.04926" lon="7.12839">
        <ele>451</ele>
        <time>2020-09-15T14:27:13Z</time>
      </trkpt>
      <trkpt lat="44.04873" lon="7.12894">
        <ele>461</ele>
        <time>2020-09-15T14:27:25Z</time>
      </trkpt>
      <trkpt lat="44.04719" lon="7.1297">
        <ele>449</ele>
        <time>2020-09-15T14:27:54Z</time>
      </trkpt>
      <trkpt lat="44.04689" lon="7.12973">
        <ele>444</ele>
        <time>2020-09-15T14:28:00Z</time>
      </trkpt>
      <trkpt lat="44.0463" lon="7.12956">
        <ele>430</ele>
        <time>2020-09-15T14:28:10Z</time>
      </trkpt>
      <trkpt lat="44.04599" lon="7.12944">
        <ele>423</ele>
        <time>2020-09-15T14:28:16Z</time>
      </trkpt>
      <trkpt lat="44.04569" lon="7.12922">
        <ele>421</ele>
        <time>2020-09-15T14:28:22Z</time>
      </trkpt>
      <trkpt lat="44.045" lon="7.12873">
        <ele>427</ele>
        <time>2020-09-15T14:28:36Z</time>
      </trkpt>
      <trkpt lat="44.04485" lon="7.12867">
        <ele>430</ele>
        <time>2020-09-15T14:28:39Z</time>
      </trkpt>
      <trkpt lat="44.04453" lon="7.12861">
        <ele>438</ele>
        <time>2020-09-15T14:28:44Z</time>
      </trkpt>
      <trkpt lat="44.04389" lon="7.12839">
        <ele>437</ele>
        <time>2020-09-15T14:28:56Z</time>
      </trkpt>
      <trkpt lat="44.04354" lon="7.12819">
        <ele>435</ele>
        <time>2020-09-15T14:29:03Z</time>
      </trkpt>
      <trkpt lat="44.04339" lon="7.12818">
        <ele>435</ele>
        <time>2020-09-15T14:29:06Z</time>
      </trkpt>
      <trkpt lat="44.04324" lon="7.12824">
        <ele>433</ele>
        <time>2020-09-15T14:29:08Z</time>
      </trkpt>
      <trkpt lat="44.04314" lon="7.12834">
        <ele>432</ele>
        <time>2020-09-15T14:29:10Z</time>
      </trkpt>
      <trkpt lat="44.04264" lon="7.1285">
        <ele>427</ele>
        <time>2020-09-15T14:29:20Z</time>
      </trkpt>
      <trkpt lat="44.04258" lon="7.12855">
        <ele>427</ele>
        <time>2020-09-15T14:29:21Z</time>
      </trkpt>
      <trkpt lat="44.04251" lon="7.12865">
        <ele>429</ele>
        <time>2020-09-15T14:29:23Z</time>
      </trkpt>
      <trkpt lat="44.04244" lon="7.12885">
        <ele>436</ele>
        <time>2020-09-15T14:29:25Z</time>
      </trkpt>
      <trkpt lat="44.0424" lon="7.12893">
        <ele>439</ele>
        <time>2020-09-15T14:29:27Z</time>
      </trkpt>
      <trkpt lat="44.04234" lon="7.12898">
        <ele>441</ele>
        <time>2020-09-15T14:29:28Z</time>
      </trkpt>
      <trkpt lat="44.04226" lon="7.12902">
        <ele>442</ele>
        <time>2020-09-15T14:29:29Z</time>
      </trkpt>
      <trkpt lat="44.04217" lon="7.12905">
        <ele>442</ele>
        <time>2020-09-15T14:29:31Z</time>
      </trkpt>
      <trkpt lat="44.04207" lon="7.12904">
        <ele>441</ele>
        <time>2020-09-15T14:29:33Z</time>
      </trkpt>
      <trkpt lat="44.04188" lon="7.12896">
        <ele>437</ele>
        <time>2020-09-15T14:29:36Z</time>
      </trkpt>
      <trkpt lat="44.04173" lon="7.12886">
        <ele>432</ele>
        <time>2020-09-15T14:29:39Z</time>
      </trkpt>
      <trkpt lat="44.04138" lon="7.12887">
        <ele>429</ele>
        <time>2020-09-15T14:29:46Z</time>
      </trkpt>
      <trkpt lat="44.04102" lon="7.12878">
        <ele>423</ele>
        <time>2020-09-15T14:29:52Z</time>
      </trkpt>
      <trkpt lat="44.0406" lon="7.12867">
        <ele>426</ele>
        <time>2020-09-15T14:30:00Z</time>
      </trkpt>
      <trkpt lat="44.04055" lon="7.12865">
        <ele>427</ele>
        <time>2020-09-15T14:30:01Z</time>
      </trkpt>
      <trkpt lat="44.04025" lon="7.12846">
        <ele>431</ele>
        <time>2020-09-15T14:30:07Z</time>
      </trkpt>
      <trkpt lat="44.04002" lon="7.12835">
        <ele>435</ele>
        <time>2020-09-15T14:30:11Z</time>
      </trkpt>
      <trkpt lat="44.03974" lon="7.12781">
        <ele>426</ele>
        <time>2020-09-15T14:30:19Z</time>
      </trkpt>
      <trkpt lat="44.03949" lon="7.12767">
        <ele>430</ele>
        <time>2020-09-15T14:30:24Z</time>
      </trkpt>
      <trkpt lat="44.03927" lon="7.12736">
        <ele>427</ele>
        <time>2020-09-15T14:30:30Z</time>
      </trkpt>
      <trkpt lat="44.03907" lon="7.12724">
        <ele>423</ele>
        <time>2020-09-15T14:30:34Z</time>
      </trkpt>
      <trkpt lat="44.03891" lon="7.12722">
        <ele>421</ele>
        <time>2020-09-15T14:30:36Z</time>
      </trkpt>
      <trkpt lat="44.03867" lon="7.12732">
        <ele>424</ele>
        <time>2020-09-15T14:30:41Z</time>
      </trkpt>
      <trkpt lat="44.03853" lon="7.12742">
        <ele>428</ele>
        <time>2020-09-15T14:30:44Z</time>
      </trkpt>
      <trkpt lat="44.03818" lon="7.12753">
        <ele>429</ele>
        <time>2020-09-15T14:30:50Z</time>
      </trkpt>
      <trkpt lat="44.03714" lon="7.12776">
        <ele>421</ele>
        <time>2020-09-15T14:31:09Z</time>
      </trkpt>
      <trkpt lat="44.03685" lon="7.12778">
        <ele>411</ele>
        <time>2020-09-15T14:31:14Z</time>
      </trkpt>
      <trkpt lat="44.0364" lon="7.12806">
        <ele>410</ele>
        <time>2020-09-15T14:31:23Z</time>
      </trkpt>
      <trkpt lat="44.0363" lon="7.12815">
        <ele>409</ele>
        <time>2020-09-15T14:31:25Z</time>
      </trkpt>
      <trkpt lat="44.03623" lon="7.12831">
        <ele>409</ele>
        <time>2020-09-15T14:31:27Z</time>
      </trkpt>
      <trkpt lat="44.03619" lon="7.12859">
        <ele>410</ele>
        <time>2020-09-15T14:31:31Z</time>
      </trkpt>
      <trkpt lat="44.03614" lon="7.12913">
        <ele>411</ele>
        <time>2020-09-15T14:31:38Z</time>
      </trkpt>
      <trkpt lat="44.03605" lon="7.12966">
        <ele>412</ele>
        <time>2020-09-15T14:31:45Z</time>
      </trkpt>
      <trkpt lat="44.03588" lon="7.13023">
        <ele>413</ele>
        <time>2020-09-15T14:31:53Z</time>
      </trkpt>
      <trkpt lat="44.03574" lon="7.13056">
        <ele>417</ele>
        <time>2020-09-15T14:31:58Z</time>
      </trkpt>
      <trkpt lat="44.03509" lon="7.13145">
        <ele>420</ele>
        <time>2020-09-15T14:32:14Z</time>
      </trkpt>
      <trkpt lat="44.03496" lon="7.13158">
        <ele>420</ele>
        <time>2020-09-15T14:32:17Z</time>
      </trkpt>
      <trkpt lat="44.03426" lon="7.13203">
        <ele>416</ele>
        <time>2020-09-15T14:32:30Z</time>
      </trkpt>
      <trkpt lat="44.03406" lon="7.13208">
        <ele>412</ele>
        <time>2020-09-15T14:32:34Z</time>
      </trkpt>
      <trkpt lat="44.03367" lon="7.13205">
        <ele>402</ele>
        <time>2020-09-15T14:32:41Z</time>
      </trkpt>
      <trkpt lat="44.03314" lon="7.13197">
        <ele>393</ele>
        <time>2020-09-15T14:32:51Z</time>
      </trkpt>
      <trkpt lat="44.03283" lon="7.13198">
        <ele>395</ele>
        <time>2020-09-15T14:32:56Z</time>
      </trkpt>
      <trkpt lat="44.03235" lon="7.13202">
        <ele>398</ele>
        <time>2020-09-15T14:33:05Z</time>
      </trkpt>
      <trkpt lat="44.0317" lon="7.13214">
        <ele>397</ele>
        <time>2020-09-15T14:33:16Z</time>
      </trkpt>
      <trkpt lat="44.03113" lon="7.1322">
        <ele>393</ele>
        <time>2020-09-15T14:33:26Z</time>
      </trkpt>
      <trkpt lat="44.03058" lon="7.13215">
        <ele>387</ele>
        <time>2020-09-15T14:33:36Z</time>
      </trkpt>
      <trkpt lat="44.02999" lon="7.13197">
        <ele>381</ele>
        <time>2020-09-15T14:33:47Z</time>
      </trkpt>
      <trkpt lat="44.02943" lon="7.1317">
        <ele>370</ele>
        <time>2020-09-15T14:33:58Z</time>
      </trkpt>
      <trkpt lat="44.02833" lon="7.13116">
        <ele>378</ele>
        <time>2020-09-15T14:34:18Z</time>
      </trkpt>
      <trkpt lat="44.02819" lon="7.13112">
        <ele>380</ele>
        <time>2020-09-15T14:34:21Z</time>
      </trkpt>
      <trkpt lat="44.0266" lon="7.13123">
        <ele>381</ele>
        <time>2020-09-15T14:34:49Z</time>
      </trkpt>
      <trkpt lat="44.02637" lon="7.1313">
        <ele>382</ele>
        <time>2020-09-15T14:34:53Z</time>
      </trkpt>
      <trkpt lat="44.02572" lon="7.13161">
        <ele>374</ele>
        <time>2020-09-15T14:35:06Z</time>
      </trkpt>
      <trkpt lat="44.02545" lon="7.13171">
        <ele>372</ele>
        <time>2020-09-15T14:35:11Z</time>
      </trkpt>
      <trkpt lat="44.02515" lon="7.13174">
        <ele>371</ele>
        <time>2020-09-15T14:35:16Z</time>
      </trkpt>
      <trkpt lat="44.02463" lon="7.13166">
        <ele>366</ele>
        <time>2020-09-15T14:35:25Z</time>
      </trkpt>
      <trkpt lat="44.02381" lon="7.1315">
        <ele>363</ele>
        <time>2020-09-15T14:35:40Z</time>
      </trkpt>
      <trkpt lat="44.02323" lon="7.13132">
        <ele>363</ele>
        <time>2020-09-15T14:35:51Z</time>
      </trkpt>
      <trkpt lat="44.02246" lon="7.13117">
        <ele>362</ele>
        <time>2020-09-15T14:36:04Z</time>
      </trkpt>
      <trkpt lat="44.02203" lon="7.13114">
        <ele>359</ele>
        <time>2020-09-15T14:36:12Z</time>
      </trkpt>
      <trkpt lat="44.02166" lon="7.13116">
        <ele>356</ele>
        <time>2020-09-15T14:36:19Z</time>
      </trkpt>
      <trkpt lat="44.0194" lon="7.13166">
        <ele>359</ele>
        <time>2020-09-15T14:36:59Z</time>
      </trkpt>
      <trkpt lat="44.01918" lon="7.13167">
        <ele>360</ele>
        <time>2020-09-15T14:37:03Z</time>
      </trkpt>
      <trkpt lat="44.01877" lon="7.13161">
        <ele>359</ele>
        <time>2020-09-15T14:37:11Z</time>
      </trkpt>
      <trkpt lat="44.01564" lon="7.13086">
        <ele>349</ele>
        <time>2020-09-15T14:38:07Z</time>
      </trkpt>
      <trkpt lat="44.01528" lon="7.13087">
        <ele>348</ele>
        <time>2020-09-15T14:38:14Z</time>
      </trkpt>
      <trkpt lat="44.01499" lon="7.13091">
        <ele>348</ele>
        <time>2020-09-15T14:38:19Z</time>
      </trkpt>
      <trkpt lat="44.01471" lon="7.131">
        <ele>354</ele>
        <time>2020-09-15T14:38:24Z</time>
      </trkpt>
      <trkpt lat="44.01396" lon="7.13142">
        <ele>358</ele>
        <time>2020-09-15T14:38:38Z</time>
      </trkpt>
      <trkpt lat="44.01356" lon="7.13153">
        <ele>366</ele>
        <time>2020-09-15T14:38:45Z</time>
      </trkpt>
      <trkpt lat="44.01098" lon="7.13162">
        <ele>363</ele>
        <time>2020-09-15T14:39:31Z</time>
      </trkpt>
      <trkpt lat="44.01038" lon="7.13183">
        <ele>359</ele>
        <time>2020-09-15T14:39:42Z</time>
      </trkpt>
      <trkpt lat="44.00997" lon="7.13209">
        <ele>355</ele>
        <time>2020-09-15T14:39:50Z</time>
      </trkpt>
      <trkpt lat="44.00965" lon="7.13239">
        <ele>357</ele>
        <time>2020-09-15T14:39:57Z</time>
      </trkpt>
      <trkpt lat="44.00908" lon="7.13305">
        <ele>355</ele>
        <time>2020-09-15T14:40:10Z</time>
      </trkpt>
      <trkpt lat="44.0074" lon="7.13479">
        <ele>353</ele>
        <time>2020-09-15T14:40:48Z</time>
      </trkpt>
      <trkpt lat="44.00733" lon="7.13489">
        <ele>353</ele>
        <time>2020-09-15T14:40:50Z</time>
      </trkpt>
      <trkpt lat="44.00695" lon="7.13546">
        <ele>369</ele>
        <time>2020-09-15T14:40:59Z</time>
      </trkpt>
      <trkpt lat="44.00656" lon="7.13596">
        <ele>364</ele>
        <time>2020-09-15T14:41:09Z</time>
      </trkpt>
      <trkpt lat="44.0063" lon="7.13623">
        <ele>370</ele>
        <time>2020-09-15T14:41:15Z</time>
      </trkpt>
      <trkpt lat="44.00601" lon="7.13649">
        <ele>360</ele>
        <time>2020-09-15T14:41:21Z</time>
      </trkpt>
      <trkpt lat="44.00572" lon="7.13671">
        <ele>348</ele>
        <time>2020-09-15T14:41:27Z</time>
      </trkpt>
      <trkpt lat="44.00564" lon="7.13676">
        <ele>352</ele>
        <time>2020-09-15T14:41:28Z</time>
      </trkpt>
      <trkpt lat="44.00346" lon="7.13805">
        <ele>366</ele>
        <time>2020-09-15T14:42:10Z</time>
      </trkpt>
      <trkpt lat="44.00328" lon="7.13812">
        <ele>364</ele>
        <time>2020-09-15T14:42:14Z</time>
      </trkpt>
      <trkpt lat="44.0032" lon="7.13816">
        <ele>365</ele>
        <time>2020-09-15T14:42:15Z</time>
      </trkpt>
      <trkpt lat="44.00241" lon="7.13831">
        <ele>364</ele>
        <time>2020-09-15T14:42:29Z</time>
      </trkpt>
      <trkpt lat="44.00219" lon="7.13834">
        <ele>369</ele>
        <time>2020-09-15T14:42:33Z</time>
      </trkpt>
      <trkpt lat="44.001" lon="7.13788">
        <ele>360</ele>
        <time>2020-09-15T14:42:55Z</time>
      </trkpt>
      <trkpt lat="44.00039" lon="7.13755">
        <ele>357</ele>
        <time>2020-09-15T14:43:07Z</time>
      </trkpt>
      <trkpt lat="44.00006" lon="7.13732">
        <ele>355</ele>
        <time>2020-09-15T14:43:14Z</time>
      </trkpt>
      <trkpt lat="43.99985" lon="7.13724">
        <ele>353</ele>
        <time>2020-09-15T14:43:17Z</time>
      </trkpt>
      <trkpt lat="43.99954" lon="7.13719">
        <ele>349</ele>
        <time>2020-09-15T14:43:23Z</time>
      </trkpt>
      <trkpt lat="43.99922" lon="7.13703">
        <ele>343</ele>
        <time>2020-09-15T14:43:29Z</time>
      </trkpt>
      <trkpt lat="43.99911" lon="7.137">
        <ele>341</ele>
        <time>2020-09-15T14:43:31Z</time>
      </trkpt>
      <trkpt lat="43.99904" lon="7.13698">
        <ele>340</ele>
        <time>2020-09-15T14:43:32Z</time>
      </trkpt>
      <trkpt lat="43.99885" lon="7.137">
        <ele>340</ele>
        <time>2020-09-15T14:43:36Z</time>
      </trkpt>
      <trkpt lat="43.99868" lon="7.13705">
        <ele>340</ele>
        <time>2020-09-15T14:43:39Z</time>
      </trkpt>
      <trkpt lat="43.99832" lon="7.13733">
        <ele>345</ele>
        <time>2020-09-15T14:43:46Z</time>
      </trkpt>
      <trkpt lat="43.99822" lon="7.13741">
        <ele>346</ele>
        <time>2020-09-15T14:43:48Z</time>
      </trkpt>
      <trkpt lat="43.99806" lon="7.13752">
        <ele>348</ele>
        <time>2020-09-15T14:43:51Z</time>
      </trkpt>
      <trkpt lat="43.99787" lon="7.1376">
        <ele>349</ele>
        <time>2020-09-15T14:43:55Z</time>
      </trkpt>
      <trkpt lat="43.9974" lon="7.13775">
        <ele>355</ele>
        <time>2020-09-15T14:44:03Z</time>
      </trkpt>
      <trkpt lat="43.99684" lon="7.13774">
        <ele>369</ele>
        <time>2020-09-15T14:44:13Z</time>
      </trkpt>
      <trkpt lat="43.99641" lon="7.13768">
        <ele>386</ele>
        <time>2020-09-15T14:44:21Z</time>
      </trkpt>
      <trkpt lat="43.99544" lon="7.13713">
        <ele>369</ele>
        <time>2020-09-15T14:44:40Z</time>
      </trkpt>
      <trkpt lat="43.99487" lon="7.13699">
        <ele>355</ele>
        <time>2020-09-15T14:44:50Z</time>
      </trkpt>
      <trkpt lat="43.9942" lon="7.1368">
        <ele>345</ele>
        <time>2020-09-15T14:45:02Z</time>
      </trkpt>
      <trkpt lat="43.99373" lon="7.13672">
        <ele>340</ele>
        <time>2020-09-15T14:45:11Z</time>
      </trkpt>
      <trkpt lat="43.99345" lon="7.13676">
        <ele>341</ele>
        <time>2020-09-15T14:45:16Z</time>
      </trkpt>
      <trkpt lat="43.99246" lon="7.13706">
        <ele>342</ele>
        <time>2020-09-15T14:45:34Z</time>
      </trkpt>
      <trkpt lat="43.99194" lon="7.13714">
        <ele>351</ele>
        <time>2020-09-15T14:45:43Z</time>
      </trkpt>
      <trkpt lat="43.99145" lon="7.13715">
        <ele>364</ele>
        <time>2020-09-15T14:45:52Z</time>
      </trkpt>
      <trkpt lat="43.99084" lon="7.13695">
        <ele>366</ele>
        <time>2020-09-15T14:46:03Z</time>
      </trkpt>
      <trkpt lat="43.99031" lon="7.13663">
        <ele>346</ele>
        <time>2020-09-15T14:46:13Z</time>
      </trkpt>
      <trkpt lat="43.98997" lon="7.13649">
        <ele>348</ele>
        <time>2020-09-15T14:46:19Z</time>
      </trkpt>
      <trkpt lat="43.98953" lon="7.1364">
        <ele>339</ele>
        <time>2020-09-15T14:46:27Z</time>
      </trkpt>
      <trkpt lat="43.989" lon="7.13637">
        <ele>337</ele>
        <time>2020-09-15T14:46:37Z</time>
      </trkpt>
      <trkpt lat="43.98832" lon="7.13637">
        <ele>344</ele>
        <time>2020-09-15T14:46:49Z</time>
      </trkpt>
      <trkpt lat="43.98735" lon="7.13613">
        <ele>339</ele>
        <time>2020-09-15T14:47:06Z</time>
      </trkpt>
      <trkpt lat="43.98694" lon="7.13615">
        <ele>333</ele>
        <time>2020-09-15T14:47:14Z</time>
      </trkpt>
      <trkpt lat="43.9863" lon="7.13634">
        <ele>332</ele>
        <time>2020-09-15T14:47:25Z</time>
      </trkpt>
      <trkpt lat="43.98569" lon="7.13657">
        <ele>330</ele>
        <time>2020-09-15T14:47:37Z</time>
      </trkpt>
      <trkpt lat="43.98492" lon="7.13702">
        <ele>328</ele>
        <time>2020-09-15T14:47:51Z</time>
      </trkpt>
      <trkpt lat="43.983" lon="7.13858">
        <ele>319</ele>
        <time>2020-09-15T14:48:31Z</time>
      </trkpt>
      <trkpt lat="43.9823" lon="7.1391">
        <ele>316</ele>
        <time>2020-09-15T14:48:45Z</time>
      </trkpt>
      <trkpt lat="43.98186" lon="7.13935">
        <ele>319</ele>
        <time>2020-09-15T14:48:54Z</time>
      </trkpt>
      <trkpt lat="43.97956" lon="7.13981">
        <ele>315</ele>
        <time>2020-09-15T14:49:35Z</time>
      </trkpt>
      <trkpt lat="43.97928" lon="7.13993">
        <ele>314</ele>
        <time>2020-09-15T14:49:40Z</time>
      </trkpt>
      <trkpt lat="43.97774" lon="7.14055">
        <ele>314</ele>
        <time>2020-09-15T14:50:09Z</time>
      </trkpt>
      <trkpt lat="43.97708" lon="7.14045">
        <ele>310</ele>
        <time>2020-09-15T14:50:21Z</time>
      </trkpt>
      <trkpt lat="43.97673" lon="7.14026">
        <ele>306</ele>
        <time>2020-09-15T14:50:27Z</time>
      </trkpt>
      <trkpt lat="43.97654" lon="7.14013">
        <ele>304</ele>
        <time>2020-09-15T14:50:31Z</time>
      </trkpt>
      <trkpt lat="43.97647" lon="7.14005">
        <ele>303</ele>
        <time>2020-09-15T14:50:33Z</time>
      </trkpt>
      <trkpt lat="43.97641" lon="7.13995">
        <ele>303</ele>
        <time>2020-09-15T14:50:34Z</time>
      </trkpt>
      <trkpt lat="43.97617" lon="7.13992">
        <ele>305</ele>
        <time>2020-09-15T14:50:39Z</time>
      </trkpt>
      <trkpt lat="43.97594" lon="7.13975">
        <ele>304</ele>
        <time>2020-09-15T14:50:43Z</time>
      </trkpt>
      <trkpt lat="43.97565" lon="7.13947">
        <ele>298</ele>
        <time>2020-09-15T14:50:49Z</time>
      </trkpt>
      <trkpt lat="43.97549" lon="7.13937">
        <ele>294</ele>
        <time>2020-09-15T14:50:53Z</time>
      </trkpt>
      <trkpt lat="43.97538" lon="7.13936">
        <ele>293</ele>
        <time>2020-09-15T14:50:55Z</time>
      </trkpt>
      <trkpt lat="43.97527" lon="7.13938">
        <ele>293</ele>
        <time>2020-09-15T14:50:57Z</time>
      </trkpt>
      <trkpt lat="43.9751" lon="7.13948">
        <ele>293</ele>
        <time>2020-09-15T14:51:00Z</time>
      </trkpt>
      <trkpt lat="43.97485" lon="7.13979">
        <ele>294</ele>
        <time>2020-09-15T14:51:06Z</time>
      </trkpt>
      <trkpt lat="43.97444" lon="7.14027">
        <ele>294</ele>
        <time>2020-09-15T14:51:15Z</time>
      </trkpt>
      <trkpt lat="43.97392" lon="7.14073">
        <ele>295</ele>
        <time>2020-09-15T14:51:26Z</time>
      </trkpt>
      <trkpt lat="43.97321" lon="7.14116">
        <ele>296</ele>
        <time>2020-09-15T14:51:40Z</time>
      </trkpt>
      <trkpt lat="43.97312" lon="7.14127">
        <ele>296</ele>
        <time>2020-09-15T14:51:42Z</time>
      </trkpt>
      <trkpt lat="43.97303" lon="7.1414">
        <ele>296</ele>
        <time>2020-09-15T14:51:45Z</time>
      </trkpt>
      <trkpt lat="43.97277" lon="7.14227">
        <ele>295</ele>
        <time>2020-09-15T14:51:57Z</time>
      </trkpt>
      <trkpt lat="43.97274" lon="7.14246">
        <ele>294</ele>
        <time>2020-09-15T14:51:59Z</time>
      </trkpt>
      <trkpt lat="43.97274" lon="7.14264">
        <ele>294</ele>
        <time>2020-09-15T14:52:01Z</time>
      </trkpt>
      <trkpt lat="43.97279" lon="7.1431">
        <ele>295</ele>
        <time>2020-09-15T14:52:07Z</time>
      </trkpt>
      <trkpt lat="43.97282" lon="7.14434">
        <ele>294</ele>
        <time>2020-09-15T14:52:23Z</time>
      </trkpt>
      <trkpt lat="43.97279" lon="7.14458">
        <ele>295</ele>
        <time>2020-09-15T14:52:26Z</time>
      </trkpt>
      <trkpt lat="43.97265" lon="7.145">
        <ele>292</ele>
        <time>2020-09-15T14:52:32Z</time>
      </trkpt>
      <trkpt lat="43.97254" lon="7.14549">
        <ele>296</ele>
        <time>2020-09-15T14:52:39Z</time>
      </trkpt>
      <trkpt lat="43.97248" lon="7.14608">
        <ele>309</ele>
        <time>2020-09-15T14:52:46Z</time>
      </trkpt>
      <trkpt lat="43.97245" lon="7.14617">
        <ele>312</ele>
        <time>2020-09-15T14:52:48Z</time>
      </trkpt>
      <trkpt lat="43.97241" lon="7.14626">
        <ele>314</ele>
        <time>2020-09-15T14:52:49Z</time>
      </trkpt>
      <trkpt lat="43.97235" lon="7.14633">
        <ele>315</ele>
        <time>2020-09-15T14:52:50Z</time>
      </trkpt>
      <trkpt lat="43.97181" lon="7.14673">
        <ele>304</ele>
        <time>2020-09-15T14:53:01Z</time>
      </trkpt>
      <trkpt lat="43.97155" lon="7.147">
        <ele>307</ele>
        <time>2020-09-15T14:53:07Z</time>
      </trkpt>
      <trkpt lat="43.9713" lon="7.14719">
        <ele>307</ele>
        <time>2020-09-15T14:53:12Z</time>
      </trkpt>
      <trkpt lat="43.97102" lon="7.14736">
        <ele>302</ele>
        <time>2020-09-15T14:53:18Z</time>
      </trkpt>
      <trkpt lat="43.97054" lon="7.14785">
        <ele>307</ele>
        <time>2020-09-15T14:53:28Z</time>
      </trkpt>
      <trkpt lat="43.97005" lon="7.14826">
        <ele>305</ele>
        <time>2020-09-15T14:53:38Z</time>
      </trkpt>
      <trkpt lat="43.96821" lon="7.15029">
        <ele>297</ele>
        <time>2020-09-15T14:54:20Z</time>
      </trkpt>
      <trkpt lat="43.96808" lon="7.1504">
        <ele>297</ele>
        <time>2020-09-15T14:54:23Z</time>
      </trkpt>
      <trkpt lat="43.96723" lon="7.15088">
        <ele>290</ele>
        <time>2020-09-15T14:54:39Z</time>
      </trkpt>
      <trkpt lat="43.9665" lon="7.15138">
        <ele>295</ele>
        <time>2020-09-15T14:54:54Z</time>
      </trkpt>
      <trkpt lat="43.96621" lon="7.15154">
        <ele>293</ele>
        <time>2020-09-15T14:54:59Z</time>
      </trkpt>
      <trkpt lat="43.9659" lon="7.15168">
        <ele>289</ele>
        <time>2020-09-15T14:55:05Z</time>
      </trkpt>
      <trkpt lat="43.96531" lon="7.15214">
        <ele>292</ele>
        <time>2020-09-15T14:55:17Z</time>
      </trkpt>
      <trkpt lat="43.96441" lon="7.15247">
        <ele>282</ele>
        <time>2020-09-15T14:55:34Z</time>
      </trkpt>
      <trkpt lat="43.96436" lon="7.1525">
        <ele>281</ele>
        <time>2020-09-15T14:55:35Z</time>
      </trkpt>
      <trkpt lat="43.96419" lon="7.15259">
        <ele>280</ele>
        <time>2020-09-15T14:55:38Z</time>
      </trkpt>
      <trkpt lat="43.96402" lon="7.15273">
        <ele>281</ele>
        <time>2020-09-15T14:55:41Z</time>
      </trkpt>
      <trkpt lat="43.96344" lon="7.15361">
        <ele>285</ele>
        <time>2020-09-15T14:55:57Z</time>
      </trkpt>
      <trkpt lat="43.96337" lon="7.15369">
        <ele>285</ele>
        <time>2020-09-15T14:55:58Z</time>
      </trkpt>
      <trkpt lat="43.9633" lon="7.15373">
        <ele>285</ele>
        <time>2020-09-15T14:56:00Z</time>
      </trkpt>
      <trkpt lat="43.96318" lon="7.15373">
        <ele>285</ele>
        <time>2020-09-15T14:56:02Z</time>
      </trkpt>
      <trkpt lat="43.9625" lon="7.15355">
        <ele>283</ele>
        <time>2020-09-15T14:56:14Z</time>
      </trkpt>
      <trkpt lat="43.96238" lon="7.15354">
        <ele>282</ele>
        <time>2020-09-15T14:56:16Z</time>
      </trkpt>
      <trkpt lat="43.96218" lon="7.15359">
        <ele>282</ele>
        <time>2020-09-15T14:56:20Z</time>
      </trkpt>
      <trkpt lat="43.96201" lon="7.15371">
        <ele>282</ele>
        <time>2020-09-15T14:56:23Z</time>
      </trkpt>
      <trkpt lat="43.9611" lon="7.15463">
        <ele>287</ele>
        <time>2020-09-15T14:56:43Z</time>
      </trkpt>
      <trkpt lat="43.96085" lon="7.1548">
        <ele>287</ele>
        <time>2020-09-15T14:56:48Z</time>
      </trkpt>
      <trkpt lat="43.96031" lon="7.15501">
        <ele>278</ele>
        <time>2020-09-15T14:56:58Z</time>
      </trkpt>
      <trkpt lat="43.96019" lon="7.15508">
        <ele>278</ele>
        <time>2020-09-15T14:57:01Z</time>
      </trkpt>
      <trkpt lat="43.95995" lon="7.15531">
        <ele>279</ele>
        <time>2020-09-15T14:57:06Z</time>
      </trkpt>
      <trkpt lat="43.95987" lon="7.15542">
        <ele>280</ele>
        <time>2020-09-15T14:57:08Z</time>
      </trkpt>
      <trkpt lat="43.95964" lon="7.1559">
        <ele>286</ele>
        <time>2020-09-15T14:57:15Z</time>
      </trkpt>
      <trkpt lat="43.95958" lon="7.15602">
        <ele>289</ele>
        <time>2020-09-15T14:57:17Z</time>
      </trkpt>
      <trkpt lat="43.95938" lon="7.1562">
        <ele>289</ele>
        <time>2020-09-15T14:57:21Z</time>
      </trkpt>
      <trkpt lat="43.95925" lon="7.15628">
        <ele>289</ele>
        <time>2020-09-15T14:57:24Z</time>
      </trkpt>
      <trkpt lat="43.95873" lon="7.15634">
        <ele>279</ele>
        <time>2020-09-15T14:57:33Z</time>
      </trkpt>
      <trkpt lat="43.95859" lon="7.15638">
        <ele>277</ele>
        <time>2020-09-15T14:57:36Z</time>
      </trkpt>
      <trkpt lat="43.95847" lon="7.15644">
        <ele>277</ele>
        <time>2020-09-15T14:57:38Z</time>
      </trkpt>
      <trkpt lat="43.95811" lon="7.1567">
        <ele>276</ele>
        <time>2020-09-15T14:57:45Z</time>
      </trkpt>
      <trkpt lat="43.95771" lon="7.15685">
        <ele>272</ele>
        <time>2020-09-15T14:57:52Z</time>
      </trkpt>
      <trkpt lat="43.95761" lon="7.15691">
        <ele>272</ele>
        <time>2020-09-15T14:57:54Z</time>
      </trkpt>
      <trkpt lat="43.95724" lon="7.15732">
        <ele>276</ele>
        <time>2020-09-15T14:58:03Z</time>
      </trkpt>
      <trkpt lat="43.95713" lon="7.1574">
        <ele>275</ele>
        <time>2020-09-15T14:58:05Z</time>
      </trkpt>
      <trkpt lat="43.95677" lon="7.15758">
        <ele>270</ele>
        <time>2020-09-15T14:58:12Z</time>
      </trkpt>
      <trkpt lat="43.95665" lon="7.15767">
        <ele>271</ele>
        <time>2020-09-15T14:58:14Z</time>
      </trkpt>
      <trkpt lat="43.95636" lon="7.15793">
        <ele>277</ele>
        <time>2020-09-15T14:58:20Z</time>
      </trkpt>
      <trkpt lat="43.95626" lon="7.15798">
        <ele>277</ele>
        <time>2020-09-15T14:58:22Z</time>
      </trkpt>
      <trkpt lat="43.95587" lon="7.15807">
        <ele>271</ele>
        <time>2020-09-15T14:58:29Z</time>
      </trkpt>
      <trkpt lat="43.95528" lon="7.15828">
        <ele>266</ele>
        <time>2020-09-15T14:58:40Z</time>
      </trkpt>
      <trkpt lat="43.95464" lon="7.15861">
        <ele>270</ele>
        <time>2020-09-15T14:58:52Z</time>
      </trkpt>
      <trkpt lat="43.95289" lon="7.15924">
        <ele>260</ele>
        <time>2020-09-15T14:59:24Z</time>
      </trkpt>
      <trkpt lat="43.95273" lon="7.15929">
        <ele>260</ele>
        <time>2020-09-15T14:59:27Z</time>
      </trkpt>
      <trkpt lat="43.95229" lon="7.15941">
        <ele>259</ele>
        <time>2020-09-15T14:59:35Z</time>
      </trkpt>
      <trkpt lat="43.95203" lon="7.15952">
        <ele>260</ele>
        <time>2020-09-15T14:59:40Z</time>
      </trkpt>
      <trkpt lat="43.95105" lon="7.16001">
        <ele>256</ele>
        <time>2020-09-15T14:59:59Z</time>
      </trkpt>
      <trkpt lat="43.95049" lon="7.1602">
        <ele>259</ele>
        <time>2020-09-15T15:00:09Z</time>
      </trkpt>
      <trkpt lat="43.95009" lon="7.16036">
        <ele>264</ele>
        <time>2020-09-15T15:00:16Z</time>
      </trkpt>
      <trkpt lat="43.95001" lon="7.16037">
        <ele>264</ele>
        <time>2020-09-15T15:00:18Z</time>
      </trkpt>
      <trkpt lat="43.94957" lon="7.16029">
        <ele>260</ele>
        <time>2020-09-15T15:00:26Z</time>
      </trkpt>
      <trkpt lat="43.94821" lon="7.16013">
        <ele>254</ele>
        <time>2020-09-15T15:00:50Z</time>
      </trkpt>
      <trkpt lat="43.94807" lon="7.16011">
        <ele>253</ele>
        <time>2020-09-15T15:00:53Z</time>
      </trkpt>
      <trkpt lat="43.94784" lon="7.1601">
        <ele>252</ele>
        <time>2020-09-15T15:00:57Z</time>
      </trkpt>
      <trkpt lat="43.94762" lon="7.16016">
        <ele>252</ele>
        <time>2020-09-15T15:01:01Z</time>
      </trkpt>
      <trkpt lat="43.947" lon="7.16054">
        <ele>254</ele>
        <time>2020-09-15T15:01:13Z</time>
      </trkpt>
      <trkpt lat="43.94687" lon="7.16066">
        <ele>253</ele>
        <time>2020-09-15T15:01:15Z</time>
      </trkpt>
      <trkpt lat="43.94675" lon="7.1608">
        <ele>253</ele>
        <time>2020-09-15T15:01:18Z</time>
      </trkpt>
      <trkpt lat="43.94619" lon="7.16164">
        <ele>257</ele>
        <time>2020-09-15T15:01:33Z</time>
      </trkpt>
      <trkpt lat="43.94547" lon="7.16265">
        <ele>258</ele>
        <time>2020-09-15T15:01:51Z</time>
      </trkpt>
      <trkpt lat="43.94522" lon="7.16289">
        <ele>261</ele>
        <time>2020-09-15T15:01:56Z</time>
      </trkpt>
      <trkpt lat="43.94493" lon="7.16302">
        <ele>260</ele>
        <time>2020-09-15T15:02:02Z</time>
      </trkpt>
      <trkpt lat="43.94479" lon="7.16304">
        <ele>260</ele>
        <time>2020-09-15T15:02:04Z</time>
      </trkpt>
      <trkpt lat="43.94423" lon="7.16301">
        <ele>258</ele>
        <time>2020-09-15T15:02:14Z</time>
      </trkpt>
      <trkpt lat="43.94398" lon="7.16294">
        <ele>255</ele>
        <time>2020-09-15T15:02:19Z</time>
      </trkpt>
      <trkpt lat="43.94271" lon="7.16251">
        <ele>242</ele>
        <time>2020-09-15T15:02:42Z</time>
      </trkpt>
      <trkpt lat="43.94251" lon="7.1624">
        <ele>242</ele>
        <time>2020-09-15T15:02:46Z</time>
      </trkpt>
      <trkpt lat="43.94239" lon="7.16232">
        <ele>243</ele>
        <time>2020-09-15T15:02:48Z</time>
      </trkpt>
      <trkpt lat="43.94167" lon="7.16162">
        <ele>243</ele>
        <time>2020-09-15T15:03:04Z</time>
      </trkpt>
      <trkpt lat="43.94156" lon="7.16153">
        <ele>245</ele>
        <time>2020-09-15T15:03:06Z</time>
      </trkpt>
      <trkpt lat="43.9414" lon="7.16146">
        <ele>245</ele>
        <time>2020-09-15T15:03:09Z</time>
      </trkpt>
      <trkpt lat="43.94077" lon="7.16135">
        <ele>242</ele>
        <time>2020-09-15T15:03:21Z</time>
      </trkpt>
      <trkpt lat="43.9406" lon="7.16132">
        <ele>243</ele>
        <time>2020-09-15T15:03:24Z</time>
      </trkpt>
      <trkpt lat="43.93963" lon="7.16105">
        <ele>243</ele>
        <time>2020-09-15T15:03:41Z</time>
      </trkpt>
      <trkpt lat="43.93949" lon="7.16104">
        <ele>242</ele>
        <time>2020-09-15T15:03:44Z</time>
      </trkpt>
      <trkpt lat="43.93925" lon="7.16108">
        <ele>242</ele>
        <time>2020-09-15T15:03:48Z</time>
      </trkpt>
      <trkpt lat="43.93913" lon="7.16115">
        <ele>243</ele>
        <time>2020-09-15T15:03:50Z</time>
      </trkpt>
      <trkpt lat="43.93901" lon="7.16125">
        <ele>245</ele>
        <time>2020-09-15T15:03:53Z</time>
      </trkpt>
      <trkpt lat="43.93891" lon="7.16138">
        <ele>245</ele>
        <time>2020-09-15T15:03:55Z</time>
      </trkpt>
      <trkpt lat="43.93858" lon="7.16191">
        <ele>244</ele>
        <time>2020-09-15T15:04:04Z</time>
      </trkpt>
      <trkpt lat="43.93848" lon="7.1621">
        <ele>243</ele>
        <time>2020-09-15T15:04:07Z</time>
      </trkpt>
      <trkpt lat="43.93842" lon="7.16228">
        <ele>242</ele>
        <time>2020-09-15T15:04:10Z</time>
      </trkpt>
      <trkpt lat="43.93837" lon="7.16249">
        <ele>240</ele>
        <time>2020-09-15T15:04:13Z</time>
      </trkpt>
      <trkpt lat="43.93835" lon="7.16266">
        <ele>240</ele>
        <time>2020-09-15T15:04:15Z</time>
      </trkpt>
      <trkpt lat="43.93836" lon="7.16284">
        <ele>240</ele>
        <time>2020-09-15T15:04:17Z</time>
      </trkpt>
      <trkpt lat="43.93854" lon="7.16438">
        <ele>247</ele>
        <time>2020-09-15T15:04:37Z</time>
      </trkpt>
      <trkpt lat="43.93856" lon="7.16466">
        <ele>250</ele>
        <time>2020-09-15T15:04:41Z</time>
      </trkpt>
      <trkpt lat="43.93854" lon="7.16477">
        <ele>250</ele>
        <time>2020-09-15T15:04:42Z</time>
      </trkpt>
      <trkpt lat="43.93851" lon="7.16491">
        <ele>250</ele>
        <time>2020-09-15T15:04:44Z</time>
      </trkpt>
      <trkpt lat="43.93846" lon="7.16503">
        <ele>249</ele>
        <time>2020-09-15T15:04:46Z</time>
      </trkpt>
      <trkpt lat="43.93838" lon="7.16514">
        <ele>248</ele>
        <time>2020-09-15T15:04:48Z</time>
      </trkpt>
      <trkpt lat="43.9383" lon="7.1652">
        <ele>250</ele>
        <time>2020-09-15T15:04:49Z</time>
      </trkpt>
      <trkpt lat="43.93816" lon="7.16525">
        <ele>259</ele>
        <time>2020-09-15T15:04:52Z</time>
      </trkpt>
      <trkpt lat="43.93786" lon="7.16533">
        <ele>276</ele>
        <time>2020-09-15T15:04:57Z</time>
      </trkpt>
      <trkpt lat="43.93777" lon="7.16538">
        <ele>281</ele>
        <time>2020-09-15T15:04:59Z</time>
      </trkpt>
      <trkpt lat="43.93771" lon="7.16546">
        <ele>285</ele>
        <time>2020-09-15T15:05:01Z</time>
      </trkpt>
      <trkpt lat="43.93766" lon="7.16559">
        <ele>289</ele>
        <time>2020-09-15T15:05:03Z</time>
      </trkpt>
      <trkpt lat="43.93743" lon="7.16674">
        <ele>288</ele>
        <time>2020-09-15T15:05:18Z</time>
      </trkpt>
      <trkpt lat="43.93738" lon="7.16687">
        <ele>287</ele>
        <time>2020-09-15T15:05:20Z</time>
      </trkpt>
      <trkpt lat="43.93713" lon="7.16732">
        <ele>285</ele>
        <time>2020-09-15T15:05:27Z</time>
      </trkpt>
      <trkpt lat="43.93707" lon="7.16755">
        <ele>282</ele>
        <time>2020-09-15T15:05:30Z</time>
      </trkpt>
      <trkpt lat="43.93703" lon="7.16784">
        <ele>280</ele>
        <time>2020-09-15T15:05:34Z</time>
      </trkpt>
      <trkpt lat="43.93702" lon="7.16804">
        <ele>278</ele>
        <time>2020-09-15T15:05:37Z</time>
      </trkpt>
      <trkpt lat="43.93705" lon="7.16857">
        <ele>275</ele>
        <time>2020-09-15T15:05:43Z</time>
      </trkpt>
      <trkpt lat="43.93715" lon="7.16951">
        <ele>271</ele>
        <time>2020-09-15T15:05:56Z</time>
      </trkpt>
      <trkpt lat="43.9372" lon="7.16967">
        <ele>267</ele>
        <time>2020-09-15T15:05:58Z</time>
      </trkpt>
      <trkpt lat="43.93737" lon="7.16992">
        <ele>251</ele>
        <time>2020-09-15T15:06:02Z</time>
      </trkpt>
      <trkpt lat="43.93747" lon="7.1701">
        <ele>241</ele>
        <time>2020-09-15T15:06:05Z</time>
      </trkpt>
      <trkpt lat="43.93763" lon="7.17055">
        <ele>237</ele>
        <time>2020-09-15T15:06:11Z</time>
      </trkpt>
      <trkpt lat="43.93764" lon="7.17066">
        <ele>237</ele>
        <time>2020-09-15T15:06:13Z</time>
      </trkpt>
      <trkpt lat="43.93763" lon="7.17076">
        <ele>236</ele>
        <time>2020-09-15T15:06:14Z</time>
      </trkpt>
      <trkpt lat="43.93757" lon="7.17087">
        <ele>237</ele>
        <time>2020-09-15T15:06:16Z</time>
      </trkpt>
      <trkpt lat="43.93677" lon="7.17151">
        <ele>255</ele>
        <time>2020-09-15T15:06:32Z</time>
      </trkpt>
      <trkpt lat="43.93649" lon="7.17165">
        <ele>247</ele>
        <time>2020-09-15T15:06:38Z</time>
      </trkpt>
      <trkpt lat="43.93634" lon="7.17168">
        <ele>245</ele>
        <time>2020-09-15T15:06:40Z</time>
      </trkpt>
      <trkpt lat="43.93598" lon="7.17165">
        <ele>244</ele>
        <time>2020-09-15T15:06:47Z</time>
      </trkpt>
      <trkpt lat="43.9357" lon="7.17178">
        <ele>240</ele>
        <time>2020-09-15T15:06:52Z</time>
      </trkpt>
      <trkpt lat="43.93557" lon="7.1718">
        <ele>239</ele>
        <time>2020-09-15T15:06:54Z</time>
      </trkpt>
      <trkpt lat="43.93515" lon="7.17173">
        <ele>237</ele>
        <time>2020-09-15T15:07:02Z</time>
      </trkpt>
      <trkpt lat="43.93494" lon="7.17173">
        <ele>237</ele>
        <time>2020-09-15T15:07:06Z</time>
      </trkpt>
      <trkpt lat="43.93478" lon="7.17176">
        <ele>239</ele>
        <time>2020-09-15T15:07:09Z</time>
      </trkpt>
      <trkpt lat="43.93438" lon="7.17189">
        <ele>241</ele>
        <time>2020-09-15T15:07:16Z</time>
      </trkpt>
      <trkpt lat="43.93426" lon="7.17197">
        <ele>240</ele>
        <time>2020-09-15T15:07:18Z</time>
      </trkpt>
      <trkpt lat="43.93414" lon="7.1721">
        <ele>238</ele>
        <time>2020-09-15T15:07:21Z</time>
      </trkpt>
      <trkpt lat="43.93388" lon="7.17248">
        <ele>239</ele>
        <time>2020-09-15T15:07:28Z</time>
      </trkpt>
      <trkpt lat="43.93372" lon="7.17306">
        <ele>231</ele>
        <time>2020-09-15T15:07:36Z</time>
      </trkpt>
      <trkpt lat="43.93363" lon="7.17318">
        <ele>231</ele>
        <time>2020-09-15T15:07:38Z</time>
      </trkpt>
      <trkpt lat="43.93354" lon="7.17326">
        <ele>231</ele>
        <time>2020-09-15T15:07:40Z</time>
      </trkpt>
      <trkpt lat="43.93322" lon="7.17348">
        <ele>234</ele>
        <time>2020-09-15T15:07:46Z</time>
      </trkpt>
      <trkpt lat="43.93287" lon="7.17375">
        <ele>238</ele>
        <time>2020-09-15T15:07:53Z</time>
      </trkpt>
      <trkpt lat="43.93247" lon="7.17408">
        <ele>237</ele>
        <time>2020-09-15T15:08:01Z</time>
      </trkpt>
      <trkpt lat="43.93235" lon="7.17422">
        <ele>241</ele>
        <time>2020-09-15T15:08:04Z</time>
      </trkpt>
      <trkpt lat="43.93214" lon="7.17463">
        <ele>246</ele>
        <time>2020-09-15T15:08:11Z</time>
      </trkpt>
      <trkpt lat="43.93209" lon="7.17481">
        <ele>244</ele>
        <time>2020-09-15T15:08:13Z</time>
      </trkpt>
      <trkpt lat="43.93201" lon="7.17532">
        <ele>241</ele>
        <time>2020-09-15T15:08:20Z</time>
      </trkpt>
      <trkpt lat="43.93197" lon="7.17547">
        <ele>241</ele>
        <time>2020-09-15T15:08:22Z</time>
      </trkpt>
      <trkpt lat="43.9319" lon="7.17562">
        <ele>241</ele>
        <time>2020-09-15T15:08:24Z</time>
      </trkpt>
      <trkpt lat="43.93169" lon="7.17587">
        <ele>239</ele>
        <time>2020-09-15T15:08:29Z</time>
      </trkpt>
      <trkpt lat="43.93159" lon="7.17604">
        <ele>240</ele>
        <time>2020-09-15T15:08:32Z</time>
      </trkpt>
      <trkpt lat="43.93142" lon="7.1766">
        <ele>239</ele>
        <time>2020-09-15T15:08:40Z</time>
      </trkpt>
      <trkpt lat="43.93138" lon="7.17676">
        <ele>238</ele>
        <time>2020-09-15T15:08:42Z</time>
      </trkpt>
      <trkpt lat="43.93136" lon="7.17702">
        <ele>235</ele>
        <time>2020-09-15T15:08:45Z</time>
      </trkpt>
      <trkpt lat="43.93133" lon="7.17714">
        <ele>234</ele>
        <time>2020-09-15T15:08:47Z</time>
      </trkpt>
      <trkpt lat="43.93073" lon="7.17853">
        <ele>233</ele>
        <time>2020-09-15T15:09:08Z</time>
      </trkpt>
      <trkpt lat="43.93007" lon="7.18029">
        <ele>227</ele>
        <time>2020-09-15T15:09:33Z</time>
      </trkpt>
      <trkpt lat="43.93" lon="7.1804">
        <ele>225</ele>
        <time>2020-09-15T15:09:35Z</time>
      </trkpt>
      <trkpt lat="43.9299" lon="7.1805">
        <ele>225</ele>
        <time>2020-09-15T15:09:37Z</time>
      </trkpt>
      <trkpt lat="43.92965" lon="7.18066">
        <ele>227</ele>
        <time>2020-09-15T15:09:42Z</time>
      </trkpt>
      <trkpt lat="43.92952" lon="7.18071">
        <ele>228</ele>
        <time>2020-09-15T15:09:44Z</time>
      </trkpt>
      <trkpt lat="43.92912" lon="7.18074">
        <ele>235</ele>
        <time>2020-09-15T15:09:52Z</time>
      </trkpt>
      <trkpt lat="43.92893" lon="7.18078">
        <ele>234</ele>
        <time>2020-09-15T15:09:55Z</time>
      </trkpt>
      <trkpt lat="43.92876" lon="7.18084">
        <ele>233</ele>
        <time>2020-09-15T15:09:58Z</time>
      </trkpt>
      <trkpt lat="43.92795" lon="7.18128">
        <ele>230</ele>
        <time>2020-09-15T15:10:14Z</time>
      </trkpt>
      <trkpt lat="43.92724" lon="7.18173">
        <ele>230</ele>
        <time>2020-09-15T15:10:27Z</time>
      </trkpt>
      <trkpt lat="43.92677" lon="7.18223">
        <ele>229</ele>
        <time>2020-09-15T15:10:38Z</time>
      </trkpt>
      <trkpt lat="43.92624" lon="7.18293">
        <ele>225</ele>
        <time>2020-09-15T15:10:51Z</time>
      </trkpt>
      <trkpt lat="43.92615" lon="7.18308">
        <ele>224</ele>
        <time>2020-09-15T15:10:54Z</time>
      </trkpt>
      <trkpt lat="43.92608" lon="7.18331">
        <ele>222</ele>
        <time>2020-09-15T15:10:57Z</time>
      </trkpt>
      <trkpt lat="43.92592" lon="7.18408">
        <ele>219</ele>
        <time>2020-09-15T15:11:07Z</time>
      </trkpt>
      <trkpt lat="43.92586" lon="7.1843">
        <ele>218</ele>
        <time>2020-09-15T15:11:10Z</time>
      </trkpt>
      <trkpt lat="43.92561" lon="7.18483">
        <ele>220</ele>
        <time>2020-09-15T15:11:18Z</time>
      </trkpt>
      <trkpt lat="43.92553" lon="7.1851">
        <ele>219</ele>
        <time>2020-09-15T15:11:22Z</time>
      </trkpt>
      <trkpt lat="43.92545" lon="7.18547">
        <ele>219</ele>
        <time>2020-09-15T15:11:27Z</time>
      </trkpt>
      <trkpt lat="43.92504" lon="7.18611">
        <ele>220</ele>
        <time>2020-09-15T15:11:38Z</time>
      </trkpt>
      <trkpt lat="43.92487" lon="7.18634">
        <ele>219</ele>
        <time>2020-09-15T15:11:42Z</time>
      </trkpt>
      <trkpt lat="43.92477" lon="7.18641">
        <ele>219</ele>
        <time>2020-09-15T15:11:44Z</time>
      </trkpt>
      <trkpt lat="43.92458" lon="7.18646">
        <ele>219</ele>
        <time>2020-09-15T15:11:47Z</time>
      </trkpt>
      <trkpt lat="43.92415" lon="7.18644">
        <ele>221</ele>
        <time>2020-09-15T15:11:55Z</time>
      </trkpt>
      <trkpt lat="43.92353" lon="7.18636">
        <ele>219</ele>
        <time>2020-09-15T15:12:06Z</time>
      </trkpt>
      <trkpt lat="43.92341" lon="7.18632">
        <ele>219</ele>
        <time>2020-09-15T15:12:08Z</time>
      </trkpt>
      <trkpt lat="43.92278" lon="7.18591">
        <ele>228</ele>
        <time>2020-09-15T15:12:21Z</time>
      </trkpt>
      <trkpt lat="43.9227" lon="7.18587">
        <ele>229</ele>
        <time>2020-09-15T15:12:22Z</time>
      </trkpt>
      <trkpt lat="43.9226" lon="7.18587">
        <ele>228</ele>
        <time>2020-09-15T15:12:24Z</time>
      </trkpt>
      <trkpt lat="43.92249" lon="7.1859">
        <ele>227</ele>
        <time>2020-09-15T15:12:26Z</time>
      </trkpt>
      <trkpt lat="43.92195" lon="7.18614">
        <ele>227</ele>
        <time>2020-09-15T15:12:36Z</time>
      </trkpt>
      <trkpt lat="43.92127" lon="7.18656">
        <ele>227</ele>
        <time>2020-09-15T15:12:49Z</time>
      </trkpt>
      <trkpt lat="43.92111" lon="7.18673">
        <ele>227</ele>
        <time>2020-09-15T15:12:53Z</time>
      </trkpt>
      <trkpt lat="43.92082" lon="7.18755">
        <ele>213</ele>
        <time>2020-09-15T15:13:05Z</time>
      </trkpt>
      <trkpt lat="43.92074" lon="7.18769">
        <ele>217</ele>
        <time>2020-09-15T15:13:07Z</time>
      </trkpt>
      <trkpt lat="43.92062" lon="7.18782">
        <ele>220</ele>
        <time>2020-09-15T15:13:10Z</time>
      </trkpt>
      <trkpt lat="43.92047" lon="7.18792">
        <ele>224</ele>
        <time>2020-09-15T15:13:13Z</time>
      </trkpt>
      <trkpt lat="43.92031" lon="7.18798">
        <ele>226</ele>
        <time>2020-09-15T15:13:16Z</time>
      </trkpt>
      <trkpt lat="43.91971" lon="7.18807">
        <ele>245</ele>
        <time>2020-09-15T15:13:26Z</time>
      </trkpt>
      <trkpt lat="43.91956" lon="7.18812">
        <ele>251</ele>
        <time>2020-09-15T15:13:29Z</time>
      </trkpt>
      <trkpt lat="43.91947" lon="7.1882">
        <ele>253</ele>
        <time>2020-09-15T15:13:31Z</time>
      </trkpt>
      <trkpt lat="43.91936" lon="7.18833">
        <ele>254</ele>
        <time>2020-09-15T15:13:34Z</time>
      </trkpt>
      <trkpt lat="43.91905" lon="7.18886">
        <ele>253</ele>
        <time>2020-09-15T15:13:42Z</time>
      </trkpt>
      <trkpt lat="43.91863" lon="7.18948">
        <ele>260</ele>
        <time>2020-09-15T15:13:53Z</time>
      </trkpt>
      <trkpt lat="43.91854" lon="7.18954">
        <ele>261</ele>
        <time>2020-09-15T15:13:55Z</time>
      </trkpt>
      <trkpt lat="43.91779" lon="7.18956">
        <ele>272</ele>
        <time>2020-09-15T15:14:08Z</time>
      </trkpt>
      <trkpt lat="43.91761" lon="7.18955">
        <ele>276</ele>
        <time>2020-09-15T15:14:12Z</time>
      </trkpt>
      <trkpt lat="43.91739" lon="7.18946">
        <ele>277</ele>
        <time>2020-09-15T15:14:16Z</time>
      </trkpt>
      <trkpt lat="43.91671" lon="7.18905">
        <ele>256</ele>
        <time>2020-09-15T15:14:29Z</time>
      </trkpt>
      <trkpt lat="43.91639" lon="7.18875">
        <ele>260</ele>
        <time>2020-09-15T15:14:36Z</time>
      </trkpt>
      <trkpt lat="43.91621" lon="7.18849">
        <ele>251</ele>
        <time>2020-09-15T15:14:40Z</time>
      </trkpt>
      <trkpt lat="43.91568" lon="7.18754">
        <ele>221</ele>
        <time>2020-09-15T15:14:56Z</time>
      </trkpt>
      <trkpt lat="43.9156" lon="7.18744">
        <ele>223</ele>
        <time>2020-09-15T15:14:58Z</time>
      </trkpt>
      <trkpt lat="43.91544" lon="7.18732">
        <ele>226</ele>
        <time>2020-09-15T15:15:01Z</time>
      </trkpt>
      <trkpt lat="43.91534" lon="7.18728">
        <ele>224</ele>
        <time>2020-09-15T15:15:03Z</time>
      </trkpt>
      <trkpt lat="43.91517" lon="7.18726">
        <ele>217</ele>
        <time>2020-09-15T15:15:06Z</time>
      </trkpt>
      <trkpt lat="43.91509" lon="7.18727">
        <ele>214</ele>
        <time>2020-09-15T15:15:07Z</time>
      </trkpt>
      <trkpt lat="43.91499" lon="7.18733">
        <ele>210</ele>
        <time>2020-09-15T15:15:09Z</time>
      </trkpt>
      <trkpt lat="43.91488" lon="7.18742">
        <ele>209</ele>
        <time>2020-09-15T15:15:11Z</time>
      </trkpt>
      <trkpt lat="43.91455" lon="7.18782">
        <ele>238</ele>
        <time>2020-09-15T15:15:19Z</time>
      </trkpt>
      <trkpt lat="43.91436" lon="7.18802">
        <ele>257</ele>
        <time>2020-09-15T15:15:23Z</time>
      </trkpt>
      <trkpt lat="43.91378" lon="7.1883">
        <ele>285</ele>
        <time>2020-09-15T15:15:34Z</time>
      </trkpt>
      <trkpt lat="43.91355" lon="7.1883">
        <ele>285</ele>
        <time>2020-09-15T15:15:38Z</time>
      </trkpt>
      <trkpt lat="43.91345" lon="7.18826">
        <ele>281</ele>
        <time>2020-09-15T15:15:40Z</time>
      </trkpt>
      <trkpt lat="43.91332" lon="7.18812">
        <ele>266</ele>
        <time>2020-09-15T15:15:43Z</time>
      </trkpt>
      <trkpt lat="43.91317" lon="7.18801">
        <ele>254</ele>
        <time>2020-09-15T15:15:46Z</time>
      </trkpt>
      <trkpt lat="43.91308" lon="7.18791">
        <ele>245</ele>
        <time>2020-09-15T15:15:48Z</time>
      </trkpt>
      <trkpt lat="43.91289" lon="7.18756">
        <ele>219</ele>
        <time>2020-09-15T15:15:54Z</time>
      </trkpt>
      <trkpt lat="43.91286" lon="7.18741">
        <ele>214</ele>
        <time>2020-09-15T15:15:56Z</time>
      </trkpt>
      <trkpt lat="43.91282" lon="7.18704">
        <ele>210</ele>
        <time>2020-09-15T15:16:01Z</time>
      </trkpt>
      <trkpt lat="43.91277" lon="7.1869">
        <ele>208</ele>
        <time>2020-09-15T15:16:03Z</time>
      </trkpt>
      <trkpt lat="43.91243" lon="7.18635">
        <ele>203</ele>
        <time>2020-09-15T15:16:12Z</time>
      </trkpt>
      <trkpt lat="43.9123" lon="7.18597">
        <ele>193</ele>
        <time>2020-09-15T15:16:17Z</time>
      </trkpt>
      <trkpt lat="43.91223" lon="7.18588">
        <ele>191</ele>
        <time>2020-09-15T15:16:19Z</time>
      </trkpt>
      <trkpt lat="43.91216" lon="7.18582">
        <ele>190</ele>
        <time>2020-09-15T15:16:21Z</time>
      </trkpt>
      <trkpt lat="43.912" lon="7.1858">
        <ele>191</ele>
        <time>2020-09-15T15:16:23Z</time>
      </trkpt>
      <trkpt lat="43.91142" lon="7.18582">
        <ele>192</ele>
        <time>2020-09-15T15:16:34Z</time>
      </trkpt>
      <trkpt lat="43.91132" lon="7.18591">
        <ele>194</ele>
        <time>2020-09-15T15:16:36Z</time>
      </trkpt>
      <trkpt lat="43.91122" lon="7.18607">
        <ele>197</ele>
        <time>2020-09-15T15:16:39Z</time>
      </trkpt>
      <trkpt lat="43.91082" lon="7.18701">
        <ele>208</ele>
        <time>2020-09-15T15:16:53Z</time>
      </trkpt>
      <trkpt lat="43.91075" lon="7.18712">
        <ele>210</ele>
        <time>2020-09-15T15:16:54Z</time>
      </trkpt>
      <trkpt lat="43.91033" lon="7.18757">
        <ele>207</ele>
        <time>2020-09-15T15:17:04Z</time>
      </trkpt>
      <trkpt lat="43.91015" lon="7.18791">
        <ele>217</ele>
        <time>2020-09-15T15:17:09Z</time>
      </trkpt>
      <trkpt lat="43.91009" lon="7.18801">
        <ele>219</ele>
        <time>2020-09-15T15:17:11Z</time>
      </trkpt>
      <trkpt lat="43.90995" lon="7.18814">
        <ele>224</ele>
        <time>2020-09-15T15:17:14Z</time>
      </trkpt>
      <trkpt lat="43.90985" lon="7.18817">
        <ele>230</ele>
        <time>2020-09-15T15:17:16Z</time>
      </trkpt>
      <trkpt lat="43.90976" lon="7.18817">
        <ele>234</ele>
        <time>2020-09-15T15:17:17Z</time>
      </trkpt>
      <trkpt lat="43.90938" lon="7.18818">
        <ele>253</ele>
        <time>2020-09-15T15:17:24Z</time>
      </trkpt>
      <trkpt lat="43.90894" lon="7.18812">
        <ele>268</ele>
        <time>2020-09-15T15:17:32Z</time>
      </trkpt>
      <trkpt lat="43.90874" lon="7.18814">
        <ele>273</ele>
        <time>2020-09-15T15:17:36Z</time>
      </trkpt>
      <trkpt lat="43.90881" lon="7.18807">
        <ele>271</ele>
        <time>2020-09-15T15:17:37Z</time>
      </trkpt>
      <trkpt lat="43.90885" lon="7.18803">
        <ele>270</ele>
        <time>2020-09-15T15:17:38Z</time>
      </trkpt>
      <trkpt lat="43.90887" lon="7.18799">
        <ele>269</ele>
        <time>2020-09-15T15:17:39Z</time>
      </trkpt>
      <trkpt lat="43.90901" lon="7.18758">
        <ele>256</ele>
        <time>2020-09-15T15:17:44Z</time>
      </trkpt>
      <trkpt lat="43.90905" lon="7.18751">
        <ele>252</ele>
        <time>2020-09-15T15:17:46Z</time>
      </trkpt>
      <trkpt lat="43.90912" lon="7.18744">
        <ele>248</ele>
        <time>2020-09-15T15:17:47Z</time>
      </trkpt>
      <trkpt lat="43.90918" lon="7.18741">
        <ele>245</ele>
        <time>2020-09-15T15:17:48Z</time>
      </trkpt>
      <trkpt lat="43.90927" lon="7.1874">
        <ele>239</ele>
        <time>2020-09-15T15:17:50Z</time>
      </trkpt>
      <trkpt lat="43.90936" lon="7.18737">
        <ele>233</ele>
        <time>2020-09-15T15:17:51Z</time>
      </trkpt>
      <trkpt lat="43.90946" lon="7.1873">
        <ele>228</ele>
        <time>2020-09-15T15:17:53Z</time>
      </trkpt>
      <trkpt lat="43.90954" lon="7.1872">
        <ele>224</ele>
        <time>2020-09-15T15:17:55Z</time>
      </trkpt>
      <trkpt lat="43.90997" lon="7.1865">
        <ele>203</ele>
        <time>2020-09-15T15:18:07Z</time>
      </trkpt>
      <trkpt lat="43.91068" lon="7.1855">
        <ele>202</ele>
        <time>2020-09-15T15:18:25Z</time>
      </trkpt>
      <trkpt lat="43.91089" lon="7.18518">
        <ele>197</ele>
        <time>2020-09-15T15:18:31Z</time>
      </trkpt>
      <trkpt lat="43.9109" lon="7.18514">
        <ele>198</ele>
        <time>2020-09-15T15:18:31Z</time>
      </trkpt>
      <trkpt lat="43.9109" lon="7.18506">
        <ele>199</ele>
        <time>2020-09-15T15:18:32Z</time>
      </trkpt>
      <trkpt lat="43.91117" lon="7.18464">
        <ele>209</ele>
        <time>2020-09-15T15:18:39Z</time>
      </trkpt>
      <trkpt lat="43.91127" lon="7.18443">
        <ele>212</ele>
        <time>2020-09-15T15:18:43Z</time>
      </trkpt>
      <trkpt lat="43.91134" lon="7.18425">
        <ele>214</ele>
        <time>2020-09-15T15:18:45Z</time>
      </trkpt>
      <trkpt lat="43.91157" lon="7.1836">
        <ele>208</ele>
        <time>2020-09-15T15:18:55Z</time>
      </trkpt>
      <trkpt lat="43.91183" lon="7.18251">
        <ele>207</ele>
        <time>2020-09-15T15:19:09Z</time>
      </trkpt>
      <trkpt lat="43.91187" lon="7.18197">
        <ele>229</ele>
        <time>2020-09-15T15:19:16Z</time>
      </trkpt>
      <trkpt lat="43.91196" lon="7.18143">
        <ele>242</ele>
        <time>2020-09-15T15:19:23Z</time>
      </trkpt>
      <trkpt lat="43.91211" lon="7.18102">
        <ele>238</ele>
        <time>2020-09-15T15:19:29Z</time>
      </trkpt>
      <trkpt lat="43.91269" lon="7.17991">
        <ele>221</ele>
        <time>2020-09-15T15:19:47Z</time>
      </trkpt>
      <trkpt lat="43.91298" lon="7.17926">
        <ele>225</ele>
        <time>2020-09-15T15:19:57Z</time>
      </trkpt>
      <trkpt lat="43.91324" lon="7.17864">
        <ele>221</ele>
        <time>2020-09-15T15:20:06Z</time>
      </trkpt>
      <trkpt lat="43.91356" lon="7.17793">
        <ele>233</ele>
        <time>2020-09-15T15:20:17Z</time>
      </trkpt>
      <trkpt lat="43.91371" lon="7.17754">
        <ele>231</ele>
        <time>2020-09-15T15:20:22Z</time>
      </trkpt>
      <trkpt lat="43.91394" lon="7.17626">
        <ele>225</ele>
        <time>2020-09-15T15:20:39Z</time>
      </trkpt>
      <trkpt lat="43.9141" lon="7.1757">
        <ele>221</ele>
        <time>2020-09-15T15:20:47Z</time>
      </trkpt>
      <trkpt lat="43.91417" lon="7.17553">
        <ele>219</ele>
        <time>2020-09-15T15:20:49Z</time>
      </trkpt>
      <trkpt lat="43.91429" lon="7.1753">
        <ele>221</ele>
        <time>2020-09-15T15:20:53Z</time>
      </trkpt>
      <trkpt lat="43.9147" lon="7.17485">
        <ele>204</ele>
        <time>2020-09-15T15:21:02Z</time>
      </trkpt>
      <trkpt lat="43.91492" lon="7.17457">
        <ele>195</ele>
        <time>2020-09-15T15:21:08Z</time>
      </trkpt>
      <trkpt lat="43.91532" lon="7.17381">
        <ele>193</ele>
        <time>2020-09-15T15:21:20Z</time>
      </trkpt>
      <trkpt lat="43.91643" lon="7.17186">
        <ele>201</ele>
        <time>2020-09-15T15:21:52Z</time>
      </trkpt>
      <trkpt lat="43.91683" lon="7.17133">
        <ele>202</ele>
        <time>2020-09-15T15:22:01Z</time>
      </trkpt>
      <trkpt lat="43.91725" lon="7.17082">
        <ele>200</ele>
        <time>2020-09-15T15:22:11Z</time>
      </trkpt>
      <trkpt lat="43.91759" lon="7.17022">
        <ele>198</ele>
        <time>2020-09-15T15:22:21Z</time>
      </trkpt>
      <trkpt lat="43.9179" lon="7.16958">
        <ele>202</ele>
        <time>2020-09-15T15:22:31Z</time>
      </trkpt>
      <trkpt lat="43.91813" lon="7.16902">
        <ele>202</ele>
        <time>2020-09-15T15:22:39Z</time>
      </trkpt>
      <trkpt lat="43.9183" lon="7.16855">
        <ele>201</ele>
        <time>2020-09-15T15:22:46Z</time>
      </trkpt>
      <trkpt lat="43.91837" lon="7.16808">
        <ele>202</ele>
        <time>2020-09-15T15:22:52Z</time>
      </trkpt>
      <trkpt lat="43.91842" lon="7.16759">
        <ele>203</ele>
        <time>2020-09-15T15:22:59Z</time>
      </trkpt>
      <trkpt lat="43.9185" lon="7.166">
        <ele>207</ele>
        <time>2020-09-15T15:23:19Z</time>
      </trkpt>
      <trkpt lat="43.91849" lon="7.16569">
        <ele>207</ele>
        <time>2020-09-15T15:23:23Z</time>
      </trkpt>
      <trkpt lat="43.91846" lon="7.16551">
        <ele>206</ele>
        <time>2020-09-15T15:23:25Z</time>
      </trkpt>
      <trkpt lat="43.91839" lon="7.16525">
        <ele>205</ele>
        <time>2020-09-15T15:23:29Z</time>
      </trkpt>
      <trkpt lat="43.91808" lon="7.16445">
        <ele>223</ele>
        <time>2020-09-15T15:23:40Z</time>
      </trkpt>
      <trkpt lat="43.91805" lon="7.16422">
        <ele>227</ele>
        <time>2020-09-15T15:23:43Z</time>
      </trkpt>
      <trkpt lat="43.91804" lon="7.16398">
        <ele>230</ele>
        <time>2020-09-15T15:23:47Z</time>
      </trkpt>
      <trkpt lat="43.91806" lon="7.1638">
        <ele>231</ele>
        <time>2020-09-15T15:23:49Z</time>
      </trkpt>
      <trkpt lat="43.9181" lon="7.16362">
        <ele>229</ele>
        <time>2020-09-15T15:23:51Z</time>
      </trkpt>
      <trkpt lat="43.91877" lon="7.16201">
        <ele>218</ele>
        <time>2020-09-15T15:24:15Z</time>
      </trkpt>
      <trkpt lat="43.9189" lon="7.16176">
        <ele>215</ele>
        <time>2020-09-15T15:24:19Z</time>
      </trkpt>
      <trkpt lat="43.91904" lon="7.16154">
        <ele>212</ele>
        <time>2020-09-15T15:24:23Z</time>
      </trkpt>
      <trkpt lat="43.91991" lon="7.16048">
        <ele>209</ele>
        <time>2020-09-15T15:24:43Z</time>
      </trkpt>
      <trkpt lat="43.92015" lon="7.16014">
        <ele>209</ele>
        <time>2020-09-15T15:24:50Z</time>
      </trkpt>
      <trkpt lat="43.92026" lon="7.15992">
        <ele>210</ele>
        <time>2020-09-15T15:24:53Z</time>
      </trkpt>
      <trkpt lat="43.92036" lon="7.15967">
        <ele>212</ele>
        <time>2020-09-15T15:24:57Z</time>
      </trkpt>
      <trkpt lat="43.92056" lon="7.15867">
        <ele>221</ele>
        <time>2020-09-15T15:25:10Z</time>
      </trkpt>
      <trkpt lat="43.92064" lon="7.15845">
        <ele>222</ele>
        <time>2020-09-15T15:25:13Z</time>
      </trkpt>
      <trkpt lat="43.92077" lon="7.15818">
        <ele>223</ele>
        <time>2020-09-15T15:25:17Z</time>
      </trkpt>
      <trkpt lat="43.92146" lon="7.15726">
        <ele>219</ele>
        <time>2020-09-15T15:25:34Z</time>
      </trkpt>
      <trkpt lat="43.92158" lon="7.15703">
        <ele>218</ele>
        <time>2020-09-15T15:25:38Z</time>
      </trkpt>
      <trkpt lat="43.92167" lon="7.15679">
        <ele>217</ele>
        <time>2020-09-15T15:25:41Z</time>
      </trkpt>
      <trkpt lat="43.92182" lon="7.15609">
        <ele>223</ele>
        <time>2020-09-15T15:25:51Z</time>
      </trkpt>
      <trkpt lat="43.92197" lon="7.15562">
        <ele>223</ele>
        <time>2020-09-15T15:25:57Z</time>
      </trkpt>
      <trkpt lat="43.92227" lon="7.15485">
        <ele>223</ele>
        <time>2020-09-15T15:26:09Z</time>
      </trkpt>
      <trkpt lat="43.92241" lon="7.15463">
        <ele>220</ele>
        <time>2020-09-15T15:26:12Z</time>
      </trkpt>
      <trkpt lat="43.923" lon="7.15407">
        <ele>216</ele>
        <time>2020-09-15T15:26:25Z</time>
      </trkpt>
      <trkpt lat="43.92314" lon="7.15386">
        <ele>216</ele>
        <time>2020-09-15T15:26:29Z</time>
      </trkpt>
      <trkpt lat="43.92329" lon="7.1536">
        <ele>216</ele>
        <time>2020-09-15T15:26:33Z</time>
      </trkpt>
      <trkpt lat="43.92339" lon="7.15326">
        <ele>217</ele>
        <time>2020-09-15T15:26:38Z</time>
      </trkpt>
      <trkpt lat="43.92345" lon="7.1529">
        <ele>220</ele>
        <time>2020-09-15T15:26:42Z</time>
      </trkpt>
      <trkpt lat="43.92353" lon="7.15254">
        <ele>221</ele>
        <time>2020-09-15T15:26:47Z</time>
      </trkpt>
      <trkpt lat="43.92364" lon="7.1522">
        <ele>224</ele>
        <time>2020-09-15T15:26:52Z</time>
      </trkpt>
      <trkpt lat="43.92373" lon="7.152">
        <ele>225</ele>
        <time>2020-09-15T15:26:55Z</time>
      </trkpt>
      <trkpt lat="43.92397" lon="7.15167">
        <ele>221</ele>
        <time>2020-09-15T15:27:01Z</time>
      </trkpt>
      <trkpt lat="43.92421" lon="7.15137">
        <ele>220</ele>
        <time>2020-09-15T15:27:07Z</time>
      </trkpt>
      <trkpt lat="43.92478" lon="7.15052">
        <ele>219</ele>
        <time>2020-09-15T15:27:22Z</time>
      </trkpt>
      <trkpt lat="43.92537" lon="7.14926">
        <ele>222</ele>
        <time>2020-09-15T15:27:41Z</time>
      </trkpt>
      <trkpt lat="43.92557" lon="7.14891">
        <ele>225</ele>
        <time>2020-09-15T15:27:47Z</time>
      </trkpt>
      <trkpt lat="43.92579" lon="7.14856">
        <ele>226</ele>
        <time>2020-09-15T15:27:53Z</time>
      </trkpt>
      <trkpt lat="43.92609" lon="7.1483">
        <ele>225</ele>
        <time>2020-09-15T15:27:59Z</time>
      </trkpt>
      <trkpt lat="43.92668" lon="7.14804">
        <ele>220</ele>
        <time>2020-09-15T15:28:10Z</time>
      </trkpt>
      <trkpt lat="43.92698" lon="7.14802">
        <ele>222</ele>
        <time>2020-09-15T15:28:15Z</time>
      </trkpt>
      <trkpt lat="43.9275" lon="7.14813">
        <ele>220</ele>
        <time>2020-09-15T15:28:25Z</time>
      </trkpt>
      <trkpt lat="43.92771" lon="7.14814">
        <ele>220</ele>
        <time>2020-09-15T15:28:28Z</time>
      </trkpt>
      <trkpt lat="43.92817" lon="7.14801">
        <ele>225</ele>
        <time>2020-09-15T15:28:37Z</time>
      </trkpt>
      <trkpt lat="43.92846" lon="7.14798">
        <ele>225</ele>
        <time>2020-09-15T15:28:42Z</time>
      </trkpt>
      <trkpt lat="43.92872" lon="7.14789">
        <ele>226</ele>
        <time>2020-09-15T15:28:47Z</time>
      </trkpt>
      <trkpt lat="43.92902" lon="7.14775">
        <ele>227</ele>
        <time>2020-09-15T15:28:52Z</time>
      </trkpt>
      <trkpt lat="43.92918" lon="7.14764">
        <ele>227</ele>
        <time>2020-09-15T15:28:55Z</time>
      </trkpt>
      <trkpt lat="43.92932" lon="7.14751">
        <ele>227</ele>
        <time>2020-09-15T15:28:58Z</time>
      </trkpt>
      <trkpt lat="43.92944" lon="7.14738">
        <ele>228</ele>
        <time>2020-09-15T15:29:01Z</time>
      </trkpt>
      <trkpt lat="43.9299" lon="7.14651">
        <ele>229</ele>
        <time>2020-09-15T15:29:15Z</time>
      </trkpt>
      <trkpt lat="43.93072" lon="7.14545">
        <ele>224</ele>
        <time>2020-09-15T15:29:35Z</time>
      </trkpt>
      <trkpt lat="43.93088" lon="7.14521">
        <ele>223</ele>
        <time>2020-09-15T15:29:39Z</time>
      </trkpt>
      <trkpt lat="43.93097" lon="7.14501">
        <ele>225</ele>
        <time>2020-09-15T15:29:42Z</time>
      </trkpt>
      <trkpt lat="43.93106" lon="7.1446">
        <ele>230</ele>
        <time>2020-09-15T15:29:48Z</time>
      </trkpt>
      <trkpt lat="43.93115" lon="7.14429">
        <ele>232</ele>
        <time>2020-09-15T15:29:52Z</time>
      </trkpt>
      <trkpt lat="43.93125" lon="7.14407">
        <ele>233</ele>
        <time>2020-09-15T15:29:55Z</time>
      </trkpt>
      <trkpt lat="43.93162" lon="7.14362">
        <ele>230</ele>
        <time>2020-09-15T15:30:04Z</time>
      </trkpt>
      <trkpt lat="43.93186" lon="7.14337">
        <ele>230</ele>
        <time>2020-09-15T15:30:09Z</time>
      </trkpt>
      <trkpt lat="43.9321" lon="7.14318">
        <ele>229</ele>
        <time>2020-09-15T15:30:14Z</time>
      </trkpt>
      <trkpt lat="43.93252" lon="7.14258">
        <ele>226</ele>
        <time>2020-09-15T15:30:25Z</time>
      </trkpt>
      <trkpt lat="43.93267" lon="7.14222">
        <ele>231</ele>
        <time>2020-09-15T15:30:30Z</time>
      </trkpt>
      <trkpt lat="43.93312" lon="7.14046">
        <ele>235</ele>
        <time>2020-09-15T15:30:54Z</time>
      </trkpt>
      <trkpt lat="43.9333" lon="7.13991">
        <ele>230</ele>
        <time>2020-09-15T15:31:02Z</time>
      </trkpt>
      <trkpt lat="43.93334" lon="7.1393">
        <ele>230</ele>
        <time>2020-09-15T15:31:10Z</time>
      </trkpt>
      <trkpt lat="43.93313" lon="7.13851">
        <ele>232</ele>
        <time>2020-09-15T15:31:21Z</time>
      </trkpt>
      <trkpt lat="43.93273" lon="7.13784">
        <ele>232</ele>
        <time>2020-09-15T15:31:32Z</time>
      </trkpt>
      <trkpt lat="43.9318" lon="7.13705">
        <ele>254</ele>
        <time>2020-09-15T15:31:51Z</time>
      </trkpt>
      <trkpt lat="43.93125" lon="7.13576">
        <ele>244</ele>
        <time>2020-09-15T15:32:10Z</time>
      </trkpt>
      <trkpt lat="43.93115" lon="7.13509">
        <ele>244</ele>
        <time>2020-09-15T15:32:19Z</time>
      </trkpt>
      <trkpt lat="43.93138" lon="7.13271">
        <ele>233</ele>
        <time>2020-09-15T15:32:50Z</time>
      </trkpt>
      <trkpt lat="43.93144" lon="7.13249">
        <ele>231</ele>
        <time>2020-09-15T15:32:53Z</time>
      </trkpt>
      <trkpt lat="43.9315" lon="7.13236">
        <ele>231</ele>
        <time>2020-09-15T15:32:55Z</time>
      </trkpt>
      <trkpt lat="43.93159" lon="7.13223">
        <ele>230</ele>
        <time>2020-09-15T15:32:57Z</time>
      </trkpt>
      <trkpt lat="43.93175" lon="7.1321">
        <ele>229</ele>
        <time>2020-09-15T15:33:01Z</time>
      </trkpt>
      <trkpt lat="43.93196" lon="7.13199">
        <ele>228</ele>
        <time>2020-09-15T15:33:05Z</time>
      </trkpt>
      <trkpt lat="43.93209" lon="7.13189">
        <ele>227</ele>
        <time>2020-09-15T15:33:07Z</time>
      </trkpt>
      <trkpt lat="43.93312" lon="7.13052">
        <ele>234</ele>
        <time>2020-09-15T15:33:33Z</time>
      </trkpt>
      <trkpt lat="43.93344" lon="7.13018">
        <ele>238</ele>
        <time>2020-09-15T15:33:40Z</time>
      </trkpt>
      <trkpt lat="43.93362" lon="7.12994">
        <ele>240</ele>
        <time>2020-09-15T15:33:44Z</time>
      </trkpt>
      <trkpt lat="43.93443" lon="7.12891">
        <ele>243</ele>
        <time>2020-09-15T15:34:04Z</time>
      </trkpt>
      <trkpt lat="43.93472" lon="7.12842">
        <ele>241</ele>
        <time>2020-09-15T15:34:12Z</time>
      </trkpt>
      <trkpt lat="43.93489" lon="7.12798">
        <ele>237</ele>
        <time>2020-09-15T15:34:18Z</time>
      </trkpt>
      <trkpt lat="43.9351" lon="7.127">
        <ele>239</ele>
        <time>2020-09-15T15:34:31Z</time>
      </trkpt>
      <trkpt lat="43.93519" lon="7.12666">
        <ele>240</ele>
        <time>2020-09-15T15:34:36Z</time>
      </trkpt>
      <trkpt lat="43.93553" lon="7.12577">
        <ele>240</ele>
        <time>2020-09-15T15:34:49Z</time>
      </trkpt>
      <trkpt lat="43.93561" lon="7.12543">
        <ele>240</ele>
        <time>2020-09-15T15:34:53Z</time>
      </trkpt>
      <trkpt lat="43.9357" lon="7.12452">
        <ele>240</ele>
        <time>2020-09-15T15:35:05Z</time>
      </trkpt>
      <trkpt lat="43.93568" lon="7.12429">
        <ele>241</ele>
        <time>2020-09-15T15:35:08Z</time>
      </trkpt>
      <trkpt lat="43.93558" lon="7.12361">
        <ele>242</ele>
        <time>2020-09-15T15:35:17Z</time>
      </trkpt>
      <trkpt lat="43.93551" lon="7.12333">
        <ele>242</ele>
        <time>2020-09-15T15:35:21Z</time>
      </trkpt>
      <trkpt lat="43.93541" lon="7.12303">
        <ele>242</ele>
        <time>2020-09-15T15:35:25Z</time>
      </trkpt>
      <trkpt lat="43.93529" lon="7.12276">
        <ele>240</ele>
        <time>2020-09-15T15:35:29Z</time>
      </trkpt>
      <trkpt lat="43.93511" lon="7.12244">
        <ele>238</ele>
        <time>2020-09-15T15:35:34Z</time>
      </trkpt>
      <trkpt lat="43.93482" lon="7.12198">
        <ele>242</ele>
        <time>2020-09-15T15:35:42Z</time>
      </trkpt>
      <trkpt lat="43.93471" lon="7.12186">
        <ele>245</ele>
        <time>2020-09-15T15:35:45Z</time>
      </trkpt>
      <trkpt lat="43.93344" lon="7.12061">
        <ele>251</ele>
        <time>2020-09-15T15:36:12Z</time>
      </trkpt>
      <trkpt lat="43.93303" lon="7.1201">
        <ele>262</ele>
        <time>2020-09-15T15:36:22Z</time>
      </trkpt>
      <trkpt lat="43.93289" lon="7.1199">
        <ele>266</ele>
        <time>2020-09-15T15:36:26Z</time>
      </trkpt>
      <trkpt lat="43.93283" lon="7.11927">
        <ele>251</ele>
        <time>2020-09-15T15:36:34Z</time>
      </trkpt>
      <trkpt lat="43.93275" lon="7.11908">
        <ele>249</ele>
        <time>2020-09-15T15:36:37Z</time>
      </trkpt>
      <trkpt lat="43.93247" lon="7.11856">
        <ele>242</ele>
        <time>2020-09-15T15:36:45Z</time>
      </trkpt>
      <trkpt lat="43.93236" lon="7.11844">
        <ele>240</ele>
        <time>2020-09-15T15:36:48Z</time>
      </trkpt>
      <trkpt lat="43.9319" lon="7.11805">
        <ele>237</ele>
        <time>2020-09-15T15:36:57Z</time>
      </trkpt>
      <trkpt lat="43.93156" lon="7.1177">
        <ele>235</ele>
        <time>2020-09-15T15:37:05Z</time>
      </trkpt>
      <trkpt lat="43.93147" lon="7.11757">
        <ele>234</ele>
        <time>2020-09-15T15:37:07Z</time>
      </trkpt>
      <trkpt lat="43.93133" lon="7.11731">
        <ele>234</ele>
        <time>2020-09-15T15:37:11Z</time>
      </trkpt>
      <trkpt lat="43.9312" lon="7.11699">
        <ele>234</ele>
        <time>2020-09-15T15:37:16Z</time>
      </trkpt>
      <trkpt lat="43.93108" lon="7.11657">
        <ele>233</ele>
        <time>2020-09-15T15:37:22Z</time>
      </trkpt>
      <trkpt lat="43.93102" lon="7.11607">
        <ele>234</ele>
        <time>2020-09-15T15:37:28Z</time>
      </trkpt>
      <trkpt lat="43.93101" lon="7.11572">
        <ele>234</ele>
        <time>2020-09-15T15:37:33Z</time>
      </trkpt>
      <trkpt lat="43.93115" lon="7.11429">
        <ele>235</ele>
        <time>2020-09-15T15:37:51Z</time>
      </trkpt>
      <trkpt lat="43.93117" lon="7.11389">
        <ele>235</ele>
        <time>2020-09-15T15:37:56Z</time>
      </trkpt>
      <trkpt lat="43.93114" lon="7.11328">
        <ele>234</ele>
        <time>2020-09-15T15:38:04Z</time>
      </trkpt>
      <trkpt lat="43.93105" lon="7.11259">
        <ele>233</ele>
        <time>2020-09-15T15:38:13Z</time>
      </trkpt>
      <trkpt lat="43.93096" lon="7.11217">
        <ele>233</ele>
        <time>2020-09-15T15:38:19Z</time>
      </trkpt>
      <trkpt lat="43.93073" lon="7.11149">
        <ele>233</ele>
        <time>2020-09-15T15:38:28Z</time>
      </trkpt>
      <trkpt lat="43.92995" lon="7.10941">
        <ele>235</ele>
        <time>2020-09-15T15:38:58Z</time>
      </trkpt>
      <trkpt lat="43.9297" lon="7.1086">
        <ele>235</ele>
        <time>2020-09-15T15:39:10Z</time>
      </trkpt>
      <trkpt lat="43.92949" lon="7.10775">
        <ele>235</ele>
        <time>2020-09-15T15:39:21Z</time>
      </trkpt>
      <trkpt lat="43.92933" lon="7.10698">
        <ele>236</ele>
        <time>2020-09-15T15:39:31Z</time>
      </trkpt>
      <trkpt lat="43.92924" lon="7.10621">
        <ele>237</ele>
        <time>2020-09-15T15:39:41Z</time>
      </trkpt>
      <trkpt lat="43.92914" lon="7.10419">
        <ele>239</ele>
        <time>2020-09-15T15:40:07Z</time>
      </trkpt>
      <trkpt lat="43.92912" lon="7.10393">
        <ele>239</ele>
        <time>2020-09-15T15:40:11Z</time>
      </trkpt>
      <trkpt lat="43.92904" lon="7.10356">
        <ele>240</ele>
        <time>2020-09-15T15:40:16Z</time>
      </trkpt>
      <trkpt lat="43.92895" lon="7.10328">
        <ele>240</ele>
        <time>2020-09-15T15:40:20Z</time>
      </trkpt>
      <trkpt lat="43.92881" lon="7.10295">
        <ele>240</ele>
        <time>2020-09-15T15:40:25Z</time>
      </trkpt>
      <trkpt lat="43.92865" lon="7.10263">
        <ele>239</ele>
        <time>2020-09-15T15:40:30Z</time>
      </trkpt>
      <trkpt lat="43.92816" lon="7.10184">
        <ele>240</ele>
        <time>2020-09-15T15:40:43Z</time>
      </trkpt>
      <trkpt lat="43.92802" lon="7.10157">
        <ele>242</ele>
        <time>2020-09-15T15:40:47Z</time>
      </trkpt>
      <trkpt lat="43.92791" lon="7.10131">
        <ele>243</ele>
        <time>2020-09-15T15:40:51Z</time>
      </trkpt>
      <trkpt lat="43.92779" lon="7.1008">
        <ele>245</ele>
        <time>2020-09-15T15:40:58Z</time>
      </trkpt>
      <trkpt lat="43.92776" lon="7.10056">
        <ele>246</ele>
        <time>2020-09-15T15:41:01Z</time>
      </trkpt>
      <trkpt lat="43.92774" lon="7.10014">
        <ele>248</ele>
        <time>2020-09-15T15:41:06Z</time>
      </trkpt>
      <trkpt lat="43.92775" lon="7.09989">
        <ele>249</ele>
        <time>2020-09-15T15:41:10Z</time>
      </trkpt>
      <trkpt lat="43.92785" lon="7.09938">
        <ele>248</ele>
        <time>2020-09-15T15:41:16Z</time>
      </trkpt>
      <trkpt lat="43.92829" lon="7.09784">
        <ele>248</ele>
        <time>2020-09-15T15:41:38Z</time>
      </trkpt>
      <trkpt lat="43.92844" lon="7.09721">
        <ele>254</ele>
        <time>2020-09-15T15:41:46Z</time>
      </trkpt>
      <trkpt lat="43.92863" lon="7.09546">
        <ele>260</ele>
        <time>2020-09-15T15:42:09Z</time>
      </trkpt>
      <trkpt lat="43.9287" lon="7.09509">
        <ele>259</ele>
        <time>2020-09-15T15:42:14Z</time>
      </trkpt>
      <trkpt lat="43.92878" lon="7.0948">
        <ele>259</ele>
        <time>2020-09-15T15:42:18Z</time>
      </trkpt>
      <trkpt lat="43.9289" lon="7.09444">
        <ele>258</ele>
        <time>2020-09-15T15:42:23Z</time>
      </trkpt>
      <trkpt lat="43.92904" lon="7.0941">
        <ele>257</ele>
        <time>2020-09-15T15:42:28Z</time>
      </trkpt>
      <trkpt lat="43.92991" lon="7.09217">
        <ele>252</ele>
        <time>2020-09-15T15:42:57Z</time>
      </trkpt>
      <trkpt lat="43.93014" lon="7.09169">
        <ele>256</ele>
        <time>2020-09-15T15:43:04Z</time>
      </trkpt>
      <trkpt lat="43.93036" lon="7.0913">
        <ele>258</ele>
        <time>2020-09-15T15:43:11Z</time>
      </trkpt>
      <trkpt lat="43.93046" lon="7.09116">
        <ele>259</ele>
        <time>2020-09-15T15:43:13Z</time>
      </trkpt>
      <trkpt lat="43.93091" lon="7.09062">
        <ele>262</ele>
        <time>2020-09-15T15:43:24Z</time>
      </trkpt>
      <trkpt lat="43.9315" lon="7.08996">
        <ele>261</ele>
        <time>2020-09-15T15:43:37Z</time>
      </trkpt>
      <trkpt lat="43.93468" lon="7.08815">
        <ele>260</ele>
        <time>2020-09-15T15:44:38Z</time>
      </trkpt>
      <trkpt lat="43.93609" lon="7.08739">
        <ele>263</ele>
        <time>2020-09-15T15:45:05Z</time>
      </trkpt>
      <trkpt lat="43.9363" lon="7.08723">
        <ele>264</ele>
        <time>2020-09-15T15:45:10Z</time>
      </trkpt>
      <trkpt lat="43.93651" lon="7.08703">
        <ele>266</ele>
        <time>2020-09-15T15:45:14Z</time>
      </trkpt>
      <trkpt lat="43.93674" lon="7.08675">
        <ele>267</ele>
        <time>2020-09-15T15:45:20Z</time>
      </trkpt>
      <trkpt lat="43.93696" lon="7.08632">
        <ele>267</ele>
        <time>2020-09-15T15:45:26Z</time>
      </trkpt>
      <trkpt lat="43.9371" lon="7.08588">
        <ele>266</ele>
        <time>2020-09-15T15:45:33Z</time>
      </trkpt>
      <trkpt lat="43.93718" lon="7.08548">
        <ele>265</ele>
        <time>2020-09-15T15:45:38Z</time>
      </trkpt>
      <trkpt lat="43.93737" lon="7.08406">
        <ele>265</ele>
        <time>2020-09-15T15:45:56Z</time>
      </trkpt>
      <trkpt lat="43.93767" lon="7.08314">
        <ele>266</ele>
        <time>2020-09-15T15:46:09Z</time>
      </trkpt>
      <trkpt lat="43.93776" lon="7.0827">
        <ele>267</ele>
        <time>2020-09-15T15:46:15Z</time>
      </trkpt>
      <trkpt lat="43.93778" lon="7.0823">
        <ele>266</ele>
        <time>2020-09-15T15:46:20Z</time>
      </trkpt>
      <trkpt lat="43.93774" lon="7.08194">
        <ele>264</ele>
        <time>2020-09-15T15:46:25Z</time>
      </trkpt>
      <trkpt lat="43.93745" lon="7.08111">
        <ele>267</ele>
        <time>2020-09-15T15:46:37Z</time>
      </trkpt>
      <trkpt lat="43.93705" lon="7.08019">
        <ele>272</ele>
        <time>2020-09-15T15:46:51Z</time>
      </trkpt>
      <trkpt lat="43.93646" lon="7.07893">
        <ele>282</ele>
        <time>2020-09-15T15:47:10Z</time>
      </trkpt>
      <trkpt lat="43.93618" lon="7.07815">
        <ele>287</ele>
        <time>2020-09-15T15:47:21Z</time>
      </trkpt>
      <trkpt lat="43.93606" lon="7.07771">
        <ele>293</ele>
        <time>2020-09-15T15:47:27Z</time>
      </trkpt>
      <trkpt lat="43.93598" lon="7.07732">
        <ele>295</ele>
        <time>2020-09-15T15:47:32Z</time>
      </trkpt>
      <trkpt lat="43.93599" lon="7.07691">
        <ele>299</ele>
        <time>2020-09-15T15:47:37Z</time>
      </trkpt>
      <trkpt lat="43.93595" lon="7.07645">
        <ele>297</ele>
        <time>2020-09-15T15:47:43Z</time>
      </trkpt>
      <trkpt lat="43.93591" lon="7.07509">
        <ele>286</ele>
        <time>2020-09-15T15:48:01Z</time>
      </trkpt>
      <trkpt lat="43.9361" lon="7.07334">
        <ele>289</ele>
        <time>2020-09-15T15:48:23Z</time>
      </trkpt>
      <trkpt lat="43.93617" lon="7.07253">
        <ele>297</ele>
        <time>2020-09-15T15:48:34Z</time>
      </trkpt>
      <trkpt lat="43.93607" lon="7.07191">
        <ele>294</ele>
        <time>2020-09-15T15:48:42Z</time>
      </trkpt>
      <trkpt lat="43.93594" lon="7.07158">
        <ele>289</ele>
        <time>2020-09-15T15:48:47Z</time>
      </trkpt>
      <trkpt lat="43.93585" lon="7.07126">
        <ele>284</ele>
        <time>2020-09-15T15:48:51Z</time>
      </trkpt>
      <trkpt lat="43.93584" lon="7.07097">
        <ele>283</ele>
        <time>2020-09-15T15:48:55Z</time>
      </trkpt>
      <trkpt lat="43.93593" lon="7.07022">
        <ele>285</ele>
        <time>2020-09-15T15:49:05Z</time>
      </trkpt>
      <trkpt lat="43.93596" lon="7.06982">
        <ele>287</ele>
        <time>2020-09-15T15:49:10Z</time>
      </trkpt>
      <trkpt lat="43.93591" lon="7.06951">
        <ele>287</ele>
        <time>2020-09-15T15:49:14Z</time>
      </trkpt>
      <trkpt lat="43.93549" lon="7.06783">
        <ele>292</ele>
        <time>2020-09-15T15:49:37Z</time>
      </trkpt>
      <trkpt lat="43.93544" lon="7.06756">
        <ele>293</ele>
        <time>2020-09-15T15:49:40Z</time>
      </trkpt>
      <trkpt lat="43.93545" lon="7.06732">
        <ele>294</ele>
        <time>2020-09-15T15:49:43Z</time>
      </trkpt>
      <trkpt lat="43.93549" lon="7.06711">
        <ele>295</ele>
        <time>2020-09-15T15:49:46Z</time>
      </trkpt>
      <trkpt lat="43.93561" lon="7.06676">
        <ele>297</ele>
        <time>2020-09-15T15:49:51Z</time>
      </trkpt>
      <trkpt lat="43.93568" lon="7.06665">
        <ele>298</ele>
        <time>2020-09-15T15:49:53Z</time>
      </trkpt>
      <trkpt lat="43.9364" lon="7.06586">
        <ele>302</ele>
        <time>2020-09-15T15:50:09Z</time>
      </trkpt>
      <trkpt lat="43.93669" lon="7.06518">
        <ele>300</ele>
        <time>2020-09-15T15:50:20Z</time>
      </trkpt>
      <trkpt lat="43.93684" lon="7.06487">
        <ele>300</ele>
        <time>2020-09-15T15:50:24Z</time>
      </trkpt>
      <trkpt lat="43.93696" lon="7.06456">
        <ele>300</ele>
        <time>2020-09-15T15:50:29Z</time>
      </trkpt>
      <trkpt lat="43.93703" lon="7.0642">
        <ele>299</ele>
        <time>2020-09-15T15:50:34Z</time>
      </trkpt>
      <trkpt lat="43.93711" lon="7.06355">
        <ele>300</ele>
        <time>2020-09-15T15:50:42Z</time>
      </trkpt>
      <trkpt lat="43.93721" lon="7.06321">
        <ele>301</ele>
        <time>2020-09-15T15:50:47Z</time>
      </trkpt>
      <trkpt lat="43.9374" lon="7.06291">
        <ele>300</ele>
        <time>2020-09-15T15:50:52Z</time>
      </trkpt>
      <trkpt lat="43.93794" lon="7.06246">
        <ele>306</ele>
        <time>2020-09-15T15:51:03Z</time>
      </trkpt>
      <trkpt lat="43.93857" lon="7.06181">
        <ele>303</ele>
        <time>2020-09-15T15:51:17Z</time>
      </trkpt>
      <trkpt lat="43.93908" lon="7.06092">
        <ele>301</ele>
        <time>2020-09-15T15:51:32Z</time>
      </trkpt>
      <trkpt lat="43.93963" lon="7.05977">
        <ele>302</ele>
        <time>2020-09-15T15:51:49Z</time>
      </trkpt>
      <trkpt lat="43.93999" lon="7.05926">
        <ele>301</ele>
        <time>2020-09-15T15:51:58Z</time>
      </trkpt>
      <trkpt lat="43.94085" lon="7.05889">
        <ele>312</ele>
        <time>2020-09-15T15:52:14Z</time>
      </trkpt>
      <trkpt lat="43.9411" lon="7.05846">
        <ele>312</ele>
        <time>2020-09-15T15:52:22Z</time>
      </trkpt>
      <trkpt lat="43.94211" lon="7.05571">
        <ele>302</ele>
        <time>2020-09-15T15:53:01Z</time>
      </trkpt>
      <trkpt lat="43.94243" lon="7.05409">
        <ele>296</ele>
        <time>2020-09-15T15:53:23Z</time>
      </trkpt>
      <trkpt lat="43.943" lon="7.05209">
        <ele>308</ele>
        <time>2020-09-15T15:53:50Z</time>
      </trkpt>
      <trkpt lat="43.94311" lon="7.05115">
        <ele>309</ele>
        <time>2020-09-15T15:54:02Z</time>
      </trkpt>
      <trkpt lat="43.94312" lon="7.04994">
        <ele>307</ele>
        <time>2020-09-15T15:54:18Z</time>
      </trkpt>
      <trkpt lat="43.94307" lon="7.04867">
        <ele>311</ele>
        <time>2020-09-15T15:54:34Z</time>
      </trkpt>
      <trkpt lat="43.943" lon="7.04758">
        <ele>313</ele>
        <time>2020-09-15T15:54:48Z</time>
      </trkpt>
      <trkpt lat="43.9429" lon="7.0464">
        <ele>306</ele>
        <time>2020-09-15T15:55:03Z</time>
      </trkpt>
      <trkpt lat="43.9429" lon="7.04619">
        <ele>305</ele>
        <time>2020-09-15T15:55:06Z</time>
      </trkpt>
      <trkpt lat="43.94416" lon="7.04033">
        <ele>302</ele>
        <time>2020-09-15T15:56:24Z</time>
      </trkpt>
      <trkpt lat="43.94419" lon="7.03948">
        <ele>304</ele>
        <time>2020-09-15T15:56:35Z</time>
      </trkpt>
      <trkpt lat="43.94403" lon="7.03836">
        <ele>303</ele>
        <time>2020-09-15T15:56:50Z</time>
      </trkpt>
      <trkpt lat="43.94404" lon="7.03746">
        <ele>304</ele>
        <time>2020-09-15T15:57:02Z</time>
      </trkpt>
      <trkpt lat="43.94416" lon="7.03484">
        <ele>297</ele>
        <time>2020-09-15T15:57:35Z</time>
      </trkpt>
      <trkpt lat="43.94434" lon="7.0331">
        <ele>298</ele>
        <time>2020-09-15T15:57:58Z</time>
      </trkpt>
      <trkpt lat="43.94459" lon="7.03169">
        <ele>296</ele>
        <time>2020-09-15T15:58:16Z</time>
      </trkpt>
      <trkpt lat="43.94484" lon="7.02864">
        <ele>299</ele>
        <time>2020-09-15T15:58:56Z</time>
      </trkpt>
      <trkpt lat="43.94487" lon="7.0277">
        <ele>302</ele>
        <time>2020-09-15T15:59:08Z</time>
      </trkpt>
      <trkpt lat="43.94503" lon="7.0259">
        <ele>302</ele>
        <time>2020-09-15T15:59:31Z</time>
      </trkpt>
      <trkpt lat="43.94523" lon="7.02421">
        <ele>305</ele>
        <time>2020-09-15T15:59:53Z</time>
      </trkpt>
      <trkpt lat="43.94534" lon="7.02344">
        <ele>308</ele>
        <time>2020-09-15T16:00:03Z</time>
      </trkpt>
      <trkpt lat="43.94558" lon="7.02236">
        <ele>309</ele>
        <time>2020-09-15T16:00:17Z</time>
      </trkpt>
      <trkpt lat="43.9464" lon="7.01921">
        <ele>313</ele>
        <time>2020-09-15T16:01:00Z</time>
      </trkpt>
      <trkpt lat="43.94653" lon="7.0185">
        <ele>315</ele>
        <time>2020-09-15T16:01:10Z</time>
      </trkpt>
      <trkpt lat="43.94669" lon="7.01725">
        <ele>316</ele>
        <time>2020-09-15T16:01:26Z</time>
      </trkpt>
      <trkpt lat="43.94706" lon="7.01609">
        <ele>326</ele>
        <time>2020-09-15T16:01:42Z</time>
      </trkpt>
      <trkpt lat="43.9471" lon="7.01589">
        <ele>327</ele>
        <time>2020-09-15T16:01:45Z</time>
      </trkpt>
      <trkpt lat="43.94712" lon="7.01573">
        <ele>327</ele>
        <time>2020-09-15T16:01:47Z</time>
      </trkpt>
      <trkpt lat="43.94714" lon="7.01482">
        <ele>324</ele>
        <time>2020-09-15T16:01:59Z</time>
      </trkpt>
      <trkpt lat="43.94719" lon="7.01443">
        <ele>325</ele>
        <time>2020-09-15T16:02:04Z</time>
      </trkpt>
      <trkpt lat="43.94718" lon="7.01413">
        <ele>325</ele>
        <time>2020-09-15T16:02:07Z</time>
      </trkpt>
      <trkpt lat="43.94713" lon="7.01386">
        <ele>324</ele>
        <time>2020-09-15T16:02:11Z</time>
      </trkpt>
      <trkpt lat="43.94715" lon="7.0136">
        <ele>324</ele>
        <time>2020-09-15T16:02:14Z</time>
      </trkpt>
      <trkpt lat="43.9472" lon="7.01337">
        <ele>325</ele>
        <time>2020-09-15T16:02:17Z</time>
      </trkpt>
      <trkpt lat="43.94757" lon="7.01239">
        <ele>330</ele>
        <time>2020-09-15T16:02:32Z</time>
      </trkpt>
      <trkpt lat="43.94763" lon="7.01207">
        <ele>332</ele>
        <time>2020-09-15T16:02:36Z</time>
      </trkpt>
      <trkpt lat="43.94766" lon="7.01182">
        <ele>333</ele>
        <time>2020-09-15T16:02:39Z</time>
      </trkpt>
      <trkpt lat="43.94766" lon="7.01055">
        <ele>334</ele>
        <time>2020-09-15T16:02:55Z</time>
      </trkpt>
      <trkpt lat="43.94768" lon="7.0104">
        <ele>335</ele>
        <time>2020-09-15T16:02:57Z</time>
      </trkpt>
      <trkpt lat="43.94798" lon="7.00925">
        <ele>344</ele>
        <time>2020-09-15T16:03:13Z</time>
      </trkpt>
      <trkpt lat="43.94801" lon="7.00906">
        <ele>345</ele>
        <time>2020-09-15T16:03:16Z</time>
      </trkpt>
      <trkpt lat="43.948" lon="7.00888">
        <ele>346</ele>
        <time>2020-09-15T16:03:18Z</time>
      </trkpt>
      <trkpt lat="43.94785" lon="7.00814">
        <ele>345</ele>
        <time>2020-09-15T16:03:28Z</time>
      </trkpt>
      <trkpt lat="43.94777" lon="7.00763">
        <ele>343</ele>
        <time>2020-09-15T16:03:34Z</time>
      </trkpt>
      <trkpt lat="43.94778" lon="7.00716">
        <ele>346</ele>
        <time>2020-09-15T16:03:40Z</time>
      </trkpt>
      <trkpt lat="43.94763" lon="7.00561">
        <ele>350</ele>
        <time>2020-09-15T16:04:00Z</time>
      </trkpt>
      <trkpt lat="43.94745" lon="7.00399">
        <ele>345</ele>
        <time>2020-09-15T16:04:21Z</time>
      </trkpt>
      <trkpt lat="43.94728" lon="7.00355">
        <ele>343</ele>
        <time>2020-09-15T16:04:28Z</time>
      </trkpt>
      <trkpt lat="43.94712" lon="7.003">
        <ele>341</ele>
        <time>2020-09-15T16:04:35Z</time>
      </trkpt>
      <trkpt lat="43.9469" lon="7.00152">
        <ele>343</ele>
        <time>2020-09-15T16:04:55Z</time>
      </trkpt>
      <trkpt lat="43.94679" lon="7.00108">
        <ele>342</ele>
        <time>2020-09-15T16:05:01Z</time>
      </trkpt>
      <trkpt lat="43.9466" lon="7.00058">
        <ele>339</ele>
        <time>2020-09-15T16:05:08Z</time>
      </trkpt>
      <trkpt lat="43.94645" lon="6.99971">
        <ele>341</ele>
        <time>2020-09-15T16:05:19Z</time>
      </trkpt>
      <trkpt lat="43.94643" lon="6.99945">
        <ele>341</ele>
        <time>2020-09-15T16:05:23Z</time>
      </trkpt>
      <trkpt lat="43.94642" lon="6.99918">
        <ele>342</ele>
        <time>2020-09-15T16:05:26Z</time>
      </trkpt>
      <trkpt lat="43.94649" lon="6.99864">
        <ele>341</ele>
        <time>2020-09-15T16:05:33Z</time>
      </trkpt>
      <trkpt lat="43.94668" lon="6.99785">
        <ele>344</ele>
        <time>2020-09-15T16:05:44Z</time>
      </trkpt>
      <trkpt lat="43.94675" lon="6.99712">
        <ele>346</ele>
        <time>2020-09-15T16:05:53Z</time>
      </trkpt>
      <trkpt lat="43.9468" lon="6.99633">
        <ele>344</ele>
        <time>2020-09-15T16:06:04Z</time>
      </trkpt>
      <trkpt lat="43.94692" lon="6.99568">
        <ele>344</ele>
        <time>2020-09-15T16:06:12Z</time>
      </trkpt>
      <trkpt lat="43.94724" lon="6.99459">
        <ele>342</ele>
        <time>2020-09-15T16:06:27Z</time>
      </trkpt>
      <trkpt lat="43.94816" lon="6.99153">
        <ele>340</ele>
        <time>2020-09-15T16:07:10Z</time>
      </trkpt>
      <trkpt lat="43.94867" lon="6.99061">
        <ele>336</ele>
        <time>2020-09-15T16:07:25Z</time>
      </trkpt>
      <trkpt lat="43.94907" lon="6.98996">
        <ele>335</ele>
        <time>2020-09-15T16:07:36Z</time>
      </trkpt>
      <trkpt lat="43.94927" lon="6.98952">
        <ele>334</ele>
        <time>2020-09-15T16:07:42Z</time>
      </trkpt>
      <trkpt lat="43.9495" lon="6.98886">
        <ele>337</ele>
        <time>2020-09-15T16:07:52Z</time>
      </trkpt>
      <trkpt lat="43.94952" lon="6.9888">
        <ele>338</ele>
        <time>2020-09-15T16:07:52Z</time>
      </trkpt>
      <trkpt lat="43.94962" lon="6.98851">
        <ele>341</ele>
        <time>2020-09-15T16:07:57Z</time>
      </trkpt>
      <trkpt lat="43.94982" lon="6.98793">
        <ele>345</ele>
        <time>2020-09-15T16:08:05Z</time>
      </trkpt>
      <trkpt lat="43.94994" lon="6.98759">
        <ele>346</ele>
        <time>2020-09-15T16:08:10Z</time>
      </trkpt>
      <trkpt lat="43.95005" lon="6.98725">
        <ele>349</ele>
        <time>2020-09-15T16:08:14Z</time>
      </trkpt>
      <trkpt lat="43.95008" lon="6.98712">
        <ele>350</ele>
        <time>2020-09-15T16:08:16Z</time>
      </trkpt>
      <trkpt lat="43.95013" lon="6.98685">
        <ele>352</ele>
        <time>2020-09-15T16:08:20Z</time>
      </trkpt>
      <trkpt lat="43.95019" lon="6.98619">
        <ele>354</ele>
        <time>2020-09-15T16:08:28Z</time>
      </trkpt>
      <trkpt lat="43.95022" lon="6.98321">
        <ele>357</ele>
        <time>2020-09-15T16:09:06Z</time>
      </trkpt>
      <trkpt lat="43.95018" lon="6.98267">
        <ele>358</ele>
        <time>2020-09-15T16:09:13Z</time>
      </trkpt>
      <trkpt lat="43.95012" lon="6.98229">
        <ele>357</ele>
        <time>2020-09-15T16:09:18Z</time>
      </trkpt>
      <trkpt lat="43.95002" lon="6.98188">
        <ele>354</ele>
        <time>2020-09-15T16:09:24Z</time>
      </trkpt>
      <trkpt lat="43.9499" lon="6.98149">
        <ele>355</ele>
        <time>2020-09-15T16:09:29Z</time>
      </trkpt>
      <trkpt lat="43.94982" lon="6.98126">
        <ele>354</ele>
        <time>2020-09-15T16:09:33Z</time>
      </trkpt>
      <trkpt lat="43.94973" lon="6.98095">
        <ele>352</ele>
        <time>2020-09-15T16:09:37Z</time>
      </trkpt>
      <trkpt lat="43.94949" lon="6.9803">
        <ele>351</ele>
        <time>2020-09-15T16:09:46Z</time>
      </trkpt>
      <trkpt lat="43.94935" lon="6.97985">
        <ele>350</ele>
        <time>2020-09-15T16:09:53Z</time>
      </trkpt>
      <trkpt lat="43.94903" lon="6.97875">
        <ele>354</ele>
        <time>2020-09-15T16:10:08Z</time>
      </trkpt>
      <trkpt lat="43.94887" lon="6.9781">
        <ele>353</ele>
        <time>2020-09-15T16:10:17Z</time>
      </trkpt>
      <trkpt lat="43.94879" lon="6.97768">
        <ele>352</ele>
        <time>2020-09-15T16:10:22Z</time>
      </trkpt>
      <trkpt lat="43.94871" lon="6.97704">
        <ele>352</ele>
        <time>2020-09-15T16:10:30Z</time>
      </trkpt>
      <trkpt lat="43.94864" lon="6.97628">
        <ele>353</ele>
        <time>2020-09-15T16:10:40Z</time>
      </trkpt>
      <trkpt lat="43.94857" lon="6.97514">
        <ele>354</ele>
        <time>2020-09-15T16:10:55Z</time>
      </trkpt>
      <trkpt lat="43.94844" lon="6.97408">
        <ele>352</ele>
        <time>2020-09-15T16:11:09Z</time>
      </trkpt>
      <trkpt lat="43.94838" lon="6.97345">
        <ele>350</ele>
        <time>2020-09-15T16:11:17Z</time>
      </trkpt>
      <trkpt lat="43.94813" lon="6.9661">
        <ele>348</ele>
        <time>2020-09-15T16:12:51Z</time>
      </trkpt>
      <trkpt lat="43.94812" lon="6.96561">
        <ele>348</ele>
        <time>2020-09-15T16:12:57Z</time>
      </trkpt>
      <trkpt lat="43.94813" lon="6.96509">
        <ele>349</ele>
        <time>2020-09-15T16:13:04Z</time>
      </trkpt>
      <trkpt lat="43.94818" lon="6.96451">
        <ele>349</ele>
        <time>2020-09-15T16:13:12Z</time>
      </trkpt>
      <trkpt lat="43.94831" lon="6.9635">
        <ele>348</ele>
        <time>2020-09-15T16:13:25Z</time>
      </trkpt>
      <trkpt lat="43.94844" lon="6.96282">
        <ele>350</ele>
        <time>2020-09-15T16:13:34Z</time>
      </trkpt>
      <trkpt lat="43.94858" lon="6.96223">
        <ele>351</ele>
        <time>2020-09-15T16:13:42Z</time>
      </trkpt>
      <trkpt lat="43.94877" lon="6.96171">
        <ele>351</ele>
        <time>2020-09-15T16:13:49Z</time>
      </trkpt>
      <trkpt lat="43.94907" lon="6.9609">
        <ele>350</ele>
        <time>2020-09-15T16:14:01Z</time>
      </trkpt>
      <trkpt lat="43.94935" lon="6.96028">
        <ele>352</ele>
        <time>2020-09-15T16:14:10Z</time>
      </trkpt>
      <trkpt lat="43.94958" lon="6.95976">
        <ele>354</ele>
        <time>2020-09-15T16:14:18Z</time>
      </trkpt>
      <trkpt lat="43.95001" lon="6.95878">
        <ele>354</ele>
        <time>2020-09-15T16:14:33Z</time>
      </trkpt>
      <trkpt lat="43.95036" lon="6.95789">
        <ele>357</ele>
        <time>2020-09-15T16:14:46Z</time>
      </trkpt>
      <trkpt lat="43.95059" lon="6.95729">
        <ele>359</ele>
        <time>2020-09-15T16:14:54Z</time>
      </trkpt>
      <trkpt lat="43.95092" lon="6.95651">
        <ele>361</ele>
        <time>2020-09-15T16:15:06Z</time>
      </trkpt>
      <trkpt lat="43.95122" lon="6.95578">
        <ele>365</ele>
        <time>2020-09-15T16:15:17Z</time>
      </trkpt>
      <trkpt lat="43.95133" lon="6.9554">
        <ele>367</ele>
        <time>2020-09-15T16:15:22Z</time>
      </trkpt>
      <trkpt lat="43.95135" lon="6.95529">
        <ele>367</ele>
        <time>2020-09-15T16:15:23Z</time>
      </trkpt>
      <trkpt lat="43.95137" lon="6.95518">
        <ele>367</ele>
        <time>2020-09-15T16:15:25Z</time>
      </trkpt>
      <trkpt lat="43.95143" lon="6.95486">
        <ele>369</ele>
        <time>2020-09-15T16:15:29Z</time>
      </trkpt>
      <trkpt lat="43.95153" lon="6.95395">
        <ele>372</ele>
        <time>2020-09-15T16:15:41Z</time>
      </trkpt>
      <trkpt lat="43.95162" lon="6.9528">
        <ele>374</ele>
        <time>2020-09-15T16:15:56Z</time>
      </trkpt>
      <trkpt lat="43.95161" lon="6.95237">
        <ele>375</ele>
        <time>2020-09-15T16:16:01Z</time>
      </trkpt>
      <trkpt lat="43.9515" lon="6.95101">
        <ele>373</ele>
        <time>2020-09-15T16:16:19Z</time>
      </trkpt>
      <trkpt lat="43.9515" lon="6.95037">
        <ele>373</ele>
        <time>2020-09-15T16:16:27Z</time>
      </trkpt>
      <trkpt lat="43.95173" lon="6.94714">
        <ele>371</ele>
        <time>2020-09-15T16:17:09Z</time>
      </trkpt>
      <trkpt lat="43.95177" lon="6.94674">
        <ele>372</ele>
        <time>2020-09-15T16:17:14Z</time>
      </trkpt>
      <trkpt lat="43.95182" lon="6.94626">
        <ele>373</ele>
        <time>2020-09-15T16:17:20Z</time>
      </trkpt>
      <trkpt lat="43.95189" lon="6.94585">
        <ele>376</ele>
        <time>2020-09-15T16:17:25Z</time>
      </trkpt>
      <trkpt lat="43.95195" lon="6.94538">
        <ele>376</ele>
        <time>2020-09-15T16:17:31Z</time>
      </trkpt>
      <trkpt lat="43.95197" lon="6.94501">
        <ele>375</ele>
        <time>2020-09-15T16:17:36Z</time>
      </trkpt>
      <trkpt lat="43.95197" lon="6.94488">
        <ele>374</ele>
        <time>2020-09-15T16:17:38Z</time>
      </trkpt>
      <trkpt lat="43.95198" lon="6.94474">
        <ele>373</ele>
        <time>2020-09-15T16:17:40Z</time>
      </trkpt>
      <trkpt lat="43.95199" lon="6.94416">
        <ele>368</ele>
        <time>2020-09-15T16:17:47Z</time>
      </trkpt>
      <trkpt lat="43.952" lon="6.94392">
        <ele>368</ele>
        <time>2020-09-15T16:17:50Z</time>
      </trkpt>
      <trkpt lat="43.95202" lon="6.9437">
        <ele>368</ele>
        <time>2020-09-15T16:17:53Z</time>
      </trkpt>
      <trkpt lat="43.95211" lon="6.94315">
        <ele>368</ele>
        <time>2020-09-15T16:18:00Z</time>
      </trkpt>
      <trkpt lat="43.95225" lon="6.94252">
        <ele>366</ele>
        <time>2020-09-15T16:18:09Z</time>
      </trkpt>
      <trkpt lat="43.95253" lon="6.94141">
        <ele>364</ele>
        <time>2020-09-15T16:18:24Z</time>
      </trkpt>
      <trkpt lat="43.9526" lon="6.94098">
        <ele>365</ele>
        <time>2020-09-15T16:18:29Z</time>
      </trkpt>
      <trkpt lat="43.9529" lon="6.93979">
        <ele>367</ele>
        <time>2020-09-15T16:18:46Z</time>
      </trkpt>
      <trkpt lat="43.95348" lon="6.93757">
        <ele>373</ele>
        <time>2020-09-15T16:19:16Z</time>
      </trkpt>
      <trkpt lat="43.95367" lon="6.93659">
        <ele>376</ele>
        <time>2020-09-15T16:19:29Z</time>
      </trkpt>
      <trkpt lat="43.95381" lon="6.93573">
        <ele>377</ele>
        <time>2020-09-15T16:19:40Z</time>
      </trkpt>
      <trkpt lat="43.95384" lon="6.9353">
        <ele>377</ele>
        <time>2020-09-15T16:19:46Z</time>
      </trkpt>
      <trkpt lat="43.95384" lon="6.93514">
        <ele>377</ele>
        <time>2020-09-15T16:19:48Z</time>
      </trkpt>
      <trkpt lat="43.95372" lon="6.93381">
        <ele>378</ele>
        <time>2020-09-15T16:20:05Z</time>
      </trkpt>
      <trkpt lat="43.95371" lon="6.93347">
        <ele>378</ele>
        <time>2020-09-15T16:20:09Z</time>
      </trkpt>
      <trkpt lat="43.95372" lon="6.93299">
        <ele>379</ele>
        <time>2020-09-15T16:20:15Z</time>
      </trkpt>
      <trkpt lat="43.95377" lon="6.93233">
        <ele>382</ele>
        <time>2020-09-15T16:20:24Z</time>
      </trkpt>
      <trkpt lat="43.9538" lon="6.93155">
        <ele>384</ele>
        <time>2020-09-15T16:20:34Z</time>
      </trkpt>
      <trkpt lat="43.9538" lon="6.93149">
        <ele>384</ele>
        <time>2020-09-15T16:20:35Z</time>
      </trkpt>
      <trkpt lat="43.95385" lon="6.93056">
        <ele>388</ele>
        <time>2020-09-15T16:20:47Z</time>
      </trkpt>
      <trkpt lat="43.95389" lon="6.9298">
        <ele>386</ele>
        <time>2020-09-15T16:20:56Z</time>
      </trkpt>
      <trkpt lat="43.95393" lon="6.9294">
        <ele>385</ele>
        <time>2020-09-15T16:21:02Z</time>
      </trkpt>
      <trkpt lat="43.95402" lon="6.9287">
        <ele>382</ele>
        <time>2020-09-15T16:21:11Z</time>
      </trkpt>
      <trkpt lat="43.95406" lon="6.92845">
        <ele>380</ele>
        <time>2020-09-15T16:21:14Z</time>
      </trkpt>
      <trkpt lat="43.95428" lon="6.92722">
        <ele>379</ele>
        <time>2020-09-15T16:21:30Z</time>
      </trkpt>
      <trkpt lat="43.95432" lon="6.92702">
        <ele>380</ele>
        <time>2020-09-15T16:21:33Z</time>
      </trkpt>
      <trkpt lat="43.95439" lon="6.92652">
        <ele>380</ele>
        <time>2020-09-15T16:21:39Z</time>
      </trkpt>
      <trkpt lat="43.95441" lon="6.9263">
        <ele>381</ele>
        <time>2020-09-15T16:21:42Z</time>
      </trkpt>
      <trkpt lat="43.95438" lon="6.92599">
        <ele>380</ele>
        <time>2020-09-15T16:21:46Z</time>
      </trkpt>
      <trkpt lat="43.9543" lon="6.92559">
        <ele>379</ele>
        <time>2020-09-15T16:21:51Z</time>
      </trkpt>
      <trkpt lat="43.95422" lon="6.92527">
        <ele>379</ele>
        <time>2020-09-15T16:21:56Z</time>
      </trkpt>
      <trkpt lat="43.95348" lon="6.9235">
        <ele>377</ele>
        <time>2020-09-15T16:22:22Z</time>
      </trkpt>
      <trkpt lat="43.95332" lon="6.92306">
        <ele>377</ele>
        <time>2020-09-15T16:22:28Z</time>
      </trkpt>
      <trkpt lat="43.95324" lon="6.92277">
        <ele>379</ele>
        <time>2020-09-15T16:22:32Z</time>
      </trkpt>
      <trkpt lat="43.95296" lon="6.92152">
        <ele>380</ele>
        <time>2020-09-15T16:22:49Z</time>
      </trkpt>
      <trkpt lat="43.95286" lon="6.92095">
        <ele>380</ele>
        <time>2020-09-15T16:22:57Z</time>
      </trkpt>
      <trkpt lat="43.95285" lon="6.92059">
        <ele>380</ele>
        <time>2020-09-15T16:23:01Z</time>
      </trkpt>
      <trkpt lat="43.95289" lon="6.92009">
        <ele>380</ele>
        <time>2020-09-15T16:23:08Z</time>
      </trkpt>
      <trkpt lat="43.95291" lon="6.91993">
        <ele>381</ele>
        <time>2020-09-15T16:23:10Z</time>
      </trkpt>
      <trkpt lat="43.95295" lon="6.91974">
        <ele>381</ele>
        <time>2020-09-15T16:23:12Z</time>
      </trkpt>
      <trkpt lat="43.95304" lon="6.91947">
        <ele>382</ele>
        <time>2020-09-15T16:23:16Z</time>
      </trkpt>
      <trkpt lat="43.95314" lon="6.91923">
        <ele>383</ele>
        <time>2020-09-15T16:23:20Z</time>
      </trkpt>
      <trkpt lat="43.95493" lon="6.91544">
        <ele>388</ele>
        <time>2020-09-15T16:24:18Z</time>
      </trkpt>
      <trkpt lat="43.9551" lon="6.91486">
        <ele>388</ele>
        <time>2020-09-15T16:24:26Z</time>
      </trkpt>
      <trkpt lat="43.9552" lon="6.91425">
        <ele>389</ele>
        <time>2020-09-15T16:24:34Z</time>
      </trkpt>
      <trkpt lat="43.95521" lon="6.91376">
        <ele>390</ele>
        <time>2020-09-15T16:24:40Z</time>
      </trkpt>
      <trkpt lat="43.9552" lon="6.91352">
        <ele>390</ele>
        <time>2020-09-15T16:24:43Z</time>
      </trkpt>
      <trkpt lat="43.95517" lon="6.91324">
        <ele>389</ele>
        <time>2020-09-15T16:24:47Z</time>
      </trkpt>
      <trkpt lat="43.95512" lon="6.91279">
        <ele>390</ele>
        <time>2020-09-15T16:24:53Z</time>
      </trkpt>
      <trkpt lat="43.95496" lon="6.91216">
        <ele>389</ele>
        <time>2020-09-15T16:25:01Z</time>
      </trkpt>
      <trkpt lat="43.95472" lon="6.91162">
        <ele>390</ele>
        <time>2020-09-15T16:25:09Z</time>
      </trkpt>
      <trkpt lat="43.95412" lon="6.91038">
        <ele>388</ele>
        <time>2020-09-15T16:25:28Z</time>
      </trkpt>
      <trkpt lat="43.95318" lon="6.9085">
        <ele>391</ele>
        <time>2020-09-15T16:25:58Z</time>
      </trkpt>
      <trkpt lat="43.95267" lon="6.90753">
        <ele>391</ele>
        <time>2020-09-15T16:26:13Z</time>
      </trkpt>
      <trkpt lat="43.95248" lon="6.90695">
        <ele>391</ele>
        <time>2020-09-15T16:26:21Z</time>
      </trkpt>
      <trkpt lat="43.95231" lon="6.90616">
        <ele>392</ele>
        <time>2020-09-15T16:26:32Z</time>
      </trkpt>
      <trkpt lat="43.95225" lon="6.9055">
        <ele>392</ele>
        <time>2020-09-15T16:26:40Z</time>
      </trkpt>
      <trkpt lat="43.95224" lon="6.90518">
        <ele>393</ele>
        <time>2020-09-15T16:26:44Z</time>
      </trkpt>
      <trkpt lat="43.95227" lon="6.90487">
        <ele>393</ele>
        <time>2020-09-15T16:26:48Z</time>
      </trkpt>
      <trkpt lat="43.95232" lon="6.90447">
        <ele>395</ele>
        <time>2020-09-15T16:26:54Z</time>
      </trkpt>
      <trkpt lat="43.95238" lon="6.90417">
        <ele>396</ele>
        <time>2020-09-15T16:26:58Z</time>
      </trkpt>
      <trkpt lat="43.95246" lon="6.90388">
        <ele>395</ele>
        <time>2020-09-15T16:27:02Z</time>
      </trkpt>
      <trkpt lat="43.95255" lon="6.9036">
        <ele>395</ele>
        <time>2020-09-15T16:27:06Z</time>
      </trkpt>
      <trkpt lat="43.95278" lon="6.90292">
        <ele>400</ele>
        <time>2020-09-15T16:27:15Z</time>
      </trkpt>
      <trkpt lat="43.95287" lon="6.9027">
        <ele>403</ele>
        <time>2020-09-15T16:27:18Z</time>
      </trkpt>
      <trkpt lat="43.95327" lon="6.90163">
        <ele>407</ele>
        <time>2020-09-15T16:27:34Z</time>
      </trkpt>
      <trkpt lat="43.95368" lon="6.90078">
        <ele>404</ele>
        <time>2020-09-15T16:27:47Z</time>
      </trkpt>
      <trkpt lat="43.95391" lon="6.90044">
        <ele>404</ele>
        <time>2020-09-15T16:27:53Z</time>
      </trkpt>
      <trkpt lat="43.95408" lon="6.90031">
        <ele>403</ele>
        <time>2020-09-15T16:27:56Z</time>
      </trkpt>
      <trkpt lat="43.95457" lon="6.89981">
        <ele>398</ele>
        <time>2020-09-15T16:28:07Z</time>
      </trkpt>
      <trkpt lat="43.9548" lon="6.8994">
        <ele>399</ele>
        <time>2020-09-15T16:28:14Z</time>
      </trkpt>
      <trkpt lat="43.95495" lon="6.89895">
        <ele>399</ele>
        <time>2020-09-15T16:28:20Z</time>
      </trkpt>
      <trkpt lat="43.95506" lon="6.89796">
        <ele>401</ele>
        <time>2020-09-15T16:28:33Z</time>
      </trkpt>
      <trkpt lat="43.95519" lon="6.89637">
        <ele>403</ele>
        <time>2020-09-15T16:28:54Z</time>
      </trkpt>
      <trkpt lat="43.95521" lon="6.89624">
        <ele>404</ele>
        <time>2020-09-15T16:28:55Z</time>
      </trkpt>
      <trkpt lat="43.95521" lon="6.89605">
        <ele>405</ele>
        <time>2020-09-15T16:28:58Z</time>
      </trkpt>
      <trkpt lat="43.95519" lon="6.89586">
        <ele>405</ele>
        <time>2020-09-15T16:29:00Z</time>
      </trkpt>
      <trkpt lat="43.95518" lon="6.89579">
        <ele>405</ele>
        <time>2020-09-15T16:29:01Z</time>
      </trkpt>
      <trkpt lat="43.95515" lon="6.89564">
        <ele>405</ele>
        <time>2020-09-15T16:29:03Z</time>
      </trkpt>
      <trkpt lat="43.95515" lon="6.89561">
        <ele>405</ele>
        <time>2020-09-15T16:29:03Z</time>
      </trkpt>
      <trkpt lat="43.95513" lon="6.89548">
        <ele>405</ele>
        <time>2020-09-15T16:29:05Z</time>
      </trkpt>
      <trkpt lat="43.95509" lon="6.89525">
        <ele>405</ele>
        <time>2020-09-15T16:29:08Z</time>
      </trkpt>
      <trkpt lat="43.95504" lon="6.8951">
        <ele>404</ele>
        <time>2020-09-15T16:29:10Z</time>
      </trkpt>
      <trkpt lat="43.95501" lon="6.895">
        <ele>404</ele>
        <time>2020-09-15T16:29:12Z</time>
      </trkpt>
      <trkpt lat="43.95486" lon="6.89416">
        <ele>404</ele>
        <time>2020-09-15T16:29:23Z</time>
      </trkpt>
      <trkpt lat="43.95483" lon="6.89402">
        <ele>404</ele>
        <time>2020-09-15T16:29:25Z</time>
      </trkpt>
      <trkpt lat="43.95478" lon="6.89368">
        <ele>405</ele>
        <time>2020-09-15T16:29:29Z</time>
      </trkpt>
      <trkpt lat="43.95476" lon="6.89334">
        <ele>406</ele>
        <time>2020-09-15T16:29:33Z</time>
      </trkpt>
      <trkpt lat="43.95476" lon="6.89236">
        <ele>406</ele>
        <time>2020-09-15T16:29:46Z</time>
      </trkpt>
      <trkpt lat="43.95478" lon="6.89165">
        <ele>405</ele>
        <time>2020-09-15T16:29:55Z</time>
      </trkpt>
      <trkpt lat="43.95477" lon="6.89131">
        <ele>405</ele>
        <time>2020-09-15T16:29:59Z</time>
      </trkpt>
      <trkpt lat="43.95456" lon="6.89023">
        <ele>405</ele>
        <time>2020-09-15T16:30:14Z</time>
      </trkpt>
      <trkpt lat="43.95451" lon="6.89007">
        <ele>405</ele>
        <time>2020-09-15T16:30:16Z</time>
      </trkpt>
      <trkpt lat="43.95425" lon="6.88951">
        <ele>406</ele>
        <time>2020-09-15T16:30:25Z</time>
      </trkpt>
      <trkpt lat="43.95401" lon="6.88877">
        <ele>409</ele>
        <time>2020-09-15T16:30:35Z</time>
      </trkpt>
      <trkpt lat="43.95356" lon="6.8867">
        <ele>406</ele>
        <time>2020-09-15T16:31:03Z</time>
      </trkpt>
      <trkpt lat="43.95345" lon="6.88633">
        <ele>407</ele>
        <time>2020-09-15T16:31:08Z</time>
      </trkpt>
      <trkpt lat="43.95278" lon="6.8845">
        <ele>409</ele>
        <time>2020-09-15T16:31:34Z</time>
      </trkpt>
      <trkpt lat="43.95232" lon="6.88314">
        <ele>409</ele>
        <time>2020-09-15T16:31:53Z</time>
      </trkpt>
      <trkpt lat="43.95228" lon="6.88296">
        <ele>409</ele>
        <time>2020-09-15T16:31:56Z</time>
      </trkpt>
      <trkpt lat="43.95219" lon="6.88248">
        <ele>410</ele>
        <time>2020-09-15T16:32:02Z</time>
      </trkpt>
      <trkpt lat="43.95216" lon="6.8818">
        <ele>412</ele>
        <time>2020-09-15T16:32:11Z</time>
      </trkpt>
      <trkpt lat="43.9521" lon="6.88158">
        <ele>413</ele>
        <time>2020-09-15T16:32:14Z</time>
      </trkpt>
      <trkpt lat="43.95197" lon="6.88128">
        <ele>412</ele>
        <time>2020-09-15T16:32:18Z</time>
      </trkpt>
      <trkpt lat="43.95192" lon="6.88101">
        <ele>412</ele>
        <time>2020-09-15T16:32:22Z</time>
      </trkpt>
      <trkpt lat="43.95192" lon="6.88049">
        <ele>412</ele>
        <time>2020-09-15T16:32:29Z</time>
      </trkpt>
      <trkpt lat="43.95193" lon="6.88023">
        <ele>411</ele>
        <time>2020-09-15T16:32:32Z</time>
      </trkpt>
      <trkpt lat="43.95201" lon="6.8797">
        <ele>412</ele>
        <time>2020-09-15T16:32:39Z</time>
      </trkpt>
      <trkpt lat="43.95219" lon="6.87896">
        <ele>414</ele>
        <time>2020-09-15T16:32:49Z</time>
      </trkpt>
      <trkpt lat="43.95258" lon="6.87788">
        <ele>418</ele>
        <time>2020-09-15T16:33:04Z</time>
      </trkpt>
      <trkpt lat="43.95258" lon="6.8777">
        <ele>417</ele>
        <time>2020-09-15T16:33:07Z</time>
      </trkpt>
      <trkpt lat="43.95253" lon="6.87754">
        <ele>416</ele>
        <time>2020-09-15T16:33:09Z</time>
      </trkpt>
      <trkpt lat="43.95248" lon="6.87749">
        <ele>416</ele>
        <time>2020-09-15T16:33:10Z</time>
      </trkpt>
      <trkpt lat="43.95188" lon="6.87711">
        <ele>423</ele>
        <time>2020-09-15T16:33:22Z</time>
      </trkpt>
      <trkpt lat="43.95182" lon="6.87704">
        <ele>424</ele>
        <time>2020-09-15T16:33:23Z</time>
      </trkpt>
      <trkpt lat="43.95179" lon="6.87695">
        <ele>424</ele>
        <time>2020-09-15T16:33:24Z</time>
      </trkpt>
      <trkpt lat="43.9518" lon="6.87667">
        <ele>425</ele>
        <time>2020-09-15T16:33:28Z</time>
      </trkpt>
      <trkpt lat="43.95187" lon="6.87604">
        <ele>424</ele>
        <time>2020-09-15T16:33:36Z</time>
      </trkpt>
      <trkpt lat="43.9519" lon="6.87512">
        <ele>425</ele>
        <time>2020-09-15T16:33:48Z</time>
      </trkpt>
      <trkpt lat="43.95199" lon="6.87476">
        <ele>424</ele>
        <time>2020-09-15T16:33:53Z</time>
      </trkpt>
      <trkpt lat="43.95258" lon="6.87367">
        <ele>417</ele>
        <time>2020-09-15T16:34:10Z</time>
      </trkpt>
      <trkpt lat="43.95272" lon="6.87333">
        <ele>416</ele>
        <time>2020-09-15T16:34:15Z</time>
      </trkpt>
      <trkpt lat="43.95282" lon="6.87294">
        <ele>416</ele>
        <time>2020-09-15T16:34:21Z</time>
      </trkpt>
      <trkpt lat="43.95284" lon="6.87276">
        <ele>416</ele>
        <time>2020-09-15T16:34:23Z</time>
      </trkpt>
      <trkpt lat="43.95284" lon="6.87256">
        <ele>416</ele>
        <time>2020-09-15T16:34:25Z</time>
      </trkpt>
      <trkpt lat="43.95277" lon="6.87201">
        <ele>418</ele>
        <time>2020-09-15T16:34:33Z</time>
      </trkpt>
      <trkpt lat="43.95274" lon="6.87154">
        <ele>420</ele>
        <time>2020-09-15T16:34:39Z</time>
      </trkpt>
      <trkpt lat="43.95279" lon="6.87117">
        <ele>421</ele>
        <time>2020-09-15T16:34:43Z</time>
      </trkpt>
      <trkpt lat="43.95288" lon="6.87085">
        <ele>422</ele>
        <time>2020-09-15T16:34:48Z</time>
      </trkpt>
      <trkpt lat="43.95327" lon="6.8697">
        <ele>420</ele>
        <time>2020-09-15T16:35:04Z</time>
      </trkpt>
      <trkpt lat="43.95345" lon="6.86909">
        <ele>422</ele>
        <time>2020-09-15T16:35:13Z</time>
      </trkpt>
      <trkpt lat="43.95383" lon="6.86309">
        <ele>424</ele>
        <time>2020-09-15T16:36:30Z</time>
      </trkpt>
      <trkpt lat="43.95421" lon="6.85792">
        <ele>431</ele>
        <time>2020-09-15T16:37:36Z</time>
      </trkpt>
      <trkpt lat="43.9543" lon="6.85648">
        <ele>432</ele>
        <time>2020-09-15T16:37:55Z</time>
      </trkpt>
      <trkpt lat="43.95433" lon="6.85592">
        <ele>431</ele>
        <time>2020-09-15T16:38:02Z</time>
      </trkpt>
      <trkpt lat="43.95435" lon="6.85475">
        <ele>433</ele>
        <time>2020-09-15T16:38:17Z</time>
      </trkpt>
      <trkpt lat="43.95434" lon="6.85386">
        <ele>433</ele>
        <time>2020-09-15T16:38:28Z</time>
      </trkpt>
      <trkpt lat="43.9543" lon="6.85298">
        <ele>434</ele>
        <time>2020-09-15T16:38:40Z</time>
      </trkpt>
      <trkpt lat="43.95418" lon="6.8517">
        <ele>435</ele>
        <time>2020-09-15T16:38:56Z</time>
      </trkpt>
      <trkpt lat="43.95398" lon="6.85034">
        <ele>434</ele>
        <time>2020-09-15T16:39:14Z</time>
      </trkpt>
      <trkpt lat="43.9537" lon="6.8489">
        <ele>439</ele>
        <time>2020-09-15T16:39:33Z</time>
      </trkpt>
      <trkpt lat="43.95278" lon="6.8446">
        <ele>440</ele>
        <time>2020-09-15T16:40:31Z</time>
      </trkpt>
      <trkpt lat="43.95255" lon="6.84341">
        <ele>441</ele>
        <time>2020-09-15T16:40:46Z</time>
      </trkpt>
      <trkpt lat="43.95234" lon="6.84198">
        <ele>442</ele>
        <time>2020-09-15T16:41:05Z</time>
      </trkpt>
      <trkpt lat="43.95224" lon="6.84095">
        <ele>444</ele>
        <time>2020-09-15T16:41:18Z</time>
      </trkpt>
      <trkpt lat="43.95215" lon="6.83973">
        <ele>445</ele>
        <time>2020-09-15T16:41:34Z</time>
      </trkpt>
      <trkpt lat="43.95212" lon="6.83842">
        <ele>444</ele>
        <time>2020-09-15T16:41:51Z</time>
      </trkpt>
      <trkpt lat="43.95197" lon="6.8344">
        <ele>448</ele>
        <time>2020-09-15T16:42:42Z</time>
      </trkpt>
      <trkpt lat="43.95185" lon="6.8296">
        <ele>454</ele>
        <time>2020-09-15T16:43:44Z</time>
      </trkpt>
      <trkpt lat="43.95176" lon="6.82711">
        <ele>455</ele>
        <time>2020-09-15T16:44:16Z</time>
      </trkpt>
      <trkpt lat="43.95172" lon="6.82649">
        <ele>456</ele>
        <time>2020-09-15T16:44:24Z</time>
      </trkpt>
      <trkpt lat="43.95152" lon="6.82545">
        <ele>457</ele>
        <time>2020-09-15T16:44:38Z</time>
      </trkpt>
      <trkpt lat="43.95145" lon="6.82502">
        <ele>458</ele>
        <time>2020-09-15T16:44:43Z</time>
      </trkpt>
      <trkpt lat="43.95152" lon="6.82459">
        <ele>458</ele>
        <time>2020-09-15T16:44:49Z</time>
      </trkpt>
      <trkpt lat="43.95149" lon="6.82429">
        <ele>459</ele>
        <time>2020-09-15T16:44:53Z</time>
      </trkpt>
      <trkpt lat="43.95133" lon="6.82301">
        <ele>461</ele>
        <time>2020-09-15T16:45:09Z</time>
      </trkpt>
      <trkpt lat="43.95065" lon="6.81708">
        <ele>465</ele>
        <time>2020-09-15T16:46:26Z</time>
      </trkpt>
      <trkpt lat="43.95055" lon="6.81654">
        <ele>467</ele>
        <time>2020-09-15T16:46:34Z</time>
      </trkpt>
      <trkpt lat="43.95053" lon="6.81644">
        <ele>467</ele>
        <time>2020-09-15T16:46:35Z</time>
      </trkpt>
      <trkpt lat="43.95038" lon="6.81584">
        <ele>467</ele>
        <time>2020-09-15T16:46:43Z</time>
      </trkpt>
      <trkpt lat="43.94913" lon="6.81237">
        <ele>472</ele>
        <time>2020-09-15T16:47:33Z</time>
      </trkpt>
      <trkpt lat="43.94907" lon="6.81211">
        <ele>474</ele>
        <time>2020-09-15T16:47:36Z</time>
      </trkpt>
      <trkpt lat="43.94904" lon="6.81185">
        <ele>474</ele>
        <time>2020-09-15T16:47:40Z</time>
      </trkpt>
      <trkpt lat="43.94904" lon="6.81157">
        <ele>475</ele>
        <time>2020-09-15T16:47:43Z</time>
      </trkpt>
      <trkpt lat="43.94904" lon="6.8112">
        <ele>479</ele>
        <time>2020-09-15T16:47:48Z</time>
      </trkpt>
      <trkpt lat="43.94905" lon="6.8108">
        <ele>482</ele>
        <time>2020-09-15T16:47:53Z</time>
      </trkpt>
      <trkpt lat="43.94906" lon="6.81061">
        <ele>484</ele>
        <time>2020-09-15T16:47:55Z</time>
      </trkpt>
      <trkpt lat="43.94906" lon="6.81055">
        <ele>484</ele>
        <time>2020-09-15T16:47:56Z</time>
      </trkpt>
      <trkpt lat="43.94907" lon="6.81051">
        <ele>485</ele>
        <time>2020-09-15T16:47:57Z</time>
      </trkpt>
      <trkpt lat="43.94915" lon="6.81025">
        <ele>486</ele>
        <time>2020-09-15T16:48:00Z</time>
      </trkpt>
      <trkpt lat="43.94923" lon="6.81">
        <ele>488</ele>
        <time>2020-09-15T16:48:04Z</time>
      </trkpt>
      <trkpt lat="43.94926" lon="6.80994">
        <ele>488</ele>
        <time>2020-09-15T16:48:05Z</time>
      </trkpt>
      <trkpt lat="43.94935" lon="6.80978">
        <ele>490</ele>
        <time>2020-09-15T16:48:07Z</time>
      </trkpt>
      <trkpt lat="43.9496" lon="6.80934">
        <ele>491</ele>
        <time>2020-09-15T16:48:15Z</time>
      </trkpt>
      <trkpt lat="43.9497" lon="6.80921">
        <ele>490</ele>
        <time>2020-09-15T16:48:17Z</time>
      </trkpt>
      <trkpt lat="43.94983" lon="6.8091">
        <ele>490</ele>
        <time>2020-09-15T16:48:20Z</time>
      </trkpt>
      <trkpt lat="43.94996" lon="6.80905">
        <ele>490</ele>
        <time>2020-09-15T16:48:22Z</time>
      </trkpt>
      <trkpt lat="43.95009" lon="6.80905">
        <ele>491</ele>
        <time>2020-09-15T16:48:24Z</time>
      </trkpt>
      <trkpt lat="43.95024" lon="6.80908">
        <ele>492</ele>
        <time>2020-09-15T16:48:27Z</time>
      </trkpt>
      <trkpt lat="43.95037" lon="6.80916">
        <ele>491</ele>
        <time>2020-09-15T16:48:30Z</time>
      </trkpt>
      <trkpt lat="43.95074" lon="6.80941">
        <ele>491</ele>
        <time>2020-09-15T16:48:37Z</time>
      </trkpt>
      <trkpt lat="43.95094" lon="6.80948">
        <ele>489</ele>
        <time>2020-09-15T16:48:41Z</time>
      </trkpt>
      <trkpt lat="43.9511" lon="6.80942">
        <ele>487</ele>
        <time>2020-09-15T16:48:44Z</time>
      </trkpt>
      <trkpt lat="43.95121" lon="6.80929">
        <ele>486</ele>
        <time>2020-09-15T16:48:46Z</time>
      </trkpt>
      <trkpt lat="43.95138" lon="6.80889">
        <ele>488</ele>
        <time>2020-09-15T16:48:52Z</time>
      </trkpt>
      <trkpt lat="43.95159" lon="6.80838">
        <ele>489</ele>
        <time>2020-09-15T16:49:00Z</time>
      </trkpt>
      <trkpt lat="43.95179" lon="6.80787">
        <ele>494</ele>
        <time>2020-09-15T16:49:07Z</time>
      </trkpt>
      <trkpt lat="43.95207" lon="6.80735">
        <ele>496</ele>
        <time>2020-09-15T16:49:15Z</time>
      </trkpt>
      <trkpt lat="43.95247" lon="6.80686">
        <ele>488</ele>
        <time>2020-09-15T16:49:25Z</time>
      </trkpt>
      <trkpt lat="43.95256" lon="6.80677">
        <ele>487</ele>
        <time>2020-09-15T16:49:27Z</time>
      </trkpt>
      <trkpt lat="43.95272" lon="6.80655">
        <ele>488</ele>
        <time>2020-09-15T16:49:31Z</time>
      </trkpt>
      <trkpt lat="43.95465" lon="6.80164">
        <ele>496</ele>
        <time>2020-09-15T16:50:43Z</time>
      </trkpt>
      <trkpt lat="43.9549" lon="6.80061">
        <ele>500</ele>
        <time>2020-09-15T16:50:57Z</time>
      </trkpt>
      <trkpt lat="43.955" lon="6.80031">
        <ele>499</ele>
        <time>2020-09-15T16:51:01Z</time>
      </trkpt>
      <trkpt lat="43.95531" lon="6.79966">
        <ele>501</ele>
        <time>2020-09-15T16:51:11Z</time>
      </trkpt>
      <trkpt lat="43.95559" lon="6.79897">
        <ele>501</ele>
        <time>2020-09-15T16:51:21Z</time>
      </trkpt>
      <trkpt lat="43.95574" lon="6.79863">
        <ele>500</ele>
        <time>2020-09-15T16:51:26Z</time>
      </trkpt>
      <trkpt lat="43.95621" lon="6.79783">
        <ele>500</ele>
        <time>2020-09-15T16:51:39Z</time>
      </trkpt>
      <trkpt lat="43.9565" lon="6.79738">
        <ele>499</ele>
        <time>2020-09-15T16:51:47Z</time>
      </trkpt>
      <trkpt lat="43.95668" lon="6.79712">
        <ele>500</ele>
        <time>2020-09-15T16:51:52Z</time>
      </trkpt>
      <trkpt lat="43.957" lon="6.79669">
        <ele>503</ele>
        <time>2020-09-15T16:51:59Z</time>
      </trkpt>
      <trkpt lat="43.95728" lon="6.79641">
        <ele>503</ele>
        <time>2020-09-15T16:52:06Z</time>
      </trkpt>
      <trkpt lat="43.9573" lon="6.7964">
        <ele>503</ele>
        <time>2020-09-15T16:52:06Z</time>
      </trkpt>
      <trkpt lat="43.95748" lon="6.79628">
        <ele>502</ele>
        <time>2020-09-15T16:52:10Z</time>
      </trkpt>
      <trkpt lat="43.95824" lon="6.79584">
        <ele>502</ele>
        <time>2020-09-15T16:52:24Z</time>
      </trkpt>
      <trkpt lat="43.95846" lon="6.79564">
        <ele>503</ele>
        <time>2020-09-15T16:52:29Z</time>
      </trkpt>
      <trkpt lat="43.95861" lon="6.79543">
        <ele>504</ele>
        <time>2020-09-15T16:52:33Z</time>
      </trkpt>
      <trkpt lat="43.95873" lon="6.79517">
        <ele>505</ele>
        <time>2020-09-15T16:52:37Z</time>
      </trkpt>
      <trkpt lat="43.95879" lon="6.79504">
        <ele>505</ele>
        <time>2020-09-15T16:52:39Z</time>
      </trkpt>
      <trkpt lat="43.95918" lon="6.79417">
        <ele>505</ele>
        <time>2020-09-15T16:52:52Z</time>
      </trkpt>
      <trkpt lat="43.95926" lon="6.79392">
        <ele>504</ele>
        <time>2020-09-15T16:52:55Z</time>
      </trkpt>
      <trkpt lat="43.95933" lon="6.79351">
        <ele>504</ele>
        <time>2020-09-15T16:53:01Z</time>
      </trkpt>
      <trkpt lat="43.95936" lon="6.79309">
        <ele>505</ele>
        <time>2020-09-15T16:53:06Z</time>
      </trkpt>
      <trkpt lat="43.95943" lon="6.79269">
        <ele>506</ele>
        <time>2020-09-15T16:53:11Z</time>
      </trkpt>
      <trkpt lat="43.95956" lon="6.79242">
        <ele>506</ele>
        <time>2020-09-15T16:53:15Z</time>
      </trkpt>
      <trkpt lat="43.95974" lon="6.79214">
        <ele>506</ele>
        <time>2020-09-15T16:53:20Z</time>
      </trkpt>
      <trkpt lat="43.95996" lon="6.79168">
        <ele>507</ele>
        <time>2020-09-15T16:53:27Z</time>
      </trkpt>
      <trkpt lat="43.96018" lon="6.79117">
        <ele>509</ele>
        <time>2020-09-15T16:53:35Z</time>
      </trkpt>
      <trkpt lat="43.96129" lon="6.78887">
        <ele>508</ele>
        <time>2020-09-15T16:54:10Z</time>
      </trkpt>
      <trkpt lat="43.96142" lon="6.78849">
        <ele>509</ele>
        <time>2020-09-15T16:54:16Z</time>
      </trkpt>
      <trkpt lat="43.96149" lon="6.78819">
        <ele>509</ele>
        <time>2020-09-15T16:54:20Z</time>
      </trkpt>
      <trkpt lat="43.96153" lon="6.78758">
        <ele>512</ele>
        <time>2020-09-15T16:54:28Z</time>
      </trkpt>
      <trkpt lat="43.96158" lon="6.78723">
        <ele>512</ele>
        <time>2020-09-15T16:54:32Z</time>
      </trkpt>
      <trkpt lat="43.96162" lon="6.78706">
        <ele>512</ele>
        <time>2020-09-15T16:54:35Z</time>
      </trkpt>
      <trkpt lat="43.96166" lon="6.78694">
        <ele>511</ele>
        <time>2020-09-15T16:54:36Z</time>
      </trkpt>
      <trkpt lat="43.96218" lon="6.78561">
        <ele>517</ele>
        <time>2020-09-15T16:54:56Z</time>
      </trkpt>
      <trkpt lat="43.9624" lon="6.78517">
        <ele>519</ele>
        <time>2020-09-15T16:55:03Z</time>
      </trkpt>
      <trkpt lat="43.96332" lon="6.78402">
        <ele>513</ele>
        <time>2020-09-15T16:55:25Z</time>
      </trkpt>
      <trkpt lat="43.96364" lon="6.78348">
        <ele>510</ele>
        <time>2020-09-15T16:55:33Z</time>
      </trkpt>
      <trkpt lat="43.96382" lon="6.78315">
        <ele>509</ele>
        <time>2020-09-15T16:55:39Z</time>
      </trkpt>
      <trkpt lat="43.96401" lon="6.7829">
        <ele>510</ele>
        <time>2020-09-15T16:55:43Z</time>
      </trkpt>
      <trkpt lat="43.96429" lon="6.78264">
        <ele>512</ele>
        <time>2020-09-15T16:55:49Z</time>
      </trkpt>
      <trkpt lat="43.96451" lon="6.78232">
        <ele>514</ele>
        <time>2020-09-15T16:55:55Z</time>
      </trkpt>
      <trkpt lat="43.96506" lon="6.7812">
        <ele>523</ele>
        <time>2020-09-15T16:56:12Z</time>
      </trkpt>
      <trkpt lat="43.96573" lon="6.78">
        <ele>518</ele>
        <time>2020-09-15T16:56:32Z</time>
      </trkpt>
      <trkpt lat="43.96579" lon="6.77989">
        <ele>518</ele>
        <time>2020-09-15T16:56:34Z</time>
      </trkpt>
      <trkpt lat="43.96591" lon="6.77969">
        <ele>521</ele>
        <time>2020-09-15T16:56:37Z</time>
      </trkpt>
      <trkpt lat="43.9663" lon="6.77893">
        <ele>528</ele>
        <time>2020-09-15T16:56:49Z</time>
      </trkpt>
      <trkpt lat="43.96645" lon="6.77867">
        <ele>525</ele>
        <time>2020-09-15T16:56:53Z</time>
      </trkpt>
      <trkpt lat="43.96674" lon="6.77826">
        <ele>518</ele>
        <time>2020-09-15T16:57:01Z</time>
      </trkpt>
      <trkpt lat="43.96685" lon="6.77815">
        <ele>520</ele>
        <time>2020-09-15T16:57:03Z</time>
      </trkpt>
      <trkpt lat="43.96694" lon="6.77807">
        <ele>521</ele>
        <time>2020-09-15T16:57:05Z</time>
      </trkpt>
      <trkpt lat="43.96722" lon="6.77787">
        <ele>525</ele>
        <time>2020-09-15T16:57:11Z</time>
      </trkpt>
      <trkpt lat="43.96736" lon="6.7778">
        <ele>525</ele>
        <time>2020-09-15T16:57:13Z</time>
      </trkpt>
      <trkpt lat="43.9679" lon="6.77767">
        <ele>524</ele>
        <time>2020-09-15T16:57:23Z</time>
      </trkpt>
      <trkpt lat="43.9681" lon="6.77758">
        <ele>524</ele>
        <time>2020-09-15T16:57:27Z</time>
      </trkpt>
      <trkpt lat="43.96823" lon="6.77751">
        <ele>524</ele>
        <time>2020-09-15T16:57:29Z</time>
      </trkpt>
      <trkpt lat="43.96868" lon="6.77721">
        <ele>532</ele>
        <time>2020-09-15T16:57:38Z</time>
      </trkpt>
      <trkpt lat="43.96899" lon="6.7771">
        <ele>533</ele>
        <time>2020-09-15T16:57:44Z</time>
      </trkpt>
      <trkpt lat="43.9698" lon="6.77697">
        <ele>523</ele>
        <time>2020-09-15T16:57:58Z</time>
      </trkpt>
      <trkpt lat="43.96992" lon="6.777">
        <ele>520</ele>
        <time>2020-09-15T16:58:00Z</time>
      </trkpt>
      <trkpt lat="43.97011" lon="6.77716">
        <ele>516</ele>
        <time>2020-09-15T16:58:04Z</time>
      </trkpt>
      <trkpt lat="43.9704" lon="6.77754">
        <ele>515</ele>
        <time>2020-09-15T16:58:11Z</time>
      </trkpt>
      <trkpt lat="43.9706" lon="6.77778">
        <ele>520</ele>
        <time>2020-09-15T16:58:16Z</time>
      </trkpt>
      <trkpt lat="43.97075" lon="6.77787">
        <ele>521</ele>
        <time>2020-09-15T16:58:19Z</time>
      </trkpt>
      <trkpt lat="43.97097" lon="6.7779">
        <ele>523</ele>
        <time>2020-09-15T16:58:23Z</time>
      </trkpt>
      <trkpt lat="43.97119" lon="6.77781">
        <ele>524</ele>
        <time>2020-09-15T16:58:27Z</time>
      </trkpt>
      <trkpt lat="43.97137" lon="6.77767">
        <ele>524</ele>
        <time>2020-09-15T16:58:31Z</time>
      </trkpt>
      <trkpt lat="43.9715" lon="6.7774">
        <ele>524</ele>
        <time>2020-09-15T16:58:35Z</time>
      </trkpt>
      <trkpt lat="43.97158" lon="6.77705">
        <ele>524</ele>
        <time>2020-09-15T16:58:40Z</time>
      </trkpt>
      <trkpt lat="43.97164" lon="6.77663">
        <ele>524</ele>
        <time>2020-09-15T16:58:45Z</time>
      </trkpt>
      <trkpt lat="43.97169" lon="6.77568">
        <ele>525</ele>
        <time>2020-09-15T16:58:57Z</time>
      </trkpt>
      <trkpt lat="43.97171" lon="6.77547">
        <ele>525</ele>
        <time>2020-09-15T16:59:00Z</time>
      </trkpt>
      <trkpt lat="43.97176" lon="6.77528">
        <ele>526</ele>
        <time>2020-09-15T16:59:03Z</time>
      </trkpt>
      <trkpt lat="43.97215" lon="6.77457">
        <ele>534</ele>
        <time>2020-09-15T16:59:14Z</time>
      </trkpt>
      <trkpt lat="43.97224" lon="6.77416">
        <ele>534</ele>
        <time>2020-09-15T16:59:19Z</time>
      </trkpt>
      <trkpt lat="43.9723" lon="6.77366">
        <ele>535</ele>
        <time>2020-09-15T16:59:26Z</time>
      </trkpt>
      <trkpt lat="43.97233" lon="6.77276">
        <ele>536</ele>
        <time>2020-09-15T16:59:38Z</time>
      </trkpt>
      <trkpt lat="43.9723" lon="6.77246">
        <ele>535</ele>
        <time>2020-09-15T16:59:41Z</time>
      </trkpt>
      <trkpt lat="43.97221" lon="6.772">
        <ele>534</ele>
        <time>2020-09-15T16:59:48Z</time>
      </trkpt>
      <trkpt lat="43.97213" lon="6.77152">
        <ele>534</ele>
        <time>2020-09-15T16:59:54Z</time>
      </trkpt>
      <trkpt lat="43.97206" lon="6.77053">
        <ele>536</ele>
        <time>2020-09-15T17:00:07Z</time>
      </trkpt>
      <trkpt lat="43.97206" lon="6.76946">
        <ele>537</ele>
        <time>2020-09-15T17:00:20Z</time>
      </trkpt>
      <trkpt lat="43.97207" lon="6.76917">
        <ele>538</ele>
        <time>2020-09-15T17:00:24Z</time>
      </trkpt>
      <trkpt lat="43.97213" lon="6.76877">
        <ele>538</ele>
        <time>2020-09-15T17:00:29Z</time>
      </trkpt>
      <trkpt lat="43.97225" lon="6.76837">
        <ele>539</ele>
        <time>2020-09-15T17:00:35Z</time>
      </trkpt>
      <trkpt lat="43.9724" lon="6.768">
        <ele>540</ele>
        <time>2020-09-15T17:00:40Z</time>
      </trkpt>
      <trkpt lat="43.97264" lon="6.76701">
        <ele>549</ele>
        <time>2020-09-15T17:00:54Z</time>
      </trkpt>
      <trkpt lat="43.97267" lon="6.76673">
        <ele>552</ele>
        <time>2020-09-15T17:00:57Z</time>
      </trkpt>
      <trkpt lat="43.97268" lon="6.76644">
        <ele>556</ele>
        <time>2020-09-15T17:01:01Z</time>
      </trkpt>
      <trkpt lat="43.97263" lon="6.76603">
        <ele>555</ele>
        <time>2020-09-15T17:01:06Z</time>
      </trkpt>
      <trkpt lat="43.97225" lon="6.76402">
        <ele>582</ele>
        <time>2020-09-15T17:01:33Z</time>
      </trkpt>
      <trkpt lat="43.97221" lon="6.76374">
        <ele>587</ele>
        <time>2020-09-15T17:01:37Z</time>
      </trkpt>
      <trkpt lat="43.97207" lon="6.76327">
        <ele>583</ele>
        <time>2020-09-15T17:01:43Z</time>
      </trkpt>
      <trkpt lat="43.97172" lon="6.76238">
        <ele>553</ele>
        <time>2020-09-15T17:01:56Z</time>
      </trkpt>
      <trkpt lat="43.97161" lon="6.76192">
        <ele>554</ele>
        <time>2020-09-15T17:02:02Z</time>
      </trkpt>
      <trkpt lat="43.9715" lon="6.76101">
        <ele>559</ele>
        <time>2020-09-15T17:02:14Z</time>
      </trkpt>
      <trkpt lat="43.97146" lon="6.7608">
        <ele>558</ele>
        <time>2020-09-15T17:02:17Z</time>
      </trkpt>
      <trkpt lat="43.97142" lon="6.76067">
        <ele>556</ele>
        <time>2020-09-15T17:02:19Z</time>
      </trkpt>
      <trkpt lat="43.97133" lon="6.76048">
        <ele>552</ele>
        <time>2020-09-15T17:02:22Z</time>
      </trkpt>
      <trkpt lat="43.97111" lon="6.76008">
        <ele>547</ele>
        <time>2020-09-15T17:02:28Z</time>
      </trkpt>
      <trkpt lat="43.97098" lon="6.75994">
        <ele>547</ele>
        <time>2020-09-15T17:02:31Z</time>
      </trkpt>
      <trkpt lat="43.9708" lon="6.75992">
        <ele>545</ele>
        <time>2020-09-15T17:02:34Z</time>
      </trkpt>
      <trkpt lat="43.97054" lon="6.75994">
        <ele>542</ele>
        <time>2020-09-15T17:02:39Z</time>
      </trkpt>
      <trkpt lat="43.97036" lon="6.75985">
        <ele>541</ele>
        <time>2020-09-15T17:02:42Z</time>
      </trkpt>
      <trkpt lat="43.97027" lon="6.75978">
        <ele>541</ele>
        <time>2020-09-15T17:02:44Z</time>
      </trkpt>
      <trkpt lat="43.96955" lon="6.75895">
        <ele>542</ele>
        <time>2020-09-15T17:03:01Z</time>
      </trkpt>
      <trkpt lat="43.96831" lon="6.75745">
        <ele>541</ele>
        <time>2020-09-15T17:03:30Z</time>
      </trkpt>
      <trkpt lat="43.96822" lon="6.75731">
        <ele>542</ele>
        <time>2020-09-15T17:03:32Z</time>
      </trkpt>
      <trkpt lat="43.96804" lon="6.75699">
        <ele>543</ele>
        <time>2020-09-15T17:03:37Z</time>
      </trkpt>
      <trkpt lat="43.96748" lon="6.75569">
        <ele>542</ele>
        <time>2020-09-15T17:03:57Z</time>
      </trkpt>
      <trkpt lat="43.96732" lon="6.75528">
        <ele>545</ele>
        <time>2020-09-15T17:04:03Z</time>
      </trkpt>
      <trkpt lat="43.96725" lon="6.75487">
        <ele>548</ele>
        <time>2020-09-15T17:04:08Z</time>
      </trkpt>
      <trkpt lat="43.96714" lon="6.75157">
        <ele>560</ele>
        <time>2020-09-15T17:04:51Z</time>
      </trkpt>
      <trkpt lat="43.9671" lon="6.75106">
        <ele>563</ele>
        <time>2020-09-15T17:04:57Z</time>
      </trkpt>
      <trkpt lat="43.96706" lon="6.7508">
        <ele>563</ele>
        <time>2020-09-15T17:05:01Z</time>
      </trkpt>
      <trkpt lat="43.96701" lon="6.75055">
        <ele>560</ele>
        <time>2020-09-15T17:05:04Z</time>
      </trkpt>
      <trkpt lat="43.96675" lon="6.74959">
        <ele>549</ele>
        <time>2020-09-15T17:05:17Z</time>
      </trkpt>
      <trkpt lat="43.96672" lon="6.74949">
        <ele>549</ele>
        <time>2020-09-15T17:05:18Z</time>
      </trkpt>
      <trkpt lat="43.96659" lon="6.74901">
        <ele>549</ele>
        <time>2020-09-15T17:05:25Z</time>
      </trkpt>
      <trkpt lat="43.96645" lon="6.74817">
        <ele>553</ele>
        <time>2020-09-15T17:05:36Z</time>
      </trkpt>
      <trkpt lat="43.96639" lon="6.74789">
        <ele>554</ele>
        <time>2020-09-15T17:05:40Z</time>
      </trkpt>
      <trkpt lat="43.96632" lon="6.74762">
        <ele>554</ele>
        <time>2020-09-15T17:05:43Z</time>
      </trkpt>
      <trkpt lat="43.96622" lon="6.74735">
        <ele>554</ele>
        <time>2020-09-15T17:05:47Z</time>
      </trkpt>
      <trkpt lat="43.966" lon="6.74686">
        <ele>554</ele>
        <time>2020-09-15T17:05:55Z</time>
      </trkpt>
      <trkpt lat="43.96449" lon="6.744">
        <ele>561</ele>
        <time>2020-09-15T17:06:40Z</time>
      </trkpt>
      <trkpt lat="43.96399" lon="6.74295">
        <ele>562</ele>
        <time>2020-09-15T17:06:56Z</time>
      </trkpt>
      <trkpt lat="43.96141" lon="6.73681">
        <ele>582</ele>
        <time>2020-09-15T17:08:27Z</time>
      </trkpt>
      <trkpt lat="43.96126" lon="6.73651">
        <ele>585</ele>
        <time>2020-09-15T17:08:32Z</time>
      </trkpt>
      <trkpt lat="43.96115" lon="6.73633">
        <ele>586</ele>
        <time>2020-09-15T17:08:35Z</time>
      </trkpt>
      <trkpt lat="43.96096" lon="6.7361">
        <ele>583</ele>
        <time>2020-09-15T17:08:39Z</time>
      </trkpt>
      <trkpt lat="43.9602" lon="6.73533">
        <ele>588</ele>
        <time>2020-09-15T17:08:56Z</time>
      </trkpt>
      <trkpt lat="43.96" lon="6.73517">
        <ele>587</ele>
        <time>2020-09-15T17:09:00Z</time>
      </trkpt>
      <trkpt lat="43.9597" lon="6.735">
        <ele>584</ele>
        <time>2020-09-15T17:09:06Z</time>
      </trkpt>
      <trkpt lat="43.95944" lon="6.73493">
        <ele>577</ele>
        <time>2020-09-15T17:09:11Z</time>
      </trkpt>
      <trkpt lat="43.95925" lon="6.7349">
        <ele>572</ele>
        <time>2020-09-15T17:09:14Z</time>
      </trkpt>
      <trkpt lat="43.95908" lon="6.73484">
        <ele>570</ele>
        <time>2020-09-15T17:09:17Z</time>
      </trkpt>
      <trkpt lat="43.95894" lon="6.73473">
        <ele>571</ele>
        <time>2020-09-15T17:09:20Z</time>
      </trkpt>
      <trkpt lat="43.95886" lon="6.73463">
        <ele>572</ele>
        <time>2020-09-15T17:09:22Z</time>
      </trkpt>
      <trkpt lat="43.95881" lon="6.73448">
        <ele>575</ele>
        <time>2020-09-15T17:09:24Z</time>
      </trkpt>
      <trkpt lat="43.95879" lon="6.7343">
        <ele>577</ele>
        <time>2020-09-15T17:09:27Z</time>
      </trkpt>
      <trkpt lat="43.95879" lon="6.73411">
        <ele>580</ele>
        <time>2020-09-15T17:09:29Z</time>
      </trkpt>
      <trkpt lat="43.9588" lon="6.73398">
        <ele>580</ele>
        <time>2020-09-15T17:09:31Z</time>
      </trkpt>
      <trkpt lat="43.95899" lon="6.73261">
        <ele>576</ele>
        <time>2020-09-15T17:09:49Z</time>
      </trkpt>
      <trkpt lat="43.95916" lon="6.73169">
        <ele>570</ele>
        <time>2020-09-15T17:10:01Z</time>
      </trkpt>
      <trkpt lat="43.95937" lon="6.73034">
        <ele>572</ele>
        <time>2020-09-15T17:10:18Z</time>
      </trkpt>
      <trkpt lat="43.95989" lon="6.72744">
        <ele>576</ele>
        <time>2020-09-15T17:10:57Z</time>
      </trkpt>
      <trkpt lat="43.95993" lon="6.72716">
        <ele>577</ele>
        <time>2020-09-15T17:11:00Z</time>
      </trkpt>
      <trkpt lat="43.95998" lon="6.7247">
        <ele>579</ele>
        <time>2020-09-15T17:11:32Z</time>
      </trkpt>
      <trkpt lat="43.95996" lon="6.72433">
        <ele>580</ele>
        <time>2020-09-15T17:11:37Z</time>
      </trkpt>
      <trkpt lat="43.95993" lon="6.72399">
        <ele>581</ele>
        <time>2020-09-15T17:11:41Z</time>
      </trkpt>
      <trkpt lat="43.95948" lon="6.72207">
        <ele>584</ele>
        <time>2020-09-15T17:12:07Z</time>
      </trkpt>
      <trkpt lat="43.95943" lon="6.72169">
        <ele>584</ele>
        <time>2020-09-15T17:12:12Z</time>
      </trkpt>
      <trkpt lat="43.95935" lon="6.71984">
        <ele>587</ele>
        <time>2020-09-15T17:12:36Z</time>
      </trkpt>
      <trkpt lat="43.95936" lon="6.71951">
        <ele>589</ele>
        <time>2020-09-15T17:12:40Z</time>
      </trkpt>
      <trkpt lat="43.95939" lon="6.7193">
        <ele>590</ele>
        <time>2020-09-15T17:12:43Z</time>
      </trkpt>
      <trkpt lat="43.95962" lon="6.71787">
        <ele>596</ele>
        <time>2020-09-15T17:13:01Z</time>
      </trkpt>
      <trkpt lat="43.95964" lon="6.7176">
        <ele>596</ele>
        <time>2020-09-15T17:13:05Z</time>
      </trkpt>
      <trkpt lat="43.95961" lon="6.71686">
        <ele>593</ele>
        <time>2020-09-15T17:13:14Z</time>
      </trkpt>
      <trkpt lat="43.95962" lon="6.71618">
        <ele>594</ele>
        <time>2020-09-15T17:13:23Z</time>
      </trkpt>
      <trkpt lat="43.95961" lon="6.71585">
        <ele>594</ele>
        <time>2020-09-15T17:13:27Z</time>
      </trkpt>
      <trkpt lat="43.95944" lon="6.71485">
        <ele>595</ele>
        <time>2020-09-15T17:13:40Z</time>
      </trkpt>
      <trkpt lat="43.95929" lon="6.71432">
        <ele>594</ele>
        <time>2020-09-15T17:13:48Z</time>
      </trkpt>
      <trkpt lat="43.95928" lon="6.71421">
        <ele>595</ele>
        <time>2020-09-15T17:13:49Z</time>
      </trkpt>
      <trkpt lat="43.95927" lon="6.71394">
        <ele>595</ele>
        <time>2020-09-15T17:13:53Z</time>
      </trkpt>
      <trkpt lat="43.95933" lon="6.71272">
        <ele>597</ele>
        <time>2020-09-15T17:14:08Z</time>
      </trkpt>
      <trkpt lat="43.95936" lon="6.71244">
        <ele>597</ele>
        <time>2020-09-15T17:14:12Z</time>
      </trkpt>
      <trkpt lat="43.95962" lon="6.71106">
        <ele>598</ele>
        <time>2020-09-15T17:14:30Z</time>
      </trkpt>
      <trkpt lat="43.95963" lon="6.71076">
        <ele>599</ele>
        <time>2020-09-15T17:14:34Z</time>
      </trkpt>
      <trkpt lat="43.9596" lon="6.7105">
        <ele>600</ele>
        <time>2020-09-15T17:14:37Z</time>
      </trkpt>
      <trkpt lat="43.95922" lon="6.70884">
        <ele>600</ele>
        <time>2020-09-15T17:15:00Z</time>
      </trkpt>
      <trkpt lat="43.95856" lon="6.70568">
        <ele>603</ele>
        <time>2020-09-15T17:15:42Z</time>
      </trkpt>
      <trkpt lat="43.95843" lon="6.70424">
        <ele>609</ele>
        <time>2020-09-15T17:16:00Z</time>
      </trkpt>
      <trkpt lat="43.95838" lon="6.70399">
        <ele>610</ele>
        <time>2020-09-15T17:16:04Z</time>
      </trkpt>
      <trkpt lat="43.95832" lon="6.70378">
        <ele>610</ele>
        <time>2020-09-15T17:16:07Z</time>
      </trkpt>
      <trkpt lat="43.9579" lon="6.70278">
        <ele>611</ele>
        <time>2020-09-15T17:16:21Z</time>
      </trkpt>
      <trkpt lat="43.95776" lon="6.70233">
        <ele>611</ele>
        <time>2020-09-15T17:16:28Z</time>
      </trkpt>
      <trkpt lat="43.95759" lon="6.70171">
        <ele>612</ele>
        <time>2020-09-15T17:16:36Z</time>
      </trkpt>
      <trkpt lat="43.95752" lon="6.70139">
        <ele>612</ele>
        <time>2020-09-15T17:16:40Z</time>
      </trkpt>
      <trkpt lat="43.95746" lon="6.70076">
        <ele>615</ele>
        <time>2020-09-15T17:16:49Z</time>
      </trkpt>
      <trkpt lat="43.95742" lon="6.69993">
        <ele>614</ele>
        <time>2020-09-15T17:16:59Z</time>
      </trkpt>
      <trkpt lat="43.95738" lon="6.69926">
        <ele>612</ele>
        <time>2020-09-15T17:17:08Z</time>
      </trkpt>
      <trkpt lat="43.95738" lon="6.69903">
        <ele>613</ele>
        <time>2020-09-15T17:17:11Z</time>
      </trkpt>
      <trkpt lat="43.95744" lon="6.69867">
        <ele>615</ele>
        <time>2020-09-15T17:17:16Z</time>
      </trkpt>
      <trkpt lat="43.95751" lon="6.69807">
        <ele>620</ele>
        <time>2020-09-15T17:17:23Z</time>
      </trkpt>
      <trkpt lat="43.95755" lon="6.69775">
        <ele>625</ele>
        <time>2020-09-15T17:17:27Z</time>
      </trkpt>
      <trkpt lat="43.95764" lon="6.69713">
        <ele>630</ele>
        <time>2020-09-15T17:17:36Z</time>
      </trkpt>
      <trkpt lat="43.95776" lon="6.69667">
        <ele>632</ele>
        <time>2020-09-15T17:17:42Z</time>
      </trkpt>
      <trkpt lat="43.95806" lon="6.69583">
        <ele>630</ele>
        <time>2020-09-15T17:17:54Z</time>
      </trkpt>
      <trkpt lat="43.95808" lon="6.69577">
        <ele>630</ele>
        <time>2020-09-15T17:17:55Z</time>
      </trkpt>
      <trkpt lat="43.95824" lon="6.69525">
        <ele>632</ele>
        <time>2020-09-15T17:18:02Z</time>
      </trkpt>
      <trkpt lat="43.95829" lon="6.69502">
        <ele>633</ele>
        <time>2020-09-15T17:18:05Z</time>
      </trkpt>
      <trkpt lat="43.9583" lon="6.69487">
        <ele>635</ele>
        <time>2020-09-15T17:18:07Z</time>
      </trkpt>
      <trkpt lat="43.9583" lon="6.69471">
        <ele>637</ele>
        <time>2020-09-15T17:18:09Z</time>
      </trkpt>
      <trkpt lat="43.95826" lon="6.69448">
        <ele>639</ele>
        <time>2020-09-15T17:18:12Z</time>
      </trkpt>
      <trkpt lat="43.95784" lon="6.69283">
        <ele>651</ele>
        <time>2020-09-15T17:18:34Z</time>
      </trkpt>
      <trkpt lat="43.95776" lon="6.69241">
        <ele>653</ele>
        <time>2020-09-15T17:18:40Z</time>
      </trkpt>
      <trkpt lat="43.95767" lon="6.6915">
        <ele>657</ele>
        <time>2020-09-15T17:18:52Z</time>
      </trkpt>
      <trkpt lat="43.95766" lon="6.69137">
        <ele>660</ele>
        <time>2020-09-15T17:18:53Z</time>
      </trkpt>
      <trkpt lat="43.9576" lon="6.69115">
        <ele>662</ele>
        <time>2020-09-15T17:18:56Z</time>
      </trkpt>
      <trkpt lat="43.95659" lon="6.68881">
        <ele>664</ele>
        <time>2020-09-15T17:19:31Z</time>
      </trkpt>
      <trkpt lat="43.95609" lon="6.68795">
        <ele>667</ele>
        <time>2020-09-15T17:19:46Z</time>
      </trkpt>
      <trkpt lat="43.95593" lon="6.68766">
        <ele>665</ele>
        <time>2020-09-15T17:19:50Z</time>
      </trkpt>
      <trkpt lat="43.95584" lon="6.68743">
        <ele>664</ele>
        <time>2020-09-15T17:19:54Z</time>
      </trkpt>
      <trkpt lat="43.95582" lon="6.68726">
        <ele>663</ele>
        <time>2020-09-15T17:19:56Z</time>
      </trkpt>
      <trkpt lat="43.95583" lon="6.68687">
        <ele>660</ele>
        <time>2020-09-15T17:20:01Z</time>
      </trkpt>
      <trkpt lat="43.95582" lon="6.68654">
        <ele>659</ele>
        <time>2020-09-15T17:20:05Z</time>
      </trkpt>
      <trkpt lat="43.95583" lon="6.68649">
        <ele>659</ele>
        <time>2020-09-15T17:20:06Z</time>
      </trkpt>
      <trkpt lat="43.95577" lon="6.68647">
        <ele>660</ele>
        <time>2020-09-15T17:20:07Z</time>
      </trkpt>
      <trkpt lat="43.95552" lon="6.68642">
        <ele>664</ele>
        <time>2020-09-15T17:20:11Z</time>
      </trkpt>
      <trkpt lat="43.95545" lon="6.68636">
        <ele>665</ele>
        <time>2020-09-15T17:20:13Z</time>
      </trkpt>
      <trkpt lat="43.9549" lon="6.68513">
        <ele>665</ele>
        <time>2020-09-15T17:20:31Z</time>
      </trkpt>
      <trkpt lat="43.95471" lon="6.68477">
        <ele>664</ele>
        <time>2020-09-15T17:20:37Z</time>
      </trkpt>
      <trkpt lat="43.9546" lon="6.68467">
        <ele>665</ele>
        <time>2020-09-15T17:20:39Z</time>
      </trkpt>
      <trkpt lat="43.9545" lon="6.68464">
        <ele>666</ele>
        <time>2020-09-15T17:20:41Z</time>
      </trkpt>
      <trkpt lat="43.95429" lon="6.68471">
        <ele>669</ele>
        <time>2020-09-15T17:20:45Z</time>
      </trkpt>
      <trkpt lat="43.95407" lon="6.68474">
        <ele>672</ele>
        <time>2020-09-15T17:20:49Z</time>
      </trkpt>
      <trkpt lat="43.9539" lon="6.6847">
        <ele>673</ele>
        <time>2020-09-15T17:20:52Z</time>
      </trkpt>
      <trkpt lat="43.95342" lon="6.68448">
        <ele>678</ele>
        <time>2020-09-15T17:21:01Z</time>
      </trkpt>
      <trkpt lat="43.9533" lon="6.68449">
        <ele>680</ele>
        <time>2020-09-15T17:21:03Z</time>
      </trkpt>
      <trkpt lat="43.95319" lon="6.68455">
        <ele>681</ele>
        <time>2020-09-15T17:21:05Z</time>
      </trkpt>
      <trkpt lat="43.95306" lon="6.68465">
        <ele>682</ele>
        <time>2020-09-15T17:21:08Z</time>
      </trkpt>
      <trkpt lat="43.9529" lon="6.68487">
        <ele>682</ele>
        <time>2020-09-15T17:21:12Z</time>
      </trkpt>
      <trkpt lat="43.95273" lon="6.68495">
        <ele>681</ele>
        <time>2020-09-15T17:21:15Z</time>
      </trkpt>
      <trkpt lat="43.95218" lon="6.68534">
        <ele>689</ele>
        <time>2020-09-15T17:21:26Z</time>
      </trkpt>
      <trkpt lat="43.95211" lon="6.68545">
        <ele>690</ele>
        <time>2020-09-15T17:21:28Z</time>
      </trkpt>
      <trkpt lat="43.95207" lon="6.6856">
        <ele>690</ele>
        <time>2020-09-15T17:21:30Z</time>
      </trkpt>
      <trkpt lat="43.95204" lon="6.68605">
        <ele>696</ele>
        <time>2020-09-15T17:21:36Z</time>
      </trkpt>
      <trkpt lat="43.95198" lon="6.68623">
        <ele>697</ele>
        <time>2020-09-15T17:21:38Z</time>
      </trkpt>
      <trkpt lat="43.95191" lon="6.68639">
        <ele>697</ele>
        <time>2020-09-15T17:21:41Z</time>
      </trkpt>
      <trkpt lat="43.95175" lon="6.6867">
        <ele>695</ele>
        <time>2020-09-15T17:21:46Z</time>
      </trkpt>
      <trkpt lat="43.95155" lon="6.68694">
        <ele>701</ele>
        <time>2020-09-15T17:21:50Z</time>
      </trkpt>
      <trkpt lat="43.9514" lon="6.68705">
        <ele>704</ele>
        <time>2020-09-15T17:21:53Z</time>
      </trkpt>
      <trkpt lat="43.95127" lon="6.68711">
        <ele>704</ele>
        <time>2020-09-15T17:21:56Z</time>
      </trkpt>
      <trkpt lat="43.95104" lon="6.68717">
        <ele>702</ele>
        <time>2020-09-15T17:22:00Z</time>
      </trkpt>
      <trkpt lat="43.95031" lon="6.68722">
        <ele>693</ele>
        <time>2020-09-15T17:22:13Z</time>
      </trkpt>
      <trkpt lat="43.95017" lon="6.68725">
        <ele>692</ele>
        <time>2020-09-15T17:22:15Z</time>
      </trkpt>
      <trkpt lat="43.95004" lon="6.6873">
        <ele>690</ele>
        <time>2020-09-15T17:22:18Z</time>
      </trkpt>
      <trkpt lat="43.94992" lon="6.68739">
        <ele>691</ele>
        <time>2020-09-15T17:22:20Z</time>
      </trkpt>
      <trkpt lat="43.94981" lon="6.68753">
        <ele>692</ele>
        <time>2020-09-15T17:22:23Z</time>
      </trkpt>
      <trkpt lat="43.94931" lon="6.68844">
        <ele>707</ele>
        <time>2020-09-15T17:22:38Z</time>
      </trkpt>
      <trkpt lat="43.9492" lon="6.68859">
        <ele>707</ele>
        <time>2020-09-15T17:22:40Z</time>
      </trkpt>
      <trkpt lat="43.94906" lon="6.6887">
        <ele>709</ele>
        <time>2020-09-15T17:22:43Z</time>
      </trkpt>
      <trkpt lat="43.94892" lon="6.68878">
        <ele>710</ele>
        <time>2020-09-15T17:22:46Z</time>
      </trkpt>
      <trkpt lat="43.94876" lon="6.68882">
        <ele>710</ele>
        <time>2020-09-15T17:22:49Z</time>
      </trkpt>
      <trkpt lat="43.94809" lon="6.68887">
        <ele>706</ele>
        <time>2020-09-15T17:23:01Z</time>
      </trkpt>
      <trkpt lat="43.94793" lon="6.68891">
        <ele>707</ele>
        <time>2020-09-15T17:23:04Z</time>
      </trkpt>
      <trkpt lat="43.94778" lon="6.68896">
        <ele>707</ele>
        <time>2020-09-15T17:23:06Z</time>
      </trkpt>
      <trkpt lat="43.94734" lon="6.6892">
        <ele>711</ele>
        <time>2020-09-15T17:23:15Z</time>
      </trkpt>
      <trkpt lat="43.94688" lon="6.68941">
        <ele>716</ele>
        <time>2020-09-15T17:23:23Z</time>
      </trkpt>
      <trkpt lat="43.9465" lon="6.68956">
        <ele>720</ele>
        <time>2020-09-15T17:23:30Z</time>
      </trkpt>
      <trkpt lat="43.94641" lon="6.68957">
        <ele>720</ele>
        <time>2020-09-15T17:23:32Z</time>
      </trkpt>
      <trkpt lat="43.94619" lon="6.68959">
        <ele>722</ele>
        <time>2020-09-15T17:23:36Z</time>
      </trkpt>
      <trkpt lat="43.94593" lon="6.68954">
        <ele>721</ele>
        <time>2020-09-15T17:23:41Z</time>
      </trkpt>
      <trkpt lat="43.94554" lon="6.6894">
        <ele>717</ele>
        <time>2020-09-15T17:23:48Z</time>
      </trkpt>
      <trkpt lat="43.94527" lon="6.68936">
        <ele>715</ele>
        <time>2020-09-15T17:23:53Z</time>
      </trkpt>
      <trkpt lat="43.94507" lon="6.68946">
        <ele>718</ele>
        <time>2020-09-15T17:23:56Z</time>
      </trkpt>
      <trkpt lat="43.94493" lon="6.68962">
        <ele>722</ele>
        <time>2020-09-15T17:24:00Z</time>
      </trkpt>
      <trkpt lat="43.94484" lon="6.68976">
        <ele>724</ele>
        <time>2020-09-15T17:24:02Z</time>
      </trkpt>
      <trkpt lat="43.9447" lon="6.69015">
        <ele>730</ele>
        <time>2020-09-15T17:24:08Z</time>
      </trkpt>
      <trkpt lat="43.94464" lon="6.69027">
        <ele>733</ele>
        <time>2020-09-15T17:24:10Z</time>
      </trkpt>
      <trkpt lat="43.94454" lon="6.69041">
        <ele>734</ele>
        <time>2020-09-15T17:24:12Z</time>
      </trkpt>
      <trkpt lat="43.94443" lon="6.69051">
        <ele>733</ele>
        <time>2020-09-15T17:24:14Z</time>
      </trkpt>
      <trkpt lat="43.94431" lon="6.69056">
        <ele>731</ele>
        <time>2020-09-15T17:24:17Z</time>
      </trkpt>
      <trkpt lat="43.94415" lon="6.69056">
        <ele>727</ele>
        <time>2020-09-15T17:24:19Z</time>
      </trkpt>
      <trkpt lat="43.94398" lon="6.69053">
        <ele>730</ele>
        <time>2020-09-15T17:24:23Z</time>
      </trkpt>
      <trkpt lat="43.94347" lon="6.69038">
        <ele>738</ele>
        <time>2020-09-15T17:24:32Z</time>
      </trkpt>
      <trkpt lat="43.94333" lon="6.69032">
        <ele>739</ele>
        <time>2020-09-15T17:24:34Z</time>
      </trkpt>
      <trkpt lat="43.94306" lon="6.69014">
        <ele>738</ele>
        <time>2020-09-15T17:24:40Z</time>
      </trkpt>
      <trkpt lat="43.94267" lon="6.6898">
        <ele>738</ele>
        <time>2020-09-15T17:24:48Z</time>
      </trkpt>
      <trkpt lat="43.9426" lon="6.68978">
        <ele>739</ele>
        <time>2020-09-15T17:24:49Z</time>
      </trkpt>
      <trkpt lat="43.94232" lon="6.68978">
        <ele>741</ele>
        <time>2020-09-15T17:24:54Z</time>
      </trkpt>
      <trkpt lat="43.94219" lon="6.68982">
        <ele>742</ele>
        <time>2020-09-15T17:24:57Z</time>
      </trkpt>
      <trkpt lat="43.94194" lon="6.68992">
        <ele>745</ele>
        <time>2020-09-15T17:25:01Z</time>
      </trkpt>
      <trkpt lat="43.94181" lon="6.68995">
        <ele>746</ele>
        <time>2020-09-15T17:25:04Z</time>
      </trkpt>
      <trkpt lat="43.94169" lon="6.68995">
        <ele>746</ele>
        <time>2020-09-15T17:25:06Z</time>
      </trkpt>
      <trkpt lat="43.94157" lon="6.68991">
        <ele>749</ele>
        <time>2020-09-15T17:25:08Z</time>
      </trkpt>
      <trkpt lat="43.94135" lon="6.68977">
        <ele>756</ele>
        <time>2020-09-15T17:25:12Z</time>
      </trkpt>
      <trkpt lat="43.94099" lon="6.68947">
        <ele>760</ele>
        <time>2020-09-15T17:25:20Z</time>
      </trkpt>
      <trkpt lat="43.9405" lon="6.68938">
        <ele>772</ele>
        <time>2020-09-15T17:25:28Z</time>
      </trkpt>
      <trkpt lat="43.94" lon="6.68901">
        <ele>776</ele>
        <time>2020-09-15T17:25:38Z</time>
      </trkpt>
      <trkpt lat="43.93997" lon="6.68898">
        <ele>774</ele>
        <time>2020-09-15T17:25:39Z</time>
      </trkpt>
      <trkpt lat="43.93996" lon="6.68891">
        <ele>773</ele>
        <time>2020-09-15T17:25:40Z</time>
      </trkpt>
      <trkpt lat="43.93996" lon="6.68857">
        <ele>767</ele>
        <time>2020-09-15T17:25:44Z</time>
      </trkpt>
      <trkpt lat="43.93995" lon="6.68846">
        <ele>765</ele>
        <time>2020-09-15T17:25:46Z</time>
      </trkpt>
      <trkpt lat="43.93991" lon="6.68841">
        <ele>763</ele>
        <time>2020-09-15T17:25:47Z</time>
      </trkpt>
      <trkpt lat="43.93975" lon="6.68832">
        <ele>758</ele>
        <time>2020-09-15T17:25:50Z</time>
      </trkpt>
      <trkpt lat="43.93961" lon="6.68817">
        <ele>761</ele>
        <time>2020-09-15T17:25:53Z</time>
      </trkpt>
      <trkpt lat="43.93944" lon="6.68791">
        <ele>767</ele>
        <time>2020-09-15T17:25:58Z</time>
      </trkpt>
      <trkpt lat="43.93912" lon="6.68763">
        <ele>770</ele>
        <time>2020-09-15T17:26:04Z</time>
      </trkpt>
      <trkpt lat="43.93888" lon="6.68737">
        <ele>777</ele>
        <time>2020-09-15T17:26:10Z</time>
      </trkpt>
      <trkpt lat="43.93822" lon="6.68715">
        <ele>772</ele>
        <time>2020-09-15T17:26:22Z</time>
      </trkpt>
      <trkpt lat="43.93801" lon="6.68714">
        <ele>768</ele>
        <time>2020-09-15T17:26:25Z</time>
      </trkpt>
      <trkpt lat="43.93767" lon="6.68708">
        <ele>762</ele>
        <time>2020-09-15T17:26:32Z</time>
      </trkpt>
      <trkpt lat="43.9376" lon="6.68703">
        <ele>760</ele>
        <time>2020-09-15T17:26:33Z</time>
      </trkpt>
      <trkpt lat="43.93756" lon="6.68695">
        <ele>760</ele>
        <time>2020-09-15T17:26:34Z</time>
      </trkpt>
      <trkpt lat="43.93753" lon="6.68684">
        <ele>760</ele>
        <time>2020-09-15T17:26:36Z</time>
      </trkpt>
      <trkpt lat="43.93753" lon="6.68673">
        <ele>761</ele>
        <time>2020-09-15T17:26:37Z</time>
      </trkpt>
      <trkpt lat="43.93755" lon="6.68659">
        <ele>763</ele>
        <time>2020-09-15T17:26:39Z</time>
      </trkpt>
      <trkpt lat="43.93761" lon="6.68617">
        <ele>771</ele>
        <time>2020-09-15T17:26:44Z</time>
      </trkpt>
      <trkpt lat="43.93776" lon="6.68569">
        <ele>784</ele>
        <time>2020-09-15T17:26:51Z</time>
      </trkpt>
      <trkpt lat="43.93777" lon="6.68558">
        <ele>786</ele>
        <time>2020-09-15T17:26:53Z</time>
      </trkpt>
      <trkpt lat="43.93776" lon="6.68544">
        <ele>786</ele>
        <time>2020-09-15T17:26:54Z</time>
      </trkpt>
      <trkpt lat="43.93763" lon="6.68507">
        <ele>780</ele>
        <time>2020-09-15T17:27:00Z</time>
      </trkpt>
      <trkpt lat="43.9376" lon="6.68493">
        <ele>778</ele>
        <time>2020-09-15T17:27:02Z</time>
      </trkpt>
      <trkpt lat="43.93765" lon="6.68459">
        <ele>786</ele>
        <time>2020-09-15T17:27:06Z</time>
      </trkpt>
      <trkpt lat="43.93764" lon="6.6845">
        <ele>786</ele>
        <time>2020-09-15T17:27:07Z</time>
      </trkpt>
      <trkpt lat="43.9375" lon="6.6842">
        <ele>774</ele>
        <time>2020-09-15T17:27:12Z</time>
      </trkpt>
      <trkpt lat="43.93746" lon="6.684">
        <ele>779</ele>
        <time>2020-09-15T17:27:14Z</time>
      </trkpt>
      <trkpt lat="43.93744" lon="6.68252">
        <ele>805</ele>
        <time>2020-09-15T17:27:33Z</time>
      </trkpt>
      <trkpt lat="43.93739" lon="6.68232">
        <ele>805</ele>
        <time>2020-09-15T17:27:36Z</time>
      </trkpt>
      <trkpt lat="43.9373" lon="6.68216">
        <ele>801</ele>
        <time>2020-09-15T17:27:39Z</time>
      </trkpt>
      <trkpt lat="43.93714" lon="6.68195">
        <ele>794</ele>
        <time>2020-09-15T17:27:43Z</time>
      </trkpt>
      <trkpt lat="43.9371" lon="6.68184">
        <ele>792</ele>
        <time>2020-09-15T17:27:44Z</time>
      </trkpt>
      <trkpt lat="43.93707" lon="6.68148">
        <ele>798</ele>
        <time>2020-09-15T17:27:49Z</time>
      </trkpt>
      <trkpt lat="43.93692" lon="6.68098">
        <ele>798</ele>
        <time>2020-09-15T17:27:56Z</time>
      </trkpt>
      <trkpt lat="43.93689" lon="6.68082">
        <ele>799</ele>
        <time>2020-09-15T17:27:58Z</time>
      </trkpt>
      <trkpt lat="43.93684" lon="6.67995">
        <ele>803</ele>
        <time>2020-09-15T17:28:09Z</time>
      </trkpt>
      <trkpt lat="43.93673" lon="6.67902">
        <ele>809</ele>
        <time>2020-09-15T17:28:21Z</time>
      </trkpt>
      <trkpt lat="43.93674" lon="6.67852">
        <ele>825</ele>
        <time>2020-09-15T17:28:28Z</time>
      </trkpt>
      <trkpt lat="43.93672" lon="6.67844">
        <ele>826</ele>
        <time>2020-09-15T17:28:29Z</time>
      </trkpt>
      <trkpt lat="43.93662" lon="6.6783">
        <ele>826</ele>
        <time>2020-09-15T17:28:31Z</time>
      </trkpt>
      <trkpt lat="43.93605" lon="6.67795">
        <ele>812</ele>
        <time>2020-09-15T17:28:42Z</time>
      </trkpt>
      <trkpt lat="43.93574" lon="6.67766">
        <ele>813</ele>
        <time>2020-09-15T17:28:49Z</time>
      </trkpt>
      <trkpt lat="43.93552" lon="6.67739">
        <ele>824</ele>
        <time>2020-09-15T17:28:54Z</time>
      </trkpt>
      <trkpt lat="43.93544" lon="6.67721">
        <ele>827</ele>
        <time>2020-09-15T17:28:57Z</time>
      </trkpt>
      <trkpt lat="43.93542" lon="6.67708">
        <ele>828</ele>
        <time>2020-09-15T17:28:59Z</time>
      </trkpt>
      <trkpt lat="43.93542" lon="6.6768">
        <ele>832</ele>
        <time>2020-09-15T17:29:02Z</time>
      </trkpt>
      <trkpt lat="43.9354" lon="6.67657">
        <ele>833</ele>
        <time>2020-09-15T17:29:05Z</time>
      </trkpt>
      <trkpt lat="43.93532" lon="6.67631">
        <ele>830</ele>
        <time>2020-09-15T17:29:09Z</time>
      </trkpt>
      <trkpt lat="43.93522" lon="6.67607">
        <ele>826</ele>
        <time>2020-09-15T17:29:12Z</time>
      </trkpt>
      <trkpt lat="43.93518" lon="6.67589">
        <ele>826</ele>
        <time>2020-09-15T17:29:15Z</time>
      </trkpt>
      <trkpt lat="43.93519" lon="6.67561">
        <ele>827</ele>
        <time>2020-09-15T17:29:18Z</time>
      </trkpt>
      <trkpt lat="43.93523" lon="6.67517">
        <ele>829</ele>
        <time>2020-09-15T17:29:24Z</time>
      </trkpt>
      <trkpt lat="43.93521" lon="6.6747">
        <ele>831</ele>
        <time>2020-09-15T17:29:30Z</time>
      </trkpt>
      <trkpt lat="43.93518" lon="6.67446">
        <ele>831</ele>
        <time>2020-09-15T17:29:33Z</time>
      </trkpt>
      <trkpt lat="43.93514" lon="6.67423">
        <ele>831</ele>
        <time>2020-09-15T17:29:36Z</time>
      </trkpt>
      <trkpt lat="43.93484" lon="6.67319">
        <ele>836</ele>
        <time>2020-09-15T17:29:50Z</time>
      </trkpt>
      <trkpt lat="43.93466" lon="6.67274">
        <ele>835</ele>
        <time>2020-09-15T17:29:57Z</time>
      </trkpt>
      <trkpt lat="43.93425" lon="6.67205">
        <ele>831</ele>
        <time>2020-09-15T17:30:09Z</time>
      </trkpt>
      <trkpt lat="43.93408" lon="6.67156">
        <ele>837</ele>
        <time>2020-09-15T17:30:15Z</time>
      </trkpt>
      <trkpt lat="43.93399" lon="6.67145">
        <ele>837</ele>
        <time>2020-09-15T17:30:18Z</time>
      </trkpt>
      <trkpt lat="43.93378" lon="6.67133">
        <ele>834</ele>
        <time>2020-09-15T17:30:22Z</time>
      </trkpt>
      <trkpt lat="43.93368" lon="6.67125">
        <ele>833</ele>
        <time>2020-09-15T17:30:24Z</time>
      </trkpt>
      <trkpt lat="43.9336" lon="6.67113">
        <ele>834</ele>
        <time>2020-09-15T17:30:26Z</time>
      </trkpt>
      <trkpt lat="43.93355" lon="6.67099">
        <ele>835</ele>
        <time>2020-09-15T17:30:28Z</time>
      </trkpt>
      <trkpt lat="43.93353" lon="6.67082">
        <ele>838</ele>
        <time>2020-09-15T17:30:30Z</time>
      </trkpt>
      <trkpt lat="43.93354" lon="6.67068">
        <ele>842</ele>
        <time>2020-09-15T17:30:32Z</time>
      </trkpt>
      <trkpt lat="43.93361" lon="6.67043">
        <ele>849</ele>
        <time>2020-09-15T17:30:35Z</time>
      </trkpt>
      <trkpt lat="43.93362" lon="6.67024">
        <ele>853</ele>
        <time>2020-09-15T17:30:38Z</time>
      </trkpt>
      <trkpt lat="43.9336" lon="6.67012">
        <ele>855</ele>
        <time>2020-09-15T17:30:39Z</time>
      </trkpt>
      <trkpt lat="43.93353" lon="6.67002">
        <ele>855</ele>
        <time>2020-09-15T17:30:41Z</time>
      </trkpt>
      <trkpt lat="43.93345" lon="6.66994">
        <ele>854</ele>
        <time>2020-09-15T17:30:43Z</time>
      </trkpt>
      <trkpt lat="43.93315" lon="6.66985">
        <ele>846</ele>
        <time>2020-09-15T17:30:48Z</time>
      </trkpt>
      <trkpt lat="43.93312" lon="6.66982">
        <ele>846</ele>
        <time>2020-09-15T17:30:49Z</time>
      </trkpt>
      <trkpt lat="43.93304" lon="6.66964">
        <ele>847</ele>
        <time>2020-09-15T17:30:52Z</time>
      </trkpt>
      <trkpt lat="43.93297" lon="6.66932">
        <ele>850</ele>
        <time>2020-09-15T17:30:56Z</time>
      </trkpt>
      <trkpt lat="43.93292" lon="6.66916">
        <ele>852</ele>
        <time>2020-09-15T17:30:58Z</time>
      </trkpt>
      <trkpt lat="43.93285" lon="6.66903">
        <ele>853</ele>
        <time>2020-09-15T17:31:00Z</time>
      </trkpt>
      <trkpt lat="43.93276" lon="6.66891">
        <ele>854</ele>
        <time>2020-09-15T17:31:02Z</time>
      </trkpt>
      <trkpt lat="43.93238" lon="6.66863">
        <ele>853</ele>
        <time>2020-09-15T17:31:10Z</time>
      </trkpt>
      <trkpt lat="43.93223" lon="6.66838">
        <ele>857</ele>
        <time>2020-09-15T17:31:14Z</time>
      </trkpt>
      <trkpt lat="43.932" lon="6.66769">
        <ele>861</ele>
        <time>2020-09-15T17:31:24Z</time>
      </trkpt>
      <trkpt lat="43.932" lon="6.66751">
        <ele>864</ele>
        <time>2020-09-15T17:31:26Z</time>
      </trkpt>
      <trkpt lat="43.93201" lon="6.66732">
        <ele>864</ele>
        <time>2020-09-15T17:31:29Z</time>
      </trkpt>
      <trkpt lat="43.93211" lon="6.66665">
        <ele>868</ele>
        <time>2020-09-15T17:31:38Z</time>
      </trkpt>
      <trkpt lat="43.93226" lon="6.66622">
        <ele>876</ele>
        <time>2020-09-15T17:31:44Z</time>
      </trkpt>
      <trkpt lat="43.93226" lon="6.66609">
        <ele>877</ele>
        <time>2020-09-15T17:31:45Z</time>
      </trkpt>
      <trkpt lat="43.93223" lon="6.66596">
        <ele>877</ele>
        <time>2020-09-15T17:31:47Z</time>
      </trkpt>
      <trkpt lat="43.93217" lon="6.66586">
        <ele>877</ele>
        <time>2020-09-15T17:31:49Z</time>
      </trkpt>
      <trkpt lat="43.9321" lon="6.6658">
        <ele>877</ele>
        <time>2020-09-15T17:31:50Z</time>
      </trkpt>
      <trkpt lat="43.93201" lon="6.66578">
        <ele>877</ele>
        <time>2020-09-15T17:31:52Z</time>
      </trkpt>
      <trkpt lat="43.93154" lon="6.66588">
        <ele>869</ele>
        <time>2020-09-15T17:32:00Z</time>
      </trkpt>
      <trkpt lat="43.9314" lon="6.66584">
        <ele>867</ele>
        <time>2020-09-15T17:32:03Z</time>
      </trkpt>
      <trkpt lat="43.93127" lon="6.66571">
        <ele>867</ele>
        <time>2020-09-15T17:32:06Z</time>
      </trkpt>
      <trkpt lat="43.93121" lon="6.6656">
        <ele>867</ele>
        <time>2020-09-15T17:32:07Z</time>
      </trkpt>
      <trkpt lat="43.93118" lon="6.66548">
        <ele>868</ele>
        <time>2020-09-15T17:32:09Z</time>
      </trkpt>
      <trkpt lat="43.93117" lon="6.66535">
        <ele>869</ele>
        <time>2020-09-15T17:32:11Z</time>
      </trkpt>
      <trkpt lat="43.93119" lon="6.66523">
        <ele>870</ele>
        <time>2020-09-15T17:32:12Z</time>
      </trkpt>
      <trkpt lat="43.93127" lon="6.66499">
        <ele>874</ele>
        <time>2020-09-15T17:32:16Z</time>
      </trkpt>
      <trkpt lat="43.93148" lon="6.66449">
        <ele>876</ele>
        <time>2020-09-15T17:32:23Z</time>
      </trkpt>
      <trkpt lat="43.93156" lon="6.66423">
        <ele>877</ele>
        <time>2020-09-15T17:32:27Z</time>
      </trkpt>
      <trkpt lat="43.93156" lon="6.66322">
        <ele>874</ele>
        <time>2020-09-15T17:32:40Z</time>
      </trkpt>
      <trkpt lat="43.93159" lon="6.66297">
        <ele>875</ele>
        <time>2020-09-15T17:32:43Z</time>
      </trkpt>
      <trkpt lat="43.93167" lon="6.6626">
        <ele>878</ele>
        <time>2020-09-15T17:32:48Z</time>
      </trkpt>
      <trkpt lat="43.93169" lon="6.6624">
        <ele>879</ele>
        <time>2020-09-15T17:32:51Z</time>
      </trkpt>
      <trkpt lat="43.93167" lon="6.66219">
        <ele>880</ele>
        <time>2020-09-15T17:32:53Z</time>
      </trkpt>
      <trkpt lat="43.93163" lon="6.66198">
        <ele>879</ele>
        <time>2020-09-15T17:32:56Z</time>
      </trkpt>
      <trkpt lat="43.93131" lon="6.66105">
        <ele>876</ele>
        <time>2020-09-15T17:33:09Z</time>
      </trkpt>
      <trkpt lat="43.93126" lon="6.66086">
        <ele>876</ele>
        <time>2020-09-15T17:33:12Z</time>
      </trkpt>
      <trkpt lat="43.93124" lon="6.66067">
        <ele>875</ele>
        <time>2020-09-15T17:33:14Z</time>
      </trkpt>
      <trkpt lat="43.93126" lon="6.66049">
        <ele>875</ele>
        <time>2020-09-15T17:33:17Z</time>
      </trkpt>
      <trkpt lat="43.9313" lon="6.6603">
        <ele>877</ele>
        <time>2020-09-15T17:33:19Z</time>
      </trkpt>
      <trkpt lat="43.93153" lon="6.65962">
        <ele>885</ele>
        <time>2020-09-15T17:33:29Z</time>
      </trkpt>
      <trkpt lat="43.9317" lon="6.65894">
        <ele>896</ele>
        <time>2020-09-15T17:33:38Z</time>
      </trkpt>
      <trkpt lat="43.93171" lon="6.65878">
        <ele>900</ele>
        <time>2020-09-15T17:33:40Z</time>
      </trkpt>
      <trkpt lat="43.93168" lon="6.65864">
        <ele>901</ele>
        <time>2020-09-15T17:33:42Z</time>
      </trkpt>
      <trkpt lat="43.93161" lon="6.65854">
        <ele>900</ele>
        <time>2020-09-15T17:33:44Z</time>
      </trkpt>
      <trkpt lat="43.93153" lon="6.65847">
        <ele>898</ele>
        <time>2020-09-15T17:33:45Z</time>
      </trkpt>
      <trkpt lat="43.93131" lon="6.65841">
        <ele>891</ele>
        <time>2020-09-15T17:33:49Z</time>
      </trkpt>
      <trkpt lat="43.9312" lon="6.65834">
        <ele>888</ele>
        <time>2020-09-15T17:33:52Z</time>
      </trkpt>
      <trkpt lat="43.93098" lon="6.65814">
        <ele>887</ele>
        <time>2020-09-15T17:33:56Z</time>
      </trkpt>
      <trkpt lat="43.93066" lon="6.65766">
        <ele>890</ele>
        <time>2020-09-15T17:34:05Z</time>
      </trkpt>
      <trkpt lat="43.93059" lon="6.6575">
        <ele>891</ele>
        <time>2020-09-15T17:34:07Z</time>
      </trkpt>
      <trkpt lat="43.93056" lon="6.65733">
        <ele>893</ele>
        <time>2020-09-15T17:34:09Z</time>
      </trkpt>
      <trkpt lat="43.93054" lon="6.65715">
        <ele>894</ele>
        <time>2020-09-15T17:34:12Z</time>
      </trkpt>
      <trkpt lat="43.93064" lon="6.65661">
        <ele>905</ele>
        <time>2020-09-15T17:34:19Z</time>
      </trkpt>
      <trkpt lat="43.93067" lon="6.65642">
        <ele>904</ele>
        <time>2020-09-15T17:34:21Z</time>
      </trkpt>
      <trkpt lat="43.93073" lon="6.65615">
        <ele>903</ele>
        <time>2020-09-15T17:34:25Z</time>
      </trkpt>
      <trkpt lat="43.93079" lon="6.65552">
        <ele>896</ele>
        <time>2020-09-15T17:34:33Z</time>
      </trkpt>
      <trkpt lat="43.9308" lon="6.65515">
        <ele>891</ele>
        <time>2020-09-15T17:34:38Z</time>
      </trkpt>
      <trkpt lat="43.93084" lon="6.65499">
        <ele>888</ele>
        <time>2020-09-15T17:34:40Z</time>
      </trkpt>
      <trkpt lat="43.9309" lon="6.65484">
        <ele>892</ele>
        <time>2020-09-15T17:34:42Z</time>
      </trkpt>
      <trkpt lat="43.93098" lon="6.65472">
        <ele>896</ele>
        <time>2020-09-15T17:34:44Z</time>
      </trkpt>
      <trkpt lat="43.93127" lon="6.65434">
        <ele>905</ele>
        <time>2020-09-15T17:34:51Z</time>
      </trkpt>
      <trkpt lat="43.93135" lon="6.65418">
        <ele>904</ele>
        <time>2020-09-15T17:34:54Z</time>
      </trkpt>
      <trkpt lat="43.93146" lon="6.6538">
        <ele>904</ele>
        <time>2020-09-15T17:34:59Z</time>
      </trkpt>
      <trkpt lat="43.9316" lon="6.65341">
        <ele>898</ele>
        <time>2020-09-15T17:35:05Z</time>
      </trkpt>
      <trkpt lat="43.93201" lon="6.65262">
        <ele>904</ele>
        <time>2020-09-15T17:35:17Z</time>
      </trkpt>
      <trkpt lat="43.93225" lon="6.65225">
        <ele>905</ele>
        <time>2020-09-15T17:35:23Z</time>
      </trkpt>
      <trkpt lat="43.93261" lon="6.65175">
        <ele>899</ele>
        <time>2020-09-15T17:35:33Z</time>
      </trkpt>
      <trkpt lat="43.93271" lon="6.65158">
        <ele>901</ele>
        <time>2020-09-15T17:35:35Z</time>
      </trkpt>
      <trkpt lat="43.93294" lon="6.65105">
        <ele>906</ele>
        <time>2020-09-15T17:35:43Z</time>
      </trkpt>
      <trkpt lat="43.93305" lon="6.65068">
        <ele>907</ele>
        <time>2020-09-15T17:35:48Z</time>
      </trkpt>
      <trkpt lat="43.93308" lon="6.65049">
        <ele>909</ele>
        <time>2020-09-15T17:35:51Z</time>
      </trkpt>
      <trkpt lat="43.93308" lon="6.65031">
        <ele>911</ele>
        <time>2020-09-15T17:35:53Z</time>
      </trkpt>
      <trkpt lat="43.93305" lon="6.65014">
        <ele>912</ele>
        <time>2020-09-15T17:35:55Z</time>
      </trkpt>
      <trkpt lat="43.93298" lon="6.64997">
        <ele>913</ele>
        <time>2020-09-15T17:35:58Z</time>
      </trkpt>
      <trkpt lat="43.93261" lon="6.64943">
        <ele>906</ele>
        <time>2020-09-15T17:36:07Z</time>
      </trkpt>
      <trkpt lat="43.93255" lon="6.64926">
        <ele>904</ele>
        <time>2020-09-15T17:36:10Z</time>
      </trkpt>
      <trkpt lat="43.93246" lon="6.64885">
        <ele>908</ele>
        <time>2020-09-15T17:36:15Z</time>
      </trkpt>
      <trkpt lat="43.93236" lon="6.64823">
        <ele>918</ele>
        <time>2020-09-15T17:36:24Z</time>
      </trkpt>
      <trkpt lat="43.93235" lon="6.64802">
        <ele>920</ele>
        <time>2020-09-15T17:36:26Z</time>
      </trkpt>
      <trkpt lat="43.93236" lon="6.64782">
        <ele>921</ele>
        <time>2020-09-15T17:36:29Z</time>
      </trkpt>
      <trkpt lat="43.93255" lon="6.64683">
        <ele>922</ele>
        <time>2020-09-15T17:36:42Z</time>
      </trkpt>
      <trkpt lat="43.93257" lon="6.64663">
        <ele>923</ele>
        <time>2020-09-15T17:36:45Z</time>
      </trkpt>
      <trkpt lat="43.93257" lon="6.64643">
        <ele>925</ele>
        <time>2020-09-15T17:36:47Z</time>
      </trkpt>
      <trkpt lat="43.93253" lon="6.64623">
        <ele>924</ele>
        <time>2020-09-15T17:36:50Z</time>
      </trkpt>
      <trkpt lat="43.93248" lon="6.64605">
        <ele>923</ele>
        <time>2020-09-15T17:36:52Z</time>
      </trkpt>
      <trkpt lat="43.93241" lon="6.64588">
        <ele>924</ele>
        <time>2020-09-15T17:36:55Z</time>
      </trkpt>
      <trkpt lat="43.93202" lon="6.64507">
        <ele>924</ele>
        <time>2020-09-15T17:37:07Z</time>
      </trkpt>
      <trkpt lat="43.93182" lon="6.64457">
        <ele>929</ele>
        <time>2020-09-15T17:37:15Z</time>
      </trkpt>
      <trkpt lat="43.93172" lon="6.64443">
        <ele>929</ele>
        <time>2020-09-15T17:37:17Z</time>
      </trkpt>
      <trkpt lat="43.9316" lon="6.64432">
        <ele>929</ele>
        <time>2020-09-15T17:37:20Z</time>
      </trkpt>
      <trkpt lat="43.93101" lon="6.64396">
        <ele>926</ele>
        <time>2020-09-15T17:37:31Z</time>
      </trkpt>
      <trkpt lat="43.93039" lon="6.64387">
        <ele>918</ele>
        <time>2020-09-15T17:37:42Z</time>
      </trkpt>
      <trkpt lat="43.9303" lon="6.64381">
        <ele>918</ele>
        <time>2020-09-15T17:37:44Z</time>
      </trkpt>
      <trkpt lat="43.93023" lon="6.64372">
        <ele>917</ele>
        <time>2020-09-15T17:37:46Z</time>
      </trkpt>
      <trkpt lat="43.9302" lon="6.64362">
        <ele>918</ele>
        <time>2020-09-15T17:37:47Z</time>
      </trkpt>
      <trkpt lat="43.93019" lon="6.64349">
        <ele>918</ele>
        <time>2020-09-15T17:37:49Z</time>
      </trkpt>
      <trkpt lat="43.93022" lon="6.64335">
        <ele>920</ele>
        <time>2020-09-15T17:37:51Z</time>
      </trkpt>
      <trkpt lat="43.93028" lon="6.6432">
        <ele>922</ele>
        <time>2020-09-15T17:37:53Z</time>
      </trkpt>
      <trkpt lat="43.93074" lon="6.64286">
        <ele>930</ele>
        <time>2020-09-15T17:38:02Z</time>
      </trkpt>
      <trkpt lat="43.93083" lon="6.64272">
        <ele>930</ele>
        <time>2020-09-15T17:38:04Z</time>
      </trkpt>
      <trkpt lat="43.93091" lon="6.64256">
        <ele>933</ele>
        <time>2020-09-15T17:38:07Z</time>
      </trkpt>
      <trkpt lat="43.93097" lon="6.64239">
        <ele>935</ele>
        <time>2020-09-15T17:38:09Z</time>
      </trkpt>
      <trkpt lat="43.93106" lon="6.64203">
        <ele>935</ele>
        <time>2020-09-15T17:38:14Z</time>
      </trkpt>
      <trkpt lat="43.93115" lon="6.64179">
        <ele>936</ele>
        <time>2020-09-15T17:38:18Z</time>
      </trkpt>
      <trkpt lat="43.93169" lon="6.64113">
        <ele>944</ele>
        <time>2020-09-15T17:38:31Z</time>
      </trkpt>
      <trkpt lat="43.93179" lon="6.64096">
        <ele>946</ele>
        <time>2020-09-15T17:38:33Z</time>
      </trkpt>
      <trkpt lat="43.93189" lon="6.64078">
        <ele>947</ele>
        <time>2020-09-15T17:38:36Z</time>
      </trkpt>
      <trkpt lat="43.93224" lon="6.63996">
        <ele>946</ele>
        <time>2020-09-15T17:38:48Z</time>
      </trkpt>
      <trkpt lat="43.93234" lon="6.63976">
        <ele>946</ele>
        <time>2020-09-15T17:38:52Z</time>
      </trkpt>
      <trkpt lat="43.9326" lon="6.63942">
        <ele>950</ele>
        <time>2020-09-15T17:38:58Z</time>
      </trkpt>
      <trkpt lat="43.93331" lon="6.63859">
        <ele>954</ele>
        <time>2020-09-15T17:39:14Z</time>
      </trkpt>
      <trkpt lat="43.93346" lon="6.63844">
        <ele>955</ele>
        <time>2020-09-15T17:39:18Z</time>
      </trkpt>
      <trkpt lat="43.93376" lon="6.63819">
        <ele>959</ele>
        <time>2020-09-15T17:39:24Z</time>
      </trkpt>
      <trkpt lat="43.93423" lon="6.63788">
        <ele>964</ele>
        <time>2020-09-15T17:39:33Z</time>
      </trkpt>
      <trkpt lat="43.93527" lon="6.63727">
        <ele>975</ele>
        <time>2020-09-15T17:39:53Z</time>
      </trkpt>
      <trkpt lat="43.93546" lon="6.63714">
        <ele>977</ele>
        <time>2020-09-15T17:39:57Z</time>
      </trkpt>
      <trkpt lat="43.93576" lon="6.6369">
        <ele>977</ele>
        <time>2020-09-15T17:40:03Z</time>
      </trkpt>
      <trkpt lat="43.93606" lon="6.63666">
        <ele>976</ele>
        <time>2020-09-15T17:40:09Z</time>
      </trkpt>
      <trkpt lat="43.93631" lon="6.63644">
        <ele>980</ele>
        <time>2020-09-15T17:40:15Z</time>
      </trkpt>
      <trkpt lat="43.93633" lon="6.6363">
        <ele>979</ele>
        <time>2020-09-15T17:40:17Z</time>
      </trkpt>
      <trkpt lat="43.93633" lon="6.63619">
        <ele>977</ele>
        <time>2020-09-15T17:40:18Z</time>
      </trkpt>
      <trkpt lat="43.93615" lon="6.63567">
        <ele>975</ele>
        <time>2020-09-15T17:40:25Z</time>
      </trkpt>
      <trkpt lat="43.93601" lon="6.63554">
        <ele>977</ele>
        <time>2020-09-15T17:40:28Z</time>
      </trkpt>
      <trkpt lat="43.93587" lon="6.63543">
        <ele>980</ele>
        <time>2020-09-15T17:40:31Z</time>
      </trkpt>
      <trkpt lat="43.93578" lon="6.63543">
        <ele>980</ele>
        <time>2020-09-15T17:40:33Z</time>
      </trkpt>
      <trkpt lat="43.93527" lon="6.63529">
        <ele>984</ele>
        <time>2020-09-15T17:40:42Z</time>
      </trkpt>
      <trkpt lat="43.93489" lon="6.63534">
        <ele>981</ele>
        <time>2020-09-15T17:40:49Z</time>
      </trkpt>
      <trkpt lat="43.93477" lon="6.63532">
        <ele>980</ele>
        <time>2020-09-15T17:40:51Z</time>
      </trkpt>
      <trkpt lat="43.93465" lon="6.63524">
        <ele>981</ele>
        <time>2020-09-15T17:40:53Z</time>
      </trkpt>
      <trkpt lat="43.93422" lon="6.63478">
        <ele>989</ele>
        <time>2020-09-15T17:41:03Z</time>
      </trkpt>
      <trkpt lat="43.93409" lon="6.63469">
        <ele>990</ele>
        <time>2020-09-15T17:41:06Z</time>
      </trkpt>
      <trkpt lat="43.93386" lon="6.63457">
        <ele>988</ele>
        <time>2020-09-15T17:41:10Z</time>
      </trkpt>
      <trkpt lat="43.93377" lon="6.63449">
        <ele>987</ele>
        <time>2020-09-15T17:41:12Z</time>
      </trkpt>
      <trkpt lat="43.93372" lon="6.63437">
        <ele>988</ele>
        <time>2020-09-15T17:41:14Z</time>
      </trkpt>
      <trkpt lat="43.93371" lon="6.63422">
        <ele>989</ele>
        <time>2020-09-15T17:41:16Z</time>
      </trkpt>
      <trkpt lat="43.93372" lon="6.63386">
        <ele>995</ele>
        <time>2020-09-15T17:41:20Z</time>
      </trkpt>
      <trkpt lat="43.93369" lon="6.63368">
        <ele>996</ele>
        <time>2020-09-15T17:41:23Z</time>
      </trkpt>
      <trkpt lat="43.93364" lon="6.63349">
        <ele>997</ele>
        <time>2020-09-15T17:41:25Z</time>
      </trkpt>
      <trkpt lat="43.93348" lon="6.63308">
        <ele>996</ele>
        <time>2020-09-15T17:41:31Z</time>
      </trkpt>
      <trkpt lat="43.93337" lon="6.63262">
        <ele>997</ele>
        <time>2020-09-15T17:41:37Z</time>
      </trkpt>
      <trkpt lat="43.933" lon="6.6305">
        <ele>1010</ele>
        <time>2020-09-15T17:42:05Z</time>
      </trkpt>
      <trkpt lat="43.93292" lon="6.62997">
        <ele>1014</ele>
        <time>2020-09-15T17:42:12Z</time>
      </trkpt>
      <trkpt lat="43.93286" lon="6.62943">
        <ele>1018</ele>
        <time>2020-09-15T17:42:19Z</time>
      </trkpt>
      <trkpt lat="43.9328" lon="6.62918">
        <ele>1018</ele>
        <time>2020-09-15T17:42:23Z</time>
      </trkpt>
      <trkpt lat="43.93251" lon="6.62847">
        <ele>1022</ele>
        <time>2020-09-15T17:42:33Z</time>
      </trkpt>
      <trkpt lat="43.93235" lon="6.62799">
        <ele>1025</ele>
        <time>2020-09-15T17:42:40Z</time>
      </trkpt>
      <trkpt lat="43.9322" lon="6.6275">
        <ele>1029</ele>
        <time>2020-09-15T17:42:47Z</time>
      </trkpt>
      <trkpt lat="43.93195" lon="6.62679">
        <ele>1030</ele>
        <time>2020-09-15T17:42:57Z</time>
      </trkpt>
      <trkpt lat="43.93188" lon="6.62656">
        <ele>1031</ele>
        <time>2020-09-15T17:43:00Z</time>
      </trkpt>
      <trkpt lat="43.93172" lon="6.62584">
        <ele>1034</ele>
        <time>2020-09-15T17:43:10Z</time>
      </trkpt>
      <trkpt lat="43.93164" lon="6.62561">
        <ele>1035</ele>
        <time>2020-09-15T17:43:13Z</time>
      </trkpt>
      <trkpt lat="43.93154" lon="6.62542">
        <ele>1036</ele>
        <time>2020-09-15T17:43:16Z</time>
      </trkpt>
      <trkpt lat="43.93141" lon="6.62525">
        <ele>1037</ele>
        <time>2020-09-15T17:43:19Z</time>
      </trkpt>
      <trkpt lat="43.93126" lon="6.62511">
        <ele>1037</ele>
        <time>2020-09-15T17:43:22Z</time>
      </trkpt>
      <trkpt lat="43.93109" lon="6.625">
        <ele>1038</ele>
        <time>2020-09-15T17:43:26Z</time>
      </trkpt>
      <trkpt lat="43.9304" lon="6.62463">
        <ele>1038</ele>
        <time>2020-09-15T17:43:39Z</time>
      </trkpt>
      <trkpt lat="43.93025" lon="6.6245">
        <ele>1039</ele>
        <time>2020-09-15T17:43:42Z</time>
      </trkpt>
      <trkpt lat="43.92994" lon="6.62417">
        <ele>1042</ele>
        <time>2020-09-15T17:43:49Z</time>
      </trkpt>
      <trkpt lat="43.92946" lon="6.6236">
        <ele>1047</ele>
        <time>2020-09-15T17:44:00Z</time>
      </trkpt>
      <trkpt lat="43.92917" lon="6.6232">
        <ele>1051</ele>
        <time>2020-09-15T17:44:07Z</time>
      </trkpt>
      <trkpt lat="43.92889" lon="6.62277">
        <ele>1055</ele>
        <time>2020-09-15T17:44:15Z</time>
      </trkpt>
      <trkpt lat="43.92877" lon="6.62254">
        <ele>1056</ele>
        <time>2020-09-15T17:44:18Z</time>
      </trkpt>
      <trkpt lat="43.92712" lon="6.61905">
        <ele>1073</ele>
        <time>2020-09-15T17:45:12Z</time>
      </trkpt>
      <trkpt lat="43.92675" lon="6.61816">
        <ele>1080</ele>
        <time>2020-09-15T17:45:25Z</time>
      </trkpt>
      <trkpt lat="43.92663" lon="6.61798">
        <ele>1080</ele>
        <time>2020-09-15T17:45:28Z</time>
      </trkpt>
      <trkpt lat="43.92649" lon="6.61782">
        <ele>1081</ele>
        <time>2020-09-15T17:45:32Z</time>
      </trkpt>
      <trkpt lat="43.92634" lon="6.61769">
        <ele>1082</ele>
        <time>2020-09-15T17:45:35Z</time>
      </trkpt>
      <trkpt lat="43.926" lon="6.61749">
        <ele>1082</ele>
        <time>2020-09-15T17:45:41Z</time>
      </trkpt>
      <trkpt lat="43.9257" lon="6.61735">
        <ele>1083</ele>
        <time>2020-09-15T17:45:47Z</time>
      </trkpt>
      <trkpt lat="43.92474" lon="6.61696">
        <ele>1086</ele>
        <time>2020-09-15T17:46:05Z</time>
      </trkpt>
      <trkpt lat="43.92458" lon="6.61686">
        <ele>1086</ele>
        <time>2020-09-15T17:46:08Z</time>
      </trkpt>
      <trkpt lat="43.92384" lon="6.61627">
        <ele>1091</ele>
        <time>2020-09-15T17:46:23Z</time>
      </trkpt>
      <trkpt lat="43.92346" lon="6.61592">
        <ele>1092</ele>
        <time>2020-09-15T17:46:31Z</time>
      </trkpt>
      <trkpt lat="43.92337" lon="6.61579">
        <ele>1093</ele>
        <time>2020-09-15T17:46:33Z</time>
      </trkpt>
      <trkpt lat="43.92332" lon="6.61563">
        <ele>1094</ele>
        <time>2020-09-15T17:46:36Z</time>
      </trkpt>
      <trkpt lat="43.92327" lon="6.61494">
        <ele>1103</ele>
        <time>2020-09-15T17:46:45Z</time>
      </trkpt>
      <trkpt lat="43.92321" lon="6.61465">
        <ele>1110</ele>
        <time>2020-09-15T17:46:48Z</time>
      </trkpt>
      <trkpt lat="43.92316" lon="6.61454">
        <ele>1112</ele>
        <time>2020-09-15T17:46:50Z</time>
      </trkpt>
      <trkpt lat="43.92307" lon="6.61447">
        <ele>1112</ele>
        <time>2020-09-15T17:46:52Z</time>
      </trkpt>
      <trkpt lat="43.92254" lon="6.61438">
        <ele>1108</ele>
        <time>2020-09-15T17:47:01Z</time>
      </trkpt>
      <trkpt lat="43.92223" lon="6.61425">
        <ele>1110</ele>
        <time>2020-09-15T17:47:07Z</time>
      </trkpt>
      <trkpt lat="43.9221" lon="6.61418">
        <ele>1111</ele>
        <time>2020-09-15T17:47:10Z</time>
      </trkpt>
      <trkpt lat="43.92198" lon="6.61409">
        <ele>1114</ele>
        <time>2020-09-15T17:47:12Z</time>
      </trkpt>
      <trkpt lat="43.92177" lon="6.61386">
        <ele>1120</ele>
        <time>2020-09-15T17:47:17Z</time>
      </trkpt>
      <trkpt lat="43.92164" lon="6.61377">
        <ele>1122</ele>
        <time>2020-09-15T17:47:19Z</time>
      </trkpt>
      <trkpt lat="43.92149" lon="6.61372">
        <ele>1124</ele>
        <time>2020-09-15T17:47:22Z</time>
      </trkpt>
      <trkpt lat="43.92135" lon="6.61373">
        <ele>1124</ele>
        <time>2020-09-15T17:47:25Z</time>
      </trkpt>
      <trkpt lat="43.92072" lon="6.61401">
        <ele>1118</ele>
        <time>2020-09-15T17:47:36Z</time>
      </trkpt>
      <trkpt lat="43.92054" lon="6.61405">
        <ele>1117</ele>
        <time>2020-09-15T17:47:40Z</time>
      </trkpt>
      <trkpt lat="43.92037" lon="6.61406">
        <ele>1118</ele>
        <time>2020-09-15T17:47:43Z</time>
      </trkpt>
      <trkpt lat="43.91972" lon="6.61401">
        <ele>1121</ele>
        <time>2020-09-15T17:47:54Z</time>
      </trkpt>
      <trkpt lat="43.91948" lon="6.61389">
        <ele>1123</ele>
        <time>2020-09-15T17:47:59Z</time>
      </trkpt>
      <trkpt lat="43.91937" lon="6.61378">
        <ele>1124</ele>
        <time>2020-09-15T17:48:01Z</time>
      </trkpt>
      <trkpt lat="43.91925" lon="6.6136">
        <ele>1124</ele>
        <time>2020-09-15T17:48:04Z</time>
      </trkpt>
      <trkpt lat="43.91894" lon="6.6131">
        <ele>1122</ele>
        <time>2020-09-15T17:48:13Z</time>
      </trkpt>
      <trkpt lat="43.91855" lon="6.61229">
        <ele>1117</ele>
        <time>2020-09-15T17:48:25Z</time>
      </trkpt>
      <trkpt lat="43.91781" lon="6.61104">
        <ele>1111</ele>
        <time>2020-09-15T17:48:46Z</time>
      </trkpt>
      <trkpt lat="43.91773" lon="6.61086">
        <ele>1110</ele>
        <time>2020-09-15T17:48:49Z</time>
      </trkpt>
      <trkpt lat="43.91768" lon="6.61066">
        <ele>1110</ele>
        <time>2020-09-15T17:48:51Z</time>
      </trkpt>
      <trkpt lat="43.91756" lon="6.61002">
        <ele>1109</ele>
        <time>2020-09-15T17:49:00Z</time>
      </trkpt>
      <trkpt lat="43.91751" lon="6.60982">
        <ele>1108</ele>
        <time>2020-09-15T17:49:03Z</time>
      </trkpt>
      <trkpt lat="43.91743" lon="6.60964">
        <ele>1107</ele>
        <time>2020-09-15T17:49:05Z</time>
      </trkpt>
      <trkpt lat="43.91732" lon="6.6095">
        <ele>1106</ele>
        <time>2020-09-15T17:49:08Z</time>
      </trkpt>
      <trkpt lat="43.91688" lon="6.60916">
        <ele>1100</ele>
        <time>2020-09-15T17:49:17Z</time>
      </trkpt>
      <trkpt lat="43.91673" lon="6.60902">
        <ele>1098</ele>
        <time>2020-09-15T17:49:20Z</time>
      </trkpt>
      <trkpt lat="43.91659" lon="6.60885">
        <ele>1097</ele>
        <time>2020-09-15T17:49:24Z</time>
      </trkpt>
      <trkpt lat="43.91627" lon="6.60831">
        <ele>1094</ele>
        <time>2020-09-15T17:49:32Z</time>
      </trkpt>
      <trkpt lat="43.9161" lon="6.60797">
        <ele>1093</ele>
        <time>2020-09-15T17:49:38Z</time>
      </trkpt>
      <trkpt lat="43.91567" lon="6.60701">
        <ele>1090</ele>
        <time>2020-09-15T17:49:52Z</time>
      </trkpt>
      <trkpt lat="43.91554" lon="6.60688">
        <ele>1089</ele>
        <time>2020-09-15T17:49:55Z</time>
      </trkpt>
      <trkpt lat="43.91539" lon="6.60678">
        <ele>1088</ele>
        <time>2020-09-15T17:49:58Z</time>
      </trkpt>
      <trkpt lat="43.91519" lon="6.60674">
        <ele>1086</ele>
        <time>2020-09-15T17:50:02Z</time>
      </trkpt>
      <trkpt lat="43.91452" lon="6.60683">
        <ele>1082</ele>
        <time>2020-09-15T17:50:14Z</time>
      </trkpt>
      <trkpt lat="43.91415" lon="6.60682">
        <ele>1080</ele>
        <time>2020-09-15T17:50:20Z</time>
      </trkpt>
      <trkpt lat="43.91399" lon="6.60678">
        <ele>1079</ele>
        <time>2020-09-15T17:50:23Z</time>
      </trkpt>
      <trkpt lat="43.91378" lon="6.60671">
        <ele>1077</ele>
        <time>2020-09-15T17:50:27Z</time>
      </trkpt>
      <trkpt lat="43.91311" lon="6.60621">
        <ele>1077</ele>
        <time>2020-09-15T17:50:40Z</time>
      </trkpt>
      <trkpt lat="43.91295" lon="6.60605">
        <ele>1076</ele>
        <time>2020-09-15T17:50:44Z</time>
      </trkpt>
      <trkpt lat="43.91281" lon="6.60588">
        <ele>1075</ele>
        <time>2020-09-15T17:50:47Z</time>
      </trkpt>
      <trkpt lat="43.91255" lon="6.6055">
        <ele>1074</ele>
        <time>2020-09-15T17:50:54Z</time>
      </trkpt>
      <trkpt lat="43.91247" lon="6.60529">
        <ele>1074</ele>
        <time>2020-09-15T17:50:57Z</time>
      </trkpt>
      <trkpt lat="43.91242" lon="6.60505">
        <ele>1075</ele>
        <time>2020-09-15T17:51:00Z</time>
      </trkpt>
      <trkpt lat="43.91239" lon="6.6048">
        <ele>1074</ele>
        <time>2020-09-15T17:51:04Z</time>
      </trkpt>
      <trkpt lat="43.91224" lon="6.60225">
        <ele>1070</ele>
        <time>2020-09-15T17:51:36Z</time>
      </trkpt>
      <trkpt lat="43.91226" lon="6.60198">
        <ele>1069</ele>
        <time>2020-09-15T17:51:40Z</time>
      </trkpt>
      <trkpt lat="43.91229" lon="6.60172">
        <ele>1069</ele>
        <time>2020-09-15T17:51:43Z</time>
      </trkpt>
      <trkpt lat="43.91239" lon="6.60121">
        <ele>1068</ele>
        <time>2020-09-15T17:51:50Z</time>
      </trkpt>
      <trkpt lat="43.91261" lon="6.60045">
        <ele>1067</ele>
        <time>2020-09-15T17:52:00Z</time>
      </trkpt>
      <trkpt lat="43.91273" lon="6.60016">
        <ele>1067</ele>
        <time>2020-09-15T17:52:05Z</time>
      </trkpt>
      <trkpt lat="43.913" lon="6.59933">
        <ele>1068</ele>
        <time>2020-09-15T17:52:16Z</time>
      </trkpt>
      <trkpt lat="43.91303" lon="6.59919">
        <ele>1068</ele>
        <time>2020-09-15T17:52:18Z</time>
      </trkpt>
      <trkpt lat="43.91304" lon="6.59888">
        <ele>1068</ele>
        <time>2020-09-15T17:52:22Z</time>
      </trkpt>
      <trkpt lat="43.91293" lon="6.59818">
        <ele>1065</ele>
        <time>2020-09-15T17:52:31Z</time>
      </trkpt>
      <trkpt lat="43.91289" lon="6.5975">
        <ele>1063</ele>
        <time>2020-09-15T17:52:40Z</time>
      </trkpt>
      <trkpt lat="43.91285" lon="6.5973">
        <ele>1062</ele>
        <time>2020-09-15T17:52:43Z</time>
      </trkpt>
      <trkpt lat="43.91277" lon="6.59711">
        <ele>1061</ele>
        <time>2020-09-15T17:52:46Z</time>
      </trkpt>
      <trkpt lat="43.91256" lon="6.59674">
        <ele>1057</ele>
        <time>2020-09-15T17:52:52Z</time>
      </trkpt>
      <trkpt lat="43.91249" lon="6.59654">
        <ele>1056</ele>
        <time>2020-09-15T17:52:55Z</time>
      </trkpt>
      <trkpt lat="43.91244" lon="6.59632">
        <ele>1056</ele>
        <time>2020-09-15T17:52:58Z</time>
      </trkpt>
      <trkpt lat="43.91242" lon="6.59608">
        <ele>1057</ele>
        <time>2020-09-15T17:53:01Z</time>
      </trkpt>
      <trkpt lat="43.91246" lon="6.59376">
        <ele>1054</ele>
        <time>2020-09-15T17:53:30Z</time>
      </trkpt>
      <trkpt lat="43.91248" lon="6.59353">
        <ele>1053</ele>
        <time>2020-09-15T17:53:33Z</time>
      </trkpt>
      <trkpt lat="43.91257" lon="6.5931">
        <ele>1053</ele>
        <time>2020-09-15T17:53:39Z</time>
      </trkpt>
      <trkpt lat="43.91271" lon="6.5927">
        <ele>1052</ele>
        <time>2020-09-15T17:53:45Z</time>
      </trkpt>
      <trkpt lat="43.91276" lon="6.59249">
        <ele>1050</ele>
        <time>2020-09-15T17:53:48Z</time>
      </trkpt>
      <trkpt lat="43.91279" lon="6.59228">
        <ele>1049</ele>
        <time>2020-09-15T17:53:50Z</time>
      </trkpt>
      <trkpt lat="43.91279" lon="6.59187">
        <ele>1046</ele>
        <time>2020-09-15T17:53:56Z</time>
      </trkpt>
      <trkpt lat="43.91272" lon="6.59151">
        <ele>1043</ele>
        <time>2020-09-15T17:54:00Z</time>
      </trkpt>
      <trkpt lat="43.91271" lon="6.59133">
        <ele>1042</ele>
        <time>2020-09-15T17:54:03Z</time>
      </trkpt>
      <trkpt lat="43.91272" lon="6.59115">
        <ele>1041</ele>
        <time>2020-09-15T17:54:05Z</time>
      </trkpt>
      <trkpt lat="43.91276" lon="6.59097">
        <ele>1040</ele>
        <time>2020-09-15T17:54:07Z</time>
      </trkpt>
      <trkpt lat="43.91286" lon="6.59065">
        <ele>1040</ele>
        <time>2020-09-15T17:54:12Z</time>
      </trkpt>
      <trkpt lat="43.91293" lon="6.59047">
        <ele>1040</ele>
        <time>2020-09-15T17:54:15Z</time>
      </trkpt>
      <trkpt lat="43.91299" lon="6.59031">
        <ele>1040</ele>
        <time>2020-09-15T17:54:17Z</time>
      </trkpt>
      <trkpt lat="43.91319" lon="6.58942">
        <ele>1036</ele>
        <time>2020-09-15T17:54:29Z</time>
      </trkpt>
      <trkpt lat="43.91325" lon="6.58924">
        <ele>1035</ele>
        <time>2020-09-15T17:54:31Z</time>
      </trkpt>
      <trkpt lat="43.91332" lon="6.58907">
        <ele>1034</ele>
        <time>2020-09-15T17:54:34Z</time>
      </trkpt>
      <trkpt lat="43.91372" lon="6.58827">
        <ele>1034</ele>
        <time>2020-09-15T17:54:46Z</time>
      </trkpt>
      <trkpt lat="43.91383" lon="6.58794">
        <ele>1035</ele>
        <time>2020-09-15T17:54:51Z</time>
      </trkpt>
      <trkpt lat="43.91385" lon="6.58777">
        <ele>1035</ele>
        <time>2020-09-15T17:54:53Z</time>
      </trkpt>
      <trkpt lat="43.91385" lon="6.58761">
        <ele>1034</ele>
        <time>2020-09-15T17:54:55Z</time>
      </trkpt>
      <trkpt lat="43.91382" lon="6.58744">
        <ele>1034</ele>
        <time>2020-09-15T17:54:57Z</time>
      </trkpt>
      <trkpt lat="43.91372" lon="6.58719">
        <ele>1033</ele>
        <time>2020-09-15T17:55:01Z</time>
      </trkpt>
      <trkpt lat="43.91364" lon="6.58688">
        <ele>1032</ele>
        <time>2020-09-15T17:55:05Z</time>
      </trkpt>
      <trkpt lat="43.91361" lon="6.58667">
        <ele>1032</ele>
        <time>2020-09-15T17:55:08Z</time>
      </trkpt>
      <trkpt lat="43.91359" lon="6.58533">
        <ele>1033</ele>
        <time>2020-09-15T17:55:25Z</time>
      </trkpt>
      <trkpt lat="43.9136" lon="6.58496">
        <ele>1034</ele>
        <time>2020-09-15T17:55:30Z</time>
      </trkpt>
      <trkpt lat="43.91365" lon="6.5846">
        <ele>1034</ele>
        <time>2020-09-15T17:55:35Z</time>
      </trkpt>
      <trkpt lat="43.91374" lon="6.58422">
        <ele>1035</ele>
        <time>2020-09-15T17:55:40Z</time>
      </trkpt>
      <trkpt lat="43.91388" lon="6.58379">
        <ele>1032</ele>
        <time>2020-09-15T17:55:46Z</time>
      </trkpt>
      <trkpt lat="43.91399" lon="6.58349">
        <ele>1028</ele>
        <time>2020-09-15T17:55:50Z</time>
      </trkpt>
      <trkpt lat="43.91425" lon="6.5829">
        <ele>1026</ele>
        <time>2020-09-15T17:55:59Z</time>
      </trkpt>
      <trkpt lat="43.91433" lon="6.58266">
        <ele>1028</ele>
        <time>2020-09-15T17:56:02Z</time>
      </trkpt>
      <trkpt lat="43.91438" lon="6.58242">
        <ele>1030</ele>
        <time>2020-09-15T17:56:06Z</time>
      </trkpt>
      <trkpt lat="43.91441" lon="6.58217">
        <ele>1033</ele>
        <time>2020-09-15T17:56:09Z</time>
      </trkpt>
      <trkpt lat="43.91441" lon="6.58193">
        <ele>1034</ele>
        <time>2020-09-15T17:56:12Z</time>
      </trkpt>
      <trkpt lat="43.91434" lon="6.58095">
        <ele>1032</ele>
        <time>2020-09-15T17:56:25Z</time>
      </trkpt>
      <trkpt lat="43.91436" lon="6.57987">
        <ele>1033</ele>
        <time>2020-09-15T17:56:38Z</time>
      </trkpt>
      <trkpt lat="43.91435" lon="6.57961">
        <ele>1034</ele>
        <time>2020-09-15T17:56:42Z</time>
      </trkpt>
      <trkpt lat="43.91431" lon="6.57936">
        <ele>1033</ele>
        <time>2020-09-15T17:56:45Z</time>
      </trkpt>
      <trkpt lat="43.91418" lon="6.57888">
        <ele>1028</ele>
        <time>2020-09-15T17:56:52Z</time>
      </trkpt>
      <trkpt lat="43.91388" lon="6.57799">
        <ele>1030</ele>
        <time>2020-09-15T17:57:04Z</time>
      </trkpt>
      <trkpt lat="43.91383" lon="6.57776">
        <ele>1030</ele>
        <time>2020-09-15T17:57:07Z</time>
      </trkpt>
      <trkpt lat="43.9138" lon="6.57753">
        <ele>1030</ele>
        <time>2020-09-15T17:57:10Z</time>
      </trkpt>
      <trkpt lat="43.9138" lon="6.57678">
        <ele>1031</ele>
        <time>2020-09-15T17:57:20Z</time>
      </trkpt>
      <trkpt lat="43.91376" lon="6.57598">
        <ele>1027</ele>
        <time>2020-09-15T17:57:30Z</time>
      </trkpt>
      <trkpt lat="43.91376" lon="6.57573">
        <ele>1027</ele>
        <time>2020-09-15T17:57:33Z</time>
      </trkpt>
      <trkpt lat="43.91384" lon="6.57497">
        <ele>1029</ele>
        <time>2020-09-15T17:57:43Z</time>
      </trkpt>
      <trkpt lat="43.91387" lon="6.57415">
        <ele>1026</ele>
        <time>2020-09-15T17:57:54Z</time>
      </trkpt>
      <trkpt lat="43.91387" lon="6.57343">
        <ele>1023</ele>
        <time>2020-09-15T17:58:03Z</time>
      </trkpt>
      <trkpt lat="43.91378" lon="6.57151">
        <ele>1012</ele>
        <time>2020-09-15T17:58:28Z</time>
      </trkpt>
      <trkpt lat="43.91368" lon="6.57107">
        <ele>1009</ele>
        <time>2020-09-15T17:58:34Z</time>
      </trkpt>
      <trkpt lat="43.91361" lon="6.57087">
        <ele>1007</ele>
        <time>2020-09-15T17:58:36Z</time>
      </trkpt>
      <trkpt lat="43.91359" lon="6.57067">
        <ele>1006</ele>
        <time>2020-09-15T17:58:39Z</time>
      </trkpt>
      <trkpt lat="43.91359" lon="6.57046">
        <ele>1005</ele>
        <time>2020-09-15T17:58:42Z</time>
      </trkpt>
      <trkpt lat="43.91364" lon="6.57026">
        <ele>1006</ele>
        <time>2020-09-15T17:58:44Z</time>
      </trkpt>
      <trkpt lat="43.91387" lon="6.5696">
        <ele>1005</ele>
        <time>2020-09-15T17:58:54Z</time>
      </trkpt>
      <trkpt lat="43.91393" lon="6.56936">
        <ele>1003</ele>
        <time>2020-09-15T17:58:57Z</time>
      </trkpt>
      <trkpt lat="43.91402" lon="6.56885">
        <ele>1000</ele>
        <time>2020-09-15T17:59:04Z</time>
      </trkpt>
      <trkpt lat="43.91407" lon="6.5686">
        <ele>999</ele>
        <time>2020-09-15T17:59:07Z</time>
      </trkpt>
      <trkpt lat="43.91416" lon="6.56838">
        <ele>997</ele>
        <time>2020-09-15T17:59:10Z</time>
      </trkpt>
      <trkpt lat="43.91427" lon="6.56818">
        <ele>999</ele>
        <time>2020-09-15T17:59:14Z</time>
      </trkpt>
      <trkpt lat="43.91454" lon="6.56784">
        <ele>1003</ele>
        <time>2020-09-15T17:59:20Z</time>
      </trkpt>
      <trkpt lat="43.91462" lon="6.5676">
        <ele>1004</ele>
        <time>2020-09-15T17:59:24Z</time>
      </trkpt>
      <trkpt lat="43.91483" lon="6.5668">
        <ele>1002</ele>
        <time>2020-09-15T17:59:34Z</time>
      </trkpt>
      <trkpt lat="43.91493" lon="6.56621">
        <ele>1002</ele>
        <time>2020-09-15T17:59:42Z</time>
      </trkpt>
      <trkpt lat="43.91499" lon="6.56563">
        <ele>1001</ele>
        <time>2020-09-15T17:59:50Z</time>
      </trkpt>
      <trkpt lat="43.91505" lon="6.56415">
        <ele>992</ele>
        <time>2020-09-15T18:00:09Z</time>
      </trkpt>
      <trkpt lat="43.91501" lon="6.5638">
        <ele>993</ele>
        <time>2020-09-15T18:00:13Z</time>
      </trkpt>
      <trkpt lat="43.91492" lon="6.5634">
        <ele>995</ele>
        <time>2020-09-15T18:00:19Z</time>
      </trkpt>
      <trkpt lat="43.91489" lon="6.56289">
        <ele>998</ele>
        <time>2020-09-15T18:00:25Z</time>
      </trkpt>
      <trkpt lat="43.91483" lon="6.56266">
        <ele>999</ele>
        <time>2020-09-15T18:00:28Z</time>
      </trkpt>
      <trkpt lat="43.91469" lon="6.56225">
        <ele>1002</ele>
        <time>2020-09-15T18:00:34Z</time>
      </trkpt>
      <trkpt lat="43.9145" lon="6.56189">
        <ele>1002</ele>
        <time>2020-09-15T18:00:40Z</time>
      </trkpt>
      <trkpt lat="43.91444" lon="6.56168">
        <ele>1002</ele>
        <time>2020-09-15T18:00:43Z</time>
      </trkpt>
      <trkpt lat="43.91442" lon="6.56145">
        <ele>1002</ele>
        <time>2020-09-15T18:00:46Z</time>
      </trkpt>
      <trkpt lat="43.91446" lon="6.56091">
        <ele>1004</ele>
        <time>2020-09-15T18:00:53Z</time>
      </trkpt>
      <trkpt lat="43.91485" lon="6.55966">
        <ele>1004</ele>
        <time>2020-09-15T18:01:10Z</time>
      </trkpt>
      <trkpt lat="43.91488" lon="6.5594">
        <ele>1003</ele>
        <time>2020-09-15T18:01:14Z</time>
      </trkpt>
      <trkpt lat="43.91488" lon="6.55915">
        <ele>1001</ele>
        <time>2020-09-15T18:01:17Z</time>
      </trkpt>
      <trkpt lat="43.91482" lon="6.55868">
        <ele>995</ele>
        <time>2020-09-15T18:01:23Z</time>
      </trkpt>
      <trkpt lat="43.91478" lon="6.55845">
        <ele>991</ele>
        <time>2020-09-15T18:01:26Z</time>
      </trkpt>
      <trkpt lat="43.91471" lon="6.55823">
        <ele>989</ele>
        <time>2020-09-15T18:01:29Z</time>
      </trkpt>
      <trkpt lat="43.91462" lon="6.55804">
        <ele>987</ele>
        <time>2020-09-15T18:01:32Z</time>
      </trkpt>
      <trkpt lat="43.91452" lon="6.55789">
        <ele>985</ele>
        <time>2020-09-15T18:01:34Z</time>
      </trkpt>
      <trkpt lat="43.91409" lon="6.55751">
        <ele>972</ele>
        <time>2020-09-15T18:01:44Z</time>
      </trkpt>
      <trkpt lat="43.91397" lon="6.55736">
        <ele>970</ele>
        <time>2020-09-15T18:01:46Z</time>
      </trkpt>
      <trkpt lat="43.91386" lon="6.55718">
        <ele>969</ele>
        <time>2020-09-15T18:01:49Z</time>
      </trkpt>
      <trkpt lat="43.9138" lon="6.55698">
        <ele>968</ele>
        <time>2020-09-15T18:01:52Z</time>
      </trkpt>
      <trkpt lat="43.91377" lon="6.55676">
        <ele>969</ele>
        <time>2020-09-15T18:01:55Z</time>
      </trkpt>
      <trkpt lat="43.91378" lon="6.55655">
        <ele>971</ele>
        <time>2020-09-15T18:01:58Z</time>
      </trkpt>
      <trkpt lat="43.91381" lon="6.55633">
        <ele>973</ele>
        <time>2020-09-15T18:02:01Z</time>
      </trkpt>
      <trkpt lat="43.91404" lon="6.55548">
        <ele>991</ele>
        <time>2020-09-15T18:02:12Z</time>
      </trkpt>
      <trkpt lat="43.91407" lon="6.55524">
        <ele>993</ele>
        <time>2020-09-15T18:02:15Z</time>
      </trkpt>
      <trkpt lat="43.91408" lon="6.55501">
        <ele>993</ele>
        <time>2020-09-15T18:02:18Z</time>
      </trkpt>
      <trkpt lat="43.91405" lon="6.554">
        <ele>976</ele>
        <time>2020-09-15T18:02:31Z</time>
      </trkpt>
      <trkpt lat="43.91394" lon="6.55289">
        <ele>962</ele>
        <time>2020-09-15T18:02:46Z</time>
      </trkpt>
      <trkpt lat="43.91393" lon="6.55262">
        <ele>959</ele>
        <time>2020-09-15T18:02:49Z</time>
      </trkpt>
      <trkpt lat="43.91397" lon="6.55178">
        <ele>957</ele>
        <time>2020-09-15T18:03:00Z</time>
      </trkpt>
      <trkpt lat="43.91396" lon="6.55152">
        <ele>957</ele>
        <time>2020-09-15T18:03:03Z</time>
      </trkpt>
      <trkpt lat="43.91394" lon="6.55132">
        <ele>957</ele>
        <time>2020-09-15T18:03:06Z</time>
      </trkpt>
      <trkpt lat="43.91391" lon="6.55107">
        <ele>957</ele>
        <time>2020-09-15T18:03:09Z</time>
      </trkpt>
      <trkpt lat="43.91385" lon="6.55084">
        <ele>956</ele>
        <time>2020-09-15T18:03:12Z</time>
      </trkpt>
      <trkpt lat="43.91377" lon="6.55063">
        <ele>954</ele>
        <time>2020-09-15T18:03:15Z</time>
      </trkpt>
      <trkpt lat="43.91358" lon="6.55025">
        <ele>951</ele>
        <time>2020-09-15T18:03:21Z</time>
      </trkpt>
      <trkpt lat="43.91338" lon="6.54995">
        <ele>945</ele>
        <time>2020-09-15T18:03:26Z</time>
      </trkpt>
      <trkpt lat="43.9133" lon="6.5498">
        <ele>942</ele>
        <time>2020-09-15T18:03:29Z</time>
      </trkpt>
      <trkpt lat="43.91326" lon="6.54964">
        <ele>941</ele>
        <time>2020-09-15T18:03:31Z</time>
      </trkpt>
      <trkpt lat="43.91325" lon="6.54946">
        <ele>941</ele>
        <time>2020-09-15T18:03:33Z</time>
      </trkpt>
      <trkpt lat="43.91328" lon="6.54902">
        <ele>942</ele>
        <time>2020-09-15T18:03:39Z</time>
      </trkpt>
      <trkpt lat="43.91331" lon="6.54879">
        <ele>941</ele>
        <time>2020-09-15T18:03:42Z</time>
      </trkpt>
      <trkpt lat="43.91345" lon="6.54814">
        <ele>940</ele>
        <time>2020-09-15T18:03:51Z</time>
      </trkpt>
      <trkpt lat="43.91348" lon="6.54792">
        <ele>938</ele>
        <time>2020-09-15T18:03:54Z</time>
      </trkpt>
      <trkpt lat="43.91349" lon="6.5477">
        <ele>936</ele>
        <time>2020-09-15T18:03:56Z</time>
      </trkpt>
      <trkpt lat="43.91345" lon="6.54729">
        <ele>930</ele>
        <time>2020-09-15T18:04:02Z</time>
      </trkpt>
      <trkpt lat="43.91346" lon="6.54708">
        <ele>928</ele>
        <time>2020-09-15T18:04:04Z</time>
      </trkpt>
      <trkpt lat="43.91373" lon="6.54598">
        <ele>927</ele>
        <time>2020-09-15T18:04:19Z</time>
      </trkpt>
      <trkpt lat="43.91381" lon="6.54566">
        <ele>926</ele>
        <time>2020-09-15T18:04:24Z</time>
      </trkpt>
      <trkpt lat="43.91388" lon="6.5452">
        <ele>925</ele>
        <time>2020-09-15T18:04:30Z</time>
      </trkpt>
      <trkpt lat="43.91395" lon="6.54496">
        <ele>925</ele>
        <time>2020-09-15T18:04:33Z</time>
      </trkpt>
      <trkpt lat="43.91409" lon="6.54468">
        <ele>924</ele>
        <time>2020-09-15T18:04:37Z</time>
      </trkpt>
      <trkpt lat="43.91448" lon="6.54411">
        <ele>922</ele>
        <time>2020-09-15T18:04:47Z</time>
      </trkpt>
      <trkpt lat="43.91471" lon="6.54372">
        <ele>921</ele>
        <time>2020-09-15T18:04:54Z</time>
      </trkpt>
      <trkpt lat="43.91485" lon="6.54344">
        <ele>919</ele>
        <time>2020-09-15T18:04:58Z</time>
      </trkpt>
      <trkpt lat="43.91504" lon="6.54261">
        <ele>915</ele>
        <time>2020-09-15T18:05:09Z</time>
      </trkpt>
      <trkpt lat="43.91516" lon="6.54225">
        <ele>916</ele>
        <time>2020-09-15T18:05:15Z</time>
      </trkpt>
      <trkpt lat="43.91524" lon="6.54208">
        <ele>917</ele>
        <time>2020-09-15T18:05:17Z</time>
      </trkpt>
      <trkpt lat="43.91541" lon="6.54176">
        <ele>918</ele>
        <time>2020-09-15T18:05:22Z</time>
      </trkpt>
      <trkpt lat="43.9157" lon="6.54138">
        <ele>919</ele>
        <time>2020-09-15T18:05:29Z</time>
      </trkpt>
      <trkpt lat="43.91589" lon="6.54119">
        <ele>920</ele>
        <time>2020-09-15T18:05:33Z</time>
      </trkpt>
      <trkpt lat="43.91608" lon="6.54105">
        <ele>920</ele>
        <time>2020-09-15T18:05:37Z</time>
      </trkpt>
      <trkpt lat="43.91727" lon="6.54027">
        <ele>919</ele>
        <time>2020-09-15T18:06:01Z</time>
      </trkpt>
      <trkpt lat="43.91791" lon="6.53991">
        <ele>919</ele>
        <time>2020-09-15T18:06:13Z</time>
      </trkpt>
      <trkpt lat="43.91888" lon="6.53946">
        <ele>918</ele>
        <time>2020-09-15T18:06:31Z</time>
      </trkpt>
      <trkpt lat="43.91897" lon="6.53939">
        <ele>918</ele>
        <time>2020-09-15T18:06:33Z</time>
      </trkpt>
      <trkpt lat="43.91905" lon="6.5393">
        <ele>917</ele>
        <time>2020-09-15T18:06:35Z</time>
      </trkpt>
      <trkpt lat="43.91911" lon="6.53919">
        <ele>916</ele>
        <time>2020-09-15T18:06:37Z</time>
      </trkpt>
      <trkpt lat="43.91915" lon="6.53907">
        <ele>916</ele>
        <time>2020-09-15T18:06:38Z</time>
      </trkpt>
      <trkpt lat="43.91915" lon="6.53881">
        <ele>916</ele>
        <time>2020-09-15T18:06:42Z</time>
      </trkpt>
      <trkpt lat="43.91913" lon="6.5387">
        <ele>915</ele>
        <time>2020-09-15T18:06:43Z</time>
      </trkpt>
      <trkpt lat="43.91893" lon="6.53799">
        <ele>912</ele>
        <time>2020-09-15T18:06:53Z</time>
      </trkpt>
      <trkpt lat="43.9189" lon="6.53768">
        <ele>910</ele>
        <time>2020-09-15T18:06:57Z</time>
      </trkpt>
      <trkpt lat="43.91887" lon="6.53701">
        <ele>906</ele>
        <time>2020-09-15T18:07:05Z</time>
      </trkpt>
      <trkpt lat="43.91887" lon="6.53685">
        <ele>905</ele>
        <time>2020-09-15T18:07:08Z</time>
      </trkpt>
      <trkpt lat="43.91889" lon="6.53669">
        <ele>904</ele>
        <time>2020-09-15T18:07:10Z</time>
      </trkpt>
      <trkpt lat="43.91894" lon="6.53654">
        <ele>903</ele>
        <time>2020-09-15T18:07:12Z</time>
      </trkpt>
      <trkpt lat="43.91901" lon="6.5364">
        <ele>902</ele>
        <time>2020-09-15T18:07:14Z</time>
      </trkpt>
      <trkpt lat="43.9191" lon="6.53628">
        <ele>902</ele>
        <time>2020-09-15T18:07:16Z</time>
      </trkpt>
      <trkpt lat="43.9192" lon="6.53619">
        <ele>902</ele>
        <time>2020-09-15T18:07:18Z</time>
      </trkpt>
      <trkpt lat="43.9193" lon="6.53614">
        <ele>903</ele>
        <time>2020-09-15T18:07:20Z</time>
      </trkpt>
      <trkpt lat="43.91953" lon="6.5361">
        <ele>906</ele>
        <time>2020-09-15T18:07:24Z</time>
      </trkpt>
      <trkpt lat="43.91964" lon="6.53606">
        <ele>907</ele>
        <time>2020-09-15T18:07:26Z</time>
      </trkpt>
      <trkpt lat="43.91974" lon="6.53598">
        <ele>908</ele>
        <time>2020-09-15T18:07:28Z</time>
      </trkpt>
      <trkpt lat="43.9199" lon="6.53577">
        <ele>908</ele>
        <time>2020-09-15T18:07:32Z</time>
      </trkpt>
      <trkpt lat="43.92008" lon="6.5354">
        <ele>903</ele>
        <time>2020-09-15T18:07:38Z</time>
      </trkpt>
      <trkpt lat="43.92015" lon="6.53531">
        <ele>902</ele>
        <time>2020-09-15T18:07:40Z</time>
      </trkpt>
      <trkpt lat="43.92024" lon="6.53526">
        <ele>902</ele>
        <time>2020-09-15T18:07:41Z</time>
      </trkpt>
      <trkpt lat="43.92064" lon="6.53519">
        <ele>905</ele>
        <time>2020-09-15T18:07:49Z</time>
      </trkpt>
      <trkpt lat="43.92124" lon="6.535">
        <ele>905</ele>
        <time>2020-09-15T18:08:00Z</time>
      </trkpt>
      <trkpt lat="43.92182" lon="6.53487">
        <ele>904</ele>
        <time>2020-09-15T18:08:10Z</time>
      </trkpt>
      <trkpt lat="43.92212" lon="6.53475">
        <ele>904</ele>
        <time>2020-09-15T18:08:16Z</time>
      </trkpt>
      <trkpt lat="43.92239" lon="6.53457">
        <ele>902</ele>
        <time>2020-09-15T18:08:21Z</time>
      </trkpt>
      <trkpt lat="43.92277" lon="6.53422">
        <ele>899</ele>
        <time>2020-09-15T18:08:29Z</time>
      </trkpt>
      <trkpt lat="43.9233" lon="6.53353">
        <ele>892</ele>
        <time>2020-09-15T18:08:42Z</time>
      </trkpt>
      <trkpt lat="43.92341" lon="6.53341">
        <ele>890</ele>
        <time>2020-09-15T18:08:44Z</time>
      </trkpt>
      <trkpt lat="43.92353" lon="6.53332">
        <ele>889</ele>
        <time>2020-09-15T18:08:47Z</time>
      </trkpt>
      <trkpt lat="43.92365" lon="6.53326">
        <ele>889</ele>
        <time>2020-09-15T18:08:49Z</time>
      </trkpt>
      <trkpt lat="43.92378" lon="6.53324">
        <ele>889</ele>
        <time>2020-09-15T18:08:51Z</time>
      </trkpt>
      <trkpt lat="43.92391" lon="6.53324">
        <ele>889</ele>
        <time>2020-09-15T18:08:54Z</time>
      </trkpt>
      <trkpt lat="43.92419" lon="6.53329">
        <ele>892</ele>
        <time>2020-09-15T18:08:59Z</time>
      </trkpt>
      <trkpt lat="43.92448" lon="6.53331">
        <ele>892</ele>
        <time>2020-09-15T18:09:04Z</time>
      </trkpt>
      <trkpt lat="43.92508" lon="6.53317">
        <ele>887</ele>
        <time>2020-09-15T18:09:15Z</time>
      </trkpt>
      <trkpt lat="43.92523" lon="6.53316">
        <ele>886</ele>
        <time>2020-09-15T18:09:17Z</time>
      </trkpt>
      <trkpt lat="43.92538" lon="6.53317">
        <ele>887</ele>
        <time>2020-09-15T18:09:20Z</time>
      </trkpt>
      <trkpt lat="43.92553" lon="6.53321">
        <ele>887</ele>
        <time>2020-09-15T18:09:23Z</time>
      </trkpt>
      <trkpt lat="43.92598" lon="6.53338">
        <ele>892</ele>
        <time>2020-09-15T18:09:31Z</time>
      </trkpt>
      <trkpt lat="43.92613" lon="6.53339">
        <ele>893</ele>
        <time>2020-09-15T18:09:34Z</time>
      </trkpt>
      <trkpt lat="43.92628" lon="6.53337">
        <ele>892</ele>
        <time>2020-09-15T18:09:36Z</time>
      </trkpt>
      <trkpt lat="43.9269" lon="6.53313">
        <ele>890</ele>
        <time>2020-09-15T18:09:48Z</time>
      </trkpt>
      <trkpt lat="43.92791" lon="6.53282">
        <ele>890</ele>
        <time>2020-09-15T18:10:06Z</time>
      </trkpt>
      <trkpt lat="43.92817" lon="6.53269">
        <ele>888</ele>
        <time>2020-09-15T18:10:11Z</time>
      </trkpt>
      <trkpt lat="43.92855" lon="6.5324">
        <ele>885</ele>
        <time>2020-09-15T18:10:19Z</time>
      </trkpt>
      <trkpt lat="43.92883" lon="6.53226">
        <ele>886</ele>
        <time>2020-09-15T18:10:24Z</time>
      </trkpt>
      <trkpt lat="43.92898" lon="6.53222">
        <ele>887</ele>
        <time>2020-09-15T18:10:27Z</time>
      </trkpt>
      <trkpt lat="43.92994" lon="6.53209">
        <ele>888</ele>
        <time>2020-09-15T18:10:44Z</time>
      </trkpt>
      <trkpt lat="43.93025" lon="6.53202">
        <ele>891</ele>
        <time>2020-09-15T18:10:50Z</time>
      </trkpt>
      <trkpt lat="43.93053" lon="6.5319">
        <ele>891</ele>
        <time>2020-09-15T18:10:55Z</time>
      </trkpt>
      <trkpt lat="43.93109" lon="6.53159">
        <ele>890</ele>
        <time>2020-09-15T18:11:06Z</time>
      </trkpt>
      <trkpt lat="43.93123" lon="6.53154">
        <ele>892</ele>
        <time>2020-09-15T18:11:08Z</time>
      </trkpt>
      <trkpt lat="43.93182" lon="6.53143">
        <ele>897</ele>
        <time>2020-09-15T18:11:19Z</time>
      </trkpt>
      <trkpt lat="43.93268" lon="6.5311">
        <ele>890</ele>
        <time>2020-09-15T18:11:35Z</time>
      </trkpt>
      <trkpt lat="43.93301" lon="6.53107">
        <ele>890</ele>
        <time>2020-09-15T18:11:41Z</time>
      </trkpt>
      <trkpt lat="43.93373" lon="6.53113">
        <ele>899</ele>
        <time>2020-09-15T18:11:53Z</time>
      </trkpt>
      <trkpt lat="43.93489" lon="6.53146">
        <ele>902</ele>
        <time>2020-09-15T18:12:14Z</time>
      </trkpt>
      <trkpt lat="43.93505" lon="6.53152">
        <ele>898</ele>
        <time>2020-09-15T18:12:17Z</time>
      </trkpt>
      <trkpt lat="43.93571" lon="6.53174">
        <ele>883</ele>
        <time>2020-09-15T18:12:30Z</time>
      </trkpt>
      <trkpt lat="43.93579" lon="6.53173">
        <ele>880</ele>
        <time>2020-09-15T18:12:31Z</time>
      </trkpt>
      <trkpt lat="43.93591" lon="6.53167">
        <ele>879</ele>
        <time>2020-09-15T18:12:33Z</time>
      </trkpt>
      <trkpt lat="43.93606" lon="6.53139">
        <ele>881</ele>
        <time>2020-09-15T18:12:38Z</time>
      </trkpt>
      <trkpt lat="43.9362" lon="6.53119">
        <ele>883</ele>
        <time>2020-09-15T18:12:41Z</time>
      </trkpt>
      <trkpt lat="43.93628" lon="6.53112">
        <ele>884</ele>
        <time>2020-09-15T18:12:43Z</time>
      </trkpt>
      <trkpt lat="43.93653" lon="6.53096">
        <ele>886</ele>
        <time>2020-09-15T18:12:48Z</time>
      </trkpt>
      <trkpt lat="43.93667" lon="6.53081">
        <ele>887</ele>
        <time>2020-09-15T18:12:51Z</time>
      </trkpt>
      <trkpt lat="43.93687" lon="6.53054">
        <ele>892</ele>
        <time>2020-09-15T18:12:56Z</time>
      </trkpt>
      <trkpt lat="43.9379" lon="6.52927">
        <ele>891</ele>
        <time>2020-09-15T18:13:20Z</time>
      </trkpt>
      <trkpt lat="43.93807" lon="6.52902">
        <ele>886</ele>
        <time>2020-09-15T18:13:25Z</time>
      </trkpt>
      <trkpt lat="43.93815" lon="6.52881">
        <ele>882</ele>
        <time>2020-09-15T18:13:28Z</time>
      </trkpt>
      <trkpt lat="43.93816" lon="6.52865">
        <ele>878</ele>
        <time>2020-09-15T18:13:30Z</time>
      </trkpt>
      <trkpt lat="43.93814" lon="6.52751">
        <ele>874</ele>
        <time>2020-09-15T18:13:45Z</time>
      </trkpt>
      <trkpt lat="43.93812" lon="6.52687">
        <ele>890</ele>
        <time>2020-09-15T18:13:53Z</time>
      </trkpt>
      <trkpt lat="43.93812" lon="6.52664">
        <ele>896</ele>
        <time>2020-09-15T18:13:56Z</time>
      </trkpt>
      <trkpt lat="43.93819" lon="6.52635">
        <ele>896</ele>
        <time>2020-09-15T18:14:00Z</time>
      </trkpt>
      <trkpt lat="43.93821" lon="6.5261">
        <ele>899</ele>
        <time>2020-09-15T18:14:03Z</time>
      </trkpt>
      <trkpt lat="43.93821" lon="6.52555">
        <ele>905</ele>
        <time>2020-09-15T18:14:10Z</time>
      </trkpt>
      <trkpt lat="43.9383" lon="6.52501">
        <ele>902</ele>
        <time>2020-09-15T18:14:17Z</time>
      </trkpt>
      <trkpt lat="43.93841" lon="6.52466">
        <ele>904</ele>
        <time>2020-09-15T18:14:22Z</time>
      </trkpt>
      <trkpt lat="43.93848" lon="6.52449">
        <ele>904</ele>
        <time>2020-09-15T18:14:24Z</time>
      </trkpt>
      <trkpt lat="43.93885" lon="6.52387">
        <ele>896</ele>
        <time>2020-09-15T18:14:35Z</time>
      </trkpt>
      <trkpt lat="43.93917" lon="6.52327">
        <ele>892</ele>
        <time>2020-09-15T18:14:44Z</time>
      </trkpt>
      <trkpt lat="43.93927" lon="6.52313">
        <ele>894</ele>
        <time>2020-09-15T18:14:47Z</time>
      </trkpt>
      <trkpt lat="43.93986" lon="6.52246">
        <ele>893</ele>
        <time>2020-09-15T18:15:00Z</time>
      </trkpt>
      <trkpt lat="43.94033" lon="6.52182">
        <ele>892</ele>
        <time>2020-09-15T18:15:12Z</time>
      </trkpt>
      <trkpt lat="43.94046" lon="6.52168">
        <ele>890</ele>
        <time>2020-09-15T18:15:15Z</time>
      </trkpt>
      <trkpt lat="43.94085" lon="6.52131">
        <ele>884</ele>
        <time>2020-09-15T18:15:23Z</time>
      </trkpt>
      <trkpt lat="43.94097" lon="6.52119">
        <ele>884</ele>
        <time>2020-09-15T18:15:26Z</time>
      </trkpt>
      <trkpt lat="43.94106" lon="6.52105">
        <ele>885</ele>
        <time>2020-09-15T18:15:28Z</time>
      </trkpt>
      <trkpt lat="43.94114" lon="6.5209">
        <ele>886</ele>
        <time>2020-09-15T18:15:31Z</time>
      </trkpt>
      <trkpt lat="43.94124" lon="6.52056">
        <ele>886</ele>
        <time>2020-09-15T18:15:36Z</time>
      </trkpt>
      <trkpt lat="43.94141" lon="6.5194">
        <ele>888</ele>
        <time>2020-09-15T18:15:51Z</time>
      </trkpt>
      <trkpt lat="43.94146" lon="6.51916">
        <ele>889</ele>
        <time>2020-09-15T18:15:54Z</time>
      </trkpt>
      <trkpt lat="43.94148" lon="6.51903">
        <ele>889</ele>
        <time>2020-09-15T18:15:56Z</time>
      </trkpt>
      <trkpt lat="43.94167" lon="6.5185">
        <ele>888</ele>
        <time>2020-09-15T18:16:03Z</time>
      </trkpt>
      <trkpt lat="43.94193" lon="6.518">
        <ele>891</ele>
        <time>2020-09-15T18:16:11Z</time>
      </trkpt>
      <trkpt lat="43.94203" lon="6.51785">
        <ele>891</ele>
        <time>2020-09-15T18:16:14Z</time>
      </trkpt>
      <trkpt lat="43.94226" lon="6.51758">
        <ele>891</ele>
        <time>2020-09-15T18:16:19Z</time>
      </trkpt>
      <trkpt lat="43.94264" lon="6.51726">
        <ele>889</ele>
        <time>2020-09-15T18:16:27Z</time>
      </trkpt>
      <trkpt lat="43.94298" lon="6.51703">
        <ele>890</ele>
        <time>2020-09-15T18:16:34Z</time>
      </trkpt>
      <trkpt lat="43.94338" lon="6.51677">
        <ele>890</ele>
        <time>2020-09-15T18:16:42Z</time>
      </trkpt>
      <trkpt lat="43.94399" lon="6.51633">
        <ele>887</ele>
        <time>2020-09-15T18:16:54Z</time>
      </trkpt>
      <trkpt lat="43.94436" lon="6.51607">
        <ele>885</ele>
        <time>2020-09-15T18:17:01Z</time>
      </trkpt>
      <trkpt lat="43.94514" lon="6.51553">
        <ele>889</ele>
        <time>2020-09-15T18:17:17Z</time>
      </trkpt>
      <trkpt lat="43.94574" lon="6.51513">
        <ele>890</ele>
        <time>2020-09-15T18:17:29Z</time>
      </trkpt>
      <trkpt lat="43.94623" lon="6.5148">
        <ele>890</ele>
        <time>2020-09-15T18:17:38Z</time>
      </trkpt>
      <trkpt lat="43.9467" lon="6.51445">
        <ele>890</ele>
        <time>2020-09-15T18:17:48Z</time>
      </trkpt>
      <trkpt lat="43.9468" lon="6.51435">
        <ele>891</ele>
        <time>2020-09-15T18:17:50Z</time>
      </trkpt>
      <trkpt lat="43.94684" lon="6.51431">
        <ele>891</ele>
        <time>2020-09-15T18:17:51Z</time>
      </trkpt>
      <trkpt lat="43.9469" lon="6.51425">
        <ele>891</ele>
        <time>2020-09-15T18:17:52Z</time>
      </trkpt>
      <trkpt lat="43.94707" lon="6.514">
        <ele>894</ele>
        <time>2020-09-15T18:17:57Z</time>
      </trkpt>
      <trkpt lat="43.94714" lon="6.51387">
        <ele>895</ele>
        <time>2020-09-15T18:17:59Z</time>
      </trkpt>
      <trkpt lat="43.94725" lon="6.51358">
        <ele>898</ele>
        <time>2020-09-15T18:18:03Z</time>
      </trkpt>
      <trkpt lat="43.94752" lon="6.51283">
        <ele>905</ele>
        <time>2020-09-15T18:18:14Z</time>
      </trkpt>
      <trkpt lat="43.94758" lon="6.5127">
        <ele>907</ele>
        <time>2020-09-15T18:18:16Z</time>
      </trkpt>
      <trkpt lat="43.94766" lon="6.51258">
        <ele>909</ele>
        <time>2020-09-15T18:18:18Z</time>
      </trkpt>
      <trkpt lat="43.94775" lon="6.5125">
        <ele>910</ele>
        <time>2020-09-15T18:18:20Z</time>
      </trkpt>
      <trkpt lat="43.94786" lon="6.51245">
        <ele>910</ele>
        <time>2020-09-15T18:18:22Z</time>
      </trkpt>
      <trkpt lat="43.94797" lon="6.51243">
        <ele>910</ele>
        <time>2020-09-15T18:18:24Z</time>
      </trkpt>
      <trkpt lat="43.94834" lon="6.51249">
        <ele>907</ele>
        <time>2020-09-15T18:18:30Z</time>
      </trkpt>
      <trkpt lat="43.94915" lon="6.51268">
        <ele>900</ele>
        <time>2020-09-15T18:18:45Z</time>
      </trkpt>
      <trkpt lat="43.94929" lon="6.51265">
        <ele>898</ele>
        <time>2020-09-15T18:18:47Z</time>
      </trkpt>
      <trkpt lat="43.94938" lon="6.51261">
        <ele>897</ele>
        <time>2020-09-15T18:18:49Z</time>
      </trkpt>
      <trkpt lat="43.94947" lon="6.51252">
        <ele>897</ele>
        <time>2020-09-15T18:18:51Z</time>
      </trkpt>
      <trkpt lat="43.94956" lon="6.51237">
        <ele>899</ele>
        <time>2020-09-15T18:18:53Z</time>
      </trkpt>
      <trkpt lat="43.94972" lon="6.5119">
        <ele>908</ele>
        <time>2020-09-15T18:19:00Z</time>
      </trkpt>
      <trkpt lat="43.94981" lon="6.51175">
        <ele>910</ele>
        <time>2020-09-15T18:19:03Z</time>
      </trkpt>
      <trkpt lat="43.94992" lon="6.5116">
        <ele>912</ele>
        <time>2020-09-15T18:19:05Z</time>
      </trkpt>
      <trkpt lat="43.95007" lon="6.51149">
        <ele>913</ele>
        <time>2020-09-15T18:19:08Z</time>
      </trkpt>
      <trkpt lat="43.95023" lon="6.51141">
        <ele>913</ele>
        <time>2020-09-15T18:19:11Z</time>
      </trkpt>
      <trkpt lat="43.95082" lon="6.51123">
        <ele>911</ele>
        <time>2020-09-15T18:19:22Z</time>
      </trkpt>
      <trkpt lat="43.95089" lon="6.51121">
        <ele>911</ele>
        <time>2020-09-15T18:19:23Z</time>
      </trkpt>
      <trkpt lat="43.95138" lon="6.51104">
        <ele>911</ele>
        <time>2020-09-15T18:19:32Z</time>
      </trkpt>
      <trkpt lat="43.95189" lon="6.51083">
        <ele>910</ele>
        <time>2020-09-15T18:19:42Z</time>
      </trkpt>
      <trkpt lat="43.95207" lon="6.51072">
        <ele>908</ele>
        <time>2020-09-15T18:19:45Z</time>
      </trkpt>
      <trkpt lat="43.95224" lon="6.51057">
        <ele>908</ele>
        <time>2020-09-15T18:19:49Z</time>
      </trkpt>
      <trkpt lat="43.95251" lon="6.5102">
        <ele>911</ele>
        <time>2020-09-15T18:19:56Z</time>
      </trkpt>
      <trkpt lat="43.95266" lon="6.51008">
        <ele>911</ele>
        <time>2020-09-15T18:19:59Z</time>
      </trkpt>
      <trkpt lat="43.95294" lon="6.50994">
        <ele>909</ele>
        <time>2020-09-15T18:20:04Z</time>
      </trkpt>
      <trkpt lat="43.95348" lon="6.50983">
        <ele>902</ele>
        <time>2020-09-15T18:20:14Z</time>
      </trkpt>
      <trkpt lat="43.95369" lon="6.50972">
        <ele>901</ele>
        <time>2020-09-15T18:20:18Z</time>
      </trkpt>
      <trkpt lat="43.9544" lon="6.50912">
        <ele>899</ele>
        <time>2020-09-15T18:20:33Z</time>
      </trkpt>
      <trkpt lat="43.95472" lon="6.50896">
        <ele>898</ele>
        <time>2020-09-15T18:20:39Z</time>
      </trkpt>
      <trkpt lat="43.9553" lon="6.50874">
        <ele>895</ele>
        <time>2020-09-15T18:20:49Z</time>
      </trkpt>
      <trkpt lat="43.95541" lon="6.50868">
        <ele>895</ele>
        <time>2020-09-15T18:20:51Z</time>
      </trkpt>
      <trkpt lat="43.95611" lon="6.50791">
        <ele>899</ele>
        <time>2020-09-15T18:21:07Z</time>
      </trkpt>
      <trkpt lat="43.95637" lon="6.50767">
        <ele>898</ele>
        <time>2020-09-15T18:21:13Z</time>
      </trkpt>
      <trkpt lat="43.95705" lon="6.50721">
        <ele>894</ele>
        <time>2020-09-15T18:21:26Z</time>
      </trkpt>
      <trkpt lat="43.95804" lon="6.50661">
        <ele>888</ele>
        <time>2020-09-15T18:21:46Z</time>
      </trkpt>
      <trkpt lat="43.9582" lon="6.50651">
        <ele>886</ele>
        <time>2020-09-15T18:21:49Z</time>
      </trkpt>
      <trkpt lat="43.95842" lon="6.50636">
        <ele>885</ele>
        <time>2020-09-15T18:21:53Z</time>
      </trkpt>
      <trkpt lat="43.95865" lon="6.50626">
        <ele>885</ele>
        <time>2020-09-15T18:21:57Z</time>
      </trkpt>
      <trkpt lat="43.95886" lon="6.50621">
        <ele>884</ele>
        <time>2020-09-15T18:22:01Z</time>
      </trkpt>
      <trkpt lat="43.95892" lon="6.5062">
        <ele>883</ele>
        <time>2020-09-15T18:22:02Z</time>
      </trkpt>
      <trkpt lat="43.95896" lon="6.50619">
        <ele>883</ele>
        <time>2020-09-15T18:22:03Z</time>
      </trkpt>
      <trkpt lat="43.95897" lon="6.50619">
        <ele>883</ele>
        <time>2020-09-15T18:22:03Z</time>
      </trkpt>
      <trkpt lat="43.95948" lon="6.50619">
        <ele>883</ele>
        <time>2020-09-15T18:22:12Z</time>
      </trkpt>
      <trkpt lat="43.95985" lon="6.50624">
        <ele>884</ele>
        <time>2020-09-15T18:22:19Z</time>
      </trkpt>
      <trkpt lat="43.96005" lon="6.50626">
        <ele>885</ele>
        <time>2020-09-15T18:22:22Z</time>
      </trkpt>
      <trkpt lat="43.96019" lon="6.50631">
        <ele>885</ele>
        <time>2020-09-15T18:22:25Z</time>
      </trkpt>
      <trkpt lat="43.96058" lon="6.50638">
        <ele>885</ele>
        <time>2020-09-15T18:22:32Z</time>
      </trkpt>
      <trkpt lat="43.96069" lon="6.50639">
        <ele>885</ele>
        <time>2020-09-15T18:22:34Z</time>
      </trkpt>
      <trkpt lat="43.961" lon="6.50641">
        <ele>886</ele>
        <time>2020-09-15T18:22:39Z</time>
      </trkpt>
      <trkpt lat="43.96125" lon="6.50641">
        <ele>886</ele>
        <time>2020-09-15T18:22:44Z</time>
      </trkpt>
      <trkpt lat="43.96142" lon="6.50641">
        <ele>887</ele>
        <time>2020-09-15T18:22:47Z</time>
      </trkpt>
      <trkpt lat="43.96153" lon="6.50642">
        <ele>887</ele>
        <time>2020-09-15T18:22:49Z</time>
      </trkpt>
      <trkpt lat="43.96156" lon="6.50642">
        <ele>888</ele>
        <time>2020-09-15T18:22:49Z</time>
      </trkpt>
      <trkpt lat="43.9617" lon="6.50644">
        <ele>888</ele>
        <time>2020-09-15T18:22:52Z</time>
      </trkpt>
      <trkpt lat="43.96245" lon="6.50654">
        <ele>888</ele>
        <time>2020-09-15T18:23:05Z</time>
      </trkpt>
      <trkpt lat="43.96318" lon="6.50664">
        <ele>891</ele>
        <time>2020-09-15T18:23:18Z</time>
      </trkpt>
      <trkpt lat="43.96335" lon="6.50666">
        <ele>891</ele>
        <time>2020-09-15T18:23:21Z</time>
      </trkpt>
      <trkpt lat="43.96383" lon="6.50673">
        <ele>891</ele>
        <time>2020-09-15T18:23:30Z</time>
      </trkpt>
      <trkpt lat="43.96414" lon="6.50669">
        <ele>892</ele>
        <time>2020-09-15T18:23:35Z</time>
      </trkpt>
      <trkpt lat="43.9642" lon="6.5067">
        <ele>892</ele>
        <time>2020-09-15T18:23:37Z</time>
      </trkpt>
      <trkpt lat="43.96429" lon="6.50673">
        <ele>892</ele>
        <time>2020-09-15T18:23:38Z</time>
      </trkpt>
      <trkpt lat="43.96438" lon="6.50677">
        <ele>892</ele>
        <time>2020-09-15T18:23:40Z</time>
      </trkpt>
      <trkpt lat="43.96442" lon="6.50682">
        <ele>892</ele>
        <time>2020-09-15T18:23:41Z</time>
      </trkpt>
      <trkpt lat="43.96446" lon="6.50684">
        <ele>892</ele>
        <time>2020-09-15T18:23:42Z</time>
      </trkpt>
      <trkpt lat="43.9645" lon="6.50683">
        <ele>892</ele>
        <time>2020-09-15T18:23:42Z</time>
      </trkpt>
      <trkpt lat="43.96454" lon="6.5068">
        <ele>892</ele>
        <time>2020-09-15T18:23:43Z</time>
      </trkpt>
      <trkpt lat="43.96456" lon="6.50677">
        <ele>892</ele>
        <time>2020-09-15T18:23:44Z</time>
      </trkpt>
      <trkpt lat="43.96457" lon="6.50673">
        <ele>892</ele>
        <time>2020-09-15T18:23:44Z</time>
      </trkpt>
      <trkpt lat="43.96457" lon="6.50669">
        <ele>892</ele>
        <time>2020-09-15T18:23:45Z</time>
      </trkpt>
      <trkpt lat="43.96461" lon="6.50666">
        <ele>893</ele>
        <time>2020-09-15T18:23:46Z</time>
      </trkpt>
      <trkpt lat="43.96466" lon="6.50663">
        <ele>893</ele>
        <time>2020-09-15T18:23:47Z</time>
      </trkpt>
      <trkpt lat="43.96476" lon="6.50656">
        <ele>893</ele>
        <time>2020-09-15T18:23:48Z</time>
      </trkpt>
      <trkpt lat="43.96494" lon="6.50648">
        <ele>894</ele>
        <time>2020-09-15T18:23:52Z</time>
      </trkpt>
      <trkpt lat="43.96499" lon="6.50648">
        <ele>894</ele>
        <time>2020-09-15T18:23:53Z</time>
      </trkpt>
      <trkpt lat="43.96506" lon="6.50649">
        <ele>895</ele>
        <time>2020-09-15T18:23:54Z</time>
      </trkpt>
      <trkpt lat="43.96529" lon="6.50655">
        <ele>895</ele>
        <time>2020-09-15T18:23:58Z</time>
      </trkpt>
      <trkpt lat="43.96548" lon="6.50659">
        <ele>896</ele>
        <time>2020-09-15T18:24:02Z</time>
      </trkpt>
      <trkpt lat="43.96551" lon="6.5066">
        <ele>896</ele>
        <time>2020-09-15T18:24:02Z</time>
      </trkpt>
      <trkpt lat="43.96602" lon="6.50672">
        <ele>897</ele>
        <time>2020-09-15T18:24:11Z</time>
      </trkpt>
      <trkpt lat="43.9661" lon="6.50674">
        <ele>897</ele>
        <time>2020-09-15T18:24:13Z</time>
      </trkpt>
      <trkpt lat="43.96614" lon="6.50675">
        <ele>897</ele>
        <time>2020-09-15T18:24:14Z</time>
      </trkpt>
      <trkpt lat="43.96637" lon="6.50681">
        <ele>897</ele>
        <time>2020-09-15T18:24:18Z</time>
      </trkpt>
      <trkpt lat="43.96663" lon="6.50687">
        <ele>898</ele>
        <time>2020-09-15T18:24:22Z</time>
      </trkpt>
      <trkpt lat="43.96683" lon="6.50692">
        <ele>898</ele>
        <time>2020-09-15T18:24:26Z</time>
      </trkpt>
      <trkpt lat="43.96687" lon="6.50693">
        <ele>898</ele>
        <time>2020-09-15T18:24:27Z</time>
      </trkpt>
      <trkpt lat="43.9671" lon="6.50704">
        <ele>898</ele>
        <time>2020-09-15T18:24:31Z</time>
      </trkpt>
      <trkpt lat="43.96723" lon="6.50711">
        <ele>898</ele>
        <time>2020-09-15T18:24:34Z</time>
      </trkpt>
      <trkpt lat="43.96733" lon="6.50712">
        <ele>899</ele>
        <time>2020-09-15T18:24:35Z</time>
      </trkpt>
      <trkpt lat="43.96737" lon="6.50713">
        <ele>899</ele>
        <time>2020-09-15T18:24:36Z</time>
      </trkpt>
      <trkpt lat="43.96774" lon="6.50718">
        <ele>899</ele>
        <time>2020-09-15T18:24:43Z</time>
      </trkpt>
      <trkpt lat="43.96798" lon="6.50726">
        <ele>899</ele>
        <time>2020-09-15T18:24:47Z</time>
      </trkpt>
      <trkpt lat="43.9683" lon="6.50737">
        <ele>898</ele>
        <time>2020-09-15T18:24:53Z</time>
      </trkpt>
      <trkpt lat="43.96835" lon="6.50739">
        <ele>898</ele>
        <time>2020-09-15T18:24:54Z</time>
      </trkpt>
      <trkpt lat="43.96843" lon="6.50743">
        <ele>899</ele>
        <time>2020-09-15T18:24:55Z</time>
      </trkpt>
      <trkpt lat="43.96845" lon="6.50745">
        <ele>899</ele>
        <time>2020-09-15T18:24:56Z</time>
      </trkpt>
      <trkpt lat="43.96848" lon="6.50747">
        <ele>899</ele>
        <time>2020-09-15T18:24:56Z</time>
      </trkpt>
      <trkpt lat="43.96853" lon="6.50747">
        <ele>899</ele>
        <time>2020-09-15T18:24:57Z</time>
      </trkpt>
      <trkpt lat="43.96857" lon="6.50744">
        <ele>899</ele>
        <time>2020-09-15T18:24:58Z</time>
      </trkpt>
      <trkpt lat="43.96859" lon="6.50739">
        <ele>899</ele>
        <time>2020-09-15T18:24:59Z</time>
      </trkpt>
      <trkpt lat="43.9686" lon="6.50734">
        <ele>899</ele>
        <time>2020-09-15T18:24:59Z</time>
      </trkpt>
      <trkpt lat="43.96858" lon="6.50727">
        <ele>899</ele>
        <time>2020-09-15T18:25:00Z</time>
      </trkpt>
      <trkpt lat="43.96859" lon="6.50719">
        <ele>900</ele>
        <time>2020-09-15T18:25:01Z</time>
      </trkpt>
      <trkpt lat="43.96861" lon="6.50702">
        <ele>900</ele>
        <time>2020-09-15T18:25:04Z</time>
      </trkpt>
      <trkpt lat="43.96861" lon="6.50698">
        <ele>900</ele>
        <time>2020-09-15T18:25:04Z</time>
      </trkpt>
      <trkpt lat="43.96863" lon="6.50692">
        <ele>900</ele>
        <time>2020-09-15T18:25:05Z</time>
      </trkpt>
      <trkpt lat="43.96872" lon="6.50655">
        <ele>902</ele>
        <time>2020-09-15T18:25:10Z</time>
      </trkpt>
      <trkpt lat="43.96884" lon="6.50618">
        <ele>907</ele>
        <time>2020-09-15T18:25:15Z</time>
      </trkpt>
      <trkpt lat="43.96889" lon="6.50596">
        <ele>909</ele>
        <time>2020-09-15T18:25:18Z</time>
      </trkpt>
      <trkpt lat="43.96888" lon="6.50572">
        <ele>912</ele>
        <time>2020-09-15T18:25:21Z</time>
      </trkpt>
      <trkpt lat="43.96884" lon="6.50554">
        <ele>913</ele>
        <time>2020-09-15T18:25:24Z</time>
      </trkpt>
      <trkpt lat="43.96876" lon="6.50536">
        <ele>914</ele>
        <time>2020-09-15T18:25:26Z</time>
      </trkpt>
      <trkpt lat="43.9686" lon="6.50513">
        <ele>916</ele>
        <time>2020-09-15T18:25:30Z</time>
      </trkpt>
      <trkpt lat="43.96839" lon="6.50497">
        <ele>916</ele>
        <time>2020-09-15T18:25:35Z</time>
      </trkpt>
      <trkpt lat="43.96796" lon="6.50467">
        <ele>917</ele>
        <time>2020-09-15T18:25:43Z</time>
      </trkpt>
      <trkpt lat="43.96628" lon="6.50349">
        <ele>928</ele>
        <time>2020-09-15T18:26:17Z</time>
      </trkpt>
      <trkpt lat="43.96605" lon="6.50327">
        <ele>929</ele>
        <time>2020-09-15T18:26:22Z</time>
      </trkpt>
      <trkpt lat="43.96577" lon="6.50292">
        <ele>931</ele>
        <time>2020-09-15T18:26:28Z</time>
      </trkpt>
      <trkpt lat="43.96565" lon="6.50267">
        <ele>932</ele>
        <time>2020-09-15T18:26:32Z</time>
      </trkpt>
      <trkpt lat="43.96556" lon="6.50247">
        <ele>933</ele>
        <time>2020-09-15T18:26:35Z</time>
      </trkpt>
      <trkpt lat="43.96548" lon="6.50224">
        <ele>934</ele>
        <time>2020-09-15T18:26:39Z</time>
      </trkpt>
      <trkpt lat="43.96522" lon="6.5013">
        <ele>941</ele>
        <time>2020-09-15T18:26:51Z</time>
      </trkpt>
      <trkpt lat="43.96511" lon="6.50106">
        <ele>943</ele>
        <time>2020-09-15T18:26:55Z</time>
      </trkpt>
      <trkpt lat="43.96504" lon="6.50095">
        <ele>943</ele>
        <time>2020-09-15T18:26:57Z</time>
      </trkpt>
      <trkpt lat="43.965" lon="6.50091">
        <ele>943</ele>
        <time>2020-09-15T18:26:58Z</time>
      </trkpt>
      <trkpt lat="43.96486" lon="6.50076">
        <ele>944</ele>
        <time>2020-09-15T18:27:01Z</time>
      </trkpt>
      <trkpt lat="43.96454" lon="6.50049">
        <ele>947</ele>
        <time>2020-09-15T18:27:08Z</time>
      </trkpt>
      <trkpt lat="43.96379" lon="6.49993">
        <ele>952</ele>
        <time>2020-09-15T18:27:23Z</time>
      </trkpt>
      <trkpt lat="43.96342" lon="6.49961">
        <ele>957</ele>
        <time>2020-09-15T18:27:31Z</time>
      </trkpt>
      <trkpt lat="43.96308" lon="6.49941">
        <ele>958</ele>
        <time>2020-09-15T18:27:37Z</time>
      </trkpt>
      <trkpt lat="43.96299" lon="6.4993">
        <ele>959</ele>
        <time>2020-09-15T18:27:39Z</time>
      </trkpt>
      <trkpt lat="43.96273" lon="6.49884">
        <ele>967</ele>
        <time>2020-09-15T18:27:47Z</time>
      </trkpt>
      <trkpt lat="43.96263" lon="6.49877">
        <ele>968</ele>
        <time>2020-09-15T18:27:49Z</time>
      </trkpt>
      <trkpt lat="43.9623" lon="6.49866">
        <ele>966</ele>
        <time>2020-09-15T18:27:55Z</time>
      </trkpt>
      <trkpt lat="43.9622" lon="6.49861">
        <ele>965</ele>
        <time>2020-09-15T18:27:57Z</time>
      </trkpt>
      <trkpt lat="43.96211" lon="6.49853">
        <ele>965</ele>
        <time>2020-09-15T18:27:59Z</time>
      </trkpt>
      <trkpt lat="43.96188" lon="6.49815">
        <ele>968</ele>
        <time>2020-09-15T18:28:05Z</time>
      </trkpt>
      <trkpt lat="43.9618" lon="6.49799">
        <ele>969</ele>
        <time>2020-09-15T18:28:07Z</time>
      </trkpt>
      <trkpt lat="43.96168" lon="6.49764">
        <ele>971</ele>
        <time>2020-09-15T18:28:12Z</time>
      </trkpt>
      <trkpt lat="43.96166" lon="6.49753">
        <ele>971</ele>
        <time>2020-09-15T18:28:14Z</time>
      </trkpt>
      <trkpt lat="43.96165" lon="6.49745">
        <ele>972</ele>
        <time>2020-09-15T18:28:15Z</time>
      </trkpt>
      <trkpt lat="43.96154" lon="6.49664">
        <ele>978</ele>
        <time>2020-09-15T18:28:25Z</time>
      </trkpt>
      <trkpt lat="43.96154" lon="6.49643">
        <ele>981</ele>
        <time>2020-09-15T18:28:28Z</time>
      </trkpt>
      <trkpt lat="43.96159" lon="6.49581">
        <ele>990</ele>
        <time>2020-09-15T18:28:36Z</time>
      </trkpt>
      <trkpt lat="43.96158" lon="6.49561">
        <ele>990</ele>
        <time>2020-09-15T18:28:39Z</time>
      </trkpt>
      <trkpt lat="43.96154" lon="6.49522">
        <ele>990</ele>
        <time>2020-09-15T18:28:44Z</time>
      </trkpt>
      <trkpt lat="43.96154" lon="6.49502">
        <ele>990</ele>
        <time>2020-09-15T18:28:46Z</time>
      </trkpt>
      <trkpt lat="43.96157" lon="6.49484">
        <ele>992</ele>
        <time>2020-09-15T18:28:49Z</time>
      </trkpt>
      <trkpt lat="43.96166" lon="6.49449">
        <ele>995</ele>
        <time>2020-09-15T18:28:53Z</time>
      </trkpt>
      <trkpt lat="43.96169" lon="6.49431">
        <ele>997</ele>
        <time>2020-09-15T18:28:56Z</time>
      </trkpt>
      <trkpt lat="43.96167" lon="6.49413">
        <ele>996</ele>
        <time>2020-09-15T18:28:58Z</time>
      </trkpt>
      <trkpt lat="43.96163" lon="6.49396">
        <ele>997</ele>
        <time>2020-09-15T18:29:00Z</time>
      </trkpt>
      <trkpt lat="43.96156" lon="6.49373">
        <ele>999</ele>
        <time>2020-09-15T18:29:04Z</time>
      </trkpt>
      <trkpt lat="43.96149" lon="6.4936">
        <ele>1000</ele>
        <time>2020-09-15T18:29:06Z</time>
      </trkpt>
      <trkpt lat="43.96145" lon="6.49345">
        <ele>1002</ele>
        <time>2020-09-15T18:29:08Z</time>
      </trkpt>
      <trkpt lat="43.96142" lon="6.49327">
        <ele>1003</ele>
        <time>2020-09-15T18:29:10Z</time>
      </trkpt>
      <trkpt lat="43.96141" lon="6.49309">
        <ele>1003</ele>
        <time>2020-09-15T18:29:12Z</time>
      </trkpt>
      <trkpt lat="43.96139" lon="6.49289">
        <ele>1003</ele>
        <time>2020-09-15T18:29:15Z</time>
      </trkpt>
      <trkpt lat="43.96133" lon="6.49265">
        <ele>1003</ele>
        <time>2020-09-15T18:29:18Z</time>
      </trkpt>
      <trkpt lat="43.96127" lon="6.49251">
        <ele>1002</ele>
        <time>2020-09-15T18:29:20Z</time>
      </trkpt>
      <trkpt lat="43.96092" lon="6.49184">
        <ele>994</ele>
        <time>2020-09-15T18:29:31Z</time>
      </trkpt>
      <trkpt lat="43.96084" lon="6.49166">
        <ele>992</ele>
        <time>2020-09-15T18:29:34Z</time>
      </trkpt>
      <trkpt lat="43.96079" lon="6.49146">
        <ele>991</ele>
        <time>2020-09-15T18:29:36Z</time>
      </trkpt>
      <trkpt lat="43.96072" lon="6.49102">
        <ele>988</ele>
        <time>2020-09-15T18:29:42Z</time>
      </trkpt>
      <trkpt lat="43.96062" lon="6.49015">
        <ele>981</ele>
        <time>2020-09-15T18:29:53Z</time>
      </trkpt>
      <trkpt lat="43.96061" lon="6.49004">
        <ele>980</ele>
        <time>2020-09-15T18:29:55Z</time>
      </trkpt>
      <trkpt lat="43.96054" lon="6.48958">
        <ele>977</ele>
        <time>2020-09-15T18:30:01Z</time>
      </trkpt>
      <trkpt lat="43.96049" lon="6.48917">
        <ele>974</ele>
        <time>2020-09-15T18:30:06Z</time>
      </trkpt>
      <trkpt lat="43.96001" lon="6.48725">
        <ele>971</ele>
        <time>2020-09-15T18:30:32Z</time>
      </trkpt>
      <trkpt lat="43.95976" lon="6.48604">
        <ele>965</ele>
        <time>2020-09-15T18:30:48Z</time>
      </trkpt>
      <trkpt lat="43.9597" lon="6.4852">
        <ele>962</ele>
        <time>2020-09-15T18:30:59Z</time>
      </trkpt>
      <trkpt lat="43.95971" lon="6.48445">
        <ele>959</ele>
        <time>2020-09-15T18:31:09Z</time>
      </trkpt>
      <trkpt lat="43.95978" lon="6.48379">
        <ele>957</ele>
        <time>2020-09-15T18:31:17Z</time>
      </trkpt>
      <trkpt lat="43.96052" lon="6.47933">
        <ele>941</ele>
        <time>2020-09-15T18:32:16Z</time>
      </trkpt>
      <trkpt lat="43.96068" lon="6.47828">
        <ele>937</ele>
        <time>2020-09-15T18:32:30Z</time>
      </trkpt>
      <trkpt lat="43.96072" lon="6.47762">
        <ele>932</ele>
        <time>2020-09-15T18:32:38Z</time>
      </trkpt>
      <trkpt lat="43.96074" lon="6.47722">
        <ele>930</ele>
        <time>2020-09-15T18:32:43Z</time>
      </trkpt>
      <trkpt lat="43.96073" lon="6.4768">
        <ele>927</ele>
        <time>2020-09-15T18:32:49Z</time>
      </trkpt>
      <trkpt lat="43.96068" lon="6.47626">
        <ele>926</ele>
        <time>2020-09-15T18:32:56Z</time>
      </trkpt>
      <trkpt lat="43.96066" lon="6.47599">
        <ele>925</ele>
        <time>2020-09-15T18:32:59Z</time>
      </trkpt>
      <trkpt lat="43.96064" lon="6.47573">
        <ele>924</ele>
        <time>2020-09-15T18:33:03Z</time>
      </trkpt>
      <trkpt lat="43.96061" lon="6.4754">
        <ele>923</ele>
        <time>2020-09-15T18:33:07Z</time>
      </trkpt>
      <trkpt lat="43.96059" lon="6.47508">
        <ele>922</ele>
        <time>2020-09-15T18:33:11Z</time>
      </trkpt>
      <trkpt lat="43.96056" lon="6.47481">
        <ele>920</ele>
        <time>2020-09-15T18:33:14Z</time>
      </trkpt>
      <trkpt lat="43.96054" lon="6.47445">
        <ele>917</ele>
        <time>2020-09-15T18:33:19Z</time>
      </trkpt>
      <trkpt lat="43.96054" lon="6.47434">
        <ele>916</ele>
        <time>2020-09-15T18:33:20Z</time>
      </trkpt>
      <trkpt lat="43.96055" lon="6.47354">
        <ele>912</ele>
        <time>2020-09-15T18:33:31Z</time>
      </trkpt>
      <trkpt lat="43.96054" lon="6.47324">
        <ele>911</ele>
        <time>2020-09-15T18:33:35Z</time>
      </trkpt>
      <trkpt lat="43.96054" lon="6.47306">
        <ele>910</ele>
        <time>2020-09-15T18:33:37Z</time>
      </trkpt>
      <trkpt lat="43.96057" lon="6.4725">
        <ele>907</ele>
        <time>2020-09-15T18:33:44Z</time>
      </trkpt>
      <trkpt lat="43.96063" lon="6.47214">
        <ele>906</ele>
        <time>2020-09-15T18:33:49Z</time>
      </trkpt>
      <trkpt lat="43.96071" lon="6.47184">
        <ele>904</ele>
        <time>2020-09-15T18:33:53Z</time>
      </trkpt>
      <trkpt lat="43.9608" lon="6.47166">
        <ele>904</ele>
        <time>2020-09-15T18:33:56Z</time>
      </trkpt>
      <trkpt lat="43.96088" lon="6.47142">
        <ele>903</ele>
        <time>2020-09-15T18:33:59Z</time>
      </trkpt>
      <trkpt lat="43.96095" lon="6.47113">
        <ele>902</ele>
        <time>2020-09-15T18:34:03Z</time>
      </trkpt>
      <trkpt lat="43.96101" lon="6.47084">
        <ele>901</ele>
        <time>2020-09-15T18:34:07Z</time>
      </trkpt>
      <trkpt lat="43.96124" lon="6.46995">
        <ele>899</ele>
        <time>2020-09-15T18:34:19Z</time>
      </trkpt>
      <trkpt lat="43.96131" lon="6.46967">
        <ele>899</ele>
        <time>2020-09-15T18:34:23Z</time>
      </trkpt>
      <trkpt lat="43.96132" lon="6.46965">
        <ele>899</ele>
        <time>2020-09-15T18:34:23Z</time>
      </trkpt>
      <trkpt lat="43.96135" lon="6.46947">
        <ele>898</ele>
        <time>2020-09-15T18:34:25Z</time>
      </trkpt>
      <trkpt lat="43.96142" lon="6.46911">
        <ele>897</ele>
        <time>2020-09-15T18:34:30Z</time>
      </trkpt>
      <trkpt lat="43.96151" lon="6.46879">
        <ele>897</ele>
        <time>2020-09-15T18:34:35Z</time>
      </trkpt>
      <trkpt lat="43.96154" lon="6.46866">
        <ele>896</ele>
        <time>2020-09-15T18:34:36Z</time>
      </trkpt>
      <trkpt lat="43.96156" lon="6.46855">
        <ele>896</ele>
        <time>2020-09-15T18:34:38Z</time>
      </trkpt>
      <trkpt lat="43.96158" lon="6.46839">
        <ele>896</ele>
        <time>2020-09-15T18:34:40Z</time>
      </trkpt>
      <trkpt lat="43.9616" lon="6.46806">
        <ele>895</ele>
        <time>2020-09-15T18:34:44Z</time>
      </trkpt>
      <trkpt lat="43.96162" lon="6.46793">
        <ele>895</ele>
        <time>2020-09-15T18:34:46Z</time>
      </trkpt>
      <trkpt lat="43.9618" lon="6.46672">
        <ele>891</ele>
        <time>2020-09-15T18:35:02Z</time>
      </trkpt>
      <trkpt lat="43.96183" lon="6.46657">
        <ele>890</ele>
        <time>2020-09-15T18:35:04Z</time>
      </trkpt>
      <trkpt lat="43.96184" lon="6.46629">
        <ele>891</ele>
        <time>2020-09-15T18:35:07Z</time>
      </trkpt>
      <trkpt lat="43.96181" lon="6.46605">
        <ele>891</ele>
        <time>2020-09-15T18:35:10Z</time>
      </trkpt>
      <trkpt lat="43.9618" lon="6.46591">
        <ele>891</ele>
        <time>2020-09-15T18:35:12Z</time>
      </trkpt>
      <trkpt lat="43.96176" lon="6.46572">
        <ele>890</ele>
        <time>2020-09-15T18:35:15Z</time>
      </trkpt>
      <trkpt lat="43.96171" lon="6.46557">
        <ele>890</ele>
        <time>2020-09-15T18:35:17Z</time>
      </trkpt>
      <trkpt lat="43.96168" lon="6.46553">
        <ele>889</ele>
        <time>2020-09-15T18:35:18Z</time>
      </trkpt>
      <trkpt lat="43.96162" lon="6.46551">
        <ele>889</ele>
        <time>2020-09-15T18:35:19Z</time>
      </trkpt>
      <trkpt lat="43.96152" lon="6.46543">
        <ele>888</ele>
        <time>2020-09-15T18:35:21Z</time>
      </trkpt>
      <trkpt lat="43.96147" lon="6.46531">
        <ele>889</ele>
        <time>2020-09-15T18:35:22Z</time>
      </trkpt>
      <trkpt lat="43.96145" lon="6.4652">
        <ele>889</ele>
        <time>2020-09-15T18:35:24Z</time>
      </trkpt>
      <trkpt lat="43.96147" lon="6.46497">
        <ele>890</ele>
        <time>2020-09-15T18:35:27Z</time>
      </trkpt>
      <trkpt lat="43.96153" lon="6.46484">
        <ele>890</ele>
        <time>2020-09-15T18:35:29Z</time>
      </trkpt>
      <trkpt lat="43.96162" lon="6.46472">
        <ele>889</ele>
        <time>2020-09-15T18:35:31Z</time>
      </trkpt>
      <trkpt lat="43.96181" lon="6.46448">
        <ele>893</ele>
        <time>2020-09-15T18:35:36Z</time>
      </trkpt>
      <trkpt lat="43.96188" lon="6.46431">
        <ele>896</ele>
        <time>2020-09-15T18:35:38Z</time>
      </trkpt>
      <trkpt lat="43.96192" lon="6.46417">
        <ele>897</ele>
        <time>2020-09-15T18:35:40Z</time>
      </trkpt>
      <trkpt lat="43.96196" lon="6.4639">
        <ele>897</ele>
        <time>2020-09-15T18:35:44Z</time>
      </trkpt>
      <trkpt lat="43.96191" lon="6.46292">
        <ele>890</ele>
        <time>2020-09-15T18:35:56Z</time>
      </trkpt>
      <trkpt lat="43.96192" lon="6.4627">
        <ele>889</ele>
        <time>2020-09-15T18:35:59Z</time>
      </trkpt>
      <trkpt lat="43.96228" lon="6.46109">
        <ele>891</ele>
        <time>2020-09-15T18:36:21Z</time>
      </trkpt>
      <trkpt lat="43.96235" lon="6.46055">
        <ele>888</ele>
        <time>2020-09-15T18:36:28Z</time>
      </trkpt>
      <trkpt lat="43.96238" lon="6.4603">
        <ele>888</ele>
        <time>2020-09-15T18:36:31Z</time>
      </trkpt>
      <trkpt lat="43.96236" lon="6.45981">
        <ele>886</ele>
        <time>2020-09-15T18:36:37Z</time>
      </trkpt>
      <trkpt lat="43.96232" lon="6.45954">
        <ele>884</ele>
        <time>2020-09-15T18:36:41Z</time>
      </trkpt>
      <trkpt lat="43.96223" lon="6.4591">
        <ele>881</ele>
        <time>2020-09-15T18:36:47Z</time>
      </trkpt>
      <trkpt lat="43.96221" lon="6.4589">
        <ele>881</ele>
        <time>2020-09-15T18:36:49Z</time>
      </trkpt>
      <trkpt lat="43.96223" lon="6.4587">
        <ele>881</ele>
        <time>2020-09-15T18:36:52Z</time>
      </trkpt>
      <trkpt lat="43.96242" lon="6.45776">
        <ele>876</ele>
        <time>2020-09-15T18:37:04Z</time>
      </trkpt>
      <trkpt lat="43.9626" lon="6.45703">
        <ele>875</ele>
        <time>2020-09-15T18:37:14Z</time>
      </trkpt>
      <trkpt lat="43.96265" lon="6.45662">
        <ele>875</ele>
        <time>2020-09-15T18:37:19Z</time>
      </trkpt>
      <trkpt lat="43.96298" lon="6.45495">
        <ele>876</ele>
        <time>2020-09-15T18:37:42Z</time>
      </trkpt>
      <trkpt lat="43.96333" lon="6.4541">
        <ele>867</ele>
        <time>2020-09-15T18:37:54Z</time>
      </trkpt>
      <trkpt lat="43.96377" lon="6.45314">
        <ele>874</ele>
        <time>2020-09-15T18:38:09Z</time>
      </trkpt>
      <trkpt lat="43.96414" lon="6.45247">
        <ele>866</ele>
        <time>2020-09-15T18:38:20Z</time>
      </trkpt>
      <trkpt lat="43.96425" lon="6.45224">
        <ele>867</ele>
        <time>2020-09-15T18:38:23Z</time>
      </trkpt>
      <trkpt lat="43.96436" lon="6.45193">
        <ele>867</ele>
        <time>2020-09-15T18:38:28Z</time>
      </trkpt>
      <trkpt lat="43.96448" lon="6.45148">
        <ele>865</ele>
        <time>2020-09-15T18:38:34Z</time>
      </trkpt>
      <trkpt lat="43.96459" lon="6.45129">
        <ele>865</ele>
        <time>2020-09-15T18:38:37Z</time>
      </trkpt>
      <trkpt lat="43.96467" lon="6.45119">
        <ele>864</ele>
        <time>2020-09-15T18:38:39Z</time>
      </trkpt>
      <trkpt lat="43.96501" lon="6.4509">
        <ele>860</ele>
        <time>2020-09-15T18:38:46Z</time>
      </trkpt>
      <trkpt lat="43.96513" lon="6.45075">
        <ele>861</ele>
        <time>2020-09-15T18:38:49Z</time>
      </trkpt>
      <trkpt lat="43.96521" lon="6.45056">
        <ele>861</ele>
        <time>2020-09-15T18:38:51Z</time>
      </trkpt>
      <trkpt lat="43.96525" lon="6.45036">
        <ele>859</ele>
        <time>2020-09-15T18:38:54Z</time>
      </trkpt>
      <trkpt lat="43.96528" lon="6.45003">
        <ele>856</ele>
        <time>2020-09-15T18:38:58Z</time>
      </trkpt>
      <trkpt lat="43.96527" lon="6.44971">
        <ele>855</ele>
        <time>2020-09-15T18:39:03Z</time>
      </trkpt>
      <trkpt lat="43.96525" lon="6.44956">
        <ele>855</ele>
        <time>2020-09-15T18:39:04Z</time>
      </trkpt>
      <trkpt lat="43.96523" lon="6.44944">
        <ele>855</ele>
        <time>2020-09-15T18:39:06Z</time>
      </trkpt>
      <trkpt lat="43.96516" lon="6.44925">
        <ele>854</ele>
        <time>2020-09-15T18:39:09Z</time>
      </trkpt>
      <trkpt lat="43.96505" lon="6.44906">
        <ele>854</ele>
        <time>2020-09-15T18:39:12Z</time>
      </trkpt>
      <trkpt lat="43.9648" lon="6.44878">
        <ele>858</ele>
        <time>2020-09-15T18:39:18Z</time>
      </trkpt>
      <trkpt lat="43.96439" lon="6.4484">
        <ele>857</ele>
        <time>2020-09-15T18:39:26Z</time>
      </trkpt>
      <trkpt lat="43.96376" lon="6.44748">
        <ele>860</ele>
        <time>2020-09-15T18:39:43Z</time>
      </trkpt>
      <trkpt lat="43.96266" lon="6.44614">
        <ele>852</ele>
        <time>2020-09-15T18:40:09Z</time>
      </trkpt>
      <trkpt lat="43.96257" lon="6.44599">
        <ele>850</ele>
        <time>2020-09-15T18:40:11Z</time>
      </trkpt>
      <trkpt lat="43.96252" lon="6.4458">
        <ele>848</ele>
        <time>2020-09-15T18:40:14Z</time>
      </trkpt>
      <trkpt lat="43.96244" lon="6.44501">
        <ele>850</ele>
        <time>2020-09-15T18:40:24Z</time>
      </trkpt>
      <trkpt lat="43.96237" lon="6.44469">
        <ele>853</ele>
        <time>2020-09-15T18:40:28Z</time>
      </trkpt>
      <trkpt lat="43.96224" lon="6.4444">
        <ele>854</ele>
        <time>2020-09-15T18:40:33Z</time>
      </trkpt>
      <trkpt lat="43.96207" lon="6.44418">
        <ele>852</ele>
        <time>2020-09-15T18:40:37Z</time>
      </trkpt>
      <trkpt lat="43.96197" lon="6.44399">
        <ele>851</ele>
        <time>2020-09-15T18:40:40Z</time>
      </trkpt>
      <trkpt lat="43.96122" lon="6.44194">
        <ele>846</ele>
        <time>2020-09-15T18:41:09Z</time>
      </trkpt>
      <trkpt lat="43.96116" lon="6.44174">
        <ele>845</ele>
        <time>2020-09-15T18:41:12Z</time>
      </trkpt>
      <trkpt lat="43.96114" lon="6.44148">
        <ele>844</ele>
        <time>2020-09-15T18:41:15Z</time>
      </trkpt>
      <trkpt lat="43.96116" lon="6.44122">
        <ele>845</ele>
        <time>2020-09-15T18:41:19Z</time>
      </trkpt>
      <trkpt lat="43.96124" lon="6.44072">
        <ele>844</ele>
        <time>2020-09-15T18:41:25Z</time>
      </trkpt>
      <trkpt lat="43.96149" lon="6.43968">
        <ele>840</ele>
        <time>2020-09-15T18:41:39Z</time>
      </trkpt>
      <trkpt lat="43.96169" lon="6.43832">
        <ele>831</ele>
        <time>2020-09-15T18:41:57Z</time>
      </trkpt>
      <trkpt lat="43.96177" lon="6.43806">
        <ele>831</ele>
        <time>2020-09-15T18:42:01Z</time>
      </trkpt>
      <trkpt lat="43.9619" lon="6.43788">
        <ele>833</ele>
        <time>2020-09-15T18:42:04Z</time>
      </trkpt>
      <trkpt lat="43.96194" lon="6.43775">
        <ele>833</ele>
        <time>2020-09-15T18:42:06Z</time>
      </trkpt>
      <trkpt lat="43.96196" lon="6.4376">
        <ele>832</ele>
        <time>2020-09-15T18:42:08Z</time>
      </trkpt>
      <trkpt lat="43.96195" lon="6.43731">
        <ele>831</ele>
        <time>2020-09-15T18:42:11Z</time>
      </trkpt>
      <trkpt lat="43.96192" lon="6.43695">
        <ele>830</ele>
        <time>2020-09-15T18:42:16Z</time>
      </trkpt>
      <trkpt lat="43.96184" lon="6.43605">
        <ele>833</ele>
        <time>2020-09-15T18:42:28Z</time>
      </trkpt>
      <trkpt lat="43.9618" lon="6.43584">
        <ele>833</ele>
        <time>2020-09-15T18:42:31Z</time>
      </trkpt>
      <trkpt lat="43.96173" lon="6.43564">
        <ele>835</ele>
        <time>2020-09-15T18:42:33Z</time>
      </trkpt>
      <trkpt lat="43.96133" lon="6.43486">
        <ele>839</ele>
        <time>2020-09-15T18:42:46Z</time>
      </trkpt>
      <trkpt lat="43.96111" lon="6.43431">
        <ele>841</ele>
        <time>2020-09-15T18:42:54Z</time>
      </trkpt>
      <trkpt lat="43.96091" lon="6.43396">
        <ele>843</ele>
        <time>2020-09-15T18:42:59Z</time>
      </trkpt>
      <trkpt lat="43.96069" lon="6.43376">
        <ele>843</ele>
        <time>2020-09-15T18:43:04Z</time>
      </trkpt>
      <trkpt lat="43.95975" lon="6.43303">
        <ele>832</ele>
        <time>2020-09-15T18:43:23Z</time>
      </trkpt>
      <trkpt lat="43.95963" lon="6.4329">
        <ele>832</ele>
        <time>2020-09-15T18:43:26Z</time>
      </trkpt>
      <trkpt lat="43.95953" lon="6.43274">
        <ele>832</ele>
        <time>2020-09-15T18:43:29Z</time>
      </trkpt>
      <trkpt lat="43.95946" lon="6.43256">
        <ele>831</ele>
        <time>2020-09-15T18:43:31Z</time>
      </trkpt>
      <trkpt lat="43.95926" lon="6.43187">
        <ele>825</ele>
        <time>2020-09-15T18:43:41Z</time>
      </trkpt>
      <trkpt lat="43.95909" lon="6.43135">
        <ele>822</ele>
        <time>2020-09-15T18:43:48Z</time>
      </trkpt>
      <trkpt lat="43.9589" lon="6.43089">
        <ele>821</ele>
        <time>2020-09-15T18:43:55Z</time>
      </trkpt>
      <trkpt lat="43.95865" lon="6.43051">
        <ele>821</ele>
        <time>2020-09-15T18:44:02Z</time>
      </trkpt>
      <trkpt lat="43.95846" lon="6.4303">
        <ele>820</ele>
        <time>2020-09-15T18:44:06Z</time>
      </trkpt>
      <trkpt lat="43.95729" lon="6.42925">
        <ele>815</ele>
        <time>2020-09-15T18:44:31Z</time>
      </trkpt>
      <trkpt lat="43.9568" lon="6.42875">
        <ele>815</ele>
        <time>2020-09-15T18:44:41Z</time>
      </trkpt>
      <trkpt lat="43.95663" lon="6.42857">
        <ele>815</ele>
        <time>2020-09-15T18:44:45Z</time>
      </trkpt>
      <trkpt lat="43.95642" lon="6.42829">
        <ele>814</ele>
        <time>2020-09-15T18:44:50Z</time>
      </trkpt>
      <trkpt lat="43.95623" lon="6.42798">
        <ele>813</ele>
        <time>2020-09-15T18:44:56Z</time>
      </trkpt>
      <trkpt lat="43.95611" lon="6.42774">
        <ele>813</ele>
        <time>2020-09-15T18:44:59Z</time>
      </trkpt>
      <trkpt lat="43.95593" lon="6.42725">
        <ele>813</ele>
        <time>2020-09-15T18:45:06Z</time>
      </trkpt>
      <trkpt lat="43.95552" lon="6.42582">
        <ele>817</ele>
        <time>2020-09-15T18:45:26Z</time>
      </trkpt>
      <trkpt lat="43.95532" lon="6.4254">
        <ele>812</ele>
        <time>2020-09-15T18:45:33Z</time>
      </trkpt>
      <trkpt lat="43.95519" lon="6.42516">
        <ele>809</ele>
        <time>2020-09-15T18:45:36Z</time>
      </trkpt>
      <trkpt lat="43.955" lon="6.42488">
        <ele>804</ele>
        <time>2020-09-15T18:45:41Z</time>
      </trkpt>
      <trkpt lat="43.95361" lon="6.42301">
        <ele>795</ele>
        <time>2020-09-15T18:46:16Z</time>
      </trkpt>
      <trkpt lat="43.95337" lon="6.42255">
        <ele>793</ele>
        <time>2020-09-15T18:46:23Z</time>
      </trkpt>
      <trkpt lat="43.9532" lon="6.4221">
        <ele>792</ele>
        <time>2020-09-15T18:46:30Z</time>
      </trkpt>
      <trkpt lat="43.95305" lon="6.42153">
        <ele>790</ele>
        <time>2020-09-15T18:46:37Z</time>
      </trkpt>
      <trkpt lat="43.95274" lon="6.41956">
        <ele>792</ele>
        <time>2020-09-15T18:47:03Z</time>
      </trkpt>
      <trkpt lat="43.95265" lon="6.41924">
        <ele>793</ele>
        <time>2020-09-15T18:47:08Z</time>
      </trkpt>
      <trkpt lat="43.95247" lon="6.41875">
        <ele>799</ele>
        <time>2020-09-15T18:47:15Z</time>
      </trkpt>
      <trkpt lat="43.95155" lon="6.41685">
        <ele>796</ele>
        <time>2020-09-15T18:47:44Z</time>
      </trkpt>
      <trkpt lat="43.95147" lon="6.41657">
        <ele>796</ele>
        <time>2020-09-15T18:47:48Z</time>
      </trkpt>
      <trkpt lat="43.95143" lon="6.41629">
        <ele>798</ele>
        <time>2020-09-15T18:47:51Z</time>
      </trkpt>
      <trkpt lat="43.95141" lon="6.41607">
        <ele>800</ele>
        <time>2020-09-15T18:47:54Z</time>
      </trkpt>
      <trkpt lat="43.95145" lon="6.41568">
        <ele>802</ele>
        <time>2020-09-15T18:47:59Z</time>
      </trkpt>
      <trkpt lat="43.95156" lon="6.41502">
        <ele>800</ele>
        <time>2020-09-15T18:48:08Z</time>
      </trkpt>
      <trkpt lat="43.9516" lon="6.41455">
        <ele>797</ele>
        <time>2020-09-15T18:48:14Z</time>
      </trkpt>
      <trkpt lat="43.95158" lon="6.41407">
        <ele>795</ele>
        <time>2020-09-15T18:48:20Z</time>
      </trkpt>
      <trkpt lat="43.9515" lon="6.41319">
        <ele>795</ele>
        <time>2020-09-15T18:48:32Z</time>
      </trkpt>
      <trkpt lat="43.95142" lon="6.412">
        <ele>786</ele>
        <time>2020-09-15T18:48:47Z</time>
      </trkpt>
      <trkpt lat="43.95144" lon="6.41151">
        <ele>783</ele>
        <time>2020-09-15T18:48:53Z</time>
      </trkpt>
      <trkpt lat="43.95151" lon="6.41102">
        <ele>781</ele>
        <time>2020-09-15T18:49:00Z</time>
      </trkpt>
      <trkpt lat="43.95211" lon="6.40833">
        <ele>777</ele>
        <time>2020-09-15T18:49:36Z</time>
      </trkpt>
      <trkpt lat="43.95239" lon="6.40747">
        <ele>773</ele>
        <time>2020-09-15T18:49:48Z</time>
      </trkpt>
      <trkpt lat="43.95436" lon="6.40241">
        <ele>769</ele>
        <time>2020-09-15T18:51:01Z</time>
      </trkpt>
      <trkpt lat="43.95458" lon="6.40176">
        <ele>774</ele>
        <time>2020-09-15T18:51:11Z</time>
      </trkpt>
      <trkpt lat="43.95473" lon="6.40122">
        <ele>777</ele>
        <time>2020-09-15T18:51:18Z</time>
      </trkpt>
      <trkpt lat="43.95481" lon="6.40084">
        <ele>778</ele>
        <time>2020-09-15T18:51:23Z</time>
      </trkpt>
      <trkpt lat="43.95506" lon="6.39927">
        <ele>767</ele>
        <time>2020-09-15T18:51:44Z</time>
      </trkpt>
      <trkpt lat="43.95539" lon="6.3969">
        <ele>760</ele>
        <time>2020-09-15T18:52:15Z</time>
      </trkpt>
      <trkpt lat="43.95604" lon="6.39266">
        <ele>757</ele>
        <time>2020-09-15T18:53:10Z</time>
      </trkpt>
      <trkpt lat="43.95609" lon="6.39236">
        <ele>756</ele>
        <time>2020-09-15T18:53:14Z</time>
      </trkpt>
      <trkpt lat="43.95619" lon="6.39199">
        <ele>756</ele>
        <time>2020-09-15T18:53:19Z</time>
      </trkpt>
      <trkpt lat="43.95628" lon="6.39165">
        <ele>755</ele>
        <time>2020-09-15T18:53:24Z</time>
      </trkpt>
      <trkpt lat="43.95642" lon="6.39127">
        <ele>754</ele>
        <time>2020-09-15T18:53:29Z</time>
      </trkpt>
      <trkpt lat="43.9566" lon="6.39085">
        <ele>753</ele>
        <time>2020-09-15T18:53:36Z</time>
      </trkpt>
      <trkpt lat="43.95695" lon="6.39014">
        <ele>750</ele>
        <time>2020-09-15T18:53:47Z</time>
      </trkpt>
      <trkpt lat="43.95867" lon="6.38686">
        <ele>745</ele>
        <time>2020-09-15T18:54:39Z</time>
      </trkpt>
      <trkpt lat="43.95888" lon="6.38649">
        <ele>744</ele>
        <time>2020-09-15T18:54:45Z</time>
      </trkpt>
      <trkpt lat="43.95912" lon="6.38619">
        <ele>744</ele>
        <time>2020-09-15T18:54:50Z</time>
      </trkpt>
      <trkpt lat="43.96012" lon="6.38514">
        <ele>740</ele>
        <time>2020-09-15T18:55:13Z</time>
      </trkpt>
      <trkpt lat="43.96036" lon="6.38488">
        <ele>740</ele>
        <time>2020-09-15T18:55:18Z</time>
      </trkpt>
      <trkpt lat="43.96076" lon="6.38449">
        <ele>739</ele>
        <time>2020-09-15T18:55:27Z</time>
      </trkpt>
      <trkpt lat="43.9609" lon="6.38436">
        <ele>740</ele>
        <time>2020-09-15T18:55:30Z</time>
      </trkpt>
      <trkpt lat="43.96103" lon="6.38415">
        <ele>741</ele>
        <time>2020-09-15T18:55:33Z</time>
      </trkpt>
      <trkpt lat="43.96107" lon="6.38403">
        <ele>742</ele>
        <time>2020-09-15T18:55:35Z</time>
      </trkpt>
      <trkpt lat="43.96111" lon="6.38377">
        <ele>745</ele>
        <time>2020-09-15T18:55:38Z</time>
      </trkpt>
      <trkpt lat="43.96111" lon="6.38355">
        <ele>747</ele>
        <time>2020-09-15T18:55:41Z</time>
      </trkpt>
      <trkpt lat="43.96105" lon="6.38312">
        <ele>748</ele>
        <time>2020-09-15T18:55:47Z</time>
      </trkpt>
      <trkpt lat="43.961" lon="6.38281">
        <ele>748</ele>
        <time>2020-09-15T18:55:51Z</time>
      </trkpt>
      <trkpt lat="43.96091" lon="6.38251">
        <ele>746</ele>
        <time>2020-09-15T18:55:55Z</time>
      </trkpt>
      <trkpt lat="43.95933" lon="6.37848">
        <ele>740</ele>
        <time>2020-09-15T18:56:54Z</time>
      </trkpt>
      <trkpt lat="43.9591" lon="6.37807">
        <ele>740</ele>
        <time>2020-09-15T18:57:00Z</time>
      </trkpt>
      <trkpt lat="43.95898" lon="6.37792">
        <ele>741</ele>
        <time>2020-09-15T18:57:03Z</time>
      </trkpt>
      <trkpt lat="43.9587" lon="6.37761">
        <ele>741</ele>
        <time>2020-09-15T18:57:10Z</time>
      </trkpt>
      <trkpt lat="43.95748" lon="6.37639">
        <ele>736</ele>
        <time>2020-09-15T18:57:36Z</time>
      </trkpt>
      <trkpt lat="43.95708" lon="6.37596">
        <ele>736</ele>
        <time>2020-09-15T18:57:45Z</time>
      </trkpt>
      <trkpt lat="43.95684" lon="6.37559">
        <ele>737</ele>
        <time>2020-09-15T18:57:52Z</time>
      </trkpt>
      <trkpt lat="43.9565" lon="6.37497">
        <ele>739</ele>
        <time>2020-09-15T18:58:02Z</time>
      </trkpt>
      <trkpt lat="43.95614" lon="6.37425">
        <ele>735</ele>
        <time>2020-09-15T18:58:13Z</time>
      </trkpt>
      <trkpt lat="43.95594" lon="6.37369">
        <ele>733</ele>
        <time>2020-09-15T18:58:21Z</time>
      </trkpt>
      <trkpt lat="43.95593" lon="6.3736">
        <ele>733</ele>
        <time>2020-09-15T18:58:22Z</time>
      </trkpt>
      <trkpt lat="43.95581" lon="6.37318">
        <ele>733</ele>
        <time>2020-09-15T18:58:28Z</time>
      </trkpt>
      <trkpt lat="43.95577" lon="6.3731">
        <ele>732</ele>
        <time>2020-09-15T18:58:29Z</time>
      </trkpt>
      <trkpt lat="43.95559" lon="6.37288">
        <ele>731</ele>
        <time>2020-09-15T18:58:34Z</time>
      </trkpt>
      <trkpt lat="43.95497" lon="6.37225">
        <ele>728</ele>
        <time>2020-09-15T18:58:47Z</time>
      </trkpt>
      <trkpt lat="43.95486" lon="6.37206">
        <ele>728</ele>
        <time>2020-09-15T18:58:50Z</time>
      </trkpt>
      <trkpt lat="43.95475" lon="6.37194">
        <ele>727</ele>
        <time>2020-09-15T18:58:53Z</time>
      </trkpt>
      <trkpt lat="43.95454" lon="6.37165">
        <ele>726</ele>
        <time>2020-09-15T18:58:58Z</time>
      </trkpt>
      <trkpt lat="43.9544" lon="6.37139">
        <ele>726</ele>
        <time>2020-09-15T18:59:02Z</time>
      </trkpt>
      <trkpt lat="43.95428" lon="6.3711">
        <ele>725</ele>
        <time>2020-09-15T18:59:07Z</time>
      </trkpt>
      <trkpt lat="43.95408" lon="6.37056">
        <ele>726</ele>
        <time>2020-09-15T18:59:14Z</time>
      </trkpt>
      <trkpt lat="43.95382" lon="6.36975">
        <ele>727</ele>
        <time>2020-09-15T18:59:26Z</time>
      </trkpt>
      <trkpt lat="43.9533" lon="6.36857">
        <ele>726</ele>
        <time>2020-09-15T18:59:43Z</time>
      </trkpt>
      <trkpt lat="43.95297" lon="6.36755">
        <ele>729</ele>
        <time>2020-09-15T18:59:58Z</time>
      </trkpt>
      <trkpt lat="43.95291" lon="6.36736">
        <ele>730</ele>
        <time>2020-09-15T19:00:00Z</time>
      </trkpt>
      <trkpt lat="43.95278" lon="6.36708">
        <ele>731</ele>
        <time>2020-09-15T19:00:05Z</time>
      </trkpt>
      <trkpt lat="43.95267" lon="6.36693">
        <ele>729</ele>
        <time>2020-09-15T19:00:07Z</time>
      </trkpt>
      <trkpt lat="43.95255" lon="6.36678">
        <ele>727</ele>
        <time>2020-09-15T19:00:10Z</time>
      </trkpt>
      <trkpt lat="43.95227" lon="6.36648">
        <ele>725</ele>
        <time>2020-09-15T19:00:17Z</time>
      </trkpt>
      <trkpt lat="43.95204" lon="6.36638">
        <ele>724</ele>
        <time>2020-09-15T19:00:21Z</time>
      </trkpt>
      <trkpt lat="43.95201" lon="6.36632">
        <ele>724</ele>
        <time>2020-09-15T19:00:22Z</time>
      </trkpt>
      <trkpt lat="43.95201" lon="6.3663">
        <ele>724</ele>
        <time>2020-09-15T19:00:22Z</time>
      </trkpt>
      <trkpt lat="43.95201" lon="6.36626">
        <ele>724</ele>
        <time>2020-09-15T19:00:23Z</time>
      </trkpt>
      <trkpt lat="43.95201" lon="6.36624">
        <ele>724</ele>
        <time>2020-09-15T19:00:23Z</time>
      </trkpt>
      <trkpt lat="43.95202" lon="6.3662">
        <ele>724</ele>
        <time>2020-09-15T19:00:23Z</time>
      </trkpt>
      <trkpt lat="43.95203" lon="6.36612">
        <ele>724</ele>
        <time>2020-09-15T19:00:24Z</time>
      </trkpt>
      <trkpt lat="43.9522" lon="6.36589">
        <ele>725</ele>
        <time>2020-09-15T19:00:29Z</time>
      </trkpt>
      <trkpt lat="43.95258" lon="6.36538">
        <ele>725</ele>
        <time>2020-09-15T19:00:38Z</time>
      </trkpt>
      <trkpt lat="43.95301" lon="6.36483">
        <ele>726</ele>
        <time>2020-09-15T19:00:48Z</time>
      </trkpt>
      <trkpt lat="43.95305" lon="6.36479">
        <ele>726</ele>
        <time>2020-09-15T19:00:49Z</time>
      </trkpt>
      <trkpt lat="43.95371" lon="6.36394">
        <ele>724</ele>
        <time>2020-09-15T19:01:05Z</time>
      </trkpt>
      <trkpt lat="43.95394" lon="6.36373">
        <ele>724</ele>
        <time>2020-09-15T19:01:10Z</time>
      </trkpt>
      <trkpt lat="43.95411" lon="6.36361">
        <ele>723</ele>
        <time>2020-09-15T19:01:14Z</time>
      </trkpt>
      <trkpt lat="43.9543" lon="6.36349">
        <ele>722</ele>
        <time>2020-09-15T19:01:17Z</time>
      </trkpt>
      <trkpt lat="43.95463" lon="6.36329">
        <ele>721</ele>
        <time>2020-09-15T19:01:24Z</time>
      </trkpt>
      <trkpt lat="43.95489" lon="6.36311">
        <ele>720</ele>
        <time>2020-09-15T19:01:29Z</time>
      </trkpt>
      <trkpt lat="43.95507" lon="6.36293">
        <ele>720</ele>
        <time>2020-09-15T19:01:33Z</time>
      </trkpt>
      <trkpt lat="43.95533" lon="6.3626">
        <ele>720</ele>
        <time>2020-09-15T19:01:39Z</time>
      </trkpt>
      <trkpt lat="43.95548" lon="6.36236">
        <ele>721</ele>
        <time>2020-09-15T19:01:43Z</time>
      </trkpt>
      <trkpt lat="43.95591" lon="6.36168">
        <ele>720</ele>
        <time>2020-09-15T19:01:55Z</time>
      </trkpt>
      <trkpt lat="43.95612" lon="6.3614">
        <ele>722</ele>
        <time>2020-09-15T19:02:00Z</time>
      </trkpt>
      <trkpt lat="43.95636" lon="6.36112">
        <ele>721</ele>
        <time>2020-09-15T19:02:06Z</time>
      </trkpt>
      <trkpt lat="43.95723" lon="6.36032">
        <ele>727</ele>
        <time>2020-09-15T19:02:24Z</time>
      </trkpt>
      <trkpt lat="43.95742" lon="6.3601">
        <ele>726</ele>
        <time>2020-09-15T19:02:28Z</time>
      </trkpt>
      <trkpt lat="43.95767" lon="6.35972">
        <ele>731</ele>
        <time>2020-09-15T19:02:35Z</time>
      </trkpt>
      <trkpt lat="43.95802" lon="6.35893">
        <ele>730</ele>
        <time>2020-09-15T19:02:47Z</time>
      </trkpt>
      <trkpt lat="43.95819" lon="6.35862">
        <ele>725</ele>
        <time>2020-09-15T19:02:52Z</time>
      </trkpt>
      <trkpt lat="43.95829" lon="6.35848">
        <ele>721</ele>
        <time>2020-09-15T19:02:54Z</time>
      </trkpt>
      <trkpt lat="43.95874" lon="6.35788">
        <ele>726</ele>
        <time>2020-09-15T19:03:06Z</time>
      </trkpt>
      <trkpt lat="43.95906" lon="6.35751">
        <ele>724</ele>
        <time>2020-09-15T19:03:13Z</time>
      </trkpt>
      <trkpt lat="43.95972" lon="6.35679">
        <ele>721</ele>
        <time>2020-09-15T19:03:28Z</time>
      </trkpt>
      <trkpt lat="43.96152" lon="6.35446">
        <ele>715</ele>
        <time>2020-09-15T19:04:12Z</time>
      </trkpt>
      <trkpt lat="43.9617" lon="6.35424">
        <ele>716</ele>
        <time>2020-09-15T19:04:16Z</time>
      </trkpt>
      <trkpt lat="43.96186" lon="6.354">
        <ele>717</ele>
        <time>2020-09-15T19:04:20Z</time>
      </trkpt>
      <trkpt lat="43.96194" lon="6.35385">
        <ele>717</ele>
        <time>2020-09-15T19:04:23Z</time>
      </trkpt>
      <trkpt lat="43.96205" lon="6.35356">
        <ele>717</ele>
        <time>2020-09-15T19:04:27Z</time>
      </trkpt>
      <trkpt lat="43.96214" lon="6.35319">
        <ele>717</ele>
        <time>2020-09-15T19:04:32Z</time>
      </trkpt>
      <trkpt lat="43.96217" lon="6.35286">
        <ele>717</ele>
        <time>2020-09-15T19:04:36Z</time>
      </trkpt>
      <trkpt lat="43.96216" lon="6.35243">
        <ele>717</ele>
        <time>2020-09-15T19:04:41Z</time>
      </trkpt>
      <trkpt lat="43.96211" lon="6.35217">
        <ele>717</ele>
        <time>2020-09-15T19:04:45Z</time>
      </trkpt>
      <trkpt lat="43.96207" lon="6.35201">
        <ele>717</ele>
        <time>2020-09-15T19:04:47Z</time>
      </trkpt>
      <trkpt lat="43.96164" lon="6.3508">
        <ele>715</ele>
        <time>2020-09-15T19:05:04Z</time>
      </trkpt>
      <trkpt lat="43.96158" lon="6.35057">
        <ele>715</ele>
        <time>2020-09-15T19:05:08Z</time>
      </trkpt>
      <trkpt lat="43.96153" lon="6.35016">
        <ele>715</ele>
        <time>2020-09-15T19:05:13Z</time>
      </trkpt>
      <trkpt lat="43.96153" lon="6.34993">
        <ele>716</ele>
        <time>2020-09-15T19:05:16Z</time>
      </trkpt>
      <trkpt lat="43.96155" lon="6.34963">
        <ele>715</ele>
        <time>2020-09-15T19:05:20Z</time>
      </trkpt>
      <trkpt lat="43.96184" lon="6.34832">
        <ele>720</ele>
        <time>2020-09-15T19:05:37Z</time>
      </trkpt>
      <trkpt lat="43.9619" lon="6.34798">
        <ele>723</ele>
        <time>2020-09-15T19:05:42Z</time>
      </trkpt>
      <trkpt lat="43.96191" lon="6.34762">
        <ele>725</ele>
        <time>2020-09-15T19:05:46Z</time>
      </trkpt>
      <trkpt lat="43.96191" lon="6.34736">
        <ele>726</ele>
        <time>2020-09-15T19:05:50Z</time>
      </trkpt>
      <trkpt lat="43.96185" lon="6.34607">
        <ele>725</ele>
        <time>2020-09-15T19:06:06Z</time>
      </trkpt>
      <trkpt lat="43.96183" lon="6.34588">
        <ele>724</ele>
        <time>2020-09-15T19:06:09Z</time>
      </trkpt>
      <trkpt lat="43.9618" lon="6.34573">
        <ele>725</ele>
        <time>2020-09-15T19:06:11Z</time>
      </trkpt>
      <trkpt lat="43.96172" lon="6.34547">
        <ele>728</ele>
        <time>2020-09-15T19:06:14Z</time>
      </trkpt>
      <trkpt lat="43.96166" lon="6.34535">
        <ele>728</ele>
        <time>2020-09-15T19:06:16Z</time>
      </trkpt>
      <trkpt lat="43.9615" lon="6.34509">
        <ele>730</ele>
        <time>2020-09-15T19:06:21Z</time>
      </trkpt>
      <trkpt lat="43.96122" lon="6.34475">
        <ele>729</ele>
        <time>2020-09-15T19:06:27Z</time>
      </trkpt>
      <trkpt lat="43.96074" lon="6.34428">
        <ele>721</ele>
        <time>2020-09-15T19:06:38Z</time>
      </trkpt>
      <trkpt lat="43.96046" lon="6.34397">
        <ele>720</ele>
        <time>2020-09-15T19:06:44Z</time>
      </trkpt>
      <trkpt lat="43.96028" lon="6.34365">
        <ele>719</ele>
        <time>2020-09-15T19:06:49Z</time>
      </trkpt>
      <trkpt lat="43.96017" lon="6.34338">
        <ele>717</ele>
        <time>2020-09-15T19:06:53Z</time>
      </trkpt>
      <trkpt lat="43.96014" lon="6.34325">
        <ele>716</ele>
        <time>2020-09-15T19:06:55Z</time>
      </trkpt>
      <trkpt lat="43.96013" lon="6.34312">
        <ele>715</ele>
        <time>2020-09-15T19:06:57Z</time>
      </trkpt>
      <trkpt lat="43.96017" lon="6.34225">
        <ele>716</ele>
        <time>2020-09-15T19:07:08Z</time>
      </trkpt>
      <trkpt lat="43.96019" lon="6.342">
        <ele>718</ele>
        <time>2020-09-15T19:07:11Z</time>
      </trkpt>
      <trkpt lat="43.96026" lon="6.34102">
        <ele>723</ele>
        <time>2020-09-15T19:07:24Z</time>
      </trkpt>
      <trkpt lat="43.96035" lon="6.33996">
        <ele>723</ele>
        <time>2020-09-15T19:07:37Z</time>
      </trkpt>
      <trkpt lat="43.9604" lon="6.33947">
        <ele>724</ele>
        <time>2020-09-15T19:07:44Z</time>
      </trkpt>
      <trkpt lat="43.96049" lon="6.33894">
        <ele>723</ele>
        <time>2020-09-15T19:07:51Z</time>
      </trkpt>
      <trkpt lat="43.96056" lon="6.33858">
        <ele>722</ele>
        <time>2020-09-15T19:07:55Z</time>
      </trkpt>
      <trkpt lat="43.96066" lon="6.33815">
        <ele>718</ele>
        <time>2020-09-15T19:08:01Z</time>
      </trkpt>
      <trkpt lat="43.96078" lon="6.33777">
        <ele>713</ele>
        <time>2020-09-15T19:08:06Z</time>
      </trkpt>
      <trkpt lat="43.96084" lon="6.33762">
        <ele>710</ele>
        <time>2020-09-15T19:08:09Z</time>
      </trkpt>
      <trkpt lat="43.96159" lon="6.33616">
        <ele>709</ele>
        <time>2020-09-15T19:08:32Z</time>
      </trkpt>
      <trkpt lat="43.96172" lon="6.33583">
        <ele>707</ele>
        <time>2020-09-15T19:08:36Z</time>
      </trkpt>
      <trkpt lat="43.96181" lon="6.3355">
        <ele>709</ele>
        <time>2020-09-15T19:08:41Z</time>
      </trkpt>
      <trkpt lat="43.96182" lon="6.33543">
        <ele>709</ele>
        <time>2020-09-15T19:08:42Z</time>
      </trkpt>
      <trkpt lat="43.96183" lon="6.33535">
        <ele>709</ele>
        <time>2020-09-15T19:08:43Z</time>
      </trkpt>
      <trkpt lat="43.96186" lon="6.33502">
        <ele>707</ele>
        <time>2020-09-15T19:08:47Z</time>
      </trkpt>
      <trkpt lat="43.96185" lon="6.33465">
        <ele>707</ele>
        <time>2020-09-15T19:08:52Z</time>
      </trkpt>
      <trkpt lat="43.96185" lon="6.33462">
        <ele>707</ele>
        <time>2020-09-15T19:08:52Z</time>
      </trkpt>
      <trkpt lat="43.96181" lon="6.33426">
        <ele>706</ele>
        <time>2020-09-15T19:08:57Z</time>
      </trkpt>
      <trkpt lat="43.96179" lon="6.33409">
        <ele>706</ele>
        <time>2020-09-15T19:08:59Z</time>
      </trkpt>
      <trkpt lat="43.96157" lon="6.33216">
        <ele>707</ele>
        <time>2020-09-15T19:09:24Z</time>
      </trkpt>
      <trkpt lat="43.9614" lon="6.33085">
        <ele>711</ele>
        <time>2020-09-15T19:09:41Z</time>
      </trkpt>
      <trkpt lat="43.96138" lon="6.3306">
        <ele>711</ele>
        <time>2020-09-15T19:09:44Z</time>
      </trkpt>
      <trkpt lat="43.96139" lon="6.3304">
        <ele>712</ele>
        <time>2020-09-15T19:09:47Z</time>
      </trkpt>
      <trkpt lat="43.96143" lon="6.33018">
        <ele>713</ele>
        <time>2020-09-15T19:09:50Z</time>
      </trkpt>
      <trkpt lat="43.96166" lon="6.32923">
        <ele>709</ele>
        <time>2020-09-15T19:10:03Z</time>
      </trkpt>
      <trkpt lat="43.96172" lon="6.32892">
        <ele>714</ele>
        <time>2020-09-15T19:10:07Z</time>
      </trkpt>
      <trkpt lat="43.96174" lon="6.32859">
        <ele>718</ele>
        <time>2020-09-15T19:10:11Z</time>
      </trkpt>
      <trkpt lat="43.96172" lon="6.32828">
        <ele>719</ele>
        <time>2020-09-15T19:10:15Z</time>
      </trkpt>
      <trkpt lat="43.96162" lon="6.3275">
        <ele>706</ele>
        <time>2020-09-15T19:10:25Z</time>
      </trkpt>
      <trkpt lat="43.96163" lon="6.32728">
        <ele>703</ele>
        <time>2020-09-15T19:10:28Z</time>
      </trkpt>
      <trkpt lat="43.96166" lon="6.32709">
        <ele>701</ele>
        <time>2020-09-15T19:10:31Z</time>
      </trkpt>
      <trkpt lat="43.96175" lon="6.32677">
        <ele>700</ele>
        <time>2020-09-15T19:10:35Z</time>
      </trkpt>
      <trkpt lat="43.96261" lon="6.3249">
        <ele>698</ele>
        <time>2020-09-15T19:11:03Z</time>
      </trkpt>
      <trkpt lat="43.96279" lon="6.32441">
        <ele>704</ele>
        <time>2020-09-15T19:11:10Z</time>
      </trkpt>
      <trkpt lat="43.96283" lon="6.32422">
        <ele>705</ele>
        <time>2020-09-15T19:11:13Z</time>
      </trkpt>
      <trkpt lat="43.96286" lon="6.32406">
        <ele>706</ele>
        <time>2020-09-15T19:11:15Z</time>
      </trkpt>
      <trkpt lat="43.96291" lon="6.32258">
        <ele>700</ele>
        <time>2020-09-15T19:11:34Z</time>
      </trkpt>
      <trkpt lat="43.96296" lon="6.32225">
        <ele>698</ele>
        <time>2020-09-15T19:11:38Z</time>
      </trkpt>
      <trkpt lat="43.963" lon="6.3221">
        <ele>697</ele>
        <time>2020-09-15T19:11:40Z</time>
      </trkpt>
      <trkpt lat="43.96305" lon="6.32197">
        <ele>697</ele>
        <time>2020-09-15T19:11:42Z</time>
      </trkpt>
      <trkpt lat="43.96316" lon="6.32175">
        <ele>695</ele>
        <time>2020-09-15T19:11:46Z</time>
      </trkpt>
      <trkpt lat="43.96325" lon="6.32163">
        <ele>693</ele>
        <time>2020-09-15T19:11:48Z</time>
      </trkpt>
      <trkpt lat="43.96355" lon="6.32129">
        <ele>694</ele>
        <time>2020-09-15T19:11:55Z</time>
      </trkpt>
      <trkpt lat="43.96409" lon="6.3207">
        <ele>692</ele>
        <time>2020-09-15T19:12:07Z</time>
      </trkpt>
      <trkpt lat="43.96479" lon="6.31998">
        <ele>694</ele>
        <time>2020-09-15T19:12:23Z</time>
      </trkpt>
      <trkpt lat="43.96503" lon="6.31976">
        <ele>694</ele>
        <time>2020-09-15T19:12:28Z</time>
      </trkpt>
      <trkpt lat="43.96556" lon="6.31936">
        <ele>697</ele>
        <time>2020-09-15T19:12:38Z</time>
      </trkpt>
      <trkpt lat="43.96582" lon="6.3191">
        <ele>694</ele>
        <time>2020-09-15T19:12:44Z</time>
      </trkpt>
      <trkpt lat="43.96604" lon="6.31884">
        <ele>698</ele>
        <time>2020-09-15T19:12:49Z</time>
      </trkpt>
      <trkpt lat="43.96626" lon="6.31848">
        <ele>698</ele>
        <time>2020-09-15T19:12:55Z</time>
      </trkpt>
      <trkpt lat="43.9665" lon="6.31787">
        <ele>695</ele>
        <time>2020-09-15T19:13:04Z</time>
      </trkpt>
      <trkpt lat="43.96708" lon="6.31615">
        <ele>689</ele>
        <time>2020-09-15T19:13:29Z</time>
      </trkpt>
      <trkpt lat="43.96715" lon="6.316">
        <ele>689</ele>
        <time>2020-09-15T19:13:31Z</time>
      </trkpt>
      <trkpt lat="43.96722" lon="6.3157">
        <ele>688</ele>
        <time>2020-09-15T19:13:35Z</time>
      </trkpt>
      <trkpt lat="43.96738" lon="6.31438">
        <ele>687</ele>
        <time>2020-09-15T19:13:52Z</time>
      </trkpt>
      <trkpt lat="43.96741" lon="6.31422">
        <ele>686</ele>
        <time>2020-09-15T19:13:54Z</time>
      </trkpt>
      <trkpt lat="43.96752" lon="6.31387">
        <ele>685</ele>
        <time>2020-09-15T19:13:59Z</time>
      </trkpt>
      <trkpt lat="43.96761" lon="6.31365">
        <ele>686</ele>
        <time>2020-09-15T19:14:02Z</time>
      </trkpt>
      <trkpt lat="43.96782" lon="6.31328">
        <ele>687</ele>
        <time>2020-09-15T19:14:08Z</time>
      </trkpt>
      <trkpt lat="43.96789" lon="6.31313">
        <ele>687</ele>
        <time>2020-09-15T19:14:11Z</time>
      </trkpt>
      <trkpt lat="43.96813" lon="6.31287">
        <ele>687</ele>
        <time>2020-09-15T19:14:16Z</time>
      </trkpt>
      <trkpt lat="43.96828" lon="6.31276">
        <ele>687</ele>
        <time>2020-09-15T19:14:19Z</time>
      </trkpt>
      <trkpt lat="43.96926" lon="6.31214">
        <ele>687</ele>
        <time>2020-09-15T19:14:38Z</time>
      </trkpt>
      <trkpt lat="43.9698" lon="6.31188">
        <ele>686</ele>
        <time>2020-09-15T19:14:48Z</time>
      </trkpt>
      <trkpt lat="43.97032" lon="6.31173">
        <ele>685</ele>
        <time>2020-09-15T19:14:58Z</time>
      </trkpt>
      <trkpt lat="43.97089" lon="6.3115">
        <ele>684</ele>
        <time>2020-09-15T19:15:08Z</time>
      </trkpt>
      <trkpt lat="43.97125" lon="6.3114">
        <ele>682</ele>
        <time>2020-09-15T19:15:15Z</time>
      </trkpt>
      <trkpt lat="43.97155" lon="6.31144">
        <ele>682</ele>
        <time>2020-09-15T19:15:20Z</time>
      </trkpt>
      <trkpt lat="43.97182" lon="6.31155">
        <ele>682</ele>
        <time>2020-09-15T19:15:25Z</time>
      </trkpt>
      <trkpt lat="43.97237" lon="6.31184">
        <ele>684</ele>
        <time>2020-09-15T19:15:36Z</time>
      </trkpt>
      <trkpt lat="43.97271" lon="6.31191">
        <ele>684</ele>
        <time>2020-09-15T19:15:42Z</time>
      </trkpt>
      <trkpt lat="43.97291" lon="6.31189">
        <ele>684</ele>
        <time>2020-09-15T19:15:45Z</time>
      </trkpt>
      <trkpt lat="43.97303" lon="6.31186">
        <ele>683</ele>
        <time>2020-09-15T19:15:48Z</time>
      </trkpt>
      <trkpt lat="43.97355" lon="6.31166">
        <ele>680</ele>
        <time>2020-09-15T19:15:57Z</time>
      </trkpt>
      <trkpt lat="43.97402" lon="6.31158">
        <ele>680</ele>
        <time>2020-09-15T19:16:06Z</time>
      </trkpt>
      <trkpt lat="43.97436" lon="6.31155">
        <ele>680</ele>
        <time>2020-09-15T19:16:12Z</time>
      </trkpt>
      <trkpt lat="43.97634" lon="6.31175">
        <ele>688</ele>
        <time>2020-09-15T19:16:47Z</time>
      </trkpt>
      <trkpt lat="43.97658" lon="6.31175">
        <ele>688</ele>
        <time>2020-09-15T19:16:51Z</time>
      </trkpt>
      <trkpt lat="43.97669" lon="6.31172">
        <ele>688</ele>
        <time>2020-09-15T19:16:53Z</time>
      </trkpt>
      <trkpt lat="43.9779" lon="6.31115">
        <ele>683</ele>
        <time>2020-09-15T19:17:16Z</time>
      </trkpt>
      <trkpt lat="43.97803" lon="6.31107">
        <ele>683</ele>
        <time>2020-09-15T19:17:18Z</time>
      </trkpt>
      <trkpt lat="43.97833" lon="6.31081">
        <ele>681</ele>
        <time>2020-09-15T19:17:25Z</time>
      </trkpt>
      <trkpt lat="43.97926" lon="6.30985">
        <ele>688</ele>
        <time>2020-09-15T19:17:45Z</time>
      </trkpt>
      <trkpt lat="43.97966" lon="6.30931">
        <ele>688</ele>
        <time>2020-09-15T19:17:55Z</time>
      </trkpt>
      <trkpt lat="43.97985" lon="6.30893">
        <ele>687</ele>
        <time>2020-09-15T19:18:01Z</time>
      </trkpt>
      <trkpt lat="43.97994" lon="6.30859">
        <ele>685</ele>
        <time>2020-09-15T19:18:06Z</time>
      </trkpt>
      <trkpt lat="43.97999" lon="6.30825">
        <ele>683</ele>
        <time>2020-09-15T19:18:10Z</time>
      </trkpt>
      <trkpt lat="43.97999" lon="6.30791">
        <ele>681</ele>
        <time>2020-09-15T19:18:15Z</time>
      </trkpt>
      <trkpt lat="43.9799" lon="6.30699">
        <ele>681</ele>
        <time>2020-09-15T19:18:27Z</time>
      </trkpt>
      <trkpt lat="43.97991" lon="6.30669">
        <ele>681</ele>
        <time>2020-09-15T19:18:30Z</time>
      </trkpt>
      <trkpt lat="43.97996" lon="6.30634">
        <ele>680</ele>
        <time>2020-09-15T19:18:35Z</time>
      </trkpt>
      <trkpt lat="43.98035" lon="6.30482">
        <ele>680</ele>
        <time>2020-09-15T19:18:56Z</time>
      </trkpt>
      <trkpt lat="43.98045" lon="6.30455">
        <ele>677</ele>
        <time>2020-09-15T19:19:00Z</time>
      </trkpt>
      <trkpt lat="43.98053" lon="6.3044">
        <ele>676</ele>
        <time>2020-09-15T19:19:02Z</time>
      </trkpt>
      <trkpt lat="43.98065" lon="6.30423">
        <ele>673</ele>
        <time>2020-09-15T19:19:05Z</time>
      </trkpt>
      <trkpt lat="43.98095" lon="6.3039">
        <ele>673</ele>
        <time>2020-09-15T19:19:12Z</time>
      </trkpt>
      <trkpt lat="43.98122" lon="6.30367">
        <ele>673</ele>
        <time>2020-09-15T19:19:17Z</time>
      </trkpt>
      <trkpt lat="43.98141" lon="6.30355">
        <ele>673</ele>
        <time>2020-09-15T19:19:21Z</time>
      </trkpt>
      <trkpt lat="43.9816" lon="6.30347">
        <ele>672</ele>
        <time>2020-09-15T19:19:25Z</time>
      </trkpt>
      <trkpt lat="43.98216" lon="6.30339">
        <ele>670</ele>
        <time>2020-09-15T19:19:35Z</time>
      </trkpt>
      <trkpt lat="43.98241" lon="6.30332">
        <ele>669</ele>
        <time>2020-09-15T19:19:39Z</time>
      </trkpt>
      <trkpt lat="43.98357" lon="6.30273">
        <ele>669</ele>
        <time>2020-09-15T19:20:01Z</time>
      </trkpt>
      <trkpt lat="43.98385" lon="6.30256">
        <ele>669</ele>
        <time>2020-09-15T19:20:07Z</time>
      </trkpt>
      <trkpt lat="43.98411" lon="6.30232">
        <ele>668</ele>
        <time>2020-09-15T19:20:12Z</time>
      </trkpt>
      <trkpt lat="43.98432" lon="6.30205">
        <ele>668</ele>
        <time>2020-09-15T19:20:17Z</time>
      </trkpt>
      <trkpt lat="43.98455" lon="6.30162">
        <ele>668</ele>
        <time>2020-09-15T19:20:24Z</time>
      </trkpt>
      <trkpt lat="43.98467" lon="6.3013">
        <ele>669</ele>
        <time>2020-09-15T19:20:29Z</time>
      </trkpt>
      <trkpt lat="43.98506" lon="6.29984">
        <ele>668</ele>
        <time>2020-09-15T19:20:49Z</time>
      </trkpt>
      <trkpt lat="43.98519" lon="6.29955">
        <ele>666</ele>
        <time>2020-09-15T19:20:53Z</time>
      </trkpt>
      <trkpt lat="43.98527" lon="6.29943">
        <ele>666</ele>
        <time>2020-09-15T19:20:55Z</time>
      </trkpt>
      <trkpt lat="43.98551" lon="6.29913">
        <ele>663</ele>
        <time>2020-09-15T19:21:01Z</time>
      </trkpt>
      <trkpt lat="43.98581" lon="6.29893">
        <ele>663</ele>
        <time>2020-09-15T19:21:07Z</time>
      </trkpt>
      <trkpt lat="43.98606" lon="6.29883">
        <ele>664</ele>
        <time>2020-09-15T19:21:11Z</time>
      </trkpt>
      <trkpt lat="43.98711" lon="6.29856">
        <ele>671</ele>
        <time>2020-09-15T19:21:30Z</time>
      </trkpt>
      <trkpt lat="43.98743" lon="6.29839">
        <ele>671</ele>
        <time>2020-09-15T19:21:37Z</time>
      </trkpt>
      <trkpt lat="43.98751" lon="6.29832">
        <ele>670</ele>
        <time>2020-09-15T19:21:38Z</time>
      </trkpt>
      <trkpt lat="43.9877" lon="6.29809">
        <ele>673</ele>
        <time>2020-09-15T19:21:43Z</time>
      </trkpt>
      <trkpt lat="43.98786" lon="6.29776">
        <ele>672</ele>
        <time>2020-09-15T19:21:48Z</time>
      </trkpt>
      <trkpt lat="43.98816" lon="6.29689">
        <ele>666</ele>
        <time>2020-09-15T19:22:00Z</time>
      </trkpt>
      <trkpt lat="43.98828" lon="6.29667">
        <ele>664</ele>
        <time>2020-09-15T19:22:04Z</time>
      </trkpt>
      <trkpt lat="43.98843" lon="6.29654">
        <ele>664</ele>
        <time>2020-09-15T19:22:07Z</time>
      </trkpt>
      <trkpt lat="43.98852" lon="6.29649">
        <ele>664</ele>
        <time>2020-09-15T19:22:09Z</time>
      </trkpt>
      <trkpt lat="43.9887" lon="6.29645">
        <ele>665</ele>
        <time>2020-09-15T19:22:12Z</time>
      </trkpt>
      <trkpt lat="43.98886" lon="6.29648">
        <ele>666</ele>
        <time>2020-09-15T19:22:15Z</time>
      </trkpt>
      <trkpt lat="43.99039" lon="6.29707">
        <ele>668</ele>
        <time>2020-09-15T19:22:43Z</time>
      </trkpt>
      <trkpt lat="43.99059" lon="6.29709">
        <ele>667</ele>
        <time>2020-09-15T19:22:46Z</time>
      </trkpt>
      <trkpt lat="43.99078" lon="6.29703">
        <ele>664</ele>
        <time>2020-09-15T19:22:50Z</time>
      </trkpt>
      <trkpt lat="43.99108" lon="6.29684">
        <ele>664</ele>
        <time>2020-09-15T19:22:56Z</time>
      </trkpt>
      <trkpt lat="43.99145" lon="6.29656">
        <ele>663</ele>
        <time>2020-09-15T19:23:03Z</time>
      </trkpt>
      <trkpt lat="43.99195" lon="6.29598">
        <ele>664</ele>
        <time>2020-09-15T19:23:15Z</time>
      </trkpt>
      <trkpt lat="43.99211" lon="6.29574">
        <ele>666</ele>
        <time>2020-09-15T19:23:19Z</time>
      </trkpt>
      <trkpt lat="43.9922" lon="6.29554">
        <ele>667</ele>
        <time>2020-09-15T19:23:22Z</time>
      </trkpt>
      <trkpt lat="43.99229" lon="6.29529">
        <ele>667</ele>
        <time>2020-09-15T19:23:26Z</time>
      </trkpt>
      <trkpt lat="43.99255" lon="6.29434">
        <ele>661</ele>
        <time>2020-09-15T19:23:39Z</time>
      </trkpt>
      <trkpt lat="43.99261" lon="6.29394">
        <ele>661</ele>
        <time>2020-09-15T19:23:44Z</time>
      </trkpt>
      <trkpt lat="43.99271" lon="6.29358">
        <ele>661</ele>
        <time>2020-09-15T19:23:49Z</time>
      </trkpt>
      <trkpt lat="43.99277" lon="6.29343">
        <ele>661</ele>
        <time>2020-09-15T19:23:51Z</time>
      </trkpt>
      <trkpt lat="43.99283" lon="6.29336">
        <ele>660</ele>
        <time>2020-09-15T19:23:52Z</time>
      </trkpt>
      <trkpt lat="43.99294" lon="6.29329">
        <ele>661</ele>
        <time>2020-09-15T19:23:55Z</time>
      </trkpt>
      <trkpt lat="43.993" lon="6.29327">
        <ele>662</ele>
        <time>2020-09-15T19:23:56Z</time>
      </trkpt>
      <trkpt lat="43.99322" lon="6.29328">
        <ele>663</ele>
        <time>2020-09-15T19:24:00Z</time>
      </trkpt>
      <trkpt lat="43.99358" lon="6.29323">
        <ele>664</ele>
        <time>2020-09-15T19:24:06Z</time>
      </trkpt>
      <trkpt lat="43.99372" lon="6.29318">
        <ele>664</ele>
        <time>2020-09-15T19:24:09Z</time>
      </trkpt>
      <trkpt lat="43.99444" lon="6.29301">
        <ele>664</ele>
        <time>2020-09-15T19:24:22Z</time>
      </trkpt>
      <trkpt lat="43.99484" lon="6.2929">
        <ele>663</ele>
        <time>2020-09-15T19:24:29Z</time>
      </trkpt>
      <trkpt lat="43.99509" lon="6.29279">
        <ele>662</ele>
        <time>2020-09-15T19:24:34Z</time>
      </trkpt>
      <trkpt lat="43.9965" lon="6.29178">
        <ele>652</ele>
        <time>2020-09-15T19:25:02Z</time>
      </trkpt>
      <trkpt lat="43.99667" lon="6.29168">
        <ele>649</ele>
        <time>2020-09-15T19:25:05Z</time>
      </trkpt>
      <trkpt lat="43.99691" lon="6.29158">
        <ele>652</ele>
        <time>2020-09-15T19:25:10Z</time>
      </trkpt>
      <trkpt lat="43.99713" lon="6.29154">
        <ele>653</ele>
        <time>2020-09-15T19:25:13Z</time>
      </trkpt>
      <trkpt lat="43.99881" lon="6.29146">
        <ele>659</ele>
        <time>2020-09-15T19:25:43Z</time>
      </trkpt>
      <trkpt lat="43.99905" lon="6.29141">
        <ele>660</ele>
        <time>2020-09-15T19:25:48Z</time>
      </trkpt>
      <trkpt lat="43.99931" lon="6.29128">
        <ele>662</ele>
        <time>2020-09-15T19:25:53Z</time>
      </trkpt>
      <trkpt lat="43.99953" lon="6.29109">
        <ele>663</ele>
        <time>2020-09-15T19:25:57Z</time>
      </trkpt>
      <trkpt lat="43.9997" lon="6.2909">
        <ele>662</ele>
        <time>2020-09-15T19:26:01Z</time>
      </trkpt>
      <trkpt lat="43.99983" lon="6.29068">
        <ele>661</ele>
        <time>2020-09-15T19:26:05Z</time>
      </trkpt>
      <trkpt lat="43.99998" lon="6.29034">
        <ele>658</ele>
        <time>2020-09-15T19:26:10Z</time>
      </trkpt>
      <trkpt lat="44.00018" lon="6.28978">
        <ele>658</ele>
        <time>2020-09-15T19:26:18Z</time>
      </trkpt>
      <trkpt lat="44.0003" lon="6.28935">
        <ele>657</ele>
        <time>2020-09-15T19:26:24Z</time>
      </trkpt>
      <trkpt lat="44.00039" lon="6.28891">
        <ele>655</ele>
        <time>2020-09-15T19:26:30Z</time>
      </trkpt>
      <trkpt lat="44.00049" lon="6.28852">
        <ele>652</ele>
        <time>2020-09-15T19:26:35Z</time>
      </trkpt>
      <trkpt lat="44.00062" lon="6.28817">
        <ele>649</ele>
        <time>2020-09-15T19:26:40Z</time>
      </trkpt>
      <trkpt lat="44.00075" lon="6.28791">
        <ele>647</ele>
        <time>2020-09-15T19:26:44Z</time>
      </trkpt>
      <trkpt lat="44.00093" lon="6.28767">
        <ele>644</ele>
        <time>2020-09-15T19:26:48Z</time>
      </trkpt>
      <trkpt lat="44.00112" lon="6.28746">
        <ele>643</ele>
        <time>2020-09-15T19:26:53Z</time>
      </trkpt>
      <trkpt lat="44.00131" lon="6.28731">
        <ele>645</ele>
        <time>2020-09-15T19:26:57Z</time>
      </trkpt>
      <trkpt lat="44.00252" lon="6.2865">
        <ele>640</ele>
        <time>2020-09-15T19:27:21Z</time>
      </trkpt>
      <trkpt lat="44.00291" lon="6.28627">
        <ele>640</ele>
        <time>2020-09-15T19:27:28Z</time>
      </trkpt>
      <trkpt lat="44.00309" lon="6.28615">
        <ele>639</ele>
        <time>2020-09-15T19:27:32Z</time>
      </trkpt>
      <trkpt lat="44.00346" lon="6.28587">
        <ele>640</ele>
        <time>2020-09-15T19:27:39Z</time>
      </trkpt>
      <trkpt lat="44.00359" lon="6.28574">
        <ele>641</ele>
        <time>2020-09-15T19:27:42Z</time>
      </trkpt>
      <trkpt lat="44.00412" lon="6.28509">
        <ele>641</ele>
        <time>2020-09-15T19:27:55Z</time>
      </trkpt>
      <trkpt lat="44.00439" lon="6.28481">
        <ele>643</ele>
        <time>2020-09-15T19:28:01Z</time>
      </trkpt>
      <trkpt lat="44.00455" lon="6.2847">
        <ele>643</ele>
        <time>2020-09-15T19:28:04Z</time>
      </trkpt>
      <trkpt lat="44.0056" lon="6.28407">
        <ele>645</ele>
        <time>2020-09-15T19:28:24Z</time>
      </trkpt>
      <trkpt lat="44.00585" lon="6.28384">
        <ele>645</ele>
        <time>2020-09-15T19:28:29Z</time>
      </trkpt>
      <trkpt lat="44.006" lon="6.28358">
        <ele>645</ele>
        <time>2020-09-15T19:28:34Z</time>
      </trkpt>
      <trkpt lat="44.00711" lon="6.28101">
        <ele>646</ele>
        <time>2020-09-15T19:29:12Z</time>
      </trkpt>
      <trkpt lat="44.00719" lon="6.28074">
        <ele>645</ele>
        <time>2020-09-15T19:29:16Z</time>
      </trkpt>
      <trkpt lat="44.00726" lon="6.28043">
        <ele>644</ele>
        <time>2020-09-15T19:29:20Z</time>
      </trkpt>
      <trkpt lat="44.00739" lon="6.27941">
        <ele>638</ele>
        <time>2020-09-15T19:29:33Z</time>
      </trkpt>
      <trkpt lat="44.00748" lon="6.27905">
        <ele>636</ele>
        <time>2020-09-15T19:29:38Z</time>
      </trkpt>
      <trkpt lat="44.00758" lon="6.27878">
        <ele>636</ele>
        <time>2020-09-15T19:29:42Z</time>
      </trkpt>
      <trkpt lat="44.00811" lon="6.27788">
        <ele>639</ele>
        <time>2020-09-15T19:29:57Z</time>
      </trkpt>
      <trkpt lat="44.00827" lon="6.27755">
        <ele>636</ele>
        <time>2020-09-15T19:30:02Z</time>
      </trkpt>
      <trkpt lat="44.00833" lon="6.27735">
        <ele>635</ele>
        <time>2020-09-15T19:30:05Z</time>
      </trkpt>
      <trkpt lat="44.0086" lon="6.2764">
        <ele>644</ele>
        <time>2020-09-15T19:30:18Z</time>
      </trkpt>
      <trkpt lat="44.00873" lon="6.27601">
        <ele>646</ele>
        <time>2020-09-15T19:30:23Z</time>
      </trkpt>
      <trkpt lat="44.00907" lon="6.27513">
        <ele>648</ele>
        <time>2020-09-15T19:30:36Z</time>
      </trkpt>
      <trkpt lat="44.00916" lon="6.27477">
        <ele>644</ele>
        <time>2020-09-15T19:30:41Z</time>
      </trkpt>
      <trkpt lat="44.00919" lon="6.27444">
        <ele>642</ele>
        <time>2020-09-15T19:30:45Z</time>
      </trkpt>
      <trkpt lat="44.00926" lon="6.27226">
        <ele>631</ele>
        <time>2020-09-15T19:31:13Z</time>
      </trkpt>
      <trkpt lat="44.00926" lon="6.2722">
        <ele>631</ele>
        <time>2020-09-15T19:31:14Z</time>
      </trkpt>
      <trkpt lat="44.00926" lon="6.27219">
        <ele>631</ele>
        <time>2020-09-15T19:31:14Z</time>
      </trkpt>
      <trkpt lat="44.00927" lon="6.27207">
        <ele>631</ele>
        <time>2020-09-15T19:31:16Z</time>
      </trkpt>
      <trkpt lat="44.00942" lon="6.27117">
        <ele>633</ele>
        <time>2020-09-15T19:31:27Z</time>
      </trkpt>
      <trkpt lat="44.00942" lon="6.27104">
        <ele>633</ele>
        <time>2020-09-15T19:31:29Z</time>
      </trkpt>
      <trkpt lat="44.00941" lon="6.27092">
        <ele>632</ele>
        <time>2020-09-15T19:31:31Z</time>
      </trkpt>
      <trkpt lat="44.00929" lon="6.26999">
        <ele>627</ele>
        <time>2020-09-15T19:31:43Z</time>
      </trkpt>
      <trkpt lat="44.0093" lon="6.26964">
        <ele>627</ele>
        <time>2020-09-15T19:31:47Z</time>
      </trkpt>
      <trkpt lat="44.00938" lon="6.26888">
        <ele>628</ele>
        <time>2020-09-15T19:31:57Z</time>
      </trkpt>
      <trkpt lat="44.00941" lon="6.26835">
        <ele>629</ele>
        <time>2020-09-15T19:32:04Z</time>
      </trkpt>
      <trkpt lat="44.00947" lon="6.26708">
        <ele>625</ele>
        <time>2020-09-15T19:32:20Z</time>
      </trkpt>
      <trkpt lat="44.00951" lon="6.26639">
        <ele>624</ele>
        <time>2020-09-15T19:32:29Z</time>
      </trkpt>
      <trkpt lat="44.00958" lon="6.26527">
        <ele>620</ele>
        <time>2020-09-15T19:32:43Z</time>
      </trkpt>
      <trkpt lat="44.00958" lon="6.26516">
        <ele>620</ele>
        <time>2020-09-15T19:32:45Z</time>
      </trkpt>
      <trkpt lat="44.00962" lon="6.26437">
        <ele>620</ele>
        <time>2020-09-15T19:32:55Z</time>
      </trkpt>
      <trkpt lat="44.00969" lon="6.26339">
        <ele>626</ele>
        <time>2020-09-15T19:33:07Z</time>
      </trkpt>
      <trkpt lat="44.00969" lon="6.26335">
        <ele>626</ele>
        <time>2020-09-15T19:33:08Z</time>
      </trkpt>
      <trkpt lat="44.00977" lon="6.26207">
        <ele>631</ele>
        <time>2020-09-15T19:33:24Z</time>
      </trkpt>
      <trkpt lat="44.00978" lon="6.26184">
        <ele>632</ele>
        <time>2020-09-15T19:33:27Z</time>
      </trkpt>
      <trkpt lat="44.00987" lon="6.26038">
        <ele>630</ele>
        <time>2020-09-15T19:33:46Z</time>
      </trkpt>
      <trkpt lat="44.0099" lon="6.26014">
        <ele>628</ele>
        <time>2020-09-15T19:33:49Z</time>
      </trkpt>
      <trkpt lat="44.01" lon="6.25976">
        <ele>627</ele>
        <time>2020-09-15T19:33:54Z</time>
      </trkpt>
      <trkpt lat="44.01026" lon="6.25885">
        <ele>637</ele>
        <time>2020-09-15T19:34:07Z</time>
      </trkpt>
      <trkpt lat="44.01064" lon="6.25781">
        <ele>638</ele>
        <time>2020-09-15T19:34:22Z</time>
      </trkpt>
      <trkpt lat="44.01069" lon="6.25762">
        <ele>638</ele>
        <time>2020-09-15T19:34:24Z</time>
      </trkpt>
      <trkpt lat="44.01074" lon="6.25726">
        <ele>637</ele>
        <time>2020-09-15T19:34:29Z</time>
      </trkpt>
      <trkpt lat="44.01074" lon="6.25675">
        <ele>637</ele>
        <time>2020-09-15T19:34:36Z</time>
      </trkpt>
      <trkpt lat="44.01073" lon="6.25617">
        <ele>635</ele>
        <time>2020-09-15T19:34:43Z</time>
      </trkpt>
      <trkpt lat="44.01071" lon="6.25497">
        <ele>627</ele>
        <time>2020-09-15T19:34:58Z</time>
      </trkpt>
      <trkpt lat="44.01074" lon="6.2546">
        <ele>626</ele>
        <time>2020-09-15T19:35:03Z</time>
      </trkpt>
      <trkpt lat="44.01077" lon="6.2545">
        <ele>625</ele>
        <time>2020-09-15T19:35:05Z</time>
      </trkpt>
      <trkpt lat="44.01086" lon="6.25432">
        <ele>625</ele>
        <time>2020-09-15T19:35:07Z</time>
      </trkpt>
      <trkpt lat="44.01101" lon="6.25412">
        <ele>628</ele>
        <time>2020-09-15T19:35:11Z</time>
      </trkpt>
      <trkpt lat="44.01121" lon="6.25394">
        <ele>632</ele>
        <time>2020-09-15T19:35:15Z</time>
      </trkpt>
      <trkpt lat="44.01131" lon="6.25387">
        <ele>633</ele>
        <time>2020-09-15T19:35:17Z</time>
      </trkpt>
      <trkpt lat="44.01195" lon="6.25356">
        <ele>645</ele>
        <time>2020-09-15T19:35:29Z</time>
      </trkpt>
      <trkpt lat="44.01204" lon="6.25354">
        <ele>649</ele>
        <time>2020-09-15T19:35:31Z</time>
      </trkpt>
      <trkpt lat="44.0128" lon="6.25342">
        <ele>673</ele>
        <time>2020-09-15T19:35:45Z</time>
      </trkpt>
      <trkpt lat="44.01307" lon="6.25341">
        <ele>673</ele>
        <time>2020-09-15T19:35:49Z</time>
      </trkpt>
      <trkpt lat="44.01364" lon="6.25349">
        <ele>665</ele>
        <time>2020-09-15T19:36:00Z</time>
      </trkpt>
      <trkpt lat="44.01405" lon="6.2536">
        <ele>654</ele>
        <time>2020-09-15T19:36:07Z</time>
      </trkpt>
      <trkpt lat="44.01424" lon="6.25368">
        <ele>650</ele>
        <time>2020-09-15T19:36:11Z</time>
      </trkpt>
      <trkpt lat="44.01481" lon="6.25372">
        <ele>636</ele>
        <time>2020-09-15T19:36:21Z</time>
      </trkpt>
      <trkpt lat="44.01499" lon="6.25369">
        <ele>631</ele>
        <time>2020-09-15T19:36:24Z</time>
      </trkpt>
      <trkpt lat="44.01535" lon="6.25349">
        <ele>619</ele>
        <time>2020-09-15T19:36:31Z</time>
      </trkpt>
      <trkpt lat="44.01622" lon="6.25307">
        <ele>609</ele>
        <time>2020-09-15T19:36:47Z</time>
      </trkpt>
      <trkpt lat="44.01655" lon="6.25284">
        <ele>609</ele>
        <time>2020-09-15T19:36:54Z</time>
      </trkpt>
      <trkpt lat="44.01667" lon="6.2527">
        <ele>608</ele>
        <time>2020-09-15T19:36:57Z</time>
      </trkpt>
      <trkpt lat="44.01678" lon="6.25247">
        <ele>608</ele>
        <time>2020-09-15T19:37:00Z</time>
      </trkpt>
      <trkpt lat="44.01685" lon="6.2521">
        <ele>607</ele>
        <time>2020-09-15T19:37:05Z</time>
      </trkpt>
      <trkpt lat="44.01685" lon="6.25184">
        <ele>606</ele>
        <time>2020-09-15T19:37:08Z</time>
      </trkpt>
      <trkpt lat="44.01677" lon="6.2512">
        <ele>605</ele>
        <time>2020-09-15T19:37:17Z</time>
      </trkpt>
      <trkpt lat="44.01676" lon="6.25096">
        <ele>605</ele>
        <time>2020-09-15T19:37:20Z</time>
      </trkpt>
      <trkpt lat="44.01697" lon="6.24538">
        <ele>609</ele>
        <time>2020-09-15T19:38:31Z</time>
      </trkpt>
      <trkpt lat="44.017" lon="6.24382">
        <ele>609</ele>
        <time>2020-09-15T19:38:51Z</time>
      </trkpt>
      <trkpt lat="44.01699" lon="6.24325">
        <ele>609</ele>
        <time>2020-09-15T19:38:59Z</time>
      </trkpt>
      <trkpt lat="44.0169" lon="6.24244">
        <ele>609</ele>
        <time>2020-09-15T19:39:09Z</time>
      </trkpt>
      <trkpt lat="44.01667" lon="6.24147">
        <ele>611</ele>
        <time>2020-09-15T19:39:22Z</time>
      </trkpt>
      <trkpt lat="44.01662" lon="6.24123">
        <ele>612</ele>
        <time>2020-09-15T19:39:25Z</time>
      </trkpt>
      <trkpt lat="44.01657" lon="6.24085">
        <ele>614</ele>
        <time>2020-09-15T19:39:30Z</time>
      </trkpt>
      <trkpt lat="44.01653" lon="6.23862">
        <ele>606</ele>
        <time>2020-09-15T19:39:59Z</time>
      </trkpt>
      <trkpt lat="44.01652" lon="6.2381">
        <ele>605</ele>
        <time>2020-09-15T19:40:05Z</time>
      </trkpt>
      <trkpt lat="44.01651" lon="6.23773">
        <ele>606</ele>
        <time>2020-09-15T19:40:10Z</time>
      </trkpt>
      <trkpt lat="44.0165" lon="6.23749">
        <ele>607</ele>
        <time>2020-09-15T19:40:13Z</time>
      </trkpt>
      <trkpt lat="44.01644" lon="6.23712">
        <ele>608</ele>
        <time>2020-09-15T19:40:18Z</time>
      </trkpt>
      <trkpt lat="44.01634" lon="6.23668">
        <ele>609</ele>
        <time>2020-09-15T19:40:24Z</time>
      </trkpt>
      <trkpt lat="44.01586" lon="6.23478">
        <ele>616</ele>
        <time>2020-09-15T19:40:50Z</time>
      </trkpt>
      <trkpt lat="44.01576" lon="6.23429">
        <ele>617</ele>
        <time>2020-09-15T19:40:56Z</time>
      </trkpt>
      <trkpt lat="44.0157" lon="6.23392">
        <ele>618</ele>
        <time>2020-09-15T19:41:01Z</time>
      </trkpt>
      <trkpt lat="44.01565" lon="6.23355">
        <ele>618</ele>
        <time>2020-09-15T19:41:06Z</time>
      </trkpt>
      <trkpt lat="44.01556" lon="6.23276">
        <ele>617</ele>
        <time>2020-09-15T19:41:16Z</time>
      </trkpt>
      <trkpt lat="44.01545" lon="6.23155">
        <ele>616</ele>
        <time>2020-09-15T19:41:32Z</time>
      </trkpt>
      <trkpt lat="44.01544" lon="6.23108">
        <ele>614</ele>
        <time>2020-09-15T19:41:38Z</time>
      </trkpt>
      <trkpt lat="44.01545" lon="6.23057">
        <ele>612</ele>
        <time>2020-09-15T19:41:44Z</time>
      </trkpt>
      <trkpt lat="44.01555" lon="6.22926">
        <ele>609</ele>
        <time>2020-09-15T19:42:01Z</time>
      </trkpt>
      <trkpt lat="44.01561" lon="6.22847">
        <ele>607</ele>
        <time>2020-09-15T19:42:11Z</time>
      </trkpt>
      <trkpt lat="44.01563" lon="6.22804">
        <ele>606</ele>
        <time>2020-09-15T19:42:17Z</time>
      </trkpt>
      <trkpt lat="44.01563" lon="6.22799">
        <ele>606</ele>
        <time>2020-09-15T19:42:18Z</time>
      </trkpt>
      <trkpt lat="44.01564" lon="6.22759">
        <ele>604</ele>
        <time>2020-09-15T19:42:23Z</time>
      </trkpt>
      <trkpt lat="44.01561" lon="6.22695">
        <ele>606</ele>
        <time>2020-09-15T19:42:31Z</time>
      </trkpt>
      <trkpt lat="44.01551" lon="6.22637">
        <ele>608</ele>
        <time>2020-09-15T19:42:38Z</time>
      </trkpt>
      <trkpt lat="44.01532" lon="6.22578">
        <ele>609</ele>
        <time>2020-09-15T19:42:47Z</time>
      </trkpt>
      <trkpt lat="44.01506" lon="6.22523">
        <ele>609</ele>
        <time>2020-09-15T19:42:55Z</time>
      </trkpt>
      <trkpt lat="44.01493" lon="6.22498">
        <ele>609</ele>
        <time>2020-09-15T19:42:59Z</time>
      </trkpt>
      <trkpt lat="44.01477" lon="6.22479">
        <ele>608</ele>
        <time>2020-09-15T19:43:03Z</time>
      </trkpt>
      <trkpt lat="44.01425" lon="6.22399">
        <ele>606</ele>
        <time>2020-09-15T19:43:17Z</time>
      </trkpt>
      <trkpt lat="44.01337" lon="6.22269">
        <ele>604</ele>
        <time>2020-09-15T19:43:40Z</time>
      </trkpt>
      <trkpt lat="44.01321" lon="6.22249">
        <ele>603</ele>
        <time>2020-09-15T19:43:43Z</time>
      </trkpt>
      <trkpt lat="44.01224" lon="6.22142">
        <ele>600</ele>
        <time>2020-09-15T19:44:05Z</time>
      </trkpt>
      <trkpt lat="44.01125" lon="6.22007">
        <ele>603</ele>
        <time>2020-09-15T19:44:30Z</time>
      </trkpt>
      <trkpt lat="44.01091" lon="6.21972">
        <ele>602</ele>
        <time>2020-09-15T19:44:38Z</time>
      </trkpt>
      <trkpt lat="44.01003" lon="6.21898">
        <ele>596</ele>
        <time>2020-09-15T19:44:56Z</time>
      </trkpt>
      <trkpt lat="44.00984" lon="6.21875">
        <ele>597</ele>
        <time>2020-09-15T19:45:00Z</time>
      </trkpt>
      <trkpt lat="44.00974" lon="6.21857">
        <ele>599</ele>
        <time>2020-09-15T19:45:03Z</time>
      </trkpt>
      <trkpt lat="44.00958" lon="6.2182">
        <ele>599</ele>
        <time>2020-09-15T19:45:09Z</time>
      </trkpt>
      <trkpt lat="44.00953" lon="6.21804">
        <ele>597</ele>
        <time>2020-09-15T19:45:11Z</time>
      </trkpt>
      <trkpt lat="44.00946" lon="6.21764">
        <ele>595</ele>
        <time>2020-09-15T19:45:16Z</time>
      </trkpt>
      <trkpt lat="44.00944" lon="6.21747">
        <ele>595</ele>
        <time>2020-09-15T19:45:18Z</time>
      </trkpt>
      <trkpt lat="44.00946" lon="6.21711">
        <ele>593</ele>
        <time>2020-09-15T19:45:23Z</time>
      </trkpt>
      <trkpt lat="44.00947" lon="6.21694">
        <ele>592</ele>
        <time>2020-09-15T19:45:25Z</time>
      </trkpt>
      <trkpt lat="44.00955" lon="6.21655">
        <ele>592</ele>
        <time>2020-09-15T19:45:30Z</time>
      </trkpt>
      <trkpt lat="44.00971" lon="6.21609">
        <ele>593</ele>
        <time>2020-09-15T19:45:37Z</time>
      </trkpt>
      <trkpt lat="44.00997" lon="6.21559">
        <ele>595</ele>
        <time>2020-09-15T19:45:45Z</time>
      </trkpt>
      <trkpt lat="44.0101" lon="6.21539">
        <ele>595</ele>
        <time>2020-09-15T19:45:48Z</time>
      </trkpt>
      <trkpt lat="44.01047" lon="6.21492">
        <ele>593</ele>
        <time>2020-09-15T19:45:57Z</time>
      </trkpt>
      <trkpt lat="44.01077" lon="6.21462">
        <ele>593</ele>
        <time>2020-09-15T19:46:04Z</time>
      </trkpt>
      <trkpt lat="44.01096" lon="6.21447">
        <ele>593</ele>
        <time>2020-09-15T19:46:08Z</time>
      </trkpt>
      <trkpt lat="44.01129" lon="6.21424">
        <ele>595</ele>
        <time>2020-09-15T19:46:14Z</time>
      </trkpt>
      <trkpt lat="44.01145" lon="6.21415">
        <ele>597</ele>
        <time>2020-09-15T19:46:17Z</time>
      </trkpt>
      <trkpt lat="44.01149" lon="6.21414">
        <ele>597</ele>
        <time>2020-09-15T19:46:18Z</time>
      </trkpt>
      <trkpt lat="44.01152" lon="6.21412">
        <ele>597</ele>
        <time>2020-09-15T19:46:19Z</time>
      </trkpt>
      <trkpt lat="44.01191" lon="6.21396">
        <ele>600</ele>
        <time>2020-09-15T19:46:26Z</time>
      </trkpt>
      <trkpt lat="44.0121" lon="6.21389">
        <ele>602</ele>
        <time>2020-09-15T19:46:29Z</time>
      </trkpt>
      <trkpt lat="44.01236" lon="6.21383">
        <ele>604</ele>
        <time>2020-09-15T19:46:34Z</time>
      </trkpt>
      <trkpt lat="44.01294" lon="6.21373">
        <ele>608</ele>
        <time>2020-09-15T19:46:45Z</time>
      </trkpt>
      <trkpt lat="44.01338" lon="6.21367">
        <ele>611</ele>
        <time>2020-09-15T19:46:52Z</time>
      </trkpt>
      <trkpt lat="44.01382" lon="6.21364">
        <ele>615</ele>
        <time>2020-09-15T19:47:00Z</time>
      </trkpt>
      <trkpt lat="44.01435" lon="6.21353">
        <ele>617</ele>
        <time>2020-09-15T19:47:10Z</time>
      </trkpt>
      <trkpt lat="44.01511" lon="6.21324">
        <ele>619</ele>
        <time>2020-09-15T19:47:24Z</time>
      </trkpt>
      <trkpt lat="44.01544" lon="6.2131">
        <ele>622</ele>
        <time>2020-09-15T19:47:30Z</time>
      </trkpt>
      <trkpt lat="44.01572" lon="6.21295">
        <ele>624</ele>
        <time>2020-09-15T19:47:35Z</time>
      </trkpt>
      <trkpt lat="44.01612" lon="6.21269">
        <ele>625</ele>
        <time>2020-09-15T19:47:43Z</time>
      </trkpt>
      <trkpt lat="44.01734" lon="6.21178">
        <ele>632</ele>
        <time>2020-09-15T19:48:08Z</time>
      </trkpt>
      <trkpt lat="44.01783" lon="6.21124">
        <ele>637</ele>
        <time>2020-09-15T19:48:19Z</time>
      </trkpt>
      <trkpt lat="44.01811" lon="6.21086">
        <ele>640</ele>
        <time>2020-09-15T19:48:26Z</time>
      </trkpt>
      <trkpt lat="44.01839" lon="6.21049">
        <ele>643</ele>
        <time>2020-09-15T19:48:33Z</time>
      </trkpt>
      <trkpt lat="44.01886" lon="6.20988">
        <ele>645</ele>
        <time>2020-09-15T19:48:44Z</time>
      </trkpt>
      <trkpt lat="44.0191" lon="6.20961">
        <ele>645</ele>
        <time>2020-09-15T19:48:50Z</time>
      </trkpt>
      <trkpt lat="44.01912" lon="6.20958">
        <ele>645</ele>
        <time>2020-09-15T19:48:50Z</time>
      </trkpt>
      <trkpt lat="44.01941" lon="6.20931">
        <ele>645</ele>
        <time>2020-09-15T19:48:56Z</time>
      </trkpt>
      <trkpt lat="44.01957" lon="6.20922">
        <ele>645</ele>
        <time>2020-09-15T19:48:59Z</time>
      </trkpt>
      <trkpt lat="44.01983" lon="6.20911">
        <ele>646</ele>
        <time>2020-09-15T19:49:04Z</time>
      </trkpt>
      <trkpt lat="44.0201" lon="6.20907">
        <ele>648</ele>
        <time>2020-09-15T19:49:09Z</time>
      </trkpt>
      <trkpt lat="44.02043" lon="6.20915">
        <ele>650</ele>
        <time>2020-09-15T19:49:15Z</time>
      </trkpt>
      <trkpt lat="44.02071" lon="6.20932">
        <ele>653</ele>
        <time>2020-09-15T19:49:21Z</time>
      </trkpt>
      <trkpt lat="44.0209" lon="6.20949">
        <ele>656</ele>
        <time>2020-09-15T19:49:25Z</time>
      </trkpt>
      <trkpt lat="44.02154" lon="6.21038">
        <ele>667</ele>
        <time>2020-09-15T19:49:41Z</time>
      </trkpt>
      <trkpt lat="44.02186" lon="6.21069">
        <ele>670</ele>
        <time>2020-09-15T19:49:48Z</time>
      </trkpt>
      <trkpt lat="44.02189" lon="6.2107">
        <ele>670</ele>
        <time>2020-09-15T19:49:48Z</time>
      </trkpt>
      <trkpt lat="44.02215" lon="6.21083">
        <ele>670</ele>
        <time>2020-09-15T19:49:53Z</time>
      </trkpt>
      <trkpt lat="44.0224" lon="6.21086">
        <ele>668</ele>
        <time>2020-09-15T19:49:58Z</time>
      </trkpt>
      <trkpt lat="44.0226" lon="6.21084">
        <ele>668</ele>
        <time>2020-09-15T19:50:01Z</time>
      </trkpt>
      <trkpt lat="44.02281" lon="6.21076">
        <ele>670</ele>
        <time>2020-09-15T19:50:05Z</time>
      </trkpt>
      <trkpt lat="44.02307" lon="6.21061">
        <ele>672</ele>
        <time>2020-09-15T19:50:10Z</time>
      </trkpt>
      <trkpt lat="44.02331" lon="6.21038">
        <ele>675</ele>
        <time>2020-09-15T19:50:15Z</time>
      </trkpt>
      <trkpt lat="44.02357" lon="6.21004">
        <ele>680</ele>
        <time>2020-09-15T19:50:21Z</time>
      </trkpt>
      <trkpt lat="44.02424" lon="6.20894">
        <ele>688</ele>
        <time>2020-09-15T19:50:40Z</time>
      </trkpt>
      <trkpt lat="44.02448" lon="6.2086">
        <ele>690</ele>
        <time>2020-09-15T19:50:46Z</time>
      </trkpt>
      <trkpt lat="44.02476" lon="6.20828">
        <ele>692</ele>
        <time>2020-09-15T19:50:52Z</time>
      </trkpt>
      <trkpt lat="44.0249" lon="6.20816">
        <ele>693</ele>
        <time>2020-09-15T19:50:55Z</time>
      </trkpt>
      <trkpt lat="44.02511" lon="6.208">
        <ele>693</ele>
        <time>2020-09-15T19:51:00Z</time>
      </trkpt>
      <trkpt lat="44.02628" lon="6.20715">
        <ele>697</ele>
        <time>2020-09-15T19:51:23Z</time>
      </trkpt>
      <trkpt lat="44.02659" lon="6.20693">
        <ele>701</ele>
        <time>2020-09-15T19:51:29Z</time>
      </trkpt>
      <trkpt lat="44.02701" lon="6.2067">
        <ele>704</ele>
        <time>2020-09-15T19:51:37Z</time>
      </trkpt>
      <trkpt lat="44.02743" lon="6.20655">
        <ele>709</ele>
        <time>2020-09-15T19:51:45Z</time>
      </trkpt>
      <trkpt lat="44.02813" lon="6.20637">
        <ele>715</ele>
        <time>2020-09-15T19:51:58Z</time>
      </trkpt>
      <trkpt lat="44.0286" lon="6.20612">
        <ele>718</ele>
        <time>2020-09-15T19:52:07Z</time>
      </trkpt>
      <trkpt lat="44.02935" lon="6.2055">
        <ele>721</ele>
        <time>2020-09-15T19:52:22Z</time>
      </trkpt>
      <trkpt lat="44.02964" lon="6.20533">
        <ele>723</ele>
        <time>2020-09-15T19:52:28Z</time>
      </trkpt>
      <trkpt lat="44.02993" lon="6.20523">
        <ele>725</ele>
        <time>2020-09-15T19:52:33Z</time>
      </trkpt>
      <trkpt lat="44.03024" lon="6.20518">
        <ele>728</ele>
        <time>2020-09-15T19:52:39Z</time>
      </trkpt>
      <trkpt lat="44.0304" lon="6.20518">
        <ele>729</ele>
        <time>2020-09-15T19:52:42Z</time>
      </trkpt>
      <trkpt lat="44.03049" lon="6.20518">
        <ele>730</ele>
        <time>2020-09-15T19:52:43Z</time>
      </trkpt>
      <trkpt lat="44.03074" lon="6.20522">
        <ele>732</ele>
        <time>2020-09-15T19:52:48Z</time>
      </trkpt>
      <trkpt lat="44.03121" lon="6.20534">
        <ele>738</ele>
        <time>2020-09-15T19:52:56Z</time>
      </trkpt>
      <trkpt lat="44.03206" lon="6.20572">
        <ele>743</ele>
        <time>2020-09-15T19:53:12Z</time>
      </trkpt>
      <trkpt lat="44.03275" lon="6.20603">
        <ele>740</ele>
        <time>2020-09-15T19:53:25Z</time>
      </trkpt>
      <trkpt lat="44.03288" lon="6.20608">
        <ele>739</ele>
        <time>2020-09-15T19:53:27Z</time>
      </trkpt>
      <trkpt lat="44.03302" lon="6.20612">
        <ele>738</ele>
        <time>2020-09-15T19:53:30Z</time>
      </trkpt>
      <trkpt lat="44.03352" lon="6.20623">
        <ele>736</ele>
        <time>2020-09-15T19:53:39Z</time>
      </trkpt>
      <trkpt lat="44.03403" lon="6.2063">
        <ele>735</ele>
        <time>2020-09-15T19:53:48Z</time>
      </trkpt>
      <trkpt lat="44.03452" lon="6.20631">
        <ele>732</ele>
        <time>2020-09-15T19:53:57Z</time>
      </trkpt>
      <trkpt lat="44.03523" lon="6.20637">
        <ele>729</ele>
        <time>2020-09-15T19:54:09Z</time>
      </trkpt>
      <trkpt lat="44.03583" lon="6.20646">
        <ele>728</ele>
        <time>2020-09-15T19:54:20Z</time>
      </trkpt>
      <trkpt lat="44.03607" lon="6.20653">
        <ele>728</ele>
        <time>2020-09-15T19:54:24Z</time>
      </trkpt>
      <trkpt lat="44.03629" lon="6.20665">
        <ele>729</ele>
        <time>2020-09-15T19:54:29Z</time>
      </trkpt>
      <trkpt lat="44.03655" lon="6.2069">
        <ele>729</ele>
        <time>2020-09-15T19:54:34Z</time>
      </trkpt>
      <trkpt lat="44.03662" lon="6.207">
        <ele>729</ele>
        <time>2020-09-15T19:54:36Z</time>
      </trkpt>
      <trkpt lat="44.03673" lon="6.20715">
        <ele>728</ele>
        <time>2020-09-15T19:54:39Z</time>
      </trkpt>
      <trkpt lat="44.03728" lon="6.20818">
        <ele>724</ele>
        <time>2020-09-15T19:54:55Z</time>
      </trkpt>
      <trkpt lat="44.03746" lon="6.20848">
        <ele>724</ele>
        <time>2020-09-15T19:55:00Z</time>
      </trkpt>
      <trkpt lat="44.03761" lon="6.20868">
        <ele>724</ele>
        <time>2020-09-15T19:55:04Z</time>
      </trkpt>
      <trkpt lat="44.03774" lon="6.20882">
        <ele>724</ele>
        <time>2020-09-15T19:55:07Z</time>
      </trkpt>
      <trkpt lat="44.03796" lon="6.20901">
        <ele>723</ele>
        <time>2020-09-15T19:55:11Z</time>
      </trkpt>
      <trkpt lat="44.03829" lon="6.20918">
        <ele>721</ele>
        <time>2020-09-15T19:55:18Z</time>
      </trkpt>
      <trkpt lat="44.03855" lon="6.20924">
        <ele>721</ele>
        <time>2020-09-15T19:55:22Z</time>
      </trkpt>
      <trkpt lat="44.03883" lon="6.20924">
        <ele>722</ele>
        <time>2020-09-15T19:55:27Z</time>
      </trkpt>
      <trkpt lat="44.0391" lon="6.20918">
        <ele>722</ele>
        <time>2020-09-15T19:55:32Z</time>
      </trkpt>
      <trkpt lat="44.03923" lon="6.20913">
        <ele>722</ele>
        <time>2020-09-15T19:55:35Z</time>
      </trkpt>
      <trkpt lat="44.03958" lon="6.2089">
        <ele>721</ele>
        <time>2020-09-15T19:55:42Z</time>
      </trkpt>
      <trkpt lat="44.03977" lon="6.2087">
        <ele>721</ele>
        <time>2020-09-15T19:55:46Z</time>
      </trkpt>
      <trkpt lat="44.03999" lon="6.20839">
        <ele>719</ele>
        <time>2020-09-15T19:55:51Z</time>
      </trkpt>
      <trkpt lat="44.04016" lon="6.20806">
        <ele>721</ele>
        <time>2020-09-15T19:55:57Z</time>
      </trkpt>
      <trkpt lat="44.04027" lon="6.20774">
        <ele>723</ele>
        <time>2020-09-15T19:56:01Z</time>
      </trkpt>
      <trkpt lat="44.04032" lon="6.20754">
        <ele>724</ele>
        <time>2020-09-15T19:56:04Z</time>
      </trkpt>
      <trkpt lat="44.04039" lon="6.20705">
        <ele>723</ele>
        <time>2020-09-15T19:56:10Z</time>
      </trkpt>
      <trkpt lat="44.04047" lon="6.20614">
        <ele>719</ele>
        <time>2020-09-15T19:56:22Z</time>
      </trkpt>
      <trkpt lat="44.04054" lon="6.20578">
        <ele>718</ele>
        <time>2020-09-15T19:56:27Z</time>
      </trkpt>
      <trkpt lat="44.04065" lon="6.20544">
        <ele>718</ele>
        <time>2020-09-15T19:56:31Z</time>
      </trkpt>
      <trkpt lat="44.04081" lon="6.20517">
        <ele>719</ele>
        <time>2020-09-15T19:56:36Z</time>
      </trkpt>
      <trkpt lat="44.04097" lon="6.20499">
        <ele>719</ele>
        <time>2020-09-15T19:56:40Z</time>
      </trkpt>
      <trkpt lat="44.04106" lon="6.20491">
        <ele>720</ele>
        <time>2020-09-15T19:56:41Z</time>
      </trkpt>
      <trkpt lat="44.04125" lon="6.2048">
        <ele>720</ele>
        <time>2020-09-15T19:56:45Z</time>
      </trkpt>
      <trkpt lat="44.04151" lon="6.20471">
        <ele>721</ele>
        <time>2020-09-15T19:56:50Z</time>
      </trkpt>
      <trkpt lat="44.04181" lon="6.20463">
        <ele>721</ele>
        <time>2020-09-15T19:56:55Z</time>
      </trkpt>
      <trkpt lat="44.04191" lon="6.2046">
        <ele>721</ele>
        <time>2020-09-15T19:56:57Z</time>
      </trkpt>
      <trkpt lat="44.04202" lon="6.20456">
        <ele>721</ele>
        <time>2020-09-15T19:56:59Z</time>
      </trkpt>
      <trkpt lat="44.04226" lon="6.20443">
        <ele>720</ele>
        <time>2020-09-15T19:57:04Z</time>
      </trkpt>
      <trkpt lat="44.04248" lon="6.20425">
        <ele>717</ele>
        <time>2020-09-15T19:57:08Z</time>
      </trkpt>
      <trkpt lat="44.04259" lon="6.20413">
        <ele>717</ele>
        <time>2020-09-15T19:57:11Z</time>
      </trkpt>
      <trkpt lat="44.04273" lon="6.20396">
        <ele>718</ele>
        <time>2020-09-15T19:57:14Z</time>
      </trkpt>
      <trkpt lat="44.04304" lon="6.20355">
        <ele>718</ele>
        <time>2020-09-15T19:57:22Z</time>
      </trkpt>
      <trkpt lat="44.04358" lon="6.20292">
        <ele>715</ele>
        <time>2020-09-15T19:57:34Z</time>
      </trkpt>
      <trkpt lat="44.04557" lon="6.20073">
        <ele>715</ele>
        <time>2020-09-15T19:58:19Z</time>
      </trkpt>
      <trkpt lat="44.0457" lon="6.20056">
        <ele>714</ele>
        <time>2020-09-15T19:58:23Z</time>
      </trkpt>
      <trkpt lat="44.04583" lon="6.20038">
        <ele>714</ele>
        <time>2020-09-15T19:58:26Z</time>
      </trkpt>
      <trkpt lat="44.04639" lon="6.19964">
        <ele>710</ele>
        <time>2020-09-15T19:58:40Z</time>
      </trkpt>
      <trkpt lat="44.04657" lon="6.19945">
        <ele>710</ele>
        <time>2020-09-15T19:58:44Z</time>
      </trkpt>
      <trkpt lat="44.04672" lon="6.19933">
        <ele>711</ele>
        <time>2020-09-15T19:58:47Z</time>
      </trkpt>
      <trkpt lat="44.04676" lon="6.19931">
        <ele>711</ele>
        <time>2020-09-15T19:58:47Z</time>
      </trkpt>
      <trkpt lat="44.04683" lon="6.19928">
        <ele>710</ele>
        <time>2020-09-15T19:58:49Z</time>
      </trkpt>
      <trkpt lat="44.04688" lon="6.19927">
        <ele>710</ele>
        <time>2020-09-15T19:58:50Z</time>
      </trkpt>
      <trkpt lat="44.04697" lon="6.19924">
        <ele>710</ele>
        <time>2020-09-15T19:58:51Z</time>
      </trkpt>
      <trkpt lat="44.04711" lon="6.19923">
        <ele>711</ele>
        <time>2020-09-15T19:58:54Z</time>
      </trkpt>
      <trkpt lat="44.0472" lon="6.19924">
        <ele>711</ele>
        <time>2020-09-15T19:58:55Z</time>
      </trkpt>
      <trkpt lat="44.04729" lon="6.19928">
        <ele>711</ele>
        <time>2020-09-15T19:58:57Z</time>
      </trkpt>
      <trkpt lat="44.04754" lon="6.19941">
        <ele>712</ele>
        <time>2020-09-15T19:59:02Z</time>
      </trkpt>
      <trkpt lat="44.04764" lon="6.19949">
        <ele>712</ele>
        <time>2020-09-15T19:59:04Z</time>
      </trkpt>
      <trkpt lat="44.04777" lon="6.19963">
        <ele>713</ele>
        <time>2020-09-15T19:59:07Z</time>
      </trkpt>
      <trkpt lat="44.04789" lon="6.19983">
        <ele>713</ele>
        <time>2020-09-15T19:59:10Z</time>
      </trkpt>
      <trkpt lat="44.04798" lon="6.20009">
        <ele>713</ele>
        <time>2020-09-15T19:59:14Z</time>
      </trkpt>
      <trkpt lat="44.04804" lon="6.20033">
        <ele>712</ele>
        <time>2020-09-15T19:59:17Z</time>
      </trkpt>
      <trkpt lat="44.04806" lon="6.2006">
        <ele>712</ele>
        <time>2020-09-15T19:59:21Z</time>
      </trkpt>
      <trkpt lat="44.04806" lon="6.20073">
        <ele>712</ele>
        <time>2020-09-15T19:59:22Z</time>
      </trkpt>
      <trkpt lat="44.04803" lon="6.20096">
        <ele>711</ele>
        <time>2020-09-15T19:59:25Z</time>
      </trkpt>
      <trkpt lat="44.04796" lon="6.20122">
        <ele>710</ele>
        <time>2020-09-15T19:59:29Z</time>
      </trkpt>
      <trkpt lat="44.04763" lon="6.20195">
        <ele>714</ele>
        <time>2020-09-15T19:59:40Z</time>
      </trkpt>
      <trkpt lat="44.0476" lon="6.20205">
        <ele>715</ele>
        <time>2020-09-15T19:59:41Z</time>
      </trkpt>
      <trkpt lat="44.04755" lon="6.20232">
        <ele>717</ele>
        <time>2020-09-15T19:59:45Z</time>
      </trkpt>
      <trkpt lat="44.04755" lon="6.20258">
        <ele>717</ele>
        <time>2020-09-15T19:59:48Z</time>
      </trkpt>
      <trkpt lat="44.04756" lon="6.2027">
        <ele>716</ele>
        <time>2020-09-15T19:59:50Z</time>
      </trkpt>
      <trkpt lat="44.0476" lon="6.20282">
        <ele>715</ele>
        <time>2020-09-15T19:59:51Z</time>
      </trkpt>
      <trkpt lat="44.04764" lon="6.20295">
        <ele>713</ele>
        <time>2020-09-15T19:59:53Z</time>
      </trkpt>
      <trkpt lat="44.04771" lon="6.20309">
        <ele>711</ele>
        <time>2020-09-15T19:59:55Z</time>
      </trkpt>
      <trkpt lat="44.04774" lon="6.20315">
        <ele>710</ele>
        <time>2020-09-15T19:59:56Z</time>
      </trkpt>
      <trkpt lat="44.0479" lon="6.20331">
        <ele>706</ele>
        <time>2020-09-15T20:00:00Z</time>
      </trkpt>
      <trkpt lat="44.04808" lon="6.20343">
        <ele>702</ele>
        <time>2020-09-15T20:00:03Z</time>
      </trkpt>
      <trkpt lat="44.04841" lon="6.20358">
        <ele>698</ele>
        <time>2020-09-15T20:00:09Z</time>
      </trkpt>
      <trkpt lat="44.04852" lon="6.20363">
        <ele>696</ele>
        <time>2020-09-15T20:00:12Z</time>
      </trkpt>
      <trkpt lat="44.04857" lon="6.20366">
        <ele>696</ele>
        <time>2020-09-15T20:00:12Z</time>
      </trkpt>
      <trkpt lat="44.04864" lon="6.2037">
        <ele>695</ele>
        <time>2020-09-15T20:00:14Z</time>
      </trkpt>
      <trkpt lat="44.04879" lon="6.20383">
        <ele>695</ele>
        <time>2020-09-15T20:00:17Z</time>
      </trkpt>
      <trkpt lat="44.04894" lon="6.20401">
        <ele>696</ele>
        <time>2020-09-15T20:00:20Z</time>
      </trkpt>
      <trkpt lat="44.04935" lon="6.20474">
        <ele>700</ele>
        <time>2020-09-15T20:00:32Z</time>
      </trkpt>
      <trkpt lat="44.04955" lon="6.20503">
        <ele>700</ele>
        <time>2020-09-15T20:00:37Z</time>
      </trkpt>
      <trkpt lat="44.0508" lon="6.2063">
        <ele>697</ele>
        <time>2020-09-15T20:01:05Z</time>
      </trkpt>
      <trkpt lat="44.05098" lon="6.20642">
        <ele>697</ele>
        <time>2020-09-15T20:01:09Z</time>
      </trkpt>
      <trkpt lat="44.0511" lon="6.20647">
        <ele>697</ele>
        <time>2020-09-15T20:01:11Z</time>
      </trkpt>
      <trkpt lat="44.05121" lon="6.2065">
        <ele>696</ele>
        <time>2020-09-15T20:01:13Z</time>
      </trkpt>
      <trkpt lat="44.05152" lon="6.20648">
        <ele>693</ele>
        <time>2020-09-15T20:01:18Z</time>
      </trkpt>
      <trkpt lat="44.05192" lon="6.2064">
        <ele>690</ele>
        <time>2020-09-15T20:01:25Z</time>
      </trkpt>
      <trkpt lat="44.05208" lon="6.20638">
        <ele>689</ele>
        <time>2020-09-15T20:01:28Z</time>
      </trkpt>
      <trkpt lat="44.05225" lon="6.2064">
        <ele>688</ele>
        <time>2020-09-15T20:01:31Z</time>
      </trkpt>
      <trkpt lat="44.05235" lon="6.20643">
        <ele>687</ele>
        <time>2020-09-15T20:01:33Z</time>
      </trkpt>
      <trkpt lat="44.05243" lon="6.20646">
        <ele>687</ele>
        <time>2020-09-15T20:01:35Z</time>
      </trkpt>
      <trkpt lat="44.05252" lon="6.20649">
        <ele>687</ele>
        <time>2020-09-15T20:01:36Z</time>
      </trkpt>
      <trkpt lat="44.05278" lon="6.20665">
        <ele>685</ele>
        <time>2020-09-15T20:01:41Z</time>
      </trkpt>
      <trkpt lat="44.05306" lon="6.2069">
        <ele>684</ele>
        <time>2020-09-15T20:01:47Z</time>
      </trkpt>
      <trkpt lat="44.05324" lon="6.20706">
        <ele>683</ele>
        <time>2020-09-15T20:01:51Z</time>
      </trkpt>
      <trkpt lat="44.05337" lon="6.20718">
        <ele>682</ele>
        <time>2020-09-15T20:01:54Z</time>
      </trkpt>
      <trkpt lat="44.05365" lon="6.20741">
        <ele>681</ele>
        <time>2020-09-15T20:02:00Z</time>
      </trkpt>
      <trkpt lat="44.05399" lon="6.20758">
        <ele>679</ele>
        <time>2020-09-15T20:02:06Z</time>
      </trkpt>
      <trkpt lat="44.0541" lon="6.2076">
        <ele>678</ele>
        <time>2020-09-15T20:02:08Z</time>
      </trkpt>
      <trkpt lat="44.05418" lon="6.20761">
        <ele>678</ele>
        <time>2020-09-15T20:02:10Z</time>
      </trkpt>
      <trkpt lat="44.05442" lon="6.20761">
        <ele>677</ele>
        <time>2020-09-15T20:02:14Z</time>
      </trkpt>
      <trkpt lat="44.05467" lon="6.20755">
        <ele>676</ele>
        <time>2020-09-15T20:02:18Z</time>
      </trkpt>
      <trkpt lat="44.05475" lon="6.20752">
        <ele>676</ele>
        <time>2020-09-15T20:02:20Z</time>
      </trkpt>
      <trkpt lat="44.05484" lon="6.20748">
        <ele>675</ele>
        <time>2020-09-15T20:02:21Z</time>
      </trkpt>
      <trkpt lat="44.05553" lon="6.20718">
        <ele>673</ele>
        <time>2020-09-15T20:02:34Z</time>
      </trkpt>
      <trkpt lat="44.05603" lon="6.20701">
        <ele>670</ele>
        <time>2020-09-15T20:02:43Z</time>
      </trkpt>
      <trkpt lat="44.05626" lon="6.20694">
        <ele>669</ele>
        <time>2020-09-15T20:02:48Z</time>
      </trkpt>
      <trkpt lat="44.05655" lon="6.20687">
        <ele>668</ele>
        <time>2020-09-15T20:02:53Z</time>
      </trkpt>
      <trkpt lat="44.05728" lon="6.20675">
        <ele>665</ele>
        <time>2020-09-15T20:03:06Z</time>
      </trkpt>
      <trkpt lat="44.05748" lon="6.20674">
        <ele>665</ele>
        <time>2020-09-15T20:03:10Z</time>
      </trkpt>
      <trkpt lat="44.05771" lon="6.20672">
        <ele>663</ele>
        <time>2020-09-15T20:03:14Z</time>
      </trkpt>
      <trkpt lat="44.05849" lon="6.20675">
        <ele>660</ele>
        <time>2020-09-15T20:03:28Z</time>
      </trkpt>
      <trkpt lat="44.05869" lon="6.20676">
        <ele>659</ele>
        <time>2020-09-15T20:03:31Z</time>
      </trkpt>
      <trkpt lat="44.05889" lon="6.20678">
        <ele>658</ele>
        <time>2020-09-15T20:03:35Z</time>
      </trkpt>
      <trkpt lat="44.05911" lon="6.20681">
        <ele>657</ele>
        <time>2020-09-15T20:03:39Z</time>
      </trkpt>
      <trkpt lat="44.05961" lon="6.20688">
        <ele>655</ele>
        <time>2020-09-15T20:03:48Z</time>
      </trkpt>
      <trkpt lat="44.05976" lon="6.20689">
        <ele>654</ele>
        <time>2020-09-15T20:03:50Z</time>
      </trkpt>
      <trkpt lat="44.05996" lon="6.20692">
        <ele>653</ele>
        <time>2020-09-15T20:03:54Z</time>
      </trkpt>
      <trkpt lat="44.06018" lon="6.20694">
        <ele>652</ele>
        <time>2020-09-15T20:03:58Z</time>
      </trkpt>
      <trkpt lat="44.06096" lon="6.20701">
        <ele>649</ele>
        <time>2020-09-15T20:04:12Z</time>
      </trkpt>
      <trkpt lat="44.06118" lon="6.20703">
        <ele>648</ele>
        <time>2020-09-15T20:04:16Z</time>
      </trkpt>
      <trkpt lat="44.06139" lon="6.20706">
        <ele>648</ele>
        <time>2020-09-15T20:04:19Z</time>
      </trkpt>
      <trkpt lat="44.06148" lon="6.20708">
        <ele>648</ele>
        <time>2020-09-15T20:04:21Z</time>
      </trkpt>
      <trkpt lat="44.06161" lon="6.20711">
        <ele>647</ele>
        <time>2020-09-15T20:04:23Z</time>
      </trkpt>
      <trkpt lat="44.06191" lon="6.20721">
        <ele>646</ele>
        <time>2020-09-15T20:04:29Z</time>
      </trkpt>
      <trkpt lat="44.06203" lon="6.20727">
        <ele>646</ele>
        <time>2020-09-15T20:04:31Z</time>
      </trkpt>
      <trkpt lat="44.06207" lon="6.20729">
        <ele>646</ele>
        <time>2020-09-15T20:04:32Z</time>
      </trkpt>
      <trkpt lat="44.06215" lon="6.20733">
        <ele>646</ele>
        <time>2020-09-15T20:04:33Z</time>
      </trkpt>
      <trkpt lat="44.0625" lon="6.20756">
        <ele>644</ele>
        <time>2020-09-15T20:04:40Z</time>
      </trkpt>
      <trkpt lat="44.06322" lon="6.20811">
        <ele>639</ele>
        <time>2020-09-15T20:04:55Z</time>
      </trkpt>
      <trkpt lat="44.06349" lon="6.20823">
        <ele>637</ele>
        <time>2020-09-15T20:05:00Z</time>
      </trkpt>
      <trkpt lat="44.06392" lon="6.20834">
        <ele>637</ele>
        <time>2020-09-15T20:05:08Z</time>
      </trkpt>
      <trkpt lat="44.06425" lon="6.2084">
        <ele>637</ele>
        <time>2020-09-15T20:05:14Z</time>
      </trkpt>
      <trkpt lat="44.06473" lon="6.20849">
        <ele>633</ele>
        <time>2020-09-15T20:05:22Z</time>
      </trkpt>
      <trkpt lat="44.06522" lon="6.20854">
        <ele>630</ele>
        <time>2020-09-15T20:05:31Z</time>
      </trkpt>
      <trkpt lat="44.06557" lon="6.20854">
        <ele>628</ele>
        <time>2020-09-15T20:05:37Z</time>
      </trkpt>
      <trkpt lat="44.06567" lon="6.20853">
        <ele>628</ele>
        <time>2020-09-15T20:05:39Z</time>
      </trkpt>
      <trkpt lat="44.06575" lon="6.20852">
        <ele>627</ele>
        <time>2020-09-15T20:05:40Z</time>
      </trkpt>
      <trkpt lat="44.06675" lon="6.20839">
        <ele>624</ele>
        <time>2020-09-15T20:05:58Z</time>
      </trkpt>
      <trkpt lat="44.06703" lon="6.20839">
        <ele>623</ele>
        <time>2020-09-15T20:06:03Z</time>
      </trkpt>
      <trkpt lat="44.06733" lon="6.20842">
        <ele>623</ele>
        <time>2020-09-15T20:06:09Z</time>
      </trkpt>
      <trkpt lat="44.06766" lon="6.20848">
        <ele>621</ele>
        <time>2020-09-15T20:06:14Z</time>
      </trkpt>
      <trkpt lat="44.06889" lon="6.2087">
        <ele>619</ele>
        <time>2020-09-15T20:06:37Z</time>
      </trkpt>
      <trkpt lat="44.06898" lon="6.20871">
        <ele>619</ele>
        <time>2020-09-15T20:06:38Z</time>
      </trkpt>
      <trkpt lat="44.06923" lon="6.20869">
        <ele>618</ele>
        <time>2020-09-15T20:06:43Z</time>
      </trkpt>
      <trkpt lat="44.06941" lon="6.20865">
        <ele>616</ele>
        <time>2020-09-15T20:06:46Z</time>
      </trkpt>
      <trkpt lat="44.06958" lon="6.20862">
        <ele>615</ele>
        <time>2020-09-15T20:06:49Z</time>
      </trkpt>
      <trkpt lat="44.06974" lon="6.2086">
        <ele>614</ele>
        <time>2020-09-15T20:06:52Z</time>
      </trkpt>
      <trkpt lat="44.06991" lon="6.20864">
        <ele>613</ele>
        <time>2020-09-15T20:06:55Z</time>
      </trkpt>
      <trkpt lat="44.07052" lon="6.20889">
        <ele>611</ele>
        <time>2020-09-15T20:07:06Z</time>
      </trkpt>
      <trkpt lat="44.07082" lon="6.20897">
        <ele>609</ele>
        <time>2020-09-15T20:07:12Z</time>
      </trkpt>
      <trkpt lat="44.07112" lon="6.20904">
        <ele>608</ele>
        <time>2020-09-15T20:07:17Z</time>
      </trkpt>
      <trkpt lat="44.07134" lon="6.20909">
        <ele>608</ele>
        <time>2020-09-15T20:07:21Z</time>
      </trkpt>
      <trkpt lat="44.07174" lon="6.20918">
        <ele>607</ele>
        <time>2020-09-15T20:07:28Z</time>
      </trkpt>
      <trkpt lat="44.07187" lon="6.20921">
        <ele>606</ele>
        <time>2020-09-15T20:07:30Z</time>
      </trkpt>
      <trkpt lat="44.07202" lon="6.20925">
        <ele>605</ele>
        <time>2020-09-15T20:07:33Z</time>
      </trkpt>
      <trkpt lat="44.07211" lon="6.20927">
        <ele>605</ele>
        <time>2020-09-15T20:07:35Z</time>
      </trkpt>
      <trkpt lat="44.07219" lon="6.20929">
        <ele>605</ele>
        <time>2020-09-15T20:07:36Z</time>
      </trkpt>
      <trkpt lat="44.07225" lon="6.20931">
        <ele>604</ele>
        <time>2020-09-15T20:07:37Z</time>
      </trkpt>
      <trkpt lat="44.07229" lon="6.20933">
        <ele>604</ele>
        <time>2020-09-15T20:07:38Z</time>
      </trkpt>
      <trkpt lat="44.07235" lon="6.20935">
        <ele>604</ele>
        <time>2020-09-15T20:07:39Z</time>
      </trkpt>
      <trkpt lat="44.07239" lon="6.20937">
        <ele>604</ele>
        <time>2020-09-15T20:07:40Z</time>
      </trkpt>
      <trkpt lat="44.07252" lon="6.20947">
        <ele>603</ele>
        <time>2020-09-15T20:07:43Z</time>
      </trkpt>
      <trkpt lat="44.0729" lon="6.20986">
        <ele>603</ele>
        <time>2020-09-15T20:07:51Z</time>
      </trkpt>
      <trkpt lat="44.07297" lon="6.20992">
        <ele>603</ele>
        <time>2020-09-15T20:07:52Z</time>
      </trkpt>
      <trkpt lat="44.07313" lon="6.21">
        <ele>603</ele>
        <time>2020-09-15T20:07:55Z</time>
      </trkpt>
      <trkpt lat="44.07333" lon="6.21004">
        <ele>604</ele>
        <time>2020-09-15T20:07:59Z</time>
      </trkpt>
      <trkpt lat="44.07351" lon="6.21002">
        <ele>604</ele>
        <time>2020-09-15T20:08:02Z</time>
      </trkpt>
      <trkpt lat="44.07391" lon="6.20991">
        <ele>604</ele>
        <time>2020-09-15T20:08:10Z</time>
      </trkpt>
      <trkpt lat="44.07408" lon="6.20983">
        <ele>604</ele>
        <time>2020-09-15T20:08:13Z</time>
      </trkpt>
      <trkpt lat="44.07427" lon="6.20974">
        <ele>603</ele>
        <time>2020-09-15T20:08:16Z</time>
      </trkpt>
      <trkpt lat="44.07439" lon="6.20968">
        <ele>603</ele>
        <time>2020-09-15T20:08:19Z</time>
      </trkpt>
      <trkpt lat="44.07459" lon="6.20961">
        <ele>603</ele>
        <time>2020-09-15T20:08:22Z</time>
      </trkpt>
      <trkpt lat="44.07483" lon="6.20962">
        <ele>603</ele>
        <time>2020-09-15T20:08:27Z</time>
      </trkpt>
      <trkpt lat="44.07499" lon="6.20969">
        <ele>605</ele>
        <time>2020-09-15T20:08:30Z</time>
      </trkpt>
      <trkpt lat="44.07522" lon="6.20986">
        <ele>605</ele>
        <time>2020-09-15T20:08:34Z</time>
      </trkpt>
      <trkpt lat="44.07535" lon="6.20996">
        <ele>605</ele>
        <time>2020-09-15T20:08:37Z</time>
      </trkpt>
      <trkpt lat="44.07546" lon="6.21003">
        <ele>605</ele>
        <time>2020-09-15T20:08:39Z</time>
      </trkpt>
      <trkpt lat="44.07564" lon="6.21008">
        <ele>603</ele>
        <time>2020-09-15T20:08:42Z</time>
      </trkpt>
      <trkpt lat="44.07574" lon="6.21008">
        <ele>602</ele>
        <time>2020-09-15T20:08:44Z</time>
      </trkpt>
      <trkpt lat="44.0758" lon="6.21007">
        <ele>601</ele>
        <time>2020-09-15T20:08:45Z</time>
      </trkpt>
      <trkpt lat="44.07595" lon="6.21">
        <ele>601</ele>
        <time>2020-09-15T20:08:48Z</time>
      </trkpt>
      <trkpt lat="44.07605" lon="6.20992">
        <ele>601</ele>
        <time>2020-09-15T20:08:50Z</time>
      </trkpt>
      <trkpt lat="44.07625" lon="6.20973">
        <ele>598</ele>
        <time>2020-09-15T20:08:54Z</time>
      </trkpt>
      <trkpt lat="44.07642" lon="6.2096">
        <ele>597</ele>
        <time>2020-09-15T20:08:58Z</time>
      </trkpt>
      <trkpt lat="44.0765" lon="6.20956">
        <ele>596</ele>
        <time>2020-09-15T20:08:59Z</time>
      </trkpt>
      <trkpt lat="44.07675" lon="6.20952">
        <ele>594</ele>
        <time>2020-09-15T20:09:04Z</time>
      </trkpt>
      <trkpt lat="44.07684" lon="6.20954">
        <ele>593</ele>
        <time>2020-09-15T20:09:05Z</time>
      </trkpt>
      <trkpt lat="44.07692" lon="6.20957">
        <ele>593</ele>
        <time>2020-09-15T20:09:07Z</time>
      </trkpt>
      <trkpt lat="44.07704" lon="6.20964">
        <ele>592</ele>
        <time>2020-09-15T20:09:09Z</time>
      </trkpt>
      <trkpt lat="44.0772" lon="6.20983">
        <ele>593</ele>
        <time>2020-09-15T20:09:13Z</time>
      </trkpt>
      <trkpt lat="44.07726" lon="6.20992">
        <ele>594</ele>
        <time>2020-09-15T20:09:14Z</time>
      </trkpt>
      <trkpt lat="44.07735" lon="6.21014">
        <ele>595</ele>
        <time>2020-09-15T20:09:18Z</time>
      </trkpt>
      <trkpt lat="44.07738" lon="6.21023">
        <ele>595</ele>
        <time>2020-09-15T20:09:19Z</time>
      </trkpt>
      <trkpt lat="44.07739" lon="6.21028">
        <ele>595</ele>
        <time>2020-09-15T20:09:20Z</time>
      </trkpt>
      <trkpt lat="44.07752" lon="6.21062">
        <ele>595</ele>
        <time>2020-09-15T20:09:24Z</time>
      </trkpt>
      <trkpt lat="44.07764" lon="6.21085">
        <ele>595</ele>
        <time>2020-09-15T20:09:28Z</time>
      </trkpt>
      <trkpt lat="44.07771" lon="6.21094">
        <ele>595</ele>
        <time>2020-09-15T20:09:30Z</time>
      </trkpt>
      <trkpt lat="44.078" lon="6.21137">
        <ele>594</ele>
        <time>2020-09-15T20:09:37Z</time>
      </trkpt>
      <trkpt lat="44.07809" lon="6.21155">
        <ele>594</ele>
        <time>2020-09-15T20:09:40Z</time>
      </trkpt>
      <trkpt lat="44.07813" lon="6.21164">
        <ele>594</ele>
        <time>2020-09-15T20:09:42Z</time>
      </trkpt>
      <trkpt lat="44.07823" lon="6.21187">
        <ele>595</ele>
        <time>2020-09-15T20:09:45Z</time>
      </trkpt>
      <trkpt lat="44.07854" lon="6.21261">
        <ele>596</ele>
        <time>2020-09-15T20:09:56Z</time>
      </trkpt>
      <trkpt lat="44.0786" lon="6.21274">
        <ele>596</ele>
        <time>2020-09-15T20:09:58Z</time>
      </trkpt>
      <trkpt lat="44.07865" lon="6.21286">
        <ele>596</ele>
        <time>2020-09-15T20:10:00Z</time>
      </trkpt>
      <trkpt lat="44.07871" lon="6.21303">
        <ele>595</ele>
        <time>2020-09-15T20:10:02Z</time>
      </trkpt>
      <trkpt lat="44.07873" lon="6.21316">
        <ele>596</ele>
        <time>2020-09-15T20:10:04Z</time>
      </trkpt>
      <trkpt lat="44.07881" lon="6.21401">
        <ele>601</ele>
        <time>2020-09-15T20:10:15Z</time>
      </trkpt>
      <trkpt lat="44.07886" lon="6.21419">
        <ele>600</ele>
        <time>2020-09-15T20:10:17Z</time>
      </trkpt>
      <trkpt lat="44.07901" lon="6.21446">
        <ele>596</ele>
        <time>2020-09-15T20:10:22Z</time>
      </trkpt>
      <trkpt lat="44.07928" lon="6.21478">
        <ele>591</ele>
        <time>2020-09-15T20:10:28Z</time>
      </trkpt>
      <trkpt lat="44.07932" lon="6.21485">
        <ele>591</ele>
        <time>2020-09-15T20:10:29Z</time>
      </trkpt>
      <trkpt lat="44.07938" lon="6.2151">
        <ele>592</ele>
        <time>2020-09-15T20:10:32Z</time>
      </trkpt>
      <trkpt lat="44.07942" lon="6.21528">
        <ele>591</ele>
        <time>2020-09-15T20:10:35Z</time>
      </trkpt>
      <trkpt lat="44.07942" lon="6.21547">
        <ele>591</ele>
        <time>2020-09-15T20:10:37Z</time>
      </trkpt>
      <trkpt lat="44.07942" lon="6.21551">
        <ele>591</ele>
        <time>2020-09-15T20:10:38Z</time>
      </trkpt>
      <trkpt lat="44.07941" lon="6.21558">
        <ele>592</ele>
        <time>2020-09-15T20:10:39Z</time>
      </trkpt>
      <trkpt lat="44.0794" lon="6.21567">
        <ele>592</ele>
        <time>2020-09-15T20:10:40Z</time>
      </trkpt>
      <trkpt lat="44.07934" lon="6.21573">
        <ele>593</ele>
        <time>2020-09-15T20:10:41Z</time>
      </trkpt>
      <trkpt lat="44.07929" lon="6.21581">
        <ele>594</ele>
        <time>2020-09-15T20:10:42Z</time>
      </trkpt>
      <trkpt lat="44.07927" lon="6.21591">
        <ele>594</ele>
        <time>2020-09-15T20:10:44Z</time>
      </trkpt>
      <trkpt lat="44.07928" lon="6.216">
        <ele>593</ele>
        <time>2020-09-15T20:10:45Z</time>
      </trkpt>
      <trkpt lat="44.07931" lon="6.21609">
        <ele>592</ele>
        <time>2020-09-15T20:10:46Z</time>
      </trkpt>
      <trkpt lat="44.07927" lon="6.21618">
        <ele>592</ele>
        <time>2020-09-15T20:10:48Z</time>
      </trkpt>
      <trkpt lat="44.07924" lon="6.21615">
        <ele>592</ele>
        <time>2020-09-15T20:10:48Z</time>
      </trkpt>
      <trkpt lat="44.07907" lon="6.21661">
        <ele>591</ele>
        <time>2020-09-15T20:10:55Z</time>
      </trkpt>
      <trkpt lat="44.07902" lon="6.21679">
        <ele>591</ele>
        <time>2020-09-15T20:10:57Z</time>
      </trkpt>
      <trkpt lat="44.07901" lon="6.21691">
        <ele>592</ele>
        <time>2020-09-15T20:10:59Z</time>
      </trkpt>
      <trkpt lat="44.07901" lon="6.21704">
        <ele>592</ele>
        <time>2020-09-15T20:11:01Z</time>
      </trkpt>
      <trkpt lat="44.07903" lon="6.21719">
        <ele>592</ele>
        <time>2020-09-15T20:11:02Z</time>
      </trkpt>
      <trkpt lat="44.07911" lon="6.21738">
        <ele>593</ele>
        <time>2020-09-15T20:11:05Z</time>
      </trkpt>
      <trkpt lat="44.07917" lon="6.21748">
        <ele>593</ele>
        <time>2020-09-15T20:11:07Z</time>
      </trkpt>
      <trkpt lat="44.07929" lon="6.2176">
        <ele>593</ele>
        <time>2020-09-15T20:11:10Z</time>
      </trkpt>
      <trkpt lat="44.07936" lon="6.21764">
        <ele>592</ele>
        <time>2020-09-15T20:11:11Z</time>
      </trkpt>
      <trkpt lat="44.07949" lon="6.21769">
        <ele>591</ele>
        <time>2020-09-15T20:11:13Z</time>
      </trkpt>
      <trkpt lat="44.07976" lon="6.21771">
        <ele>588</ele>
        <time>2020-09-15T20:11:18Z</time>
      </trkpt>
      <trkpt lat="44.07988" lon="6.21778">
        <ele>587</ele>
        <time>2020-09-15T20:11:20Z</time>
      </trkpt>
      <trkpt lat="44.08001" lon="6.21775">
        <ele>585</ele>
        <time>2020-09-15T20:11:23Z</time>
      </trkpt>
      <trkpt lat="44.08036" lon="6.21775">
        <ele>584</ele>
        <time>2020-09-15T20:11:29Z</time>
      </trkpt>
      <trkpt lat="44.08103" lon="6.21769">
        <ele>581</ele>
        <time>2020-09-15T20:11:41Z</time>
      </trkpt>
      <trkpt lat="44.08137" lon="6.21761">
        <ele>579</ele>
        <time>2020-09-15T20:11:47Z</time>
      </trkpt>
      <trkpt lat="44.08142" lon="6.21784">
        <ele>579</ele>
        <time>2020-09-15T20:11:50Z</time>
      </trkpt>
      <trkpt lat="44.08199" lon="6.21933">
        <ele>579</ele>
        <time>2020-09-15T20:12:12Z</time>
      </trkpt>
      <trkpt lat="44.08241" lon="6.22051">
        <ele>581</ele>
        <time>2020-09-15T20:12:29Z</time>
      </trkpt>
      <trkpt lat="44.08254" lon="6.22075">
        <ele>582</ele>
        <time>2020-09-15T20:12:32Z</time>
      </trkpt>
      <trkpt lat="44.08484" lon="6.22532">
        <ele>584</ele>
        <time>2020-09-15T20:13:44Z</time>
      </trkpt>
      <trkpt lat="44.08501" lon="6.22557">
        <ele>585</ele>
        <time>2020-09-15T20:13:48Z</time>
      </trkpt>
      <trkpt lat="44.08526" lon="6.22586">
        <ele>585</ele>
        <time>2020-09-15T20:13:54Z</time>
      </trkpt>
      <trkpt lat="44.08544" lon="6.22603">
        <ele>586</ele>
        <time>2020-09-15T20:13:58Z</time>
      </trkpt>
      <trkpt lat="44.08553" lon="6.22609">
        <ele>586</ele>
        <time>2020-09-15T20:14:00Z</time>
      </trkpt>
      <trkpt lat="44.08807" lon="6.22831">
        <ele>587</ele>
        <time>2020-09-15T20:14:53Z</time>
      </trkpt>
      <trkpt lat="44.08927" lon="6.22934">
        <ele>590</ele>
        <time>2020-09-15T20:15:18Z</time>
      </trkpt>
      <trkpt lat="44.08941" lon="6.22946">
        <ele>590</ele>
        <time>2020-09-15T20:15:21Z</time>
      </trkpt>
      <trkpt lat="44.09015" lon="6.23006">
        <ele>591</ele>
        <time>2020-09-15T20:15:36Z</time>
      </trkpt>
      <trkpt lat="44.09028" lon="6.23022">
        <ele>591</ele>
        <time>2020-09-15T20:15:39Z</time>
      </trkpt>
      <trkpt lat="44.09031" lon="6.23031">
        <ele>592</ele>
        <time>2020-09-15T20:15:41Z</time>
      </trkpt>
      <trkpt lat="44.09033" lon="6.23045">
        <ele>592</ele>
        <time>2020-09-15T20:15:42Z</time>
      </trkpt>
      <trkpt lat="44.09061" lon="6.23048">
        <ele>592</ele>
        <time>2020-09-15T20:15:47Z</time>
      </trkpt>
      <trkpt lat="44.09059" lon="6.23068">
        <ele>593</ele>
        <time>2020-09-15T20:15:50Z</time>
      </trkpt>
      <trkpt lat="44.09059" lon="6.23077">
        <ele>593</ele>
        <time>2020-09-15T20:15:51Z</time>
      </trkpt>
      <trkpt lat="44.09062" lon="6.23085">
        <ele>593</ele>
        <time>2020-09-15T20:15:52Z</time>
      </trkpt>
      <trkpt lat="44.09067" lon="6.23091">
        <ele>593</ele>
        <time>2020-09-15T20:15:53Z</time>
      </trkpt>
      <trkpt lat="44.09065" lon="6.23098">
        <ele>593</ele>
        <time>2020-09-15T20:15:54Z</time>
      </trkpt>
      <trkpt lat="44.09067" lon="6.231">
        <ele>594</ele>
        <time>2020-09-15T20:15:55Z</time>
      </trkpt>
      <trkpt lat="44.09065" lon="6.23103">
        <ele>594</ele>
        <time>2020-09-15T20:15:55Z</time>
      </trkpt>
      <trkpt lat="44.09086" lon="6.23123">
        <ele>594</ele>
        <time>2020-09-15T20:16:00Z</time>
      </trkpt>
      <trkpt lat="44.09087" lon="6.23138">
        <ele>594</ele>
        <time>2020-09-15T20:16:02Z</time>
      </trkpt>
      <trkpt lat="44.09091" lon="6.23146">
        <ele>595</ele>
        <time>2020-09-15T20:16:03Z</time>
      </trkpt>
      <trkpt lat="44.09097" lon="6.23151">
        <ele>595</ele>
        <time>2020-09-15T20:16:04Z</time>
      </trkpt>
      <trkpt lat="44.09101" lon="6.23151">
        <ele>595</ele>
        <time>2020-09-15T20:16:05Z</time>
      </trkpt>
      <trkpt lat="44.09109" lon="6.23148">
        <ele>595</ele>
        <time>2020-09-15T20:16:06Z</time>
      </trkpt>
      <trkpt lat="44.09125" lon="6.23188">
        <ele>596</ele>
        <time>2020-09-15T20:16:12Z</time>
      </trkpt>
      <trkpt lat="44.09168" lon="6.23279">
        <ele>600</ele>
        <time>2020-09-15T20:16:26Z</time>
      </trkpt>
      <trkpt lat="44.09272" lon="6.2351">
        <ele>608</ele>
        <time>2020-09-15T20:17:01Z</time>
      </trkpt>
      <trkpt lat="44.09279" lon="6.23516">
        <ele>607</ele>
        <time>2020-09-15T20:17:03Z</time>
      </trkpt>
      <trkpt lat="44.09284" lon="6.23516">
        <ele>607</ele>
        <time>2020-09-15T20:17:03Z</time>
      </trkpt>
      <trkpt lat="44.09288" lon="6.23514">
        <ele>607</ele>
        <time>2020-09-15T20:17:04Z</time>
      </trkpt>
      <trkpt lat="44.09297" lon="6.23504">
        <ele>607</ele>
        <time>2020-09-15T20:17:06Z</time>
      </trkpt>
      <trkpt lat="44.09298" lon="6.23497">
        <ele>607</ele>
        <time>2020-09-15T20:17:07Z</time>
      </trkpt>
      <trkpt lat="44.09297" lon="6.2349">
        <ele>606</ele>
        <time>2020-09-15T20:17:08Z</time>
      </trkpt>
      <trkpt lat="44.09257" lon="6.23382">
        <ele>603</ele>
        <time>2020-09-15T20:17:24Z</time>
      </trkpt>
      <trkpt lat="44.09252" lon="6.2335">
        <ele>602</ele>
        <time>2020-09-15T20:17:28Z</time>
      </trkpt>
      <trkpt lat="44.09244" lon="6.23267">
        <ele>599</ele>
        <time>2020-09-15T20:17:38Z</time>
      </trkpt>
      <trkpt lat="44.09235" lon="6.23212">
        <ele>597</ele>
        <time>2020-09-15T20:17:46Z</time>
      </trkpt>
      <trkpt lat="44.09227" lon="6.23167">
        <ele>596</ele>
        <time>2020-09-15T20:17:52Z</time>
      </trkpt>
      <trkpt lat="44.09243" lon="6.23161">
        <ele>596</ele>
        <time>2020-09-15T20:17:55Z</time>
      </trkpt>
      <trkpt lat="44.09227" lon="6.23167">
        <ele>596</ele>
        <time>2020-09-15T20:17:58Z</time>
      </trkpt>
      <trkpt lat="44.09218" lon="6.23118">
        <ele>595</ele>
        <time>2020-09-15T20:18:04Z</time>
      </trkpt>
      <trkpt lat="44.09217" lon="6.23116">
        <ele>595</ele>
        <time>2020-09-15T20:18:04Z</time>
      </trkpt>
      <trkpt lat="44.09215" lon="6.23103">
        <ele>595</ele>
        <time>2020-09-15T20:18:06Z</time>
      </trkpt>
      <trkpt lat="44.09214" lon="6.23097">
        <ele>595</ele>
        <time>2020-09-15T20:18:07Z</time>
      </trkpt>
      <trkpt lat="44.09214" lon="6.23094">
        <ele>595</ele>
        <time>2020-09-15T20:18:07Z</time>
      </trkpt>
      <trkpt lat="44.09212" lon="6.23087">
        <ele>595</ele>
        <time>2020-09-15T20:18:08Z</time>
      </trkpt>
      <trkpt lat="44.09171" lon="6.23104">
        <ele>595</ele>
        <time>2020-09-15T20:18:16Z</time>
      </trkpt>
      <trkpt lat="44.09162" lon="6.23112">
        <ele>595</ele>
        <time>2020-09-15T20:18:18Z</time>
      </trkpt>
      <trkpt lat="44.09133" lon="6.23124">
        <ele>595</ele>
        <time>2020-09-15T20:18:23Z</time>
      </trkpt>
      <trkpt lat="44.09115" lon="6.23124">
        <ele>595</ele>
        <time>2020-09-15T20:18:26Z</time>
      </trkpt>
      <trkpt lat="44.09114" lon="6.23119">
        <ele>594</ele>
        <time>2020-09-15T20:18:27Z</time>
      </trkpt>
      <trkpt lat="44.09109" lon="6.23112">
        <ele>594</ele>
        <time>2020-09-15T20:18:28Z</time>
      </trkpt>
      <trkpt lat="44.09105" lon="6.2311">
        <ele>594</ele>
        <time>2020-09-15T20:18:29Z</time>
      </trkpt>
      <trkpt lat="44.09104" lon="6.23102">
        <ele>594</ele>
        <time>2020-09-15T20:18:30Z</time>
      </trkpt>
      <trkpt lat="44.09103" lon="6.23096">
        <ele>594</ele>
        <time>2020-09-15T20:18:31Z</time>
      </trkpt>
      <trkpt lat="44.09102" lon="6.23088">
        <ele>593</ele>
        <time>2020-09-15T20:18:32Z</time>
      </trkpt>
      <trkpt lat="44.09103" lon="6.23081">
        <ele>593</ele>
        <time>2020-09-15T20:18:33Z</time>
      </trkpt>
      <trkpt lat="44.09115" lon="6.22921">
        <ele>592</ele>
        <time>2020-09-15T20:18:53Z</time>
      </trkpt>
      <trkpt lat="44.09116" lon="6.22907">
        <ele>594</ele>
        <time>2020-09-15T20:18:55Z</time>
      </trkpt>
      <trkpt lat="44.09116" lon="6.22894">
        <ele>596</ele>
        <time>2020-09-15T20:18:57Z</time>
      </trkpt>
      <trkpt lat="44.09115" lon="6.22885">
        <ele>598</ele>
        <time>2020-09-15T20:18:58Z</time>
      </trkpt>
      <trkpt lat="44.09112" lon="6.22876">
        <ele>599</ele>
        <time>2020-09-15T20:18:59Z</time>
      </trkpt>
      <trkpt lat="44.09109" lon="6.22868">
        <ele>600</ele>
        <time>2020-09-15T20:19:00Z</time>
      </trkpt>
      <trkpt lat="44.09106" lon="6.22863">
        <ele>601</ele>
        <time>2020-09-15T20:19:01Z</time>
      </trkpt>
      <trkpt lat="44.09093" lon="6.22851">
        <ele>601</ele>
        <time>2020-09-15T20:19:04Z</time>
      </trkpt>
      <trkpt lat="44.09072" lon="6.22844">
        <ele>601</ele>
        <time>2020-09-15T20:19:08Z</time>
      </trkpt>
      <trkpt lat="44.09033" lon="6.22835">
        <ele>599</ele>
        <time>2020-09-15T20:19:15Z</time>
      </trkpt>
      <trkpt lat="44.09019" lon="6.22832">
        <ele>598</ele>
        <time>2020-09-15T20:19:17Z</time>
      </trkpt>
      <trkpt lat="44.09014" lon="6.2283">
        <ele>598</ele>
        <time>2020-09-15T20:19:18Z</time>
      </trkpt>
      <trkpt lat="44.08993" lon="6.22821">
        <ele>597</ele>
        <time>2020-09-15T20:19:22Z</time>
      </trkpt>
      <trkpt lat="44.08988" lon="6.22818">
        <ele>597</ele>
        <time>2020-09-15T20:19:23Z</time>
      </trkpt>
      <trkpt lat="44.08973" lon="6.22805">
        <ele>597</ele>
        <time>2020-09-15T20:19:26Z</time>
      </trkpt>
      <trkpt lat="44.08969" lon="6.228">
        <ele>597</ele>
        <time>2020-09-15T20:19:27Z</time>
      </trkpt>
      <trkpt lat="44.08966" lon="6.22795">
        <ele>597</ele>
        <time>2020-09-15T20:19:28Z</time>
      </trkpt>
      <trkpt lat="44.08966" lon="6.2279">
        <ele>598</ele>
        <time>2020-09-15T20:19:29Z</time>
      </trkpt>
      <trkpt lat="44.08963" lon="6.22778">
        <ele>599</ele>
        <time>2020-09-15T20:19:30Z</time>
      </trkpt>
      <trkpt lat="44.08961" lon="6.22775">
        <ele>599</ele>
        <time>2020-09-15T20:19:31Z</time>
      </trkpt>
      <trkpt lat="44.08957" lon="6.22768">
        <ele>599</ele>
        <time>2020-09-15T20:19:32Z</time>
      </trkpt>
      <trkpt lat="44.08953" lon="6.22761">
        <ele>599</ele>
        <time>2020-09-15T20:19:33Z</time>
      </trkpt>
      <trkpt lat="44.08951" lon="6.22753">
        <ele>599</ele>
        <time>2020-09-15T20:19:34Z</time>
      </trkpt>
      <trkpt lat="44.08948" lon="6.22743">
        <ele>599</ele>
        <time>2020-09-15T20:19:36Z</time>
      </trkpt>
      <trkpt lat="44.08944" lon="6.22731">
        <ele>599</ele>
        <time>2020-09-15T20:19:37Z</time>
      </trkpt>
      <trkpt lat="44.08935" lon="6.22695">
        <ele>598</ele>
        <time>2020-09-15T20:19:42Z</time>
      </trkpt>
      <trkpt lat="44.08928" lon="6.22666">
        <ele>598</ele>
        <time>2020-09-15T20:19:46Z</time>
      </trkpt>
      <trkpt lat="44.08926" lon="6.22661">
        <ele>598</ele>
        <time>2020-09-15T20:19:47Z</time>
      </trkpt>
      <trkpt lat="44.08916" lon="6.22632">
        <ele>597</ele>
        <time>2020-09-15T20:19:51Z</time>
      </trkpt>
      <trkpt lat="44.08901" lon="6.22596">
        <ele>596</ele>
        <time>2020-09-15T20:19:56Z</time>
      </trkpt>
      <trkpt lat="44.08899" lon="6.22581">
        <ele>597</ele>
        <time>2020-09-15T20:19:58Z</time>
      </trkpt>
      <trkpt lat="44.08897" lon="6.22573">
        <ele>597</ele>
        <time>2020-09-15T20:19:59Z</time>
      </trkpt>
      <trkpt lat="44.08897" lon="6.22564">
        <ele>597</ele>
        <time>2020-09-15T20:20:00Z</time>
      </trkpt>
      <trkpt lat="44.08898" lon="6.22556">
        <ele>598</ele>
        <time>2020-09-15T20:20:01Z</time>
      </trkpt>
      <trkpt lat="44.08902" lon="6.2255">
        <ele>599</ele>
        <time>2020-09-15T20:20:02Z</time>
      </trkpt>
      <trkpt lat="44.08906" lon="6.22534">
        <ele>601</ele>
        <time>2020-09-15T20:20:05Z</time>
      </trkpt>
      <trkpt lat="44.08905" lon="6.22526">
        <ele>601</ele>
        <time>2020-09-15T20:20:06Z</time>
      </trkpt>
      <trkpt lat="44.08904" lon="6.22522">
        <ele>601</ele>
        <time>2020-09-15T20:20:06Z</time>
      </trkpt>
      <trkpt lat="44.08902" lon="6.22518">
        <ele>601</ele>
        <time>2020-09-15T20:20:07Z</time>
      </trkpt>
      <trkpt lat="44.089" lon="6.22514">
        <ele>601</ele>
        <time>2020-09-15T20:20:07Z</time>
      </trkpt>
      <trkpt lat="44.08895" lon="6.22508">
        <ele>600</ele>
        <time>2020-09-15T20:20:09Z</time>
      </trkpt>
      <trkpt lat="44.08889" lon="6.22505">
        <ele>599</ele>
        <time>2020-09-15T20:20:10Z</time>
      </trkpt>
      <trkpt lat="44.08884" lon="6.22504">
        <ele>599</ele>
        <time>2020-09-15T20:20:11Z</time>
      </trkpt>
      <trkpt lat="44.08878" lon="6.22506">
        <ele>597</ele>
        <time>2020-09-15T20:20:12Z</time>
      </trkpt>
      <trkpt lat="44.08873" lon="6.22509">
        <ele>596</ele>
        <time>2020-09-15T20:20:13Z</time>
      </trkpt>
      <trkpt lat="44.0887" lon="6.22505">
        <ele>596</ele>
        <time>2020-09-15T20:20:13Z</time>
      </trkpt>
      <trkpt lat="44.08868" lon="6.22502">
        <ele>596</ele>
        <time>2020-09-15T20:20:14Z</time>
      </trkpt>
      <trkpt lat="44.08865" lon="6.22496">
        <ele>595</ele>
        <time>2020-09-15T20:20:15Z</time>
      </trkpt>
      <trkpt lat="44.0886" lon="6.22479">
        <ele>595</ele>
        <time>2020-09-15T20:20:17Z</time>
      </trkpt>
      <trkpt lat="44.08848" lon="6.22419">
        <ele>595</ele>
        <time>2020-09-15T20:20:25Z</time>
      </trkpt>
      <trkpt lat="44.08845" lon="6.22393">
        <ele>595</ele>
        <time>2020-09-15T20:20:29Z</time>
      </trkpt>
      <trkpt lat="44.08836" lon="6.2233">
        <ele>596</ele>
        <time>2020-09-15T20:20:37Z</time>
      </trkpt>
      <trkpt lat="44.08828" lon="6.22273">
        <ele>595</ele>
        <time>2020-09-15T20:20:44Z</time>
      </trkpt>
      <trkpt lat="44.0882" lon="6.22216">
        <ele>594</ele>
        <time>2020-09-15T20:20:52Z</time>
      </trkpt>
      <trkpt lat="44.08813" lon="6.22152">
        <ele>593</ele>
        <time>2020-09-15T20:21:00Z</time>
      </trkpt>
      <trkpt lat="44.08783" lon="6.21928">
        <ele>592</ele>
        <time>2020-09-15T20:21:29Z</time>
      </trkpt>
      <trkpt lat="44.08765" lon="6.21798">
        <ele>593</ele>
        <time>2020-09-15T20:21:46Z</time>
      </trkpt>
      <trkpt lat="44.08764" lon="6.2179">
        <ele>593</ele>
        <time>2020-09-15T20:21:47Z</time>
      </trkpt>
      <trkpt lat="44.08758" lon="6.2175">
        <ele>593</ele>
        <time>2020-09-15T20:21:52Z</time>
      </trkpt>
      <trkpt lat="44.0875" lon="6.21693">
        <ele>593</ele>
        <time>2020-09-15T20:22:00Z</time>
      </trkpt>
      <trkpt lat="44.08742" lon="6.21663">
        <ele>593</ele>
        <time>2020-09-15T20:22:04Z</time>
      </trkpt>
      <trkpt lat="44.08735" lon="6.21642">
        <ele>593</ele>
        <time>2020-09-15T20:22:07Z</time>
      </trkpt>
      <trkpt lat="44.08733" lon="6.21625">
        <ele>594</ele>
        <time>2020-09-15T20:22:09Z</time>
      </trkpt>
      <trkpt lat="44.08721" lon="6.21587">
        <ele>594</ele>
        <time>2020-09-15T20:22:14Z</time>
      </trkpt>
      <trkpt lat="44.08715" lon="6.2157">
        <ele>594</ele>
        <time>2020-09-15T20:22:17Z</time>
      </trkpt>
      <trkpt lat="44.0871" lon="6.21558">
        <ele>594</ele>
        <time>2020-09-15T20:22:18Z</time>
      </trkpt>
      <trkpt lat="44.08704" lon="6.21542">
        <ele>594</ele>
        <time>2020-09-15T20:22:21Z</time>
      </trkpt>
      <trkpt lat="44.08705" lon="6.21541">
        <ele>594</ele>
        <time>2020-09-15T20:22:21Z</time>
      </trkpt>
      <trkpt lat="44.08706" lon="6.21532">
        <ele>594</ele>
        <time>2020-09-15T20:22:22Z</time>
      </trkpt>
      <trkpt lat="44.08702" lon="6.21523">
        <ele>594</ele>
        <time>2020-09-15T20:22:23Z</time>
      </trkpt>
      <trkpt lat="44.087" lon="6.21522">
        <ele>594</ele>
        <time>2020-09-15T20:22:24Z</time>
      </trkpt>
      <trkpt lat="44.08698" lon="6.21512">
        <ele>594</ele>
        <time>2020-09-15T20:22:25Z</time>
      </trkpt>
      <trkpt lat="44.08686" lon="6.21483">
        <ele>593</ele>
        <time>2020-09-15T20:22:29Z</time>
      </trkpt>
      <trkpt lat="44.0868" lon="6.21465">
        <ele>593</ele>
        <time>2020-09-15T20:22:32Z</time>
      </trkpt>
      <trkpt lat="44.08672" lon="6.21438">
        <ele>593</ele>
        <time>2020-09-15T20:22:36Z</time>
      </trkpt>
      <trkpt lat="44.08665" lon="6.21416">
        <ele>593</ele>
        <time>2020-09-15T20:22:39Z</time>
      </trkpt>
      <trkpt lat="44.08663" lon="6.21399">
        <ele>592</ele>
        <time>2020-09-15T20:22:41Z</time>
      </trkpt>
      <trkpt lat="44.08659" lon="6.21384">
        <ele>592</ele>
        <time>2020-09-15T20:22:43Z</time>
      </trkpt>
      <trkpt lat="44.08655" lon="6.21369">
        <ele>592</ele>
        <time>2020-09-15T20:22:45Z</time>
      </trkpt>
      <trkpt lat="44.08644" lon="6.21345">
        <ele>591</ele>
        <time>2020-09-15T20:22:49Z</time>
      </trkpt>
      <trkpt lat="44.08639" lon="6.21329">
        <ele>590</ele>
        <time>2020-09-15T20:22:51Z</time>
      </trkpt>
      <trkpt lat="44.08636" lon="6.21319">
        <ele>590</ele>
        <time>2020-09-15T20:22:52Z</time>
      </trkpt>
      <trkpt lat="44.08632" lon="6.21304">
        <ele>590</ele>
        <time>2020-09-15T20:22:54Z</time>
      </trkpt>
      <trkpt lat="44.08622" lon="6.21273">
        <ele>590</ele>
        <time>2020-09-15T20:22:59Z</time>
      </trkpt>
      <trkpt lat="44.08621" lon="6.21268">
        <ele>589</ele>
        <time>2020-09-15T20:22:59Z</time>
      </trkpt>
      <trkpt lat="44.08619" lon="6.21262">
        <ele>589</ele>
        <time>2020-09-15T20:23:00Z</time>
      </trkpt>
      <trkpt lat="44.08616" lon="6.21253">
        <ele>589</ele>
        <time>2020-09-15T20:23:01Z</time>
      </trkpt>
      <trkpt lat="44.08612" lon="6.21242">
        <ele>589</ele>
        <time>2020-09-15T20:23:03Z</time>
      </trkpt>
      <trkpt lat="44.08602" lon="6.2121">
        <ele>588</ele>
        <time>2020-09-15T20:23:08Z</time>
      </trkpt>
      <trkpt lat="44.08593" lon="6.21182">
        <ele>587</ele>
        <time>2020-09-15T20:23:11Z</time>
      </trkpt>
      <trkpt lat="44.08587" lon="6.21163">
        <ele>586</ele>
        <time>2020-09-15T20:23:14Z</time>
      </trkpt>
      <trkpt lat="44.08572" lon="6.21115">
        <ele>586</ele>
        <time>2020-09-15T20:23:21Z</time>
      </trkpt>
      <trkpt lat="44.08554" lon="6.21053">
        <ele>586</ele>
        <time>2020-09-15T20:23:29Z</time>
      </trkpt>
      <trkpt lat="44.08552" lon="6.21046">
        <ele>586</ele>
        <time>2020-09-15T20:23:30Z</time>
      </trkpt>
      <trkpt lat="44.08536" lon="6.20993">
        <ele>586</ele>
        <time>2020-09-15T20:23:38Z</time>
      </trkpt>
      <trkpt lat="44.08526" lon="6.20962">
        <ele>586</ele>
        <time>2020-09-15T20:23:42Z</time>
      </trkpt>
      <trkpt lat="44.08525" lon="6.20953">
        <ele>586</ele>
        <time>2020-09-15T20:23:43Z</time>
      </trkpt>
      <trkpt lat="44.08524" lon="6.20932">
        <ele>586</ele>
        <time>2020-09-15T20:23:46Z</time>
      </trkpt>
      <trkpt lat="44.08522" lon="6.20924">
        <ele>586</ele>
        <time>2020-09-15T20:23:47Z</time>
      </trkpt>
      <trkpt lat="44.08519" lon="6.20914">
        <ele>586</ele>
        <time>2020-09-15T20:23:48Z</time>
      </trkpt>
      <trkpt lat="44.08516" lon="6.20906">
        <ele>586</ele>
        <time>2020-09-15T20:23:49Z</time>
      </trkpt>
      <trkpt lat="44.08511" lon="6.20896">
        <ele>585</ele>
        <time>2020-09-15T20:23:51Z</time>
      </trkpt>
      <trkpt lat="44.08507" lon="6.20889">
        <ele>585</ele>
        <time>2020-09-15T20:23:52Z</time>
      </trkpt>
      <trkpt lat="44.08506" lon="6.20886">
        <ele>585</ele>
        <time>2020-09-15T20:23:53Z</time>
      </trkpt>
      <trkpt lat="44.08493" lon="6.20859">
        <ele>584</ele>
        <time>2020-09-15T20:23:57Z</time>
      </trkpt>
      <trkpt lat="44.08484" lon="6.20836">
        <ele>583</ele>
        <time>2020-09-15T20:24:00Z</time>
      </trkpt>
      <trkpt lat="44.08481" lon="6.20822">
        <ele>583</ele>
        <time>2020-09-15T20:24:02Z</time>
      </trkpt>
      <trkpt lat="44.0847" lon="6.20786">
        <ele>582</ele>
        <time>2020-09-15T20:24:07Z</time>
      </trkpt>
      <trkpt lat="44.08465" lon="6.20771">
        <ele>582</ele>
        <time>2020-09-15T20:24:09Z</time>
      </trkpt>
      <trkpt lat="44.08464" lon="6.20766">
        <ele>582</ele>
        <time>2020-09-15T20:24:10Z</time>
      </trkpt>
      <trkpt lat="44.0846" lon="6.20755">
        <ele>582</ele>
        <time>2020-09-15T20:24:11Z</time>
      </trkpt>
      <trkpt lat="44.08456" lon="6.20742">
        <ele>582</ele>
        <time>2020-09-15T20:24:13Z</time>
      </trkpt>
      <trkpt lat="44.08453" lon="6.20734">
        <ele>582</ele>
        <time>2020-09-15T20:24:14Z</time>
      </trkpt>
      <trkpt lat="44.0845" lon="6.20726">
        <ele>582</ele>
        <time>2020-09-15T20:24:15Z</time>
      </trkpt>
      <trkpt lat="44.08445" lon="6.20708">
        <ele>581</ele>
        <time>2020-09-15T20:24:18Z</time>
      </trkpt>
      <trkpt lat="44.08443" lon="6.20702">
        <ele>581</ele>
        <time>2020-09-15T20:24:19Z</time>
      </trkpt>
      <trkpt lat="44.08441" lon="6.20697">
        <ele>581</ele>
        <time>2020-09-15T20:24:19Z</time>
      </trkpt>
      <trkpt lat="44.08438" lon="6.20687">
        <ele>581</ele>
        <time>2020-09-15T20:24:21Z</time>
      </trkpt>
      <trkpt lat="44.08436" lon="6.20679">
        <ele>581</ele>
        <time>2020-09-15T20:24:22Z</time>
      </trkpt>
      <trkpt lat="44.08432" lon="6.20667">
        <ele>581</ele>
        <time>2020-09-15T20:24:24Z</time>
      </trkpt>
      <trkpt lat="44.08427" lon="6.20651">
        <ele>581</ele>
        <time>2020-09-15T20:24:26Z</time>
      </trkpt>
      <trkpt lat="44.08425" lon="6.20644">
        <ele>581</ele>
        <time>2020-09-15T20:24:27Z</time>
      </trkpt>
      <trkpt lat="44.0841" lon="6.20596">
        <ele>581</ele>
        <time>2020-09-15T20:24:33Z</time>
      </trkpt>
      <trkpt lat="44.08397" lon="6.20556">
        <ele>581</ele>
        <time>2020-09-15T20:24:39Z</time>
      </trkpt>
      <trkpt lat="44.08395" lon="6.20548">
        <ele>581</ele>
        <time>2020-09-15T20:24:40Z</time>
      </trkpt>
      <trkpt lat="44.0839" lon="6.20533">
        <ele>582</ele>
        <time>2020-09-15T20:24:42Z</time>
      </trkpt>
      <trkpt lat="44.08385" lon="6.20518">
        <ele>582</ele>
        <time>2020-09-15T20:24:44Z</time>
      </trkpt>
      <trkpt lat="44.08382" lon="6.2051">
        <ele>582</ele>
        <time>2020-09-15T20:24:46Z</time>
      </trkpt>
      <trkpt lat="44.08378" lon="6.20498">
        <ele>582</ele>
        <time>2020-09-15T20:24:47Z</time>
      </trkpt>
      <trkpt lat="44.0837" lon="6.20471">
        <ele>582</ele>
        <time>2020-09-15T20:24:51Z</time>
      </trkpt>
      <trkpt lat="44.08368" lon="6.20468">
        <ele>582</ele>
        <time>2020-09-15T20:24:52Z</time>
      </trkpt>
      <trkpt lat="44.08356" lon="6.20429">
        <ele>582</ele>
        <time>2020-09-15T20:24:57Z</time>
      </trkpt>
      <trkpt lat="44.08352" lon="6.20416">
        <ele>582</ele>
        <time>2020-09-15T20:24:59Z</time>
      </trkpt>
      <trkpt lat="44.08348" lon="6.20402">
        <ele>582</ele>
        <time>2020-09-15T20:25:01Z</time>
      </trkpt>
      <trkpt lat="44.08336" lon="6.20368">
        <ele>582</ele>
        <time>2020-09-15T20:25:06Z</time>
      </trkpt>
      <trkpt lat="44.08308" lon="6.20282">
        <ele>580</ele>
        <time>2020-09-15T20:25:18Z</time>
      </trkpt>
      <trkpt lat="44.08297" lon="6.20244">
        <ele>579</ele>
        <time>2020-09-15T20:25:23Z</time>
      </trkpt>
      <trkpt lat="44.08294" lon="6.20225">
        <ele>579</ele>
        <time>2020-09-15T20:25:25Z</time>
      </trkpt>
      <trkpt lat="44.08286" lon="6.20193">
        <ele>579</ele>
        <time>2020-09-15T20:25:30Z</time>
      </trkpt>
      <trkpt lat="44.08272" lon="6.20168">
        <ele>579</ele>
        <time>2020-09-15T20:25:34Z</time>
      </trkpt>
      <trkpt lat="44.08267" lon="6.20154">
        <ele>578</ele>
        <time>2020-09-15T20:25:36Z</time>
      </trkpt>
      <trkpt lat="44.08205" lon="6.19946">
        <ele>576</ele>
        <time>2020-09-15T20:26:04Z</time>
      </trkpt>
      <trkpt lat="44.08122" lon="6.19644">
        <ele>574</ele>
        <time>2020-09-15T20:26:46Z</time>
      </trkpt>
      <trkpt lat="44.08112" lon="6.19613">
        <ele>574</ele>
        <time>2020-09-15T20:26:50Z</time>
      </trkpt>
      <trkpt lat="44.08101" lon="6.19586">
        <ele>574</ele>
        <time>2020-09-15T20:26:54Z</time>
      </trkpt>
      <trkpt lat="44.08015" lon="6.19379">
        <ele>569</ele>
        <time>2020-09-15T20:27:25Z</time>
      </trkpt>
      <trkpt lat="44.08004" lon="6.19352">
        <ele>568</ele>
        <time>2020-09-15T20:27:29Z</time>
      </trkpt>
      <trkpt lat="44.07999" lon="6.19335">
        <ele>568</ele>
        <time>2020-09-15T20:27:31Z</time>
      </trkpt>
      <trkpt lat="44.07999" lon="6.19329">
        <ele>568</ele>
        <time>2020-09-15T20:27:32Z</time>
      </trkpt>
      <trkpt lat="44.07997" lon="6.1932">
        <ele>568</ele>
        <time>2020-09-15T20:27:33Z</time>
      </trkpt>
      <trkpt lat="44.07989" lon="6.19313">
        <ele>568</ele>
        <time>2020-09-15T20:27:35Z</time>
      </trkpt>
      <trkpt lat="44.07975" lon="6.19287">
        <ele>568</ele>
        <time>2020-09-15T20:27:39Z</time>
      </trkpt>
      <trkpt lat="44.07873" lon="6.19018">
        <ele>571</ele>
        <time>2020-09-15T20:28:18Z</time>
      </trkpt>
      <trkpt lat="44.07837" lon="6.18941">
        <ele>566</ele>
        <time>2020-09-15T20:28:29Z</time>
      </trkpt>
      <trkpt lat="44.07746" lon="6.18759">
        <ele>559</ele>
        <time>2020-09-15T20:28:58Z</time>
      </trkpt>
      <trkpt lat="44.07724" lon="6.18728">
        <ele>559</ele>
        <time>2020-09-15T20:29:03Z</time>
      </trkpt>
      <trkpt lat="44.07718" lon="6.18714">
        <ele>559</ele>
        <time>2020-09-15T20:29:05Z</time>
      </trkpt>
      <trkpt lat="44.07717" lon="6.18706">
        <ele>560</ele>
        <time>2020-09-15T20:29:06Z</time>
      </trkpt>
      <trkpt lat="44.07713" lon="6.18696">
        <ele>560</ele>
        <time>2020-09-15T20:29:08Z</time>
      </trkpt>
      <trkpt lat="44.077" lon="6.1868">
        <ele>560</ele>
        <time>2020-09-15T20:29:11Z</time>
      </trkpt>
      <trkpt lat="44.07686" lon="6.18643">
        <ele>561</ele>
        <time>2020-09-15T20:29:16Z</time>
      </trkpt>
      <trkpt lat="44.07657" lon="6.18584">
        <ele>561</ele>
        <time>2020-09-15T20:29:25Z</time>
      </trkpt>
      <trkpt lat="44.07647" lon="6.18569">
        <ele>560</ele>
        <time>2020-09-15T20:29:28Z</time>
      </trkpt>
      <trkpt lat="44.07598" lon="6.18501">
        <ele>556</ele>
        <time>2020-09-15T20:29:40Z</time>
      </trkpt>
      <trkpt lat="44.0749" lon="6.18365">
        <ele>555</ele>
        <time>2020-09-15T20:30:06Z</time>
      </trkpt>
      <trkpt lat="44.07374" lon="6.18224">
        <ele>555</ele>
        <time>2020-09-15T20:30:34Z</time>
      </trkpt>
      <trkpt lat="44.07278" lon="6.18104">
        <ele>554</ele>
        <time>2020-09-15T20:30:57Z</time>
      </trkpt>
      <trkpt lat="44.07243" lon="6.18053">
        <ele>553</ele>
        <time>2020-09-15T20:31:06Z</time>
      </trkpt>
      <trkpt lat="44.07234" lon="6.18015">
        <ele>554</ele>
        <time>2020-09-15T20:31:11Z</time>
      </trkpt>
      <trkpt lat="44.07235" lon="6.18003">
        <ele>554</ele>
        <time>2020-09-15T20:31:12Z</time>
      </trkpt>
      <trkpt lat="44.0723" lon="6.17991">
        <ele>554</ele>
        <time>2020-09-15T20:31:14Z</time>
      </trkpt>
      <trkpt lat="44.07221" lon="6.17986">
        <ele>554</ele>
        <time>2020-09-15T20:31:16Z</time>
      </trkpt>
      <trkpt lat="44.07211" lon="6.17989">
        <ele>554</ele>
        <time>2020-09-15T20:31:18Z</time>
      </trkpt>
      <trkpt lat="44.07193" lon="6.1799">
        <ele>554</ele>
        <time>2020-09-15T20:31:21Z</time>
      </trkpt>
      <trkpt lat="44.07183" lon="6.17984">
        <ele>554</ele>
        <time>2020-09-15T20:31:23Z</time>
      </trkpt>
      <trkpt lat="44.07159" lon="6.17954">
        <ele>554</ele>
        <time>2020-09-15T20:31:29Z</time>
      </trkpt>
      <trkpt lat="44.07095" lon="6.17875">
        <ele>553</ele>
        <time>2020-09-15T20:31:44Z</time>
      </trkpt>
      <trkpt lat="44.07056" lon="6.17823">
        <ele>553</ele>
        <time>2020-09-15T20:31:53Z</time>
      </trkpt>
      <trkpt lat="44.07036" lon="6.17795">
        <ele>552</ele>
        <time>2020-09-15T20:31:58Z</time>
      </trkpt>
      <trkpt lat="44.07032" lon="6.17789">
        <ele>552</ele>
        <time>2020-09-15T20:31:59Z</time>
      </trkpt>
      <trkpt lat="44.07028" lon="6.17776">
        <ele>552</ele>
        <time>2020-09-15T20:32:01Z</time>
      </trkpt>
      <trkpt lat="44.07025" lon="6.17771">
        <ele>552</ele>
        <time>2020-09-15T20:32:02Z</time>
      </trkpt>
      <trkpt lat="44.07025" lon="6.17766">
        <ele>552</ele>
        <time>2020-09-15T20:32:03Z</time>
      </trkpt>
      <trkpt lat="44.07024" lon="6.17761">
        <ele>552</ele>
        <time>2020-09-15T20:32:03Z</time>
      </trkpt>
      <trkpt lat="44.07021" lon="6.17756">
        <ele>552</ele>
        <time>2020-09-15T20:32:04Z</time>
      </trkpt>
      <trkpt lat="44.07017" lon="6.17753">
        <ele>552</ele>
        <time>2020-09-15T20:32:05Z</time>
      </trkpt>
      <trkpt lat="44.07013" lon="6.17753">
        <ele>551</ele>
        <time>2020-09-15T20:32:06Z</time>
      </trkpt>
      <trkpt lat="44.0701" lon="6.17754">
        <ele>551</ele>
        <time>2020-09-15T20:32:06Z</time>
      </trkpt>
      <trkpt lat="44.07005" lon="6.17751">
        <ele>551</ele>
        <time>2020-09-15T20:32:07Z</time>
      </trkpt>
      <trkpt lat="44.07001" lon="6.17748">
        <ele>551</ele>
        <time>2020-09-15T20:32:08Z</time>
      </trkpt>
      <trkpt lat="44.0699" lon="6.17742">
        <ele>551</ele>
        <time>2020-09-15T20:32:10Z</time>
      </trkpt>
      <trkpt lat="44.06945" lon="6.17687">
        <ele>552</ele>
        <time>2020-09-15T20:32:21Z</time>
      </trkpt>
      <trkpt lat="44.06916" lon="6.17654">
        <ele>551</ele>
        <time>2020-09-15T20:32:28Z</time>
      </trkpt>
      <trkpt lat="44.06907" lon="6.17643">
        <ele>551</ele>
        <time>2020-09-15T20:32:30Z</time>
      </trkpt>
      <trkpt lat="44.06866" lon="6.17597">
        <ele>551</ele>
        <time>2020-09-15T20:32:39Z</time>
      </trkpt>
      <trkpt lat="44.06862" lon="6.17592">
        <ele>551</ele>
        <time>2020-09-15T20:32:40Z</time>
      </trkpt>
      <trkpt lat="44.06833" lon="6.17555">
        <ele>551</ele>
        <time>2020-09-15T20:32:47Z</time>
      </trkpt>
      <trkpt lat="44.06823" lon="6.17541">
        <ele>551</ele>
        <time>2020-09-15T20:32:50Z</time>
      </trkpt>
      <trkpt lat="44.06803" lon="6.17517">
        <ele>550</ele>
        <time>2020-09-15T20:32:54Z</time>
      </trkpt>
      <trkpt lat="44.06797" lon="6.17509">
        <ele>550</ele>
        <time>2020-09-15T20:32:56Z</time>
      </trkpt>
      <trkpt lat="44.0673" lon="6.17428">
        <ele>548</ele>
        <time>2020-09-15T20:33:11Z</time>
      </trkpt>
      <trkpt lat="44.06703" lon="6.17393">
        <ele>547</ele>
        <time>2020-09-15T20:33:18Z</time>
      </trkpt>
      <trkpt lat="44.06702" lon="6.17391">
        <ele>547</ele>
        <time>2020-09-15T20:33:18Z</time>
      </trkpt>
      <trkpt lat="44.06686" lon="6.17369">
        <ele>547</ele>
        <time>2020-09-15T20:33:22Z</time>
      </trkpt>
      <trkpt lat="44.0665" lon="6.17304">
        <ele>546</ele>
        <time>2020-09-15T20:33:33Z</time>
      </trkpt>
      <trkpt lat="44.06641" lon="6.17289">
        <ele>545</ele>
        <time>2020-09-15T20:33:35Z</time>
      </trkpt>
      <trkpt lat="44.06626" lon="6.17265">
        <ele>544</ele>
        <time>2020-09-15T20:33:39Z</time>
      </trkpt>
      <trkpt lat="44.06621" lon="6.17258">
        <ele>544</ele>
        <time>2020-09-15T20:33:41Z</time>
      </trkpt>
      <trkpt lat="44.06619" lon="6.17251">
        <ele>544</ele>
        <time>2020-09-15T20:33:42Z</time>
      </trkpt>
      <trkpt lat="44.06612" lon="6.17239">
        <ele>544</ele>
        <time>2020-09-15T20:33:44Z</time>
      </trkpt>
      <trkpt lat="44.06608" lon="6.17235">
        <ele>544</ele>
        <time>2020-09-15T20:33:44Z</time>
      </trkpt>
      <trkpt lat="44.06603" lon="6.17232">
        <ele>544</ele>
        <time>2020-09-15T20:33:45Z</time>
      </trkpt>
      <trkpt lat="44.06593" lon="6.17228">
        <ele>544</ele>
        <time>2020-09-15T20:33:47Z</time>
      </trkpt>
      <trkpt lat="44.06588" lon="6.17229">
        <ele>543</ele>
        <time>2020-09-15T20:33:48Z</time>
      </trkpt>
      <trkpt lat="44.06576" lon="6.17223">
        <ele>543</ele>
        <time>2020-09-15T20:33:50Z</time>
      </trkpt>
      <trkpt lat="44.06565" lon="6.17211">
        <ele>543</ele>
        <time>2020-09-15T20:33:53Z</time>
      </trkpt>
      <trkpt lat="44.06523" lon="6.17145">
        <ele>545</ele>
        <time>2020-09-15T20:34:04Z</time>
      </trkpt>
      <trkpt lat="44.06509" lon="6.17131">
        <ele>546</ele>
        <time>2020-09-15T20:34:07Z</time>
      </trkpt>
      <trkpt lat="44.06499" lon="6.17118">
        <ele>547</ele>
        <time>2020-09-15T20:34:10Z</time>
      </trkpt>
      <trkpt lat="44.06474" lon="6.1709">
        <ele>548</ele>
        <time>2020-09-15T20:34:15Z</time>
      </trkpt>
      <trkpt lat="44.06398" lon="6.17015">
        <ele>545</ele>
        <time>2020-09-15T20:34:32Z</time>
      </trkpt>
      <trkpt lat="44.06375" lon="6.16992">
        <ele>545</ele>
        <time>2020-09-15T20:34:37Z</time>
      </trkpt>
      <trkpt lat="44.06322" lon="6.16939">
        <ele>544</ele>
        <time>2020-09-15T20:34:49Z</time>
      </trkpt>
      <trkpt lat="44.06261" lon="6.16879">
        <ele>543</ele>
        <time>2020-09-15T20:35:02Z</time>
      </trkpt>
      <trkpt lat="44.06228" lon="6.16841">
        <ele>545</ele>
        <time>2020-09-15T20:35:10Z</time>
      </trkpt>
      <trkpt lat="44.06072" lon="6.16626">
        <ele>541</ele>
        <time>2020-09-15T20:35:49Z</time>
      </trkpt>
      <trkpt lat="44.06036" lon="6.16577">
        <ele>542</ele>
        <time>2020-09-15T20:35:58Z</time>
      </trkpt>
      <trkpt lat="44.05807" lon="6.16284">
        <ele>531</ele>
        <time>2020-09-15T20:36:53Z</time>
      </trkpt>
      <trkpt lat="44.05596" lon="6.16017">
        <ele>529</ele>
        <time>2020-09-15T20:37:44Z</time>
      </trkpt>
      <trkpt lat="44.05467" lon="6.15852">
        <ele>533</ele>
        <time>2020-09-15T20:38:15Z</time>
      </trkpt>
      <trkpt lat="44.05452" lon="6.15832">
        <ele>534</ele>
        <time>2020-09-15T20:38:19Z</time>
      </trkpt>
      <trkpt lat="44.05426" lon="6.15792">
        <ele>536</ele>
        <time>2020-09-15T20:38:25Z</time>
      </trkpt>
      <trkpt lat="44.05417" lon="6.15773">
        <ele>536</ele>
        <time>2020-09-15T20:38:28Z</time>
      </trkpt>
      <trkpt lat="44.05408" lon="6.15754">
        <ele>536</ele>
        <time>2020-09-15T20:38:31Z</time>
      </trkpt>
      <trkpt lat="44.05391" lon="6.15707">
        <ele>537</ele>
        <time>2020-09-15T20:38:38Z</time>
      </trkpt>
      <trkpt lat="44.05384" lon="6.15684">
        <ele>537</ele>
        <time>2020-09-15T20:38:41Z</time>
      </trkpt>
      <trkpt lat="44.05373" lon="6.15633">
        <ele>536</ele>
        <time>2020-09-15T20:38:48Z</time>
      </trkpt>
      <trkpt lat="44.05366" lon="6.15569">
        <ele>534</ele>
        <time>2020-09-15T20:38:56Z</time>
      </trkpt>
      <trkpt lat="44.05363" lon="6.15503">
        <ele>533</ele>
        <time>2020-09-15T20:39:05Z</time>
      </trkpt>
      <trkpt lat="44.05361" lon="6.15436">
        <ele>533</ele>
        <time>2020-09-15T20:39:13Z</time>
      </trkpt>
      <trkpt lat="44.05356" lon="6.15393">
        <ele>534</ele>
        <time>2020-09-15T20:39:19Z</time>
      </trkpt>
      <trkpt lat="44.05352" lon="6.15374">
        <ele>534</ele>
        <time>2020-09-15T20:39:21Z</time>
      </trkpt>
      <trkpt lat="44.05342" lon="6.15342">
        <ele>534</ele>
        <time>2020-09-15T20:39:26Z</time>
      </trkpt>
      <trkpt lat="44.05328" lon="6.15307">
        <ele>534</ele>
        <time>2020-09-15T20:39:31Z</time>
      </trkpt>
      <trkpt lat="44.05297" lon="6.15254">
        <ele>534</ele>
        <time>2020-09-15T20:39:40Z</time>
      </trkpt>
      <trkpt lat="44.05263" lon="6.15202">
        <ele>533</ele>
        <time>2020-09-15T20:39:49Z</time>
      </trkpt>
      <trkpt lat="44.0518" lon="6.15076">
        <ele>529</ele>
        <time>2020-09-15T20:40:11Z</time>
      </trkpt>
      <trkpt lat="44.05143" lon="6.15016">
        <ele>529</ele>
        <time>2020-09-15T20:40:21Z</time>
      </trkpt>
      <trkpt lat="44.05129" lon="6.14989">
        <ele>529</ele>
        <time>2020-09-15T20:40:25Z</time>
      </trkpt>
      <trkpt lat="44.05115" lon="6.14957">
        <ele>529</ele>
        <time>2020-09-15T20:40:30Z</time>
      </trkpt>
      <trkpt lat="44.05101" lon="6.14927">
        <ele>529</ele>
        <time>2020-09-15T20:40:34Z</time>
      </trkpt>
      <trkpt lat="44.05096" lon="6.14915">
        <ele>529</ele>
        <time>2020-09-15T20:40:36Z</time>
      </trkpt>
      <trkpt lat="44.05092" lon="6.14904">
        <ele>529</ele>
        <time>2020-09-15T20:40:38Z</time>
      </trkpt>
      <trkpt lat="44.05044" lon="6.14787">
        <ele>528</ele>
        <time>2020-09-15T20:40:55Z</time>
      </trkpt>
      <trkpt lat="44.04989" lon="6.14658">
        <ele>526</ele>
        <time>2020-09-15T20:41:14Z</time>
      </trkpt>
      <trkpt lat="44.04985" lon="6.14648">
        <ele>526</ele>
        <time>2020-09-15T20:41:16Z</time>
      </trkpt>
      <trkpt lat="44.04982" lon="6.14642">
        <ele>526</ele>
        <time>2020-09-15T20:41:17Z</time>
      </trkpt>
      <trkpt lat="44.0498" lon="6.14636">
        <ele>526</ele>
        <time>2020-09-15T20:41:17Z</time>
      </trkpt>
      <trkpt lat="44.04968" lon="6.14603">
        <ele>524</ele>
        <time>2020-09-15T20:41:22Z</time>
      </trkpt>
      <trkpt lat="44.04953" lon="6.14553">
        <ele>523</ele>
        <time>2020-09-15T20:41:29Z</time>
      </trkpt>
      <trkpt lat="44.04948" lon="6.14532">
        <ele>523</ele>
        <time>2020-09-15T20:41:32Z</time>
      </trkpt>
      <trkpt lat="44.04945" lon="6.14516">
        <ele>522</ele>
        <time>2020-09-15T20:41:34Z</time>
      </trkpt>
      <trkpt lat="44.04941" lon="6.14485">
        <ele>523</ele>
        <time>2020-09-15T20:41:38Z</time>
      </trkpt>
      <trkpt lat="44.04938" lon="6.14455">
        <ele>523</ele>
        <time>2020-09-15T20:41:42Z</time>
      </trkpt>
      <trkpt lat="44.04931" lon="6.14317">
        <ele>524</ele>
        <time>2020-09-15T20:42:00Z</time>
      </trkpt>
      <trkpt lat="44.0492" lon="6.14259">
        <ele>524</ele>
        <time>2020-09-15T20:42:07Z</time>
      </trkpt>
      <trkpt lat="44.04909" lon="6.14212">
        <ele>524</ele>
        <time>2020-09-15T20:42:14Z</time>
      </trkpt>
      <trkpt lat="44.04868" lon="6.14072">
        <ele>524</ele>
        <time>2020-09-15T20:42:33Z</time>
      </trkpt>
      <trkpt lat="44.04859" lon="6.14038">
        <ele>523</ele>
        <time>2020-09-15T20:42:38Z</time>
      </trkpt>
      <trkpt lat="44.04855" lon="6.14028">
        <ele>523</ele>
        <time>2020-09-15T20:42:39Z</time>
      </trkpt>
      <trkpt lat="44.04852" lon="6.14018">
        <ele>523</ele>
        <time>2020-09-15T20:42:40Z</time>
      </trkpt>
      <trkpt lat="44.04843" lon="6.13997">
        <ele>522</ele>
        <time>2020-09-15T20:42:43Z</time>
      </trkpt>
      <trkpt lat="44.04824" lon="6.13959">
        <ele>522</ele>
        <time>2020-09-15T20:42:49Z</time>
      </trkpt>
      <trkpt lat="44.04789" lon="6.13902">
        <ele>521</ele>
        <time>2020-09-15T20:42:59Z</time>
      </trkpt>
      <trkpt lat="44.04773" lon="6.13878">
        <ele>520</ele>
        <time>2020-09-15T20:43:03Z</time>
      </trkpt>
      <trkpt lat="44.04756" lon="6.13855">
        <ele>520</ele>
        <time>2020-09-15T20:43:07Z</time>
      </trkpt>
      <trkpt lat="44.04717" lon="6.13792">
        <ele>518</ele>
        <time>2020-09-15T20:43:18Z</time>
      </trkpt>
      <trkpt lat="44.04709" lon="6.13778">
        <ele>517</ele>
        <time>2020-09-15T20:43:20Z</time>
      </trkpt>
      <trkpt lat="44.047" lon="6.13761">
        <ele>517</ele>
        <time>2020-09-15T20:43:23Z</time>
      </trkpt>
      <trkpt lat="44.04693" lon="6.13746">
        <ele>517</ele>
        <time>2020-09-15T20:43:25Z</time>
      </trkpt>
      <trkpt lat="44.04689" lon="6.13736">
        <ele>517</ele>
        <time>2020-09-15T20:43:27Z</time>
      </trkpt>
      <trkpt lat="44.0468" lon="6.13713">
        <ele>516</ele>
        <time>2020-09-15T20:43:30Z</time>
      </trkpt>
      <trkpt lat="44.04676" lon="6.13703">
        <ele>516</ele>
        <time>2020-09-15T20:43:32Z</time>
      </trkpt>
      <trkpt lat="44.04664" lon="6.13662">
        <ele>516</ele>
        <time>2020-09-15T20:43:37Z</time>
      </trkpt>
      <trkpt lat="44.04655" lon="6.13627">
        <ele>515</ele>
        <time>2020-09-15T20:43:42Z</time>
      </trkpt>
      <trkpt lat="44.04645" lon="6.13584">
        <ele>514</ele>
        <time>2020-09-15T20:43:48Z</time>
      </trkpt>
      <trkpt lat="44.04634" lon="6.13551">
        <ele>514</ele>
        <time>2020-09-15T20:43:52Z</time>
      </trkpt>
      <trkpt lat="44.04621" lon="6.13523">
        <ele>514</ele>
        <time>2020-09-15T20:43:57Z</time>
      </trkpt>
      <trkpt lat="44.04612" lon="6.13506">
        <ele>513</ele>
        <time>2020-09-15T20:43:59Z</time>
      </trkpt>
      <trkpt lat="44.04583" lon="6.13454">
        <ele>513</ele>
        <time>2020-09-15T20:44:08Z</time>
      </trkpt>
      <trkpt lat="44.04561" lon="6.13417">
        <ele>515</ele>
        <time>2020-09-15T20:44:14Z</time>
      </trkpt>
      <trkpt lat="44.0446" lon="6.13248">
        <ele>514</ele>
        <time>2020-09-15T20:44:42Z</time>
      </trkpt>
      <trkpt lat="44.04444" lon="6.1322">
        <ele>513</ele>
        <time>2020-09-15T20:44:47Z</time>
      </trkpt>
      <trkpt lat="44.04423" lon="6.13186">
        <ele>511</ele>
        <time>2020-09-15T20:44:52Z</time>
      </trkpt>
      <trkpt lat="44.04403" lon="6.13142">
        <ele>510</ele>
        <time>2020-09-15T20:44:59Z</time>
      </trkpt>
      <trkpt lat="44.04381" lon="6.13067">
        <ele>510</ele>
        <time>2020-09-15T20:45:09Z</time>
      </trkpt>
      <trkpt lat="44.04372" lon="6.13033">
        <ele>509</ele>
        <time>2020-09-15T20:45:14Z</time>
      </trkpt>
      <trkpt lat="44.0437" lon="6.13025">
        <ele>509</ele>
        <time>2020-09-15T20:45:15Z</time>
      </trkpt>
      <trkpt lat="44.04363" lon="6.13005">
        <ele>509</ele>
        <time>2020-09-15T20:45:18Z</time>
      </trkpt>
      <trkpt lat="44.04356" lon="6.12985">
        <ele>509</ele>
        <time>2020-09-15T20:45:21Z</time>
      </trkpt>
      <trkpt lat="44.04347" lon="6.12961">
        <ele>508</ele>
        <time>2020-09-15T20:45:24Z</time>
      </trkpt>
      <trkpt lat="44.04332" lon="6.12924">
        <ele>508</ele>
        <time>2020-09-15T20:45:30Z</time>
      </trkpt>
      <trkpt lat="44.04312" lon="6.12879">
        <ele>508</ele>
        <time>2020-09-15T20:45:36Z</time>
      </trkpt>
      <trkpt lat="44.04291" lon="6.12838">
        <ele>507</ele>
        <time>2020-09-15T20:45:43Z</time>
      </trkpt>
      <trkpt lat="44.04282" lon="6.12822">
        <ele>507</ele>
        <time>2020-09-15T20:45:45Z</time>
      </trkpt>
      <trkpt lat="44.04273" lon="6.12807">
        <ele>507</ele>
        <time>2020-09-15T20:45:48Z</time>
      </trkpt>
      <trkpt lat="44.04257" lon="6.12781">
        <ele>506</ele>
        <time>2020-09-15T20:45:52Z</time>
      </trkpt>
      <trkpt lat="44.04246" lon="6.12764">
        <ele>506</ele>
        <time>2020-09-15T20:45:55Z</time>
      </trkpt>
      <trkpt lat="44.04238" lon="6.12752">
        <ele>506</ele>
        <time>2020-09-15T20:45:57Z</time>
      </trkpt>
      <trkpt lat="44.04232" lon="6.12743">
        <ele>506</ele>
        <time>2020-09-15T20:45:59Z</time>
      </trkpt>
      <trkpt lat="44.04226" lon="6.12735">
        <ele>506</ele>
        <time>2020-09-15T20:46:00Z</time>
      </trkpt>
      <trkpt lat="44.04211" lon="6.12712">
        <ele>506</ele>
        <time>2020-09-15T20:46:04Z</time>
      </trkpt>
      <trkpt lat="44.04177" lon="6.12662">
        <ele>506</ele>
        <time>2020-09-15T20:46:13Z</time>
      </trkpt>
      <trkpt lat="44.0417" lon="6.12649">
        <ele>506</ele>
        <time>2020-09-15T20:46:15Z</time>
      </trkpt>
      <trkpt lat="44.04164" lon="6.12633">
        <ele>506</ele>
        <time>2020-09-15T20:46:18Z</time>
      </trkpt>
      <trkpt lat="44.04161" lon="6.12621">
        <ele>506</ele>
        <time>2020-09-15T20:46:19Z</time>
      </trkpt>
      <trkpt lat="44.0416" lon="6.12612">
        <ele>506</ele>
        <time>2020-09-15T20:46:20Z</time>
      </trkpt>
      <trkpt lat="44.04161" lon="6.1261">
        <ele>506</ele>
        <time>2020-09-15T20:46:21Z</time>
      </trkpt>
      <trkpt lat="44.04161" lon="6.12607">
        <ele>506</ele>
        <time>2020-09-15T20:46:21Z</time>
      </trkpt>
      <trkpt lat="44.04162" lon="6.12604">
        <ele>506</ele>
        <time>2020-09-15T20:46:22Z</time>
      </trkpt>
      <trkpt lat="44.04169" lon="6.12578">
        <ele>507</ele>
        <time>2020-09-15T20:46:25Z</time>
      </trkpt>
      <trkpt lat="44.04174" lon="6.12574">
        <ele>507</ele>
        <time>2020-09-15T20:46:26Z</time>
      </trkpt>
      <trkpt lat="44.04193" lon="6.12569">
        <ele>508</ele>
        <time>2020-09-15T20:46:30Z</time>
      </trkpt>
      <trkpt lat="44.04204" lon="6.12559">
        <ele>509</ele>
        <time>2020-09-15T20:46:32Z</time>
      </trkpt>
      <trkpt lat="44.04199" lon="6.12553">
        <ele>509</ele>
        <time>2020-09-15T20:46:33Z</time>
      </trkpt>
      <trkpt lat="44.0419" lon="6.12544">
        <ele>509</ele>
        <time>2020-09-15T20:46:35Z</time>
      </trkpt>
      <trkpt lat="44.04106" lon="6.12448">
        <ele>507</ele>
        <time>2020-09-15T20:46:54Z</time>
      </trkpt>
      <trkpt lat="44.03948" lon="6.12256">
        <ele>504</ele>
        <time>2020-09-15T20:47:32Z</time>
      </trkpt>
      <trkpt lat="44.03937" lon="6.1224">
        <ele>504</ele>
        <time>2020-09-15T20:47:35Z</time>
      </trkpt>
      <trkpt lat="44.03912" lon="6.12198">
        <ele>505</ele>
        <time>2020-09-15T20:47:41Z</time>
      </trkpt>
      <trkpt lat="44.03893" lon="6.12156">
        <ele>505</ele>
        <time>2020-09-15T20:47:48Z</time>
      </trkpt>
      <trkpt lat="44.03868" lon="6.12094">
        <ele>503</ele>
        <time>2020-09-15T20:47:57Z</time>
      </trkpt>
      <trkpt lat="44.03851" lon="6.1204">
        <ele>500</ele>
        <time>2020-09-15T20:48:04Z</time>
      </trkpt>
      <trkpt lat="44.03838" lon="6.11984">
        <ele>499</ele>
        <time>2020-09-15T20:48:12Z</time>
      </trkpt>
      <trkpt lat="44.03758" lon="6.11438">
        <ele>496</ele>
        <time>2020-09-15T20:49:23Z</time>
      </trkpt>
      <trkpt lat="44.03736" lon="6.11314">
        <ele>496</ele>
        <time>2020-09-15T20:49:40Z</time>
      </trkpt>
      <trkpt lat="44.03702" lon="6.11144">
        <ele>493</ele>
        <time>2020-09-15T20:50:02Z</time>
      </trkpt>
      <trkpt lat="44.03655" lon="6.10927">
        <ele>491</ele>
        <time>2020-09-15T20:50:31Z</time>
      </trkpt>
      <trkpt lat="44.03645" lon="6.10873">
        <ele>491</ele>
        <time>2020-09-15T20:50:38Z</time>
      </trkpt>
      <trkpt lat="44.03592" lon="6.10632">
        <ele>490</ele>
        <time>2020-09-15T20:51:11Z</time>
      </trkpt>
      <trkpt lat="44.03574" lon="6.10538">
        <ele>489</ele>
        <time>2020-09-15T20:51:23Z</time>
      </trkpt>
      <trkpt lat="44.03565" lon="6.10537">
        <ele>489</ele>
        <time>2020-09-15T20:51:25Z</time>
      </trkpt>
      <trkpt lat="44.03526" lon="6.10552">
        <ele>488</ele>
        <time>2020-09-15T20:51:32Z</time>
      </trkpt>
      <trkpt lat="44.03523" lon="6.1054">
        <ele>488</ele>
        <time>2020-09-15T20:51:33Z</time>
      </trkpt>
      <trkpt lat="44.03501" lon="6.10426">
        <ele>488</ele>
        <time>2020-09-15T20:51:49Z</time>
      </trkpt>
      <trkpt lat="44.03443" lon="6.10141">
        <ele>486</ele>
        <time>2020-09-15T20:52:26Z</time>
      </trkpt>
      <trkpt lat="44.03436" lon="6.10106">
        <ele>486</ele>
        <time>2020-09-15T20:52:31Z</time>
      </trkpt>
      <trkpt lat="44.03428" lon="6.10063">
        <ele>486</ele>
        <time>2020-09-15T20:52:37Z</time>
      </trkpt>
      <trkpt lat="44.03372" lon="6.09788">
        <ele>484</ele>
        <time>2020-09-15T20:53:13Z</time>
      </trkpt>
      <trkpt lat="44.03363" lon="6.09744">
        <ele>484</ele>
        <time>2020-09-15T20:53:19Z</time>
      </trkpt>
      <trkpt lat="44.03293" lon="6.09386">
        <ele>489</ele>
        <time>2020-09-15T20:54:07Z</time>
      </trkpt>
      <trkpt lat="44.03289" lon="6.0936">
        <ele>489</ele>
        <time>2020-09-15T20:54:10Z</time>
      </trkpt>
      <trkpt lat="44.03287" lon="6.09324">
        <ele>490</ele>
        <time>2020-09-15T20:54:15Z</time>
      </trkpt>
      <trkpt lat="44.03289" lon="6.09288">
        <ele>490</ele>
        <time>2020-09-15T20:54:19Z</time>
      </trkpt>
      <trkpt lat="44.03292" lon="6.09264">
        <ele>490</ele>
        <time>2020-09-15T20:54:22Z</time>
      </trkpt>
      <trkpt lat="44.03327" lon="6.09063">
        <ele>483</ele>
        <time>2020-09-15T20:54:49Z</time>
      </trkpt>
      <trkpt lat="44.03338" lon="6.09016">
        <ele>482</ele>
        <time>2020-09-15T20:54:55Z</time>
      </trkpt>
      <trkpt lat="44.03388" lon="6.08869">
        <ele>481</ele>
        <time>2020-09-15T20:55:16Z</time>
      </trkpt>
      <trkpt lat="44.0342" lon="6.08762">
        <ele>481</ele>
        <time>2020-09-15T20:55:31Z</time>
      </trkpt>
      <trkpt lat="44.03452" lon="6.08637">
        <ele>480</ele>
        <time>2020-09-15T20:55:48Z</time>
      </trkpt>
      <trkpt lat="44.0347" lon="6.08579">
        <ele>479</ele>
        <time>2020-09-15T20:55:56Z</time>
      </trkpt>
      <trkpt lat="44.03482" lon="6.08546">
        <ele>477</ele>
        <time>2020-09-15T20:56:01Z</time>
      </trkpt>
      <trkpt lat="44.03522" lon="6.08458">
        <ele>475</ele>
        <time>2020-09-15T20:56:14Z</time>
      </trkpt>
      <trkpt lat="44.03568" lon="6.08343">
        <ele>473</ele>
        <time>2020-09-15T20:56:31Z</time>
      </trkpt>
      <trkpt lat="44.03596" lon="6.08278">
        <ele>471</ele>
        <time>2020-09-15T20:56:40Z</time>
      </trkpt>
      <trkpt lat="44.03634" lon="6.08193">
        <ele>472</ele>
        <time>2020-09-15T20:56:53Z</time>
      </trkpt>
      <trkpt lat="44.0369" lon="6.0808">
        <ele>474</ele>
        <time>2020-09-15T20:57:11Z</time>
      </trkpt>
      <trkpt lat="44.03697" lon="6.08066">
        <ele>473</ele>
        <time>2020-09-15T20:57:13Z</time>
      </trkpt>
      <trkpt lat="44.03866" lon="6.07742">
        <ele>466</ele>
        <time>2020-09-15T20:58:04Z</time>
      </trkpt>
      <trkpt lat="44.03878" lon="6.07721">
        <ele>466</ele>
        <time>2020-09-15T20:58:08Z</time>
      </trkpt>
      <trkpt lat="44.03935" lon="6.07624">
        <ele>467</ele>
        <time>2020-09-15T20:58:24Z</time>
      </trkpt>
      <trkpt lat="44.03953" lon="6.07587">
        <ele>468</ele>
        <time>2020-09-15T20:58:29Z</time>
      </trkpt>
      <trkpt lat="44.04002" lon="6.07456">
        <ele>464</ele>
        <time>2020-09-15T20:58:48Z</time>
      </trkpt>
      <trkpt lat="44.04015" lon="6.07421">
        <ele>463</ele>
        <time>2020-09-15T20:58:53Z</time>
      </trkpt>
      <trkpt lat="44.0403" lon="6.07372">
        <ele>461</ele>
        <time>2020-09-15T20:59:00Z</time>
      </trkpt>
      <trkpt lat="44.04043" lon="6.07298">
        <ele>459</ele>
        <time>2020-09-15T20:59:10Z</time>
      </trkpt>
      <trkpt lat="44.04054" lon="6.07246">
        <ele>458</ele>
        <time>2020-09-15T20:59:17Z</time>
      </trkpt>
      <trkpt lat="44.04068" lon="6.07202">
        <ele>459</ele>
        <time>2020-09-15T20:59:23Z</time>
      </trkpt>
      <trkpt lat="44.04191" lon="6.06877">
        <ele>457</ele>
        <time>2020-09-15T21:00:10Z</time>
      </trkpt>
      <trkpt lat="44.04229" lon="6.06769">
        <ele>457</ele>
        <time>2020-09-15T21:00:25Z</time>
      </trkpt>
      <trkpt lat="44.0431" lon="6.06522">
        <ele>459</ele>
        <time>2020-09-15T21:01:00Z</time>
      </trkpt>
      <trkpt lat="44.0432" lon="6.06492">
        <ele>460</ele>
        <time>2020-09-15T21:01:04Z</time>
      </trkpt>
      <trkpt lat="44.04455" lon="6.06076">
        <ele>456</ele>
        <time>2020-09-15T21:02:03Z</time>
      </trkpt>
      <trkpt lat="44.04478" lon="6.05999">
        <ele>455</ele>
        <time>2020-09-15T21:02:13Z</time>
      </trkpt>
      <trkpt lat="44.04491" lon="6.05947">
        <ele>454</ele>
        <time>2020-09-15T21:02:20Z</time>
      </trkpt>
      <trkpt lat="44.04507" lon="6.05876">
        <ele>454</ele>
        <time>2020-09-15T21:02:30Z</time>
      </trkpt>
      <trkpt lat="44.0452" lon="6.05806">
        <ele>454</ele>
        <time>2020-09-15T21:02:39Z</time>
      </trkpt>
      <trkpt lat="44.0454" lon="6.05669">
        <ele>450</ele>
        <time>2020-09-15T21:02:57Z</time>
      </trkpt>
      <trkpt lat="44.0457" lon="6.05436">
        <ele>452</ele>
        <time>2020-09-15T21:03:27Z</time>
      </trkpt>
      <trkpt lat="44.04574" lon="6.05408">
        <ele>453</ele>
        <time>2020-09-15T21:03:31Z</time>
      </trkpt>
      <trkpt lat="44.04652" lon="6.04885">
        <ele>442</ele>
        <time>2020-09-15T21:04:39Z</time>
      </trkpt>
      <trkpt lat="44.04657" lon="6.0485">
        <ele>442</ele>
        <time>2020-09-15T21:04:44Z</time>
      </trkpt>
      <trkpt lat="44.04661" lon="6.04805">
        <ele>442</ele>
        <time>2020-09-15T21:04:49Z</time>
      </trkpt>
      <trkpt lat="44.0466" lon="6.04757">
        <ele>442</ele>
        <time>2020-09-15T21:04:56Z</time>
      </trkpt>
      <trkpt lat="44.04653" lon="6.04696">
        <ele>443</ele>
        <time>2020-09-15T21:05:04Z</time>
      </trkpt>
      <trkpt lat="44.04637" lon="6.04625">
        <ele>442</ele>
        <time>2020-09-15T21:05:13Z</time>
      </trkpt>
      <trkpt lat="44.04631" lon="6.04561">
        <ele>443</ele>
        <time>2020-09-15T21:05:21Z</time>
      </trkpt>
      <trkpt lat="44.04632" lon="6.04526">
        <ele>444</ele>
        <time>2020-09-15T21:05:26Z</time>
      </trkpt>
      <trkpt lat="44.04642" lon="6.04499">
        <ele>446</ele>
        <time>2020-09-15T21:05:30Z</time>
      </trkpt>
      <trkpt lat="44.04643" lon="6.04489">
        <ele>446</ele>
        <time>2020-09-15T21:05:31Z</time>
      </trkpt>
      <trkpt lat="44.04643" lon="6.04479">
        <ele>446</ele>
        <time>2020-09-15T21:05:32Z</time>
      </trkpt>
      <trkpt lat="44.0464" lon="6.0447">
        <ele>446</ele>
        <time>2020-09-15T21:05:34Z</time>
      </trkpt>
      <trkpt lat="44.04636" lon="6.04462">
        <ele>445</ele>
        <time>2020-09-15T21:05:35Z</time>
      </trkpt>
      <trkpt lat="44.0463" lon="6.04456">
        <ele>444</ele>
        <time>2020-09-15T21:05:36Z</time>
      </trkpt>
      <trkpt lat="44.04626" lon="6.04439">
        <ele>444</ele>
        <time>2020-09-15T21:05:38Z</time>
      </trkpt>
      <trkpt lat="44.04626" lon="6.0442">
        <ele>444</ele>
        <time>2020-09-15T21:05:41Z</time>
      </trkpt>
      <trkpt lat="44.04628" lon="6.04397">
        <ele>443</ele>
        <time>2020-09-15T21:05:44Z</time>
      </trkpt>
      <trkpt lat="44.0463" lon="6.04363">
        <ele>443</ele>
        <time>2020-09-15T21:05:48Z</time>
      </trkpt>
      <trkpt lat="44.04629" lon="6.04349">
        <ele>443</ele>
        <time>2020-09-15T21:05:50Z</time>
      </trkpt>
      <trkpt lat="44.0463" lon="6.04339">
        <ele>443</ele>
        <time>2020-09-15T21:05:51Z</time>
      </trkpt>
      <trkpt lat="44.04628" lon="6.04304">
        <ele>442</ele>
        <time>2020-09-15T21:05:56Z</time>
      </trkpt>
      <trkpt lat="44.04628" lon="6.04299">
        <ele>442</ele>
        <time>2020-09-15T21:05:56Z</time>
      </trkpt>
      <trkpt lat="44.04626" lon="6.04272">
        <ele>441</ele>
        <time>2020-09-15T21:06:00Z</time>
      </trkpt>
      <trkpt lat="44.04617" lon="6.04189">
        <ele>438</ele>
        <time>2020-09-15T21:06:11Z</time>
      </trkpt>
      <trkpt lat="44.0461" lon="6.04098">
        <ele>437</ele>
        <time>2020-09-15T21:06:22Z</time>
      </trkpt>
      <trkpt lat="44.04608" lon="6.04059">
        <ele>437</ele>
        <time>2020-09-15T21:06:27Z</time>
      </trkpt>
      <trkpt lat="44.04608" lon="6.04052">
        <ele>436</ele>
        <time>2020-09-15T21:06:28Z</time>
      </trkpt>
      <trkpt lat="44.04606" lon="6.04017">
        <ele>436</ele>
        <time>2020-09-15T21:06:33Z</time>
      </trkpt>
      <trkpt lat="44.04606" lon="6.03978">
        <ele>435</ele>
        <time>2020-09-15T21:06:38Z</time>
      </trkpt>
      <trkpt lat="44.04606" lon="6.03962">
        <ele>435</ele>
        <time>2020-09-15T21:06:40Z</time>
      </trkpt>
      <trkpt lat="44.04607" lon="6.03928">
        <ele>435</ele>
        <time>2020-09-15T21:06:44Z</time>
      </trkpt>
      <trkpt lat="44.04607" lon="6.03913">
        <ele>435</ele>
        <time>2020-09-15T21:06:46Z</time>
      </trkpt>
      <trkpt lat="44.04608" lon="6.03873">
        <ele>435</ele>
        <time>2020-09-15T21:06:51Z</time>
      </trkpt>
      <trkpt lat="44.04611" lon="6.03808">
        <ele>435</ele>
        <time>2020-09-15T21:06:59Z</time>
      </trkpt>
      <trkpt lat="44.04619" lon="6.03569">
        <ele>434</ele>
        <time>2020-09-15T21:07:30Z</time>
      </trkpt>
      <trkpt lat="44.0462" lon="6.0355">
        <ele>433</ele>
        <time>2020-09-15T21:07:32Z</time>
      </trkpt>
      <trkpt lat="44.04621" lon="6.03507">
        <ele>433</ele>
        <time>2020-09-15T21:07:38Z</time>
      </trkpt>
      <trkpt lat="44.04623" lon="6.03491">
        <ele>433</ele>
        <time>2020-09-15T21:07:40Z</time>
      </trkpt>
      <trkpt lat="44.04626" lon="6.03431">
        <ele>433</ele>
        <time>2020-09-15T21:07:48Z</time>
      </trkpt>
      <trkpt lat="44.04627" lon="6.03398">
        <ele>433</ele>
        <time>2020-09-15T21:07:52Z</time>
      </trkpt>
      <trkpt lat="44.04628" lon="6.03389">
        <ele>433</ele>
        <time>2020-09-15T21:07:53Z</time>
      </trkpt>
      <trkpt lat="44.04631" lon="6.03312">
        <ele>433</ele>
        <time>2020-09-15T21:08:03Z</time>
      </trkpt>
      <trkpt lat="44.04633" lon="6.03282">
        <ele>433</ele>
        <time>2020-09-15T21:08:07Z</time>
      </trkpt>
      <trkpt lat="44.04632" lon="6.03247">
        <ele>433</ele>
        <time>2020-09-15T21:08:11Z</time>
      </trkpt>
      <trkpt lat="44.04636" lon="6.03214">
        <ele>433</ele>
        <time>2020-09-15T21:08:16Z</time>
      </trkpt>
      <trkpt lat="44.04638" lon="6.03195">
        <ele>432</ele>
        <time>2020-09-15T21:08:18Z</time>
      </trkpt>
      <trkpt lat="44.04639" lon="6.03178">
        <ele>432</ele>
        <time>2020-09-15T21:08:20Z</time>
      </trkpt>
      <trkpt lat="44.04646" lon="6.03033">
        <ele>432</ele>
        <time>2020-09-15T21:08:39Z</time>
      </trkpt>
      <trkpt lat="44.04647" lon="6.03016">
        <ele>432</ele>
        <time>2020-09-15T21:08:41Z</time>
      </trkpt>
      <trkpt lat="44.04649" lon="6.02993">
        <ele>432</ele>
        <time>2020-09-15T21:08:44Z</time>
      </trkpt>
      <trkpt lat="44.04651" lon="6.02955">
        <ele>431</ele>
        <time>2020-09-15T21:08:49Z</time>
      </trkpt>
      <trkpt lat="44.04653" lon="6.02922">
        <ele>431</ele>
        <time>2020-09-15T21:08:53Z</time>
      </trkpt>
      <trkpt lat="44.04653" lon="6.0289">
        <ele>430</ele>
        <time>2020-09-15T21:08:57Z</time>
      </trkpt>
      <trkpt lat="44.04659" lon="6.02851">
        <ele>429</ele>
        <time>2020-09-15T21:09:02Z</time>
      </trkpt>
      <trkpt lat="44.04671" lon="6.02804">
        <ele>427</ele>
        <time>2020-09-15T21:09:09Z</time>
      </trkpt>
      <trkpt lat="44.04679" lon="6.0278">
        <ele>427</ele>
        <time>2020-09-15T21:09:12Z</time>
      </trkpt>
      <trkpt lat="44.04708" lon="6.02723">
        <ele>426</ele>
        <time>2020-09-15T21:09:21Z</time>
      </trkpt>
      <trkpt lat="44.04742" lon="6.02675">
        <ele>426</ele>
        <time>2020-09-15T21:09:30Z</time>
      </trkpt>
      <trkpt lat="44.04756" lon="6.0266">
        <ele>426</ele>
        <time>2020-09-15T21:09:33Z</time>
      </trkpt>
      <trkpt lat="44.04781" lon="6.02632">
        <ele>425</ele>
        <time>2020-09-15T21:09:38Z</time>
      </trkpt>
      <trkpt lat="44.04809" lon="6.02607">
        <ele>424</ele>
        <time>2020-09-15T21:09:44Z</time>
      </trkpt>
      <trkpt lat="44.0482" lon="6.02601">
        <ele>423</ele>
        <time>2020-09-15T21:09:46Z</time>
      </trkpt>
      <trkpt lat="44.0483" lon="6.02596">
        <ele>423</ele>
        <time>2020-09-15T21:09:48Z</time>
      </trkpt>
      <trkpt lat="44.04884" lon="6.02564">
        <ele>424</ele>
        <time>2020-09-15T21:09:59Z</time>
      </trkpt>
      <trkpt lat="44.04951" lon="6.02527">
        <ele>423</ele>
        <time>2020-09-15T21:10:12Z</time>
      </trkpt>
      <trkpt lat="44.04956" lon="6.02524">
        <ele>423</ele>
        <time>2020-09-15T21:10:13Z</time>
      </trkpt>
      <trkpt lat="44.05024" lon="6.02487">
        <ele>423</ele>
        <time>2020-09-15T21:10:26Z</time>
      </trkpt>
      <trkpt lat="44.05062" lon="6.02467">
        <ele>423</ele>
        <time>2020-09-15T21:10:33Z</time>
      </trkpt>
      <trkpt lat="44.05089" lon="6.02448">
        <ele>423</ele>
        <time>2020-09-15T21:10:38Z</time>
      </trkpt>
      <trkpt lat="44.05117" lon="6.02423">
        <ele>423</ele>
        <time>2020-09-15T21:10:44Z</time>
      </trkpt>
      <trkpt lat="44.05137" lon="6.02401">
        <ele>422</ele>
        <time>2020-09-15T21:10:49Z</time>
      </trkpt>
      <trkpt lat="44.05147" lon="6.02387">
        <ele>422</ele>
        <time>2020-09-15T21:10:51Z</time>
      </trkpt>
      <trkpt lat="44.05159" lon="6.02368">
        <ele>422</ele>
        <time>2020-09-15T21:10:54Z</time>
      </trkpt>
      <trkpt lat="44.05197" lon="6.02306">
        <ele>421</ele>
        <time>2020-09-15T21:11:05Z</time>
      </trkpt>
      <trkpt lat="44.05232" lon="6.0225">
        <ele>423</ele>
        <time>2020-09-15T21:11:14Z</time>
      </trkpt>
      <trkpt lat="44.05252" lon="6.0222">
        <ele>423</ele>
        <time>2020-09-15T21:11:20Z</time>
      </trkpt>
      <trkpt lat="44.05298" lon="6.0216">
        <ele>424</ele>
        <time>2020-09-15T21:11:31Z</time>
      </trkpt>
      <trkpt lat="44.0535" lon="6.02096">
        <ele>427</ele>
        <time>2020-09-15T21:11:43Z</time>
      </trkpt>
      <trkpt lat="44.05387" lon="6.02055">
        <ele>427</ele>
        <time>2020-09-15T21:11:51Z</time>
      </trkpt>
      <trkpt lat="44.05421" lon="6.02025">
        <ele>428</ele>
        <time>2020-09-15T21:11:59Z</time>
      </trkpt>
      <trkpt lat="44.05433" lon="6.02016">
        <ele>428</ele>
        <time>2020-09-15T21:12:01Z</time>
      </trkpt>
      <trkpt lat="44.05478" lon="6.01987">
        <ele>428</ele>
        <time>2020-09-15T21:12:10Z</time>
      </trkpt>
      <trkpt lat="44.05496" lon="6.01978">
        <ele>427</ele>
        <time>2020-09-15T21:12:13Z</time>
      </trkpt>
      <trkpt lat="44.05509" lon="6.01972">
        <ele>427</ele>
        <time>2020-09-15T21:12:16Z</time>
      </trkpt>
      <trkpt lat="44.05545" lon="6.01959">
        <ele>428</ele>
        <time>2020-09-15T21:12:22Z</time>
      </trkpt>
      <trkpt lat="44.0558" lon="6.01949">
        <ele>429</ele>
        <time>2020-09-15T21:12:29Z</time>
      </trkpt>
      <trkpt lat="44.05611" lon="6.01945">
        <ele>429</ele>
        <time>2020-09-15T21:12:34Z</time>
      </trkpt>
      <trkpt lat="44.05652" lon="6.01943">
        <ele>429</ele>
        <time>2020-09-15T21:12:42Z</time>
      </trkpt>
      <trkpt lat="44.05675" lon="6.01944">
        <ele>429</ele>
        <time>2020-09-15T21:12:46Z</time>
      </trkpt>
      <trkpt lat="44.05699" lon="6.01947">
        <ele>428</ele>
        <time>2020-09-15T21:12:50Z</time>
      </trkpt>
      <trkpt lat="44.05718" lon="6.01951">
        <ele>428</ele>
        <time>2020-09-15T21:12:53Z</time>
      </trkpt>
      <trkpt lat="44.0574" lon="6.01957">
        <ele>427</ele>
        <time>2020-09-15T21:12:57Z</time>
      </trkpt>
      <trkpt lat="44.05767" lon="6.01966">
        <ele>427</ele>
        <time>2020-09-15T21:13:02Z</time>
      </trkpt>
      <trkpt lat="44.05822" lon="6.01989">
        <ele>428</ele>
        <time>2020-09-15T21:13:13Z</time>
      </trkpt>
      <trkpt lat="44.0585" lon="6.02001">
        <ele>428</ele>
        <time>2020-09-15T21:13:18Z</time>
      </trkpt>
      <trkpt lat="44.05975" lon="6.02053">
        <ele>428</ele>
        <time>2020-09-15T21:13:41Z</time>
      </trkpt>
      <trkpt lat="44.06062" lon="6.02082">
        <ele>428</ele>
        <time>2020-09-15T21:13:57Z</time>
      </trkpt>
      <trkpt lat="44.06103" lon="6.02091">
        <ele>427</ele>
        <time>2020-09-15T21:14:04Z</time>
      </trkpt>
      <trkpt lat="44.06203" lon="6.02104">
        <ele>427</ele>
        <time>2020-09-15T21:14:22Z</time>
      </trkpt>
      <trkpt lat="44.06275" lon="6.02114">
        <ele>428</ele>
        <time>2020-09-15T21:14:35Z</time>
      </trkpt>
      <trkpt lat="44.06359" lon="6.02126">
        <ele>427</ele>
        <time>2020-09-15T21:14:50Z</time>
      </trkpt>
      <trkpt lat="44.06431" lon="6.02136">
        <ele>427</ele>
        <time>2020-09-15T21:15:03Z</time>
      </trkpt>
      <trkpt lat="44.06563" lon="6.02158">
        <ele>429</ele>
        <time>2020-09-15T21:15:27Z</time>
      </trkpt>
      <trkpt lat="44.06704" lon="6.02182">
        <ele>431</ele>
        <time>2020-09-15T21:15:52Z</time>
      </trkpt>
      <trkpt lat="44.06797" lon="6.02197">
        <ele>431</ele>
        <time>2020-09-15T21:16:08Z</time>
      </trkpt>
      <trkpt lat="44.06831" lon="6.02203">
        <ele>432</ele>
        <time>2020-09-15T21:16:15Z</time>
      </trkpt>
      <trkpt lat="44.06876" lon="6.0221">
        <ele>432</ele>
        <time>2020-09-15T21:16:23Z</time>
      </trkpt>
      <trkpt lat="44.06956" lon="6.0222">
        <ele>432</ele>
        <time>2020-09-15T21:16:37Z</time>
      </trkpt>
      <trkpt lat="44.07107" lon="6.02228">
        <ele>433</ele>
        <time>2020-09-15T21:17:04Z</time>
      </trkpt>
      <trkpt lat="44.07134" lon="6.02228">
        <ele>434</ele>
        <time>2020-09-15T21:17:09Z</time>
      </trkpt>
      <trkpt lat="44.07162" lon="6.02227">
        <ele>434</ele>
        <time>2020-09-15T21:17:14Z</time>
      </trkpt>
      <trkpt lat="44.07169" lon="6.02237">
        <ele>434</ele>
        <time>2020-09-15T21:17:15Z</time>
      </trkpt>
      <trkpt lat="44.07198" lon="6.0224">
        <ele>434</ele>
        <time>2020-09-15T21:17:21Z</time>
      </trkpt>
      <trkpt lat="44.07202" lon="6.02244">
        <ele>434</ele>
        <time>2020-09-15T21:17:21Z</time>
      </trkpt>
      <trkpt lat="44.07205" lon="6.02252">
        <ele>434</ele>
        <time>2020-09-15T21:17:23Z</time>
      </trkpt>
      <trkpt lat="44.07207" lon="6.02313">
        <ele>435</ele>
        <time>2020-09-15T21:17:30Z</time>
      </trkpt>
      <trkpt lat="44.07207" lon="6.02324">
        <ele>435</ele>
        <time>2020-09-15T21:17:32Z</time>
      </trkpt>
      <trkpt lat="44.07234" lon="6.02322">
        <ele>436</ele>
        <time>2020-09-15T21:17:37Z</time>
      </trkpt>
      <trkpt lat="44.07294" lon="6.02309">
        <ele>435</ele>
        <time>2020-09-15T21:17:47Z</time>
      </trkpt>
      <trkpt lat="44.07337" lon="6.02295">
        <ele>434</ele>
        <time>2020-09-15T21:17:55Z</time>
      </trkpt>
      <trkpt lat="44.07379" lon="6.02277">
        <ele>436</ele>
        <time>2020-09-15T21:18:03Z</time>
      </trkpt>
      <trkpt lat="44.07424" lon="6.02253">
        <ele>438</ele>
        <time>2020-09-15T21:18:12Z</time>
      </trkpt>
      <trkpt lat="44.07465" lon="6.02235">
        <ele>439</ele>
        <time>2020-09-15T21:18:19Z</time>
      </trkpt>
      <trkpt lat="44.07483" lon="6.02225">
        <ele>440</ele>
        <time>2020-09-15T21:18:23Z</time>
      </trkpt>
      <trkpt lat="44.07485" lon="6.02229">
        <ele>440</ele>
        <time>2020-09-15T21:18:23Z</time>
      </trkpt>
      <trkpt lat="44.07488" lon="6.02232">
        <ele>440</ele>
        <time>2020-09-15T21:18:24Z</time>
      </trkpt>
      <trkpt lat="44.07491" lon="6.0223">
        <ele>440</ele>
        <time>2020-09-15T21:18:25Z</time>
      </trkpt>
      <trkpt lat="44.07492" lon="6.02229">
        <ele>440</ele>
        <time>2020-09-15T21:18:25Z</time>
      </trkpt>
      <trkpt lat="44.07511" lon="6.02235">
        <ele>441</ele>
        <time>2020-09-15T21:18:28Z</time>
      </trkpt>
      <trkpt lat="44.07543" lon="6.02233">
        <ele>442</ele>
        <time>2020-09-15T21:18:34Z</time>
      </trkpt>
      <trkpt lat="44.07564" lon="6.02229">
        <ele>443</ele>
        <time>2020-09-15T21:18:38Z</time>
      </trkpt>
      <trkpt lat="44.07637" lon="6.02214">
        <ele>446</ele>
        <time>2020-09-15T21:18:51Z</time>
      </trkpt>
      <trkpt lat="44.0765" lon="6.0221">
        <ele>446</ele>
        <time>2020-09-15T21:18:53Z</time>
      </trkpt>
      <trkpt lat="44.07678" lon="6.02208">
        <ele>448</ele>
        <time>2020-09-15T21:18:58Z</time>
      </trkpt>
      <trkpt lat="44.07705" lon="6.02211">
        <ele>449</ele>
        <time>2020-09-15T21:19:03Z</time>
      </trkpt>
      <trkpt lat="44.07725" lon="6.0222">
        <ele>450</ele>
        <time>2020-09-15T21:19:07Z</time>
      </trkpt>
      <trkpt lat="44.07734" lon="6.02234">
        <ele>451</ele>
        <time>2020-09-15T21:19:09Z</time>
      </trkpt>
      <trkpt lat="44.07736" lon="6.02242">
        <ele>452</ele>
        <time>2020-09-15T21:19:10Z</time>
      </trkpt>
      <trkpt lat="44.07741" lon="6.02247">
        <ele>452</ele>
        <time>2020-09-15T21:19:11Z</time>
      </trkpt>
      <trkpt lat="44.07748" lon="6.02249">
        <ele>453</ele>
        <time>2020-09-15T21:19:13Z</time>
      </trkpt>
      <trkpt lat="44.07751" lon="6.02248">
        <ele>453</ele>
        <time>2020-09-15T21:19:13Z</time>
      </trkpt>
      <trkpt lat="44.07755" lon="6.02244">
        <ele>453</ele>
        <time>2020-09-15T21:19:14Z</time>
      </trkpt>
      <trkpt lat="44.07758" lon="6.02238">
        <ele>453</ele>
        <time>2020-09-15T21:19:15Z</time>
      </trkpt>
      <trkpt lat="44.07759" lon="6.02232">
        <ele>452</ele>
        <time>2020-09-15T21:19:16Z</time>
      </trkpt>
      <trkpt lat="44.07759" lon="6.02228">
        <ele>452</ele>
        <time>2020-09-15T21:19:16Z</time>
      </trkpt>
      <trkpt lat="44.07765" lon="6.02217">
        <ele>452</ele>
        <time>2020-09-15T21:19:18Z</time>
      </trkpt>
      <trkpt lat="44.07773" lon="6.02213">
        <ele>452</ele>
        <time>2020-09-15T21:19:20Z</time>
      </trkpt>
      <trkpt lat="44.07821" lon="6.02211">
        <ele>453</ele>
        <time>2020-09-15T21:19:28Z</time>
      </trkpt>
      <trkpt lat="44.07827" lon="6.02211">
        <ele>453</ele>
        <time>2020-09-15T21:19:29Z</time>
      </trkpt>
      <trkpt lat="44.07835" lon="6.0221">
        <ele>453</ele>
        <time>2020-09-15T21:19:31Z</time>
      </trkpt>
      <trkpt lat="44.07863" lon="6.02207">
        <ele>453</ele>
        <time>2020-09-15T21:19:36Z</time>
      </trkpt>
      <trkpt lat="44.07896" lon="6.022">
        <ele>452</ele>
        <time>2020-09-15T21:19:42Z</time>
      </trkpt>
      <trkpt lat="44.07923" lon="6.0219">
        <ele>452</ele>
        <time>2020-09-15T21:19:47Z</time>
      </trkpt>
      <trkpt lat="44.07945" lon="6.02182">
        <ele>451</ele>
        <time>2020-09-15T21:19:51Z</time>
      </trkpt>
      <trkpt lat="44.07956" lon="6.02177">
        <ele>451</ele>
        <time>2020-09-15T21:19:53Z</time>
      </trkpt>
      <trkpt lat="44.07957" lon="6.02177">
        <ele>451</ele>
        <time>2020-09-15T21:19:53Z</time>
      </trkpt>
      <trkpt lat="44.07965" lon="6.02174">
        <ele>451</ele>
        <time>2020-09-15T21:19:54Z</time>
      </trkpt>
      <trkpt lat="44.07987" lon="6.02165">
        <ele>451</ele>
        <time>2020-09-15T21:19:58Z</time>
      </trkpt>
      <trkpt lat="44.0802" lon="6.02156">
        <ele>450</ele>
        <time>2020-09-15T21:20:04Z</time>
      </trkpt>
      <trkpt lat="44.08065" lon="6.02151">
        <ele>449</ele>
        <time>2020-09-15T21:20:12Z</time>
      </trkpt>
      <trkpt lat="44.08111" lon="6.02148">
        <ele>448</ele>
        <time>2020-09-15T21:20:21Z</time>
      </trkpt>
      <trkpt lat="44.08161" lon="6.0214">
        <ele>446</ele>
        <time>2020-09-15T21:20:30Z</time>
      </trkpt>
      <trkpt lat="44.08209" lon="6.02135">
        <ele>443</ele>
        <time>2020-09-15T21:20:38Z</time>
      </trkpt>
      <trkpt lat="44.08275" lon="6.02151">
        <ele>441</ele>
        <time>2020-09-15T21:20:50Z</time>
      </trkpt>
      <trkpt lat="44.08304" lon="6.02154">
        <ele>440</ele>
        <time>2020-09-15T21:20:55Z</time>
      </trkpt>
      <trkpt lat="44.08339" lon="6.02158">
        <ele>440</ele>
        <time>2020-09-15T21:21:01Z</time>
      </trkpt>
      <trkpt lat="44.08354" lon="6.02156">
        <ele>440</ele>
        <time>2020-09-15T21:21:04Z</time>
      </trkpt>
      <trkpt lat="44.08369" lon="6.02154">
        <ele>440</ele>
        <time>2020-09-15T21:21:07Z</time>
      </trkpt>
      <trkpt lat="44.08376" lon="6.02153">
        <ele>440</ele>
        <time>2020-09-15T21:21:08Z</time>
      </trkpt>
      <trkpt lat="44.0843" lon="6.02146">
        <ele>442</ele>
        <time>2020-09-15T21:21:18Z</time>
      </trkpt>
      <trkpt lat="44.08446" lon="6.02139">
        <ele>442</ele>
        <time>2020-09-15T21:21:21Z</time>
      </trkpt>
      <trkpt lat="44.08463" lon="6.02133">
        <ele>442</ele>
        <time>2020-09-15T21:21:24Z</time>
      </trkpt>
      <trkpt lat="44.08472" lon="6.02134">
        <ele>442</ele>
        <time>2020-09-15T21:21:25Z</time>
      </trkpt>
      <trkpt lat="44.08486" lon="6.02134">
        <ele>442</ele>
        <time>2020-09-15T21:21:28Z</time>
      </trkpt>
      <trkpt lat="44.08498" lon="6.02134">
        <ele>442</ele>
        <time>2020-09-15T21:21:30Z</time>
      </trkpt>
      <trkpt lat="44.08503" lon="6.02134">
        <ele>442</ele>
        <time>2020-09-15T21:21:31Z</time>
      </trkpt>
      <trkpt lat="44.0852" lon="6.02132">
        <ele>442</ele>
        <time>2020-09-15T21:21:34Z</time>
      </trkpt>
      <trkpt lat="44.08544" lon="6.02132">
        <ele>441</ele>
        <time>2020-09-15T21:21:38Z</time>
      </trkpt>
      <trkpt lat="44.08631" lon="6.02132">
        <ele>441</ele>
        <time>2020-09-15T21:21:54Z</time>
      </trkpt>
      <trkpt lat="44.08691" lon="6.02128">
        <ele>441</ele>
        <time>2020-09-15T21:22:04Z</time>
      </trkpt>
      <trkpt lat="44.08713" lon="6.02124">
        <ele>441</ele>
        <time>2020-09-15T21:22:08Z</time>
      </trkpt>
      <trkpt lat="44.08726" lon="6.02124">
        <ele>440</ele>
        <time>2020-09-15T21:22:11Z</time>
      </trkpt>
      <trkpt lat="44.08748" lon="6.02128">
        <ele>440</ele>
        <time>2020-09-15T21:22:15Z</time>
      </trkpt>
      <trkpt lat="44.08766" lon="6.02128">
        <ele>438</ele>
        <time>2020-09-15T21:22:18Z</time>
      </trkpt>
      <trkpt lat="44.08809" lon="6.02118">
        <ele>435</ele>
        <time>2020-09-15T21:22:26Z</time>
      </trkpt>
      <trkpt lat="44.08828" lon="6.0211">
        <ele>434</ele>
        <time>2020-09-15T21:22:29Z</time>
      </trkpt>
      <trkpt lat="44.08851" lon="6.02122">
        <ele>434</ele>
        <time>2020-09-15T21:22:34Z</time>
      </trkpt>
      <trkpt lat="44.0894" lon="6.02165">
        <ele>435</ele>
        <time>2020-09-15T21:22:50Z</time>
      </trkpt>
      <trkpt lat="44.08962" lon="6.02174">
        <ele>436</ele>
        <time>2020-09-15T21:22:54Z</time>
      </trkpt>
      <trkpt lat="44.08984" lon="6.02181">
        <ele>436</ele>
        <time>2020-09-15T21:22:58Z</time>
      </trkpt>
      <trkpt lat="44.09086" lon="6.02196">
        <ele>432</ele>
        <time>2020-09-15T21:23:17Z</time>
      </trkpt>
      <trkpt lat="44.09242" lon="6.02216">
        <ele>439</ele>
        <time>2020-09-15T21:23:44Z</time>
      </trkpt>
      <trkpt lat="44.0935" lon="6.02247">
        <ele>439</ele>
        <time>2020-09-15T21:24:04Z</time>
      </trkpt>
      <trkpt lat="44.09369" lon="6.02258">
        <ele>440</ele>
        <time>2020-09-15T21:24:08Z</time>
      </trkpt>
      <trkpt lat="44.09428" lon="6.02305">
        <ele>444</ele>
        <time>2020-09-15T21:24:20Z</time>
      </trkpt>
      <trkpt lat="44.09449" lon="6.02317">
        <ele>445</ele>
        <time>2020-09-15T21:24:24Z</time>
      </trkpt>
      <trkpt lat="44.09472" lon="6.02319">
        <ele>443</ele>
        <time>2020-09-15T21:24:28Z</time>
      </trkpt>
      <trkpt lat="44.09491" lon="6.02319">
        <ele>441</ele>
        <time>2020-09-15T21:24:31Z</time>
      </trkpt>
      <trkpt lat="44.09509" lon="6.02323">
        <ele>440</ele>
        <time>2020-09-15T21:24:35Z</time>
      </trkpt>
      <trkpt lat="44.09541" lon="6.02336">
        <ele>439</ele>
        <time>2020-09-15T21:24:41Z</time>
      </trkpt>
      <trkpt lat="44.09586" lon="6.02356">
        <ele>441</ele>
        <time>2020-09-15T21:24:49Z</time>
      </trkpt>
      <trkpt lat="44.09617" lon="6.02374">
        <ele>442</ele>
        <time>2020-09-15T21:24:55Z</time>
      </trkpt>
      <trkpt lat="44.09664" lon="6.02407">
        <ele>443</ele>
        <time>2020-09-15T21:25:04Z</time>
      </trkpt>
      <trkpt lat="44.09682" lon="6.02416">
        <ele>444</ele>
        <time>2020-09-15T21:25:08Z</time>
      </trkpt>
      <trkpt lat="44.09697" lon="6.02418">
        <ele>443</ele>
        <time>2020-09-15T21:25:10Z</time>
      </trkpt>
      <trkpt lat="44.09711" lon="6.02414">
        <ele>441</ele>
        <time>2020-09-15T21:25:13Z</time>
      </trkpt>
      <trkpt lat="44.09729" lon="6.02411">
        <ele>439</ele>
        <time>2020-09-15T21:25:16Z</time>
      </trkpt>
      <trkpt lat="44.09744" lon="6.02414">
        <ele>438</ele>
        <time>2020-09-15T21:25:19Z</time>
      </trkpt>
      <trkpt lat="44.09777" lon="6.02426">
        <ele>443</ele>
        <time>2020-09-15T21:25:25Z</time>
      </trkpt>
      <trkpt lat="44.09788" lon="6.02428">
        <ele>445</ele>
        <time>2020-09-15T21:25:27Z</time>
      </trkpt>
      <trkpt lat="44.09798" lon="6.02428">
        <ele>447</ele>
        <time>2020-09-15T21:25:29Z</time>
      </trkpt>
      <trkpt lat="44.09849" lon="6.02415">
        <ele>447</ele>
        <time>2020-09-15T21:25:38Z</time>
      </trkpt>
      <trkpt lat="44.09901" lon="6.02421">
        <ele>444</ele>
        <time>2020-09-15T21:25:47Z</time>
      </trkpt>
      <trkpt lat="44.09917" lon="6.02419">
        <ele>443</ele>
        <time>2020-09-15T21:25:50Z</time>
      </trkpt>
      <trkpt lat="44.09952" lon="6.02408">
        <ele>446</ele>
        <time>2020-09-15T21:25:56Z</time>
      </trkpt>
      <trkpt lat="44.09983" lon="6.02392">
        <ele>446</ele>
        <time>2020-09-15T21:26:02Z</time>
      </trkpt>
      <trkpt lat="44.10015" lon="6.02357">
        <ele>441</ele>
        <time>2020-09-15T21:26:10Z</time>
      </trkpt>
      <trkpt lat="44.10028" lon="6.02346">
        <ele>439</ele>
        <time>2020-09-15T21:26:12Z</time>
      </trkpt>
      <trkpt lat="44.10039" lon="6.02342">
        <ele>438</ele>
        <time>2020-09-15T21:26:14Z</time>
      </trkpt>
      <trkpt lat="44.10054" lon="6.02343">
        <ele>439</ele>
        <time>2020-09-15T21:26:17Z</time>
      </trkpt>
      <trkpt lat="44.10072" lon="6.02355">
        <ele>443</ele>
        <time>2020-09-15T21:26:21Z</time>
      </trkpt>
      <trkpt lat="44.10117" lon="6.02391">
        <ele>448</ele>
        <time>2020-09-15T21:26:30Z</time>
      </trkpt>
      <trkpt lat="44.10221" lon="6.02483">
        <ele>454</ele>
        <time>2020-09-15T21:26:52Z</time>
      </trkpt>
      <trkpt lat="44.10234" lon="6.02493">
        <ele>454</ele>
        <time>2020-09-15T21:26:54Z</time>
      </trkpt>
      <trkpt lat="44.10245" lon="6.02496">
        <ele>453</ele>
        <time>2020-09-15T21:26:56Z</time>
      </trkpt>
      <trkpt lat="44.10253" lon="6.02495">
        <ele>452</ele>
        <time>2020-09-15T21:26:58Z</time>
      </trkpt>
      <trkpt lat="44.10261" lon="6.0249">
        <ele>454</ele>
        <time>2020-09-15T21:26:59Z</time>
      </trkpt>
      <trkpt lat="44.10268" lon="6.02481">
        <ele>455</ele>
        <time>2020-09-15T21:27:01Z</time>
      </trkpt>
      <trkpt lat="44.10273" lon="6.02469">
        <ele>457</ele>
        <time>2020-09-15T21:27:03Z</time>
      </trkpt>
      <trkpt lat="44.10276" lon="6.02454">
        <ele>458</ele>
        <time>2020-09-15T21:27:05Z</time>
      </trkpt>
      <trkpt lat="44.10275" lon="6.0244">
        <ele>459</ele>
        <time>2020-09-15T21:27:07Z</time>
      </trkpt>
      <trkpt lat="44.10271" lon="6.02427">
        <ele>458</ele>
        <time>2020-09-15T21:27:08Z</time>
      </trkpt>
      <trkpt lat="44.10264" lon="6.02417">
        <ele>456</ele>
        <time>2020-09-15T21:27:10Z</time>
      </trkpt>
      <trkpt lat="44.10222" lon="6.02373">
        <ele>450</ele>
        <time>2020-09-15T21:27:19Z</time>
      </trkpt>
      <trkpt lat="44.10217" lon="6.02365">
        <ele>449</ele>
        <time>2020-09-15T21:27:21Z</time>
      </trkpt>
      <trkpt lat="44.10216" lon="6.02354">
        <ele>449</ele>
        <time>2020-09-15T21:27:22Z</time>
      </trkpt>
      <trkpt lat="44.10217" lon="6.02344">
        <ele>449</ele>
        <time>2020-09-15T21:27:24Z</time>
      </trkpt>
      <trkpt lat="44.10221" lon="6.02333">
        <ele>451</ele>
        <time>2020-09-15T21:27:25Z</time>
      </trkpt>
      <trkpt lat="44.10269" lon="6.02226">
        <ele>449</ele>
        <time>2020-09-15T21:27:41Z</time>
      </trkpt>
      <trkpt lat="44.10304" lon="6.0216">
        <ele>445</ele>
        <time>2020-09-15T21:27:52Z</time>
      </trkpt>
      <trkpt lat="44.10336" lon="6.0211">
        <ele>446</ele>
        <time>2020-09-15T21:28:00Z</time>
      </trkpt>
      <trkpt lat="44.10362" lon="6.02076">
        <ele>447</ele>
        <time>2020-09-15T21:28:07Z</time>
      </trkpt>
      <trkpt lat="44.10427" lon="6.02009">
        <ele>448</ele>
        <time>2020-09-15T21:28:21Z</time>
      </trkpt>
      <trkpt lat="44.10463" lon="6.01958">
        <ele>450</ele>
        <time>2020-09-15T21:28:30Z</time>
      </trkpt>
      <trkpt lat="44.1049" lon="6.01919">
        <ele>451</ele>
        <time>2020-09-15T21:28:37Z</time>
      </trkpt>
      <trkpt lat="44.10531" lon="6.01861">
        <ele>450</ele>
        <time>2020-09-15T21:28:47Z</time>
      </trkpt>
      <trkpt lat="44.10567" lon="6.01816">
        <ele>449</ele>
        <time>2020-09-15T21:28:56Z</time>
      </trkpt>
      <trkpt lat="44.1063" lon="6.01759">
        <ele>448</ele>
        <time>2020-09-15T21:29:09Z</time>
      </trkpt>
      <trkpt lat="44.10657" lon="6.01734">
        <ele>449</ele>
        <time>2020-09-15T21:29:15Z</time>
      </trkpt>
      <trkpt lat="44.10669" lon="6.01723">
        <ele>450</ele>
        <time>2020-09-15T21:29:18Z</time>
      </trkpt>
      <trkpt lat="44.10694" lon="6.01702">
        <ele>451</ele>
        <time>2020-09-15T21:29:23Z</time>
      </trkpt>
      <trkpt lat="44.10695" lon="6.01701">
        <ele>451</ele>
        <time>2020-09-15T21:29:23Z</time>
      </trkpt>
      <trkpt lat="44.1074" lon="6.01662">
        <ele>452</ele>
        <time>2020-09-15T21:29:33Z</time>
      </trkpt>
      <trkpt lat="44.10751" lon="6.01654">
        <ele>452</ele>
        <time>2020-09-15T21:29:35Z</time>
      </trkpt>
      <trkpt lat="44.10757" lon="6.01647">
        <ele>452</ele>
        <time>2020-09-15T21:29:36Z</time>
      </trkpt>
      <trkpt lat="44.10764" lon="6.01638">
        <ele>452</ele>
        <time>2020-09-15T21:29:38Z</time>
      </trkpt>
      <trkpt lat="44.10775" lon="6.01624">
        <ele>452</ele>
        <time>2020-09-15T21:29:41Z</time>
      </trkpt>
      <trkpt lat="44.10799" lon="6.0158">
        <ele>449</ele>
        <time>2020-09-15T21:29:48Z</time>
      </trkpt>
      <trkpt lat="44.10818" lon="6.01543">
        <ele>447</ele>
        <time>2020-09-15T21:29:53Z</time>
      </trkpt>
      <trkpt lat="44.1085" lon="6.01483">
        <ele>443</ele>
        <time>2020-09-15T21:30:03Z</time>
      </trkpt>
      <trkpt lat="44.10868" lon="6.01448">
        <ele>444</ele>
        <time>2020-09-15T21:30:08Z</time>
      </trkpt>
      <trkpt lat="44.10883" lon="6.01416">
        <ele>444</ele>
        <time>2020-09-15T21:30:13Z</time>
      </trkpt>
      <trkpt lat="44.10912" lon="6.01364">
        <ele>446</ele>
        <time>2020-09-15T21:30:22Z</time>
      </trkpt>
      <trkpt lat="44.10923" lon="6.01349">
        <ele>446</ele>
        <time>2020-09-15T21:30:25Z</time>
      </trkpt>
      <trkpt lat="44.10945" lon="6.01327">
        <ele>447</ele>
        <time>2020-09-15T21:30:29Z</time>
      </trkpt>
      <trkpt lat="44.10965" lon="6.01311">
        <ele>448</ele>
        <time>2020-09-15T21:30:33Z</time>
      </trkpt>
      <trkpt lat="44.11021" lon="6.01276">
        <ele>448</ele>
        <time>2020-09-15T21:30:44Z</time>
      </trkpt>
      <trkpt lat="44.11053" lon="6.01259">
        <ele>447</ele>
        <time>2020-09-15T21:30:50Z</time>
      </trkpt>
      <trkpt lat="44.11091" lon="6.01233">
        <ele>446</ele>
        <time>2020-09-15T21:30:58Z</time>
      </trkpt>
      <trkpt lat="44.11179" lon="6.01182">
        <ele>446</ele>
        <time>2020-09-15T21:31:15Z</time>
      </trkpt>
      <trkpt lat="44.11191" lon="6.01173">
        <ele>446</ele>
        <time>2020-09-15T21:31:17Z</time>
      </trkpt>
      <trkpt lat="44.11217" lon="6.01143">
        <ele>446</ele>
        <time>2020-09-15T21:31:23Z</time>
      </trkpt>
      <trkpt lat="44.11442" lon="6.00863">
        <ele>446</ele>
        <time>2020-09-15T21:32:17Z</time>
      </trkpt>
      <trkpt lat="44.11585" lon="6.0069">
        <ele>447</ele>
        <time>2020-09-15T21:32:51Z</time>
      </trkpt>
      <trkpt lat="44.11616" lon="6.00652">
        <ele>447</ele>
        <time>2020-09-15T21:32:58Z</time>
      </trkpt>
      <trkpt lat="44.11647" lon="6.00625">
        <ele>448</ele>
        <time>2020-09-15T21:33:05Z</time>
      </trkpt>
      <trkpt lat="44.11677" lon="6.00604">
        <ele>449</ele>
        <time>2020-09-15T21:33:11Z</time>
      </trkpt>
      <trkpt lat="44.11713" lon="6.00588">
        <ele>451</ele>
        <time>2020-09-15T21:33:17Z</time>
      </trkpt>
      <trkpt lat="44.11856" lon="6.00548">
        <ele>456</ele>
        <time>2020-09-15T21:33:43Z</time>
      </trkpt>
      <trkpt lat="44.119" lon="6.00532">
        <ele>456</ele>
        <time>2020-09-15T21:33:51Z</time>
      </trkpt>
      <trkpt lat="44.11916" lon="6.00523">
        <ele>456</ele>
        <time>2020-09-15T21:33:54Z</time>
      </trkpt>
      <trkpt lat="44.11947" lon="6.00501">
        <ele>455</ele>
        <time>2020-09-15T21:34:01Z</time>
      </trkpt>
      <trkpt lat="44.12059" lon="6.00406">
        <ele>456</ele>
        <time>2020-09-15T21:34:24Z</time>
      </trkpt>
      <trkpt lat="44.12078" lon="6.00393">
        <ele>456</ele>
        <time>2020-09-15T21:34:28Z</time>
      </trkpt>
      <trkpt lat="44.12089" lon="6.00387">
        <ele>456</ele>
        <time>2020-09-15T21:34:30Z</time>
      </trkpt>
      <trkpt lat="44.12119" lon="6.00375">
        <ele>457</ele>
        <time>2020-09-15T21:34:35Z</time>
      </trkpt>
      <trkpt lat="44.12178" lon="6.0036">
        <ele>459</ele>
        <time>2020-09-15T21:34:46Z</time>
      </trkpt>
      <trkpt lat="44.12212" lon="6.00343">
        <ele>461</ele>
        <time>2020-09-15T21:34:52Z</time>
      </trkpt>
      <trkpt lat="44.12238" lon="6.00323">
        <ele>462</ele>
        <time>2020-09-15T21:34:58Z</time>
      </trkpt>
      <trkpt lat="44.12249" lon="6.0031">
        <ele>463</ele>
        <time>2020-09-15T21:35:00Z</time>
      </trkpt>
      <trkpt lat="44.12305" lon="6.00237">
        <ele>467</ele>
        <time>2020-09-15T21:35:14Z</time>
      </trkpt>
      <trkpt lat="44.12336" lon="6.00198">
        <ele>468</ele>
        <time>2020-09-15T21:35:21Z</time>
      </trkpt>
      <trkpt lat="44.12406" lon="6.00129">
        <ele>467</ele>
        <time>2020-09-15T21:35:37Z</time>
      </trkpt>
      <trkpt lat="44.12459" lon="6.00079">
        <ele>466</ele>
        <time>2020-09-15T21:35:48Z</time>
      </trkpt>
      <trkpt lat="44.12542" lon="6.00016">
        <ele>465</ele>
        <time>2020-09-15T21:36:05Z</time>
      </trkpt>
      <trkpt lat="44.1258" lon="5.99984">
        <ele>465</ele>
        <time>2020-09-15T21:36:13Z</time>
      </trkpt>
      <trkpt lat="44.12675" lon="5.99894">
        <ele>463</ele>
        <time>2020-09-15T21:36:33Z</time>
      </trkpt>
      <trkpt lat="44.127" lon="5.99863">
        <ele>463</ele>
        <time>2020-09-15T21:36:39Z</time>
      </trkpt>
      <trkpt lat="44.12711" lon="5.99846">
        <ele>463</ele>
        <time>2020-09-15T21:36:42Z</time>
      </trkpt>
      <trkpt lat="44.12728" lon="5.99813">
        <ele>463</ele>
        <time>2020-09-15T21:36:47Z</time>
      </trkpt>
      <trkpt lat="44.12757" lon="5.99761">
        <ele>463</ele>
        <time>2020-09-15T21:36:56Z</time>
      </trkpt>
      <trkpt lat="44.12882" lon="5.99559">
        <ele>465</ele>
        <time>2020-09-15T21:37:30Z</time>
      </trkpt>
      <trkpt lat="44.12896" lon="5.99539">
        <ele>466</ele>
        <time>2020-09-15T21:37:33Z</time>
      </trkpt>
      <trkpt lat="44.12985" lon="5.99429">
        <ele>465</ele>
        <time>2020-09-15T21:37:54Z</time>
      </trkpt>
      <trkpt lat="44.13013" lon="5.99391">
        <ele>464</ele>
        <time>2020-09-15T21:38:01Z</time>
      </trkpt>
      <trkpt lat="44.13021" lon="5.99375">
        <ele>464</ele>
        <time>2020-09-15T21:38:04Z</time>
      </trkpt>
      <trkpt lat="44.13034" lon="5.99345">
        <ele>463</ele>
        <time>2020-09-15T21:38:08Z</time>
      </trkpt>
      <trkpt lat="44.13045" lon="5.99307">
        <ele>460</ele>
        <time>2020-09-15T21:38:14Z</time>
      </trkpt>
      <trkpt lat="44.13074" lon="5.99154">
        <ele>447</ele>
        <time>2020-09-15T21:38:34Z</time>
      </trkpt>
      <trkpt lat="44.13084" lon="5.99124">
        <ele>444</ele>
        <time>2020-09-15T21:38:38Z</time>
      </trkpt>
      <trkpt lat="44.13089" lon="5.99112">
        <ele>444</ele>
        <time>2020-09-15T21:38:40Z</time>
      </trkpt>
      <trkpt lat="44.13107" lon="5.99088">
        <ele>442</ele>
        <time>2020-09-15T21:38:44Z</time>
      </trkpt>
      <trkpt lat="44.13143" lon="5.99055">
        <ele>441</ele>
        <time>2020-09-15T21:38:52Z</time>
      </trkpt>
      <trkpt lat="44.13178" lon="5.9902">
        <ele>440</ele>
        <time>2020-09-15T21:39:00Z</time>
      </trkpt>
      <trkpt lat="44.133" lon="5.98908">
        <ele>442</ele>
        <time>2020-09-15T21:39:26Z</time>
      </trkpt>
      <trkpt lat="44.13382" lon="5.98822">
        <ele>443</ele>
        <time>2020-09-15T21:39:44Z</time>
      </trkpt>
      <trkpt lat="44.13402" lon="5.98796">
        <ele>443</ele>
        <time>2020-09-15T21:39:49Z</time>
      </trkpt>
      <trkpt lat="44.13416" lon="5.9877">
        <ele>441</ele>
        <time>2020-09-15T21:39:53Z</time>
      </trkpt>
      <trkpt lat="44.13426" lon="5.98738">
        <ele>441</ele>
        <time>2020-09-15T21:39:57Z</time>
      </trkpt>
      <trkpt lat="44.13431" lon="5.98718">
        <ele>443</ele>
        <time>2020-09-15T21:40:00Z</time>
      </trkpt>
      <trkpt lat="44.13441" lon="5.98671">
        <ele>448</ele>
        <time>2020-09-15T21:40:06Z</time>
      </trkpt>
      <trkpt lat="44.13446" lon="5.98663">
        <ele>449</ele>
        <time>2020-09-15T21:40:08Z</time>
      </trkpt>
      <trkpt lat="44.1346" lon="5.98656">
        <ele>451</ele>
        <time>2020-09-15T21:40:10Z</time>
      </trkpt>
      <trkpt lat="44.13503" lon="5.98637">
        <ele>454</ele>
        <time>2020-09-15T21:40:18Z</time>
      </trkpt>
      <trkpt lat="44.13558" lon="5.98604">
        <ele>458</ele>
        <time>2020-09-15T21:40:29Z</time>
      </trkpt>
      <trkpt lat="44.13574" lon="5.98599">
        <ele>457</ele>
        <time>2020-09-15T21:40:32Z</time>
      </trkpt>
      <trkpt lat="44.1359" lon="5.98598">
        <ele>456</ele>
        <time>2020-09-15T21:40:35Z</time>
      </trkpt>
      <trkpt lat="44.13687" lon="5.98607">
        <ele>456</ele>
        <time>2020-09-15T21:40:52Z</time>
      </trkpt>
      <trkpt lat="44.1372" lon="5.98604">
        <ele>458</ele>
        <time>2020-09-15T21:40:58Z</time>
      </trkpt>
      <trkpt lat="44.13752" lon="5.98598">
        <ele>459</ele>
        <time>2020-09-15T21:41:04Z</time>
      </trkpt>
      <trkpt lat="44.13766" lon="5.98595">
        <ele>459</ele>
        <time>2020-09-15T21:41:06Z</time>
      </trkpt>
      <trkpt lat="44.13788" lon="5.9859">
        <ele>460</ele>
        <time>2020-09-15T21:41:10Z</time>
      </trkpt>
      <trkpt lat="44.13802" lon="5.9859">
        <ele>460</ele>
        <time>2020-09-15T21:41:13Z</time>
      </trkpt>
      <trkpt lat="44.13817" lon="5.98595">
        <ele>459</ele>
        <time>2020-09-15T21:41:15Z</time>
      </trkpt>
      <trkpt lat="44.13927" lon="5.98652">
        <ele>460</ele>
        <time>2020-09-15T21:41:36Z</time>
      </trkpt>
      <trkpt lat="44.13941" lon="5.98656">
        <ele>461</ele>
        <time>2020-09-15T21:41:39Z</time>
      </trkpt>
      <trkpt lat="44.14005" lon="5.98671">
        <ele>466</ele>
        <time>2020-09-15T21:41:50Z</time>
      </trkpt>
      <trkpt lat="44.14036" lon="5.98684">
        <ele>468</ele>
        <time>2020-09-15T21:41:56Z</time>
      </trkpt>
      <trkpt lat="44.1406" lon="5.98702">
        <ele>467</ele>
        <time>2020-09-15T21:42:01Z</time>
      </trkpt>
      <trkpt lat="44.14072" lon="5.98708">
        <ele>467</ele>
        <time>2020-09-15T21:42:03Z</time>
      </trkpt>
      <trkpt lat="44.14111" lon="5.98721">
        <ele>467</ele>
        <time>2020-09-15T21:42:10Z</time>
      </trkpt>
      <trkpt lat="44.14124" lon="5.98723">
        <ele>466</ele>
        <time>2020-09-15T21:42:13Z</time>
      </trkpt>
      <trkpt lat="44.14137" lon="5.98723">
        <ele>467</ele>
        <time>2020-09-15T21:42:15Z</time>
      </trkpt>
      <trkpt lat="44.14147" lon="5.9872">
        <ele>468</ele>
        <time>2020-09-15T21:42:17Z</time>
      </trkpt>
      <trkpt lat="44.1416" lon="5.98712">
        <ele>470</ele>
        <time>2020-09-15T21:42:19Z</time>
      </trkpt>
      <trkpt lat="44.14174" lon="5.98698">
        <ele>472</ele>
        <time>2020-09-15T21:42:22Z</time>
      </trkpt>
      <trkpt lat="44.14195" lon="5.98669">
        <ele>476</ele>
        <time>2020-09-15T21:42:28Z</time>
      </trkpt>
      <trkpt lat="44.14204" lon="5.9866">
        <ele>477</ele>
        <time>2020-09-15T21:42:30Z</time>
      </trkpt>
      <trkpt lat="44.14232" lon="5.98641">
        <ele>478</ele>
        <time>2020-09-15T21:42:35Z</time>
      </trkpt>
      <trkpt lat="44.14257" lon="5.98621">
        <ele>480</ele>
        <time>2020-09-15T21:42:40Z</time>
      </trkpt>
      <trkpt lat="44.1431" lon="5.98561">
        <ele>485</ele>
        <time>2020-09-15T21:42:52Z</time>
      </trkpt>
      <trkpt lat="44.1433" lon="5.98532">
        <ele>486</ele>
        <time>2020-09-15T21:42:58Z</time>
      </trkpt>
      <trkpt lat="44.14339" lon="5.98515">
        <ele>487</ele>
        <time>2020-09-15T21:43:00Z</time>
      </trkpt>
      <trkpt lat="44.14347" lon="5.98498">
        <ele>489</ele>
        <time>2020-09-15T21:43:03Z</time>
      </trkpt>
      <trkpt lat="44.14363" lon="5.98441">
        <ele>497</ele>
        <time>2020-09-15T21:43:11Z</time>
      </trkpt>
      <trkpt lat="44.14372" lon="5.98426">
        <ele>498</ele>
        <time>2020-09-15T21:43:13Z</time>
      </trkpt>
      <trkpt lat="44.14383" lon="5.98414">
        <ele>499</ele>
        <time>2020-09-15T21:43:16Z</time>
      </trkpt>
      <trkpt lat="44.14457" lon="5.98346">
        <ele>505</ele>
        <time>2020-09-15T21:43:31Z</time>
      </trkpt>
      <trkpt lat="44.1451" lon="5.98312">
        <ele>508</ele>
        <time>2020-09-15T21:43:42Z</time>
      </trkpt>
      <trkpt lat="44.14527" lon="5.98304">
        <ele>509</ele>
        <time>2020-09-15T21:43:45Z</time>
      </trkpt>
      <trkpt lat="44.14552" lon="5.98284">
        <ele>510</ele>
        <time>2020-09-15T21:43:50Z</time>
      </trkpt>
      <trkpt lat="44.14577" lon="5.98259">
        <ele>510</ele>
        <time>2020-09-15T21:43:56Z</time>
      </trkpt>
      <trkpt lat="44.14644" lon="5.98223">
        <ele>513</ele>
        <time>2020-09-15T21:44:08Z</time>
      </trkpt>
      <trkpt lat="44.1467" lon="5.98202">
        <ele>514</ele>
        <time>2020-09-15T21:44:14Z</time>
      </trkpt>
      <trkpt lat="44.14696" lon="5.98169">
        <ele>514</ele>
        <time>2020-09-15T21:44:20Z</time>
      </trkpt>
      <trkpt lat="44.14809" lon="5.98012">
        <ele>515</ele>
        <time>2020-09-15T21:44:48Z</time>
      </trkpt>
      <trkpt lat="44.1483" lon="5.97986">
        <ele>515</ele>
        <time>2020-09-15T21:44:53Z</time>
      </trkpt>
      <trkpt lat="44.14852" lon="5.97958">
        <ele>515</ele>
        <time>2020-09-15T21:44:59Z</time>
      </trkpt>
      <trkpt lat="44.15175" lon="5.97634">
        <ele>519</ele>
        <time>2020-09-15T21:46:10Z</time>
      </trkpt>
      <trkpt lat="44.15321" lon="5.97488">
        <ele>523</ele>
        <time>2020-09-15T21:46:42Z</time>
      </trkpt>
      <trkpt lat="44.15327" lon="5.97481">
        <ele>523</ele>
        <time>2020-09-15T21:46:43Z</time>
      </trkpt>
      <trkpt lat="44.15365" lon="5.97443">
        <ele>522</ele>
        <time>2020-09-15T21:46:51Z</time>
      </trkpt>
      <trkpt lat="44.15473" lon="5.97334">
        <ele>522</ele>
        <time>2020-09-15T21:47:15Z</time>
      </trkpt>
      <trkpt lat="44.15502" lon="5.97305">
        <ele>523</ele>
        <time>2020-09-15T21:47:21Z</time>
      </trkpt>
      <trkpt lat="44.15551" lon="5.97255">
        <ele>524</ele>
        <time>2020-09-15T21:47:32Z</time>
      </trkpt>
      <trkpt lat="44.15688" lon="5.97089">
        <ele>526</ele>
        <time>2020-09-15T21:48:04Z</time>
      </trkpt>
      <trkpt lat="44.15709" lon="5.97064">
        <ele>526</ele>
        <time>2020-09-15T21:48:09Z</time>
      </trkpt>
      <trkpt lat="44.15737" lon="5.97028">
        <ele>526</ele>
        <time>2020-09-15T21:48:16Z</time>
      </trkpt>
      <trkpt lat="44.1591" lon="5.96815">
        <ele>529</ele>
        <time>2020-09-15T21:48:57Z</time>
      </trkpt>
      <trkpt lat="44.15999" lon="5.96708">
        <ele>529</ele>
        <time>2020-09-15T21:49:18Z</time>
      </trkpt>
      <trkpt lat="44.16081" lon="5.96604">
        <ele>529</ele>
        <time>2020-09-15T21:49:38Z</time>
      </trkpt>
      <trkpt lat="44.16172" lon="5.96496">
        <ele>528</ele>
        <time>2020-09-15T21:49:59Z</time>
      </trkpt>
      <trkpt lat="44.16199" lon="5.96468">
        <ele>527</ele>
        <time>2020-09-15T21:50:05Z</time>
      </trkpt>
      <trkpt lat="44.16526" lon="5.96106">
        <ele>526</ele>
        <time>2020-09-15T21:51:19Z</time>
      </trkpt>
      <trkpt lat="44.16654" lon="5.95965">
        <ele>527</ele>
        <time>2020-09-15T21:51:48Z</time>
      </trkpt>
      <trkpt lat="44.16695" lon="5.9592">
        <ele>527</ele>
        <time>2020-09-15T21:51:58Z</time>
      </trkpt>
      <trkpt lat="44.16713" lon="5.95899">
        <ele>526</ele>
        <time>2020-09-15T21:52:02Z</time>
      </trkpt>
      <trkpt lat="44.16765" lon="5.95839">
        <ele>525</ele>
        <time>2020-09-15T21:52:14Z</time>
      </trkpt>
      <trkpt lat="44.16816" lon="5.95786">
        <ele>520</ele>
        <time>2020-09-15T21:52:25Z</time>
      </trkpt>
      <trkpt lat="44.16825" lon="5.95779">
        <ele>519</ele>
        <time>2020-09-15T21:52:27Z</time>
      </trkpt>
      <trkpt lat="44.16835" lon="5.95773">
        <ele>519</ele>
        <time>2020-09-15T21:52:29Z</time>
      </trkpt>
      <trkpt lat="44.16845" lon="5.95768">
        <ele>517</ele>
        <time>2020-09-15T21:52:31Z</time>
      </trkpt>
      <trkpt lat="44.16859" lon="5.95766">
        <ele>516</ele>
        <time>2020-09-15T21:52:33Z</time>
      </trkpt>
      <trkpt lat="44.16885" lon="5.95766">
        <ele>514</ele>
        <time>2020-09-15T21:52:38Z</time>
      </trkpt>
      <trkpt lat="44.16907" lon="5.95769">
        <ele>513</ele>
        <time>2020-09-15T21:52:42Z</time>
      </trkpt>
      <trkpt lat="44.16929" lon="5.95776">
        <ele>512</ele>
        <time>2020-09-15T21:52:46Z</time>
      </trkpt>
      <trkpt lat="44.16952" lon="5.9579">
        <ele>514</ele>
        <time>2020-09-15T21:52:50Z</time>
      </trkpt>
      <trkpt lat="44.16974" lon="5.958">
        <ele>514</ele>
        <time>2020-09-15T21:52:55Z</time>
      </trkpt>
      <trkpt lat="44.17" lon="5.95807">
        <ele>514</ele>
        <time>2020-09-15T21:52:59Z</time>
      </trkpt>
      <trkpt lat="44.17025" lon="5.9581">
        <ele>513</ele>
        <time>2020-09-15T21:53:04Z</time>
      </trkpt>
      <trkpt lat="44.17058" lon="5.95812">
        <ele>512</ele>
        <time>2020-09-15T21:53:10Z</time>
      </trkpt>
      <trkpt lat="44.17087" lon="5.95807">
        <ele>510</ele>
        <time>2020-09-15T21:53:15Z</time>
      </trkpt>
      <trkpt lat="44.17112" lon="5.95799">
        <ele>511</ele>
        <time>2020-09-15T21:53:19Z</time>
      </trkpt>
      <trkpt lat="44.17137" lon="5.95785">
        <ele>508</ele>
        <time>2020-09-15T21:53:24Z</time>
      </trkpt>
      <trkpt lat="44.17157" lon="5.95769">
        <ele>504</ele>
        <time>2020-09-15T21:53:28Z</time>
      </trkpt>
      <trkpt lat="44.17175" lon="5.9575">
        <ele>500</ele>
        <time>2020-09-15T21:53:32Z</time>
      </trkpt>
      <trkpt lat="44.17193" lon="5.95725">
        <ele>499</ele>
        <time>2020-09-15T21:53:37Z</time>
      </trkpt>
      <trkpt lat="44.17235" lon="5.95649">
        <ele>491</ele>
        <time>2020-09-15T21:53:49Z</time>
      </trkpt>
      <trkpt lat="44.17255" lon="5.9562">
        <ele>489</ele>
        <time>2020-09-15T21:53:54Z</time>
      </trkpt>
      <trkpt lat="44.17271" lon="5.956">
        <ele>488</ele>
        <time>2020-09-15T21:53:58Z</time>
      </trkpt>
      <trkpt lat="44.17295" lon="5.95567">
        <ele>486</ele>
        <time>2020-09-15T21:54:04Z</time>
      </trkpt>
      <trkpt lat="44.17301" lon="5.95557">
        <ele>486</ele>
        <time>2020-09-15T21:54:06Z</time>
      </trkpt>
      <trkpt lat="44.17307" lon="5.95543">
        <ele>484</ele>
        <time>2020-09-15T21:54:08Z</time>
      </trkpt>
      <trkpt lat="44.17314" lon="5.95532">
        <ele>483</ele>
        <time>2020-09-15T21:54:10Z</time>
      </trkpt>
      <trkpt lat="44.17323" lon="5.95497">
        <ele>478</ele>
        <time>2020-09-15T21:54:14Z</time>
      </trkpt>
      <trkpt lat="44.17334" lon="5.95487">
        <ele>478</ele>
        <time>2020-09-15T21:54:17Z</time>
      </trkpt>
      <trkpt lat="44.17342" lon="5.95483">
        <ele>479</ele>
        <time>2020-09-15T21:54:18Z</time>
      </trkpt>
      <trkpt lat="44.1735" lon="5.95479">
        <ele>479</ele>
        <time>2020-09-15T21:54:20Z</time>
      </trkpt>
      <trkpt lat="44.17356" lon="5.95485">
        <ele>481</ele>
        <time>2020-09-15T21:54:21Z</time>
      </trkpt>
      <trkpt lat="44.17366" lon="5.9549">
        <ele>483</ele>
        <time>2020-09-15T21:54:23Z</time>
      </trkpt>
      <trkpt lat="44.17371" lon="5.9549">
        <ele>483</ele>
        <time>2020-09-15T21:54:24Z</time>
      </trkpt>
      <trkpt lat="44.17382" lon="5.95485">
        <ele>484</ele>
        <time>2020-09-15T21:54:26Z</time>
      </trkpt>
      <trkpt lat="44.1739" lon="5.95482">
        <ele>484</ele>
        <time>2020-09-15T21:54:27Z</time>
      </trkpt>
      <trkpt lat="44.1746" lon="5.9544">
        <ele>481</ele>
        <time>2020-09-15T21:54:41Z</time>
      </trkpt>
      <trkpt lat="44.17485" lon="5.9543">
        <ele>481</ele>
        <time>2020-09-15T21:54:45Z</time>
      </trkpt>
      <trkpt lat="44.17508" lon="5.95429">
        <ele>481</ele>
        <time>2020-09-15T21:54:50Z</time>
      </trkpt>
      <trkpt lat="44.17534" lon="5.95434">
        <ele>479</ele>
        <time>2020-09-15T21:54:54Z</time>
      </trkpt>
      <trkpt lat="44.17752" lon="5.9549">
        <ele>469</ele>
        <time>2020-09-15T21:55:34Z</time>
      </trkpt>
      <trkpt lat="44.17879" lon="5.95521">
        <ele>469</ele>
        <time>2020-09-15T21:55:57Z</time>
      </trkpt>
      <trkpt lat="44.17947" lon="5.95539">
        <ele>469</ele>
        <time>2020-09-15T21:56:09Z</time>
      </trkpt>
      <trkpt lat="44.18007" lon="5.95554">
        <ele>470</ele>
        <time>2020-09-15T21:56:20Z</time>
      </trkpt>
      <trkpt lat="44.18051" lon="5.95561">
        <ele>471</ele>
        <time>2020-09-15T21:56:28Z</time>
      </trkpt>
      <trkpt lat="44.18092" lon="5.95565">
        <ele>471</ele>
        <time>2020-09-15T21:56:35Z</time>
      </trkpt>
      <trkpt lat="44.1821" lon="5.95563">
        <ele>468</ele>
        <time>2020-09-15T21:56:56Z</time>
      </trkpt>
      <trkpt lat="44.18272" lon="5.95567">
        <ele>468</ele>
        <time>2020-09-15T21:57:07Z</time>
      </trkpt>
      <trkpt lat="44.18306" lon="5.95571">
        <ele>468</ele>
        <time>2020-09-15T21:57:13Z</time>
      </trkpt>
      <trkpt lat="44.1839" lon="5.9558">
        <ele>470</ele>
        <time>2020-09-15T21:57:28Z</time>
      </trkpt>
      <trkpt lat="44.18607" lon="5.95586">
        <ele>472</ele>
        <time>2020-09-15T21:58:07Z</time>
      </trkpt>
      <trkpt lat="44.1864" lon="5.95585">
        <ele>470</ele>
        <time>2020-09-15T21:58:13Z</time>
      </trkpt>
      <trkpt lat="44.18751" lon="5.95571">
        <ele>471</ele>
        <time>2020-09-15T21:58:32Z</time>
      </trkpt>
      <trkpt lat="44.18793" lon="5.95561">
        <ele>471</ele>
        <time>2020-09-15T21:58:40Z</time>
      </trkpt>
      <trkpt lat="44.18857" lon="5.95551">
        <ele>472</ele>
        <time>2020-09-15T21:58:51Z</time>
      </trkpt>
      <trkpt lat="44.18906" lon="5.95539">
        <ele>471</ele>
        <time>2020-09-15T21:59:00Z</time>
      </trkpt>
      <trkpt lat="44.18954" lon="5.95526">
        <ele>472</ele>
        <time>2020-09-15T21:59:09Z</time>
      </trkpt>
      <trkpt lat="44.19026" lon="5.95505">
        <ele>474</ele>
        <time>2020-09-15T21:59:22Z</time>
      </trkpt>
      <trkpt lat="44.19044" lon="5.955">
        <ele>475</ele>
        <time>2020-09-15T21:59:25Z</time>
      </trkpt>
      <trkpt lat="44.19088" lon="5.95482">
        <ele>478</ele>
        <time>2020-09-15T21:59:34Z</time>
      </trkpt>
      <trkpt lat="44.19112" lon="5.95476">
        <ele>484</ele>
        <time>2020-09-15T21:59:38Z</time>
      </trkpt>
      <trkpt lat="44.19123" lon="5.95474">
        <ele>486</ele>
        <time>2020-09-15T21:59:40Z</time>
      </trkpt>
      <trkpt lat="44.19184" lon="5.95458">
        <ele>495</ele>
        <time>2020-09-15T21:59:51Z</time>
      </trkpt>
      <trkpt lat="44.19212" lon="5.95447">
        <ele>492</ele>
        <time>2020-09-15T21:59:56Z</time>
      </trkpt>
      <trkpt lat="44.19224" lon="5.9544">
        <ele>491</ele>
        <time>2020-09-15T21:59:58Z</time>
      </trkpt>
      <trkpt lat="44.19235" lon="5.95431">
        <ele>488</ele>
        <time>2020-09-15T22:00:01Z</time>
      </trkpt>
      <trkpt lat="44.19257" lon="5.95408">
        <ele>483</ele>
        <time>2020-09-15T22:00:06Z</time>
      </trkpt>
      <trkpt lat="44.19287" lon="5.95381">
        <ele>484</ele>
        <time>2020-09-15T22:00:12Z</time>
      </trkpt>
      <trkpt lat="44.1936" lon="5.95324">
        <ele>479</ele>
        <time>2020-09-15T22:00:27Z</time>
      </trkpt>
      <trkpt lat="44.19385" lon="5.95306">
        <ele>480</ele>
        <time>2020-09-15T22:00:32Z</time>
      </trkpt>
      <trkpt lat="44.19425" lon="5.95267">
        <ele>475</ele>
        <time>2020-09-15T22:00:40Z</time>
      </trkpt>
      <trkpt lat="44.19587" lon="5.95094">
        <ele>469</ele>
        <time>2020-09-15T22:01:17Z</time>
      </trkpt>
      <trkpt lat="44.19612" lon="5.95074">
        <ele>472</ele>
        <time>2020-09-15T22:01:22Z</time>
      </trkpt>
      <trkpt lat="44.19683" lon="5.95035">
        <ele>481</ele>
        <time>2020-09-15T22:01:35Z</time>
      </trkpt>
      <trkpt lat="44.19713" lon="5.9501">
        <ele>484</ele>
        <time>2020-09-15T22:01:42Z</time>
      </trkpt>
      <trkpt lat="44.19731" lon="5.94989">
        <ele>485</ele>
        <time>2020-09-15T22:01:46Z</time>
      </trkpt>
      <trkpt lat="44.19749" lon="5.94958">
        <ele>484</ele>
        <time>2020-09-15T22:01:51Z</time>
      </trkpt>
      <trkpt lat="44.19848" lon="5.94778">
        <ele>483</ele>
        <time>2020-09-15T22:02:20Z</time>
      </trkpt>
      <trkpt lat="44.19911" lon="5.94695">
        <ele>482</ele>
        <time>2020-09-15T22:02:35Z</time>
      </trkpt>
      <trkpt lat="44.19931" lon="5.94641">
        <ele>476</ele>
        <time>2020-09-15T22:02:43Z</time>
      </trkpt>
      <trkpt lat="44.1994" lon="5.94629">
        <ele>476</ele>
        <time>2020-09-15T22:02:45Z</time>
      </trkpt>
      <trkpt lat="44.19961" lon="5.94617">
        <ele>476</ele>
        <time>2020-09-15T22:02:49Z</time>
      </trkpt>
      <trkpt lat="44.19958" lon="5.94608">
        <ele>475</ele>
        <time>2020-09-15T22:02:51Z</time>
      </trkpt>
      <trkpt lat="44.19944" lon="5.94543">
        <ele>478</ele>
        <time>2020-09-15T22:02:59Z</time>
      </trkpt>
      <trkpt lat="44.19943" lon="5.94538">
        <ele>479</ele>
        <time>2020-09-15T22:03:00Z</time>
      </trkpt>
      <trkpt lat="44.19944" lon="5.94533">
        <ele>479</ele>
        <time>2020-09-15T22:03:01Z</time>
      </trkpt>
      <trkpt lat="44.19949" lon="5.94517">
        <ele>481</ele>
        <time>2020-09-15T22:03:03Z</time>
      </trkpt>
      <trkpt lat="44.1996" lon="5.94497">
        <ele>483</ele>
        <time>2020-09-15T22:03:06Z</time>
      </trkpt>
      <trkpt lat="44.19983" lon="5.94472">
        <ele>486</ele>
        <time>2020-09-15T22:03:11Z</time>
      </trkpt>
      <trkpt lat="44.1999" lon="5.94468">
        <ele>485</ele>
        <time>2020-09-15T22:03:13Z</time>
      </trkpt>
      <trkpt lat="44.2" lon="5.94461">
        <ele>484</ele>
        <time>2020-09-15T22:03:15Z</time>
      </trkpt>
      <trkpt lat="44.20032" lon="5.94444">
        <ele>481</ele>
        <time>2020-09-15T22:03:21Z</time>
      </trkpt>
      <trkpt lat="44.20043" lon="5.94432">
        <ele>481</ele>
        <time>2020-09-15T22:03:23Z</time>
      </trkpt>
      <trkpt lat="44.20077" lon="5.94336">
        <ele>479</ele>
        <time>2020-09-15T22:03:37Z</time>
      </trkpt>
      <trkpt lat="44.20083" lon="5.94311">
        <ele>477</ele>
        <time>2020-09-15T22:03:40Z</time>
      </trkpt>
      <trkpt lat="44.20083" lon="5.94306">
        <ele>477</ele>
        <time>2020-09-15T22:03:41Z</time>
      </trkpt>
      <trkpt lat="44.20084" lon="5.94297">
        <ele>478</ele>
        <time>2020-09-15T22:03:42Z</time>
      </trkpt>
      <trkpt lat="44.20083" lon="5.94287">
        <ele>478</ele>
        <time>2020-09-15T22:03:43Z</time>
      </trkpt>
      <trkpt lat="44.20082" lon="5.9427">
        <ele>480</ele>
        <time>2020-09-15T22:03:45Z</time>
      </trkpt>
      <trkpt lat="44.20084" lon="5.94265">
        <ele>479</ele>
        <time>2020-09-15T22:03:46Z</time>
      </trkpt>
      <trkpt lat="44.20084" lon="5.94259">
        <ele>479</ele>
        <time>2020-09-15T22:03:47Z</time>
      </trkpt>
      <trkpt lat="44.20083" lon="5.94253">
        <ele>480</ele>
        <time>2020-09-15T22:03:48Z</time>
      </trkpt>
      <trkpt lat="44.20084" lon="5.94247">
        <ele>480</ele>
        <time>2020-09-15T22:03:48Z</time>
      </trkpt>
      <trkpt lat="44.20084" lon="5.94227">
        <ele>480</ele>
        <time>2020-09-15T22:03:51Z</time>
      </trkpt>
      <trkpt lat="44.20082" lon="5.94213">
        <ele>482</ele>
        <time>2020-09-15T22:03:53Z</time>
      </trkpt>
      <trkpt lat="44.20082" lon="5.94209">
        <ele>482</ele>
        <time>2020-09-15T22:03:53Z</time>
      </trkpt>
      <trkpt lat="44.20082" lon="5.94138">
        <ele>481</ele>
        <time>2020-09-15T22:04:02Z</time>
      </trkpt>
      <trkpt lat="44.20082" lon="5.94105">
        <ele>479</ele>
        <time>2020-09-15T22:04:07Z</time>
      </trkpt>
      <trkpt lat="44.20081" lon="5.94035">
        <ele>477</ele>
        <time>2020-09-15T22:04:16Z</time>
      </trkpt>
      <trkpt lat="44.20083" lon="5.94008">
        <ele>475</ele>
        <time>2020-09-15T22:04:19Z</time>
      </trkpt>
      <trkpt lat="44.20084" lon="5.94">
        <ele>474</ele>
        <time>2020-09-15T22:04:20Z</time>
      </trkpt>
      <trkpt lat="44.20087" lon="5.93993">
        <ele>474</ele>
        <time>2020-09-15T22:04:21Z</time>
      </trkpt>
      <trkpt lat="44.2009" lon="5.9399">
        <ele>474</ele>
        <time>2020-09-15T22:04:22Z</time>
      </trkpt>
      <trkpt lat="44.20093" lon="5.93986">
        <ele>474</ele>
        <time>2020-09-15T22:04:22Z</time>
      </trkpt>
      <trkpt lat="44.20096" lon="5.93985">
        <ele>473</ele>
        <time>2020-09-15T22:04:23Z</time>
      </trkpt>
      <trkpt lat="44.20162" lon="5.93957">
        <ele>467</ele>
        <time>2020-09-15T22:04:35Z</time>
      </trkpt>
      <trkpt lat="44.20174" lon="5.93944">
        <ele>469</ele>
        <time>2020-09-15T22:04:38Z</time>
      </trkpt>
      <trkpt lat="44.20178" lon="5.93936">
        <ele>470</ele>
        <time>2020-09-15T22:04:39Z</time>
      </trkpt>
      <trkpt lat="44.20182" lon="5.93927">
        <ele>471</ele>
        <time>2020-09-15T22:04:41Z</time>
      </trkpt>
      <trkpt lat="44.20204" lon="5.93895">
        <ele>476</ele>
        <time>2020-09-15T22:04:46Z</time>
      </trkpt>
      <trkpt lat="44.20239" lon="5.93797">
        <ele>481</ele>
        <time>2020-09-15T22:05:00Z</time>
      </trkpt>
      <trkpt lat="44.20258" lon="5.93752">
        <ele>481</ele>
        <time>2020-09-15T22:05:07Z</time>
      </trkpt>
      <trkpt lat="44.20281" lon="5.93716">
        <ele>484</ele>
        <time>2020-09-15T22:05:13Z</time>
      </trkpt>
      <trkpt lat="44.20315" lon="5.93671">
        <ele>487</ele>
        <time>2020-09-15T22:05:21Z</time>
      </trkpt>
      <trkpt lat="44.20413" lon="5.93561">
        <ele>490</ele>
        <time>2020-09-15T22:05:44Z</time>
      </trkpt>
      <trkpt lat="44.20524" lon="5.93451">
        <ele>491</ele>
        <time>2020-09-15T22:06:08Z</time>
      </trkpt>
      <trkpt lat="44.20657" lon="5.9331">
        <ele>495</ele>
        <time>2020-09-15T22:06:38Z</time>
      </trkpt>
      <trkpt lat="44.20686" lon="5.93286">
        <ele>494</ele>
        <time>2020-09-15T22:06:44Z</time>
      </trkpt>
      <trkpt lat="44.20708" lon="5.9328">
        <ele>494</ele>
        <time>2020-09-15T22:06:48Z</time>
      </trkpt>
      <trkpt lat="44.20718" lon="5.93272">
        <ele>495</ele>
        <time>2020-09-15T22:06:50Z</time>
      </trkpt>
      <trkpt lat="44.20704" lon="5.93247">
        <ele>494</ele>
        <time>2020-09-15T22:06:54Z</time>
      </trkpt>
      <trkpt lat="44.20711" lon="5.9324">
        <ele>495</ele>
        <time>2020-09-15T22:06:55Z</time>
      </trkpt>
      <trkpt lat="44.20801" lon="5.93146">
        <ele>494</ele>
        <time>2020-09-15T22:07:15Z</time>
      </trkpt>
      <trkpt lat="44.20803" lon="5.93144">
        <ele>494</ele>
        <time>2020-09-15T22:07:16Z</time>
      </trkpt>
      <trkpt lat="44.20853" lon="5.93081">
        <ele>493</ele>
        <time>2020-09-15T22:07:28Z</time>
      </trkpt>
      <trkpt lat="44.2119" lon="5.92723">
        <ele>497</ele>
        <time>2020-09-15T22:08:43Z</time>
      </trkpt>
      <trkpt lat="44.21647" lon="5.92236">
        <ele>500</ele>
        <time>2020-09-15T22:10:25Z</time>
      </trkpt>
      <trkpt lat="44.2167" lon="5.92215">
        <ele>500</ele>
        <time>2020-09-15T22:10:30Z</time>
      </trkpt>
      <trkpt lat="44.2169" lon="5.92193">
        <ele>500</ele>
        <time>2020-09-15T22:10:35Z</time>
      </trkpt>
      <trkpt lat="44.21713" lon="5.92168">
        <ele>499</ele>
        <time>2020-09-15T22:10:40Z</time>
      </trkpt>
      <trkpt lat="44.21737" lon="5.92136">
        <ele>500</ele>
        <time>2020-09-15T22:10:46Z</time>
      </trkpt>
      <trkpt lat="44.21804" lon="5.92035">
        <ele>501</ele>
        <time>2020-09-15T22:11:03Z</time>
      </trkpt>
      <trkpt lat="44.2191" lon="5.91916">
        <ele>499</ele>
        <time>2020-09-15T22:11:28Z</time>
      </trkpt>
      <trkpt lat="44.21943" lon="5.9188">
        <ele>500</ele>
        <time>2020-09-15T22:11:35Z</time>
      </trkpt>
      <trkpt lat="44.2203" lon="5.91812">
        <ele>501</ele>
        <time>2020-09-15T22:11:53Z</time>
      </trkpt>
      <trkpt lat="44.22039" lon="5.91803">
        <ele>501</ele>
        <time>2020-09-15T22:11:55Z</time>
      </trkpt>
      <trkpt lat="44.22085" lon="5.91756">
        <ele>501</ele>
        <time>2020-09-15T22:12:05Z</time>
      </trkpt>
      <trkpt lat="44.22397" lon="5.9141">
        <ele>502</ele>
        <time>2020-09-15T22:13:16Z</time>
      </trkpt>
      <trkpt lat="44.22405" lon="5.91402">
        <ele>502</ele>
        <time>2020-09-15T22:13:18Z</time>
      </trkpt>
      <trkpt lat="44.22444" lon="5.91382">
        <ele>502</ele>
        <time>2020-09-15T22:13:25Z</time>
      </trkpt>
      <trkpt lat="44.22455" lon="5.91382">
        <ele>502</ele>
        <time>2020-09-15T22:13:27Z</time>
      </trkpt>
      <trkpt lat="44.22463" lon="5.91387">
        <ele>502</ele>
        <time>2020-09-15T22:13:29Z</time>
      </trkpt>
      <trkpt lat="44.22478" lon="5.91409">
        <ele>501</ele>
        <time>2020-09-15T22:13:32Z</time>
      </trkpt>
      <trkpt lat="44.22492" lon="5.91416">
        <ele>501</ele>
        <time>2020-09-15T22:13:35Z</time>
      </trkpt>
      <trkpt lat="44.22505" lon="5.91414">
        <ele>501</ele>
        <time>2020-09-15T22:13:37Z</time>
      </trkpt>
      <trkpt lat="44.22519" lon="5.91401">
        <ele>502</ele>
        <time>2020-09-15T22:13:40Z</time>
      </trkpt>
      <trkpt lat="44.22525" lon="5.91385">
        <ele>503</ele>
        <time>2020-09-15T22:13:43Z</time>
      </trkpt>
      <trkpt lat="44.22527" lon="5.91372">
        <ele>503</ele>
        <time>2020-09-15T22:13:44Z</time>
      </trkpt>
      <trkpt lat="44.22526" lon="5.9136">
        <ele>503</ele>
        <time>2020-09-15T22:13:46Z</time>
      </trkpt>
      <trkpt lat="44.22523" lon="5.91351">
        <ele>504</ele>
        <time>2020-09-15T22:13:47Z</time>
      </trkpt>
      <trkpt lat="44.22517" lon="5.91341">
        <ele>504</ele>
        <time>2020-09-15T22:13:49Z</time>
      </trkpt>
      <trkpt lat="44.22512" lon="5.91335">
        <ele>504</ele>
        <time>2020-09-15T22:13:50Z</time>
      </trkpt>
      <trkpt lat="44.2251" lon="5.91317">
        <ele>504</ele>
        <time>2020-09-15T22:13:52Z</time>
      </trkpt>
      <trkpt lat="44.22512" lon="5.91304">
        <ele>504</ele>
        <time>2020-09-15T22:13:54Z</time>
      </trkpt>
      <trkpt lat="44.22524" lon="5.91273">
        <ele>505</ele>
        <time>2020-09-15T22:13:59Z</time>
      </trkpt>
      <trkpt lat="44.22539" lon="5.91251">
        <ele>505</ele>
        <time>2020-09-15T22:14:02Z</time>
      </trkpt>
      <trkpt lat="44.22687" lon="5.91082">
        <ele>506</ele>
        <time>2020-09-15T22:14:36Z</time>
      </trkpt>
      <trkpt lat="44.23172" lon="5.90542">
        <ele>510</ele>
        <time>2020-09-15T22:16:27Z</time>
      </trkpt>
      <trkpt lat="44.2321" lon="5.90501">
        <ele>510</ele>
        <time>2020-09-15T22:16:35Z</time>
      </trkpt>
      <trkpt lat="44.23231" lon="5.90483">
        <ele>510</ele>
        <time>2020-09-15T22:16:40Z</time>
      </trkpt>
      <trkpt lat="44.23244" lon="5.90479">
        <ele>510</ele>
        <time>2020-09-15T22:16:42Z</time>
      </trkpt>
      <trkpt lat="44.23256" lon="5.90478">
        <ele>510</ele>
        <time>2020-09-15T22:16:44Z</time>
      </trkpt>
      <trkpt lat="44.23262" lon="5.90485">
        <ele>510</ele>
        <time>2020-09-15T22:16:46Z</time>
      </trkpt>
      <trkpt lat="44.23266" lon="5.90486">
        <ele>510</ele>
        <time>2020-09-15T22:16:46Z</time>
      </trkpt>
      <trkpt lat="44.2327" lon="5.90486">
        <ele>510</ele>
        <time>2020-09-15T22:16:47Z</time>
      </trkpt>
      <trkpt lat="44.23277" lon="5.90483">
        <ele>510</ele>
        <time>2020-09-15T22:16:48Z</time>
      </trkpt>
      <trkpt lat="44.23282" lon="5.90474">
        <ele>510</ele>
        <time>2020-09-15T22:16:50Z</time>
      </trkpt>
      <trkpt lat="44.23283" lon="5.90468">
        <ele>510</ele>
        <time>2020-09-15T22:16:51Z</time>
      </trkpt>
      <trkpt lat="44.23282" lon="5.90446">
        <ele>510</ele>
        <time>2020-09-15T22:16:53Z</time>
      </trkpt>
      <trkpt lat="44.23285" lon="5.90431">
        <ele>510</ele>
        <time>2020-09-15T22:16:55Z</time>
      </trkpt>
      <trkpt lat="44.23306" lon="5.90392">
        <ele>510</ele>
        <time>2020-09-15T22:17:02Z</time>
      </trkpt>
      <trkpt lat="44.23456" lon="5.90224">
        <ele>513</ele>
        <time>2020-09-15T22:17:36Z</time>
      </trkpt>
      <trkpt lat="44.23475" lon="5.90202">
        <ele>514</ele>
        <time>2020-09-15T22:17:40Z</time>
      </trkpt>
      <trkpt lat="44.23558" lon="5.90109">
        <ele>517</ele>
        <time>2020-09-15T22:17:59Z</time>
      </trkpt>
      <trkpt lat="44.23568" lon="5.90097">
        <ele>517</ele>
        <time>2020-09-15T22:18:02Z</time>
      </trkpt>
      <trkpt lat="44.23572" lon="5.90093">
        <ele>517</ele>
        <time>2020-09-15T22:18:02Z</time>
      </trkpt>
      <trkpt lat="44.23582" lon="5.90082">
        <ele>517</ele>
        <time>2020-09-15T22:18:05Z</time>
      </trkpt>
      <trkpt lat="44.23586" lon="5.90077">
        <ele>517</ele>
        <time>2020-09-15T22:18:06Z</time>
      </trkpt>
      <trkpt lat="44.23596" lon="5.90066">
        <ele>518</ele>
        <time>2020-09-15T22:18:08Z</time>
      </trkpt>
      <trkpt lat="44.23678" lon="5.89974">
        <ele>521</ele>
        <time>2020-09-15T22:18:27Z</time>
      </trkpt>
      <trkpt lat="44.24465" lon="5.89107">
        <ele>527</ele>
        <time>2020-09-15T22:21:25Z</time>
      </trkpt>
      <trkpt lat="44.24485" lon="5.89079">
        <ele>527</ele>
        <time>2020-09-15T22:21:30Z</time>
      </trkpt>
      <trkpt lat="44.24493" lon="5.89064">
        <ele>528</ele>
        <time>2020-09-15T22:21:32Z</time>
      </trkpt>
      <trkpt lat="44.2454" lon="5.88957">
        <ele>534</ele>
        <time>2020-09-15T22:21:48Z</time>
      </trkpt>
      <trkpt lat="44.24546" lon="5.88947">
        <ele>535</ele>
        <time>2020-09-15T22:21:50Z</time>
      </trkpt>
      <trkpt lat="44.24558" lon="5.88931">
        <ele>536</ele>
        <time>2020-09-15T22:21:53Z</time>
      </trkpt>
      <trkpt lat="44.24573" lon="5.88915">
        <ele>536</ele>
        <time>2020-09-15T22:21:56Z</time>
      </trkpt>
      <trkpt lat="44.24631" lon="5.88875">
        <ele>540</ele>
        <time>2020-09-15T22:22:08Z</time>
      </trkpt>
      <trkpt lat="44.24709" lon="5.88822">
        <ele>544</ele>
        <time>2020-09-15T22:22:23Z</time>
      </trkpt>
      <trkpt lat="44.24754" lon="5.88792">
        <ele>547</ele>
        <time>2020-09-15T22:22:32Z</time>
      </trkpt>
      <trkpt lat="44.24789" lon="5.88769">
        <ele>548</ele>
        <time>2020-09-15T22:22:39Z</time>
      </trkpt>
      <trkpt lat="44.24888" lon="5.88708">
        <ele>548</ele>
        <time>2020-09-15T22:22:58Z</time>
      </trkpt>
      <trkpt lat="44.24916" lon="5.88688">
        <ele>549</ele>
        <time>2020-09-15T22:23:04Z</time>
      </trkpt>
      <trkpt lat="44.24944" lon="5.88663">
        <ele>551</ele>
        <time>2020-09-15T22:23:10Z</time>
      </trkpt>
      <trkpt lat="44.24968" lon="5.88637">
        <ele>552</ele>
        <time>2020-09-15T22:23:15Z</time>
      </trkpt>
      <trkpt lat="44.24996" lon="5.88602">
        <ele>553</ele>
        <time>2020-09-15T22:23:22Z</time>
      </trkpt>
      <trkpt lat="44.25043" lon="5.8854">
        <ele>554</ele>
        <time>2020-09-15T22:23:34Z</time>
      </trkpt>
      <trkpt lat="44.25062" lon="5.88518">
        <ele>554</ele>
        <time>2020-09-15T22:23:38Z</time>
      </trkpt>
      <trkpt lat="44.25069" lon="5.88502">
        <ele>556</ele>
        <time>2020-09-15T22:23:40Z</time>
      </trkpt>
      <trkpt lat="44.25077" lon="5.88479">
        <ele>557</ele>
        <time>2020-09-15T22:23:44Z</time>
      </trkpt>
      <trkpt lat="44.25078" lon="5.88473">
        <ele>557</ele>
        <time>2020-09-15T22:23:44Z</time>
      </trkpt>
      <trkpt lat="44.25085" lon="5.88424">
        <ele>559</ele>
        <time>2020-09-15T22:23:51Z</time>
      </trkpt>
      <trkpt lat="44.25086" lon="5.88413">
        <ele>560</ele>
        <time>2020-09-15T22:23:52Z</time>
      </trkpt>
      <trkpt lat="44.2509" lon="5.88375">
        <ele>560</ele>
        <time>2020-09-15T22:23:57Z</time>
      </trkpt>
      <trkpt lat="44.25094" lon="5.88352">
        <ele>561</ele>
        <time>2020-09-15T22:24:00Z</time>
      </trkpt>
      <trkpt lat="44.25098" lon="5.88334">
        <ele>561</ele>
        <time>2020-09-15T22:24:02Z</time>
      </trkpt>
      <trkpt lat="44.25171" lon="5.88106">
        <ele>561</ele>
        <time>2020-09-15T22:24:34Z</time>
      </trkpt>
      <trkpt lat="44.25265" lon="5.87813">
        <ele>568</ele>
        <time>2020-09-15T22:25:15Z</time>
      </trkpt>
      <trkpt lat="44.25296" lon="5.87733">
        <ele>568</ele>
        <time>2020-09-15T22:25:27Z</time>
      </trkpt>
      <trkpt lat="44.25352" lon="5.87599">
        <ele>569</ele>
        <time>2020-09-15T22:25:47Z</time>
      </trkpt>
      <trkpt lat="44.2544" lon="5.87396">
        <ele>574</ele>
        <time>2020-09-15T22:26:17Z</time>
      </trkpt>
      <trkpt lat="44.25471" lon="5.8733">
        <ele>576</ele>
        <time>2020-09-15T22:26:27Z</time>
      </trkpt>
      <trkpt lat="44.2553" lon="5.87215">
        <ele>577</ele>
        <time>2020-09-15T22:26:45Z</time>
      </trkpt>
      <trkpt lat="44.25556" lon="5.8717">
        <ele>577</ele>
        <time>2020-09-15T22:26:52Z</time>
      </trkpt>
      <trkpt lat="44.25594" lon="5.87101">
        <ele>577</ele>
        <time>2020-09-15T22:27:03Z</time>
      </trkpt>
      <trkpt lat="44.25649" lon="5.87004">
        <ele>577</ele>
        <time>2020-09-15T22:27:19Z</time>
      </trkpt>
      <trkpt lat="44.25682" lon="5.86951">
        <ele>578</ele>
        <time>2020-09-15T22:27:28Z</time>
      </trkpt>
      <trkpt lat="44.25711" lon="5.86905">
        <ele>578</ele>
        <time>2020-09-15T22:27:36Z</time>
      </trkpt>
      <trkpt lat="44.25828" lon="5.86736">
        <ele>583</ele>
        <time>2020-09-15T22:28:06Z</time>
      </trkpt>
      <trkpt lat="44.25852" lon="5.86699">
        <ele>585</ele>
        <time>2020-09-15T22:28:12Z</time>
      </trkpt>
      <trkpt lat="44.25935" lon="5.86538">
        <ele>578</ele>
        <time>2020-09-15T22:28:37Z</time>
      </trkpt>
      <trkpt lat="44.26021" lon="5.86384">
        <ele>577</ele>
        <time>2020-09-15T22:29:02Z</time>
      </trkpt>
      <trkpt lat="44.26056" lon="5.86322">
        <ele>577</ele>
        <time>2020-09-15T22:29:12Z</time>
      </trkpt>
      <trkpt lat="44.26059" lon="5.86316">
        <ele>577</ele>
        <time>2020-09-15T22:29:13Z</time>
      </trkpt>
      <trkpt lat="44.26064" lon="5.86309">
        <ele>577</ele>
        <time>2020-09-15T22:29:15Z</time>
      </trkpt>
      <trkpt lat="44.26076" lon="5.86294">
        <ele>578</ele>
        <time>2020-09-15T22:29:17Z</time>
      </trkpt>
      <trkpt lat="44.26154" lon="5.86217">
        <ele>583</ele>
        <time>2020-09-15T22:29:34Z</time>
      </trkpt>
      <trkpt lat="44.26186" lon="5.86188">
        <ele>588</ele>
        <time>2020-09-15T22:29:41Z</time>
      </trkpt>
      <trkpt lat="44.26224" lon="5.86162">
        <ele>592</ele>
        <time>2020-09-15T22:29:49Z</time>
      </trkpt>
      <trkpt lat="44.26302" lon="5.86151">
        <ele>595</ele>
        <time>2020-09-15T22:30:03Z</time>
      </trkpt>
      <trkpt lat="44.26394" lon="5.86119">
        <ele>600</ele>
        <time>2020-09-15T22:30:20Z</time>
      </trkpt>
      <trkpt lat="44.26432" lon="5.86101">
        <ele>603</ele>
        <time>2020-09-15T22:30:27Z</time>
      </trkpt>
      <trkpt lat="44.26448" lon="5.86093">
        <ele>604</ele>
        <time>2020-09-15T22:30:30Z</time>
      </trkpt>
      <trkpt lat="44.26493" lon="5.86092">
        <ele>602</ele>
        <time>2020-09-15T22:30:38Z</time>
      </trkpt>
      <trkpt lat="44.2652" lon="5.86059">
        <ele>606</ele>
        <time>2020-09-15T22:30:44Z</time>
      </trkpt>
      <trkpt lat="44.26692" lon="5.85975">
        <ele>611</ele>
        <time>2020-09-15T22:31:17Z</time>
      </trkpt>
      <trkpt lat="44.26701" lon="5.85964">
        <ele>612</ele>
        <time>2020-09-15T22:31:19Z</time>
      </trkpt>
      <trkpt lat="44.2671" lon="5.8595">
        <ele>613</ele>
        <time>2020-09-15T22:31:21Z</time>
      </trkpt>
      <trkpt lat="44.26754" lon="5.85861">
        <ele>615</ele>
        <time>2020-09-15T22:31:35Z</time>
      </trkpt>
      <trkpt lat="44.26788" lon="5.85786">
        <ele>617</ele>
        <time>2020-09-15T22:31:46Z</time>
      </trkpt>
      <trkpt lat="44.26807" lon="5.85755">
        <ele>618</ele>
        <time>2020-09-15T22:31:51Z</time>
      </trkpt>
      <trkpt lat="44.26813" lon="5.85743">
        <ele>618</ele>
        <time>2020-09-15T22:31:53Z</time>
      </trkpt>
      <trkpt lat="44.26823" lon="5.85731">
        <ele>618</ele>
        <time>2020-09-15T22:31:56Z</time>
      </trkpt>
      <trkpt lat="44.26831" lon="5.85729">
        <ele>618</ele>
        <time>2020-09-15T22:31:57Z</time>
      </trkpt>
      <trkpt lat="44.26843" lon="5.85719">
        <ele>618</ele>
        <time>2020-09-15T22:32:00Z</time>
      </trkpt>
      <trkpt lat="44.26956" lon="5.8566">
        <ele>617</ele>
        <time>2020-09-15T22:32:21Z</time>
      </trkpt>
      <trkpt lat="44.26996" lon="5.85633">
        <ele>616</ele>
        <time>2020-09-15T22:32:29Z</time>
      </trkpt>
      <trkpt lat="44.27037" lon="5.85596">
        <ele>614</ele>
        <time>2020-09-15T22:32:38Z</time>
      </trkpt>
      <trkpt lat="44.27054" lon="5.85575">
        <ele>614</ele>
        <time>2020-09-15T22:32:42Z</time>
      </trkpt>
      <trkpt lat="44.27084" lon="5.85527">
        <ele>614</ele>
        <time>2020-09-15T22:32:50Z</time>
      </trkpt>
      <trkpt lat="44.27098" lon="5.85492">
        <ele>614</ele>
        <time>2020-09-15T22:32:55Z</time>
      </trkpt>
      <trkpt lat="44.27119" lon="5.85431">
        <ele>614</ele>
        <time>2020-09-15T22:33:03Z</time>
      </trkpt>
      <trkpt lat="44.27132" lon="5.85399">
        <ele>613</ele>
        <time>2020-09-15T22:33:08Z</time>
      </trkpt>
      <trkpt lat="44.27143" lon="5.85383">
        <ele>612</ele>
        <time>2020-09-15T22:33:11Z</time>
      </trkpt>
      <trkpt lat="44.27157" lon="5.85369">
        <ele>612</ele>
        <time>2020-09-15T22:33:14Z</time>
      </trkpt>
      <trkpt lat="44.27175" lon="5.85361">
        <ele>612</ele>
        <time>2020-09-15T22:33:17Z</time>
      </trkpt>
      <trkpt lat="44.27191" lon="5.85357">
        <ele>611</ele>
        <time>2020-09-15T22:33:20Z</time>
      </trkpt>
      <trkpt lat="44.27248" lon="5.85355">
        <ele>610</ele>
        <time>2020-09-15T22:33:30Z</time>
      </trkpt>
      <trkpt lat="44.27298" lon="5.85357">
        <ele>610</ele>
        <time>2020-09-15T22:33:39Z</time>
      </trkpt>
      <trkpt lat="44.27351" lon="5.85366">
        <ele>609</ele>
        <time>2020-09-15T22:33:49Z</time>
      </trkpt>
      <trkpt lat="44.27424" lon="5.85389">
        <ele>608</ele>
        <time>2020-09-15T22:34:02Z</time>
      </trkpt>
      <trkpt lat="44.27438" lon="5.85391">
        <ele>608</ele>
        <time>2020-09-15T22:34:05Z</time>
      </trkpt>
      <trkpt lat="44.27466" lon="5.85387">
        <ele>607</ele>
        <time>2020-09-15T22:34:10Z</time>
      </trkpt>
      <trkpt lat="44.27476" lon="5.85382">
        <ele>607</ele>
        <time>2020-09-15T22:34:12Z</time>
      </trkpt>
      <trkpt lat="44.275" lon="5.85362">
        <ele>607</ele>
        <time>2020-09-15T22:34:17Z</time>
      </trkpt>
      <trkpt lat="44.27543" lon="5.85293">
        <ele>606</ele>
        <time>2020-09-15T22:34:28Z</time>
      </trkpt>
      <trkpt lat="44.27566" lon="5.85267">
        <ele>606</ele>
        <time>2020-09-15T22:34:33Z</time>
      </trkpt>
      <trkpt lat="44.27595" lon="5.85243">
        <ele>607</ele>
        <time>2020-09-15T22:34:39Z</time>
      </trkpt>
      <trkpt lat="44.2766" lon="5.85206">
        <ele>608</ele>
        <time>2020-09-15T22:34:52Z</time>
      </trkpt>
      <trkpt lat="44.27683" lon="5.8519">
        <ele>609</ele>
        <time>2020-09-15T22:34:56Z</time>
      </trkpt>
      <trkpt lat="44.27707" lon="5.85168">
        <ele>610</ele>
        <time>2020-09-15T22:35:02Z</time>
      </trkpt>
      <trkpt lat="44.28023" lon="5.84833">
        <ele>615</ele>
        <time>2020-09-15T22:36:12Z</time>
      </trkpt>
      <trkpt lat="44.28061" lon="5.84807">
        <ele>612</ele>
        <time>2020-09-15T22:36:20Z</time>
      </trkpt>
      <trkpt lat="44.28127" lon="5.84783">
        <ele>610</ele>
        <time>2020-09-15T22:36:32Z</time>
      </trkpt>
      <trkpt lat="44.28152" lon="5.8477">
        <ele>609</ele>
        <time>2020-09-15T22:36:37Z</time>
      </trkpt>
      <trkpt lat="44.28263" lon="5.84687">
        <ele>610</ele>
        <time>2020-09-15T22:36:59Z</time>
      </trkpt>
      <trkpt lat="44.28288" lon="5.8468">
        <ele>610</ele>
        <time>2020-09-15T22:37:04Z</time>
      </trkpt>
      <trkpt lat="44.28301" lon="5.8468">
        <ele>610</ele>
        <time>2020-09-15T22:37:06Z</time>
      </trkpt>
      <trkpt lat="44.2832" lon="5.84683">
        <ele>610</ele>
        <time>2020-09-15T22:37:09Z</time>
      </trkpt>
      <trkpt lat="44.28375" lon="5.84696">
        <ele>610</ele>
        <time>2020-09-15T22:37:19Z</time>
      </trkpt>
      <trkpt lat="44.28406" lon="5.84696">
        <ele>609</ele>
        <time>2020-09-15T22:37:25Z</time>
      </trkpt>
      <trkpt lat="44.28432" lon="5.84692">
        <ele>608</ele>
        <time>2020-09-15T22:37:29Z</time>
      </trkpt>
      <trkpt lat="44.28451" lon="5.84685">
        <ele>608</ele>
        <time>2020-09-15T22:37:33Z</time>
      </trkpt>
      <trkpt lat="44.28467" lon="5.84673">
        <ele>608</ele>
        <time>2020-09-15T22:37:36Z</time>
      </trkpt>
      <trkpt lat="44.28477" lon="5.8466">
        <ele>607</ele>
        <time>2020-09-15T22:37:39Z</time>
      </trkpt>
      <trkpt lat="44.28484" lon="5.84633">
        <ele>607</ele>
        <time>2020-09-15T22:37:42Z</time>
      </trkpt>
      <trkpt lat="44.28495" lon="5.8457">
        <ele>606</ele>
        <time>2020-09-15T22:37:50Z</time>
      </trkpt>
      <trkpt lat="44.28505" lon="5.84531">
        <ele>605</ele>
        <time>2020-09-15T22:37:56Z</time>
      </trkpt>
      <trkpt lat="44.28515" lon="5.84501">
        <ele>604</ele>
        <time>2020-09-15T22:38:00Z</time>
      </trkpt>
      <trkpt lat="44.28524" lon="5.84486">
        <ele>604</ele>
        <time>2020-09-15T22:38:02Z</time>
      </trkpt>
      <trkpt lat="44.28535" lon="5.84473">
        <ele>603</ele>
        <time>2020-09-15T22:38:05Z</time>
      </trkpt>
      <trkpt lat="44.28553" lon="5.8446">
        <ele>602</ele>
        <time>2020-09-15T22:38:09Z</time>
      </trkpt>
      <trkpt lat="44.28597" lon="5.84435">
        <ele>599</ele>
        <time>2020-09-15T22:38:17Z</time>
      </trkpt>
      <trkpt lat="44.28623" lon="5.84423">
        <ele>598</ele>
        <time>2020-09-15T22:38:22Z</time>
      </trkpt>
      <trkpt lat="44.28657" lon="5.84413">
        <ele>597</ele>
        <time>2020-09-15T22:38:28Z</time>
      </trkpt>
      <trkpt lat="44.28749" lon="5.84397">
        <ele>594</ele>
        <time>2020-09-15T22:38:45Z</time>
      </trkpt>
      <trkpt lat="44.28777" lon="5.84385">
        <ele>594</ele>
        <time>2020-09-15T22:38:50Z</time>
      </trkpt>
      <trkpt lat="44.28803" lon="5.84368">
        <ele>592</ele>
        <time>2020-09-15T22:38:55Z</time>
      </trkpt>
      <trkpt lat="44.28832" lon="5.84342">
        <ele>590</ele>
        <time>2020-09-15T22:39:01Z</time>
      </trkpt>
      <trkpt lat="44.28907" lon="5.8426">
        <ele>584</ele>
        <time>2020-09-15T22:39:18Z</time>
      </trkpt>
      <trkpt lat="44.2894" lon="5.84234">
        <ele>580</ele>
        <time>2020-09-15T22:39:25Z</time>
      </trkpt>
      <trkpt lat="44.28956" lon="5.84229">
        <ele>578</ele>
        <time>2020-09-15T22:39:28Z</time>
      </trkpt>
      <trkpt lat="44.28966" lon="5.84229">
        <ele>578</ele>
        <time>2020-09-15T22:39:29Z</time>
      </trkpt>
      <trkpt lat="44.28994" lon="5.84238">
        <ele>577</ele>
        <time>2020-09-15T22:39:35Z</time>
      </trkpt>
      <trkpt lat="44.29155" lon="5.84321">
        <ele>568</ele>
        <time>2020-09-15T22:40:05Z</time>
      </trkpt>
      <trkpt lat="44.29168" lon="5.84325">
        <ele>567</ele>
        <time>2020-09-15T22:40:07Z</time>
      </trkpt>
      <trkpt lat="44.2918" lon="5.84324">
        <ele>566</ele>
        <time>2020-09-15T22:40:10Z</time>
      </trkpt>
      <trkpt lat="44.29202" lon="5.84317">
        <ele>563</ele>
        <time>2020-09-15T22:40:14Z</time>
      </trkpt>
      <trkpt lat="44.29312" lon="5.84248">
        <ele>556</ele>
        <time>2020-09-15T22:40:35Z</time>
      </trkpt>
      <trkpt lat="44.29728" lon="5.83996">
        <ele>554</ele>
        <time>2020-09-15T22:41:56Z</time>
      </trkpt>
      <trkpt lat="44.29758" lon="5.83982">
        <ele>554</ele>
        <time>2020-09-15T22:42:01Z</time>
      </trkpt>
      <trkpt lat="44.29784" lon="5.83974">
        <ele>554</ele>
        <time>2020-09-15T22:42:06Z</time>
      </trkpt>
      <trkpt lat="44.29858" lon="5.83961">
        <ele>554</ele>
        <time>2020-09-15T22:42:19Z</time>
      </trkpt>
      <trkpt lat="44.29887" lon="5.8395">
        <ele>555</ele>
        <time>2020-09-15T22:42:25Z</time>
      </trkpt>
      <trkpt lat="44.30312" lon="5.83727">
        <ele>558</ele>
        <time>2020-09-15T22:43:45Z</time>
      </trkpt>
      <trkpt lat="44.3072" lon="5.83511">
        <ele>564</ele>
        <time>2020-09-15T22:45:03Z</time>
      </trkpt>
      <trkpt lat="44.30758" lon="5.83488">
        <ele>563</ele>
        <time>2020-09-15T22:45:10Z</time>
      </trkpt>
      <trkpt lat="44.30774" lon="5.83476">
        <ele>562</ele>
        <time>2020-09-15T22:45:14Z</time>
      </trkpt>
      <trkpt lat="44.31091" lon="5.83059">
        <ele>566</ele>
        <time>2020-09-15T22:46:31Z</time>
      </trkpt>
      <trkpt lat="44.31179" lon="5.82946">
        <ele>566</ele>
        <time>2020-09-15T22:46:52Z</time>
      </trkpt>
      <trkpt lat="44.31153" lon="5.82891">
        <ele>566</ele>
        <time>2020-09-15T22:47:01Z</time>
      </trkpt>
      <trkpt lat="44.31119" lon="5.82829">
        <ele>564</ele>
        <time>2020-09-15T22:47:11Z</time>
      </trkpt>
      <trkpt lat="44.31106" lon="5.828">
        <ele>563</ele>
        <time>2020-09-15T22:47:15Z</time>
      </trkpt>
      <trkpt lat="44.311" lon="5.82773">
        <ele>562</ele>
        <time>2020-09-15T22:47:19Z</time>
      </trkpt>
      <trkpt lat="44.31098" lon="5.82727">
        <ele>561</ele>
        <time>2020-09-15T22:47:25Z</time>
      </trkpt>
      <trkpt lat="44.31084" lon="5.82653">
        <ele>560</ele>
        <time>2020-09-15T22:47:34Z</time>
      </trkpt>
      <trkpt lat="44.31079" lon="5.82535">
        <ele>559</ele>
        <time>2020-09-15T22:47:49Z</time>
      </trkpt>
      <trkpt lat="44.31082" lon="5.82523">
        <ele>559</ele>
        <time>2020-09-15T22:47:51Z</time>
      </trkpt>
      <trkpt lat="44.31077" lon="5.82513">
        <ele>559</ele>
        <time>2020-09-15T22:47:53Z</time>
      </trkpt>
      <trkpt lat="44.31073" lon="5.82505">
        <ele>558</ele>
        <time>2020-09-15T22:47:54Z</time>
      </trkpt>
      <trkpt lat="44.31073" lon="5.82496">
        <ele>558</ele>
        <time>2020-09-15T22:47:55Z</time>
      </trkpt>
      <trkpt lat="44.31074" lon="5.82487">
        <ele>558</ele>
        <time>2020-09-15T22:47:56Z</time>
      </trkpt>
      <trkpt lat="44.3108" lon="5.82469">
        <ele>558</ele>
        <time>2020-09-15T22:47:59Z</time>
      </trkpt>
      <trkpt lat="44.31082" lon="5.82462">
        <ele>558</ele>
        <time>2020-09-15T22:48:00Z</time>
      </trkpt>
      <trkpt lat="44.31093" lon="5.82435">
        <ele>558</ele>
        <time>2020-09-15T22:48:04Z</time>
      </trkpt>
      <trkpt lat="44.31109" lon="5.82398">
        <ele>558</ele>
        <time>2020-09-15T22:48:09Z</time>
      </trkpt>
      <trkpt lat="44.31105" lon="5.82379">
        <ele>558</ele>
        <time>2020-09-15T22:48:12Z</time>
      </trkpt>
      <trkpt lat="44.31105" lon="5.82366">
        <ele>558</ele>
        <time>2020-09-15T22:48:13Z</time>
      </trkpt>
      <trkpt lat="44.31111" lon="5.82354">
        <ele>558</ele>
        <time>2020-09-15T22:48:15Z</time>
      </trkpt>
      <trkpt lat="44.31147" lon="5.82305">
        <ele>558</ele>
        <time>2020-09-15T22:48:24Z</time>
      </trkpt>
      <trkpt lat="44.31155" lon="5.82279">
        <ele>558</ele>
        <time>2020-09-15T22:48:28Z</time>
      </trkpt>
      <trkpt lat="44.31147" lon="5.82269">
        <ele>558</ele>
        <time>2020-09-15T22:48:30Z</time>
      </trkpt>
      <trkpt lat="44.31129" lon="5.82248">
        <ele>557</ele>
        <time>2020-09-15T22:48:34Z</time>
      </trkpt>
      <trkpt lat="44.3111" lon="5.82222">
        <ele>556</ele>
        <time>2020-09-15T22:48:38Z</time>
      </trkpt>
      <trkpt lat="44.31001" lon="5.82083">
        <ele>554</ele>
        <time>2020-09-15T22:49:05Z</time>
      </trkpt>
      <trkpt lat="44.30987" lon="5.82067">
        <ele>554</ele>
        <time>2020-09-15T22:49:08Z</time>
      </trkpt>
      <trkpt lat="44.30961" lon="5.8205">
        <ele>554</ele>
        <time>2020-09-15T22:49:13Z</time>
      </trkpt>
      <trkpt lat="44.30928" lon="5.82038">
        <ele>554</ele>
        <time>2020-09-15T22:49:19Z</time>
      </trkpt>
      <trkpt lat="44.30915" lon="5.82038">
        <ele>554</ele>
        <time>2020-09-15T22:49:21Z</time>
      </trkpt>
      <trkpt lat="44.30908" lon="5.82038">
        <ele>554</ele>
        <time>2020-09-15T22:49:23Z</time>
      </trkpt>
      <trkpt lat="44.30868" lon="5.82053">
        <ele>554</ele>
        <time>2020-09-15T22:49:30Z</time>
      </trkpt>
      <trkpt lat="44.30838" lon="5.82063">
        <ele>554</ele>
        <time>2020-09-15T22:49:36Z</time>
      </trkpt>
      <trkpt lat="44.30833" lon="5.82064">
        <ele>554</ele>
        <time>2020-09-15T22:49:36Z</time>
      </trkpt>
      <trkpt lat="44.30782" lon="5.82078">
        <ele>559</ele>
        <time>2020-09-15T22:49:46Z</time>
      </trkpt>
      <trkpt lat="44.30767" lon="5.82086">
        <ele>560</ele>
        <time>2020-09-15T22:49:49Z</time>
      </trkpt>
      <trkpt lat="44.3075" lon="5.82105">
        <ele>561</ele>
        <time>2020-09-15T22:49:52Z</time>
      </trkpt>
      <trkpt lat="44.30745" lon="5.82116">
        <ele>562</ele>
        <time>2020-09-15T22:49:54Z</time>
      </trkpt>
      <trkpt lat="44.30739" lon="5.8213">
        <ele>563</ele>
        <time>2020-09-15T22:49:56Z</time>
      </trkpt>
      <trkpt lat="44.30715" lon="5.82189">
        <ele>564</ele>
        <time>2020-09-15T22:50:05Z</time>
      </trkpt>
      <trkpt lat="44.30696" lon="5.82225">
        <ele>564</ele>
        <time>2020-09-15T22:50:10Z</time>
      </trkpt>
      <trkpt lat="44.30688" lon="5.82237">
        <ele>563</ele>
        <time>2020-09-15T22:50:13Z</time>
      </trkpt>
      <trkpt lat="44.30684" lon="5.8223">
        <ele>565</ele>
        <time>2020-09-15T22:50:14Z</time>
      </trkpt>
      <trkpt lat="44.30682" lon="5.8222">
        <ele>566</ele>
        <time>2020-09-15T22:50:15Z</time>
      </trkpt>
      <trkpt lat="44.307" lon="5.8219">
        <ele>567</ele>
        <time>2020-09-15T22:50:20Z</time>
      </trkpt>
      <trkpt lat="44.30712" lon="5.8216">
        <ele>568</ele>
        <time>2020-09-15T22:50:24Z</time>
      </trkpt>
      <trkpt lat="44.30717" lon="5.82124">
        <ele>568</ele>
        <time>2020-09-15T22:50:29Z</time>
      </trkpt>
      <trkpt lat="44.30716" lon="5.82105">
        <ele>570</ele>
        <time>2020-09-15T22:50:31Z</time>
      </trkpt>
      <trkpt lat="44.30711" lon="5.82079">
        <ele>573</ele>
        <time>2020-09-15T22:50:35Z</time>
      </trkpt>
      <trkpt lat="44.30703" lon="5.8203">
        <ele>578</ele>
        <time>2020-09-15T22:50:41Z</time>
      </trkpt>
      <trkpt lat="44.30707" lon="5.81987">
        <ele>580</ele>
        <time>2020-09-15T22:50:47Z</time>
      </trkpt>
      <trkpt lat="44.30711" lon="5.81964">
        <ele>581</ele>
        <time>2020-09-15T22:50:50Z</time>
      </trkpt>
      <trkpt lat="44.30731" lon="5.81869">
        <ele>584</ele>
        <time>2020-09-15T22:51:02Z</time>
      </trkpt>
      <trkpt lat="44.30742" lon="5.81824">
        <ele>585</ele>
        <time>2020-09-15T22:51:08Z</time>
      </trkpt>
      <trkpt lat="44.30786" lon="5.81676">
        <ele>594</ele>
        <time>2020-09-15T22:51:29Z</time>
      </trkpt>
      <trkpt lat="44.30798" lon="5.81616">
        <ele>598</ele>
        <time>2020-09-15T22:51:37Z</time>
      </trkpt>
      <trkpt lat="44.3081" lon="5.81527">
        <ele>607</ele>
        <time>2020-09-15T22:51:48Z</time>
      </trkpt>
      <trkpt lat="44.30826" lon="5.81444">
        <ele>611</ele>
        <time>2020-09-15T22:51:59Z</time>
      </trkpt>
      <trkpt lat="44.30836" lon="5.81367">
        <ele>619</ele>
        <time>2020-09-15T22:52:09Z</time>
      </trkpt>
      <trkpt lat="44.30839" lon="5.81349">
        <ele>620</ele>
        <time>2020-09-15T22:52:12Z</time>
      </trkpt>
      <trkpt lat="44.30857" lon="5.81295">
        <ele>620</ele>
        <time>2020-09-15T22:52:19Z</time>
      </trkpt>
      <trkpt lat="44.30898" lon="5.81157">
        <ele>620</ele>
        <time>2020-09-15T22:52:38Z</time>
      </trkpt>
      <trkpt lat="44.30918" lon="5.81073">
        <ele>623</ele>
        <time>2020-09-15T22:52:50Z</time>
      </trkpt>
      <trkpt lat="44.30925" lon="5.81052">
        <ele>623</ele>
        <time>2020-09-15T22:52:52Z</time>
      </trkpt>
      <trkpt lat="44.30941" lon="5.81013">
        <ele>622</ele>
        <time>2020-09-15T22:52:58Z</time>
      </trkpt>
      <trkpt lat="44.30971" lon="5.80964">
        <ele>620</ele>
        <time>2020-09-15T22:53:06Z</time>
      </trkpt>
      <trkpt lat="44.30979" lon="5.80948">
        <ele>620</ele>
        <time>2020-09-15T22:53:09Z</time>
      </trkpt>
      <trkpt lat="44.3099" lon="5.80913">
        <ele>623</ele>
        <time>2020-09-15T22:53:14Z</time>
      </trkpt>
      <trkpt lat="44.30994" lon="5.80895">
        <ele>623</ele>
        <time>2020-09-15T22:53:16Z</time>
      </trkpt>
      <trkpt lat="44.31003" lon="5.80839">
        <ele>626</ele>
        <time>2020-09-15T22:53:23Z</time>
      </trkpt>
      <trkpt lat="44.31009" lon="5.80821">
        <ele>626</ele>
        <time>2020-09-15T22:53:26Z</time>
      </trkpt>
      <trkpt lat="44.31032" lon="5.80771">
        <ele>624</ele>
        <time>2020-09-15T22:53:34Z</time>
      </trkpt>
      <trkpt lat="44.31045" lon="5.80736">
        <ele>625</ele>
        <time>2020-09-15T22:53:39Z</time>
      </trkpt>
      <trkpt lat="44.31079" lon="5.80615">
        <ele>629</ele>
        <time>2020-09-15T22:53:55Z</time>
      </trkpt>
      <trkpt lat="44.31113" lon="5.80488">
        <ele>624</ele>
        <time>2020-09-15T22:54:12Z</time>
      </trkpt>
      <trkpt lat="44.31116" lon="5.80472">
        <ele>624</ele>
        <time>2020-09-15T22:54:14Z</time>
      </trkpt>
      <trkpt lat="44.31117" lon="5.80455">
        <ele>625</ele>
        <time>2020-09-15T22:54:17Z</time>
      </trkpt>
      <trkpt lat="44.31111" lon="5.80403">
        <ele>632</ele>
        <time>2020-09-15T22:54:23Z</time>
      </trkpt>
      <trkpt lat="44.31108" lon="5.8033">
        <ele>636</ele>
        <time>2020-09-15T22:54:33Z</time>
      </trkpt>
      <trkpt lat="44.31109" lon="5.80312">
        <ele>637</ele>
        <time>2020-09-15T22:54:35Z</time>
      </trkpt>
      <trkpt lat="44.31114" lon="5.80296">
        <ele>636</ele>
        <time>2020-09-15T22:54:37Z</time>
      </trkpt>
      <trkpt lat="44.31125" lon="5.80265">
        <ele>633</ele>
        <time>2020-09-15T22:54:42Z</time>
      </trkpt>
      <trkpt lat="44.31155" lon="5.80204">
        <ele>626</ele>
        <time>2020-09-15T22:54:51Z</time>
      </trkpt>
      <trkpt lat="44.31167" lon="5.80168">
        <ele>625</ele>
        <time>2020-09-15T22:54:56Z</time>
      </trkpt>
      <trkpt lat="44.31178" lon="5.80131">
        <ele>625</ele>
        <time>2020-09-15T22:55:01Z</time>
      </trkpt>
      <trkpt lat="44.31185" lon="5.80113">
        <ele>625</ele>
        <time>2020-09-15T22:55:04Z</time>
      </trkpt>
      <trkpt lat="44.31211" lon="5.80071">
        <ele>620</ele>
        <time>2020-09-15T22:55:11Z</time>
      </trkpt>
      <trkpt lat="44.31217" lon="5.80055">
        <ele>620</ele>
        <time>2020-09-15T22:55:13Z</time>
      </trkpt>
      <trkpt lat="44.31222" lon="5.80019">
        <ele>622</ele>
        <time>2020-09-15T22:55:18Z</time>
      </trkpt>
      <trkpt lat="44.31223" lon="5.79985">
        <ele>625</ele>
        <time>2020-09-15T22:55:22Z</time>
      </trkpt>
      <trkpt lat="44.31226" lon="5.79969">
        <ele>625</ele>
        <time>2020-09-15T22:55:24Z</time>
      </trkpt>
      <trkpt lat="44.31232" lon="5.79955">
        <ele>624</ele>
        <time>2020-09-15T22:55:26Z</time>
      </trkpt>
      <trkpt lat="44.31247" lon="5.79932">
        <ele>621</ele>
        <time>2020-09-15T22:55:30Z</time>
      </trkpt>
      <trkpt lat="44.31284" lon="5.79886">
        <ele>617</ele>
        <time>2020-09-15T22:55:39Z</time>
      </trkpt>
      <trkpt lat="44.31345" lon="5.79797">
        <ele>615</ele>
        <time>2020-09-15T22:55:55Z</time>
      </trkpt>
      <trkpt lat="44.31378" lon="5.79742">
        <ele>616</ele>
        <time>2020-09-15T22:56:04Z</time>
      </trkpt>
      <trkpt lat="44.31393" lon="5.79706">
        <ele>615</ele>
        <time>2020-09-15T22:56:09Z</time>
      </trkpt>
      <trkpt lat="44.31447" lon="5.79504">
        <ele>609</ele>
        <time>2020-09-15T22:56:37Z</time>
      </trkpt>
      <trkpt lat="44.31451" lon="5.79485">
        <ele>607</ele>
        <time>2020-09-15T22:56:39Z</time>
      </trkpt>
      <trkpt lat="44.31456" lon="5.79446">
        <ele>605</ele>
        <time>2020-09-15T22:56:44Z</time>
      </trkpt>
      <trkpt lat="44.31456" lon="5.79409">
        <ele>604</ele>
        <time>2020-09-15T22:56:49Z</time>
      </trkpt>
      <trkpt lat="44.31451" lon="5.79352">
        <ele>603</ele>
        <time>2020-09-15T22:56:56Z</time>
      </trkpt>
      <trkpt lat="44.31451" lon="5.79334">
        <ele>602</ele>
        <time>2020-09-15T22:56:59Z</time>
      </trkpt>
      <trkpt lat="44.31453" lon="5.79316">
        <ele>602</ele>
        <time>2020-09-15T22:57:01Z</time>
      </trkpt>
      <trkpt lat="44.3146" lon="5.79278">
        <ele>601</ele>
        <time>2020-09-15T22:57:06Z</time>
      </trkpt>
      <trkpt lat="44.3147" lon="5.79241">
        <ele>599</ele>
        <time>2020-09-15T22:57:11Z</time>
      </trkpt>
      <trkpt lat="44.31477" lon="5.79224">
        <ele>597</ele>
        <time>2020-09-15T22:57:13Z</time>
      </trkpt>
      <trkpt lat="44.31501" lon="5.79176">
        <ele>593</ele>
        <time>2020-09-15T22:57:21Z</time>
      </trkpt>
      <trkpt lat="44.31528" lon="5.79093">
        <ele>596</ele>
        <time>2020-09-15T22:57:32Z</time>
      </trkpt>
      <trkpt lat="44.31559" lon="5.79009">
        <ele>596</ele>
        <time>2020-09-15T22:57:45Z</time>
      </trkpt>
      <trkpt lat="44.31568" lon="5.7897">
        <ele>596</ele>
        <time>2020-09-15T22:57:50Z</time>
      </trkpt>
      <trkpt lat="44.31578" lon="5.78884">
        <ele>598</ele>
        <time>2020-09-15T22:58:01Z</time>
      </trkpt>
      <trkpt lat="44.31589" lon="5.78804">
        <ele>600</ele>
        <time>2020-09-15T22:58:11Z</time>
      </trkpt>
      <trkpt lat="44.31594" lon="5.78715">
        <ele>603</ele>
        <time>2020-09-15T22:58:23Z</time>
      </trkpt>
      <trkpt lat="44.31592" lon="5.78603">
        <ele>607</ele>
        <time>2020-09-15T22:58:37Z</time>
      </trkpt>
      <trkpt lat="44.31597" lon="5.78577">
        <ele>608</ele>
        <time>2020-09-15T22:58:40Z</time>
      </trkpt>
      <trkpt lat="44.31601" lon="5.78567">
        <ele>609</ele>
        <time>2020-09-15T22:58:42Z</time>
      </trkpt>
      <trkpt lat="44.31607" lon="5.78559">
        <ele>609</ele>
        <time>2020-09-15T22:58:43Z</time>
      </trkpt>
      <trkpt lat="44.31614" lon="5.78553">
        <ele>608</ele>
        <time>2020-09-15T22:58:45Z</time>
      </trkpt>
      <trkpt lat="44.31721" lon="5.78506">
        <ele>599</ele>
        <time>2020-09-15T22:59:05Z</time>
      </trkpt>
      <trkpt lat="44.31731" lon="5.78499">
        <ele>598</ele>
        <time>2020-09-15T22:59:07Z</time>
      </trkpt>
      <trkpt lat="44.31747" lon="5.78479">
        <ele>599</ele>
        <time>2020-09-15T22:59:10Z</time>
      </trkpt>
      <trkpt lat="44.31792" lon="5.78395">
        <ele>599</ele>
        <time>2020-09-15T22:59:24Z</time>
      </trkpt>
      <trkpt lat="44.31807" lon="5.78362">
        <ele>599</ele>
        <time>2020-09-15T22:59:29Z</time>
      </trkpt>
      <trkpt lat="44.3181" lon="5.78351">
        <ele>599</ele>
        <time>2020-09-15T22:59:30Z</time>
      </trkpt>
      <trkpt lat="44.31811" lon="5.7834">
        <ele>599</ele>
        <time>2020-09-15T22:59:32Z</time>
      </trkpt>
      <trkpt lat="44.31808" lon="5.78288">
        <ele>601</ele>
        <time>2020-09-15T22:59:38Z</time>
      </trkpt>
      <trkpt lat="44.31811" lon="5.78276">
        <ele>601</ele>
        <time>2020-09-15T22:59:40Z</time>
      </trkpt>
      <trkpt lat="44.31817" lon="5.78269">
        <ele>601</ele>
        <time>2020-09-15T22:59:41Z</time>
      </trkpt>
      <trkpt lat="44.31825" lon="5.78266">
        <ele>601</ele>
        <time>2020-09-15T22:59:43Z</time>
      </trkpt>
      <trkpt lat="44.31832" lon="5.78268">
        <ele>600</ele>
        <time>2020-09-15T22:59:44Z</time>
      </trkpt>
      <trkpt lat="44.31853" lon="5.78283">
        <ele>600</ele>
        <time>2020-09-15T22:59:48Z</time>
      </trkpt>
      <trkpt lat="44.31885" lon="5.78291">
        <ele>600</ele>
        <time>2020-09-15T22:59:54Z</time>
      </trkpt>
      <trkpt lat="44.31908" lon="5.78306">
        <ele>600</ele>
        <time>2020-09-15T22:59:59Z</time>
      </trkpt>
      <trkpt lat="44.31918" lon="5.78309">
        <ele>599</ele>
        <time>2020-09-15T23:00:00Z</time>
      </trkpt>
      <trkpt lat="44.3194" lon="5.78308">
        <ele>600</ele>
        <time>2020-09-15T23:00:04Z</time>
      </trkpt>
      <trkpt lat="44.31961" lon="5.78297">
        <ele>600</ele>
        <time>2020-09-15T23:00:08Z</time>
      </trkpt>
      <trkpt lat="44.31977" lon="5.78284">
        <ele>601</ele>
        <time>2020-09-15T23:00:12Z</time>
      </trkpt>
      <trkpt lat="44.32076" lon="5.78187">
        <ele>604</ele>
        <time>2020-09-15T23:00:33Z</time>
      </trkpt>
      <trkpt lat="44.32155" lon="5.78111">
        <ele>603</ele>
        <time>2020-09-15T23:00:50Z</time>
      </trkpt>
      <trkpt lat="44.32178" lon="5.7809">
        <ele>603</ele>
        <time>2020-09-15T23:00:55Z</time>
      </trkpt>
      <trkpt lat="44.32327" lon="5.77996">
        <ele>602</ele>
        <time>2020-09-15T23:01:24Z</time>
      </trkpt>
      <trkpt lat="44.32413" lon="5.77944">
        <ele>601</ele>
        <time>2020-09-15T23:01:41Z</time>
      </trkpt>
      <trkpt lat="44.32455" lon="5.77916">
        <ele>602</ele>
        <time>2020-09-15T23:01:49Z</time>
      </trkpt>
      <trkpt lat="44.32477" lon="5.77901">
        <ele>601</ele>
        <time>2020-09-15T23:01:53Z</time>
      </trkpt>
      <trkpt lat="44.32528" lon="5.77851">
        <ele>600</ele>
        <time>2020-09-15T23:02:05Z</time>
      </trkpt>
      <trkpt lat="44.32564" lon="5.77816">
        <ele>600</ele>
        <time>2020-09-15T23:02:12Z</time>
      </trkpt>
      <trkpt lat="44.32603" lon="5.77785">
        <ele>600</ele>
        <time>2020-09-15T23:02:20Z</time>
      </trkpt>
      <trkpt lat="44.32615" lon="5.77772">
        <ele>600</ele>
        <time>2020-09-15T23:02:23Z</time>
      </trkpt>
      <trkpt lat="44.32636" lon="5.7774">
        <ele>600</ele>
        <time>2020-09-15T23:02:29Z</time>
      </trkpt>
      <trkpt lat="44.32645" lon="5.77721">
        <ele>600</ele>
        <time>2020-09-15T23:02:31Z</time>
      </trkpt>
      <trkpt lat="44.32653" lon="5.77703">
        <ele>600</ele>
        <time>2020-09-15T23:02:34Z</time>
      </trkpt>
      <trkpt lat="44.32671" lon="5.77634">
        <ele>599</ele>
        <time>2020-09-15T23:02:43Z</time>
      </trkpt>
      <trkpt lat="44.32676" lon="5.7762">
        <ele>599</ele>
        <time>2020-09-15T23:02:45Z</time>
      </trkpt>
      <trkpt lat="44.32683" lon="5.77609">
        <ele>599</ele>
        <time>2020-09-15T23:02:47Z</time>
      </trkpt>
      <trkpt lat="44.32692" lon="5.77602">
        <ele>599</ele>
        <time>2020-09-15T23:02:49Z</time>
      </trkpt>
      <trkpt lat="44.32757" lon="5.77576">
        <ele>598</ele>
        <time>2020-09-15T23:03:01Z</time>
      </trkpt>
      <trkpt lat="44.32771" lon="5.77574">
        <ele>598</ele>
        <time>2020-09-15T23:03:04Z</time>
      </trkpt>
      <trkpt lat="44.32783" lon="5.77574">
        <ele>598</ele>
        <time>2020-09-15T23:03:06Z</time>
      </trkpt>
      <trkpt lat="44.32821" lon="5.77586">
        <ele>598</ele>
        <time>2020-09-15T23:03:13Z</time>
      </trkpt>
      <trkpt lat="44.32833" lon="5.77588">
        <ele>598</ele>
        <time>2020-09-15T23:03:15Z</time>
      </trkpt>
      <trkpt lat="44.32959" lon="5.77596">
        <ele>595</ele>
        <time>2020-09-15T23:03:37Z</time>
      </trkpt>
      <trkpt lat="44.32983" lon="5.77596">
        <ele>594</ele>
        <time>2020-09-15T23:03:42Z</time>
      </trkpt>
      <trkpt lat="44.33049" lon="5.77592">
        <ele>594</ele>
        <time>2020-09-15T23:03:53Z</time>
      </trkpt>
      <trkpt lat="44.33106" lon="5.77593">
        <ele>594</ele>
        <time>2020-09-15T23:04:04Z</time>
      </trkpt>
      <trkpt lat="44.33127" lon="5.77587">
        <ele>594</ele>
        <time>2020-09-15T23:04:07Z</time>
      </trkpt>
      <trkpt lat="44.33175" lon="5.77556">
        <ele>595</ele>
        <time>2020-09-15T23:04:17Z</time>
      </trkpt>
      <trkpt lat="44.33199" lon="5.77531">
        <ele>595</ele>
        <time>2020-09-15T23:04:22Z</time>
      </trkpt>
      <trkpt lat="44.33216" lon="5.77515">
        <ele>595</ele>
        <time>2020-09-15T23:04:26Z</time>
      </trkpt>
      <trkpt lat="44.33222" lon="5.7751">
        <ele>595</ele>
        <time>2020-09-15T23:04:27Z</time>
      </trkpt>
      <trkpt lat="44.33234" lon="5.77504">
        <ele>594</ele>
        <time>2020-09-15T23:04:29Z</time>
      </trkpt>
      <trkpt lat="44.33271" lon="5.775">
        <ele>595</ele>
        <time>2020-09-15T23:04:36Z</time>
      </trkpt>
      <trkpt lat="44.33316" lon="5.77501">
        <ele>596</ele>
        <time>2020-09-15T23:04:44Z</time>
      </trkpt>
      <trkpt lat="44.33355" lon="5.77502">
        <ele>596</ele>
        <time>2020-09-15T23:04:51Z</time>
      </trkpt>
      <trkpt lat="44.33412" lon="5.77505">
        <ele>598</ele>
        <time>2020-09-15T23:05:01Z</time>
      </trkpt>
      <trkpt lat="44.33442" lon="5.77512">
        <ele>598</ele>
        <time>2020-09-15T23:05:06Z</time>
      </trkpt>
      <trkpt lat="44.33469" lon="5.77518">
        <ele>598</ele>
        <time>2020-09-15T23:05:11Z</time>
      </trkpt>
      <trkpt lat="44.33519" lon="5.77525">
        <ele>599</ele>
        <time>2020-09-15T23:05:20Z</time>
      </trkpt>
      <trkpt lat="44.33554" lon="5.77535">
        <ele>600</ele>
        <time>2020-09-15T23:05:27Z</time>
      </trkpt>
      <trkpt lat="44.33577" lon="5.77537">
        <ele>602</ele>
        <time>2020-09-15T23:05:31Z</time>
      </trkpt>
      <trkpt lat="44.33589" lon="5.77532">
        <ele>603</ele>
        <time>2020-09-15T23:05:33Z</time>
      </trkpt>
      <trkpt lat="44.33605" lon="5.77511">
        <ele>606</ele>
        <time>2020-09-15T23:05:37Z</time>
      </trkpt>
      <trkpt lat="44.33614" lon="5.77503">
        <ele>607</ele>
        <time>2020-09-15T23:05:39Z</time>
      </trkpt>
      <trkpt lat="44.33626" lon="5.77502">
        <ele>608</ele>
        <time>2020-09-15T23:05:41Z</time>
      </trkpt>
      <trkpt lat="44.3371" lon="5.77532">
        <ele>616</ele>
        <time>2020-09-15T23:05:56Z</time>
      </trkpt>
      <trkpt lat="44.33736" lon="5.77546">
        <ele>619</ele>
        <time>2020-09-15T23:06:01Z</time>
      </trkpt>
      <trkpt lat="44.33771" lon="5.7757">
        <ele>622</ele>
        <time>2020-09-15T23:06:08Z</time>
      </trkpt>
      <trkpt lat="44.33802" lon="5.77591">
        <ele>625</ele>
        <time>2020-09-15T23:06:14Z</time>
      </trkpt>
      <trkpt lat="44.33824" lon="5.77613">
        <ele>625</ele>
        <time>2020-09-15T23:06:19Z</time>
      </trkpt>
      <trkpt lat="44.33845" lon="5.77639">
        <ele>622</ele>
        <time>2020-09-15T23:06:24Z</time>
      </trkpt>
      <trkpt lat="44.33857" lon="5.7765">
        <ele>621</ele>
        <time>2020-09-15T23:06:27Z</time>
      </trkpt>
      <trkpt lat="44.3387" lon="5.77658">
        <ele>621</ele>
        <time>2020-09-15T23:06:29Z</time>
      </trkpt>
      <trkpt lat="44.33883" lon="5.77662">
        <ele>621</ele>
        <time>2020-09-15T23:06:31Z</time>
      </trkpt>
      <trkpt lat="44.33898" lon="5.77662">
        <ele>623</ele>
        <time>2020-09-15T23:06:34Z</time>
      </trkpt>
      <trkpt lat="44.33927" lon="5.77653">
        <ele>623</ele>
        <time>2020-09-15T23:06:39Z</time>
      </trkpt>
      <trkpt lat="44.33954" lon="5.77632">
        <ele>621</ele>
        <time>2020-09-15T23:06:45Z</time>
      </trkpt>
      <trkpt lat="44.33965" lon="5.77619">
        <ele>621</ele>
        <time>2020-09-15T23:06:48Z</time>
      </trkpt>
      <trkpt lat="44.33975" lon="5.77605">
        <ele>622</ele>
        <time>2020-09-15T23:06:50Z</time>
      </trkpt>
      <trkpt lat="44.34006" lon="5.77527">
        <ele>626</ele>
        <time>2020-09-15T23:07:01Z</time>
      </trkpt>
      <trkpt lat="44.34009" lon="5.77513">
        <ele>626</ele>
        <time>2020-09-15T23:07:03Z</time>
      </trkpt>
      <trkpt lat="44.34009" lon="5.775">
        <ele>628</ele>
        <time>2020-09-15T23:07:05Z</time>
      </trkpt>
      <trkpt lat="44.34006" lon="5.77488">
        <ele>628</ele>
        <time>2020-09-15T23:07:07Z</time>
      </trkpt>
      <trkpt lat="44.33985" lon="5.77437">
        <ele>630</ele>
        <time>2020-09-15T23:07:14Z</time>
      </trkpt>
      <trkpt lat="44.3398" lon="5.77421">
        <ele>631</ele>
        <time>2020-09-15T23:07:16Z</time>
      </trkpt>
      <trkpt lat="44.33977" lon="5.77405">
        <ele>631</ele>
        <time>2020-09-15T23:07:18Z</time>
      </trkpt>
      <trkpt lat="44.33977" lon="5.77389">
        <ele>630</ele>
        <time>2020-09-15T23:07:20Z</time>
      </trkpt>
      <trkpt lat="44.33985" lon="5.77336">
        <ele>624</ele>
        <time>2020-09-15T23:07:27Z</time>
      </trkpt>
      <trkpt lat="44.33984" lon="5.77317">
        <ele>623</ele>
        <time>2020-09-15T23:07:30Z</time>
      </trkpt>
      <trkpt lat="44.33977" lon="5.77278">
        <ele>623</ele>
        <time>2020-09-15T23:07:35Z</time>
      </trkpt>
      <trkpt lat="44.33975" lon="5.77259">
        <ele>622</ele>
        <time>2020-09-15T23:07:37Z</time>
      </trkpt>
      <trkpt lat="44.33977" lon="5.77198">
        <ele>618</ele>
        <time>2020-09-15T23:07:45Z</time>
      </trkpt>
      <trkpt lat="44.33976" lon="5.77107">
        <ele>614</ele>
        <time>2020-09-15T23:07:57Z</time>
      </trkpt>
      <trkpt lat="44.3398" lon="5.77062">
        <ele>612</ele>
        <time>2020-09-15T23:08:02Z</time>
      </trkpt>
      <trkpt lat="44.34007" lon="5.76888">
        <ele>602</ele>
        <time>2020-09-15T23:08:25Z</time>
      </trkpt>
      <trkpt lat="44.34014" lon="5.76862">
        <ele>602</ele>
        <time>2020-09-15T23:08:29Z</time>
      </trkpt>
      <trkpt lat="44.34019" lon="5.76813">
        <ele>602</ele>
        <time>2020-09-15T23:08:35Z</time>
      </trkpt>
      <trkpt lat="44.34019" lon="5.76794">
        <ele>602</ele>
        <time>2020-09-15T23:08:37Z</time>
      </trkpt>
      <trkpt lat="44.34013" lon="5.76745">
        <ele>603</ele>
        <time>2020-09-15T23:08:44Z</time>
      </trkpt>
      <trkpt lat="44.34011" lon="5.76718">
        <ele>601</ele>
        <time>2020-09-15T23:08:47Z</time>
      </trkpt>
      <trkpt lat="44.34015" lon="5.76701">
        <ele>599</ele>
        <time>2020-09-15T23:08:49Z</time>
      </trkpt>
      <trkpt lat="44.34021" lon="5.76694">
        <ele>598</ele>
        <time>2020-09-15T23:08:51Z</time>
      </trkpt>
      <trkpt lat="44.34051" lon="5.76675">
        <ele>596</ele>
        <time>2020-09-15T23:08:57Z</time>
      </trkpt>
      <trkpt lat="44.34058" lon="5.7667">
        <ele>596</ele>
        <time>2020-09-15T23:08:58Z</time>
      </trkpt>
      <trkpt lat="44.34062" lon="5.76663">
        <ele>596</ele>
        <time>2020-09-15T23:08:59Z</time>
      </trkpt>
      <trkpt lat="44.34062" lon="5.76654">
        <ele>596</ele>
        <time>2020-09-15T23:09:00Z</time>
      </trkpt>
      <trkpt lat="44.34041" lon="5.76616">
        <ele>595</ele>
        <time>2020-09-15T23:09:06Z</time>
      </trkpt>
      <trkpt lat="44.34033" lon="5.76588">
        <ele>595</ele>
        <time>2020-09-15T23:09:10Z</time>
      </trkpt>
      <trkpt lat="44.34031" lon="5.76575">
        <ele>595</ele>
        <time>2020-09-15T23:09:12Z</time>
      </trkpt>
      <trkpt lat="44.34033" lon="5.76564">
        <ele>595</ele>
        <time>2020-09-15T23:09:13Z</time>
      </trkpt>
      <trkpt lat="44.34039" lon="5.76549">
        <ele>596</ele>
        <time>2020-09-15T23:09:16Z</time>
      </trkpt>
      <trkpt lat="44.34104" lon="5.76421">
        <ele>598</ele>
        <time>2020-09-15T23:09:36Z</time>
      </trkpt>
      <trkpt lat="44.34113" lon="5.76394">
        <ele>598</ele>
        <time>2020-09-15T23:09:39Z</time>
      </trkpt>
      <trkpt lat="44.34123" lon="5.76382">
        <ele>599</ele>
        <time>2020-09-15T23:09:42Z</time>
      </trkpt>
      <trkpt lat="44.34129" lon="5.76382">
        <ele>599</ele>
        <time>2020-09-15T23:09:43Z</time>
      </trkpt>
      <trkpt lat="44.34135" lon="5.76376">
        <ele>599</ele>
        <time>2020-09-15T23:09:44Z</time>
      </trkpt>
      <trkpt lat="44.34137" lon="5.76371">
        <ele>599</ele>
        <time>2020-09-15T23:09:45Z</time>
      </trkpt>
      <trkpt lat="44.34138" lon="5.76354">
        <ele>599</ele>
        <time>2020-09-15T23:09:47Z</time>
      </trkpt>
      <trkpt lat="44.34141" lon="5.76338">
        <ele>600</ele>
        <time>2020-09-15T23:09:49Z</time>
      </trkpt>
      <trkpt lat="44.34165" lon="5.76255">
        <ele>601</ele>
        <time>2020-09-15T23:10:00Z</time>
      </trkpt>
      <trkpt lat="44.34179" lon="5.76211">
        <ele>603</ele>
        <time>2020-09-15T23:10:07Z</time>
      </trkpt>
      <trkpt lat="44.34185" lon="5.76199">
        <ele>603</ele>
        <time>2020-09-15T23:10:08Z</time>
      </trkpt>
      <trkpt lat="44.34201" lon="5.7618">
        <ele>604</ele>
        <time>2020-09-15T23:10:12Z</time>
      </trkpt>
      <trkpt lat="44.34231" lon="5.76154">
        <ele>604</ele>
        <time>2020-09-15T23:10:18Z</time>
      </trkpt>
      <trkpt lat="44.34242" lon="5.76148">
        <ele>604</ele>
        <time>2020-09-15T23:10:21Z</time>
      </trkpt>
      <trkpt lat="44.34254" lon="5.76146">
        <ele>604</ele>
        <time>2020-09-15T23:10:23Z</time>
      </trkpt>
      <trkpt lat="44.34266" lon="5.76148">
        <ele>603</ele>
        <time>2020-09-15T23:10:25Z</time>
      </trkpt>
      <trkpt lat="44.34321" lon="5.76168">
        <ele>599</ele>
        <time>2020-09-15T23:10:35Z</time>
      </trkpt>
      <trkpt lat="44.34347" lon="5.76182">
        <ele>600</ele>
        <time>2020-09-15T23:10:40Z</time>
      </trkpt>
      <trkpt lat="44.34369" lon="5.76195">
        <ele>601</ele>
        <time>2020-09-15T23:10:44Z</time>
      </trkpt>
      <trkpt lat="44.34382" lon="5.76198">
        <ele>601</ele>
        <time>2020-09-15T23:10:46Z</time>
      </trkpt>
      <trkpt lat="44.34392" lon="5.76205">
        <ele>601</ele>
        <time>2020-09-15T23:10:48Z</time>
      </trkpt>
      <trkpt lat="44.34398" lon="5.76208">
        <ele>602</ele>
        <time>2020-09-15T23:10:50Z</time>
      </trkpt>
      <trkpt lat="44.34418" lon="5.76211">
        <ele>602</ele>
        <time>2020-09-15T23:10:53Z</time>
      </trkpt>
      <trkpt lat="44.3444" lon="5.76209">
        <ele>603</ele>
        <time>2020-09-15T23:10:57Z</time>
      </trkpt>
      <trkpt lat="44.34461" lon="5.762">
        <ele>603</ele>
        <time>2020-09-15T23:11:01Z</time>
      </trkpt>
      <trkpt lat="44.34481" lon="5.76189">
        <ele>604</ele>
        <time>2020-09-15T23:11:05Z</time>
      </trkpt>
      <trkpt lat="44.3451" lon="5.76164">
        <ele>605</ele>
        <time>2020-09-15T23:11:11Z</time>
      </trkpt>
      <trkpt lat="44.34556" lon="5.76132">
        <ele>604</ele>
        <time>2020-09-15T23:11:20Z</time>
      </trkpt>
      <trkpt lat="44.34604" lon="5.76094">
        <ele>604</ele>
        <time>2020-09-15T23:11:30Z</time>
      </trkpt>
      <trkpt lat="44.34631" lon="5.76079">
        <ele>604</ele>
        <time>2020-09-15T23:11:35Z</time>
      </trkpt>
      <trkpt lat="44.34693" lon="5.76048">
        <ele>601</ele>
        <time>2020-09-15T23:11:47Z</time>
      </trkpt>
      <trkpt lat="44.34704" lon="5.76039">
        <ele>601</ele>
        <time>2020-09-15T23:11:49Z</time>
      </trkpt>
      <trkpt lat="44.34736" lon="5.76004">
        <ele>599</ele>
        <time>2020-09-15T23:11:56Z</time>
      </trkpt>
      <trkpt lat="44.34748" lon="5.75993">
        <ele>599</ele>
        <time>2020-09-15T23:11:59Z</time>
      </trkpt>
      <trkpt lat="44.34806" lon="5.75956">
        <ele>599</ele>
        <time>2020-09-15T23:12:10Z</time>
      </trkpt>
      <trkpt lat="44.34863" lon="5.75906">
        <ele>599</ele>
        <time>2020-09-15T23:12:22Z</time>
      </trkpt>
      <trkpt lat="44.34927" lon="5.75859">
        <ele>598</ele>
        <time>2020-09-15T23:12:35Z</time>
      </trkpt>
      <trkpt lat="44.34987" lon="5.75808">
        <ele>600</ele>
        <time>2020-09-15T23:12:47Z</time>
      </trkpt>
      <trkpt lat="44.35018" lon="5.75785">
        <ele>601</ele>
        <time>2020-09-15T23:12:54Z</time>
      </trkpt>
      <trkpt lat="44.35048" lon="5.7576">
        <ele>602</ele>
        <time>2020-09-15T23:13:00Z</time>
      </trkpt>
      <trkpt lat="44.35129" lon="5.75683">
        <ele>601</ele>
        <time>2020-09-15T23:13:17Z</time>
      </trkpt>
      <trkpt lat="44.3518" lon="5.75631">
        <ele>602</ele>
        <time>2020-09-15T23:13:29Z</time>
      </trkpt>
      <trkpt lat="44.3521" lon="5.75606">
        <ele>601</ele>
        <time>2020-09-15T23:13:35Z</time>
      </trkpt>
      <trkpt lat="44.35292" lon="5.7555">
        <ele>603</ele>
        <time>2020-09-15T23:13:51Z</time>
      </trkpt>
      <trkpt lat="44.35344" lon="5.7552">
        <ele>604</ele>
        <time>2020-09-15T23:14:01Z</time>
      </trkpt>
      <trkpt lat="44.35377" lon="5.75497">
        <ele>604</ele>
        <time>2020-09-15T23:14:08Z</time>
      </trkpt>
      <trkpt lat="44.35428" lon="5.75459">
        <ele>607</ele>
        <time>2020-09-15T23:14:18Z</time>
      </trkpt>
      <trkpt lat="44.35469" lon="5.75418">
        <ele>611</ele>
        <time>2020-09-15T23:14:27Z</time>
      </trkpt>
      <trkpt lat="44.35483" lon="5.75407">
        <ele>613</ele>
        <time>2020-09-15T23:14:30Z</time>
      </trkpt>
      <trkpt lat="44.35554" lon="5.75361">
        <ele>617</ele>
        <time>2020-09-15T23:14:44Z</time>
      </trkpt>
      <trkpt lat="44.35611" lon="5.75331">
        <ele>615</ele>
        <time>2020-09-15T23:14:54Z</time>
      </trkpt>
      <trkpt lat="44.35624" lon="5.7532">
        <ele>615</ele>
        <time>2020-09-15T23:14:57Z</time>
      </trkpt>
      <trkpt lat="44.35724" lon="5.75213">
        <ele>621</ele>
        <time>2020-09-15T23:15:20Z</time>
      </trkpt>
      <trkpt lat="44.35736" lon="5.75202">
        <ele>621</ele>
        <time>2020-09-15T23:15:22Z</time>
      </trkpt>
      <trkpt lat="44.3575" lon="5.75193">
        <ele>619</ele>
        <time>2020-09-15T23:15:25Z</time>
      </trkpt>
      <trkpt lat="44.35763" lon="5.75187">
        <ele>618</ele>
        <time>2020-09-15T23:15:27Z</time>
      </trkpt>
      <trkpt lat="44.35815" lon="5.75173">
        <ele>614</ele>
        <time>2020-09-15T23:15:37Z</time>
      </trkpt>
      <trkpt lat="44.35839" lon="5.7516">
        <ele>612</ele>
        <time>2020-09-15T23:15:41Z</time>
      </trkpt>
      <trkpt lat="44.35887" lon="5.75126">
        <ele>612</ele>
        <time>2020-09-15T23:15:51Z</time>
      </trkpt>
      <trkpt lat="44.35951" lon="5.75067">
        <ele>612</ele>
        <time>2020-09-15T23:16:05Z</time>
      </trkpt>
      <trkpt lat="44.36102" lon="5.74963">
        <ele>612</ele>
        <time>2020-09-15T23:16:34Z</time>
      </trkpt>
      <trkpt lat="44.36182" lon="5.74896">
        <ele>614</ele>
        <time>2020-09-15T23:16:51Z</time>
      </trkpt>
      <trkpt lat="44.36221" lon="5.74856">
        <ele>615</ele>
        <time>2020-09-15T23:17:00Z</time>
      </trkpt>
      <trkpt lat="44.36252" lon="5.74827">
        <ele>616</ele>
        <time>2020-09-15T23:17:06Z</time>
      </trkpt>
      <trkpt lat="44.36294" lon="5.7478">
        <ele>615</ele>
        <time>2020-09-15T23:17:16Z</time>
      </trkpt>
      <trkpt lat="44.36341" lon="5.74732">
        <ele>615</ele>
        <time>2020-09-15T23:17:26Z</time>
      </trkpt>
      <trkpt lat="44.36367" lon="5.74713">
        <ele>616</ele>
        <time>2020-09-15T23:17:31Z</time>
      </trkpt>
      <trkpt lat="44.36481" lon="5.74636">
        <ele>619</ele>
        <time>2020-09-15T23:17:54Z</time>
      </trkpt>
      <trkpt lat="44.36507" lon="5.74616">
        <ele>619</ele>
        <time>2020-09-15T23:17:59Z</time>
      </trkpt>
      <trkpt lat="44.36543" lon="5.74581">
        <ele>619</ele>
        <time>2020-09-15T23:18:07Z</time>
      </trkpt>
      <trkpt lat="44.3665" lon="5.74467">
        <ele>619</ele>
        <time>2020-09-15T23:18:31Z</time>
      </trkpt>
      <trkpt lat="44.36676" lon="5.74447">
        <ele>620</ele>
        <time>2020-09-15T23:18:36Z</time>
      </trkpt>
      <trkpt lat="44.36749" lon="5.74405">
        <ele>618</ele>
        <time>2020-09-15T23:18:50Z</time>
      </trkpt>
      <trkpt lat="44.3676" lon="5.74393">
        <ele>619</ele>
        <time>2020-09-15T23:18:53Z</time>
      </trkpt>
      <trkpt lat="44.3677" lon="5.74379">
        <ele>619</ele>
        <time>2020-09-15T23:18:55Z</time>
      </trkpt>
      <trkpt lat="44.36795" lon="5.7433">
        <ele>620</ele>
        <time>2020-09-15T23:19:03Z</time>
      </trkpt>
      <trkpt lat="44.36805" lon="5.74315">
        <ele>620</ele>
        <time>2020-09-15T23:19:06Z</time>
      </trkpt>
      <trkpt lat="44.36815" lon="5.74304">
        <ele>620</ele>
        <time>2020-09-15T23:19:08Z</time>
      </trkpt>
      <trkpt lat="44.36828" lon="5.74296">
        <ele>620</ele>
        <time>2020-09-15T23:19:10Z</time>
      </trkpt>
      <trkpt lat="44.36842" lon="5.74292">
        <ele>620</ele>
        <time>2020-09-15T23:19:13Z</time>
      </trkpt>
      <trkpt lat="44.36885" lon="5.74283">
        <ele>620</ele>
        <time>2020-09-15T23:19:21Z</time>
      </trkpt>
      <trkpt lat="44.36915" lon="5.74274">
        <ele>620</ele>
        <time>2020-09-15T23:19:26Z</time>
      </trkpt>
      <trkpt lat="44.36974" lon="5.7425">
        <ele>620</ele>
        <time>2020-09-15T23:19:37Z</time>
      </trkpt>
      <trkpt lat="44.36988" lon="5.74242">
        <ele>620</ele>
        <time>2020-09-15T23:19:40Z</time>
      </trkpt>
      <trkpt lat="44.37001" lon="5.74233">
        <ele>621</ele>
        <time>2020-09-15T23:19:42Z</time>
      </trkpt>
      <trkpt lat="44.37012" lon="5.74221">
        <ele>620</ele>
        <time>2020-09-15T23:19:45Z</time>
      </trkpt>
      <trkpt lat="44.37044" lon="5.74173">
        <ele>620</ele>
        <time>2020-09-15T23:19:53Z</time>
      </trkpt>
      <trkpt lat="44.37131" lon="5.74005">
        <ele>623</ele>
        <time>2020-09-15T23:20:20Z</time>
      </trkpt>
      <trkpt lat="44.37171" lon="5.73923">
        <ele>623</ele>
        <time>2020-09-15T23:20:32Z</time>
      </trkpt>
      <trkpt lat="44.3718" lon="5.73912">
        <ele>623</ele>
        <time>2020-09-15T23:20:34Z</time>
      </trkpt>
      <trkpt lat="44.37191" lon="5.73903">
        <ele>623</ele>
        <time>2020-09-15T23:20:37Z</time>
      </trkpt>
      <trkpt lat="44.37204" lon="5.73898">
        <ele>624</ele>
        <time>2020-09-15T23:20:39Z</time>
      </trkpt>
      <trkpt lat="44.37334" lon="5.73862">
        <ele>623</ele>
        <time>2020-09-15T23:21:03Z</time>
      </trkpt>
      <trkpt lat="44.37349" lon="5.73856">
        <ele>623</ele>
        <time>2020-09-15T23:21:05Z</time>
      </trkpt>
      <trkpt lat="44.37418" lon="5.73813">
        <ele>624</ele>
        <time>2020-09-15T23:21:19Z</time>
      </trkpt>
      <trkpt lat="44.37459" lon="5.73795">
        <ele>624</ele>
        <time>2020-09-15T23:21:26Z</time>
      </trkpt>
      <trkpt lat="44.37469" lon="5.73788">
        <ele>624</ele>
        <time>2020-09-15T23:21:28Z</time>
      </trkpt>
      <trkpt lat="44.37493" lon="5.7376">
        <ele>625</ele>
        <time>2020-09-15T23:21:34Z</time>
      </trkpt>
      <trkpt lat="44.37502" lon="5.73756">
        <ele>625</ele>
        <time>2020-09-15T23:21:36Z</time>
      </trkpt>
      <trkpt lat="44.37521" lon="5.73755">
        <ele>625</ele>
        <time>2020-09-15T23:21:39Z</time>
      </trkpt>
      <trkpt lat="44.37529" lon="5.73749">
        <ele>625</ele>
        <time>2020-09-15T23:21:41Z</time>
      </trkpt>
      <trkpt lat="44.37536" lon="5.7374">
        <ele>625</ele>
        <time>2020-09-15T23:21:42Z</time>
      </trkpt>
      <trkpt lat="44.3755" lon="5.73714">
        <ele>625</ele>
        <time>2020-09-15T23:21:46Z</time>
      </trkpt>
      <trkpt lat="44.3756" lon="5.73702">
        <ele>626</ele>
        <time>2020-09-15T23:21:49Z</time>
      </trkpt>
      <trkpt lat="44.37572" lon="5.73694">
        <ele>625</ele>
        <time>2020-09-15T23:21:51Z</time>
      </trkpt>
      <trkpt lat="44.37598" lon="5.73681">
        <ele>625</ele>
        <time>2020-09-15T23:21:56Z</time>
      </trkpt>
      <trkpt lat="44.37673" lon="5.73638">
        <ele>626</ele>
        <time>2020-09-15T23:22:10Z</time>
      </trkpt>
      <trkpt lat="44.37735" lon="5.73599">
        <ele>627</ele>
        <time>2020-09-15T23:22:23Z</time>
      </trkpt>
      <trkpt lat="44.37761" lon="5.73573">
        <ele>628</ele>
        <time>2020-09-15T23:22:28Z</time>
      </trkpt>
      <trkpt lat="44.37863" lon="5.73455">
        <ele>630</ele>
        <time>2020-09-15T23:22:52Z</time>
      </trkpt>
      <trkpt lat="44.37951" lon="5.73345">
        <ele>635</ele>
        <time>2020-09-15T23:23:13Z</time>
      </trkpt>
      <trkpt lat="44.38061" lon="5.73372">
        <ele>636</ele>
        <time>2020-09-15T23:23:33Z</time>
      </trkpt>
      <trkpt lat="44.38161" lon="5.73381">
        <ele>631</ele>
        <time>2020-09-15T23:23:51Z</time>
      </trkpt>
      <trkpt lat="44.38212" lon="5.73394">
        <ele>631</ele>
        <time>2020-09-15T23:24:00Z</time>
      </trkpt>
      <trkpt lat="44.38298" lon="5.73404">
        <ele>634</ele>
        <time>2020-09-15T23:24:15Z</time>
      </trkpt>
      <trkpt lat="44.38356" lon="5.73414">
        <ele>636</ele>
        <time>2020-09-15T23:24:25Z</time>
      </trkpt>
      <trkpt lat="44.38413" lon="5.73429">
        <ele>637</ele>
        <time>2020-09-15T23:24:36Z</time>
      </trkpt>
      <trkpt lat="44.38419" lon="5.73426">
        <ele>637</ele>
        <time>2020-09-15T23:24:37Z</time>
      </trkpt>
      <trkpt lat="44.38431" lon="5.73414">
        <ele>637</ele>
        <time>2020-09-15T23:24:40Z</time>
      </trkpt>
      <trkpt lat="44.38446" lon="5.73387">
        <ele>636</ele>
        <time>2020-09-15T23:24:44Z</time>
      </trkpt>
      <trkpt lat="44.3846" lon="5.73367">
        <ele>636</ele>
        <time>2020-09-15T23:24:47Z</time>
      </trkpt>
      <trkpt lat="44.38468" lon="5.73359">
        <ele>636</ele>
        <time>2020-09-15T23:24:49Z</time>
      </trkpt>
      <trkpt lat="44.38484" lon="5.7335">
        <ele>635</ele>
        <time>2020-09-15T23:24:52Z</time>
      </trkpt>
      <trkpt lat="44.38496" lon="5.73349">
        <ele>635</ele>
        <time>2020-09-15T23:24:54Z</time>
      </trkpt>
      <trkpt lat="44.38517" lon="5.73352">
        <ele>633</ele>
        <time>2020-09-15T23:24:58Z</time>
      </trkpt>
      <trkpt lat="44.38538" lon="5.73349">
        <ele>632</ele>
        <time>2020-09-15T23:25:02Z</time>
      </trkpt>
      <trkpt lat="44.38552" lon="5.73342">
        <ele>632</ele>
        <time>2020-09-15T23:25:05Z</time>
      </trkpt>
      <trkpt lat="44.38635" lon="5.73293">
        <ele>632</ele>
        <time>2020-09-15T23:25:21Z</time>
      </trkpt>
      <trkpt lat="44.3869" lon="5.73254">
        <ele>633</ele>
        <time>2020-09-15T23:25:32Z</time>
      </trkpt>
      <trkpt lat="44.38802" lon="5.73166">
        <ele>636</ele>
        <time>2020-09-15T23:25:54Z</time>
      </trkpt>
      <trkpt lat="44.38858" lon="5.73132">
        <ele>635</ele>
        <time>2020-09-15T23:26:05Z</time>
      </trkpt>
      <trkpt lat="44.38895" lon="5.73106">
        <ele>635</ele>
        <time>2020-09-15T23:26:13Z</time>
      </trkpt>
      <trkpt lat="44.38987" lon="5.73025">
        <ele>641</ele>
        <time>2020-09-15T23:26:32Z</time>
      </trkpt>
      <trkpt lat="44.39005" lon="5.73011">
        <ele>641</ele>
        <time>2020-09-15T23:26:36Z</time>
      </trkpt>
      <trkpt lat="44.39022" lon="5.73001">
        <ele>641</ele>
        <time>2020-09-15T23:26:39Z</time>
      </trkpt>
      <trkpt lat="44.3904" lon="5.72995">
        <ele>640</ele>
        <time>2020-09-15T23:26:42Z</time>
      </trkpt>
      <trkpt lat="44.39058" lon="5.72993">
        <ele>639</ele>
        <time>2020-09-15T23:26:45Z</time>
      </trkpt>
      <trkpt lat="44.39075" lon="5.72995">
        <ele>638</ele>
        <time>2020-09-15T23:26:48Z</time>
      </trkpt>
      <trkpt lat="44.39091" lon="5.73">
        <ele>637</ele>
        <time>2020-09-15T23:26:51Z</time>
      </trkpt>
      <trkpt lat="44.39107" lon="5.73009">
        <ele>638</ele>
        <time>2020-09-15T23:26:54Z</time>
      </trkpt>
      <trkpt lat="44.39165" lon="5.73059">
        <ele>635</ele>
        <time>2020-09-15T23:27:07Z</time>
      </trkpt>
      <trkpt lat="44.39195" lon="5.73082">
        <ele>633</ele>
        <time>2020-09-15T23:27:13Z</time>
      </trkpt>
      <trkpt lat="44.39228" lon="5.73092">
        <ele>633</ele>
        <time>2020-09-15T23:27:19Z</time>
      </trkpt>
      <trkpt lat="44.39264" lon="5.73088">
        <ele>634</ele>
        <time>2020-09-15T23:27:25Z</time>
      </trkpt>
      <trkpt lat="44.39299" lon="5.73076">
        <ele>635</ele>
        <time>2020-09-15T23:27:32Z</time>
      </trkpt>
      <trkpt lat="44.39404" lon="5.73035">
        <ele>638</ele>
        <time>2020-09-15T23:27:51Z</time>
      </trkpt>
      <trkpt lat="44.39421" lon="5.73026">
        <ele>638</ele>
        <time>2020-09-15T23:27:54Z</time>
      </trkpt>
      <trkpt lat="44.39466" lon="5.72995">
        <ele>639</ele>
        <time>2020-09-15T23:28:03Z</time>
      </trkpt>
      <trkpt lat="44.3953" lon="5.7297">
        <ele>639</ele>
        <time>2020-09-15T23:28:15Z</time>
      </trkpt>
      <trkpt lat="44.39546" lon="5.72961">
        <ele>639</ele>
        <time>2020-09-15T23:28:18Z</time>
      </trkpt>
      <trkpt lat="44.39566" lon="5.72946">
        <ele>639</ele>
        <time>2020-09-15T23:28:22Z</time>
      </trkpt>
      <trkpt lat="44.39636" lon="5.72876">
        <ele>643</ele>
        <time>2020-09-15T23:28:37Z</time>
      </trkpt>
      <trkpt lat="44.39743" lon="5.72749">
        <ele>642</ele>
        <time>2020-09-15T23:29:02Z</time>
      </trkpt>
      <trkpt lat="44.39781" lon="5.727">
        <ele>642</ele>
        <time>2020-09-15T23:29:11Z</time>
      </trkpt>
      <trkpt lat="44.39857" lon="5.72592">
        <ele>641</ele>
        <time>2020-09-15T23:29:31Z</time>
      </trkpt>
      <trkpt lat="44.39924" lon="5.72501">
        <ele>641</ele>
        <time>2020-09-15T23:29:47Z</time>
      </trkpt>
      <trkpt lat="44.39973" lon="5.7242">
        <ele>643</ele>
        <time>2020-09-15T23:30:01Z</time>
      </trkpt>
      <trkpt lat="44.39985" lon="5.724">
        <ele>645</ele>
        <time>2020-09-15T23:30:04Z</time>
      </trkpt>
      <trkpt lat="44.39999" lon="5.72383">
        <ele>646</ele>
        <time>2020-09-15T23:30:07Z</time>
      </trkpt>
      <trkpt lat="44.40029" lon="5.72352">
        <ele>648</ele>
        <time>2020-09-15T23:30:14Z</time>
      </trkpt>
      <trkpt lat="44.4009" lon="5.72298">
        <ele>648</ele>
        <time>2020-09-15T23:30:27Z</time>
      </trkpt>
      <trkpt lat="44.40149" lon="5.72242">
        <ele>647</ele>
        <time>2020-09-15T23:30:40Z</time>
      </trkpt>
      <trkpt lat="44.40235" lon="5.72157">
        <ele>646</ele>
        <time>2020-09-15T23:30:58Z</time>
      </trkpt>
      <trkpt lat="44.40274" lon="5.72108">
        <ele>646</ele>
        <time>2020-09-15T23:31:08Z</time>
      </trkpt>
      <trkpt lat="44.40354" lon="5.72003">
        <ele>646</ele>
        <time>2020-09-15T23:31:27Z</time>
      </trkpt>
      <trkpt lat="44.40382" lon="5.7197">
        <ele>647</ele>
        <time>2020-09-15T23:31:34Z</time>
      </trkpt>
      <trkpt lat="44.40443" lon="5.7191">
        <ele>649</ele>
        <time>2020-09-15T23:31:47Z</time>
      </trkpt>
      <trkpt lat="44.40471" lon="5.71877">
        <ele>649</ele>
        <time>2020-09-15T23:31:53Z</time>
      </trkpt>
      <trkpt lat="44.40523" lon="5.71805">
        <ele>650</ele>
        <time>2020-09-15T23:32:07Z</time>
      </trkpt>
      <trkpt lat="44.40573" lon="5.71731">
        <ele>650</ele>
        <time>2020-09-15T23:32:19Z</time>
      </trkpt>
      <trkpt lat="44.40611" lon="5.71679">
        <ele>652</ele>
        <time>2020-09-15T23:32:29Z</time>
      </trkpt>
      <trkpt lat="44.40718" lon="5.71563">
        <ele>653</ele>
        <time>2020-09-15T23:32:53Z</time>
      </trkpt>
      <trkpt lat="44.40745" lon="5.71538">
        <ele>652</ele>
        <time>2020-09-15T23:32:59Z</time>
      </trkpt>
      <trkpt lat="44.40777" lon="5.71519">
        <ele>651</ele>
        <time>2020-09-15T23:33:05Z</time>
      </trkpt>
      <trkpt lat="44.40794" lon="5.71513">
        <ele>650</ele>
        <time>2020-09-15T23:33:08Z</time>
      </trkpt>
      <trkpt lat="44.41012" lon="5.7146">
        <ele>651</ele>
        <time>2020-09-15T23:33:47Z</time>
      </trkpt>
      <trkpt lat="44.41041" lon="5.71448">
        <ele>650</ele>
        <time>2020-09-15T23:33:53Z</time>
      </trkpt>
      <trkpt lat="44.41157" lon="5.71396">
        <ele>646</ele>
        <time>2020-09-15T23:34:14Z</time>
      </trkpt>
      <trkpt lat="44.41188" lon="5.71374">
        <ele>646</ele>
        <time>2020-09-15T23:34:21Z</time>
      </trkpt>
      <trkpt lat="44.41334" lon="5.71255">
        <ele>647</ele>
        <time>2020-09-15T23:34:51Z</time>
      </trkpt>
      <trkpt lat="44.41355" lon="5.71247">
        <ele>647</ele>
        <time>2020-09-15T23:34:55Z</time>
      </trkpt>
      <trkpt lat="44.41436" lon="5.71224">
        <ele>647</ele>
        <time>2020-09-15T23:35:09Z</time>
      </trkpt>
      <trkpt lat="44.41469" lon="5.71217">
        <ele>648</ele>
        <time>2020-09-15T23:35:15Z</time>
      </trkpt>
      <trkpt lat="44.41649" lon="5.71192">
        <ele>650</ele>
        <time>2020-09-15T23:35:47Z</time>
      </trkpt>
      <trkpt lat="44.41676" lon="5.71193">
        <ele>649</ele>
        <time>2020-09-15T23:35:52Z</time>
      </trkpt>
      <trkpt lat="44.41708" lon="5.71201">
        <ele>649</ele>
        <time>2020-09-15T23:35:58Z</time>
      </trkpt>
      <trkpt lat="44.41726" lon="5.71207">
        <ele>649</ele>
        <time>2020-09-15T23:36:01Z</time>
      </trkpt>
      <trkpt lat="44.41731" lon="5.71209">
        <ele>649</ele>
        <time>2020-09-15T23:36:02Z</time>
      </trkpt>
      <trkpt lat="44.41741" lon="5.71211">
        <ele>649</ele>
        <time>2020-09-15T23:36:04Z</time>
      </trkpt>
      <trkpt lat="44.41752" lon="5.71212">
        <ele>649</ele>
        <time>2020-09-15T23:36:06Z</time>
      </trkpt>
      <trkpt lat="44.41764" lon="5.7121">
        <ele>650</ele>
        <time>2020-09-15T23:36:08Z</time>
      </trkpt>
      <trkpt lat="44.41787" lon="5.71197">
        <ele>650</ele>
        <time>2020-09-15T23:36:13Z</time>
      </trkpt>
      <trkpt lat="44.41932" lon="5.71068">
        <ele>652</ele>
        <time>2020-09-15T23:36:43Z</time>
      </trkpt>
      <trkpt lat="44.41963" lon="5.71042">
        <ele>652</ele>
        <time>2020-09-15T23:36:50Z</time>
      </trkpt>
      <trkpt lat="44.41984" lon="5.71027">
        <ele>652</ele>
        <time>2020-09-15T23:36:54Z</time>
      </trkpt>
      <trkpt lat="44.42016" lon="5.71012">
        <ele>652</ele>
        <time>2020-09-15T23:37:00Z</time>
      </trkpt>
      <trkpt lat="44.42037" lon="5.71007">
        <ele>652</ele>
        <time>2020-09-15T23:37:04Z</time>
      </trkpt>
      <trkpt lat="44.42062" lon="5.71006">
        <ele>652</ele>
        <time>2020-09-15T23:37:08Z</time>
      </trkpt>
      <trkpt lat="44.42067" lon="5.71006">
        <ele>652</ele>
        <time>2020-09-15T23:37:09Z</time>
      </trkpt>
      <trkpt lat="44.42086" lon="5.71007">
        <ele>652</ele>
        <time>2020-09-15T23:37:12Z</time>
      </trkpt>
      <trkpt lat="44.42188" lon="5.71014">
        <ele>652</ele>
        <time>2020-09-15T23:37:30Z</time>
      </trkpt>
      <trkpt lat="44.42216" lon="5.71014">
        <ele>652</ele>
        <time>2020-09-15T23:37:35Z</time>
      </trkpt>
      <trkpt lat="44.42243" lon="5.71009">
        <ele>652</ele>
        <time>2020-09-15T23:37:40Z</time>
      </trkpt>
      <trkpt lat="44.42328" lon="5.70985">
        <ele>654</ele>
        <time>2020-09-15T23:37:56Z</time>
      </trkpt>
      <trkpt lat="44.42352" lon="5.70982">
        <ele>655</ele>
        <time>2020-09-15T23:38:00Z</time>
      </trkpt>
      <trkpt lat="44.42385" lon="5.70977">
        <ele>657</ele>
        <time>2020-09-15T23:38:06Z</time>
      </trkpt>
      <trkpt lat="44.42412" lon="5.70975">
        <ele>658</ele>
        <time>2020-09-15T23:38:11Z</time>
      </trkpt>
      <trkpt lat="44.42436" lon="5.70981">
        <ele>659</ele>
        <time>2020-09-15T23:38:15Z</time>
      </trkpt>
      <trkpt lat="44.42448" lon="5.70988">
        <ele>659</ele>
        <time>2020-09-15T23:38:17Z</time>
      </trkpt>
      <trkpt lat="44.42488" lon="5.7102">
        <ele>660</ele>
        <time>2020-09-15T23:38:26Z</time>
      </trkpt>
      <trkpt lat="44.42495" lon="5.71024">
        <ele>660</ele>
        <time>2020-09-15T23:38:27Z</time>
      </trkpt>
      <trkpt lat="44.42496" lon="5.71025">
        <ele>660</ele>
        <time>2020-09-15T23:38:27Z</time>
      </trkpt>
      <trkpt lat="44.42505" lon="5.71027">
        <ele>660</ele>
        <time>2020-09-15T23:38:29Z</time>
      </trkpt>
      <trkpt lat="44.42513" lon="5.71027">
        <ele>661</ele>
        <time>2020-09-15T23:38:30Z</time>
      </trkpt>
      <trkpt lat="44.42541" lon="5.71021">
        <ele>662</ele>
        <time>2020-09-15T23:38:35Z</time>
      </trkpt>
      <trkpt lat="44.42594" lon="5.71014">
        <ele>666</ele>
        <time>2020-09-15T23:38:45Z</time>
      </trkpt>
      <trkpt lat="44.426" lon="5.71006">
        <ele>668</ele>
        <time>2020-09-15T23:38:46Z</time>
      </trkpt>
      <trkpt lat="44.42616" lon="5.71021">
        <ele>669</ele>
        <time>2020-09-15T23:38:50Z</time>
      </trkpt>
      <trkpt lat="44.42684" lon="5.71096">
        <ele>671</ele>
        <time>2020-09-15T23:39:05Z</time>
      </trkpt>
      <trkpt lat="44.42715" lon="5.71141">
        <ele>672</ele>
        <time>2020-09-15T23:39:13Z</time>
      </trkpt>
      <trkpt lat="44.42735" lon="5.71173">
        <ele>672</ele>
        <time>2020-09-15T23:39:18Z</time>
      </trkpt>
      <trkpt lat="44.42742" lon="5.71188">
        <ele>672</ele>
        <time>2020-09-15T23:39:21Z</time>
      </trkpt>
      <trkpt lat="44.42753" lon="5.71214">
        <ele>671</ele>
        <time>2020-09-15T23:39:24Z</time>
      </trkpt>
      <trkpt lat="44.4277" lon="5.71265">
        <ele>672</ele>
        <time>2020-09-15T23:39:32Z</time>
      </trkpt>
      <trkpt lat="44.42784" lon="5.71307">
        <ele>673</ele>
        <time>2020-09-15T23:39:37Z</time>
      </trkpt>
      <trkpt lat="44.42791" lon="5.71334">
        <ele>673</ele>
        <time>2020-09-15T23:39:41Z</time>
      </trkpt>
      <trkpt lat="44.42795" lon="5.71357">
        <ele>672</ele>
        <time>2020-09-15T23:39:44Z</time>
      </trkpt>
      <trkpt lat="44.42798" lon="5.71375">
        <ele>671</ele>
        <time>2020-09-15T23:39:46Z</time>
      </trkpt>
      <trkpt lat="44.42809" lon="5.71431">
        <ele>669</ele>
        <time>2020-09-15T23:39:54Z</time>
      </trkpt>
      <trkpt lat="44.42822" lon="5.71482">
        <ele>668</ele>
        <time>2020-09-15T23:40:01Z</time>
      </trkpt>
      <trkpt lat="44.42828" lon="5.71506">
        <ele>668</ele>
        <time>2020-09-15T23:40:04Z</time>
      </trkpt>
      <trkpt lat="44.4284" lon="5.71543">
        <ele>668</ele>
        <time>2020-09-15T23:40:09Z</time>
      </trkpt>
      <trkpt lat="44.42847" lon="5.71557">
        <ele>669</ele>
        <time>2020-09-15T23:40:11Z</time>
      </trkpt>
      <trkpt lat="44.4286" lon="5.71586">
        <ele>670</ele>
        <time>2020-09-15T23:40:16Z</time>
      </trkpt>
      <trkpt lat="44.42877" lon="5.71616">
        <ele>671</ele>
        <time>2020-09-15T23:40:21Z</time>
      </trkpt>
      <trkpt lat="44.42884" lon="5.71629">
        <ele>671</ele>
        <time>2020-09-15T23:40:23Z</time>
      </trkpt>
      <trkpt lat="44.42909" lon="5.71681">
        <ele>668</ele>
        <time>2020-09-15T23:40:31Z</time>
      </trkpt>
      <trkpt lat="44.42914" lon="5.71691">
        <ele>667</ele>
        <time>2020-09-15T23:40:32Z</time>
      </trkpt>
      <trkpt lat="44.42916" lon="5.71693">
        <ele>667</ele>
        <time>2020-09-15T23:40:33Z</time>
      </trkpt>
      <trkpt lat="44.42918" lon="5.717">
        <ele>666</ele>
        <time>2020-09-15T23:40:33Z</time>
      </trkpt>
      <trkpt lat="44.42919" lon="5.71711">
        <ele>665</ele>
        <time>2020-09-15T23:40:35Z</time>
      </trkpt>
      <trkpt lat="44.42917" lon="5.71711">
        <ele>665</ele>
        <time>2020-09-15T23:40:35Z</time>
      </trkpt>
      <trkpt lat="44.42912" lon="5.71717">
        <ele>664</ele>
        <time>2020-09-15T23:40:36Z</time>
      </trkpt>
      <trkpt lat="44.42912" lon="5.71725">
        <ele>663</ele>
        <time>2020-09-15T23:40:37Z</time>
      </trkpt>
      <trkpt lat="44.42913" lon="5.71729">
        <ele>663</ele>
        <time>2020-09-15T23:40:38Z</time>
      </trkpt>
      <trkpt lat="44.42905" lon="5.71739">
        <ele>662</ele>
        <time>2020-09-15T23:40:40Z</time>
      </trkpt>
      <trkpt lat="44.42899" lon="5.71747">
        <ele>661</ele>
        <time>2020-09-15T23:40:41Z</time>
      </trkpt>
      <trkpt lat="44.42893" lon="5.71753">
        <ele>661</ele>
        <time>2020-09-15T23:40:43Z</time>
      </trkpt>
      <trkpt lat="44.4287" lon="5.71779">
        <ele>662</ele>
        <time>2020-09-15T23:40:48Z</time>
      </trkpt>
      <trkpt lat="44.42865" lon="5.71785">
        <ele>663</ele>
        <time>2020-09-15T23:40:49Z</time>
      </trkpt>
      <trkpt lat="44.42858" lon="5.7179">
        <ele>663</ele>
        <time>2020-09-15T23:40:51Z</time>
      </trkpt>
      <trkpt lat="44.42845" lon="5.71797">
        <ele>664</ele>
        <time>2020-09-15T23:40:53Z</time>
      </trkpt>
      <trkpt lat="44.42836" lon="5.71827">
        <ele>667</ele>
        <time>2020-09-15T23:40:57Z</time>
      </trkpt>
      <trkpt lat="44.42831" lon="5.71839">
        <ele>670</ele>
        <time>2020-09-15T23:40:59Z</time>
      </trkpt>
      <trkpt lat="44.4283" lon="5.71853">
        <ele>673</ele>
        <time>2020-09-15T23:41:01Z</time>
      </trkpt>
      <trkpt lat="44.42835" lon="5.71868">
        <ele>677</ele>
        <time>2020-09-15T23:41:03Z</time>
      </trkpt>
      <trkpt lat="44.42844" lon="5.71881">
        <ele>679</ele>
        <time>2020-09-15T23:41:05Z</time>
      </trkpt>
      <trkpt lat="44.42862" lon="5.71893">
        <ele>679</ele>
        <time>2020-09-15T23:41:09Z</time>
      </trkpt>
      <trkpt lat="44.42951" lon="5.71944">
        <ele>681</ele>
        <time>2020-09-15T23:41:26Z</time>
      </trkpt>
      <trkpt lat="44.42989" lon="5.71958">
        <ele>681</ele>
        <time>2020-09-15T23:41:33Z</time>
      </trkpt>
      <trkpt lat="44.43018" lon="5.71958">
        <ele>680</ele>
        <time>2020-09-15T23:41:38Z</time>
      </trkpt>
      <trkpt lat="44.43045" lon="5.71952">
        <ele>679</ele>
        <time>2020-09-15T23:41:43Z</time>
      </trkpt>
      <trkpt lat="44.43086" lon="5.71937">
        <ele>677</ele>
        <time>2020-09-15T23:41:50Z</time>
      </trkpt>
      <trkpt lat="44.43097" lon="5.71929">
        <ele>678</ele>
        <time>2020-09-15T23:41:53Z</time>
      </trkpt>
      <trkpt lat="44.43104" lon="5.71921">
        <ele>678</ele>
        <time>2020-09-15T23:41:54Z</time>
      </trkpt>
      <trkpt lat="44.43115" lon="5.71894">
        <ele>676</ele>
        <time>2020-09-15T23:41:58Z</time>
      </trkpt>
      <trkpt lat="44.4314" lon="5.71855">
        <ele>677</ele>
        <time>2020-09-15T23:42:05Z</time>
      </trkpt>
      <trkpt lat="44.43149" lon="5.71841">
        <ele>677</ele>
        <time>2020-09-15T23:42:07Z</time>
      </trkpt>
      <trkpt lat="44.43159" lon="5.71837">
        <ele>679</ele>
        <time>2020-09-15T23:42:09Z</time>
      </trkpt>
      <trkpt lat="44.43167" lon="5.71827">
        <ele>679</ele>
        <time>2020-09-15T23:42:11Z</time>
      </trkpt>
      <trkpt lat="44.43186" lon="5.71776">
        <ele>676</ele>
        <time>2020-09-15T23:42:18Z</time>
      </trkpt>
      <trkpt lat="44.43192" lon="5.71767">
        <ele>676</ele>
        <time>2020-09-15T23:42:20Z</time>
      </trkpt>
      <trkpt lat="44.43219" lon="5.71744">
        <ele>678</ele>
        <time>2020-09-15T23:42:25Z</time>
      </trkpt>
      <trkpt lat="44.43222" lon="5.71734">
        <ele>678</ele>
        <time>2020-09-15T23:42:27Z</time>
      </trkpt>
      <trkpt lat="44.43226" lon="5.71567">
        <ele>678</ele>
        <time>2020-09-15T23:42:48Z</time>
      </trkpt>
      <trkpt lat="44.43225" lon="5.71467">
        <ele>678</ele>
        <time>2020-09-15T23:43:01Z</time>
      </trkpt>
      <trkpt lat="44.43228" lon="5.71417">
        <ele>677</ele>
        <time>2020-09-15T23:43:07Z</time>
      </trkpt>
      <trkpt lat="44.43234" lon="5.7139">
        <ele>675</ele>
        <time>2020-09-15T23:43:11Z</time>
      </trkpt>
      <trkpt lat="44.43247" lon="5.71351">
        <ele>672</ele>
        <time>2020-09-15T23:43:16Z</time>
      </trkpt>
      <trkpt lat="44.4325" lon="5.71334">
        <ele>669</ele>
        <time>2020-09-15T23:43:18Z</time>
      </trkpt>
      <trkpt lat="44.43241" lon="5.71334">
        <ele>669</ele>
        <time>2020-09-15T23:43:20Z</time>
      </trkpt>
      <trkpt lat="44.43237" lon="5.71332">
        <ele>669</ele>
        <time>2020-09-15T23:43:21Z</time>
      </trkpt>
      <trkpt lat="44.43211" lon="5.71317">
        <ele>668</ele>
        <time>2020-09-15T23:43:26Z</time>
      </trkpt>
      <trkpt lat="44.43202" lon="5.71312">
        <ele>668</ele>
        <time>2020-09-15T23:43:27Z</time>
      </trkpt>
      <trkpt lat="44.43215" lon="5.71291">
        <ele>669</ele>
        <time>2020-09-15T23:43:31Z</time>
      </trkpt>
      <trkpt lat="44.43263" lon="5.71209">
        <ele>668</ele>
        <time>2020-09-15T23:43:44Z</time>
      </trkpt>
      <trkpt lat="44.43279" lon="5.71168">
        <ele>669</ele>
        <time>2020-09-15T23:43:50Z</time>
      </trkpt>
      <trkpt lat="44.43286" lon="5.71156">
        <ele>671</ele>
        <time>2020-09-15T23:43:52Z</time>
      </trkpt>
      <trkpt lat="44.43293" lon="5.71146">
        <ele>672</ele>
        <time>2020-09-15T23:43:54Z</time>
      </trkpt>
      <trkpt lat="44.43323" lon="5.71117">
        <ele>676</ele>
        <time>2020-09-15T23:44:01Z</time>
      </trkpt>
      <trkpt lat="44.43336" lon="5.71106">
        <ele>677</ele>
        <time>2020-09-15T23:44:03Z</time>
      </trkpt>
      <trkpt lat="44.43437" lon="5.71048">
        <ele>688</ele>
        <time>2020-09-15T23:44:23Z</time>
      </trkpt>
      <trkpt lat="44.435" lon="5.71019">
        <ele>690</ele>
        <time>2020-09-15T23:44:35Z</time>
      </trkpt>
      <trkpt lat="44.4353" lon="5.71009">
        <ele>690</ele>
        <time>2020-09-15T23:44:40Z</time>
      </trkpt>
      <trkpt lat="44.43655" lon="5.70984">
        <ele>689</ele>
        <time>2020-09-15T23:45:02Z</time>
      </trkpt>
      <trkpt lat="44.43688" lon="5.70981">
        <ele>687</ele>
        <time>2020-09-15T23:45:08Z</time>
      </trkpt>
      <trkpt lat="44.43701" lon="5.70978">
        <ele>686</ele>
        <time>2020-09-15T23:45:11Z</time>
      </trkpt>
      <trkpt lat="44.43725" lon="5.70968">
        <ele>685</ele>
        <time>2020-09-15T23:45:15Z</time>
      </trkpt>
      <trkpt lat="44.4375" lon="5.70952">
        <ele>685</ele>
        <time>2020-09-15T23:45:20Z</time>
      </trkpt>
      <trkpt lat="44.43756" lon="5.70948">
        <ele>685</ele>
        <time>2020-09-15T23:45:21Z</time>
      </trkpt>
      <trkpt lat="44.43775" lon="5.70931">
        <ele>684</ele>
        <time>2020-09-15T23:45:25Z</time>
      </trkpt>
      <trkpt lat="44.43844" lon="5.70866">
        <ele>692</ele>
        <time>2020-09-15T23:45:40Z</time>
      </trkpt>
      <trkpt lat="44.43931" lon="5.70809">
        <ele>692</ele>
        <time>2020-09-15T23:45:57Z</time>
      </trkpt>
      <trkpt lat="44.43974" lon="5.70771">
        <ele>690</ele>
        <time>2020-09-15T23:46:06Z</time>
      </trkpt>
      <trkpt lat="44.43982" lon="5.70758">
        <ele>690</ele>
        <time>2020-09-15T23:46:08Z</time>
      </trkpt>
      <trkpt lat="44.44" lon="5.70711">
        <ele>694</ele>
        <time>2020-09-15T23:46:15Z</time>
      </trkpt>
      <trkpt lat="44.44021" lon="5.70682">
        <ele>698</ele>
        <time>2020-09-15T23:46:20Z</time>
      </trkpt>
      <trkpt lat="44.44045" lon="5.70657">
        <ele>700</ele>
        <time>2020-09-15T23:46:26Z</time>
      </trkpt>
      <trkpt lat="44.44059" lon="5.70648">
        <ele>700</ele>
        <time>2020-09-15T23:46:28Z</time>
      </trkpt>
      <trkpt lat="44.44073" lon="5.70643">
        <ele>699</ele>
        <time>2020-09-15T23:46:31Z</time>
      </trkpt>
      <trkpt lat="44.44127" lon="5.70631">
        <ele>696</ele>
        <time>2020-09-15T23:46:41Z</time>
      </trkpt>
      <trkpt lat="44.44138" lon="5.70625">
        <ele>696</ele>
        <time>2020-09-15T23:46:43Z</time>
      </trkpt>
      <trkpt lat="44.44161" lon="5.70607">
        <ele>696</ele>
        <time>2020-09-15T23:46:48Z</time>
      </trkpt>
      <trkpt lat="44.44181" lon="5.70582">
        <ele>697</ele>
        <time>2020-09-15T23:46:52Z</time>
      </trkpt>
      <trkpt lat="44.44202" lon="5.70538">
        <ele>706</ele>
        <time>2020-09-15T23:46:59Z</time>
      </trkpt>
      <trkpt lat="44.44211" lon="5.70525">
        <ele>707</ele>
        <time>2020-09-15T23:47:01Z</time>
      </trkpt>
      <trkpt lat="44.44222" lon="5.70514">
        <ele>705</ele>
        <time>2020-09-15T23:47:04Z</time>
      </trkpt>
      <trkpt lat="44.44314" lon="5.70451">
        <ele>701</ele>
        <time>2020-09-15T23:47:22Z</time>
      </trkpt>
      <trkpt lat="44.44323" lon="5.7044">
        <ele>702</ele>
        <time>2020-09-15T23:47:24Z</time>
      </trkpt>
      <trkpt lat="44.44348" lon="5.70387">
        <ele>711</ele>
        <time>2020-09-15T23:47:32Z</time>
      </trkpt>
      <trkpt lat="44.44356" lon="5.70378">
        <ele>711</ele>
        <time>2020-09-15T23:47:34Z</time>
      </trkpt>
      <trkpt lat="44.44434" lon="5.70335">
        <ele>701</ele>
        <time>2020-09-15T23:47:49Z</time>
      </trkpt>
      <trkpt lat="44.44446" lon="5.70332">
        <ele>700</ele>
        <time>2020-09-15T23:47:51Z</time>
      </trkpt>
      <trkpt lat="44.44496" lon="5.7033">
        <ele>695</ele>
        <time>2020-09-15T23:48:00Z</time>
      </trkpt>
      <trkpt lat="44.44508" lon="5.70327">
        <ele>696</ele>
        <time>2020-09-15T23:48:02Z</time>
      </trkpt>
      <trkpt lat="44.44521" lon="5.70321">
        <ele>698</ele>
        <time>2020-09-15T23:48:05Z</time>
      </trkpt>
      <trkpt lat="44.44544" lon="5.70301">
        <ele>701</ele>
        <time>2020-09-15T23:48:09Z</time>
      </trkpt>
      <trkpt lat="44.44577" lon="5.70267">
        <ele>702</ele>
        <time>2020-09-15T23:48:17Z</time>
      </trkpt>
      <trkpt lat="44.44586" lon="5.70255">
        <ele>702</ele>
        <time>2020-09-15T23:48:19Z</time>
      </trkpt>
      <trkpt lat="44.44594" lon="5.70241">
        <ele>703</ele>
        <time>2020-09-15T23:48:21Z</time>
      </trkpt>
      <trkpt lat="44.446" lon="5.70226">
        <ele>705</ele>
        <time>2020-09-15T23:48:23Z</time>
      </trkpt>
      <trkpt lat="44.44608" lon="5.70189">
        <ele>707</ele>
        <time>2020-09-15T23:48:28Z</time>
      </trkpt>
      <trkpt lat="44.44614" lon="5.7012">
        <ele>713</ele>
        <time>2020-09-15T23:48:37Z</time>
      </trkpt>
      <trkpt lat="44.44624" lon="5.70088">
        <ele>715</ele>
        <time>2020-09-15T23:48:42Z</time>
      </trkpt>
      <trkpt lat="44.44632" lon="5.70075">
        <ele>716</ele>
        <time>2020-09-15T23:48:44Z</time>
      </trkpt>
      <trkpt lat="44.44641" lon="5.70062">
        <ele>718</ele>
        <time>2020-09-15T23:48:46Z</time>
      </trkpt>
      <trkpt lat="44.44681" lon="5.7003">
        <ele>717</ele>
        <time>2020-09-15T23:48:54Z</time>
      </trkpt>
      <trkpt lat="44.44735" lon="5.69984">
        <ele>713</ele>
        <time>2020-09-15T23:49:05Z</time>
      </trkpt>
      <trkpt lat="44.44761" lon="5.69965">
        <ele>712</ele>
        <time>2020-09-15T23:49:11Z</time>
      </trkpt>
      <trkpt lat="44.44821" lon="5.69929">
        <ele>711</ele>
        <time>2020-09-15T23:49:22Z</time>
      </trkpt>
      <trkpt lat="44.4483" lon="5.69921">
        <ele>709</ele>
        <time>2020-09-15T23:49:24Z</time>
      </trkpt>
      <trkpt lat="44.44838" lon="5.69911">
        <ele>709</ele>
        <time>2020-09-15T23:49:26Z</time>
      </trkpt>
      <trkpt lat="44.44842" lon="5.69903">
        <ele>710</ele>
        <time>2020-09-15T23:49:27Z</time>
      </trkpt>
      <trkpt lat="44.44845" lon="5.69894">
        <ele>711</ele>
        <time>2020-09-15T23:49:29Z</time>
      </trkpt>
      <trkpt lat="44.44851" lon="5.69877">
        <ele>711</ele>
        <time>2020-09-15T23:49:31Z</time>
      </trkpt>
      <trkpt lat="44.44858" lon="5.69831">
        <ele>713</ele>
        <time>2020-09-15T23:49:37Z</time>
      </trkpt>
      <trkpt lat="44.44869" lon="5.69797">
        <ele>717</ele>
        <time>2020-09-15T23:49:42Z</time>
      </trkpt>
      <trkpt lat="44.44889" lon="5.6976">
        <ele>717</ele>
        <time>2020-09-15T23:49:48Z</time>
      </trkpt>
      <trkpt lat="44.44895" lon="5.69745">
        <ele>717</ele>
        <time>2020-09-15T23:49:50Z</time>
      </trkpt>
      <trkpt lat="44.44911" lon="5.69692">
        <ele>721</ele>
        <time>2020-09-15T23:49:57Z</time>
      </trkpt>
      <trkpt lat="44.44933" lon="5.69641">
        <ele>727</ele>
        <time>2020-09-15T23:50:05Z</time>
      </trkpt>
      <trkpt lat="44.44952" lon="5.6961">
        <ele>730</ele>
        <time>2020-09-15T23:50:10Z</time>
      </trkpt>
      <trkpt lat="44.44963" lon="5.69596">
        <ele>729</ele>
        <time>2020-09-15T23:50:12Z</time>
      </trkpt>
      <trkpt lat="44.45" lon="5.69562">
        <ele>724</ele>
        <time>2020-09-15T23:50:20Z</time>
      </trkpt>
      <trkpt lat="44.45066" lon="5.69516">
        <ele>726</ele>
        <time>2020-09-15T23:50:33Z</time>
      </trkpt>
      <trkpt lat="44.45078" lon="5.69505">
        <ele>725</ele>
        <time>2020-09-15T23:50:36Z</time>
      </trkpt>
      <trkpt lat="44.4511" lon="5.69469">
        <ele>731</ele>
        <time>2020-09-15T23:50:43Z</time>
      </trkpt>
      <trkpt lat="44.45132" lon="5.69449">
        <ele>731</ele>
        <time>2020-09-15T23:50:48Z</time>
      </trkpt>
      <trkpt lat="44.45157" lon="5.69434">
        <ele>728</ele>
        <time>2020-09-15T23:50:53Z</time>
      </trkpt>
      <trkpt lat="44.45218" lon="5.69406">
        <ele>727</ele>
        <time>2020-09-15T23:51:04Z</time>
      </trkpt>
      <trkpt lat="44.45243" lon="5.69388">
        <ele>729</ele>
        <time>2020-09-15T23:51:09Z</time>
      </trkpt>
      <trkpt lat="44.45268" lon="5.69357">
        <ele>734</ele>
        <time>2020-09-15T23:51:15Z</time>
      </trkpt>
      <trkpt lat="44.45288" lon="5.69329">
        <ele>736</ele>
        <time>2020-09-15T23:51:20Z</time>
      </trkpt>
      <trkpt lat="44.45293" lon="5.69324">
        <ele>737</ele>
        <time>2020-09-15T23:51:21Z</time>
      </trkpt>
      <trkpt lat="44.45311" lon="5.69317">
        <ele>735</ele>
        <time>2020-09-15T23:51:25Z</time>
      </trkpt>
      <trkpt lat="44.4533" lon="5.69314">
        <ele>730</ele>
        <time>2020-09-15T23:51:28Z</time>
      </trkpt>
      <trkpt lat="44.45474" lon="5.69334">
        <ele>739</ele>
        <time>2020-09-15T23:51:54Z</time>
      </trkpt>
      <trkpt lat="44.45509" lon="5.69333">
        <ele>746</ele>
        <time>2020-09-15T23:52:00Z</time>
      </trkpt>
      <trkpt lat="44.45596" lon="5.69325">
        <ele>752</ele>
        <time>2020-09-15T23:52:16Z</time>
      </trkpt>
      <trkpt lat="44.45607" lon="5.69327">
        <ele>751</ele>
        <time>2020-09-15T23:52:18Z</time>
      </trkpt>
      <trkpt lat="44.45613" lon="5.69332">
        <ele>749</ele>
        <time>2020-09-15T23:52:19Z</time>
      </trkpt>
      <trkpt lat="44.45629" lon="5.6936">
        <ele>749</ele>
        <time>2020-09-15T23:52:23Z</time>
      </trkpt>
      <trkpt lat="44.45636" lon="5.69366">
        <ele>749</ele>
        <time>2020-09-15T23:52:25Z</time>
      </trkpt>
      <trkpt lat="44.4565" lon="5.69372">
        <ele>747</ele>
        <time>2020-09-15T23:52:27Z</time>
      </trkpt>
      <trkpt lat="44.45673" lon="5.69376">
        <ele>745</ele>
        <time>2020-09-15T23:52:32Z</time>
      </trkpt>
      <trkpt lat="44.4569" lon="5.69382">
        <ele>747</ele>
        <time>2020-09-15T23:52:35Z</time>
      </trkpt>
      <trkpt lat="44.45696" lon="5.69389">
        <ele>747</ele>
        <time>2020-09-15T23:52:36Z</time>
      </trkpt>
      <trkpt lat="44.457" lon="5.69397">
        <ele>746</ele>
        <time>2020-09-15T23:52:37Z</time>
      </trkpt>
      <trkpt lat="44.45712" lon="5.69429">
        <ele>746</ele>
        <time>2020-09-15T23:52:42Z</time>
      </trkpt>
      <trkpt lat="44.45723" lon="5.69448">
        <ele>750</ele>
        <time>2020-09-15T23:52:45Z</time>
      </trkpt>
      <trkpt lat="44.45731" lon="5.69454">
        <ele>750</ele>
        <time>2020-09-15T23:52:47Z</time>
      </trkpt>
      <trkpt lat="44.4574" lon="5.69456">
        <ele>749</ele>
        <time>2020-09-15T23:52:48Z</time>
      </trkpt>
      <trkpt lat="44.45748" lon="5.69455">
        <ele>748</ele>
        <time>2020-09-15T23:52:50Z</time>
      </trkpt>
      <trkpt lat="44.45756" lon="5.6945">
        <ele>747</ele>
        <time>2020-09-15T23:52:51Z</time>
      </trkpt>
      <trkpt lat="44.45764" lon="5.69443">
        <ele>746</ele>
        <time>2020-09-15T23:52:53Z</time>
      </trkpt>
      <trkpt lat="44.4577" lon="5.69434">
        <ele>745</ele>
        <time>2020-09-15T23:52:54Z</time>
      </trkpt>
      <trkpt lat="44.45787" lon="5.69401">
        <ele>749</ele>
        <time>2020-09-15T23:53:00Z</time>
      </trkpt>
      <trkpt lat="44.45793" lon="5.69395">
        <ele>750</ele>
        <time>2020-09-15T23:53:01Z</time>
      </trkpt>
      <trkpt lat="44.458" lon="5.69392">
        <ele>751</ele>
        <time>2020-09-15T23:53:02Z</time>
      </trkpt>
      <trkpt lat="44.45808" lon="5.69392">
        <ele>751</ele>
        <time>2020-09-15T23:53:04Z</time>
      </trkpt>
      <trkpt lat="44.45817" lon="5.69394">
        <ele>750</ele>
        <time>2020-09-15T23:53:05Z</time>
      </trkpt>
      <trkpt lat="44.45857" lon="5.69414">
        <ele>746</ele>
        <time>2020-09-15T23:53:13Z</time>
      </trkpt>
      <trkpt lat="44.45888" lon="5.69422">
        <ele>746</ele>
        <time>2020-09-15T23:53:18Z</time>
      </trkpt>
      <trkpt lat="44.45917" lon="5.69422">
        <ele>747</ele>
        <time>2020-09-15T23:53:24Z</time>
      </trkpt>
      <trkpt lat="44.45946" lon="5.69414">
        <ele>748</ele>
        <time>2020-09-15T23:53:29Z</time>
      </trkpt>
      <trkpt lat="44.45951" lon="5.69416">
        <ele>748</ele>
        <time>2020-09-15T23:53:30Z</time>
      </trkpt>
      <trkpt lat="44.45956" lon="5.6942">
        <ele>748</ele>
        <time>2020-09-15T23:53:31Z</time>
      </trkpt>
      <trkpt lat="44.4598" lon="5.69455">
        <ele>749</ele>
        <time>2020-09-15T23:53:37Z</time>
      </trkpt>
      <trkpt lat="44.45991" lon="5.69468">
        <ele>749</ele>
        <time>2020-09-15T23:53:40Z</time>
      </trkpt>
      <trkpt lat="44.46029" lon="5.69499">
        <ele>752</ele>
        <time>2020-09-15T23:53:47Z</time>
      </trkpt>
      <trkpt lat="44.46065" lon="5.69539">
        <ele>756</ele>
        <time>2020-09-15T23:53:55Z</time>
      </trkpt>
      <trkpt lat="44.46078" lon="5.6956">
        <ele>757</ele>
        <time>2020-09-15T23:53:59Z</time>
      </trkpt>
      <trkpt lat="44.46103" lon="5.69618">
        <ele>760</ele>
        <time>2020-09-15T23:54:08Z</time>
      </trkpt>
      <trkpt lat="44.4611" lon="5.69637">
        <ele>761</ele>
        <time>2020-09-15T23:54:10Z</time>
      </trkpt>
      <trkpt lat="44.46115" lon="5.69671">
        <ele>762</ele>
        <time>2020-09-15T23:54:15Z</time>
      </trkpt>
      <trkpt lat="44.4612" lon="5.69747">
        <ele>766</ele>
        <time>2020-09-15T23:54:24Z</time>
      </trkpt>
      <trkpt lat="44.46124" lon="5.69776">
        <ele>767</ele>
        <time>2020-09-15T23:54:28Z</time>
      </trkpt>
      <trkpt lat="44.4614" lon="5.69846">
        <ele>770</ele>
        <time>2020-09-15T23:54:38Z</time>
      </trkpt>
      <trkpt lat="44.46149" lon="5.69902">
        <ele>771</ele>
        <time>2020-09-15T23:54:45Z</time>
      </trkpt>
      <trkpt lat="44.46153" lon="5.6992">
        <ele>772</ele>
        <time>2020-09-15T23:54:47Z</time>
      </trkpt>
      <trkpt lat="44.4616" lon="5.69931">
        <ele>771</ele>
        <time>2020-09-15T23:54:49Z</time>
      </trkpt>
      <trkpt lat="44.46171" lon="5.69934">
        <ele>771</ele>
        <time>2020-09-15T23:54:51Z</time>
      </trkpt>
      <trkpt lat="44.46178" lon="5.69932">
        <ele>771</ele>
        <time>2020-09-15T23:54:52Z</time>
      </trkpt>
      <trkpt lat="44.46184" lon="5.69927">
        <ele>772</ele>
        <time>2020-09-15T23:54:54Z</time>
      </trkpt>
      <trkpt lat="44.46213" lon="5.6989">
        <ele>773</ele>
        <time>2020-09-15T23:55:01Z</time>
      </trkpt>
      <trkpt lat="44.46225" lon="5.69879">
        <ele>773</ele>
        <time>2020-09-15T23:55:03Z</time>
      </trkpt>
      <trkpt lat="44.46231" lon="5.69875">
        <ele>773</ele>
        <time>2020-09-15T23:55:04Z</time>
      </trkpt>
      <trkpt lat="44.46263" lon="5.69869">
        <ele>775</ele>
        <time>2020-09-15T23:55:10Z</time>
      </trkpt>
      <trkpt lat="44.46272" lon="5.69865">
        <ele>775</ele>
        <time>2020-09-15T23:55:12Z</time>
      </trkpt>
      <trkpt lat="44.46291" lon="5.6985">
        <ele>776</ele>
        <time>2020-09-15T23:55:16Z</time>
      </trkpt>
      <trkpt lat="44.46307" lon="5.6983">
        <ele>778</ele>
        <time>2020-09-15T23:55:19Z</time>
      </trkpt>
      <trkpt lat="44.46334" lon="5.69788">
        <ele>780</ele>
        <time>2020-09-15T23:55:27Z</time>
      </trkpt>
      <trkpt lat="44.46364" lon="5.69753">
        <ele>781</ele>
        <time>2020-09-15T23:55:34Z</time>
      </trkpt>
      <trkpt lat="44.46416" lon="5.69708">
        <ele>787</ele>
        <time>2020-09-15T23:55:44Z</time>
      </trkpt>
      <trkpt lat="44.46433" lon="5.69703">
        <ele>789</ele>
        <time>2020-09-15T23:55:48Z</time>
      </trkpt>
      <trkpt lat="44.46442" lon="5.69704">
        <ele>789</ele>
        <time>2020-09-15T23:55:49Z</time>
      </trkpt>
      <trkpt lat="44.46462" lon="5.69708">
        <ele>789</ele>
        <time>2020-09-15T23:55:53Z</time>
      </trkpt>
      <trkpt lat="44.4648" lon="5.69715">
        <ele>789</ele>
        <time>2020-09-15T23:55:56Z</time>
      </trkpt>
      <trkpt lat="44.46498" lon="5.69727">
        <ele>787</ele>
        <time>2020-09-15T23:56:00Z</time>
      </trkpt>
      <trkpt lat="44.46513" lon="5.69743">
        <ele>786</ele>
        <time>2020-09-15T23:56:03Z</time>
      </trkpt>
      <trkpt lat="44.46544" lon="5.69769">
        <ele>785</ele>
        <time>2020-09-15T23:56:09Z</time>
      </trkpt>
      <trkpt lat="44.46561" lon="5.698">
        <ele>781</ele>
        <time>2020-09-15T23:56:14Z</time>
      </trkpt>
      <trkpt lat="44.46576" lon="5.6982">
        <ele>779</ele>
        <time>2020-09-15T23:56:18Z</time>
      </trkpt>
      <trkpt lat="44.46584" lon="5.69829">
        <ele>778</ele>
        <time>2020-09-15T23:56:20Z</time>
      </trkpt>
      <trkpt lat="44.46602" lon="5.69842">
        <ele>776</ele>
        <time>2020-09-15T23:56:23Z</time>
      </trkpt>
      <trkpt lat="44.46622" lon="5.69848">
        <ele>776</ele>
        <time>2020-09-15T23:56:27Z</time>
      </trkpt>
      <trkpt lat="44.46633" lon="5.69849">
        <ele>776</ele>
        <time>2020-09-15T23:56:29Z</time>
      </trkpt>
      <trkpt lat="44.46708" lon="5.69836">
        <ele>781</ele>
        <time>2020-09-15T23:56:42Z</time>
      </trkpt>
      <trkpt lat="44.46717" lon="5.69835">
        <ele>781</ele>
        <time>2020-09-15T23:56:44Z</time>
      </trkpt>
      <trkpt lat="44.46725" lon="5.69837">
        <ele>780</ele>
        <time>2020-09-15T23:56:46Z</time>
      </trkpt>
      <trkpt lat="44.4673" lon="5.69843">
        <ele>780</ele>
        <time>2020-09-15T23:56:47Z</time>
      </trkpt>
      <trkpt lat="44.46734" lon="5.69852">
        <ele>778</ele>
        <time>2020-09-15T23:56:48Z</time>
      </trkpt>
      <trkpt lat="44.46738" lon="5.69873">
        <ele>775</ele>
        <time>2020-09-15T23:56:51Z</time>
      </trkpt>
      <trkpt lat="44.46742" lon="5.69883">
        <ele>774</ele>
        <time>2020-09-15T23:56:52Z</time>
      </trkpt>
      <trkpt lat="44.46749" lon="5.69891">
        <ele>773</ele>
        <time>2020-09-15T23:56:54Z</time>
      </trkpt>
      <trkpt lat="44.46757" lon="5.69896">
        <ele>772</ele>
        <time>2020-09-15T23:56:55Z</time>
      </trkpt>
      <trkpt lat="44.46766" lon="5.69897">
        <ele>772</ele>
        <time>2020-09-15T23:56:57Z</time>
      </trkpt>
      <trkpt lat="44.46776" lon="5.69896">
        <ele>771</ele>
        <time>2020-09-15T23:56:59Z</time>
      </trkpt>
      <trkpt lat="44.46818" lon="5.69888">
        <ele>770</ele>
        <time>2020-09-15T23:57:06Z</time>
      </trkpt>
      <trkpt lat="44.46826" lon="5.69883">
        <ele>770</ele>
        <time>2020-09-15T23:57:08Z</time>
      </trkpt>
      <trkpt lat="44.46833" lon="5.69876">
        <ele>770</ele>
        <time>2020-09-15T23:57:09Z</time>
      </trkpt>
      <trkpt lat="44.46854" lon="5.69834">
        <ele>773</ele>
        <time>2020-09-15T23:57:16Z</time>
      </trkpt>
      <trkpt lat="44.46858" lon="5.69824">
        <ele>774</ele>
        <time>2020-09-15T23:57:17Z</time>
      </trkpt>
      <trkpt lat="44.46861" lon="5.69812">
        <ele>776</ele>
        <time>2020-09-15T23:57:19Z</time>
      </trkpt>
      <trkpt lat="44.46861" lon="5.69782">
        <ele>779</ele>
        <time>2020-09-15T23:57:23Z</time>
      </trkpt>
      <trkpt lat="44.46863" lon="5.69775">
        <ele>780</ele>
        <time>2020-09-15T23:57:24Z</time>
      </trkpt>
      <trkpt lat="44.46867" lon="5.6977">
        <ele>780</ele>
        <time>2020-09-15T23:57:25Z</time>
      </trkpt>
      <trkpt lat="44.46873" lon="5.69768">
        <ele>779</ele>
        <time>2020-09-15T23:57:26Z</time>
      </trkpt>
      <trkpt lat="44.46879" lon="5.6977">
        <ele>779</ele>
        <time>2020-09-15T23:57:27Z</time>
      </trkpt>
      <trkpt lat="44.46892" lon="5.69783">
        <ele>776</ele>
        <time>2020-09-15T23:57:30Z</time>
      </trkpt>
      <trkpt lat="44.46921" lon="5.69832">
        <ele>772</ele>
        <time>2020-09-15T23:57:38Z</time>
      </trkpt>
      <trkpt lat="44.46928" lon="5.69839">
        <ele>772</ele>
        <time>2020-09-15T23:57:39Z</time>
      </trkpt>
      <trkpt lat="44.46936" lon="5.69844">
        <ele>773</ele>
        <time>2020-09-15T23:57:41Z</time>
      </trkpt>
      <trkpt lat="44.46955" lon="5.6985">
        <ele>774</ele>
        <time>2020-09-15T23:57:44Z</time>
      </trkpt>
      <trkpt lat="44.46996" lon="5.69857">
        <ele>776</ele>
        <time>2020-09-15T23:57:52Z</time>
      </trkpt>
      <trkpt lat="44.47066" lon="5.69866">
        <ele>777</ele>
        <time>2020-09-15T23:58:04Z</time>
      </trkpt>
      <trkpt lat="44.47148" lon="5.69894">
        <ele>776</ele>
        <time>2020-09-15T23:58:19Z</time>
      </trkpt>
      <trkpt lat="44.47251" lon="5.69958">
        <ele>773</ele>
        <time>2020-09-15T23:58:39Z</time>
      </trkpt>
      <trkpt lat="44.47283" lon="5.69987">
        <ele>773</ele>
        <time>2020-09-15T23:58:46Z</time>
      </trkpt>
      <trkpt lat="44.47301" lon="5.70009">
        <ele>772</ele>
        <time>2020-09-15T23:58:50Z</time>
      </trkpt>
      <trkpt lat="44.4732" lon="5.70027">
        <ele>771</ele>
        <time>2020-09-15T23:58:54Z</time>
      </trkpt>
      <trkpt lat="44.47411" lon="5.70094">
        <ele>766</ele>
        <time>2020-09-15T23:59:13Z</time>
      </trkpt>
      <trkpt lat="44.47448" lon="5.70115">
        <ele>766</ele>
        <time>2020-09-15T23:59:20Z</time>
      </trkpt>
      <trkpt lat="44.47461" lon="5.70129">
        <ele>765</ele>
        <time>2020-09-15T23:59:23Z</time>
      </trkpt>
      <trkpt lat="44.47467" lon="5.70148">
        <ele>764</ele>
        <time>2020-09-15T23:59:25Z</time>
      </trkpt>
      <trkpt lat="44.47465" lon="5.70215">
        <ele>760</ele>
        <time>2020-09-15T23:59:34Z</time>
      </trkpt>
      <trkpt lat="44.4747" lon="5.70242">
        <ele>759</ele>
        <time>2020-09-15T23:59:37Z</time>
      </trkpt>
      <trkpt lat="44.47546" lon="5.70443">
        <ele>747</ele>
        <time>2020-09-16T00:00:06Z</time>
      </trkpt>
      <trkpt lat="44.47566" lon="5.70508">
        <ele>743</ele>
        <time>2020-09-16T00:00:15Z</time>
      </trkpt>
      <trkpt lat="44.47592" lon="5.70598">
        <ele>737</ele>
        <time>2020-09-16T00:00:28Z</time>
      </trkpt>
      <trkpt lat="44.47605" lon="5.70649">
        <ele>735</ele>
        <time>2020-09-16T00:00:35Z</time>
      </trkpt>
      <trkpt lat="44.47646" lon="5.70851">
        <ele>728</ele>
        <time>2020-09-16T00:01:01Z</time>
      </trkpt>
      <trkpt lat="44.47656" lon="5.70889">
        <ele>727</ele>
        <time>2020-09-16T00:01:06Z</time>
      </trkpt>
      <trkpt lat="44.4767" lon="5.70924">
        <ele>725</ele>
        <time>2020-09-16T00:01:11Z</time>
      </trkpt>
      <trkpt lat="44.47693" lon="5.70976">
        <ele>722</ele>
        <time>2020-09-16T00:01:19Z</time>
      </trkpt>
      <trkpt lat="44.47752" lon="5.71119">
        <ele>715</ele>
        <time>2020-09-16T00:01:40Z</time>
      </trkpt>
      <trkpt lat="44.47775" lon="5.71209">
        <ele>714</ele>
        <time>2020-09-16T00:01:52Z</time>
      </trkpt>
      <trkpt lat="44.47811" lon="5.71337">
        <ele>713</ele>
        <time>2020-09-16T00:02:10Z</time>
      </trkpt>
      <trkpt lat="44.47823" lon="5.71361">
        <ele>712</ele>
        <time>2020-09-16T00:02:14Z</time>
      </trkpt>
      <trkpt lat="44.4787" lon="5.71441">
        <ele>712</ele>
        <time>2020-09-16T00:02:27Z</time>
      </trkpt>
      <trkpt lat="44.47885" lon="5.7146">
        <ele>712</ele>
        <time>2020-09-16T00:02:30Z</time>
      </trkpt>
      <trkpt lat="44.47948" lon="5.71505">
        <ele>711</ele>
        <time>2020-09-16T00:02:43Z</time>
      </trkpt>
      <trkpt lat="44.48006" lon="5.71563">
        <ele>707</ele>
        <time>2020-09-16T00:02:56Z</time>
      </trkpt>
      <trkpt lat="44.48015" lon="5.71569">
        <ele>707</ele>
        <time>2020-09-16T00:02:57Z</time>
      </trkpt>
      <trkpt lat="44.48052" lon="5.71585">
        <ele>707</ele>
        <time>2020-09-16T00:03:04Z</time>
      </trkpt>
      <trkpt lat="44.48059" lon="5.71593">
        <ele>707</ele>
        <time>2020-09-16T00:03:06Z</time>
      </trkpt>
      <trkpt lat="44.48065" lon="5.71602">
        <ele>707</ele>
        <time>2020-09-16T00:03:07Z</time>
      </trkpt>
      <trkpt lat="44.48068" lon="5.71612">
        <ele>707</ele>
        <time>2020-09-16T00:03:09Z</time>
      </trkpt>
      <trkpt lat="44.48068" lon="5.71635">
        <ele>706</ele>
        <time>2020-09-16T00:03:12Z</time>
      </trkpt>
      <trkpt lat="44.48064" lon="5.71673">
        <ele>704</ele>
        <time>2020-09-16T00:03:17Z</time>
      </trkpt>
      <trkpt lat="44.48064" lon="5.71682">
        <ele>704</ele>
        <time>2020-09-16T00:03:18Z</time>
      </trkpt>
      <trkpt lat="44.48071" lon="5.71701">
        <ele>704</ele>
        <time>2020-09-16T00:03:20Z</time>
      </trkpt>
      <trkpt lat="44.48095" lon="5.71741">
        <ele>704</ele>
        <time>2020-09-16T00:03:27Z</time>
      </trkpt>
      <trkpt lat="44.48118" lon="5.71805">
        <ele>703</ele>
        <time>2020-09-16T00:03:36Z</time>
      </trkpt>
      <trkpt lat="44.48125" lon="5.71815">
        <ele>703</ele>
        <time>2020-09-16T00:03:38Z</time>
      </trkpt>
      <trkpt lat="44.48133" lon="5.71824">
        <ele>704</ele>
        <time>2020-09-16T00:03:40Z</time>
      </trkpt>
      <trkpt lat="44.48142" lon="5.71831">
        <ele>704</ele>
        <time>2020-09-16T00:03:42Z</time>
      </trkpt>
      <trkpt lat="44.48153" lon="5.71836">
        <ele>704</ele>
        <time>2020-09-16T00:03:44Z</time>
      </trkpt>
      <trkpt lat="44.48242" lon="5.71874">
        <ele>706</ele>
        <time>2020-09-16T00:04:00Z</time>
      </trkpt>
      <trkpt lat="44.48252" lon="5.71881">
        <ele>706</ele>
        <time>2020-09-16T00:04:02Z</time>
      </trkpt>
      <trkpt lat="44.48259" lon="5.7189">
        <ele>706</ele>
        <time>2020-09-16T00:04:04Z</time>
      </trkpt>
      <trkpt lat="44.48264" lon="5.71903">
        <ele>706</ele>
        <time>2020-09-16T00:04:06Z</time>
      </trkpt>
      <trkpt lat="44.48267" lon="5.71916">
        <ele>706</ele>
        <time>2020-09-16T00:04:07Z</time>
      </trkpt>
      <trkpt lat="44.48289" lon="5.72052">
        <ele>705</ele>
        <time>2020-09-16T00:04:25Z</time>
      </trkpt>
      <trkpt lat="44.48292" lon="5.72065">
        <ele>705</ele>
        <time>2020-09-16T00:04:27Z</time>
      </trkpt>
      <trkpt lat="44.48297" lon="5.72076">
        <ele>705</ele>
        <time>2020-09-16T00:04:29Z</time>
      </trkpt>
      <trkpt lat="44.48303" lon="5.72085">
        <ele>705</ele>
        <time>2020-09-16T00:04:30Z</time>
      </trkpt>
      <trkpt lat="44.48311" lon="5.72091">
        <ele>705</ele>
        <time>2020-09-16T00:04:32Z</time>
      </trkpt>
      <trkpt lat="44.48508" lon="5.72192">
        <ele>708</ele>
        <time>2020-09-16T00:05:09Z</time>
      </trkpt>
      <trkpt lat="44.48612" lon="5.7224">
        <ele>709</ele>
        <time>2020-09-16T00:05:29Z</time>
      </trkpt>
      <trkpt lat="44.48622" lon="5.72243">
        <ele>709</ele>
        <time>2020-09-16T00:05:30Z</time>
      </trkpt>
      <trkpt lat="44.48642" lon="5.72245">
        <ele>709</ele>
        <time>2020-09-16T00:05:34Z</time>
      </trkpt>
      <trkpt lat="44.48708" lon="5.72237">
        <ele>712</ele>
        <time>2020-09-16T00:05:46Z</time>
      </trkpt>
      <trkpt lat="44.48712" lon="5.72237">
        <ele>712</ele>
        <time>2020-09-16T00:05:46Z</time>
      </trkpt>
      <trkpt lat="44.48716" lon="5.72238">
        <ele>712</ele>
        <time>2020-09-16T00:05:47Z</time>
      </trkpt>
      <trkpt lat="44.4872" lon="5.72242">
        <ele>712</ele>
        <time>2020-09-16T00:05:48Z</time>
      </trkpt>
      <trkpt lat="44.48726" lon="5.72254">
        <ele>713</ele>
        <time>2020-09-16T00:05:50Z</time>
      </trkpt>
      <trkpt lat="44.48733" lon="5.72287">
        <ele>714</ele>
        <time>2020-09-16T00:05:54Z</time>
      </trkpt>
      <trkpt lat="44.48734" lon="5.72298">
        <ele>715</ele>
        <time>2020-09-16T00:05:56Z</time>
      </trkpt>
      <trkpt lat="44.48735" lon="5.72351">
        <ele>716</ele>
        <time>2020-09-16T00:06:02Z</time>
      </trkpt>
      <trkpt lat="44.48738" lon="5.72391">
        <ele>716</ele>
        <time>2020-09-16T00:06:07Z</time>
      </trkpt>
      <trkpt lat="44.4874" lon="5.72403">
        <ele>716</ele>
        <time>2020-09-16T00:06:09Z</time>
      </trkpt>
      <trkpt lat="44.48744" lon="5.72414">
        <ele>717</ele>
        <time>2020-09-16T00:06:11Z</time>
      </trkpt>
      <trkpt lat="44.48758" lon="5.72432">
        <ele>717</ele>
        <time>2020-09-16T00:06:14Z</time>
      </trkpt>
      <trkpt lat="44.48767" lon="5.72439">
        <ele>718</ele>
        <time>2020-09-16T00:06:16Z</time>
      </trkpt>
      <trkpt lat="44.48788" lon="5.72449">
        <ele>719</ele>
        <time>2020-09-16T00:06:20Z</time>
      </trkpt>
      <trkpt lat="44.48928" lon="5.72503">
        <ele>724</ele>
        <time>2020-09-16T00:06:46Z</time>
      </trkpt>
      <trkpt lat="44.4897" lon="5.72534">
        <ele>727</ele>
        <time>2020-09-16T00:06:54Z</time>
      </trkpt>
      <trkpt lat="44.4899" lon="5.72552">
        <ele>727</ele>
        <time>2020-09-16T00:06:58Z</time>
      </trkpt>
      <trkpt lat="44.49005" lon="5.72568">
        <ele>726</ele>
        <time>2020-09-16T00:07:02Z</time>
      </trkpt>
      <trkpt lat="44.49035" lon="5.72599">
        <ele>726</ele>
        <time>2020-09-16T00:07:08Z</time>
      </trkpt>
      <trkpt lat="44.49047" lon="5.72615">
        <ele>726</ele>
        <time>2020-09-16T00:07:11Z</time>
      </trkpt>
      <trkpt lat="44.49068" lon="5.72649">
        <ele>724</ele>
        <time>2020-09-16T00:07:17Z</time>
      </trkpt>
      <trkpt lat="44.49098" lon="5.72685">
        <ele>724</ele>
        <time>2020-09-16T00:07:24Z</time>
      </trkpt>
      <trkpt lat="44.49134" lon="5.72751">
        <ele>722</ele>
        <time>2020-09-16T00:07:35Z</time>
      </trkpt>
      <trkpt lat="44.49146" lon="5.72782">
        <ele>722</ele>
        <time>2020-09-16T00:07:39Z</time>
      </trkpt>
      <trkpt lat="44.49151" lon="5.72787">
        <ele>721</ele>
        <time>2020-09-16T00:07:40Z</time>
      </trkpt>
      <trkpt lat="44.49156" lon="5.7279">
        <ele>721</ele>
        <time>2020-09-16T00:07:41Z</time>
      </trkpt>
      <trkpt lat="44.49174" lon="5.72789">
        <ele>722</ele>
        <time>2020-09-16T00:07:44Z</time>
      </trkpt>
      <trkpt lat="44.49187" lon="5.72795">
        <ele>722</ele>
        <time>2020-09-16T00:07:47Z</time>
      </trkpt>
      <trkpt lat="44.4919" lon="5.72799">
        <ele>722</ele>
        <time>2020-09-16T00:07:47Z</time>
      </trkpt>
      <trkpt lat="44.49207" lon="5.72786">
        <ele>724</ele>
        <time>2020-09-16T00:07:51Z</time>
      </trkpt>
      <trkpt lat="44.49215" lon="5.72783">
        <ele>725</ele>
        <time>2020-09-16T00:07:52Z</time>
      </trkpt>
      <trkpt lat="44.49231" lon="5.72787">
        <ele>726</ele>
        <time>2020-09-16T00:07:55Z</time>
      </trkpt>
      <trkpt lat="44.49261" lon="5.72786">
        <ele>728</ele>
        <time>2020-09-16T00:08:01Z</time>
      </trkpt>
      <trkpt lat="44.49295" lon="5.72792">
        <ele>728</ele>
        <time>2020-09-16T00:08:07Z</time>
      </trkpt>
      <trkpt lat="44.49315" lon="5.72789">
        <ele>728</ele>
        <time>2020-09-16T00:08:10Z</time>
      </trkpt>
      <trkpt lat="44.49324" lon="5.72784">
        <ele>729</ele>
        <time>2020-09-16T00:08:12Z</time>
      </trkpt>
      <trkpt lat="44.49353" lon="5.72758">
        <ele>733</ele>
        <time>2020-09-16T00:08:18Z</time>
      </trkpt>
      <trkpt lat="44.4939" lon="5.72711">
        <ele>736</ele>
        <time>2020-09-16T00:08:27Z</time>
      </trkpt>
      <trkpt lat="44.4942" lon="5.72665">
        <ele>735</ele>
        <time>2020-09-16T00:08:35Z</time>
      </trkpt>
      <trkpt lat="44.49437" lon="5.72654">
        <ele>736</ele>
        <time>2020-09-16T00:08:38Z</time>
      </trkpt>
      <trkpt lat="44.49448" lon="5.72653">
        <ele>736</ele>
        <time>2020-09-16T00:08:40Z</time>
      </trkpt>
      <trkpt lat="44.49449" lon="5.72651">
        <ele>736</ele>
        <time>2020-09-16T00:08:40Z</time>
      </trkpt>
      <trkpt lat="44.49457" lon="5.72644">
        <ele>736</ele>
        <time>2020-09-16T00:08:42Z</time>
      </trkpt>
      <trkpt lat="44.49468" lon="5.72629">
        <ele>736</ele>
        <time>2020-09-16T00:08:45Z</time>
      </trkpt>
      <trkpt lat="44.49478" lon="5.72612">
        <ele>735</ele>
        <time>2020-09-16T00:08:48Z</time>
      </trkpt>
      <trkpt lat="44.49488" lon="5.72591">
        <ele>734</ele>
        <time>2020-09-16T00:08:51Z</time>
      </trkpt>
      <trkpt lat="44.49494" lon="5.72568">
        <ele>734</ele>
        <time>2020-09-16T00:08:54Z</time>
      </trkpt>
      <trkpt lat="44.49498" lon="5.72549">
        <ele>735</ele>
        <time>2020-09-16T00:08:57Z</time>
      </trkpt>
      <trkpt lat="44.49506" lon="5.72498">
        <ele>737</ele>
        <time>2020-09-16T00:09:03Z</time>
      </trkpt>
      <trkpt lat="44.49507" lon="5.7249">
        <ele>737</ele>
        <time>2020-09-16T00:09:04Z</time>
      </trkpt>
      <trkpt lat="44.4951" lon="5.72477">
        <ele>736</ele>
        <time>2020-09-16T00:09:06Z</time>
      </trkpt>
      <trkpt lat="44.49515" lon="5.72464">
        <ele>736</ele>
        <time>2020-09-16T00:09:08Z</time>
      </trkpt>
      <trkpt lat="44.49527" lon="5.72443">
        <ele>735</ele>
        <time>2020-09-16T00:09:11Z</time>
      </trkpt>
      <trkpt lat="44.49541" lon="5.72426">
        <ele>735</ele>
        <time>2020-09-16T00:09:14Z</time>
      </trkpt>
      <trkpt lat="44.49656" lon="5.72345">
        <ele>733</ele>
        <time>2020-09-16T00:09:37Z</time>
      </trkpt>
      <trkpt lat="44.498" lon="5.72212">
        <ele>738</ele>
        <time>2020-09-16T00:10:08Z</time>
      </trkpt>
      <trkpt lat="44.49859" lon="5.7216">
        <ele>733</ele>
        <time>2020-09-16T00:10:20Z</time>
      </trkpt>
      <trkpt lat="44.49889" lon="5.72142">
        <ele>733</ele>
        <time>2020-09-16T00:10:26Z</time>
      </trkpt>
      <trkpt lat="44.49904" lon="5.72135">
        <ele>733</ele>
        <time>2020-09-16T00:10:29Z</time>
      </trkpt>
      <trkpt lat="44.50017" lon="5.72094">
        <ele>730</ele>
        <time>2020-09-16T00:10:50Z</time>
      </trkpt>
      <trkpt lat="44.50033" lon="5.72086">
        <ele>729</ele>
        <time>2020-09-16T00:10:53Z</time>
      </trkpt>
      <trkpt lat="44.50049" lon="5.72076">
        <ele>730</ele>
        <time>2020-09-16T00:10:56Z</time>
      </trkpt>
      <trkpt lat="44.50064" lon="5.72063">
        <ele>730</ele>
        <time>2020-09-16T00:10:59Z</time>
      </trkpt>
      <trkpt lat="44.50215" lon="5.71921">
        <ele>735</ele>
        <time>2020-09-16T00:11:31Z</time>
      </trkpt>
      <trkpt lat="44.50251" lon="5.7189">
        <ele>737</ele>
        <time>2020-09-16T00:11:39Z</time>
      </trkpt>
      <trkpt lat="44.50289" lon="5.71864">
        <ele>736</ele>
        <time>2020-09-16T00:11:47Z</time>
      </trkpt>
      <trkpt lat="44.50457" lon="5.7176">
        <ele>738</ele>
        <time>2020-09-16T00:12:19Z</time>
      </trkpt>
      <trkpt lat="44.50475" lon="5.71746">
        <ele>738</ele>
        <time>2020-09-16T00:12:23Z</time>
      </trkpt>
      <trkpt lat="44.50509" lon="5.71712">
        <ele>737</ele>
        <time>2020-09-16T00:12:30Z</time>
      </trkpt>
      <trkpt lat="44.50575" lon="5.71631">
        <ele>737</ele>
        <time>2020-09-16T00:12:46Z</time>
      </trkpt>
      <trkpt lat="44.50581" lon="5.71624">
        <ele>737</ele>
        <time>2020-09-16T00:12:47Z</time>
      </trkpt>
      <trkpt lat="44.50657" lon="5.71527">
        <ele>738</ele>
        <time>2020-09-16T00:13:06Z</time>
      </trkpt>
      <trkpt lat="44.50738" lon="5.7143">
        <ele>740</ele>
        <time>2020-09-16T00:13:25Z</time>
      </trkpt>
      <trkpt lat="44.50975" lon="5.71132">
        <ele>743</ele>
        <time>2020-09-16T00:14:21Z</time>
      </trkpt>
      <trkpt lat="44.51069" lon="5.71017">
        <ele>747</ele>
        <time>2020-09-16T00:14:43Z</time>
      </trkpt>
      <trkpt lat="44.51098" lon="5.70977">
        <ele>748</ele>
        <time>2020-09-16T00:14:51Z</time>
      </trkpt>
      <trkpt lat="44.51112" lon="5.70955">
        <ele>748</ele>
        <time>2020-09-16T00:14:54Z</time>
      </trkpt>
      <trkpt lat="44.51124" lon="5.70932">
        <ele>749</ele>
        <time>2020-09-16T00:14:58Z</time>
      </trkpt>
      <trkpt lat="44.51254" lon="5.70661">
        <ele>751</ele>
        <time>2020-09-16T00:15:39Z</time>
      </trkpt>
      <trkpt lat="44.51293" lon="5.70582">
        <ele>753</ele>
        <time>2020-09-16T00:15:52Z</time>
      </trkpt>
      <trkpt lat="44.51354" lon="5.70459">
        <ele>755</ele>
        <time>2020-09-16T00:16:11Z</time>
      </trkpt>
      <trkpt lat="44.51424" lon="5.70318">
        <ele>759</ele>
        <time>2020-09-16T00:16:32Z</time>
      </trkpt>
      <trkpt lat="44.51446" lon="5.70275">
        <ele>761</ele>
        <time>2020-09-16T00:16:39Z</time>
      </trkpt>
      <trkpt lat="44.5149" lon="5.70181">
        <ele>761</ele>
        <time>2020-09-16T00:16:53Z</time>
      </trkpt>
      <trkpt lat="44.51556" lon="5.70048">
        <ele>762</ele>
        <time>2020-09-16T00:17:14Z</time>
      </trkpt>
      <trkpt lat="44.51577" lon="5.7001">
        <ele>762</ele>
        <time>2020-09-16T00:17:20Z</time>
      </trkpt>
      <trkpt lat="44.51589" lon="5.69995">
        <ele>762</ele>
        <time>2020-09-16T00:17:23Z</time>
      </trkpt>
      <trkpt lat="44.51602" lon="5.69982">
        <ele>762</ele>
        <time>2020-09-16T00:17:26Z</time>
      </trkpt>
      <trkpt lat="44.51616" lon="5.69972">
        <ele>763</ele>
        <time>2020-09-16T00:17:29Z</time>
      </trkpt>
      <trkpt lat="44.51647" lon="5.6996">
        <ele>764</ele>
        <time>2020-09-16T00:17:34Z</time>
      </trkpt>
      <trkpt lat="44.51685" lon="5.69953">
        <ele>765</ele>
        <time>2020-09-16T00:17:41Z</time>
      </trkpt>
      <trkpt lat="44.5169" lon="5.69952">
        <ele>765</ele>
        <time>2020-09-16T00:17:42Z</time>
      </trkpt>
      <trkpt lat="44.5171" lon="5.69948">
        <ele>765</ele>
        <time>2020-09-16T00:17:46Z</time>
      </trkpt>
      <trkpt lat="44.51713" lon="5.69947">
        <ele>765</ele>
        <time>2020-09-16T00:17:46Z</time>
      </trkpt>
      <trkpt lat="44.51771" lon="5.69937">
        <ele>767</ele>
        <time>2020-09-16T00:17:57Z</time>
      </trkpt>
      <trkpt lat="44.51928" lon="5.69907">
        <ele>773</ele>
        <time>2020-09-16T00:18:25Z</time>
      </trkpt>
      <trkpt lat="44.51963" lon="5.699">
        <ele>774</ele>
        <time>2020-09-16T00:18:31Z</time>
      </trkpt>
      <trkpt lat="44.51973" lon="5.69898">
        <ele>774</ele>
        <time>2020-09-16T00:18:33Z</time>
      </trkpt>
      <trkpt lat="44.51974" lon="5.69897">
        <ele>774</ele>
        <time>2020-09-16T00:18:33Z</time>
      </trkpt>
      <trkpt lat="44.51981" lon="5.69896">
        <ele>774</ele>
        <time>2020-09-16T00:18:34Z</time>
      </trkpt>
      <trkpt lat="44.52006" lon="5.69895">
        <ele>775</ele>
        <time>2020-09-16T00:18:39Z</time>
      </trkpt>
      <trkpt lat="44.52013" lon="5.69897">
        <ele>775</ele>
        <time>2020-09-16T00:18:40Z</time>
      </trkpt>
      <trkpt lat="44.5202" lon="5.69901">
        <ele>775</ele>
        <time>2020-09-16T00:18:41Z</time>
      </trkpt>
      <trkpt lat="44.52037" lon="5.6992">
        <ele>775</ele>
        <time>2020-09-16T00:18:45Z</time>
      </trkpt>
      <trkpt lat="44.52055" lon="5.69943">
        <ele>776</ele>
        <time>2020-09-16T00:18:50Z</time>
      </trkpt>
      <trkpt lat="44.52075" lon="5.6997">
        <ele>776</ele>
        <time>2020-09-16T00:18:54Z</time>
      </trkpt>
      <trkpt lat="44.52117" lon="5.70022">
        <ele>779</ele>
        <time>2020-09-16T00:19:04Z</time>
      </trkpt>
      <trkpt lat="44.52119" lon="5.70025">
        <ele>779</ele>
        <time>2020-09-16T00:19:05Z</time>
      </trkpt>
      <trkpt lat="44.52116" lon="5.70031">
        <ele>779</ele>
        <time>2020-09-16T00:19:06Z</time>
      </trkpt>
      <trkpt lat="44.52035" lon="5.70177">
        <ele>780</ele>
        <time>2020-09-16T00:19:29Z</time>
      </trkpt>
      <trkpt lat="44.52014" lon="5.70235">
        <ele>781</ele>
        <time>2020-09-16T00:19:38Z</time>
      </trkpt>
      <trkpt lat="44.51995" lon="5.70295">
        <ele>781</ele>
        <time>2020-09-16T00:19:46Z</time>
      </trkpt>
      <trkpt lat="44.51991" lon="5.70316">
        <ele>782</ele>
        <time>2020-09-16T00:19:49Z</time>
      </trkpt>
      <trkpt lat="44.51988" lon="5.70339">
        <ele>782</ele>
        <time>2020-09-16T00:19:52Z</time>
      </trkpt>
      <trkpt lat="44.51988" lon="5.70386">
        <ele>783</ele>
        <time>2020-09-16T00:19:58Z</time>
      </trkpt>
      <trkpt lat="44.51998" lon="5.70641">
        <ele>791</ele>
        <time>2020-09-16T00:20:30Z</time>
      </trkpt>
      <trkpt lat="44.52001" lon="5.707">
        <ele>793</ele>
        <time>2020-09-16T00:20:38Z</time>
      </trkpt>
      <trkpt lat="44.52" lon="5.70714">
        <ele>794</ele>
        <time>2020-09-16T00:20:39Z</time>
      </trkpt>
      <trkpt lat="44.51993" lon="5.7074">
        <ele>795</ele>
        <time>2020-09-16T00:20:43Z</time>
      </trkpt>
      <trkpt lat="44.51985" lon="5.70753">
        <ele>795</ele>
        <time>2020-09-16T00:20:45Z</time>
      </trkpt>
      <trkpt lat="44.51937" lon="5.70805">
        <ele>798</ele>
        <time>2020-09-16T00:20:56Z</time>
      </trkpt>
      <trkpt lat="44.51926" lon="5.7082">
        <ele>799</ele>
        <time>2020-09-16T00:20:59Z</time>
      </trkpt>
      <trkpt lat="44.51919" lon="5.70836">
        <ele>800</ele>
        <time>2020-09-16T00:21:01Z</time>
      </trkpt>
      <trkpt lat="44.51913" lon="5.70852">
        <ele>801</ele>
        <time>2020-09-16T00:21:03Z</time>
      </trkpt>
      <trkpt lat="44.51896" lon="5.70907">
        <ele>802</ele>
        <time>2020-09-16T00:21:11Z</time>
      </trkpt>
      <trkpt lat="44.51658" lon="5.71662">
        <ele>798</ele>
        <time>2020-09-16T00:22:56Z</time>
      </trkpt>
      <trkpt lat="44.51595" lon="5.71862">
        <ele>803</ele>
        <time>2020-09-16T00:23:23Z</time>
      </trkpt>
      <trkpt lat="44.51583" lon="5.71906">
        <ele>802</ele>
        <time>2020-09-16T00:23:29Z</time>
      </trkpt>
      <trkpt lat="44.51578" lon="5.71941">
        <ele>801</ele>
        <time>2020-09-16T00:23:34Z</time>
      </trkpt>
      <trkpt lat="44.51575" lon="5.72025">
        <ele>798</ele>
        <time>2020-09-16T00:23:44Z</time>
      </trkpt>
      <trkpt lat="44.51576" lon="5.72054">
        <ele>795</ele>
        <time>2020-09-16T00:23:48Z</time>
      </trkpt>
      <trkpt lat="44.5158" lon="5.72077">
        <ele>793</ele>
        <time>2020-09-16T00:23:51Z</time>
      </trkpt>
      <trkpt lat="44.51587" lon="5.72095">
        <ele>792</ele>
        <time>2020-09-16T00:23:54Z</time>
      </trkpt>
      <trkpt lat="44.51597" lon="5.72113">
        <ele>790</ele>
        <time>2020-09-16T00:23:57Z</time>
      </trkpt>
      <trkpt lat="44.51628" lon="5.72147">
        <ele>787</ele>
        <time>2020-09-16T00:24:04Z</time>
      </trkpt>
      <trkpt lat="44.51641" lon="5.72168">
        <ele>785</ele>
        <time>2020-09-16T00:24:07Z</time>
      </trkpt>
      <trkpt lat="44.51651" lon="5.72194">
        <ele>786</ele>
        <time>2020-09-16T00:24:11Z</time>
      </trkpt>
      <trkpt lat="44.51653" lon="5.72211">
        <ele>786</ele>
        <time>2020-09-16T00:24:13Z</time>
      </trkpt>
      <trkpt lat="44.51653" lon="5.72241">
        <ele>787</ele>
        <time>2020-09-16T00:24:17Z</time>
      </trkpt>
      <trkpt lat="44.51639" lon="5.723">
        <ele>789</ele>
        <time>2020-09-16T00:24:25Z</time>
      </trkpt>
      <trkpt lat="44.51636" lon="5.72326">
        <ele>790</ele>
        <time>2020-09-16T00:24:28Z</time>
      </trkpt>
      <trkpt lat="44.51634" lon="5.72372">
        <ele>793</ele>
        <time>2020-09-16T00:24:34Z</time>
      </trkpt>
      <trkpt lat="44.51632" lon="5.72388">
        <ele>794</ele>
        <time>2020-09-16T00:24:36Z</time>
      </trkpt>
      <trkpt lat="44.51627" lon="5.72411">
        <ele>796</ele>
        <time>2020-09-16T00:24:39Z</time>
      </trkpt>
      <trkpt lat="44.51625" lon="5.72415">
        <ele>796</ele>
        <time>2020-09-16T00:24:40Z</time>
      </trkpt>
      <trkpt lat="44.51623" lon="5.72421">
        <ele>796</ele>
        <time>2020-09-16T00:24:41Z</time>
      </trkpt>
      <trkpt lat="44.51607" lon="5.72455">
        <ele>799</ele>
        <time>2020-09-16T00:24:46Z</time>
      </trkpt>
      <trkpt lat="44.51568" lon="5.72518">
        <ele>800</ele>
        <time>2020-09-16T00:24:56Z</time>
      </trkpt>
      <trkpt lat="44.51564" lon="5.72526">
        <ele>800</ele>
        <time>2020-09-16T00:24:58Z</time>
      </trkpt>
      <trkpt lat="44.51562" lon="5.72531">
        <ele>800</ele>
        <time>2020-09-16T00:24:58Z</time>
      </trkpt>
      <trkpt lat="44.51556" lon="5.72552">
        <ele>801</ele>
        <time>2020-09-16T00:25:01Z</time>
      </trkpt>
      <trkpt lat="44.51554" lon="5.72578">
        <ele>803</ele>
        <time>2020-09-16T00:25:04Z</time>
      </trkpt>
      <trkpt lat="44.5156" lon="5.72606">
        <ele>803</ele>
        <time>2020-09-16T00:25:08Z</time>
      </trkpt>
      <trkpt lat="44.51567" lon="5.72621">
        <ele>802</ele>
        <time>2020-09-16T00:25:10Z</time>
      </trkpt>
      <trkpt lat="44.51575" lon="5.72632">
        <ele>802</ele>
        <time>2020-09-16T00:25:12Z</time>
      </trkpt>
      <trkpt lat="44.51579" lon="5.72635">
        <ele>802</ele>
        <time>2020-09-16T00:25:13Z</time>
      </trkpt>
      <trkpt lat="44.51585" lon="5.72639">
        <ele>802</ele>
        <time>2020-09-16T00:25:14Z</time>
      </trkpt>
      <trkpt lat="44.51596" lon="5.72644">
        <ele>801</ele>
        <time>2020-09-16T00:25:17Z</time>
      </trkpt>
      <trkpt lat="44.5161" lon="5.72646">
        <ele>801</ele>
        <time>2020-09-16T00:25:19Z</time>
      </trkpt>
      <trkpt lat="44.51663" lon="5.72639">
        <ele>804</ele>
        <time>2020-09-16T00:25:28Z</time>
      </trkpt>
      <trkpt lat="44.51677" lon="5.7264">
        <ele>804</ele>
        <time>2020-09-16T00:25:31Z</time>
      </trkpt>
      <trkpt lat="44.51696" lon="5.72646">
        <ele>803</ele>
        <time>2020-09-16T00:25:34Z</time>
      </trkpt>
      <trkpt lat="44.51716" lon="5.72657">
        <ele>802</ele>
        <time>2020-09-16T00:25:38Z</time>
      </trkpt>
      <trkpt lat="44.51855" lon="5.72755">
        <ele>799</ele>
        <time>2020-09-16T00:26:06Z</time>
      </trkpt>
      <trkpt lat="44.51878" lon="5.72778">
        <ele>799</ele>
        <time>2020-09-16T00:26:11Z</time>
      </trkpt>
      <trkpt lat="44.51888" lon="5.72793">
        <ele>798</ele>
        <time>2020-09-16T00:26:14Z</time>
      </trkpt>
      <trkpt lat="44.51925" lon="5.72861">
        <ele>800</ele>
        <time>2020-09-16T00:26:24Z</time>
      </trkpt>
      <trkpt lat="44.51935" lon="5.72875">
        <ele>802</ele>
        <time>2020-09-16T00:26:27Z</time>
      </trkpt>
      <trkpt lat="44.51945" lon="5.72886">
        <ele>803</ele>
        <time>2020-09-16T00:26:29Z</time>
      </trkpt>
      <trkpt lat="44.51957" lon="5.72892">
        <ele>804</ele>
        <time>2020-09-16T00:26:31Z</time>
      </trkpt>
      <trkpt lat="44.5197" lon="5.72895">
        <ele>805</ele>
        <time>2020-09-16T00:26:34Z</time>
      </trkpt>
      <trkpt lat="44.51983" lon="5.72894">
        <ele>806</ele>
        <time>2020-09-16T00:26:36Z</time>
      </trkpt>
      <trkpt lat="44.52006" lon="5.72892">
        <ele>808</ele>
        <time>2020-09-16T00:26:40Z</time>
      </trkpt>
      <trkpt lat="44.52106" lon="5.72883">
        <ele>814</ele>
        <time>2020-09-16T00:26:58Z</time>
      </trkpt>
      <trkpt lat="44.52191" lon="5.72877">
        <ele>818</ele>
        <time>2020-09-16T00:27:13Z</time>
      </trkpt>
      <trkpt lat="44.52205" lon="5.72878">
        <ele>819</ele>
        <time>2020-09-16T00:27:16Z</time>
      </trkpt>
      <trkpt lat="44.52214" lon="5.7288">
        <ele>819</ele>
        <time>2020-09-16T00:27:17Z</time>
      </trkpt>
      <trkpt lat="44.52218" lon="5.72881">
        <ele>820</ele>
        <time>2020-09-16T00:27:18Z</time>
      </trkpt>
      <trkpt lat="44.52232" lon="5.72887">
        <ele>820</ele>
        <time>2020-09-16T00:27:21Z</time>
      </trkpt>
      <trkpt lat="44.52246" lon="5.72896">
        <ele>821</ele>
        <time>2020-09-16T00:27:23Z</time>
      </trkpt>
      <trkpt lat="44.52258" lon="5.72908">
        <ele>821</ele>
        <time>2020-09-16T00:27:26Z</time>
      </trkpt>
      <trkpt lat="44.52268" lon="5.72923">
        <ele>820</ele>
        <time>2020-09-16T00:27:29Z</time>
      </trkpt>
      <trkpt lat="44.52277" lon="5.7294">
        <ele>820</ele>
        <time>2020-09-16T00:27:31Z</time>
      </trkpt>
      <trkpt lat="44.52284" lon="5.72961">
        <ele>820</ele>
        <time>2020-09-16T00:27:34Z</time>
      </trkpt>
      <trkpt lat="44.52288" lon="5.72983">
        <ele>820</ele>
        <time>2020-09-16T00:27:37Z</time>
      </trkpt>
      <trkpt lat="44.52355" lon="5.73793">
        <ele>797</ele>
        <time>2020-09-16T00:29:21Z</time>
      </trkpt>
      <trkpt lat="44.52389" lon="5.74199">
        <ele>796</ele>
        <time>2020-09-16T00:30:12Z</time>
      </trkpt>
      <trkpt lat="44.52419" lon="5.74559">
        <ele>790</ele>
        <time>2020-09-16T00:30:58Z</time>
      </trkpt>
      <trkpt lat="44.52422" lon="5.74598">
        <ele>789</ele>
        <time>2020-09-16T00:31:03Z</time>
      </trkpt>
      <trkpt lat="44.52426" lon="5.74637">
        <ele>788</ele>
        <time>2020-09-16T00:31:08Z</time>
      </trkpt>
      <trkpt lat="44.52427" lon="5.74657">
        <ele>788</ele>
        <time>2020-09-16T00:31:11Z</time>
      </trkpt>
      <trkpt lat="44.52426" lon="5.74673">
        <ele>787</ele>
        <time>2020-09-16T00:31:13Z</time>
      </trkpt>
      <trkpt lat="44.52425" lon="5.74677">
        <ele>787</ele>
        <time>2020-09-16T00:31:13Z</time>
      </trkpt>
      <trkpt lat="44.52422" lon="5.74693">
        <ele>787</ele>
        <time>2020-09-16T00:31:16Z</time>
      </trkpt>
      <trkpt lat="44.524" lon="5.74743">
        <ele>786</ele>
        <time>2020-09-16T00:31:23Z</time>
      </trkpt>
      <trkpt lat="44.5239" lon="5.74761">
        <ele>786</ele>
        <time>2020-09-16T00:31:26Z</time>
      </trkpt>
      <trkpt lat="44.52387" lon="5.74765">
        <ele>786</ele>
        <time>2020-09-16T00:31:27Z</time>
      </trkpt>
      <trkpt lat="44.5238" lon="5.74773">
        <ele>785</ele>
        <time>2020-09-16T00:31:28Z</time>
      </trkpt>
      <trkpt lat="44.52376" lon="5.74775">
        <ele>785</ele>
        <time>2020-09-16T00:31:29Z</time>
      </trkpt>
      <trkpt lat="44.52375" lon="5.74793">
        <ele>785</ele>
        <time>2020-09-16T00:31:31Z</time>
      </trkpt>
      <trkpt lat="44.52369" lon="5.74811">
        <ele>784</ele>
        <time>2020-09-16T00:31:34Z</time>
      </trkpt>
      <trkpt lat="44.52316" lon="5.74919">
        <ele>783</ele>
        <time>2020-09-16T00:31:50Z</time>
      </trkpt>
      <trkpt lat="44.52305" lon="5.74954">
        <ele>783</ele>
        <time>2020-09-16T00:31:55Z</time>
      </trkpt>
      <trkpt lat="44.52296" lon="5.74991">
        <ele>785</ele>
        <time>2020-09-16T00:32:00Z</time>
      </trkpt>
      <trkpt lat="44.52288" lon="5.75056">
        <ele>784</ele>
        <time>2020-09-16T00:32:09Z</time>
      </trkpt>
      <trkpt lat="44.5228" lon="5.75102">
        <ele>783</ele>
        <time>2020-09-16T00:32:15Z</time>
      </trkpt>
      <trkpt lat="44.52268" lon="5.75136">
        <ele>780</ele>
        <time>2020-09-16T00:32:19Z</time>
      </trkpt>
      <trkpt lat="44.52254" lon="5.75169">
        <ele>778</ele>
        <time>2020-09-16T00:32:24Z</time>
      </trkpt>
      <trkpt lat="44.52247" lon="5.75175">
        <ele>777</ele>
        <time>2020-09-16T00:32:26Z</time>
      </trkpt>
      <trkpt lat="44.52242" lon="5.75183">
        <ele>776</ele>
        <time>2020-09-16T00:32:27Z</time>
      </trkpt>
      <trkpt lat="44.52236" lon="5.75208">
        <ele>774</ele>
        <time>2020-09-16T00:32:31Z</time>
      </trkpt>
      <trkpt lat="44.52227" lon="5.75224">
        <ele>773</ele>
        <time>2020-09-16T00:32:33Z</time>
      </trkpt>
      <trkpt lat="44.52217" lon="5.75261">
        <ele>771</ele>
        <time>2020-09-16T00:32:38Z</time>
      </trkpt>
      <trkpt lat="44.5222" lon="5.75276">
        <ele>771</ele>
        <time>2020-09-16T00:32:40Z</time>
      </trkpt>
      <trkpt lat="44.52221" lon="5.75292">
        <ele>771</ele>
        <time>2020-09-16T00:32:42Z</time>
      </trkpt>
      <trkpt lat="44.52225" lon="5.75381">
        <ele>770</ele>
        <time>2020-09-16T00:32:53Z</time>
      </trkpt>
      <trkpt lat="44.52229" lon="5.75404">
        <ele>770</ele>
        <time>2020-09-16T00:32:56Z</time>
      </trkpt>
      <trkpt lat="44.52235" lon="5.75424">
        <ele>770</ele>
        <time>2020-09-16T00:32:59Z</time>
      </trkpt>
      <trkpt lat="44.52251" lon="5.75464">
        <ele>771</ele>
        <time>2020-09-16T00:33:05Z</time>
      </trkpt>
      <trkpt lat="44.52273" lon="5.75529">
        <ele>771</ele>
        <time>2020-09-16T00:33:14Z</time>
      </trkpt>
      <trkpt lat="44.52308" lon="5.75627">
        <ele>767</ele>
        <time>2020-09-16T00:33:28Z</time>
      </trkpt>
      <trkpt lat="44.52327" lon="5.75667">
        <ele>766</ele>
        <time>2020-09-16T00:33:34Z</time>
      </trkpt>
      <trkpt lat="44.52361" lon="5.75727">
        <ele>769</ele>
        <time>2020-09-16T00:33:44Z</time>
      </trkpt>
      <trkpt lat="44.52391" lon="5.75783">
        <ele>769</ele>
        <time>2020-09-16T00:33:53Z</time>
      </trkpt>
      <trkpt lat="44.52411" lon="5.75822">
        <ele>766</ele>
        <time>2020-09-16T00:33:59Z</time>
      </trkpt>
      <trkpt lat="44.52453" lon="5.75897">
        <ele>766</ele>
        <time>2020-09-16T00:34:11Z</time>
      </trkpt>
      <trkpt lat="44.52547" lon="5.76074">
        <ele>762</ele>
        <time>2020-09-16T00:34:39Z</time>
      </trkpt>
      <trkpt lat="44.52619" lon="5.76208">
        <ele>763</ele>
        <time>2020-09-16T00:35:00Z</time>
      </trkpt>
      <trkpt lat="44.52686" lon="5.76337">
        <ele>765</ele>
        <time>2020-09-16T00:35:20Z</time>
      </trkpt>
      <trkpt lat="44.52702" lon="5.76366">
        <ele>766</ele>
        <time>2020-09-16T00:35:25Z</time>
      </trkpt>
      <trkpt lat="44.52731" lon="5.76423">
        <ele>766</ele>
        <time>2020-09-16T00:35:34Z</time>
      </trkpt>
      <trkpt lat="44.52746" lon="5.76451">
        <ele>766</ele>
        <time>2020-09-16T00:35:38Z</time>
      </trkpt>
      <trkpt lat="44.52774" lon="5.76509">
        <ele>765</ele>
        <time>2020-09-16T00:35:47Z</time>
      </trkpt>
      <trkpt lat="44.52785" lon="5.76531">
        <ele>765</ele>
        <time>2020-09-16T00:35:51Z</time>
      </trkpt>
      <trkpt lat="44.52842" lon="5.7665">
        <ele>768</ele>
        <time>2020-09-16T00:36:09Z</time>
      </trkpt>
      <trkpt lat="44.52867" lon="5.76698">
        <ele>768</ele>
        <time>2020-09-16T00:36:16Z</time>
      </trkpt>
      <trkpt lat="44.52906" lon="5.76763">
        <ele>768</ele>
        <time>2020-09-16T00:36:27Z</time>
      </trkpt>
      <trkpt lat="44.53222" lon="5.77185">
        <ele>773</ele>
        <time>2020-09-16T00:37:45Z</time>
      </trkpt>
      <trkpt lat="44.53385" lon="5.774">
        <ele>776</ele>
        <time>2020-09-16T00:38:25Z</time>
      </trkpt>
      <trkpt lat="44.53441" lon="5.77477">
        <ele>776</ele>
        <time>2020-09-16T00:38:39Z</time>
      </trkpt>
      <trkpt lat="44.53465" lon="5.77505">
        <ele>776</ele>
        <time>2020-09-16T00:38:44Z</time>
      </trkpt>
      <trkpt lat="44.53485" lon="5.77521">
        <ele>776</ele>
        <time>2020-09-16T00:38:48Z</time>
      </trkpt>
      <trkpt lat="44.53664" lon="5.77609">
        <ele>778</ele>
        <time>2020-09-16T00:39:22Z</time>
      </trkpt>
      <trkpt lat="44.53771" lon="5.77661">
        <ele>780</ele>
        <time>2020-09-16T00:39:42Z</time>
      </trkpt>
      <trkpt lat="44.53843" lon="5.77696">
        <ele>782</ele>
        <time>2020-09-16T00:39:56Z</time>
      </trkpt>
      <trkpt lat="44.5389" lon="5.77719">
        <ele>783</ele>
        <time>2020-09-16T00:40:05Z</time>
      </trkpt>
      <trkpt lat="44.53984" lon="5.77762">
        <ele>784</ele>
        <time>2020-09-16T00:40:22Z</time>
      </trkpt>
      <trkpt lat="44.54041" lon="5.77786">
        <ele>784</ele>
        <time>2020-09-16T00:40:33Z</time>
      </trkpt>
      <trkpt lat="44.54053" lon="5.77794">
        <ele>784</ele>
        <time>2020-09-16T00:40:35Z</time>
      </trkpt>
      <trkpt lat="44.54061" lon="5.77805">
        <ele>784</ele>
        <time>2020-09-16T00:40:37Z</time>
      </trkpt>
      <trkpt lat="44.54066" lon="5.77813">
        <ele>784</ele>
        <time>2020-09-16T00:40:38Z</time>
      </trkpt>
      <trkpt lat="44.54069" lon="5.77818">
        <ele>784</ele>
        <time>2020-09-16T00:40:39Z</time>
      </trkpt>
      <trkpt lat="44.54089" lon="5.77857">
        <ele>784</ele>
        <time>2020-09-16T00:40:45Z</time>
      </trkpt>
      <trkpt lat="44.54098" lon="5.77867">
        <ele>784</ele>
        <time>2020-09-16T00:40:47Z</time>
      </trkpt>
      <trkpt lat="44.54108" lon="5.77878">
        <ele>785</ele>
        <time>2020-09-16T00:40:50Z</time>
      </trkpt>
      <trkpt lat="44.5412" lon="5.77885">
        <ele>785</ele>
        <time>2020-09-16T00:40:52Z</time>
      </trkpt>
      <trkpt lat="44.54146" lon="5.77894">
        <ele>785</ele>
        <time>2020-09-16T00:40:57Z</time>
      </trkpt>
      <trkpt lat="44.54172" lon="5.77892">
        <ele>785</ele>
        <time>2020-09-16T00:41:01Z</time>
      </trkpt>
      <trkpt lat="44.54185" lon="5.77886">
        <ele>785</ele>
        <time>2020-09-16T00:41:04Z</time>
      </trkpt>
      <trkpt lat="44.5419" lon="5.77884">
        <ele>785</ele>
        <time>2020-09-16T00:41:05Z</time>
      </trkpt>
      <trkpt lat="44.54198" lon="5.7788">
        <ele>785</ele>
        <time>2020-09-16T00:41:06Z</time>
      </trkpt>
      <trkpt lat="44.54208" lon="5.77874">
        <ele>785</ele>
        <time>2020-09-16T00:41:08Z</time>
      </trkpt>
      <trkpt lat="44.54263" lon="5.77842">
        <ele>787</ele>
        <time>2020-09-16T00:41:19Z</time>
      </trkpt>
      <trkpt lat="44.54316" lon="5.77811">
        <ele>788</ele>
        <time>2020-09-16T00:41:29Z</time>
      </trkpt>
      <trkpt lat="44.54353" lon="5.77792">
        <ele>790</ele>
        <time>2020-09-16T00:41:36Z</time>
      </trkpt>
      <trkpt lat="44.5437" lon="5.77785">
        <ele>792</ele>
        <time>2020-09-16T00:41:39Z</time>
      </trkpt>
      <trkpt lat="44.54389" lon="5.7778">
        <ele>793</ele>
        <time>2020-09-16T00:41:43Z</time>
      </trkpt>
      <trkpt lat="44.54409" lon="5.77779">
        <ele>793</ele>
        <time>2020-09-16T00:41:46Z</time>
      </trkpt>
      <trkpt lat="44.54429" lon="5.77781">
        <ele>794</ele>
        <time>2020-09-16T00:41:50Z</time>
      </trkpt>
      <trkpt lat="44.54469" lon="5.7779">
        <ele>796</ele>
        <time>2020-09-16T00:41:57Z</time>
      </trkpt>
      <trkpt lat="44.54589" lon="5.77838">
        <ele>796</ele>
        <time>2020-09-16T00:42:19Z</time>
      </trkpt>
      <trkpt lat="44.54628" lon="5.77851">
        <ele>796</ele>
        <time>2020-09-16T00:42:26Z</time>
      </trkpt>
      <trkpt lat="44.54647" lon="5.77853">
        <ele>796</ele>
        <time>2020-09-16T00:42:30Z</time>
      </trkpt>
      <trkpt lat="44.54666" lon="5.77851">
        <ele>797</ele>
        <time>2020-09-16T00:42:33Z</time>
      </trkpt>
      <trkpt lat="44.54704" lon="5.77843">
        <ele>797</ele>
        <time>2020-09-16T00:42:40Z</time>
      </trkpt>
      <trkpt lat="44.54857" lon="5.77801">
        <ele>802</ele>
        <time>2020-09-16T00:43:08Z</time>
      </trkpt>
      <trkpt lat="44.54894" lon="5.77788">
        <ele>802</ele>
        <time>2020-09-16T00:43:14Z</time>
      </trkpt>
      <trkpt lat="44.5491" lon="5.77777">
        <ele>802</ele>
        <time>2020-09-16T00:43:18Z</time>
      </trkpt>
      <trkpt lat="44.5494" lon="5.7775">
        <ele>802</ele>
        <time>2020-09-16T00:43:24Z</time>
      </trkpt>
      <trkpt lat="44.5501" lon="5.7767">
        <ele>807</ele>
        <time>2020-09-16T00:43:40Z</time>
      </trkpt>
      <trkpt lat="44.55039" lon="5.77642">
        <ele>810</ele>
        <time>2020-09-16T00:43:46Z</time>
      </trkpt>
      <trkpt lat="44.5505" lon="5.77635">
        <ele>810</ele>
        <time>2020-09-16T00:43:48Z</time>
      </trkpt>
      <trkpt lat="44.55059" lon="5.77628">
        <ele>809</ele>
        <time>2020-09-16T00:43:50Z</time>
      </trkpt>
      <trkpt lat="44.55073" lon="5.77621">
        <ele>807</ele>
        <time>2020-09-16T00:43:53Z</time>
      </trkpt>
      <trkpt lat="44.55097" lon="5.77611">
        <ele>806</ele>
        <time>2020-09-16T00:43:57Z</time>
      </trkpt>
      <trkpt lat="44.5511" lon="5.77607">
        <ele>806</ele>
        <time>2020-09-16T00:44:00Z</time>
      </trkpt>
      <trkpt lat="44.55147" lon="5.77594">
        <ele>806</ele>
        <time>2020-09-16T00:44:07Z</time>
      </trkpt>
      <trkpt lat="44.55154" lon="5.77591">
        <ele>806</ele>
        <time>2020-09-16T00:44:08Z</time>
      </trkpt>
      <trkpt lat="44.55164" lon="5.77582">
        <ele>805</ele>
        <time>2020-09-16T00:44:10Z</time>
      </trkpt>
      <trkpt lat="44.55174" lon="5.77565">
        <ele>809</ele>
        <time>2020-09-16T00:44:13Z</time>
      </trkpt>
      <trkpt lat="44.55187" lon="5.7752">
        <ele>817</ele>
        <time>2020-09-16T00:44:19Z</time>
      </trkpt>
      <trkpt lat="44.55194" lon="5.77485">
        <ele>820</ele>
        <time>2020-09-16T00:44:24Z</time>
      </trkpt>
      <trkpt lat="44.55198" lon="5.77441">
        <ele>821</ele>
        <time>2020-09-16T00:44:29Z</time>
      </trkpt>
      <trkpt lat="44.55196" lon="5.77417">
        <ele>820</ele>
        <time>2020-09-16T00:44:32Z</time>
      </trkpt>
      <trkpt lat="44.55192" lon="5.77392">
        <ele>820</ele>
        <time>2020-09-16T00:44:35Z</time>
      </trkpt>
      <trkpt lat="44.55194" lon="5.77371">
        <ele>821</ele>
        <time>2020-09-16T00:44:38Z</time>
      </trkpt>
      <trkpt lat="44.55199" lon="5.77355">
        <ele>822</ele>
        <time>2020-09-16T00:44:40Z</time>
      </trkpt>
      <trkpt lat="44.55217" lon="5.7732">
        <ele>823</ele>
        <time>2020-09-16T00:44:46Z</time>
      </trkpt>
      <trkpt lat="44.55227" lon="5.77296">
        <ele>821</ele>
        <time>2020-09-16T00:44:49Z</time>
      </trkpt>
      <trkpt lat="44.55321" lon="5.76756">
        <ele>810</ele>
        <time>2020-09-16T00:46:00Z</time>
      </trkpt>
      <trkpt lat="44.5533" lon="5.76728">
        <ele>809</ele>
        <time>2020-09-16T00:46:04Z</time>
      </trkpt>
      <trkpt lat="44.55342" lon="5.76709">
        <ele>809</ele>
        <time>2020-09-16T00:46:07Z</time>
      </trkpt>
      <trkpt lat="44.55358" lon="5.76694">
        <ele>809</ele>
        <time>2020-09-16T00:46:10Z</time>
      </trkpt>
      <trkpt lat="44.55374" lon="5.76685">
        <ele>809</ele>
        <time>2020-09-16T00:46:13Z</time>
      </trkpt>
      <trkpt lat="44.55392" lon="5.76683">
        <ele>809</ele>
        <time>2020-09-16T00:46:17Z</time>
      </trkpt>
      <trkpt lat="44.55404" lon="5.76684">
        <ele>810</ele>
        <time>2020-09-16T00:46:19Z</time>
      </trkpt>
      <trkpt lat="44.55426" lon="5.76692">
        <ele>811</ele>
        <time>2020-09-16T00:46:23Z</time>
      </trkpt>
      <trkpt lat="44.55499" lon="5.76722">
        <ele>807</ele>
        <time>2020-09-16T00:46:36Z</time>
      </trkpt>
      <trkpt lat="44.5552" lon="5.76729">
        <ele>807</ele>
        <time>2020-09-16T00:46:40Z</time>
      </trkpt>
      <trkpt lat="44.55558" lon="5.76734">
        <ele>809</ele>
        <time>2020-09-16T00:46:47Z</time>
      </trkpt>
      <trkpt lat="44.55577" lon="5.7673">
        <ele>810</ele>
        <time>2020-09-16T00:46:50Z</time>
      </trkpt>
      <trkpt lat="44.55614" lon="5.7671">
        <ele>812</ele>
        <time>2020-09-16T00:46:57Z</time>
      </trkpt>
      <trkpt lat="44.55694" lon="5.76644">
        <ele>815</ele>
        <time>2020-09-16T00:47:14Z</time>
      </trkpt>
      <trkpt lat="44.55727" lon="5.76624">
        <ele>817</ele>
        <time>2020-09-16T00:47:20Z</time>
      </trkpt>
      <trkpt lat="44.55767" lon="5.76611">
        <ele>817</ele>
        <time>2020-09-16T00:47:28Z</time>
      </trkpt>
      <trkpt lat="44.56011" lon="5.76552">
        <ele>817</ele>
        <time>2020-09-16T00:48:12Z</time>
      </trkpt>
      <trkpt lat="44.56037" lon="5.76544">
        <ele>820</ele>
        <time>2020-09-16T00:48:16Z</time>
      </trkpt>
      <trkpt lat="44.56063" lon="5.76528">
        <ele>821</ele>
        <time>2020-09-16T00:48:22Z</time>
      </trkpt>
      <trkpt lat="44.56084" lon="5.76505">
        <ele>817</ele>
        <time>2020-09-16T00:48:26Z</time>
      </trkpt>
      <trkpt lat="44.56386" lon="5.76038">
        <ele>820</ele>
        <time>2020-09-16T00:49:46Z</time>
      </trkpt>
      <trkpt lat="44.56401" lon="5.76017">
        <ele>820</ele>
        <time>2020-09-16T00:49:50Z</time>
      </trkpt>
      <trkpt lat="44.56428" lon="5.75988">
        <ele>822</ele>
        <time>2020-09-16T00:49:56Z</time>
      </trkpt>
      <trkpt lat="44.56443" lon="5.75969">
        <ele>826</ele>
        <time>2020-09-16T00:50:00Z</time>
      </trkpt>
      <trkpt lat="44.56504" lon="5.75844">
        <ele>827</ele>
        <time>2020-09-16T00:50:19Z</time>
      </trkpt>
      <trkpt lat="44.56517" lon="5.75809">
        <ele>827</ele>
        <time>2020-09-16T00:50:24Z</time>
      </trkpt>
      <trkpt lat="44.56565" lon="5.75647">
        <ele>827</ele>
        <time>2020-09-16T00:50:46Z</time>
      </trkpt>
      <trkpt lat="44.5659" lon="5.75587">
        <ele>829</ele>
        <time>2020-09-16T00:50:55Z</time>
      </trkpt>
      <trkpt lat="44.56605" lon="5.75554">
        <ele>830</ele>
        <time>2020-09-16T00:51:00Z</time>
      </trkpt>
      <trkpt lat="44.56641" lon="5.75488">
        <ele>831</ele>
        <time>2020-09-16T00:51:10Z</time>
      </trkpt>
      <trkpt lat="44.56654" lon="5.75452">
        <ele>832</ele>
        <time>2020-09-16T00:51:16Z</time>
      </trkpt>
      <trkpt lat="44.56664" lon="5.75404">
        <ele>834</ele>
        <time>2020-09-16T00:51:22Z</time>
      </trkpt>
      <trkpt lat="44.56721" lon="5.74929">
        <ele>839</ele>
        <time>2020-09-16T00:52:23Z</time>
      </trkpt>
      <trkpt lat="44.56724" lon="5.74859">
        <ele>837</ele>
        <time>2020-09-16T00:52:32Z</time>
      </trkpt>
      <trkpt lat="44.56706" lon="5.74382">
        <ele>845</ele>
        <time>2020-09-16T00:53:32Z</time>
      </trkpt>
      <trkpt lat="44.56699" lon="5.74236">
        <ele>841</ele>
        <time>2020-09-16T00:53:51Z</time>
      </trkpt>
      <trkpt lat="44.56698" lon="5.74138">
        <ele>842</ele>
        <time>2020-09-16T00:54:03Z</time>
      </trkpt>
      <trkpt lat="44.56702" lon="5.74038">
        <ele>842</ele>
        <time>2020-09-16T00:54:16Z</time>
      </trkpt>
      <trkpt lat="44.56713" lon="5.7399">
        <ele>842</ele>
        <time>2020-09-16T00:54:22Z</time>
      </trkpt>
      <trkpt lat="44.56721" lon="5.73963">
        <ele>843</ele>
        <time>2020-09-16T00:54:26Z</time>
      </trkpt>
      <trkpt lat="44.56723" lon="5.73949">
        <ele>843</ele>
        <time>2020-09-16T00:54:28Z</time>
      </trkpt>
      <trkpt lat="44.56723" lon="5.73935">
        <ele>843</ele>
        <time>2020-09-16T00:54:30Z</time>
      </trkpt>
      <trkpt lat="44.56703" lon="5.73871">
        <ele>840</ele>
        <time>2020-09-16T00:54:39Z</time>
      </trkpt>
      <trkpt lat="44.567" lon="5.73849">
        <ele>840</ele>
        <time>2020-09-16T00:54:41Z</time>
      </trkpt>
      <trkpt lat="44.56703" lon="5.73831">
        <ele>839</ele>
        <time>2020-09-16T00:54:44Z</time>
      </trkpt>
      <trkpt lat="44.56707" lon="5.73816">
        <ele>839</ele>
        <time>2020-09-16T00:54:46Z</time>
      </trkpt>
      <trkpt lat="44.56721" lon="5.73793">
        <ele>839</ele>
        <time>2020-09-16T00:54:50Z</time>
      </trkpt>
      <trkpt lat="44.56778" lon="5.73737">
        <ele>839</ele>
        <time>2020-09-16T00:55:02Z</time>
      </trkpt>
      <trkpt lat="44.56807" lon="5.73719">
        <ele>840</ele>
        <time>2020-09-16T00:55:08Z</time>
      </trkpt>
      <trkpt lat="44.56837" lon="5.73707">
        <ele>840</ele>
        <time>2020-09-16T00:55:13Z</time>
      </trkpt>
      <trkpt lat="44.56859" lon="5.73694">
        <ele>842</ele>
        <time>2020-09-16T00:55:17Z</time>
      </trkpt>
      <trkpt lat="44.5689" lon="5.73669">
        <ele>842</ele>
        <time>2020-09-16T00:55:24Z</time>
      </trkpt>
      <trkpt lat="44.57194" lon="5.73352">
        <ele>851</ele>
        <time>2020-09-16T00:56:31Z</time>
      </trkpt>
      <trkpt lat="44.57243" lon="5.73288">
        <ele>851</ele>
        <time>2020-09-16T00:56:43Z</time>
      </trkpt>
      <trkpt lat="44.57388" lon="5.73071">
        <ele>854</ele>
        <time>2020-09-16T00:57:21Z</time>
      </trkpt>
      <trkpt lat="44.57722" lon="5.7256">
        <ele>863</ele>
        <time>2020-09-16T00:58:49Z</time>
      </trkpt>
      <trkpt lat="44.57758" lon="5.72512">
        <ele>861</ele>
        <time>2020-09-16T00:58:58Z</time>
      </trkpt>
      <trkpt lat="44.57786" lon="5.72485">
        <ele>863</ele>
        <time>2020-09-16T00:59:04Z</time>
      </trkpt>
      <trkpt lat="44.57824" lon="5.72462">
        <ele>865</ele>
        <time>2020-09-16T00:59:11Z</time>
      </trkpt>
      <trkpt lat="44.58637" lon="5.72156">
        <ele>866</ele>
        <time>2020-09-16T01:01:41Z</time>
      </trkpt>
      <trkpt lat="44.58681" lon="5.72146">
        <ele>867</ele>
        <time>2020-09-16T01:01:49Z</time>
      </trkpt>
      <trkpt lat="44.58776" lon="5.72151">
        <ele>874</ele>
        <time>2020-09-16T01:02:06Z</time>
      </trkpt>
      <trkpt lat="44.5879" lon="5.72151">
        <ele>877</ele>
        <time>2020-09-16T01:02:08Z</time>
      </trkpt>
      <trkpt lat="44.58804" lon="5.72146">
        <ele>878</ele>
        <time>2020-09-16T01:02:11Z</time>
      </trkpt>
      <trkpt lat="44.58814" lon="5.7214">
        <ele>879</ele>
        <time>2020-09-16T01:02:13Z</time>
      </trkpt>
      <trkpt lat="44.58821" lon="5.72133">
        <ele>880</ele>
        <time>2020-09-16T01:02:14Z</time>
      </trkpt>
      <trkpt lat="44.58827" lon="5.72123">
        <ele>879</ele>
        <time>2020-09-16T01:02:16Z</time>
      </trkpt>
      <trkpt lat="44.58832" lon="5.7211">
        <ele>879</ele>
        <time>2020-09-16T01:02:18Z</time>
      </trkpt>
      <trkpt lat="44.58834" lon="5.72096">
        <ele>877</ele>
        <time>2020-09-16T01:02:19Z</time>
      </trkpt>
      <trkpt lat="44.58834" lon="5.72083">
        <ele>876</ele>
        <time>2020-09-16T01:02:21Z</time>
      </trkpt>
      <trkpt lat="44.5883" lon="5.72036">
        <ele>874</ele>
        <time>2020-09-16T01:02:27Z</time>
      </trkpt>
      <trkpt lat="44.58832" lon="5.72007">
        <ele>873</ele>
        <time>2020-09-16T01:02:31Z</time>
      </trkpt>
      <trkpt lat="44.58839" lon="5.71984">
        <ele>873</ele>
        <time>2020-09-16T01:02:34Z</time>
      </trkpt>
      <trkpt lat="44.58848" lon="5.71962">
        <ele>874</ele>
        <time>2020-09-16T01:02:37Z</time>
      </trkpt>
      <trkpt lat="44.58864" lon="5.71937">
        <ele>874</ele>
        <time>2020-09-16T01:02:41Z</time>
      </trkpt>
      <trkpt lat="44.58881" lon="5.71923">
        <ele>874</ele>
        <time>2020-09-16T01:02:45Z</time>
      </trkpt>
      <trkpt lat="44.59217" lon="5.71735">
        <ele>877</ele>
        <time>2020-09-16T01:03:49Z</time>
      </trkpt>
      <trkpt lat="44.59259" lon="5.71708">
        <ele>879</ele>
        <time>2020-09-16T01:03:57Z</time>
      </trkpt>
      <trkpt lat="44.59284" lon="5.71686">
        <ele>880</ele>
        <time>2020-09-16T01:04:03Z</time>
      </trkpt>
      <trkpt lat="44.59307" lon="5.71661">
        <ele>881</ele>
        <time>2020-09-16T01:04:08Z</time>
      </trkpt>
      <trkpt lat="44.59328" lon="5.71632">
        <ele>882</ele>
        <time>2020-09-16T01:04:13Z</time>
      </trkpt>
      <trkpt lat="44.59351" lon="5.71592">
        <ele>883</ele>
        <time>2020-09-16T01:04:20Z</time>
      </trkpt>
      <trkpt lat="44.59365" lon="5.71559">
        <ele>883</ele>
        <time>2020-09-16T01:04:25Z</time>
      </trkpt>
      <trkpt lat="44.595" lon="5.71172">
        <ele>886</ele>
        <time>2020-09-16T01:05:19Z</time>
      </trkpt>
      <trkpt lat="44.59523" lon="5.71117">
        <ele>890</ele>
        <time>2020-09-16T01:05:27Z</time>
      </trkpt>
      <trkpt lat="44.5955" lon="5.71069">
        <ele>890</ele>
        <time>2020-09-16T01:05:35Z</time>
      </trkpt>
      <trkpt lat="44.59585" lon="5.71023">
        <ele>886</ele>
        <time>2020-09-16T01:05:43Z</time>
      </trkpt>
      <trkpt lat="44.59625" lon="5.70987">
        <ele>888</ele>
        <time>2020-09-16T01:05:52Z</time>
      </trkpt>
      <trkpt lat="44.59677" lon="5.70957">
        <ele>889</ele>
        <time>2020-09-16T01:06:02Z</time>
      </trkpt>
      <trkpt lat="44.5973" lon="5.70943">
        <ele>891</ele>
        <time>2020-09-16T01:06:12Z</time>
      </trkpt>
      <trkpt lat="44.59794" lon="5.70933">
        <ele>893</ele>
        <time>2020-09-16T01:06:23Z</time>
      </trkpt>
      <trkpt lat="44.61017" lon="5.70776">
        <ele>916</ele>
        <time>2020-09-16T01:10:01Z</time>
      </trkpt>
      <trkpt lat="44.61096" lon="5.70764">
        <ele>916</ele>
        <time>2020-09-16T01:10:16Z</time>
      </trkpt>
      <trkpt lat="44.61119" lon="5.70765">
        <ele>915</ele>
        <time>2020-09-16T01:10:20Z</time>
      </trkpt>
      <trkpt lat="44.61144" lon="5.70771">
        <ele>914</ele>
        <time>2020-09-16T01:10:24Z</time>
      </trkpt>
      <trkpt lat="44.61168" lon="5.70781">
        <ele>914</ele>
        <time>2020-09-16T01:10:29Z</time>
      </trkpt>
      <trkpt lat="44.61185" lon="5.7079">
        <ele>913</ele>
        <time>2020-09-16T01:10:32Z</time>
      </trkpt>
      <trkpt lat="44.61228" lon="5.70813">
        <ele>915</ele>
        <time>2020-09-16T01:10:40Z</time>
      </trkpt>
      <trkpt lat="44.61237" lon="5.70818">
        <ele>915</ele>
        <time>2020-09-16T01:10:42Z</time>
      </trkpt>
      <trkpt lat="44.61411" lon="5.70917">
        <ele>922</ele>
        <time>2020-09-16T01:11:15Z</time>
      </trkpt>
      <trkpt lat="44.61454" lon="5.7094">
        <ele>924</ele>
        <time>2020-09-16T01:11:23Z</time>
      </trkpt>
      <trkpt lat="44.61483" lon="5.70948">
        <ele>922</ele>
        <time>2020-09-16T01:11:29Z</time>
      </trkpt>
      <trkpt lat="44.61507" lon="5.70951">
        <ele>920</ele>
        <time>2020-09-16T01:11:33Z</time>
      </trkpt>
      <trkpt lat="44.61513" lon="5.70951">
        <ele>920</ele>
        <time>2020-09-16T01:11:34Z</time>
      </trkpt>
      <trkpt lat="44.61531" lon="5.70952">
        <ele>920</ele>
        <time>2020-09-16T01:11:37Z</time>
      </trkpt>
      <trkpt lat="44.61555" lon="5.70941">
        <ele>919</ele>
        <time>2020-09-16T01:11:42Z</time>
      </trkpt>
      <trkpt lat="44.61579" lon="5.70928">
        <ele>918</ele>
        <time>2020-09-16T01:11:46Z</time>
      </trkpt>
      <trkpt lat="44.61616" lon="5.70899">
        <ele>918</ele>
        <time>2020-09-16T01:11:54Z</time>
      </trkpt>
      <trkpt lat="44.61621" lon="5.70894">
        <ele>918</ele>
        <time>2020-09-16T01:11:55Z</time>
      </trkpt>
      <trkpt lat="44.61652" lon="5.70869">
        <ele>918</ele>
        <time>2020-09-16T01:12:01Z</time>
      </trkpt>
      <trkpt lat="44.61671" lon="5.70855">
        <ele>918</ele>
        <time>2020-09-16T01:12:05Z</time>
      </trkpt>
      <trkpt lat="44.61685" lon="5.70843">
        <ele>919</ele>
        <time>2020-09-16T01:12:08Z</time>
      </trkpt>
      <trkpt lat="44.61695" lon="5.70833">
        <ele>920</ele>
        <time>2020-09-16T01:12:10Z</time>
      </trkpt>
      <trkpt lat="44.6171" lon="5.70811">
        <ele>920</ele>
        <time>2020-09-16T01:12:14Z</time>
      </trkpt>
      <trkpt lat="44.61719" lon="5.70795">
        <ele>921</ele>
        <time>2020-09-16T01:12:17Z</time>
      </trkpt>
      <trkpt lat="44.61725" lon="5.70777">
        <ele>921</ele>
        <time>2020-09-16T01:12:19Z</time>
      </trkpt>
      <trkpt lat="44.6173" lon="5.70751">
        <ele>920</ele>
        <time>2020-09-16T01:12:23Z</time>
      </trkpt>
      <trkpt lat="44.61732" lon="5.70739">
        <ele>920</ele>
        <time>2020-09-16T01:12:24Z</time>
      </trkpt>
      <trkpt lat="44.61732" lon="5.70726">
        <ele>920</ele>
        <time>2020-09-16T01:12:26Z</time>
      </trkpt>
      <trkpt lat="44.61731" lon="5.70692">
        <ele>919</ele>
        <time>2020-09-16T01:12:30Z</time>
      </trkpt>
      <trkpt lat="44.61733" lon="5.70669">
        <ele>919</ele>
        <time>2020-09-16T01:12:33Z</time>
      </trkpt>
      <trkpt lat="44.61739" lon="5.70651">
        <ele>919</ele>
        <time>2020-09-16T01:12:36Z</time>
      </trkpt>
      <trkpt lat="44.61749" lon="5.7063">
        <ele>919</ele>
        <time>2020-09-16T01:12:39Z</time>
      </trkpt>
      <trkpt lat="44.61768" lon="5.706">
        <ele>920</ele>
        <time>2020-09-16T01:12:44Z</time>
      </trkpt>
      <trkpt lat="44.61774" lon="5.7059">
        <ele>921</ele>
        <time>2020-09-16T01:12:45Z</time>
      </trkpt>
      <trkpt lat="44.61868" lon="5.7042">
        <ele>929</ele>
        <time>2020-09-16T01:13:13Z</time>
      </trkpt>
      <trkpt lat="44.61933" lon="5.70305">
        <ele>934</ele>
        <time>2020-09-16T01:13:31Z</time>
      </trkpt>
      <trkpt lat="44.61944" lon="5.70284">
        <ele>935</ele>
        <time>2020-09-16T01:13:35Z</time>
      </trkpt>
      <trkpt lat="44.62046" lon="5.70103">
        <ele>936</ele>
        <time>2020-09-16T01:14:04Z</time>
      </trkpt>
      <trkpt lat="44.62091" lon="5.70022">
        <ele>934</ele>
        <time>2020-09-16T01:14:17Z</time>
      </trkpt>
      <trkpt lat="44.62113" lon="5.69991">
        <ele>933</ele>
        <time>2020-09-16T01:14:22Z</time>
      </trkpt>
      <trkpt lat="44.62129" lon="5.69974">
        <ele>934</ele>
        <time>2020-09-16T01:14:26Z</time>
      </trkpt>
      <trkpt lat="44.62155" lon="5.69954">
        <ele>934</ele>
        <time>2020-09-16T01:14:31Z</time>
      </trkpt>
      <trkpt lat="44.62178" lon="5.6994">
        <ele>935</ele>
        <time>2020-09-16T01:14:36Z</time>
      </trkpt>
      <trkpt lat="44.62219" lon="5.69924">
        <ele>936</ele>
        <time>2020-09-16T01:14:43Z</time>
      </trkpt>
      <trkpt lat="44.62513" lon="5.69827">
        <ele>934</ele>
        <time>2020-09-16T01:15:37Z</time>
      </trkpt>
      <trkpt lat="44.62602" lon="5.69798">
        <ele>941</ele>
        <time>2020-09-16T01:15:53Z</time>
      </trkpt>
      <trkpt lat="44.62644" lon="5.69784">
        <ele>940</ele>
        <time>2020-09-16T01:16:01Z</time>
      </trkpt>
      <trkpt lat="44.62667" lon="5.69776">
        <ele>939</ele>
        <time>2020-09-16T01:16:05Z</time>
      </trkpt>
      <trkpt lat="44.63068" lon="5.69644">
        <ele>943</ele>
        <time>2020-09-16T01:17:18Z</time>
      </trkpt>
      <trkpt lat="44.63075" lon="5.69642">
        <ele>943</ele>
        <time>2020-09-16T01:17:20Z</time>
      </trkpt>
      <trkpt lat="44.63078" lon="5.69669">
        <ele>943</ele>
        <time>2020-09-16T01:17:23Z</time>
      </trkpt>
      <trkpt lat="44.63082" lon="5.69676">
        <ele>943</ele>
        <time>2020-09-16T01:17:24Z</time>
      </trkpt>
      <trkpt lat="44.63087" lon="5.69676">
        <ele>943</ele>
        <time>2020-09-16T01:17:25Z</time>
      </trkpt>
      <trkpt lat="44.63162" lon="5.69664">
        <ele>946</ele>
        <time>2020-09-16T01:17:39Z</time>
      </trkpt>
      <trkpt lat="44.63328" lon="5.6965">
        <ele>949</ele>
        <time>2020-09-16T01:18:08Z</time>
      </trkpt>
      <trkpt lat="44.63502" lon="5.69632">
        <ele>953</ele>
        <time>2020-09-16T01:18:39Z</time>
      </trkpt>
      <trkpt lat="44.63565" lon="5.6963">
        <ele>956</ele>
        <time>2020-09-16T01:18:51Z</time>
      </trkpt>
      <trkpt lat="44.63603" lon="5.6962">
        <ele>958</ele>
        <time>2020-09-16T01:18:57Z</time>
      </trkpt>
      <trkpt lat="44.63671" lon="5.69587">
        <ele>960</ele>
        <time>2020-09-16T01:19:10Z</time>
      </trkpt>
      <trkpt lat="44.63684" lon="5.69572">
        <ele>960</ele>
        <time>2020-09-16T01:19:13Z</time>
      </trkpt>
      <trkpt lat="44.6369" lon="5.69573">
        <ele>960</ele>
        <time>2020-09-16T01:19:14Z</time>
      </trkpt>
      <trkpt lat="44.63783" lon="5.69561">
        <ele>964</ele>
        <time>2020-09-16T01:19:31Z</time>
      </trkpt>
      <trkpt lat="44.63812" lon="5.69558">
        <ele>963</ele>
        <time>2020-09-16T01:19:36Z</time>
      </trkpt>
      <trkpt lat="44.63819" lon="5.69557">
        <ele>962</ele>
        <time>2020-09-16T01:19:37Z</time>
      </trkpt>
      <trkpt lat="44.63838" lon="5.69557">
        <ele>962</ele>
        <time>2020-09-16T01:19:41Z</time>
      </trkpt>
      <trkpt lat="44.63859" lon="5.69559">
        <ele>962</ele>
        <time>2020-09-16T01:19:44Z</time>
      </trkpt>
      <trkpt lat="44.63882" lon="5.69564">
        <ele>961</ele>
        <time>2020-09-16T01:19:49Z</time>
      </trkpt>
      <trkpt lat="44.63924" lon="5.69579">
        <ele>961</ele>
        <time>2020-09-16T01:19:56Z</time>
      </trkpt>
      <trkpt lat="44.63951" lon="5.69593">
        <ele>962</ele>
        <time>2020-09-16T01:20:01Z</time>
      </trkpt>
      <trkpt lat="44.63997" lon="5.69632">
        <ele>963</ele>
        <time>2020-09-16T01:20:11Z</time>
      </trkpt>
      <trkpt lat="44.64057" lon="5.697">
        <ele>965</ele>
        <time>2020-09-16T01:20:25Z</time>
      </trkpt>
      <trkpt lat="44.64407" lon="5.70136">
        <ele>982</ele>
        <time>2020-09-16T01:21:48Z</time>
      </trkpt>
      <trkpt lat="44.64439" lon="5.70172">
        <ele>983</ele>
        <time>2020-09-16T01:21:55Z</time>
      </trkpt>
      <trkpt lat="44.6447" lon="5.70201">
        <ele>984</ele>
        <time>2020-09-16T01:22:02Z</time>
      </trkpt>
      <trkpt lat="44.64495" lon="5.70218">
        <ele>984</ele>
        <time>2020-09-16T01:22:07Z</time>
      </trkpt>
      <trkpt lat="44.6452" lon="5.70231">
        <ele>984</ele>
        <time>2020-09-16T01:22:12Z</time>
      </trkpt>
      <trkpt lat="44.64547" lon="5.70239">
        <ele>984</ele>
        <time>2020-09-16T01:22:16Z</time>
      </trkpt>
      <trkpt lat="44.64572" lon="5.70244">
        <ele>985</ele>
        <time>2020-09-16T01:22:21Z</time>
      </trkpt>
      <trkpt lat="44.64704" lon="5.70248">
        <ele>987</ele>
        <time>2020-09-16T01:22:44Z</time>
      </trkpt>
      <trkpt lat="44.64736" lon="5.70246">
        <ele>986</ele>
        <time>2020-09-16T01:22:50Z</time>
      </trkpt>
      <trkpt lat="44.64765" lon="5.70238">
        <ele>987</ele>
        <time>2020-09-16T01:22:55Z</time>
      </trkpt>
      <trkpt lat="44.64778" lon="5.70231">
        <ele>988</ele>
        <time>2020-09-16T01:22:58Z</time>
      </trkpt>
      <trkpt lat="44.64791" lon="5.70221">
        <ele>989</ele>
        <time>2020-09-16T01:23:00Z</time>
      </trkpt>
      <trkpt lat="44.6481" lon="5.70202">
        <ele>989</ele>
        <time>2020-09-16T01:23:05Z</time>
      </trkpt>
      <trkpt lat="44.64838" lon="5.70164">
        <ele>988</ele>
        <time>2020-09-16T01:23:12Z</time>
      </trkpt>
      <trkpt lat="44.64862" lon="5.70116">
        <ele>998</ele>
        <time>2020-09-16T01:23:19Z</time>
      </trkpt>
      <trkpt lat="44.64882" lon="5.70071">
        <ele>1002</ele>
        <time>2020-09-16T01:23:26Z</time>
      </trkpt>
      <trkpt lat="44.64945" lon="5.69924">
        <ele>1003</ele>
        <time>2020-09-16T01:23:47Z</time>
      </trkpt>
      <trkpt lat="44.64984" lon="5.69852">
        <ele>1002</ele>
        <time>2020-09-16T01:23:59Z</time>
      </trkpt>
      <trkpt lat="44.65009" lon="5.69808">
        <ele>1002</ele>
        <time>2020-09-16T01:24:06Z</time>
      </trkpt>
      <trkpt lat="44.65038" lon="5.69765">
        <ele>1003</ele>
        <time>2020-09-16T01:24:13Z</time>
      </trkpt>
      <trkpt lat="44.65075" lon="5.69717">
        <ele>1001</ele>
        <time>2020-09-16T01:24:22Z</time>
      </trkpt>
      <trkpt lat="44.65147" lon="5.6965">
        <ele>999</ele>
        <time>2020-09-16T01:24:38Z</time>
      </trkpt>
      <trkpt lat="44.65186" lon="5.69623">
        <ele>999</ele>
        <time>2020-09-16T01:24:46Z</time>
      </trkpt>
      <trkpt lat="44.65222" lon="5.69606">
        <ele>999</ele>
        <time>2020-09-16T01:24:52Z</time>
      </trkpt>
      <trkpt lat="44.65329" lon="5.69571">
        <ele>998</ele>
        <time>2020-09-16T01:25:12Z</time>
      </trkpt>
      <trkpt lat="44.65367" lon="5.69553">
        <ele>1000</ele>
        <time>2020-09-16T01:25:19Z</time>
      </trkpt>
      <trkpt lat="44.65429" lon="5.69509">
        <ele>1000</ele>
        <time>2020-09-16T01:25:31Z</time>
      </trkpt>
      <trkpt lat="44.65516" lon="5.69424">
        <ele>995</ele>
        <time>2020-09-16T01:25:50Z</time>
      </trkpt>
      <trkpt lat="44.65542" lon="5.69406">
        <ele>996</ele>
        <time>2020-09-16T01:25:55Z</time>
      </trkpt>
      <trkpt lat="44.65567" lon="5.69398">
        <ele>996</ele>
        <time>2020-09-16T01:26:00Z</time>
      </trkpt>
      <trkpt lat="44.65603" lon="5.69393">
        <ele>996</ele>
        <time>2020-09-16T01:26:06Z</time>
      </trkpt>
      <trkpt lat="44.65716" lon="5.69393">
        <ele>994</ele>
        <time>2020-09-16T01:26:26Z</time>
      </trkpt>
      <trkpt lat="44.65783" lon="5.69407">
        <ele>991</ele>
        <time>2020-09-16T01:26:39Z</time>
      </trkpt>
      <trkpt lat="44.65937" lon="5.69455">
        <ele>996</ele>
        <time>2020-09-16T01:27:07Z</time>
      </trkpt>
      <trkpt lat="44.65943" lon="5.69457">
        <ele>996</ele>
        <time>2020-09-16T01:27:08Z</time>
      </trkpt>
      <trkpt lat="44.66248" lon="5.69548">
        <ele>1002</ele>
        <time>2020-09-16T01:28:03Z</time>
      </trkpt>
      <trkpt lat="44.66363" lon="5.69579">
        <ele>1003</ele>
        <time>2020-09-16T01:28:24Z</time>
      </trkpt>
      <trkpt lat="44.6649" lon="5.69599">
        <ele>1002</ele>
        <time>2020-09-16T01:28:47Z</time>
      </trkpt>
      <trkpt lat="44.66513" lon="5.69606">
        <ele>1002</ele>
        <time>2020-09-16T01:28:51Z</time>
      </trkpt>
      <trkpt lat="44.66533" lon="5.69616">
        <ele>1002</ele>
        <time>2020-09-16T01:28:55Z</time>
      </trkpt>
      <trkpt lat="44.66597" lon="5.69676">
        <ele>1000</ele>
        <time>2020-09-16T01:29:08Z</time>
      </trkpt>
      <trkpt lat="44.66626" lon="5.69694">
        <ele>1000</ele>
        <time>2020-09-16T01:29:14Z</time>
      </trkpt>
      <trkpt lat="44.6666" lon="5.69711">
        <ele>1000</ele>
        <time>2020-09-16T01:29:20Z</time>
      </trkpt>
      <trkpt lat="44.6673" lon="5.69726">
        <ele>1000</ele>
        <time>2020-09-16T01:29:33Z</time>
      </trkpt>
      <trkpt lat="44.66789" lon="5.69751">
        <ele>1002</ele>
        <time>2020-09-16T01:29:44Z</time>
      </trkpt>
      <trkpt lat="44.66868" lon="5.698">
        <ele>1005</ele>
        <time>2020-09-16T01:29:59Z</time>
      </trkpt>
      <trkpt lat="44.66918" lon="5.69827">
        <ele>1005</ele>
        <time>2020-09-16T01:30:09Z</time>
      </trkpt>
      <trkpt lat="44.66927" lon="5.69827">
        <ele>1005</ele>
        <time>2020-09-16T01:30:10Z</time>
      </trkpt>
      <trkpt lat="44.67034" lon="5.69785">
        <ele>1009</ele>
        <time>2020-09-16T01:30:30Z</time>
      </trkpt>
      <trkpt lat="44.6705" lon="5.69782">
        <ele>1010</ele>
        <time>2020-09-16T01:30:33Z</time>
      </trkpt>
      <trkpt lat="44.67064" lon="5.69784">
        <ele>1010</ele>
        <time>2020-09-16T01:30:36Z</time>
      </trkpt>
      <trkpt lat="44.67104" lon="5.69802">
        <ele>1009</ele>
        <time>2020-09-16T01:30:43Z</time>
      </trkpt>
      <trkpt lat="44.67119" lon="5.69812">
        <ele>1009</ele>
        <time>2020-09-16T01:30:46Z</time>
      </trkpt>
      <trkpt lat="44.67139" lon="5.69815">
        <ele>1009</ele>
        <time>2020-09-16T01:30:50Z</time>
      </trkpt>
      <trkpt lat="44.67241" lon="5.69807">
        <ele>1012</ele>
        <time>2020-09-16T01:31:08Z</time>
      </trkpt>
      <trkpt lat="44.6726" lon="5.69802">
        <ele>1013</ele>
        <time>2020-09-16T01:31:11Z</time>
      </trkpt>
      <trkpt lat="44.67272" lon="5.69803">
        <ele>1013</ele>
        <time>2020-09-16T01:31:13Z</time>
      </trkpt>
      <trkpt lat="44.6731" lon="5.69815">
        <ele>1014</ele>
        <time>2020-09-16T01:31:20Z</time>
      </trkpt>
      <trkpt lat="44.67327" lon="5.69818">
        <ele>1014</ele>
        <time>2020-09-16T01:31:23Z</time>
      </trkpt>
      <trkpt lat="44.67386" lon="5.6981">
        <ele>1017</ele>
        <time>2020-09-16T01:31:34Z</time>
      </trkpt>
      <trkpt lat="44.67425" lon="5.69811">
        <ele>1018</ele>
        <time>2020-09-16T01:31:41Z</time>
      </trkpt>
      <trkpt lat="44.67497" lon="5.69805">
        <ele>1019</ele>
        <time>2020-09-16T01:31:54Z</time>
      </trkpt>
      <trkpt lat="44.67565" lon="5.69788">
        <ele>1022</ele>
        <time>2020-09-16T01:32:06Z</time>
      </trkpt>
      <trkpt lat="44.67616" lon="5.69752">
        <ele>1024</ele>
        <time>2020-09-16T01:32:16Z</time>
      </trkpt>
      <trkpt lat="44.67686" lon="5.69685">
        <ele>1028</ele>
        <time>2020-09-16T01:32:31Z</time>
      </trkpt>
      <trkpt lat="44.67732" lon="5.69618">
        <ele>1025</ele>
        <time>2020-09-16T01:32:43Z</time>
      </trkpt>
      <trkpt lat="44.67837" lon="5.69427">
        <ele>1028</ele>
        <time>2020-09-16T01:33:14Z</time>
      </trkpt>
      <trkpt lat="44.6786" lon="5.69391">
        <ele>1031</ele>
        <time>2020-09-16T01:33:20Z</time>
      </trkpt>
      <trkpt lat="44.67886" lon="5.69359">
        <ele>1032</ele>
        <time>2020-09-16T01:33:26Z</time>
      </trkpt>
      <trkpt lat="44.67912" lon="5.69336">
        <ele>1031</ele>
        <time>2020-09-16T01:33:31Z</time>
      </trkpt>
      <trkpt lat="44.67937" lon="5.69317">
        <ele>1032</ele>
        <time>2020-09-16T01:33:36Z</time>
      </trkpt>
      <trkpt lat="44.67962" lon="5.69307">
        <ele>1032</ele>
        <time>2020-09-16T01:33:41Z</time>
      </trkpt>
      <trkpt lat="44.67986" lon="5.693">
        <ele>1031</ele>
        <time>2020-09-16T01:33:45Z</time>
      </trkpt>
      <trkpt lat="44.68008" lon="5.69297">
        <ele>1031</ele>
        <time>2020-09-16T01:33:49Z</time>
      </trkpt>
      <trkpt lat="44.68029" lon="5.69298">
        <ele>1031</ele>
        <time>2020-09-16T01:33:53Z</time>
      </trkpt>
      <trkpt lat="44.68319" lon="5.69366">
        <ele>1030</ele>
        <time>2020-09-16T01:34:45Z</time>
      </trkpt>
      <trkpt lat="44.68343" lon="5.69368">
        <ele>1030</ele>
        <time>2020-09-16T01:34:50Z</time>
      </trkpt>
      <trkpt lat="44.68367" lon="5.69367">
        <ele>1031</ele>
        <time>2020-09-16T01:34:54Z</time>
      </trkpt>
      <trkpt lat="44.68389" lon="5.6936">
        <ele>1031</ele>
        <time>2020-09-16T01:34:58Z</time>
      </trkpt>
      <trkpt lat="44.68412" lon="5.69352">
        <ele>1032</ele>
        <time>2020-09-16T01:35:02Z</time>
      </trkpt>
      <trkpt lat="44.6844" lon="5.69333">
        <ele>1031</ele>
        <time>2020-09-16T01:35:08Z</time>
      </trkpt>
      <trkpt lat="44.68469" lon="5.69309">
        <ele>1033</ele>
        <time>2020-09-16T01:35:14Z</time>
      </trkpt>
      <trkpt lat="44.68506" lon="5.69252">
        <ele>1035</ele>
        <time>2020-09-16T01:35:23Z</time>
      </trkpt>
      <trkpt lat="44.68663" lon="5.68984">
        <ele>1039</ele>
        <time>2020-09-16T01:36:07Z</time>
      </trkpt>
      <trkpt lat="44.68695" lon="5.68923">
        <ele>1041</ele>
        <time>2020-09-16T01:36:17Z</time>
      </trkpt>
      <trkpt lat="44.68712" lon="5.68897">
        <ele>1041</ele>
        <time>2020-09-16T01:36:21Z</time>
      </trkpt>
      <trkpt lat="44.68728" lon="5.68878">
        <ele>1041</ele>
        <time>2020-09-16T01:36:25Z</time>
      </trkpt>
      <trkpt lat="44.68751" lon="5.68857">
        <ele>1041</ele>
        <time>2020-09-16T01:36:30Z</time>
      </trkpt>
      <trkpt lat="44.68764" lon="5.68848">
        <ele>1041</ele>
        <time>2020-09-16T01:36:33Z</time>
      </trkpt>
      <trkpt lat="44.68837" lon="5.68803">
        <ele>1043</ele>
        <time>2020-09-16T01:36:47Z</time>
      </trkpt>
      <trkpt lat="44.69032" lon="5.68685">
        <ele>1045</ele>
        <time>2020-09-16T01:37:24Z</time>
      </trkpt>
      <trkpt lat="44.69105" lon="5.68647">
        <ele>1048</ele>
        <time>2020-09-16T01:37:38Z</time>
      </trkpt>
      <trkpt lat="44.69164" lon="5.68621">
        <ele>1050</ele>
        <time>2020-09-16T01:37:49Z</time>
      </trkpt>
      <trkpt lat="44.69188" lon="5.68604">
        <ele>1050</ele>
        <time>2020-09-16T01:37:54Z</time>
      </trkpt>
      <trkpt lat="44.69209" lon="5.68587">
        <ele>1050</ele>
        <time>2020-09-16T01:37:58Z</time>
      </trkpt>
      <trkpt lat="44.69236" lon="5.68557">
        <ele>1053</ele>
        <time>2020-09-16T01:38:05Z</time>
      </trkpt>
      <trkpt lat="44.69286" lon="5.68499">
        <ele>1058</ele>
        <time>2020-09-16T01:38:16Z</time>
      </trkpt>
      <trkpt lat="44.69311" lon="5.68471">
        <ele>1058</ele>
        <time>2020-09-16T01:38:22Z</time>
      </trkpt>
      <trkpt lat="44.69338" lon="5.68445">
        <ele>1059</ele>
        <time>2020-09-16T01:38:28Z</time>
      </trkpt>
      <trkpt lat="44.69365" lon="5.68427">
        <ele>1060</ele>
        <time>2020-09-16T01:38:33Z</time>
      </trkpt>
      <trkpt lat="44.69397" lon="5.68411">
        <ele>1060</ele>
        <time>2020-09-16T01:38:39Z</time>
      </trkpt>
      <trkpt lat="44.69443" lon="5.68395">
        <ele>1062</ele>
        <time>2020-09-16T01:38:47Z</time>
      </trkpt>
      <trkpt lat="44.69767" lon="5.68292">
        <ele>1069</ele>
        <time>2020-09-16T01:39:46Z</time>
      </trkpt>
      <trkpt lat="44.69776" lon="5.68289">
        <ele>1069</ele>
        <time>2020-09-16T01:39:48Z</time>
      </trkpt>
      <trkpt lat="44.69842" lon="5.68268">
        <ele>1073</ele>
        <time>2020-09-16T01:40:00Z</time>
      </trkpt>
      <trkpt lat="44.69861" lon="5.68262">
        <ele>1073</ele>
        <time>2020-09-16T01:40:04Z</time>
      </trkpt>
      <trkpt lat="44.69936" lon="5.68236">
        <ele>1078</ele>
        <time>2020-09-16T01:40:17Z</time>
      </trkpt>
      <trkpt lat="44.7001" lon="5.68215">
        <ele>1083</ele>
        <time>2020-09-16T01:40:31Z</time>
      </trkpt>
      <trkpt lat="44.70077" lon="5.68193">
        <ele>1087</ele>
        <time>2020-09-16T01:40:43Z</time>
      </trkpt>
      <trkpt lat="44.70092" lon="5.68188">
        <ele>1088</ele>
        <time>2020-09-16T01:40:46Z</time>
      </trkpt>
      <trkpt lat="44.70131" lon="5.68173">
        <ele>1091</ele>
        <time>2020-09-16T01:40:53Z</time>
      </trkpt>
      <trkpt lat="44.70174" lon="5.68159">
        <ele>1093</ele>
        <time>2020-09-16T01:41:01Z</time>
      </trkpt>
      <trkpt lat="44.70213" lon="5.68143">
        <ele>1094</ele>
        <time>2020-09-16T01:41:08Z</time>
      </trkpt>
      <trkpt lat="44.70248" lon="5.68124">
        <ele>1095</ele>
        <time>2020-09-16T01:41:15Z</time>
      </trkpt>
      <trkpt lat="44.70289" lon="5.68096">
        <ele>1096</ele>
        <time>2020-09-16T01:41:23Z</time>
      </trkpt>
      <trkpt lat="44.70327" lon="5.68063">
        <ele>1097</ele>
        <time>2020-09-16T01:41:31Z</time>
      </trkpt>
      <trkpt lat="44.70391" lon="5.68006">
        <ele>1101</ele>
        <time>2020-09-16T01:41:44Z</time>
      </trkpt>
      <trkpt lat="44.70455" lon="5.67954">
        <ele>1106</ele>
        <time>2020-09-16T01:41:57Z</time>
      </trkpt>
      <trkpt lat="44.70523" lon="5.67909">
        <ele>1106</ele>
        <time>2020-09-16T01:42:11Z</time>
      </trkpt>
      <trkpt lat="44.70552" lon="5.67891">
        <ele>1106</ele>
        <time>2020-09-16T01:42:16Z</time>
      </trkpt>
      <trkpt lat="44.70658" lon="5.67825">
        <ele>1108</ele>
        <time>2020-09-16T01:42:37Z</time>
      </trkpt>
      <trkpt lat="44.70698" lon="5.67803">
        <ele>1111</ele>
        <time>2020-09-16T01:42:45Z</time>
      </trkpt>
      <trkpt lat="44.70807" lon="5.67758">
        <ele>1117</ele>
        <time>2020-09-16T01:43:05Z</time>
      </trkpt>
      <trkpt lat="44.70867" lon="5.6774">
        <ele>1120</ele>
        <time>2020-09-16T01:43:16Z</time>
      </trkpt>
      <trkpt lat="44.70929" lon="5.67729">
        <ele>1123</ele>
        <time>2020-09-16T01:43:27Z</time>
      </trkpt>
      <trkpt lat="44.70994" lon="5.67723">
        <ele>1127</ele>
        <time>2020-09-16T01:43:39Z</time>
      </trkpt>
      <trkpt lat="44.71051" lon="5.6773">
        <ele>1129</ele>
        <time>2020-09-16T01:43:49Z</time>
      </trkpt>
      <trkpt lat="44.71111" lon="5.67739">
        <ele>1132</ele>
        <time>2020-09-16T01:43:59Z</time>
      </trkpt>
      <trkpt lat="44.71136" lon="5.67742">
        <ele>1133</ele>
        <time>2020-09-16T01:44:04Z</time>
      </trkpt>
      <trkpt lat="44.71148" lon="5.67744">
        <ele>1134</ele>
        <time>2020-09-16T01:44:06Z</time>
      </trkpt>
      <trkpt lat="44.71163" lon="5.67743">
        <ele>1136</ele>
        <time>2020-09-16T01:44:09Z</time>
      </trkpt>
      <trkpt lat="44.71213" lon="5.67712">
        <ele>1139</ele>
        <time>2020-09-16T01:44:18Z</time>
      </trkpt>
      <trkpt lat="44.7123" lon="5.67709">
        <ele>1140</ele>
        <time>2020-09-16T01:44:22Z</time>
      </trkpt>
      <trkpt lat="44.71245" lon="5.67709">
        <ele>1140</ele>
        <time>2020-09-16T01:44:24Z</time>
      </trkpt>
      <trkpt lat="44.71343" lon="5.67728">
        <ele>1143</ele>
        <time>2020-09-16T01:44:42Z</time>
      </trkpt>
      <trkpt lat="44.71363" lon="5.67729">
        <ele>1144</ele>
        <time>2020-09-16T01:44:45Z</time>
      </trkpt>
      <trkpt lat="44.71382" lon="5.67726">
        <ele>1145</ele>
        <time>2020-09-16T01:44:49Z</time>
      </trkpt>
      <trkpt lat="44.71404" lon="5.67714">
        <ele>1146</ele>
        <time>2020-09-16T01:44:53Z</time>
      </trkpt>
      <trkpt lat="44.71441" lon="5.67686">
        <ele>1148</ele>
        <time>2020-09-16T01:45:00Z</time>
      </trkpt>
      <trkpt lat="44.71463" lon="5.67678">
        <ele>1148</ele>
        <time>2020-09-16T01:45:04Z</time>
      </trkpt>
      <trkpt lat="44.71501" lon="5.67675">
        <ele>1148</ele>
        <time>2020-09-16T01:45:11Z</time>
      </trkpt>
      <trkpt lat="44.71534" lon="5.67677">
        <ele>1149</ele>
        <time>2020-09-16T01:45:17Z</time>
      </trkpt>
      <trkpt lat="44.7157" lon="5.67673">
        <ele>1150</ele>
        <time>2020-09-16T01:45:24Z</time>
      </trkpt>
      <trkpt lat="44.71641" lon="5.67659">
        <ele>1152</ele>
        <time>2020-09-16T01:45:36Z</time>
      </trkpt>
      <trkpt lat="44.71661" lon="5.67654">
        <ele>1153</ele>
        <time>2020-09-16T01:45:40Z</time>
      </trkpt>
      <trkpt lat="44.71815" lon="5.67636">
        <ele>1156</ele>
        <time>2020-09-16T01:46:07Z</time>
      </trkpt>
      <trkpt lat="44.71967" lon="5.67647">
        <ele>1161</ele>
        <time>2020-09-16T01:46:34Z</time>
      </trkpt>
      <trkpt lat="44.7209" lon="5.67658">
        <ele>1163</ele>
        <time>2020-09-16T01:46:56Z</time>
      </trkpt>
      <trkpt lat="44.72296" lon="5.67712">
        <ele>1172</ele>
        <time>2020-09-16T01:47:34Z</time>
      </trkpt>
      <trkpt lat="44.72346" lon="5.67731">
        <ele>1174</ele>
        <time>2020-09-16T01:47:43Z</time>
      </trkpt>
      <trkpt lat="44.72358" lon="5.67736">
        <ele>1174</ele>
        <time>2020-09-16T01:47:45Z</time>
      </trkpt>
      <trkpt lat="44.72378" lon="5.67743">
        <ele>1175</ele>
        <time>2020-09-16T01:47:49Z</time>
      </trkpt>
      <trkpt lat="44.72383" lon="5.67745">
        <ele>1175</ele>
        <time>2020-09-16T01:47:50Z</time>
      </trkpt>
      <trkpt lat="44.72423" lon="5.67759">
        <ele>1176</ele>
        <time>2020-09-16T01:47:57Z</time>
      </trkpt>
      <trkpt lat="44.72456" lon="5.67769">
        <ele>1175</ele>
        <time>2020-09-16T01:48:03Z</time>
      </trkpt>
      <trkpt lat="44.72465" lon="5.67771">
        <ele>1175</ele>
        <time>2020-09-16T01:48:05Z</time>
      </trkpt>
      <trkpt lat="44.72481" lon="5.67774">
        <ele>1174</ele>
        <time>2020-09-16T01:48:08Z</time>
      </trkpt>
      <trkpt lat="44.72571" lon="5.67778">
        <ele>1171</ele>
        <time>2020-09-16T01:48:24Z</time>
      </trkpt>
      <trkpt lat="44.72614" lon="5.67782">
        <ele>1169</ele>
        <time>2020-09-16T01:48:31Z</time>
      </trkpt>
      <trkpt lat="44.72656" lon="5.67786">
        <ele>1167</ele>
        <time>2020-09-16T01:48:39Z</time>
      </trkpt>
      <trkpt lat="44.72693" lon="5.67791">
        <ele>1165</ele>
        <time>2020-09-16T01:48:45Z</time>
      </trkpt>
      <trkpt lat="44.72735" lon="5.67798">
        <ele>1162</ele>
        <time>2020-09-16T01:48:53Z</time>
      </trkpt>
      <trkpt lat="44.72768" lon="5.67803">
        <ele>1160</ele>
        <time>2020-09-16T01:48:59Z</time>
      </trkpt>
      <trkpt lat="44.72804" lon="5.67812">
        <ele>1158</ele>
        <time>2020-09-16T01:49:05Z</time>
      </trkpt>
      <trkpt lat="44.7282" lon="5.6782">
        <ele>1156</ele>
        <time>2020-09-16T01:49:08Z</time>
      </trkpt>
      <trkpt lat="44.72852" lon="5.67841">
        <ele>1153</ele>
        <time>2020-09-16T01:49:15Z</time>
      </trkpt>
      <trkpt lat="44.72883" lon="5.67857">
        <ele>1152</ele>
        <time>2020-09-16T01:49:20Z</time>
      </trkpt>
      <trkpt lat="44.72931" lon="5.67873">
        <ele>1152</ele>
        <time>2020-09-16T01:49:29Z</time>
      </trkpt>
      <trkpt lat="44.72948" lon="5.67886">
        <ele>1152</ele>
        <time>2020-09-16T01:49:33Z</time>
      </trkpt>
      <trkpt lat="44.72953" lon="5.67892">
        <ele>1151</ele>
        <time>2020-09-16T01:49:34Z</time>
      </trkpt>
      <trkpt lat="44.72956" lon="5.67896">
        <ele>1151</ele>
        <time>2020-09-16T01:49:35Z</time>
      </trkpt>
      <trkpt lat="44.72971" lon="5.67921">
        <ele>1147</ele>
        <time>2020-09-16T01:49:39Z</time>
      </trkpt>
      <trkpt lat="44.72979" lon="5.67933">
        <ele>1147</ele>
        <time>2020-09-16T01:49:41Z</time>
      </trkpt>
      <trkpt lat="44.72988" lon="5.67942">
        <ele>1146</ele>
        <time>2020-09-16T01:49:43Z</time>
      </trkpt>
      <trkpt lat="44.73" lon="5.67949">
        <ele>1145</ele>
        <time>2020-09-16T01:49:45Z</time>
      </trkpt>
      <trkpt lat="44.73041" lon="5.67963">
        <ele>1147</ele>
        <time>2020-09-16T01:49:53Z</time>
      </trkpt>
      <trkpt lat="44.73054" lon="5.67971">
        <ele>1147</ele>
        <time>2020-09-16T01:49:55Z</time>
      </trkpt>
      <trkpt lat="44.73138" lon="5.68045">
        <ele>1136</ele>
        <time>2020-09-16T01:50:13Z</time>
      </trkpt>
      <trkpt lat="44.73146" lon="5.6805">
        <ele>1135</ele>
        <time>2020-09-16T01:50:14Z</time>
      </trkpt>
      <trkpt lat="44.73153" lon="5.68051">
        <ele>1134</ele>
        <time>2020-09-16T01:50:16Z</time>
      </trkpt>
      <trkpt lat="44.7316" lon="5.68049">
        <ele>1133</ele>
        <time>2020-09-16T01:50:17Z</time>
      </trkpt>
      <trkpt lat="44.73167" lon="5.68042">
        <ele>1133</ele>
        <time>2020-09-16T01:50:18Z</time>
      </trkpt>
      <trkpt lat="44.73214" lon="5.67975">
        <ele>1145</ele>
        <time>2020-09-16T01:50:30Z</time>
      </trkpt>
      <trkpt lat="44.73227" lon="5.67965">
        <ele>1148</ele>
        <time>2020-09-16T01:50:33Z</time>
      </trkpt>
      <trkpt lat="44.73236" lon="5.67963">
        <ele>1148</ele>
        <time>2020-09-16T01:50:35Z</time>
      </trkpt>
      <trkpt lat="44.73244" lon="5.67965">
        <ele>1147</ele>
        <time>2020-09-16T01:50:36Z</time>
      </trkpt>
      <trkpt lat="44.73251" lon="5.6797">
        <ele>1146</ele>
        <time>2020-09-16T01:50:37Z</time>
      </trkpt>
      <trkpt lat="44.73255" lon="5.67979">
        <ele>1144</ele>
        <time>2020-09-16T01:50:39Z</time>
      </trkpt>
      <trkpt lat="44.73258" lon="5.67991">
        <ele>1140</ele>
        <time>2020-09-16T01:50:40Z</time>
      </trkpt>
      <trkpt lat="44.73263" lon="5.68015">
        <ele>1134</ele>
        <time>2020-09-16T01:50:43Z</time>
      </trkpt>
      <trkpt lat="44.73269" lon="5.68031">
        <ele>1131</ele>
        <time>2020-09-16T01:50:46Z</time>
      </trkpt>
      <trkpt lat="44.73277" lon="5.68044">
        <ele>1128</ele>
        <time>2020-09-16T01:50:48Z</time>
      </trkpt>
      <trkpt lat="44.73286" lon="5.68054">
        <ele>1126</ele>
        <time>2020-09-16T01:50:50Z</time>
      </trkpt>
      <trkpt lat="44.73298" lon="5.68062">
        <ele>1125</ele>
        <time>2020-09-16T01:50:52Z</time>
      </trkpt>
      <trkpt lat="44.73326" lon="5.6807">
        <ele>1124</ele>
        <time>2020-09-16T01:50:57Z</time>
      </trkpt>
      <trkpt lat="44.73348" lon="5.68086">
        <ele>1119</ele>
        <time>2020-09-16T01:51:02Z</time>
      </trkpt>
      <trkpt lat="44.73362" lon="5.6809">
        <ele>1119</ele>
        <time>2020-09-16T01:51:04Z</time>
      </trkpt>
      <trkpt lat="44.73389" lon="5.68088">
        <ele>1124</ele>
        <time>2020-09-16T01:51:09Z</time>
      </trkpt>
      <trkpt lat="44.73403" lon="5.68089">
        <ele>1125</ele>
        <time>2020-09-16T01:51:12Z</time>
      </trkpt>
      <trkpt lat="44.73452" lon="5.68113">
        <ele>1115</ele>
        <time>2020-09-16T01:51:21Z</time>
      </trkpt>
      <trkpt lat="44.73467" lon="5.68119">
        <ele>1112</ele>
        <time>2020-09-16T01:51:24Z</time>
      </trkpt>
      <trkpt lat="44.7348" lon="5.68122">
        <ele>1111</ele>
        <time>2020-09-16T01:51:26Z</time>
      </trkpt>
      <trkpt lat="44.73508" lon="5.68123">
        <ele>1110</ele>
        <time>2020-09-16T01:51:31Z</time>
      </trkpt>
      <trkpt lat="44.73522" lon="5.6812">
        <ele>1109</ele>
        <time>2020-09-16T01:51:34Z</time>
      </trkpt>
      <trkpt lat="44.73539" lon="5.68113">
        <ele>1110</ele>
        <time>2020-09-16T01:51:37Z</time>
      </trkpt>
      <trkpt lat="44.73574" lon="5.68097">
        <ele>1110</ele>
        <time>2020-09-16T01:51:43Z</time>
      </trkpt>
      <trkpt lat="44.73586" lon="5.6809">
        <ele>1110</ele>
        <time>2020-09-16T01:51:46Z</time>
      </trkpt>
      <trkpt lat="44.73598" lon="5.6808">
        <ele>1109</ele>
        <time>2020-09-16T01:51:48Z</time>
      </trkpt>
      <trkpt lat="44.73649" lon="5.68033">
        <ele>1111</ele>
        <time>2020-09-16T01:51:59Z</time>
      </trkpt>
      <trkpt lat="44.7366" lon="5.68025">
        <ele>1110</ele>
        <time>2020-09-16T01:52:01Z</time>
      </trkpt>
      <trkpt lat="44.73681" lon="5.6802">
        <ele>1106</ele>
        <time>2020-09-16T01:52:05Z</time>
      </trkpt>
      <trkpt lat="44.73719" lon="5.68018">
        <ele>1099</ele>
        <time>2020-09-16T01:52:12Z</time>
      </trkpt>
      <trkpt lat="44.73762" lon="5.68019">
        <ele>1088</ele>
        <time>2020-09-16T01:52:19Z</time>
      </trkpt>
      <trkpt lat="44.7377" lon="5.68015">
        <ele>1087</ele>
        <time>2020-09-16T01:52:21Z</time>
      </trkpt>
      <trkpt lat="44.73777" lon="5.68009">
        <ele>1087</ele>
        <time>2020-09-16T01:52:22Z</time>
      </trkpt>
      <trkpt lat="44.73788" lon="5.6799">
        <ele>1089</ele>
        <time>2020-09-16T01:52:25Z</time>
      </trkpt>
      <trkpt lat="44.73793" lon="5.67977">
        <ele>1089</ele>
        <time>2020-09-16T01:52:27Z</time>
      </trkpt>
      <trkpt lat="44.73796" lon="5.67964">
        <ele>1090</ele>
        <time>2020-09-16T01:52:29Z</time>
      </trkpt>
      <trkpt lat="44.73794" lon="5.67917">
        <ele>1098</ele>
        <time>2020-09-16T01:52:35Z</time>
      </trkpt>
      <trkpt lat="44.73794" lon="5.67902">
        <ele>1099</ele>
        <time>2020-09-16T01:52:37Z</time>
      </trkpt>
      <trkpt lat="44.73797" lon="5.6789">
        <ele>1100</ele>
        <time>2020-09-16T01:52:38Z</time>
      </trkpt>
      <trkpt lat="44.73803" lon="5.67876">
        <ele>1099</ele>
        <time>2020-09-16T01:52:40Z</time>
      </trkpt>
      <trkpt lat="44.73813" lon="5.67865">
        <ele>1096</ele>
        <time>2020-09-16T01:52:43Z</time>
      </trkpt>
      <trkpt lat="44.73841" lon="5.67841">
        <ele>1089</ele>
        <time>2020-09-16T01:52:49Z</time>
      </trkpt>
      <trkpt lat="44.73852" lon="5.67829">
        <ele>1088</ele>
        <time>2020-09-16T01:52:51Z</time>
      </trkpt>
      <trkpt lat="44.73857" lon="5.67816">
        <ele>1089</ele>
        <time>2020-09-16T01:52:53Z</time>
      </trkpt>
      <trkpt lat="44.73872" lon="5.67775">
        <ele>1094</ele>
        <time>2020-09-16T01:52:59Z</time>
      </trkpt>
      <trkpt lat="44.73877" lon="5.67767">
        <ele>1094</ele>
        <time>2020-09-16T01:53:00Z</time>
      </trkpt>
      <trkpt lat="44.7389" lon="5.6776">
        <ele>1093</ele>
        <time>2020-09-16T01:53:03Z</time>
      </trkpt>
      <trkpt lat="44.73897" lon="5.67762">
        <ele>1092</ele>
        <time>2020-09-16T01:53:04Z</time>
      </trkpt>
      <trkpt lat="44.73904" lon="5.67767">
        <ele>1089</ele>
        <time>2020-09-16T01:53:05Z</time>
      </trkpt>
      <trkpt lat="44.7391" lon="5.67776">
        <ele>1087</ele>
        <time>2020-09-16T01:53:07Z</time>
      </trkpt>
      <trkpt lat="44.73921" lon="5.67804">
        <ele>1081</ele>
        <time>2020-09-16T01:53:11Z</time>
      </trkpt>
      <trkpt lat="44.73953" lon="5.67915">
        <ele>1073</ele>
        <time>2020-09-16T01:53:26Z</time>
      </trkpt>
      <trkpt lat="44.73965" lon="5.67979">
        <ele>1060</ele>
        <time>2020-09-16T01:53:34Z</time>
      </trkpt>
      <trkpt lat="44.7397" lon="5.67992">
        <ele>1057</ele>
        <time>2020-09-16T01:53:36Z</time>
      </trkpt>
      <trkpt lat="44.73977" lon="5.68003">
        <ele>1055</ele>
        <time>2020-09-16T01:53:38Z</time>
      </trkpt>
      <trkpt lat="44.73997" lon="5.68022">
        <ele>1051</ele>
        <time>2020-09-16T01:53:42Z</time>
      </trkpt>
      <trkpt lat="44.74094" lon="5.68072">
        <ele>1051</ele>
        <time>2020-09-16T01:54:01Z</time>
      </trkpt>
      <trkpt lat="44.7414" lon="5.68089">
        <ele>1046</ele>
        <time>2020-09-16T01:54:09Z</time>
      </trkpt>
      <trkpt lat="44.74166" lon="5.68095">
        <ele>1046</ele>
        <time>2020-09-16T01:54:14Z</time>
      </trkpt>
      <trkpt lat="44.74294" lon="5.68113">
        <ele>1038</ele>
        <time>2020-09-16T01:54:37Z</time>
      </trkpt>
      <trkpt lat="44.74327" lon="5.68123">
        <ele>1034</ele>
        <time>2020-09-16T01:54:43Z</time>
      </trkpt>
      <trkpt lat="44.74353" lon="5.68136">
        <ele>1029</ele>
        <time>2020-09-16T01:54:48Z</time>
      </trkpt>
      <trkpt lat="44.74371" lon="5.68144">
        <ele>1026</ele>
        <time>2020-09-16T01:54:51Z</time>
      </trkpt>
      <trkpt lat="44.74382" lon="5.68146">
        <ele>1024</ele>
        <time>2020-09-16T01:54:53Z</time>
      </trkpt>
      <trkpt lat="44.74394" lon="5.68146">
        <ele>1024</ele>
        <time>2020-09-16T01:54:55Z</time>
      </trkpt>
      <trkpt lat="44.74406" lon="5.68144">
        <ele>1024</ele>
        <time>2020-09-16T01:54:57Z</time>
      </trkpt>
      <trkpt lat="44.74431" lon="5.6813">
        <ele>1024</ele>
        <time>2020-09-16T01:55:02Z</time>
      </trkpt>
      <trkpt lat="44.74443" lon="5.68117">
        <ele>1023</ele>
        <time>2020-09-16T01:55:05Z</time>
      </trkpt>
      <trkpt lat="44.74489" lon="5.6806">
        <ele>1026</ele>
        <time>2020-09-16T01:55:16Z</time>
      </trkpt>
      <trkpt lat="44.74536" lon="5.68025">
        <ele>1020</ele>
        <time>2020-09-16T01:55:25Z</time>
      </trkpt>
      <trkpt lat="44.74546" lon="5.68015">
        <ele>1019</ele>
        <time>2020-09-16T01:55:27Z</time>
      </trkpt>
      <trkpt lat="44.7457" lon="5.67984">
        <ele>1020</ele>
        <time>2020-09-16T01:55:33Z</time>
      </trkpt>
      <trkpt lat="44.74627" lon="5.67893">
        <ele>1028</ele>
        <time>2020-09-16T01:55:48Z</time>
      </trkpt>
      <trkpt lat="44.74636" lon="5.67883">
        <ele>1029</ele>
        <time>2020-09-16T01:55:50Z</time>
      </trkpt>
      <trkpt lat="44.74646" lon="5.67876">
        <ele>1028</ele>
        <time>2020-09-16T01:55:52Z</time>
      </trkpt>
      <trkpt lat="44.74657" lon="5.67874">
        <ele>1024</ele>
        <time>2020-09-16T01:55:54Z</time>
      </trkpt>
      <trkpt lat="44.74699" lon="5.67869">
        <ele>1011</ele>
        <time>2020-09-16T01:56:02Z</time>
      </trkpt>
      <trkpt lat="44.74717" lon="5.67863">
        <ele>1008</ele>
        <time>2020-09-16T01:56:05Z</time>
      </trkpt>
      <trkpt lat="44.74747" lon="5.67845">
        <ele>1006</ele>
        <time>2020-09-16T01:56:11Z</time>
      </trkpt>
      <trkpt lat="44.74771" lon="5.67822">
        <ele>1006</ele>
        <time>2020-09-16T01:56:16Z</time>
      </trkpt>
      <trkpt lat="44.74828" lon="5.67746">
        <ele>1007</ele>
        <time>2020-09-16T01:56:30Z</time>
      </trkpt>
      <trkpt lat="44.74867" lon="5.67688">
        <ele>1005</ele>
        <time>2020-09-16T01:56:40Z</time>
      </trkpt>
      <trkpt lat="44.74914" lon="5.67601">
        <ele>998</ele>
        <time>2020-09-16T01:56:54Z</time>
      </trkpt>
      <trkpt lat="44.74947" lon="5.67526">
        <ele>1000</ele>
        <time>2020-09-16T01:57:05Z</time>
      </trkpt>
      <trkpt lat="44.74963" lon="5.67498">
        <ele>999</ele>
        <time>2020-09-16T01:57:10Z</time>
      </trkpt>
      <trkpt lat="44.74986" lon="5.67469">
        <ele>991</ele>
        <time>2020-09-16T01:57:15Z</time>
      </trkpt>
      <trkpt lat="44.75048" lon="5.67401">
        <ele>977</ele>
        <time>2020-09-16T01:57:29Z</time>
      </trkpt>
      <trkpt lat="44.7506" lon="5.67383">
        <ele>975</ele>
        <time>2020-09-16T01:57:32Z</time>
      </trkpt>
      <trkpt lat="44.75103" lon="5.67311">
        <ele>968</ele>
        <time>2020-09-16T01:57:44Z</time>
      </trkpt>
      <trkpt lat="44.75122" lon="5.67286">
        <ele>966</ele>
        <time>2020-09-16T01:57:49Z</time>
      </trkpt>
      <trkpt lat="44.75324" lon="5.67037">
        <ele>947</ele>
        <time>2020-09-16T01:58:37Z</time>
      </trkpt>
      <trkpt lat="44.75344" lon="5.67008">
        <ele>946</ele>
        <time>2020-09-16T01:58:42Z</time>
      </trkpt>
      <trkpt lat="44.75352" lon="5.66991">
        <ele>945</ele>
        <time>2020-09-16T01:58:44Z</time>
      </trkpt>
      <trkpt lat="44.75362" lon="5.66966">
        <ele>943</ele>
        <time>2020-09-16T01:58:48Z</time>
      </trkpt>
      <trkpt lat="44.75367" lon="5.6695">
        <ele>942</ele>
        <time>2020-09-16T01:58:50Z</time>
      </trkpt>
      <trkpt lat="44.75371" lon="5.6693">
        <ele>941</ele>
        <time>2020-09-16T01:58:53Z</time>
      </trkpt>
      <trkpt lat="44.75373" lon="5.66901">
        <ele>940</ele>
        <time>2020-09-16T01:58:56Z</time>
      </trkpt>
      <trkpt lat="44.75373" lon="5.66889">
        <ele>940</ele>
        <time>2020-09-16T01:58:58Z</time>
      </trkpt>
      <trkpt lat="44.75366" lon="5.66831">
        <ele>941</ele>
        <time>2020-09-16T01:59:05Z</time>
      </trkpt>
      <trkpt lat="44.75365" lon="5.66818">
        <ele>942</ele>
        <time>2020-09-16T01:59:07Z</time>
      </trkpt>
      <trkpt lat="44.75366" lon="5.66802">
        <ele>942</ele>
        <time>2020-09-16T01:59:09Z</time>
      </trkpt>
      <trkpt lat="44.7537" lon="5.66791">
        <ele>942</ele>
        <time>2020-09-16T01:59:11Z</time>
      </trkpt>
      <trkpt lat="44.75377" lon="5.6678">
        <ele>942</ele>
        <time>2020-09-16T01:59:13Z</time>
      </trkpt>
      <trkpt lat="44.75386" lon="5.66774">
        <ele>942</ele>
        <time>2020-09-16T01:59:14Z</time>
      </trkpt>
      <trkpt lat="44.75396" lon="5.66773">
        <ele>941</ele>
        <time>2020-09-16T01:59:16Z</time>
      </trkpt>
      <trkpt lat="44.75406" lon="5.66776">
        <ele>940</ele>
        <time>2020-09-16T01:59:18Z</time>
      </trkpt>
      <trkpt lat="44.75481" lon="5.6684">
        <ele>929</ele>
        <time>2020-09-16T01:59:34Z</time>
      </trkpt>
      <trkpt lat="44.75515" lon="5.66866">
        <ele>923</ele>
        <time>2020-09-16T01:59:40Z</time>
      </trkpt>
      <trkpt lat="44.75545" lon="5.66885">
        <ele>918</ele>
        <time>2020-09-16T01:59:46Z</time>
      </trkpt>
      <trkpt lat="44.75578" lon="5.66902">
        <ele>914</ele>
        <time>2020-09-16T01:59:52Z</time>
      </trkpt>
      <trkpt lat="44.75589" lon="5.66904">
        <ele>913</ele>
        <time>2020-09-16T01:59:54Z</time>
      </trkpt>
      <trkpt lat="44.75608" lon="5.66905">
        <ele>912</ele>
        <time>2020-09-16T01:59:58Z</time>
      </trkpt>
      <trkpt lat="44.7563" lon="5.66896">
        <ele>912</ele>
        <time>2020-09-16T02:00:02Z</time>
      </trkpt>
      <trkpt lat="44.7566" lon="5.66873">
        <ele>912</ele>
        <time>2020-09-16T02:00:08Z</time>
      </trkpt>
      <trkpt lat="44.75684" lon="5.66849">
        <ele>910</ele>
        <time>2020-09-16T02:00:13Z</time>
      </trkpt>
      <trkpt lat="44.75707" lon="5.66817">
        <ele>907</ele>
        <time>2020-09-16T02:00:19Z</time>
      </trkpt>
      <trkpt lat="44.75725" lon="5.66777">
        <ele>905</ele>
        <time>2020-09-16T02:00:25Z</time>
      </trkpt>
      <trkpt lat="44.75736" lon="5.66736">
        <ele>904</ele>
        <time>2020-09-16T02:00:31Z</time>
      </trkpt>
      <trkpt lat="44.7574" lon="5.66698">
        <ele>904</ele>
        <time>2020-09-16T02:00:35Z</time>
      </trkpt>
      <trkpt lat="44.7575" lon="5.66586">
        <ele>902</ele>
        <time>2020-09-16T02:00:50Z</time>
      </trkpt>
      <trkpt lat="44.75752" lon="5.6657">
        <ele>903</ele>
        <time>2020-09-16T02:00:52Z</time>
      </trkpt>
      <trkpt lat="44.75761" lon="5.66556">
        <ele>905</ele>
        <time>2020-09-16T02:00:54Z</time>
      </trkpt>
      <trkpt lat="44.75771" lon="5.66551">
        <ele>906</ele>
        <time>2020-09-16T02:00:56Z</time>
      </trkpt>
      <trkpt lat="44.75782" lon="5.66552">
        <ele>907</ele>
        <time>2020-09-16T02:00:58Z</time>
      </trkpt>
      <trkpt lat="44.75792" lon="5.66561">
        <ele>907</ele>
        <time>2020-09-16T02:01:00Z</time>
      </trkpt>
      <trkpt lat="44.75824" lon="5.66625">
        <ele>898</ele>
        <time>2020-09-16T02:01:10Z</time>
      </trkpt>
      <trkpt lat="44.75833" lon="5.66639">
        <ele>896</ele>
        <time>2020-09-16T02:01:12Z</time>
      </trkpt>
      <trkpt lat="44.75844" lon="5.66653">
        <ele>894</ele>
        <time>2020-09-16T02:01:15Z</time>
      </trkpt>
      <trkpt lat="44.75918" lon="5.66718">
        <ele>884</ele>
        <time>2020-09-16T02:01:30Z</time>
      </trkpt>
      <trkpt lat="44.75948" lon="5.66754">
        <ele>880</ele>
        <time>2020-09-16T02:01:37Z</time>
      </trkpt>
      <trkpt lat="44.75959" lon="5.66765">
        <ele>879</ele>
        <time>2020-09-16T02:01:40Z</time>
      </trkpt>
      <trkpt lat="44.75974" lon="5.66774">
        <ele>879</ele>
        <time>2020-09-16T02:01:43Z</time>
      </trkpt>
      <trkpt lat="44.75989" lon="5.66779">
        <ele>879</ele>
        <time>2020-09-16T02:01:46Z</time>
      </trkpt>
      <trkpt lat="44.76005" lon="5.66779">
        <ele>879</ele>
        <time>2020-09-16T02:01:48Z</time>
      </trkpt>
      <trkpt lat="44.76018" lon="5.66776">
        <ele>878</ele>
        <time>2020-09-16T02:01:51Z</time>
      </trkpt>
      <trkpt lat="44.76032" lon="5.66768">
        <ele>878</ele>
        <time>2020-09-16T02:01:53Z</time>
      </trkpt>
      <trkpt lat="44.76045" lon="5.66757">
        <ele>877</ele>
        <time>2020-09-16T02:01:56Z</time>
      </trkpt>
      <trkpt lat="44.76053" lon="5.66747">
        <ele>877</ele>
        <time>2020-09-16T02:01:58Z</time>
      </trkpt>
      <trkpt lat="44.76062" lon="5.66732">
        <ele>877</ele>
        <time>2020-09-16T02:02:00Z</time>
      </trkpt>
      <trkpt lat="44.76068" lon="5.66717">
        <ele>876</ele>
        <time>2020-09-16T02:02:03Z</time>
      </trkpt>
      <trkpt lat="44.76075" lon="5.66694">
        <ele>876</ele>
        <time>2020-09-16T02:02:06Z</time>
      </trkpt>
      <trkpt lat="44.76076" lon="5.6667">
        <ele>876</ele>
        <time>2020-09-16T02:02:09Z</time>
      </trkpt>
      <trkpt lat="44.76074" lon="5.66645">
        <ele>876</ele>
        <time>2020-09-16T02:02:12Z</time>
      </trkpt>
      <trkpt lat="44.76069" lon="5.66618">
        <ele>877</ele>
        <time>2020-09-16T02:02:16Z</time>
      </trkpt>
      <trkpt lat="44.76062" lon="5.66585">
        <ele>878</ele>
        <time>2020-09-16T02:02:20Z</time>
      </trkpt>
      <trkpt lat="44.7606" lon="5.66566">
        <ele>878</ele>
        <time>2020-09-16T02:02:22Z</time>
      </trkpt>
      <trkpt lat="44.7606" lon="5.66545">
        <ele>878</ele>
        <time>2020-09-16T02:02:25Z</time>
      </trkpt>
      <trkpt lat="44.76071" lon="5.66399">
        <ele>875</ele>
        <time>2020-09-16T02:02:44Z</time>
      </trkpt>
      <trkpt lat="44.76077" lon="5.66364">
        <ele>875</ele>
        <time>2020-09-16T02:02:48Z</time>
      </trkpt>
      <trkpt lat="44.76085" lon="5.66335">
        <ele>874</ele>
        <time>2020-09-16T02:02:52Z</time>
      </trkpt>
      <trkpt lat="44.76094" lon="5.66313">
        <ele>874</ele>
        <time>2020-09-16T02:02:55Z</time>
      </trkpt>
      <trkpt lat="44.76103" lon="5.66295">
        <ele>873</ele>
        <time>2020-09-16T02:02:58Z</time>
      </trkpt>
      <trkpt lat="44.76183" lon="5.66175">
        <ele>873</ele>
        <time>2020-09-16T02:03:19Z</time>
      </trkpt>
      <trkpt lat="44.76198" lon="5.66208">
        <ele>869</ele>
        <time>2020-09-16T02:03:24Z</time>
      </trkpt>
      <trkpt lat="44.76206" lon="5.66219">
        <ele>867</ele>
        <time>2020-09-16T02:03:26Z</time>
      </trkpt>
      <trkpt lat="44.76291" lon="5.66298">
        <ele>856</ele>
        <time>2020-09-16T02:03:44Z</time>
      </trkpt>
      <trkpt lat="44.76354" lon="5.66338">
        <ele>850</ele>
        <time>2020-09-16T02:03:56Z</time>
      </trkpt>
      <trkpt lat="44.76392" lon="5.66374">
        <ele>846</ele>
        <time>2020-09-16T02:04:04Z</time>
      </trkpt>
      <trkpt lat="44.76387" lon="5.6638">
        <ele>846</ele>
        <time>2020-09-16T02:04:05Z</time>
      </trkpt>
      <trkpt lat="44.76398" lon="5.664">
        <ele>845</ele>
        <time>2020-09-16T02:04:09Z</time>
      </trkpt>
      <trkpt lat="44.76404" lon="5.66407">
        <ele>844</ele>
        <time>2020-09-16T02:04:10Z</time>
      </trkpt>
      <trkpt lat="44.7641" lon="5.6641">
        <ele>844</ele>
        <time>2020-09-16T02:04:11Z</time>
      </trkpt>
      <trkpt lat="44.76417" lon="5.66415">
        <ele>843</ele>
        <time>2020-09-16T02:04:13Z</time>
      </trkpt>
      <trkpt lat="44.76428" lon="5.6643">
        <ele>842</ele>
        <time>2020-09-16T02:04:15Z</time>
      </trkpt>
      <trkpt lat="44.76451" lon="5.66438">
        <ele>840</ele>
        <time>2020-09-16T02:04:20Z</time>
      </trkpt>
      <trkpt lat="44.76461" lon="5.66442">
        <ele>839</ele>
        <time>2020-09-16T02:04:21Z</time>
      </trkpt>
      <trkpt lat="44.76466" lon="5.66442">
        <ele>838</ele>
        <time>2020-09-16T02:04:22Z</time>
      </trkpt>
      <trkpt lat="44.76493" lon="5.66428">
        <ele>837</ele>
        <time>2020-09-16T02:04:27Z</time>
      </trkpt>
      <trkpt lat="44.76514" lon="5.66418">
        <ele>836</ele>
        <time>2020-09-16T02:04:31Z</time>
      </trkpt>
      <trkpt lat="44.76527" lon="5.66413">
        <ele>835</ele>
        <time>2020-09-16T02:04:34Z</time>
      </trkpt>
      <trkpt lat="44.7654" lon="5.66412">
        <ele>834</ele>
        <time>2020-09-16T02:04:36Z</time>
      </trkpt>
      <trkpt lat="44.76549" lon="5.66414">
        <ele>834</ele>
        <time>2020-09-16T02:04:38Z</time>
      </trkpt>
      <trkpt lat="44.76563" lon="5.66421">
        <ele>832</ele>
        <time>2020-09-16T02:04:40Z</time>
      </trkpt>
      <trkpt lat="44.76583" lon="5.66434">
        <ele>830</ele>
        <time>2020-09-16T02:04:44Z</time>
      </trkpt>
      <trkpt lat="44.76644" lon="5.66484">
        <ele>822</ele>
        <time>2020-09-16T02:04:57Z</time>
      </trkpt>
      <trkpt lat="44.76672" lon="5.66508">
        <ele>819</ele>
        <time>2020-09-16T02:05:03Z</time>
      </trkpt>
      <trkpt lat="44.76684" lon="5.66524">
        <ele>818</ele>
        <time>2020-09-16T02:05:06Z</time>
      </trkpt>
      <trkpt lat="44.76694" lon="5.66543">
        <ele>817</ele>
        <time>2020-09-16T02:05:09Z</time>
      </trkpt>
      <trkpt lat="44.76722" lon="5.66581">
        <ele>813</ele>
        <time>2020-09-16T02:05:15Z</time>
      </trkpt>
      <trkpt lat="44.7674" lon="5.666">
        <ele>812</ele>
        <time>2020-09-16T02:05:19Z</time>
      </trkpt>
      <trkpt lat="44.76784" lon="5.6664">
        <ele>808</ele>
        <time>2020-09-16T02:05:29Z</time>
      </trkpt>
      <trkpt lat="44.76808" lon="5.66665">
        <ele>807</ele>
        <time>2020-09-16T02:05:34Z</time>
      </trkpt>
      <trkpt lat="44.76836" lon="5.66693">
        <ele>805</ele>
        <time>2020-09-16T02:05:40Z</time>
      </trkpt>
      <trkpt lat="44.76901" lon="5.66759">
        <ele>801</ele>
        <time>2020-09-16T02:05:54Z</time>
      </trkpt>
      <trkpt lat="44.76962" lon="5.66825">
        <ele>794</ele>
        <time>2020-09-16T02:06:08Z</time>
      </trkpt>
      <trkpt lat="44.76976" lon="5.66835">
        <ele>793</ele>
        <time>2020-09-16T02:06:11Z</time>
      </trkpt>
      <trkpt lat="44.77007" lon="5.66845">
        <ele>792</ele>
        <time>2020-09-16T02:06:17Z</time>
      </trkpt>
      <trkpt lat="44.77048" lon="5.6685">
        <ele>790</ele>
        <time>2020-09-16T02:06:24Z</time>
      </trkpt>
      <trkpt lat="44.77089" lon="5.66859">
        <ele>788</ele>
        <time>2020-09-16T02:06:31Z</time>
      </trkpt>
      <trkpt lat="44.77107" lon="5.66863">
        <ele>787</ele>
        <time>2020-09-16T02:06:35Z</time>
      </trkpt>
      <trkpt lat="44.77131" lon="5.66868">
        <ele>785</ele>
        <time>2020-09-16T02:06:39Z</time>
      </trkpt>
      <trkpt lat="44.77305" lon="5.66922">
        <ele>777</ele>
        <time>2020-09-16T02:07:11Z</time>
      </trkpt>
      <trkpt lat="44.77317" lon="5.66923">
        <ele>776</ele>
        <time>2020-09-16T02:07:13Z</time>
      </trkpt>
      <trkpt lat="44.77327" lon="5.66921">
        <ele>776</ele>
        <time>2020-09-16T02:07:15Z</time>
      </trkpt>
      <trkpt lat="44.77336" lon="5.66909">
        <ele>774</ele>
        <time>2020-09-16T02:07:17Z</time>
      </trkpt>
      <trkpt lat="44.77339" lon="5.66894">
        <ele>773</ele>
        <time>2020-09-16T02:07:19Z</time>
      </trkpt>
      <trkpt lat="44.77336" lon="5.66878">
        <ele>772</ele>
        <time>2020-09-16T02:07:21Z</time>
      </trkpt>
      <trkpt lat="44.77327" lon="5.66857">
        <ele>772</ele>
        <time>2020-09-16T02:07:24Z</time>
      </trkpt>
      <trkpt lat="44.7731" lon="5.6683">
        <ele>772</ele>
        <time>2020-09-16T02:07:28Z</time>
      </trkpt>
      <trkpt lat="44.77294" lon="5.66797">
        <ele>774</ele>
        <time>2020-09-16T02:07:33Z</time>
      </trkpt>
      <trkpt lat="44.77294" lon="5.66782">
        <ele>774</ele>
        <time>2020-09-16T02:07:35Z</time>
      </trkpt>
      <trkpt lat="44.77297" lon="5.66772">
        <ele>774</ele>
        <time>2020-09-16T02:07:37Z</time>
      </trkpt>
      <trkpt lat="44.77306" lon="5.66755">
        <ele>774</ele>
        <time>2020-09-16T02:07:39Z</time>
      </trkpt>
      <trkpt lat="44.77315" lon="5.66751">
        <ele>773</ele>
        <time>2020-09-16T02:07:41Z</time>
      </trkpt>
      <trkpt lat="44.77337" lon="5.66752">
        <ele>772</ele>
        <time>2020-09-16T02:07:45Z</time>
      </trkpt>
      <trkpt lat="44.77414" lon="5.66772">
        <ele>768</ele>
        <time>2020-09-16T02:07:59Z</time>
      </trkpt>
      <trkpt lat="44.77465" lon="5.66792">
        <ele>766</ele>
        <time>2020-09-16T02:08:08Z</time>
      </trkpt>
      <trkpt lat="44.77479" lon="5.66792">
        <ele>765</ele>
        <time>2020-09-16T02:08:11Z</time>
      </trkpt>
      <trkpt lat="44.77488" lon="5.66783">
        <ele>766</ele>
        <time>2020-09-16T02:08:13Z</time>
      </trkpt>
      <trkpt lat="44.77499" lon="5.66766">
        <ele>768</ele>
        <time>2020-09-16T02:08:16Z</time>
      </trkpt>
      <trkpt lat="44.77509" lon="5.66754">
        <ele>770</ele>
        <time>2020-09-16T02:08:18Z</time>
      </trkpt>
      <trkpt lat="44.7752" lon="5.66749">
        <ele>771</ele>
        <time>2020-09-16T02:08:20Z</time>
      </trkpt>
      <trkpt lat="44.77533" lon="5.66753">
        <ele>771</ele>
        <time>2020-09-16T02:08:22Z</time>
      </trkpt>
      <trkpt lat="44.77542" lon="5.66765">
        <ele>770</ele>
        <time>2020-09-16T02:08:25Z</time>
      </trkpt>
      <trkpt lat="44.77561" lon="5.66816">
        <ele>767</ele>
        <time>2020-09-16T02:08:32Z</time>
      </trkpt>
      <trkpt lat="44.77593" lon="5.66863">
        <ele>764</ele>
        <time>2020-09-16T02:08:40Z</time>
      </trkpt>
      <trkpt lat="44.77631" lon="5.66892">
        <ele>764</ele>
        <time>2020-09-16T02:08:48Z</time>
      </trkpt>
      <trkpt lat="44.7765" lon="5.66897">
        <ele>766</ele>
        <time>2020-09-16T02:08:51Z</time>
      </trkpt>
      <trkpt lat="44.77663" lon="5.66906">
        <ele>766</ele>
        <time>2020-09-16T02:08:54Z</time>
      </trkpt>
      <trkpt lat="44.77671" lon="5.66919">
        <ele>765</ele>
        <time>2020-09-16T02:08:56Z</time>
      </trkpt>
      <trkpt lat="44.7768" lon="5.66944">
        <ele>764</ele>
        <time>2020-09-16T02:09:00Z</time>
      </trkpt>
      <trkpt lat="44.7769" lon="5.66966">
        <ele>762</ele>
        <time>2020-09-16T02:09:03Z</time>
      </trkpt>
      <trkpt lat="44.777" lon="5.66979">
        <ele>761</ele>
        <time>2020-09-16T02:09:05Z</time>
      </trkpt>
      <trkpt lat="44.77717" lon="5.66989">
        <ele>761</ele>
        <time>2020-09-16T02:09:09Z</time>
      </trkpt>
      <trkpt lat="44.77751" lon="5.66993">
        <ele>764</ele>
        <time>2020-09-16T02:09:15Z</time>
      </trkpt>
      <trkpt lat="44.77768" lon="5.67001">
        <ele>765</ele>
        <time>2020-09-16T02:09:18Z</time>
      </trkpt>
      <trkpt lat="44.77791" lon="5.67016">
        <ele>767</ele>
        <time>2020-09-16T02:09:22Z</time>
      </trkpt>
      <trkpt lat="44.77805" lon="5.67042">
        <ele>765</ele>
        <time>2020-09-16T02:09:27Z</time>
      </trkpt>
      <trkpt lat="44.77816" lon="5.67055">
        <ele>765</ele>
        <time>2020-09-16T02:09:29Z</time>
      </trkpt>
      <trkpt lat="44.77844" lon="5.67069">
        <ele>769</ele>
        <time>2020-09-16T02:09:34Z</time>
      </trkpt>
      <trkpt lat="44.77855" lon="5.67085">
        <ele>769</ele>
        <time>2020-09-16T02:09:37Z</time>
      </trkpt>
      <trkpt lat="44.77874" lon="5.67135">
        <ele>763</ele>
        <time>2020-09-16T02:09:44Z</time>
      </trkpt>
      <trkpt lat="44.77886" lon="5.67155">
        <ele>761</ele>
        <time>2020-09-16T02:09:48Z</time>
      </trkpt>
      <trkpt lat="44.77902" lon="5.67174">
        <ele>760</ele>
        <time>2020-09-16T02:09:51Z</time>
      </trkpt>
      <trkpt lat="44.77988" lon="5.6726">
        <ele>750</ele>
        <time>2020-09-16T02:10:10Z</time>
      </trkpt>
      <trkpt lat="44.78006" lon="5.67292">
        <ele>748</ele>
        <time>2020-09-16T02:10:15Z</time>
      </trkpt>
      <trkpt lat="44.78026" lon="5.67346">
        <ele>742</ele>
        <time>2020-09-16T02:10:23Z</time>
      </trkpt>
      <trkpt lat="44.78038" lon="5.67384">
        <ele>740</ele>
        <time>2020-09-16T02:10:28Z</time>
      </trkpt>
      <trkpt lat="44.78044" lon="5.67411">
        <ele>738</ele>
        <time>2020-09-16T02:10:32Z</time>
      </trkpt>
      <trkpt lat="44.78074" lon="5.67622">
        <ele>731</ele>
        <time>2020-09-16T02:10:59Z</time>
      </trkpt>
      <trkpt lat="44.78096" lon="5.67747">
        <ele>723</ele>
        <time>2020-09-16T02:11:15Z</time>
      </trkpt>
      <trkpt lat="44.78105" lon="5.67763">
        <ele>723</ele>
        <time>2020-09-16T02:11:18Z</time>
      </trkpt>
      <trkpt lat="44.7812" lon="5.6778">
        <ele>723</ele>
        <time>2020-09-16T02:11:21Z</time>
      </trkpt>
      <trkpt lat="44.78156" lon="5.67816">
        <ele>721</ele>
        <time>2020-09-16T02:11:29Z</time>
      </trkpt>
      <trkpt lat="44.78254" lon="5.67921">
        <ele>717</ele>
        <time>2020-09-16T02:11:51Z</time>
      </trkpt>
      <trkpt lat="44.78312" lon="5.6798">
        <ele>711</ele>
        <time>2020-09-16T02:12:04Z</time>
      </trkpt>
      <trkpt lat="44.78337" lon="5.67999">
        <ele>709</ele>
        <time>2020-09-16T02:12:09Z</time>
      </trkpt>
      <trkpt lat="44.78355" lon="5.68008">
        <ele>709</ele>
        <time>2020-09-16T02:12:12Z</time>
      </trkpt>
      <trkpt lat="44.78372" lon="5.6801">
        <ele>709</ele>
        <time>2020-09-16T02:12:15Z</time>
      </trkpt>
      <trkpt lat="44.78416" lon="5.68006">
        <ele>710</ele>
        <time>2020-09-16T02:12:23Z</time>
      </trkpt>
      <trkpt lat="44.78438" lon="5.67995">
        <ele>712</ele>
        <time>2020-09-16T02:12:27Z</time>
      </trkpt>
      <trkpt lat="44.78445" lon="5.67995">
        <ele>712</ele>
        <time>2020-09-16T02:12:28Z</time>
      </trkpt>
      <trkpt lat="44.78451" lon="5.67999">
        <ele>712</ele>
        <time>2020-09-16T02:12:30Z</time>
      </trkpt>
      <trkpt lat="44.78456" lon="5.68007">
        <ele>711</ele>
        <time>2020-09-16T02:12:31Z</time>
      </trkpt>
      <trkpt lat="44.7846" lon="5.68021">
        <ele>708</ele>
        <time>2020-09-16T02:12:33Z</time>
      </trkpt>
      <trkpt lat="44.78451" lon="5.68029">
        <ele>707</ele>
        <time>2020-09-16T02:12:35Z</time>
      </trkpt>
      <trkpt lat="44.78416" lon="5.68043">
        <ele>704</ele>
        <time>2020-09-16T02:12:41Z</time>
      </trkpt>
      <trkpt lat="44.78403" lon="5.68056">
        <ele>703</ele>
        <time>2020-09-16T02:12:44Z</time>
      </trkpt>
      <trkpt lat="44.78399" lon="5.68071">
        <ele>701</ele>
        <time>2020-09-16T02:12:46Z</time>
      </trkpt>
      <trkpt lat="44.78402" lon="5.68089">
        <ele>698</ele>
        <time>2020-09-16T02:12:48Z</time>
      </trkpt>
      <trkpt lat="44.78412" lon="5.68099">
        <ele>696</ele>
        <time>2020-09-16T02:12:51Z</time>
      </trkpt>
      <trkpt lat="44.78429" lon="5.68106">
        <ele>695</ele>
        <time>2020-09-16T02:12:54Z</time>
      </trkpt>
      <trkpt lat="44.78444" lon="5.68107">
        <ele>694</ele>
        <time>2020-09-16T02:12:56Z</time>
      </trkpt>
      <trkpt lat="44.78456" lon="5.68103">
        <ele>694</ele>
        <time>2020-09-16T02:12:59Z</time>
      </trkpt>
      <trkpt lat="44.78478" lon="5.68085">
        <ele>697</ele>
        <time>2020-09-16T02:13:03Z</time>
      </trkpt>
      <trkpt lat="44.78488" lon="5.68082">
        <ele>697</ele>
        <time>2020-09-16T02:13:05Z</time>
      </trkpt>
      <trkpt lat="44.78496" lon="5.68084">
        <ele>697</ele>
        <time>2020-09-16T02:13:06Z</time>
      </trkpt>
      <trkpt lat="44.78502" lon="5.68092">
        <ele>695</ele>
        <time>2020-09-16T02:13:08Z</time>
      </trkpt>
      <trkpt lat="44.78503" lon="5.68104">
        <ele>692</ele>
        <time>2020-09-16T02:13:09Z</time>
      </trkpt>
      <trkpt lat="44.78497" lon="5.68115">
        <ele>691</ele>
        <time>2020-09-16T02:13:11Z</time>
      </trkpt>
      <trkpt lat="44.78456" lon="5.68144">
        <ele>687</ele>
        <time>2020-09-16T02:13:19Z</time>
      </trkpt>
      <trkpt lat="44.78439" lon="5.68152">
        <ele>687</ele>
        <time>2020-09-16T02:13:23Z</time>
      </trkpt>
      <trkpt lat="44.78431" lon="5.6816">
        <ele>687</ele>
        <time>2020-09-16T02:13:24Z</time>
      </trkpt>
      <trkpt lat="44.78429" lon="5.68171">
        <ele>686</ele>
        <time>2020-09-16T02:13:26Z</time>
      </trkpt>
      <trkpt lat="44.78431" lon="5.68182">
        <ele>685</ele>
        <time>2020-09-16T02:13:27Z</time>
      </trkpt>
      <trkpt lat="44.78438" lon="5.68188">
        <ele>684</ele>
        <time>2020-09-16T02:13:29Z</time>
      </trkpt>
      <trkpt lat="44.78447" lon="5.68188">
        <ele>683</ele>
        <time>2020-09-16T02:13:30Z</time>
      </trkpt>
      <trkpt lat="44.78481" lon="5.68168">
        <ele>681</ele>
        <time>2020-09-16T02:13:37Z</time>
      </trkpt>
      <trkpt lat="44.78495" lon="5.68165">
        <ele>681</ele>
        <time>2020-09-16T02:13:39Z</time>
      </trkpt>
      <trkpt lat="44.78508" lon="5.68167">
        <ele>679</ele>
        <time>2020-09-16T02:13:42Z</time>
      </trkpt>
      <trkpt lat="44.78584" lon="5.68184">
        <ele>673</ele>
        <time>2020-09-16T02:13:55Z</time>
      </trkpt>
      <trkpt lat="44.78596" lon="5.68187">
        <ele>673</ele>
        <time>2020-09-16T02:13:57Z</time>
      </trkpt>
      <trkpt lat="44.78603" lon="5.68195">
        <ele>673</ele>
        <time>2020-09-16T02:13:59Z</time>
      </trkpt>
      <trkpt lat="44.78607" lon="5.68206">
        <ele>674</ele>
        <time>2020-09-16T02:14:01Z</time>
      </trkpt>
      <trkpt lat="44.78605" lon="5.6822">
        <ele>675</ele>
        <time>2020-09-16T02:14:02Z</time>
      </trkpt>
      <trkpt lat="44.78594" lon="5.68251">
        <ele>678</ele>
        <time>2020-09-16T02:14:07Z</time>
      </trkpt>
      <trkpt lat="44.78593" lon="5.68265">
        <ele>679</ele>
        <time>2020-09-16T02:14:09Z</time>
      </trkpt>
      <trkpt lat="44.78599" lon="5.68277">
        <ele>680</ele>
        <time>2020-09-16T02:14:10Z</time>
      </trkpt>
      <trkpt lat="44.78609" lon="5.68277">
        <ele>681</ele>
        <time>2020-09-16T02:14:12Z</time>
      </trkpt>
      <trkpt lat="44.78625" lon="5.68266">
        <ele>681</ele>
        <time>2020-09-16T02:14:15Z</time>
      </trkpt>
      <trkpt lat="44.78634" lon="5.68268">
        <ele>682</ele>
        <time>2020-09-16T02:14:17Z</time>
      </trkpt>
      <trkpt lat="44.78645" lon="5.68283">
        <ele>685</ele>
        <time>2020-09-16T02:14:20Z</time>
      </trkpt>
      <trkpt lat="44.78651" lon="5.68298">
        <ele>689</ele>
        <time>2020-09-16T02:14:22Z</time>
      </trkpt>
      <trkpt lat="44.78655" lon="5.68315">
        <ele>692</ele>
        <time>2020-09-16T02:14:24Z</time>
      </trkpt>
      <trkpt lat="44.78653" lon="5.68334">
        <ele>695</ele>
        <time>2020-09-16T02:14:27Z</time>
      </trkpt>
      <trkpt lat="44.78637" lon="5.68404">
        <ele>699</ele>
        <time>2020-09-16T02:14:36Z</time>
      </trkpt>
      <trkpt lat="44.78611" lon="5.68494">
        <ele>703</ele>
        <time>2020-09-16T02:14:48Z</time>
      </trkpt>
      <trkpt lat="44.78594" lon="5.68543">
        <ele>706</ele>
        <time>2020-09-16T02:14:55Z</time>
      </trkpt>
      <trkpt lat="44.78565" lon="5.68595">
        <ele>708</ele>
        <time>2020-09-16T02:15:03Z</time>
      </trkpt>
      <trkpt lat="44.78539" lon="5.68631">
        <ele>710</ele>
        <time>2020-09-16T02:15:10Z</time>
      </trkpt>
      <trkpt lat="44.78536" lon="5.68646">
        <ele>712</ele>
        <time>2020-09-16T02:15:12Z</time>
      </trkpt>
      <trkpt lat="44.78537" lon="5.68661">
        <ele>715</ele>
        <time>2020-09-16T02:15:14Z</time>
      </trkpt>
      <trkpt lat="44.78543" lon="5.68672">
        <ele>717</ele>
        <time>2020-09-16T02:15:16Z</time>
      </trkpt>
      <trkpt lat="44.78554" lon="5.68676">
        <ele>718</ele>
        <time>2020-09-16T02:15:18Z</time>
      </trkpt>
      <trkpt lat="44.78562" lon="5.68676">
        <ele>719</ele>
        <time>2020-09-16T02:15:19Z</time>
      </trkpt>
      <trkpt lat="44.78584" lon="5.68669">
        <ele>720</ele>
        <time>2020-09-16T02:15:23Z</time>
      </trkpt>
      <trkpt lat="44.78603" lon="5.68666">
        <ele>722</ele>
        <time>2020-09-16T02:15:26Z</time>
      </trkpt>
      <trkpt lat="44.78652" lon="5.68666">
        <ele>728</ele>
        <time>2020-09-16T02:15:35Z</time>
      </trkpt>
      <trkpt lat="44.78666" lon="5.68663">
        <ele>730</ele>
        <time>2020-09-16T02:15:38Z</time>
      </trkpt>
      <trkpt lat="44.78682" lon="5.68655">
        <ele>730</ele>
        <time>2020-09-16T02:15:41Z</time>
      </trkpt>
      <trkpt lat="44.78702" lon="5.68637">
        <ele>731</ele>
        <time>2020-09-16T02:15:45Z</time>
      </trkpt>
      <trkpt lat="44.78724" lon="5.68614">
        <ele>731</ele>
        <time>2020-09-16T02:15:50Z</time>
      </trkpt>
      <trkpt lat="44.78739" lon="5.68593">
        <ele>731</ele>
        <time>2020-09-16T02:15:53Z</time>
      </trkpt>
      <trkpt lat="44.78753" lon="5.68569">
        <ele>731</ele>
        <time>2020-09-16T02:15:57Z</time>
      </trkpt>
      <trkpt lat="44.78759" lon="5.68562">
        <ele>731</ele>
        <time>2020-09-16T02:15:59Z</time>
      </trkpt>
      <trkpt lat="44.78765" lon="5.68558">
        <ele>731</ele>
        <time>2020-09-16T02:16:00Z</time>
      </trkpt>
      <trkpt lat="44.78773" lon="5.68559">
        <ele>731</ele>
        <time>2020-09-16T02:16:01Z</time>
      </trkpt>
      <trkpt lat="44.78778" lon="5.68564">
        <ele>732</ele>
        <time>2020-09-16T02:16:03Z</time>
      </trkpt>
      <trkpt lat="44.78785" lon="5.68578">
        <ele>733</ele>
        <time>2020-09-16T02:16:05Z</time>
      </trkpt>
      <trkpt lat="44.7891" lon="5.69119">
        <ele>742</ele>
        <time>2020-09-16T02:17:17Z</time>
      </trkpt>
      <trkpt lat="44.78929" lon="5.69261">
        <ele>744</ele>
        <time>2020-09-16T02:17:35Z</time>
      </trkpt>
      <trkpt lat="44.78939" lon="5.69307">
        <ele>746</ele>
        <time>2020-09-16T02:17:41Z</time>
      </trkpt>
      <trkpt lat="44.7895" lon="5.69335">
        <ele>747</ele>
        <time>2020-09-16T02:17:45Z</time>
      </trkpt>
      <trkpt lat="44.78967" lon="5.69358">
        <ele>749</ele>
        <time>2020-09-16T02:17:49Z</time>
      </trkpt>
      <trkpt lat="44.7898" lon="5.6937">
        <ele>750</ele>
        <time>2020-09-16T02:17:52Z</time>
      </trkpt>
      <trkpt lat="44.78994" lon="5.69378">
        <ele>750</ele>
        <time>2020-09-16T02:17:55Z</time>
      </trkpt>
      <trkpt lat="44.79046" lon="5.694">
        <ele>753</ele>
        <time>2020-09-16T02:18:04Z</time>
      </trkpt>
      <trkpt lat="44.79059" lon="5.69408">
        <ele>754</ele>
        <time>2020-09-16T02:18:07Z</time>
      </trkpt>
      <trkpt lat="44.79072" lon="5.69428">
        <ele>756</ele>
        <time>2020-09-16T02:18:10Z</time>
      </trkpt>
      <trkpt lat="44.79076" lon="5.69443">
        <ele>756</ele>
        <time>2020-09-16T02:18:12Z</time>
      </trkpt>
      <trkpt lat="44.7911" lon="5.69421">
        <ele>755</ele>
        <time>2020-09-16T02:18:19Z</time>
      </trkpt>
      <trkpt lat="44.79167" lon="5.69398">
        <ele>752</ele>
        <time>2020-09-16T02:18:29Z</time>
      </trkpt>
      <trkpt lat="44.79306" lon="5.69352">
        <ele>744</ele>
        <time>2020-09-16T02:18:55Z</time>
      </trkpt>
      <trkpt lat="44.79338" lon="5.69344">
        <ele>744</ele>
        <time>2020-09-16T02:19:01Z</time>
      </trkpt>
      <trkpt lat="44.79472" lon="5.69379">
        <ele>741</ele>
        <time>2020-09-16T02:19:25Z</time>
      </trkpt>
      <trkpt lat="44.79493" lon="5.69391">
        <ele>740</ele>
        <time>2020-09-16T02:19:29Z</time>
      </trkpt>
      <trkpt lat="44.79587" lon="5.69458">
        <ele>734</ele>
        <time>2020-09-16T02:19:48Z</time>
      </trkpt>
      <trkpt lat="44.79602" lon="5.69467">
        <ele>733</ele>
        <time>2020-09-16T02:19:50Z</time>
      </trkpt>
      <trkpt lat="44.79723" lon="5.69513">
        <ele>726</ele>
        <time>2020-09-16T02:20:13Z</time>
      </trkpt>
      <trkpt lat="44.79746" lon="5.69525">
        <ele>724</ele>
        <time>2020-09-16T02:20:17Z</time>
      </trkpt>
      <trkpt lat="44.79808" lon="5.69564">
        <ele>721</ele>
        <time>2020-09-16T02:20:29Z</time>
      </trkpt>
      <trkpt lat="44.79834" lon="5.69576">
        <ele>720</ele>
        <time>2020-09-16T02:20:34Z</time>
      </trkpt>
      <trkpt lat="44.79874" lon="5.6958">
        <ele>718</ele>
        <time>2020-09-16T02:20:41Z</time>
      </trkpt>
      <trkpt lat="44.79899" lon="5.69579">
        <ele>716</ele>
        <time>2020-09-16T02:20:46Z</time>
      </trkpt>
      <trkpt lat="44.80019" lon="5.69565">
        <ele>707</ele>
        <time>2020-09-16T02:21:07Z</time>
      </trkpt>
      <trkpt lat="44.80118" lon="5.69548">
        <ele>699</ele>
        <time>2020-09-16T02:21:25Z</time>
      </trkpt>
      <trkpt lat="44.80232" lon="5.69532">
        <ele>690</ele>
        <time>2020-09-16T02:21:45Z</time>
      </trkpt>
      <trkpt lat="44.80285" lon="5.6953">
        <ele>688</ele>
        <time>2020-09-16T02:21:55Z</time>
      </trkpt>
      <trkpt lat="44.80298" lon="5.69534">
        <ele>687</ele>
        <time>2020-09-16T02:21:57Z</time>
      </trkpt>
      <trkpt lat="44.80336" lon="5.69551">
        <ele>684</ele>
        <time>2020-09-16T02:22:04Z</time>
      </trkpt>
      <trkpt lat="44.80359" lon="5.69553">
        <ele>682</ele>
        <time>2020-09-16T02:22:08Z</time>
      </trkpt>
      <trkpt lat="44.80368" lon="5.69552">
        <ele>682</ele>
        <time>2020-09-16T02:22:10Z</time>
      </trkpt>
      <trkpt lat="44.8038" lon="5.69546">
        <ele>682</ele>
        <time>2020-09-16T02:22:12Z</time>
      </trkpt>
      <trkpt lat="44.80406" lon="5.69526">
        <ele>685</ele>
        <time>2020-09-16T02:22:17Z</time>
      </trkpt>
      <trkpt lat="44.80412" lon="5.69524">
        <ele>685</ele>
        <time>2020-09-16T02:22:18Z</time>
      </trkpt>
      <trkpt lat="44.80417" lon="5.69525">
        <ele>685</ele>
        <time>2020-09-16T02:22:19Z</time>
      </trkpt>
      <trkpt lat="44.80423" lon="5.6953">
        <ele>683</ele>
        <time>2020-09-16T02:22:21Z</time>
      </trkpt>
      <trkpt lat="44.80425" lon="5.69535">
        <ele>681</ele>
        <time>2020-09-16T02:22:21Z</time>
      </trkpt>
      <trkpt lat="44.80425" lon="5.69544">
        <ele>679</ele>
        <time>2020-09-16T02:22:22Z</time>
      </trkpt>
      <trkpt lat="44.80421" lon="5.69555">
        <ele>677</ele>
        <time>2020-09-16T02:22:24Z</time>
      </trkpt>
      <trkpt lat="44.80402" lon="5.69583">
        <ele>673</ele>
        <time>2020-09-16T02:22:29Z</time>
      </trkpt>
      <trkpt lat="44.80396" lon="5.69599">
        <ele>673</ele>
        <time>2020-09-16T02:22:31Z</time>
      </trkpt>
      <trkpt lat="44.80394" lon="5.69611">
        <ele>672</ele>
        <time>2020-09-16T02:22:33Z</time>
      </trkpt>
      <trkpt lat="44.80399" lon="5.69633">
        <ele>671</ele>
        <time>2020-09-16T02:22:36Z</time>
      </trkpt>
      <trkpt lat="44.8041" lon="5.69672">
        <ele>669</ele>
        <time>2020-09-16T02:22:41Z</time>
      </trkpt>
      <trkpt lat="44.80416" lon="5.69681">
        <ele>670</ele>
        <time>2020-09-16T02:22:43Z</time>
      </trkpt>
      <trkpt lat="44.80423" lon="5.69688">
        <ele>671</ele>
        <time>2020-09-16T02:22:44Z</time>
      </trkpt>
      <trkpt lat="44.8043" lon="5.69689">
        <ele>671</ele>
        <time>2020-09-16T02:22:45Z</time>
      </trkpt>
      <trkpt lat="44.80438" lon="5.69687">
        <ele>671</ele>
        <time>2020-09-16T02:22:47Z</time>
      </trkpt>
      <trkpt lat="44.80448" lon="5.6968">
        <ele>670</ele>
        <time>2020-09-16T02:22:49Z</time>
      </trkpt>
      <trkpt lat="44.80465" lon="5.69661">
        <ele>668</ele>
        <time>2020-09-16T02:22:53Z</time>
      </trkpt>
      <trkpt lat="44.80489" lon="5.69625">
        <ele>665</ele>
        <time>2020-09-16T02:22:59Z</time>
      </trkpt>
      <trkpt lat="44.80496" lon="5.69618">
        <ele>664</ele>
        <time>2020-09-16T02:23:00Z</time>
      </trkpt>
      <trkpt lat="44.80506" lon="5.69612">
        <ele>662</ele>
        <time>2020-09-16T02:23:02Z</time>
      </trkpt>
      <trkpt lat="44.80515" lon="5.69611">
        <ele>662</ele>
        <time>2020-09-16T02:23:04Z</time>
      </trkpt>
      <trkpt lat="44.80524" lon="5.69615">
        <ele>662</ele>
        <time>2020-09-16T02:23:06Z</time>
      </trkpt>
      <trkpt lat="44.80531" lon="5.69622">
        <ele>663</ele>
        <time>2020-09-16T02:23:07Z</time>
      </trkpt>
      <trkpt lat="44.80545" lon="5.69651">
        <ele>666</ele>
        <time>2020-09-16T02:23:12Z</time>
      </trkpt>
      <trkpt lat="44.80553" lon="5.6966">
        <ele>667</ele>
        <time>2020-09-16T02:23:13Z</time>
      </trkpt>
      <trkpt lat="44.80562" lon="5.69662">
        <ele>667</ele>
        <time>2020-09-16T02:23:15Z</time>
      </trkpt>
      <trkpt lat="44.80598" lon="5.69655">
        <ele>664</ele>
        <time>2020-09-16T02:23:21Z</time>
      </trkpt>
      <trkpt lat="44.80607" lon="5.69657">
        <ele>663</ele>
        <time>2020-09-16T02:23:23Z</time>
      </trkpt>
      <trkpt lat="44.80631" lon="5.69671">
        <ele>661</ele>
        <time>2020-09-16T02:23:28Z</time>
      </trkpt>
      <trkpt lat="44.80724" lon="5.6971">
        <ele>654</ele>
        <time>2020-09-16T02:23:45Z</time>
      </trkpt>
      <trkpt lat="44.80762" lon="5.6973">
        <ele>648</ele>
        <time>2020-09-16T02:23:52Z</time>
      </trkpt>
      <trkpt lat="44.80769" lon="5.6974">
        <ele>648</ele>
        <time>2020-09-16T02:23:54Z</time>
      </trkpt>
      <trkpt lat="44.80773" lon="5.69753">
        <ele>647</ele>
        <time>2020-09-16T02:23:56Z</time>
      </trkpt>
      <trkpt lat="44.80773" lon="5.69772">
        <ele>647</ele>
        <time>2020-09-16T02:23:58Z</time>
      </trkpt>
      <trkpt lat="44.80769" lon="5.69808">
        <ele>648</ele>
        <time>2020-09-16T02:24:03Z</time>
      </trkpt>
      <trkpt lat="44.80762" lon="5.69839">
        <ele>649</ele>
        <time>2020-09-16T02:24:07Z</time>
      </trkpt>
      <trkpt lat="44.80759" lon="5.69866">
        <ele>650</ele>
        <time>2020-09-16T02:24:10Z</time>
      </trkpt>
      <trkpt lat="44.80759" lon="5.69893">
        <ele>649</ele>
        <time>2020-09-16T02:24:14Z</time>
      </trkpt>
      <trkpt lat="44.80772" lon="5.69985">
        <ele>645</ele>
        <time>2020-09-16T02:24:26Z</time>
      </trkpt>
      <trkpt lat="44.8078" lon="5.70012">
        <ele>643</ele>
        <time>2020-09-16T02:24:29Z</time>
      </trkpt>
      <trkpt lat="44.80787" lon="5.70026">
        <ele>641</ele>
        <time>2020-09-16T02:24:31Z</time>
      </trkpt>
      <trkpt lat="44.80811" lon="5.70063">
        <ele>636</ele>
        <time>2020-09-16T02:24:38Z</time>
      </trkpt>
      <trkpt lat="44.80818" lon="5.7007">
        <ele>634</ele>
        <time>2020-09-16T02:24:39Z</time>
      </trkpt>
      <trkpt lat="44.80831" lon="5.70073">
        <ele>630</ele>
        <time>2020-09-16T02:24:42Z</time>
      </trkpt>
      <trkpt lat="44.80853" lon="5.70077">
        <ele>634</ele>
        <time>2020-09-16T02:24:46Z</time>
      </trkpt>
      <trkpt lat="44.80859" lon="5.70078">
        <ele>635</ele>
        <time>2020-09-16T02:24:47Z</time>
      </trkpt>
      <trkpt lat="44.80859" lon="5.70056">
        <ele>634</ele>
        <time>2020-09-16T02:24:49Z</time>
      </trkpt>
      <trkpt lat="44.80853" lon="5.70006">
        <ele>632</ele>
        <time>2020-09-16T02:24:56Z</time>
      </trkpt>
      <trkpt lat="44.80839" lon="5.69952">
        <ele>630</ele>
        <time>2020-09-16T02:25:03Z</time>
      </trkpt>
      <trkpt lat="44.80837" lon="5.69935">
        <ele>630</ele>
        <time>2020-09-16T02:25:05Z</time>
      </trkpt>
      <trkpt lat="44.80839" lon="5.69908">
        <ele>631</ele>
        <time>2020-09-16T02:25:09Z</time>
      </trkpt>
      <trkpt lat="44.80855" lon="5.69862">
        <ele>632</ele>
        <time>2020-09-16T02:25:15Z</time>
      </trkpt>
      <trkpt lat="44.80886" lon="5.69766">
        <ele>632</ele>
        <time>2020-09-16T02:25:28Z</time>
      </trkpt>
      <trkpt lat="44.80898" lon="5.69735">
        <ele>631</ele>
        <time>2020-09-16T02:25:33Z</time>
      </trkpt>
      <trkpt lat="44.80917" lon="5.69692">
        <ele>628</ele>
        <time>2020-09-16T02:25:39Z</time>
      </trkpt>
      <trkpt lat="44.80987" lon="5.69551">
        <ele>631</ele>
        <time>2020-09-16T02:26:01Z</time>
      </trkpt>
      <trkpt lat="44.81003" lon="5.69524">
        <ele>627</ele>
        <time>2020-09-16T02:26:05Z</time>
      </trkpt>
      <trkpt lat="44.81128" lon="5.6934">
        <ele>625</ele>
        <time>2020-09-16T02:26:38Z</time>
      </trkpt>
      <trkpt lat="44.81137" lon="5.69325">
        <ele>625</ele>
        <time>2020-09-16T02:26:40Z</time>
      </trkpt>
      <trkpt lat="44.81144" lon="5.69306">
        <ele>625</ele>
        <time>2020-09-16T02:26:43Z</time>
      </trkpt>
      <trkpt lat="44.81156" lon="5.69265">
        <ele>623</ele>
        <time>2020-09-16T02:26:48Z</time>
      </trkpt>
      <trkpt lat="44.81162" lon="5.69254">
        <ele>622</ele>
        <time>2020-09-16T02:26:50Z</time>
      </trkpt>
      <trkpt lat="44.81169" lon="5.69245">
        <ele>621</ele>
        <time>2020-09-16T02:26:52Z</time>
      </trkpt>
      <trkpt lat="44.8118" lon="5.6924">
        <ele>622</ele>
        <time>2020-09-16T02:26:54Z</time>
      </trkpt>
      <trkpt lat="44.81205" lon="5.69234">
        <ele>622</ele>
        <time>2020-09-16T02:26:58Z</time>
      </trkpt>
      <trkpt lat="44.81216" lon="5.69229">
        <ele>622</ele>
        <time>2020-09-16T02:27:00Z</time>
      </trkpt>
      <trkpt lat="44.81226" lon="5.69219">
        <ele>622</ele>
        <time>2020-09-16T02:27:03Z</time>
      </trkpt>
      <trkpt lat="44.81243" lon="5.69193">
        <ele>620</ele>
        <time>2020-09-16T02:27:07Z</time>
      </trkpt>
      <trkpt lat="44.81263" lon="5.69159">
        <ele>618</ele>
        <time>2020-09-16T02:27:13Z</time>
      </trkpt>
      <trkpt lat="44.81285" lon="5.69095">
        <ele>621</ele>
        <time>2020-09-16T02:27:22Z</time>
      </trkpt>
      <trkpt lat="44.81296" lon="5.69073">
        <ele>621</ele>
        <time>2020-09-16T02:27:25Z</time>
      </trkpt>
      <trkpt lat="44.81319" lon="5.69039">
        <ele>620</ele>
        <time>2020-09-16T02:27:31Z</time>
      </trkpt>
      <trkpt lat="44.8133" lon="5.69018">
        <ele>619</ele>
        <time>2020-09-16T02:27:34Z</time>
      </trkpt>
      <trkpt lat="44.81338" lon="5.68995">
        <ele>619</ele>
        <time>2020-09-16T02:27:38Z</time>
      </trkpt>
      <trkpt lat="44.81346" lon="5.68949">
        <ele>623</ele>
        <time>2020-09-16T02:27:43Z</time>
      </trkpt>
      <trkpt lat="44.81353" lon="5.68924">
        <ele>624</ele>
        <time>2020-09-16T02:27:47Z</time>
      </trkpt>
      <trkpt lat="44.8136" lon="5.68908">
        <ele>624</ele>
        <time>2020-09-16T02:27:49Z</time>
      </trkpt>
      <trkpt lat="44.81369" lon="5.68895">
        <ele>623</ele>
        <time>2020-09-16T02:27:52Z</time>
      </trkpt>
      <trkpt lat="44.81381" lon="5.68882">
        <ele>622</ele>
        <time>2020-09-16T02:27:54Z</time>
      </trkpt>
      <trkpt lat="44.8142" lon="5.6885">
        <ele>618</ele>
        <time>2020-09-16T02:28:02Z</time>
      </trkpt>
      <trkpt lat="44.8143" lon="5.68838">
        <ele>618</ele>
        <time>2020-09-16T02:28:05Z</time>
      </trkpt>
      <trkpt lat="44.81439" lon="5.68823">
        <ele>618</ele>
        <time>2020-09-16T02:28:07Z</time>
      </trkpt>
      <trkpt lat="44.81476" lon="5.68754">
        <ele>614</ele>
        <time>2020-09-16T02:28:18Z</time>
      </trkpt>
      <trkpt lat="44.81521" lon="5.68673">
        <ele>611</ele>
        <time>2020-09-16T02:28:31Z</time>
      </trkpt>
      <trkpt lat="44.81528" lon="5.68658">
        <ele>611</ele>
        <time>2020-09-16T02:28:33Z</time>
      </trkpt>
      <trkpt lat="44.81533" lon="5.68639">
        <ele>610</ele>
        <time>2020-09-16T02:28:36Z</time>
      </trkpt>
      <trkpt lat="44.81541" lon="5.68602">
        <ele>609</ele>
        <time>2020-09-16T02:28:41Z</time>
      </trkpt>
      <trkpt lat="44.81576" lon="5.68336">
        <ele>600</ele>
        <time>2020-09-16T02:29:15Z</time>
      </trkpt>
      <trkpt lat="44.81586" lon="5.68266">
        <ele>598</ele>
        <time>2020-09-16T02:29:24Z</time>
      </trkpt>
      <trkpt lat="44.81592" lon="5.68243">
        <ele>598</ele>
        <time>2020-09-16T02:29:27Z</time>
      </trkpt>
      <trkpt lat="44.81617" lon="5.68182">
        <ele>597</ele>
        <time>2020-09-16T02:29:36Z</time>
      </trkpt>
      <trkpt lat="44.8164" lon="5.68152">
        <ele>596</ele>
        <time>2020-09-16T02:29:41Z</time>
      </trkpt>
      <trkpt lat="44.81672" lon="5.68119">
        <ele>595</ele>
        <time>2020-09-16T02:29:48Z</time>
      </trkpt>
      <trkpt lat="44.81685" lon="5.68107">
        <ele>596</ele>
        <time>2020-09-16T02:29:51Z</time>
      </trkpt>
      <trkpt lat="44.81717" lon="5.68082">
        <ele>599</ele>
        <time>2020-09-16T02:29:58Z</time>
      </trkpt>
      <trkpt lat="44.81796" lon="5.68007">
        <ele>602</ele>
        <time>2020-09-16T02:30:15Z</time>
      </trkpt>
      <trkpt lat="44.81814" lon="5.67986">
        <ele>603</ele>
        <time>2020-09-16T02:30:19Z</time>
      </trkpt>
      <trkpt lat="44.81826" lon="5.67964">
        <ele>602</ele>
        <time>2020-09-16T02:30:22Z</time>
      </trkpt>
      <trkpt lat="44.81909" lon="5.67765">
        <ele>597</ele>
        <time>2020-09-16T02:30:51Z</time>
      </trkpt>
      <trkpt lat="44.81916" lon="5.67745">
        <ele>597</ele>
        <time>2020-09-16T02:30:54Z</time>
      </trkpt>
      <trkpt lat="44.81919" lon="5.67725">
        <ele>597</ele>
        <time>2020-09-16T02:30:57Z</time>
      </trkpt>
      <trkpt lat="44.81923" lon="5.67685">
        <ele>597</ele>
        <time>2020-09-16T02:31:02Z</time>
      </trkpt>
      <trkpt lat="44.81932" lon="5.67643">
        <ele>596</ele>
        <time>2020-09-16T02:31:08Z</time>
      </trkpt>
      <trkpt lat="44.81942" lon="5.67621">
        <ele>596</ele>
        <time>2020-09-16T02:31:11Z</time>
      </trkpt>
      <trkpt lat="44.81954" lon="5.676">
        <ele>596</ele>
        <time>2020-09-16T02:31:14Z</time>
      </trkpt>
      <trkpt lat="44.82069" lon="5.67432">
        <ele>596</ele>
        <time>2020-09-16T02:31:44Z</time>
      </trkpt>
      <trkpt lat="44.8208" lon="5.67422">
        <ele>594</ele>
        <time>2020-09-16T02:31:46Z</time>
      </trkpt>
      <trkpt lat="44.82095" lon="5.67413">
        <ele>593</ele>
        <time>2020-09-16T02:31:49Z</time>
      </trkpt>
      <trkpt lat="44.82141" lon="5.67402">
        <ele>594</ele>
        <time>2020-09-16T02:31:57Z</time>
      </trkpt>
      <trkpt lat="44.82155" lon="5.67396">
        <ele>593</ele>
        <time>2020-09-16T02:32:00Z</time>
      </trkpt>
      <trkpt lat="44.82177" lon="5.67381">
        <ele>593</ele>
        <time>2020-09-16T02:32:04Z</time>
      </trkpt>
      <trkpt lat="44.82195" lon="5.67369">
        <ele>593</ele>
        <time>2020-09-16T02:32:08Z</time>
      </trkpt>
      <trkpt lat="44.82229" lon="5.67347">
        <ele>594</ele>
        <time>2020-09-16T02:32:14Z</time>
      </trkpt>
      <trkpt lat="44.82243" lon="5.67334">
        <ele>593</ele>
        <time>2020-09-16T02:32:17Z</time>
      </trkpt>
      <trkpt lat="44.8225" lon="5.67318">
        <ele>593</ele>
        <time>2020-09-16T02:32:20Z</time>
      </trkpt>
      <trkpt lat="44.82251" lon="5.673">
        <ele>592</ele>
        <time>2020-09-16T02:32:22Z</time>
      </trkpt>
      <trkpt lat="44.82247" lon="5.67274">
        <ele>590</ele>
        <time>2020-09-16T02:32:25Z</time>
      </trkpt>
      <trkpt lat="44.82246" lon="5.67257">
        <ele>589</ele>
        <time>2020-09-16T02:32:28Z</time>
      </trkpt>
      <trkpt lat="44.82249" lon="5.67241">
        <ele>588</ele>
        <time>2020-09-16T02:32:30Z</time>
      </trkpt>
      <trkpt lat="44.82255" lon="5.67227">
        <ele>588</ele>
        <time>2020-09-16T02:32:32Z</time>
      </trkpt>
      <trkpt lat="44.82263" lon="5.67215">
        <ele>589</ele>
        <time>2020-09-16T02:32:34Z</time>
      </trkpt>
      <trkpt lat="44.82297" lon="5.67171">
        <ele>593</ele>
        <time>2020-09-16T02:32:42Z</time>
      </trkpt>
      <trkpt lat="44.82349" lon="5.67105">
        <ele>595</ele>
        <time>2020-09-16T02:32:54Z</time>
      </trkpt>
      <trkpt lat="44.82434" lon="5.66981">
        <ele>593</ele>
        <time>2020-09-16T02:33:16Z</time>
      </trkpt>
      <trkpt lat="44.82451" lon="5.66963">
        <ele>592</ele>
        <time>2020-09-16T02:33:20Z</time>
      </trkpt>
      <trkpt lat="44.82479" lon="5.66943">
        <ele>591</ele>
        <time>2020-09-16T02:33:26Z</time>
      </trkpt>
      <trkpt lat="44.82496" lon="5.66936">
        <ele>591</ele>
        <time>2020-09-16T02:33:29Z</time>
      </trkpt>
      <trkpt lat="44.82509" lon="5.66936">
        <ele>591</ele>
        <time>2020-09-16T02:33:31Z</time>
      </trkpt>
      <trkpt lat="44.8254" lon="5.66941">
        <ele>590</ele>
        <time>2020-09-16T02:33:37Z</time>
      </trkpt>
      <trkpt lat="44.8255" lon="5.6694">
        <ele>589</ele>
        <time>2020-09-16T02:33:38Z</time>
      </trkpt>
      <trkpt lat="44.82593" lon="5.67005">
        <ele>597</ele>
        <time>2020-09-16T02:33:50Z</time>
      </trkpt>
      <trkpt lat="44.82622" lon="5.67059">
        <ele>599</ele>
        <time>2020-09-16T02:33:58Z</time>
      </trkpt>
      <trkpt lat="44.82628" lon="5.67078">
        <ele>600</ele>
        <time>2020-09-16T02:34:01Z</time>
      </trkpt>
      <trkpt lat="44.82641" lon="5.67131">
        <ele>606</ele>
        <time>2020-09-16T02:34:08Z</time>
      </trkpt>
      <trkpt lat="44.82653" lon="5.67151">
        <ele>608</ele>
        <time>2020-09-16T02:34:11Z</time>
      </trkpt>
      <trkpt lat="44.82667" lon="5.67164">
        <ele>609</ele>
        <time>2020-09-16T02:34:14Z</time>
      </trkpt>
      <trkpt lat="44.82694" lon="5.6718">
        <ele>610</ele>
        <time>2020-09-16T02:34:19Z</time>
      </trkpt>
      <trkpt lat="44.82712" lon="5.67185">
        <ele>610</ele>
        <time>2020-09-16T02:34:23Z</time>
      </trkpt>
      <trkpt lat="44.82737" lon="5.67184">
        <ele>607</ele>
        <time>2020-09-16T02:34:27Z</time>
      </trkpt>
      <trkpt lat="44.82756" lon="5.67188">
        <ele>606</ele>
        <time>2020-09-16T02:34:30Z</time>
      </trkpt>
      <trkpt lat="44.82771" lon="5.672">
        <ele>607</ele>
        <time>2020-09-16T02:34:33Z</time>
      </trkpt>
      <trkpt lat="44.82781" lon="5.67219">
        <ele>609</ele>
        <time>2020-09-16T02:34:36Z</time>
      </trkpt>
      <trkpt lat="44.82785" lon="5.67237">
        <ele>612</ele>
        <time>2020-09-16T02:34:39Z</time>
      </trkpt>
      <trkpt lat="44.82788" lon="5.67273">
        <ele>617</ele>
        <time>2020-09-16T02:34:43Z</time>
      </trkpt>
      <trkpt lat="44.82799" lon="5.67315">
        <ele>621</ele>
        <time>2020-09-16T02:34:49Z</time>
      </trkpt>
      <trkpt lat="44.82821" lon="5.67363">
        <ele>625</ele>
        <time>2020-09-16T02:34:56Z</time>
      </trkpt>
      <trkpt lat="44.82831" lon="5.6737">
        <ele>625</ele>
        <time>2020-09-16T02:34:58Z</time>
      </trkpt>
      <trkpt lat="44.82843" lon="5.67368">
        <ele>626</ele>
        <time>2020-09-16T02:35:00Z</time>
      </trkpt>
      <trkpt lat="44.82874" lon="5.67357">
        <ele>628</ele>
        <time>2020-09-16T02:35:06Z</time>
      </trkpt>
      <trkpt lat="44.82888" lon="5.67348">
        <ele>628</ele>
        <time>2020-09-16T02:35:09Z</time>
      </trkpt>
      <trkpt lat="44.82902" lon="5.67334">
        <ele>627</ele>
        <time>2020-09-16T02:35:12Z</time>
      </trkpt>
      <trkpt lat="44.82977" lon="5.67212">
        <ele>624</ele>
        <time>2020-09-16T02:35:32Z</time>
      </trkpt>
      <trkpt lat="44.83005" lon="5.67178">
        <ele>626</ele>
        <time>2020-09-16T02:35:39Z</time>
      </trkpt>
      <trkpt lat="44.83018" lon="5.67171">
        <ele>626</ele>
        <time>2020-09-16T02:35:41Z</time>
      </trkpt>
      <trkpt lat="44.83034" lon="5.67172">
        <ele>626</ele>
        <time>2020-09-16T02:35:44Z</time>
      </trkpt>
      <trkpt lat="44.83084" lon="5.67203">
        <ele>635</ele>
        <time>2020-09-16T02:35:54Z</time>
      </trkpt>
      <trkpt lat="44.83092" lon="5.67206">
        <ele>636</ele>
        <time>2020-09-16T02:35:55Z</time>
      </trkpt>
      <trkpt lat="44.83105" lon="5.67209">
        <ele>637</ele>
        <time>2020-09-16T02:35:58Z</time>
      </trkpt>
      <trkpt lat="44.83124" lon="5.67207">
        <ele>637</ele>
        <time>2020-09-16T02:36:01Z</time>
      </trkpt>
      <trkpt lat="44.8315" lon="5.672">
        <ele>635</ele>
        <time>2020-09-16T02:36:06Z</time>
      </trkpt>
      <trkpt lat="44.83166" lon="5.67199">
        <ele>635</ele>
        <time>2020-09-16T02:36:09Z</time>
      </trkpt>
      <trkpt lat="44.83187" lon="5.67206">
        <ele>635</ele>
        <time>2020-09-16T02:36:13Z</time>
      </trkpt>
      <trkpt lat="44.83227" lon="5.67227">
        <ele>635</ele>
        <time>2020-09-16T02:36:20Z</time>
      </trkpt>
      <trkpt lat="44.83242" lon="5.67242">
        <ele>636</ele>
        <time>2020-09-16T02:36:23Z</time>
      </trkpt>
      <trkpt lat="44.83253" lon="5.67264">
        <ele>639</ele>
        <time>2020-09-16T02:36:27Z</time>
      </trkpt>
      <trkpt lat="44.83282" lon="5.67352">
        <ele>653</ele>
        <time>2020-09-16T02:36:39Z</time>
      </trkpt>
      <trkpt lat="44.8329" lon="5.67389">
        <ele>656</ele>
        <time>2020-09-16T02:36:44Z</time>
      </trkpt>
      <trkpt lat="44.83297" lon="5.67435">
        <ele>660</ele>
        <time>2020-09-16T02:36:50Z</time>
      </trkpt>
      <trkpt lat="44.83302" lon="5.67454">
        <ele>661</ele>
        <time>2020-09-16T02:36:52Z</time>
      </trkpt>
      <trkpt lat="44.8331" lon="5.67469">
        <ele>661</ele>
        <time>2020-09-16T02:36:55Z</time>
      </trkpt>
      <trkpt lat="44.83322" lon="5.67479">
        <ele>659</ele>
        <time>2020-09-16T02:36:57Z</time>
      </trkpt>
      <trkpt lat="44.83333" lon="5.67484">
        <ele>658</ele>
        <time>2020-09-16T02:36:59Z</time>
      </trkpt>
      <trkpt lat="44.83345" lon="5.67484">
        <ele>658</ele>
        <time>2020-09-16T02:37:01Z</time>
      </trkpt>
      <trkpt lat="44.83381" lon="5.67475">
        <ele>659</ele>
        <time>2020-09-16T02:37:08Z</time>
      </trkpt>
      <trkpt lat="44.83399" lon="5.67476">
        <ele>661</ele>
        <time>2020-09-16T02:37:11Z</time>
      </trkpt>
      <trkpt lat="44.83492" lon="5.67491">
        <ele>670</ele>
        <time>2020-09-16T02:37:28Z</time>
      </trkpt>
      <trkpt lat="44.83572" lon="5.67515">
        <ele>680</ele>
        <time>2020-09-16T02:37:42Z</time>
      </trkpt>
      <trkpt lat="44.83589" lon="5.67517">
        <ele>681</ele>
        <time>2020-09-16T02:37:45Z</time>
      </trkpt>
      <trkpt lat="44.83624" lon="5.67517">
        <ele>682</ele>
        <time>2020-09-16T02:37:52Z</time>
      </trkpt>
      <trkpt lat="44.83696" lon="5.67496">
        <ele>680</ele>
        <time>2020-09-16T02:38:05Z</time>
      </trkpt>
      <trkpt lat="44.8372" lon="5.67487">
        <ele>681</ele>
        <time>2020-09-16T02:38:09Z</time>
      </trkpt>
      <trkpt lat="44.83758" lon="5.67459">
        <ele>684</ele>
        <time>2020-09-16T02:38:17Z</time>
      </trkpt>
      <trkpt lat="44.83798" lon="5.67439">
        <ele>692</ele>
        <time>2020-09-16T02:38:24Z</time>
      </trkpt>
      <trkpt lat="44.83801" lon="5.67432">
        <ele>693</ele>
        <time>2020-09-16T02:38:25Z</time>
      </trkpt>
      <trkpt lat="44.83799" lon="5.67419">
        <ele>693</ele>
        <time>2020-09-16T02:38:27Z</time>
      </trkpt>
      <trkpt lat="44.8379" lon="5.67397">
        <ele>694</ele>
        <time>2020-09-16T02:38:30Z</time>
      </trkpt>
      <trkpt lat="44.83773" lon="5.67367">
        <ele>693</ele>
        <time>2020-09-16T02:38:35Z</time>
      </trkpt>
      <trkpt lat="44.83746" lon="5.67337">
        <ele>690</ele>
        <time>2020-09-16T02:38:41Z</time>
      </trkpt>
      <trkpt lat="44.83725" lon="5.67322">
        <ele>690</ele>
        <time>2020-09-16T02:38:45Z</time>
      </trkpt>
      <trkpt lat="44.83705" lon="5.67312">
        <ele>689</ele>
        <time>2020-09-16T02:38:49Z</time>
      </trkpt>
      <trkpt lat="44.83648" lon="5.67295">
        <ele>685</ele>
        <time>2020-09-16T02:39:00Z</time>
      </trkpt>
      <trkpt lat="44.83639" lon="5.67287">
        <ele>684</ele>
        <time>2020-09-16T02:39:01Z</time>
      </trkpt>
      <trkpt lat="44.83633" lon="5.67274">
        <ele>685</ele>
        <time>2020-09-16T02:39:03Z</time>
      </trkpt>
      <trkpt lat="44.83632" lon="5.67261">
        <ele>687</ele>
        <time>2020-09-16T02:39:05Z</time>
      </trkpt>
      <trkpt lat="44.83638" lon="5.67246">
        <ele>689</ele>
        <time>2020-09-16T02:39:07Z</time>
      </trkpt>
      <trkpt lat="44.83649" lon="5.67238">
        <ele>690</ele>
        <time>2020-09-16T02:39:09Z</time>
      </trkpt>
      <trkpt lat="44.83662" lon="5.6724">
        <ele>691</ele>
        <time>2020-09-16T02:39:12Z</time>
      </trkpt>
      <trkpt lat="44.83696" lon="5.67261">
        <ele>694</ele>
        <time>2020-09-16T02:39:18Z</time>
      </trkpt>
      <trkpt lat="44.83714" lon="5.67264">
        <ele>694</ele>
        <time>2020-09-16T02:39:22Z</time>
      </trkpt>
      <trkpt lat="44.8373" lon="5.67265">
        <ele>695</ele>
        <time>2020-09-16T02:39:24Z</time>
      </trkpt>
      <trkpt lat="44.8375" lon="5.6726">
        <ele>697</ele>
        <time>2020-09-16T02:39:28Z</time>
      </trkpt>
      <trkpt lat="44.83769" lon="5.67247">
        <ele>700</ele>
        <time>2020-09-16T02:39:32Z</time>
      </trkpt>
      <trkpt lat="44.83803" lon="5.67213">
        <ele>700</ele>
        <time>2020-09-16T02:39:39Z</time>
      </trkpt>
      <trkpt lat="44.83827" lon="5.67201">
        <ele>700</ele>
        <time>2020-09-16T02:39:44Z</time>
      </trkpt>
      <trkpt lat="44.83845" lon="5.67198">
        <ele>700</ele>
        <time>2020-09-16T02:39:47Z</time>
      </trkpt>
      <trkpt lat="44.83864" lon="5.672">
        <ele>700</ele>
        <time>2020-09-16T02:39:50Z</time>
      </trkpt>
      <trkpt lat="44.83943" lon="5.67222">
        <ele>701</ele>
        <time>2020-09-16T02:40:05Z</time>
      </trkpt>
      <trkpt lat="44.8407" lon="5.67282">
        <ele>706</ele>
        <time>2020-09-16T02:40:28Z</time>
      </trkpt>
      <trkpt lat="44.84088" lon="5.67284">
        <ele>706</ele>
        <time>2020-09-16T02:40:32Z</time>
      </trkpt>
      <trkpt lat="44.84107" lon="5.67278">
        <ele>708</ele>
        <time>2020-09-16T02:40:35Z</time>
      </trkpt>
      <trkpt lat="44.84125" lon="5.67259">
        <ele>707</ele>
        <time>2020-09-16T02:40:39Z</time>
      </trkpt>
      <trkpt lat="44.84149" lon="5.67226">
        <ele>704</ele>
        <time>2020-09-16T02:40:45Z</time>
      </trkpt>
      <trkpt lat="44.8419" lon="5.67158">
        <ele>699</ele>
        <time>2020-09-16T02:40:56Z</time>
      </trkpt>
      <trkpt lat="44.842" lon="5.67145">
        <ele>699</ele>
        <time>2020-09-16T02:40:59Z</time>
      </trkpt>
      <trkpt lat="44.8421" lon="5.67136">
        <ele>699</ele>
        <time>2020-09-16T02:41:01Z</time>
      </trkpt>
      <trkpt lat="44.84221" lon="5.67129">
        <ele>700</ele>
        <time>2020-09-16T02:41:03Z</time>
      </trkpt>
      <trkpt lat="44.84235" lon="5.67126">
        <ele>702</ele>
        <time>2020-09-16T02:41:06Z</time>
      </trkpt>
      <trkpt lat="44.84268" lon="5.67125">
        <ele>705</ele>
        <time>2020-09-16T02:41:11Z</time>
      </trkpt>
      <trkpt lat="44.84306" lon="5.67127">
        <ele>707</ele>
        <time>2020-09-16T02:41:18Z</time>
      </trkpt>
      <trkpt lat="44.84833" lon="5.6718">
        <ele>736</ele>
        <time>2020-09-16T02:42:52Z</time>
      </trkpt>
      <trkpt lat="44.84881" lon="5.6719">
        <ele>737</ele>
        <time>2020-09-16T02:43:01Z</time>
      </trkpt>
      <trkpt lat="44.84936" lon="5.67195">
        <ele>738</ele>
        <time>2020-09-16T02:43:11Z</time>
      </trkpt>
      <trkpt lat="44.8497" lon="5.67191">
        <ele>738</ele>
        <time>2020-09-16T02:43:17Z</time>
      </trkpt>
      <trkpt lat="44.84993" lon="5.67184">
        <ele>738</ele>
        <time>2020-09-16T02:43:21Z</time>
      </trkpt>
      <trkpt lat="44.85093" lon="5.6713">
        <ele>734</ele>
        <time>2020-09-16T02:43:40Z</time>
      </trkpt>
      <trkpt lat="44.85121" lon="5.67126">
        <ele>734</ele>
        <time>2020-09-16T02:43:45Z</time>
      </trkpt>
      <trkpt lat="44.85135" lon="5.67122">
        <ele>735</ele>
        <time>2020-09-16T02:43:48Z</time>
      </trkpt>
      <trkpt lat="44.85197" lon="5.67096">
        <ele>736</ele>
        <time>2020-09-16T02:43:59Z</time>
      </trkpt>
      <trkpt lat="44.85215" lon="5.67091">
        <ele>737</ele>
        <time>2020-09-16T02:44:02Z</time>
      </trkpt>
      <trkpt lat="44.85245" lon="5.67091">
        <ele>739</ele>
        <time>2020-09-16T02:44:08Z</time>
      </trkpt>
      <trkpt lat="44.85559" lon="5.67161">
        <ele>746</ele>
        <time>2020-09-16T02:45:04Z</time>
      </trkpt>
      <trkpt lat="44.85588" lon="5.67173">
        <ele>745</ele>
        <time>2020-09-16T02:45:10Z</time>
      </trkpt>
      <trkpt lat="44.85604" lon="5.67189">
        <ele>743</ele>
        <time>2020-09-16T02:45:13Z</time>
      </trkpt>
      <trkpt lat="44.85615" lon="5.67206">
        <ele>741</ele>
        <time>2020-09-16T02:45:16Z</time>
      </trkpt>
      <trkpt lat="44.85621" lon="5.67235">
        <ele>740</ele>
        <time>2020-09-16T02:45:20Z</time>
      </trkpt>
      <trkpt lat="44.85621" lon="5.67329">
        <ele>743</ele>
        <time>2020-09-16T02:45:32Z</time>
      </trkpt>
      <trkpt lat="44.85626" lon="5.67365">
        <ele>743</ele>
        <time>2020-09-16T02:45:36Z</time>
      </trkpt>
      <trkpt lat="44.85647" lon="5.67441">
        <ele>740</ele>
        <time>2020-09-16T02:45:47Z</time>
      </trkpt>
      <trkpt lat="44.85652" lon="5.67468">
        <ele>740</ele>
        <time>2020-09-16T02:45:50Z</time>
      </trkpt>
      <trkpt lat="44.85659" lon="5.67486">
        <ele>739</ele>
        <time>2020-09-16T02:45:53Z</time>
      </trkpt>
      <trkpt lat="44.85668" lon="5.675">
        <ele>738</ele>
        <time>2020-09-16T02:45:55Z</time>
      </trkpt>
      <trkpt lat="44.8575" lon="5.67583">
        <ele>725</ele>
        <time>2020-09-16T02:46:13Z</time>
      </trkpt>
      <trkpt lat="44.85762" lon="5.67599">
        <ele>725</ele>
        <time>2020-09-16T02:46:16Z</time>
      </trkpt>
      <trkpt lat="44.85768" lon="5.67616">
        <ele>725</ele>
        <time>2020-09-16T02:46:18Z</time>
      </trkpt>
      <trkpt lat="44.8577" lon="5.67637">
        <ele>726</ele>
        <time>2020-09-16T02:46:21Z</time>
      </trkpt>
      <trkpt lat="44.85769" lon="5.67671">
        <ele>729</ele>
        <time>2020-09-16T02:46:25Z</time>
      </trkpt>
      <trkpt lat="44.85772" lon="5.67689">
        <ele>731</ele>
        <time>2020-09-16T02:46:28Z</time>
      </trkpt>
      <trkpt lat="44.85778" lon="5.67702">
        <ele>732</ele>
        <time>2020-09-16T02:46:30Z</time>
      </trkpt>
      <trkpt lat="44.85786" lon="5.67712">
        <ele>732</ele>
        <time>2020-09-16T02:46:31Z</time>
      </trkpt>
      <trkpt lat="44.85815" lon="5.67728">
        <ele>729</ele>
        <time>2020-09-16T02:46:37Z</time>
      </trkpt>
      <trkpt lat="44.85826" lon="5.6774">
        <ele>728</ele>
        <time>2020-09-16T02:46:39Z</time>
      </trkpt>
      <trkpt lat="44.85887" lon="5.679">
        <ele>728</ele>
        <time>2020-09-16T02:47:02Z</time>
      </trkpt>
      <trkpt lat="44.85902" lon="5.67948">
        <ele>723</ele>
        <time>2020-09-16T02:47:09Z</time>
      </trkpt>
      <trkpt lat="44.85911" lon="5.68026">
        <ele>718</ele>
        <time>2020-09-16T02:47:19Z</time>
      </trkpt>
      <trkpt lat="44.85918" lon="5.68113">
        <ele>708</ele>
        <time>2020-09-16T02:47:30Z</time>
      </trkpt>
      <trkpt lat="44.85917" lon="5.68129">
        <ele>706</ele>
        <time>2020-09-16T02:47:32Z</time>
      </trkpt>
      <trkpt lat="44.85912" lon="5.68143">
        <ele>706</ele>
        <time>2020-09-16T02:47:34Z</time>
      </trkpt>
      <trkpt lat="44.859" lon="5.68158">
        <ele>708</ele>
        <time>2020-09-16T02:47:37Z</time>
      </trkpt>
      <trkpt lat="44.85865" lon="5.68178">
        <ele>714</ele>
        <time>2020-09-16T02:47:44Z</time>
      </trkpt>
      <trkpt lat="44.8585" lon="5.6819">
        <ele>716</ele>
        <time>2020-09-16T02:47:47Z</time>
      </trkpt>
      <trkpt lat="44.85842" lon="5.68205">
        <ele>715</ele>
        <time>2020-09-16T02:47:49Z</time>
      </trkpt>
      <trkpt lat="44.85837" lon="5.68223">
        <ele>712</ele>
        <time>2020-09-16T02:47:51Z</time>
      </trkpt>
      <trkpt lat="44.85835" lon="5.68241">
        <ele>708</ele>
        <time>2020-09-16T02:47:54Z</time>
      </trkpt>
      <trkpt lat="44.85832" lon="5.68305">
        <ele>699</ele>
        <time>2020-09-16T02:48:02Z</time>
      </trkpt>
      <trkpt lat="44.85829" lon="5.68334">
        <ele>697</ele>
        <time>2020-09-16T02:48:06Z</time>
      </trkpt>
      <trkpt lat="44.85851" lon="5.68333">
        <ele>693</ele>
        <time>2020-09-16T02:48:09Z</time>
      </trkpt>
      <trkpt lat="44.85965" lon="5.68342">
        <ele>681</ele>
        <time>2020-09-16T02:48:30Z</time>
      </trkpt>
      <trkpt lat="44.85986" lon="5.68341">
        <ele>679</ele>
        <time>2020-09-16T02:48:34Z</time>
      </trkpt>
      <trkpt lat="44.86007" lon="5.68323">
        <ele>677</ele>
        <time>2020-09-16T02:48:38Z</time>
      </trkpt>
      <trkpt lat="44.86019" lon="5.68286">
        <ele>673</ele>
        <time>2020-09-16T02:48:43Z</time>
      </trkpt>
      <trkpt lat="44.86019" lon="5.68239">
        <ele>672</ele>
        <time>2020-09-16T02:48:49Z</time>
      </trkpt>
      <trkpt lat="44.86023" lon="5.68218">
        <ele>672</ele>
        <time>2020-09-16T02:48:52Z</time>
      </trkpt>
      <trkpt lat="44.8603" lon="5.68194">
        <ele>673</ele>
        <time>2020-09-16T02:48:55Z</time>
      </trkpt>
      <trkpt lat="44.86044" lon="5.68178">
        <ele>671</ele>
        <time>2020-09-16T02:48:58Z</time>
      </trkpt>
      <trkpt lat="44.86061" lon="5.68166">
        <ele>669</ele>
        <time>2020-09-16T02:49:02Z</time>
      </trkpt>
      <trkpt lat="44.86138" lon="5.68143">
        <ele>661</ele>
        <time>2020-09-16T02:49:16Z</time>
      </trkpt>
      <trkpt lat="44.86163" lon="5.68127">
        <ele>659</ele>
        <time>2020-09-16T02:49:20Z</time>
      </trkpt>
      <trkpt lat="44.86186" lon="5.68105">
        <ele>657</ele>
        <time>2020-09-16T02:49:25Z</time>
      </trkpt>
      <trkpt lat="44.86207" lon="5.68075">
        <ele>656</ele>
        <time>2020-09-16T02:49:31Z</time>
      </trkpt>
      <trkpt lat="44.86243" lon="5.68008">
        <ele>655</ele>
        <time>2020-09-16T02:49:41Z</time>
      </trkpt>
      <trkpt lat="44.86285" lon="5.67932">
        <ele>651</ele>
        <time>2020-09-16T02:49:53Z</time>
      </trkpt>
      <trkpt lat="44.86319" lon="5.67847">
        <ele>644</ele>
        <time>2020-09-16T02:50:06Z</time>
      </trkpt>
      <trkpt lat="44.86424" lon="5.67604">
        <ele>627</ele>
        <time>2020-09-16T02:50:42Z</time>
      </trkpt>
      <trkpt lat="44.86429" lon="5.67583">
        <ele>626</ele>
        <time>2020-09-16T02:50:44Z</time>
      </trkpt>
      <trkpt lat="44.8643" lon="5.67566">
        <ele>625</ele>
        <time>2020-09-16T02:50:47Z</time>
      </trkpt>
      <trkpt lat="44.86431" lon="5.67545">
        <ele>624</ele>
        <time>2020-09-16T02:50:49Z</time>
      </trkpt>
      <trkpt lat="44.86435" lon="5.67534">
        <ele>622</ele>
        <time>2020-09-16T02:50:51Z</time>
      </trkpt>
      <trkpt lat="44.86444" lon="5.67531">
        <ele>620</ele>
        <time>2020-09-16T02:50:52Z</time>
      </trkpt>
      <trkpt lat="44.8645" lon="5.67539">
        <ele>620</ele>
        <time>2020-09-16T02:50:54Z</time>
      </trkpt>
      <trkpt lat="44.86452" lon="5.67559">
        <ele>621</ele>
        <time>2020-09-16T02:50:57Z</time>
      </trkpt>
      <trkpt lat="44.86454" lon="5.67577">
        <ele>621</ele>
        <time>2020-09-16T02:50:59Z</time>
      </trkpt>
      <trkpt lat="44.86482" lon="5.67718">
        <ele>613</ele>
        <time>2020-09-16T02:51:17Z</time>
      </trkpt>
      <trkpt lat="44.86491" lon="5.67729">
        <ele>612</ele>
        <time>2020-09-16T02:51:19Z</time>
      </trkpt>
      <trkpt lat="44.86502" lon="5.67726">
        <ele>610</ele>
        <time>2020-09-16T02:51:21Z</time>
      </trkpt>
      <trkpt lat="44.86509" lon="5.67716">
        <ele>609</ele>
        <time>2020-09-16T02:51:23Z</time>
      </trkpt>
      <trkpt lat="44.86521" lon="5.67662">
        <ele>607</ele>
        <time>2020-09-16T02:51:30Z</time>
      </trkpt>
      <trkpt lat="44.8653" lon="5.67633">
        <ele>606</ele>
        <time>2020-09-16T02:51:34Z</time>
      </trkpt>
      <trkpt lat="44.86585" lon="5.675">
        <ele>598</ele>
        <time>2020-09-16T02:51:54Z</time>
      </trkpt>
      <trkpt lat="44.86588" lon="5.67493">
        <ele>597</ele>
        <time>2020-09-16T02:51:55Z</time>
      </trkpt>
      <trkpt lat="44.86602" lon="5.67462">
        <ele>594</ele>
        <time>2020-09-16T02:51:59Z</time>
      </trkpt>
      <trkpt lat="44.86607" lon="5.67422">
        <ele>593</ele>
        <time>2020-09-16T02:52:04Z</time>
      </trkpt>
      <trkpt lat="44.86599" lon="5.67375">
        <ele>590</ele>
        <time>2020-09-16T02:52:11Z</time>
      </trkpt>
      <trkpt lat="44.86599" lon="5.67358">
        <ele>588</ele>
        <time>2020-09-16T02:52:13Z</time>
      </trkpt>
      <trkpt lat="44.86608" lon="5.67353">
        <ele>586</ele>
        <time>2020-09-16T02:52:14Z</time>
      </trkpt>
      <trkpt lat="44.86618" lon="5.67362">
        <ele>586</ele>
        <time>2020-09-16T02:52:17Z</time>
      </trkpt>
      <trkpt lat="44.86644" lon="5.67435">
        <ele>586</ele>
        <time>2020-09-16T02:52:27Z</time>
      </trkpt>
      <trkpt lat="44.86698" lon="5.67578">
        <ele>580</ele>
        <time>2020-09-16T02:52:47Z</time>
      </trkpt>
      <trkpt lat="44.86703" lon="5.67602">
        <ele>580</ele>
        <time>2020-09-16T02:52:50Z</time>
      </trkpt>
      <trkpt lat="44.86702" lon="5.6765">
        <ele>582</ele>
        <time>2020-09-16T02:52:57Z</time>
      </trkpt>
      <trkpt lat="44.8671" lon="5.67661">
        <ele>582</ele>
        <time>2020-09-16T02:52:58Z</time>
      </trkpt>
      <trkpt lat="44.86719" lon="5.6766">
        <ele>581</ele>
        <time>2020-09-16T02:53:00Z</time>
      </trkpt>
      <trkpt lat="44.86725" lon="5.67647">
        <ele>580</ele>
        <time>2020-09-16T02:53:02Z</time>
      </trkpt>
      <trkpt lat="44.86727" lon="5.67582">
        <ele>577</ele>
        <time>2020-09-16T02:53:10Z</time>
      </trkpt>
      <trkpt lat="44.86713" lon="5.67491">
        <ele>577</ele>
        <time>2020-09-16T02:53:22Z</time>
      </trkpt>
      <trkpt lat="44.8672" lon="5.674">
        <ele>575</ele>
        <time>2020-09-16T02:53:34Z</time>
      </trkpt>
      <trkpt lat="44.8672" lon="5.67314">
        <ele>570</ele>
        <time>2020-09-16T02:53:44Z</time>
      </trkpt>
      <trkpt lat="44.86724" lon="5.67272">
        <ele>564</ele>
        <time>2020-09-16T02:53:50Z</time>
      </trkpt>
      <trkpt lat="44.8673" lon="5.67254">
        <ele>561</ele>
        <time>2020-09-16T02:53:52Z</time>
      </trkpt>
      <trkpt lat="44.86735" lon="5.67238">
        <ele>557</ele>
        <time>2020-09-16T02:53:54Z</time>
      </trkpt>
      <trkpt lat="44.8677" lon="5.67177">
        <ele>534</ele>
        <time>2020-09-16T02:54:04Z</time>
      </trkpt>
      <trkpt lat="44.86808" lon="5.67094">
        <ele>513</ele>
        <time>2020-09-16T02:54:17Z</time>
      </trkpt>
      <trkpt lat="44.8684" lon="5.6701">
        <ele>533</ele>
        <time>2020-09-16T02:54:29Z</time>
      </trkpt>
      <trkpt lat="44.86845" lon="5.66993">
        <ele>537</ele>
        <time>2020-09-16T02:54:31Z</time>
      </trkpt>
      <trkpt lat="44.86849" lon="5.66974">
        <ele>539</ele>
        <time>2020-09-16T02:54:34Z</time>
      </trkpt>
      <trkpt lat="44.86863" lon="5.66859">
        <ele>544</ele>
        <time>2020-09-16T02:54:48Z</time>
      </trkpt>
      <trkpt lat="44.86861" lon="5.66831">
        <ele>543</ele>
        <time>2020-09-16T02:54:52Z</time>
      </trkpt>
      <trkpt lat="44.86862" lon="5.66818">
        <ele>545</ele>
        <time>2020-09-16T02:54:54Z</time>
      </trkpt>
      <trkpt lat="44.86868" lon="5.66813">
        <ele>548</ele>
        <time>2020-09-16T02:54:55Z</time>
      </trkpt>
      <trkpt lat="44.86873" lon="5.66815">
        <ele>551</ele>
        <time>2020-09-16T02:54:56Z</time>
      </trkpt>
      <trkpt lat="44.86876" lon="5.66822">
        <ele>552</ele>
        <time>2020-09-16T02:54:57Z</time>
      </trkpt>
      <trkpt lat="44.86879" lon="5.66852">
        <ele>552</ele>
        <time>2020-09-16T02:55:01Z</time>
      </trkpt>
      <trkpt lat="44.86885" lon="5.66872">
        <ele>555</ele>
        <time>2020-09-16T02:55:03Z</time>
      </trkpt>
      <trkpt lat="44.86902" lon="5.66911">
        <ele>563</ele>
        <time>2020-09-16T02:55:09Z</time>
      </trkpt>
      <trkpt lat="44.86908" lon="5.66928">
        <ele>565</ele>
        <time>2020-09-16T02:55:11Z</time>
      </trkpt>
      <trkpt lat="44.8691" lon="5.66943">
        <ele>565</ele>
        <time>2020-09-16T02:55:13Z</time>
      </trkpt>
      <trkpt lat="44.86911" lon="5.66964">
        <ele>565</ele>
        <time>2020-09-16T02:55:16Z</time>
      </trkpt>
      <trkpt lat="44.86906" lon="5.67013">
        <ele>558</ele>
        <time>2020-09-16T02:55:22Z</time>
      </trkpt>
      <trkpt lat="44.86906" lon="5.67027">
        <ele>554</ele>
        <time>2020-09-16T02:55:24Z</time>
      </trkpt>
      <trkpt lat="44.86908" lon="5.67035">
        <ele>553</ele>
        <time>2020-09-16T02:55:25Z</time>
      </trkpt>
      <trkpt lat="44.86912" lon="5.6704">
        <ele>554</ele>
        <time>2020-09-16T02:55:26Z</time>
      </trkpt>
      <trkpt lat="44.86919" lon="5.6704">
        <ele>556</ele>
        <time>2020-09-16T02:55:27Z</time>
      </trkpt>
      <trkpt lat="44.86923" lon="5.67035">
        <ele>559</ele>
        <time>2020-09-16T02:55:28Z</time>
      </trkpt>
      <trkpt lat="44.86927" lon="5.67029">
        <ele>562</ele>
        <time>2020-09-16T02:55:29Z</time>
      </trkpt>
      <trkpt lat="44.86928" lon="5.67019">
        <ele>565</ele>
        <time>2020-09-16T02:55:31Z</time>
      </trkpt>
      <trkpt lat="44.8693" lon="5.66865">
        <ele>575</ele>
        <time>2020-09-16T02:55:50Z</time>
      </trkpt>
      <trkpt lat="44.86936" lon="5.66844">
        <ele>576</ele>
        <time>2020-09-16T02:55:53Z</time>
      </trkpt>
      <trkpt lat="44.86945" lon="5.66829">
        <ele>578</ele>
        <time>2020-09-16T02:55:55Z</time>
      </trkpt>
      <trkpt lat="44.86951" lon="5.66823">
        <ele>579</ele>
        <time>2020-09-16T02:55:57Z</time>
      </trkpt>
      <trkpt lat="44.86966" lon="5.66815">
        <ele>582</ele>
        <time>2020-09-16T02:56:00Z</time>
      </trkpt>
      <trkpt lat="44.8706" lon="5.66807">
        <ele>597</ele>
        <time>2020-09-16T02:56:16Z</time>
      </trkpt>
      <trkpt lat="44.87084" lon="5.66809">
        <ele>600</ele>
        <time>2020-09-16T02:56:21Z</time>
      </trkpt>
      <trkpt lat="44.87091" lon="5.66807">
        <ele>601</ele>
        <time>2020-09-16T02:56:22Z</time>
      </trkpt>
      <trkpt lat="44.87096" lon="5.66801">
        <ele>602</ele>
        <time>2020-09-16T02:56:23Z</time>
      </trkpt>
      <trkpt lat="44.87097" lon="5.66789">
        <ele>602</ele>
        <time>2020-09-16T02:56:25Z</time>
      </trkpt>
      <trkpt lat="44.87095" lon="5.66781">
        <ele>602</ele>
        <time>2020-09-16T02:56:26Z</time>
      </trkpt>
      <trkpt lat="44.87089" lon="5.66775">
        <ele>601</ele>
        <time>2020-09-16T02:56:27Z</time>
      </trkpt>
      <trkpt lat="44.87062" lon="5.66758">
        <ele>597</ele>
        <time>2020-09-16T02:56:32Z</time>
      </trkpt>
      <trkpt lat="44.87047" lon="5.66746">
        <ele>596</ele>
        <time>2020-09-16T02:56:35Z</time>
      </trkpt>
      <trkpt lat="44.87037" lon="5.66728">
        <ele>597</ele>
        <time>2020-09-16T02:56:38Z</time>
      </trkpt>
      <trkpt lat="44.87033" lon="5.6668">
        <ele>601</ele>
        <time>2020-09-16T02:56:44Z</time>
      </trkpt>
      <trkpt lat="44.87038" lon="5.66661">
        <ele>604</ele>
        <time>2020-09-16T02:56:47Z</time>
      </trkpt>
      <trkpt lat="44.87048" lon="5.66642">
        <ele>610</ele>
        <time>2020-09-16T02:56:50Z</time>
      </trkpt>
      <trkpt lat="44.87049" lon="5.66629">
        <ele>612</ele>
        <time>2020-09-16T02:56:51Z</time>
      </trkpt>
      <trkpt lat="44.87045" lon="5.66619">
        <ele>614</ele>
        <time>2020-09-16T02:56:53Z</time>
      </trkpt>
      <trkpt lat="44.87038" lon="5.6661">
        <ele>614</ele>
        <time>2020-09-16T02:56:55Z</time>
      </trkpt>
      <trkpt lat="44.86997" lon="5.66589">
        <ele>612</ele>
        <time>2020-09-16T02:57:02Z</time>
      </trkpt>
      <trkpt lat="44.86957" lon="5.66565">
        <ele>611</ele>
        <time>2020-09-16T02:57:10Z</time>
      </trkpt>
      <trkpt lat="44.86935" lon="5.66548">
        <ele>610</ele>
        <time>2020-09-16T02:57:14Z</time>
      </trkpt>
      <trkpt lat="44.8692" lon="5.66527">
        <ele>611</ele>
        <time>2020-09-16T02:57:18Z</time>
      </trkpt>
      <trkpt lat="44.86908" lon="5.66499">
        <ele>611</ele>
        <time>2020-09-16T02:57:22Z</time>
      </trkpt>
      <trkpt lat="44.86884" lon="5.66415">
        <ele>611</ele>
        <time>2020-09-16T02:57:34Z</time>
      </trkpt>
      <trkpt lat="44.86882" lon="5.66397">
        <ele>610</ele>
        <time>2020-09-16T02:57:36Z</time>
      </trkpt>
      <trkpt lat="44.86885" lon="5.66385">
        <ele>612</ele>
        <time>2020-09-16T02:57:38Z</time>
      </trkpt>
      <trkpt lat="44.86888" lon="5.66375">
        <ele>614</ele>
        <time>2020-09-16T02:57:39Z</time>
      </trkpt>
      <trkpt lat="44.8692" lon="5.6633">
        <ele>627</ele>
        <time>2020-09-16T02:57:47Z</time>
      </trkpt>
      <trkpt lat="44.86931" lon="5.66312">
        <ele>631</ele>
        <time>2020-09-16T02:57:50Z</time>
      </trkpt>
      <trkpt lat="44.86938" lon="5.66297">
        <ele>633</ele>
        <time>2020-09-16T02:57:52Z</time>
      </trkpt>
      <trkpt lat="44.86945" lon="5.66245">
        <ele>633</ele>
        <time>2020-09-16T02:57:59Z</time>
      </trkpt>
      <trkpt lat="44.8695" lon="5.66232">
        <ele>634</ele>
        <time>2020-09-16T02:58:01Z</time>
      </trkpt>
      <trkpt lat="44.86968" lon="5.66201">
        <ele>638</ele>
        <time>2020-09-16T02:58:06Z</time>
      </trkpt>
      <trkpt lat="44.86981" lon="5.66187">
        <ele>641</ele>
        <time>2020-09-16T02:58:09Z</time>
      </trkpt>
      <trkpt lat="44.86996" lon="5.66175">
        <ele>645</ele>
        <time>2020-09-16T02:58:12Z</time>
      </trkpt>
      <trkpt lat="44.87012" lon="5.66166">
        <ele>649</ele>
        <time>2020-09-16T02:58:15Z</time>
      </trkpt>
      <trkpt lat="44.87018" lon="5.66153">
        <ele>653</ele>
        <time>2020-09-16T02:58:17Z</time>
      </trkpt>
      <trkpt lat="44.87017" lon="5.6614">
        <ele>655</ele>
        <time>2020-09-16T02:58:19Z</time>
      </trkpt>
      <trkpt lat="44.8701" lon="5.66128">
        <ele>655</ele>
        <time>2020-09-16T02:58:21Z</time>
      </trkpt>
      <trkpt lat="44.8697" lon="5.66085">
        <ele>652</ele>
        <time>2020-09-16T02:58:30Z</time>
      </trkpt>
      <trkpt lat="44.86952" lon="5.66071">
        <ele>652</ele>
        <time>2020-09-16T02:58:33Z</time>
      </trkpt>
      <trkpt lat="44.86931" lon="5.66057">
        <ele>651</ele>
        <time>2020-09-16T02:58:37Z</time>
      </trkpt>
      <trkpt lat="44.86878" lon="5.66034">
        <ele>643</ele>
        <time>2020-09-16T02:58:47Z</time>
      </trkpt>
      <trkpt lat="44.86867" lon="5.66025">
        <ele>641</ele>
        <time>2020-09-16T02:58:49Z</time>
      </trkpt>
      <trkpt lat="44.86861" lon="5.66009">
        <ele>640</ele>
        <time>2020-09-16T02:58:52Z</time>
      </trkpt>
      <trkpt lat="44.86864" lon="5.65993">
        <ele>640</ele>
        <time>2020-09-16T02:58:54Z</time>
      </trkpt>
      <trkpt lat="44.86905" lon="5.65914">
        <ele>650</ele>
        <time>2020-09-16T02:59:06Z</time>
      </trkpt>
      <trkpt lat="44.86997" lon="5.65813">
        <ele>670</ele>
        <time>2020-09-16T02:59:27Z</time>
      </trkpt>
      <trkpt lat="44.87009" lon="5.65805">
        <ele>673</ele>
        <time>2020-09-16T02:59:29Z</time>
      </trkpt>
      <trkpt lat="44.87041" lon="5.65793">
        <ele>683</ele>
        <time>2020-09-16T02:59:35Z</time>
      </trkpt>
      <trkpt lat="44.87045" lon="5.6578">
        <ele>683</ele>
        <time>2020-09-16T02:59:37Z</time>
      </trkpt>
      <trkpt lat="44.87048" lon="5.65734">
        <ele>679</ele>
        <time>2020-09-16T02:59:43Z</time>
      </trkpt>
      <trkpt lat="44.8705" lon="5.65724">
        <ele>679</ele>
        <time>2020-09-16T02:59:44Z</time>
      </trkpt>
      <trkpt lat="44.87054" lon="5.65715">
        <ele>679</ele>
        <time>2020-09-16T02:59:45Z</time>
      </trkpt>
      <trkpt lat="44.8706" lon="5.65707">
        <ele>681</ele>
        <time>2020-09-16T02:59:47Z</time>
      </trkpt>
      <trkpt lat="44.87091" lon="5.65682">
        <ele>687</ele>
        <time>2020-09-16T02:59:53Z</time>
      </trkpt>
      <trkpt lat="44.87098" lon="5.65672">
        <ele>688</ele>
        <time>2020-09-16T02:59:55Z</time>
      </trkpt>
      <trkpt lat="44.87123" lon="5.65611">
        <ele>686</ele>
        <time>2020-09-16T03:00:04Z</time>
      </trkpt>
      <trkpt lat="44.8714" lon="5.65582">
        <ele>685</ele>
        <time>2020-09-16T03:00:09Z</time>
      </trkpt>
      <trkpt lat="44.87158" lon="5.65572">
        <ele>688</ele>
        <time>2020-09-16T03:00:12Z</time>
      </trkpt>
      <trkpt lat="44.87196" lon="5.6557">
        <ele>694</ele>
        <time>2020-09-16T03:00:19Z</time>
      </trkpt>
      <trkpt lat="44.87202" lon="5.65566">
        <ele>694</ele>
        <time>2020-09-16T03:00:20Z</time>
      </trkpt>
      <trkpt lat="44.87233" lon="5.65538">
        <ele>695</ele>
        <time>2020-09-16T03:00:27Z</time>
      </trkpt>
      <trkpt lat="44.87256" lon="5.65531">
        <ele>697</ele>
        <time>2020-09-16T03:00:31Z</time>
      </trkpt>
      <trkpt lat="44.87271" lon="5.65531">
        <ele>700</ele>
        <time>2020-09-16T03:00:33Z</time>
      </trkpt>
      <trkpt lat="44.87348" lon="5.65543">
        <ele>715</ele>
        <time>2020-09-16T03:00:47Z</time>
      </trkpt>
      <trkpt lat="44.87362" lon="5.65544">
        <ele>718</ele>
        <time>2020-09-16T03:00:50Z</time>
      </trkpt>
      <trkpt lat="44.87372" lon="5.65539">
        <ele>719</ele>
        <time>2020-09-16T03:00:52Z</time>
      </trkpt>
      <trkpt lat="44.87376" lon="5.65524">
        <ele>718</ele>
        <time>2020-09-16T03:00:54Z</time>
      </trkpt>
      <trkpt lat="44.87372" lon="5.65509">
        <ele>716</ele>
        <time>2020-09-16T03:00:56Z</time>
      </trkpt>
      <trkpt lat="44.87346" lon="5.65486">
        <ele>712</ele>
        <time>2020-09-16T03:01:01Z</time>
      </trkpt>
      <trkpt lat="44.87256" lon="5.65317">
        <ele>715</ele>
        <time>2020-09-16T03:01:28Z</time>
      </trkpt>
      <trkpt lat="44.87249" lon="5.65298">
        <ele>715</ele>
        <time>2020-09-16T03:01:30Z</time>
      </trkpt>
      <trkpt lat="44.87247" lon="5.65283">
        <ele>716</ele>
        <time>2020-09-16T03:01:32Z</time>
      </trkpt>
      <trkpt lat="44.87248" lon="5.65268">
        <ele>717</ele>
        <time>2020-09-16T03:01:34Z</time>
      </trkpt>
      <trkpt lat="44.87251" lon="5.65254">
        <ele>718</ele>
        <time>2020-09-16T03:01:36Z</time>
      </trkpt>
      <trkpt lat="44.87259" lon="5.65224">
        <ele>719</ele>
        <time>2020-09-16T03:01:40Z</time>
      </trkpt>
      <trkpt lat="44.87262" lon="5.65209">
        <ele>720</ele>
        <time>2020-09-16T03:01:42Z</time>
      </trkpt>
      <trkpt lat="44.87277" lon="5.65165">
        <ele>721</ele>
        <time>2020-09-16T03:01:48Z</time>
      </trkpt>
      <trkpt lat="44.87284" lon="5.65151">
        <ele>720</ele>
        <time>2020-09-16T03:01:50Z</time>
      </trkpt>
      <trkpt lat="44.87293" lon="5.65136">
        <ele>720</ele>
        <time>2020-09-16T03:01:53Z</time>
      </trkpt>
      <trkpt lat="44.87358" lon="5.65075">
        <ele>723</ele>
        <time>2020-09-16T03:02:07Z</time>
      </trkpt>
      <trkpt lat="44.87376" lon="5.6504">
        <ele>724</ele>
        <time>2020-09-16T03:02:12Z</time>
      </trkpt>
      <trkpt lat="44.87391" lon="5.65005">
        <ele>725</ele>
        <time>2020-09-16T03:02:17Z</time>
      </trkpt>
      <trkpt lat="44.87406" lon="5.64979">
        <ele>725</ele>
        <time>2020-09-16T03:02:22Z</time>
      </trkpt>
      <trkpt lat="44.87415" lon="5.64968">
        <ele>725</ele>
        <time>2020-09-16T03:02:24Z</time>
      </trkpt>
      <trkpt lat="44.87427" lon="5.64962">
        <ele>725</ele>
        <time>2020-09-16T03:02:26Z</time>
      </trkpt>
      <trkpt lat="44.87437" lon="5.6496">
        <ele>725</ele>
        <time>2020-09-16T03:02:28Z</time>
      </trkpt>
      <trkpt lat="44.87446" lon="5.64961">
        <ele>725</ele>
        <time>2020-09-16T03:02:29Z</time>
      </trkpt>
      <trkpt lat="44.87461" lon="5.64966">
        <ele>726</ele>
        <time>2020-09-16T03:02:32Z</time>
      </trkpt>
      <trkpt lat="44.87619" lon="5.65058">
        <ele>733</ele>
        <time>2020-09-16T03:03:03Z</time>
      </trkpt>
      <trkpt lat="44.8764" lon="5.65065">
        <ele>733</ele>
        <time>2020-09-16T03:03:06Z</time>
      </trkpt>
      <trkpt lat="44.8766" lon="5.65069">
        <ele>732</ele>
        <time>2020-09-16T03:03:10Z</time>
      </trkpt>
      <trkpt lat="44.8769" lon="5.65065">
        <ele>733</ele>
        <time>2020-09-16T03:03:15Z</time>
      </trkpt>
      <trkpt lat="44.87768" lon="5.65054">
        <ele>737</ele>
        <time>2020-09-16T03:03:29Z</time>
      </trkpt>
      <trkpt lat="44.87782" lon="5.65049">
        <ele>739</ele>
        <time>2020-09-16T03:03:32Z</time>
      </trkpt>
      <trkpt lat="44.87797" lon="5.65038">
        <ele>740</ele>
        <time>2020-09-16T03:03:35Z</time>
      </trkpt>
      <trkpt lat="44.87806" lon="5.65028">
        <ele>740</ele>
        <time>2020-09-16T03:03:37Z</time>
      </trkpt>
      <trkpt lat="44.87814" lon="5.65016">
        <ele>740</ele>
        <time>2020-09-16T03:03:39Z</time>
      </trkpt>
      <trkpt lat="44.87856" lon="5.64913">
        <ele>738</ele>
        <time>2020-09-16T03:03:54Z</time>
      </trkpt>
      <trkpt lat="44.87866" lon="5.64896">
        <ele>738</ele>
        <time>2020-09-16T03:03:57Z</time>
      </trkpt>
      <trkpt lat="44.87877" lon="5.64886">
        <ele>738</ele>
        <time>2020-09-16T03:03:59Z</time>
      </trkpt>
      <trkpt lat="44.87891" lon="5.64879">
        <ele>739</ele>
        <time>2020-09-16T03:04:02Z</time>
      </trkpt>
      <trkpt lat="44.87905" lon="5.64879">
        <ele>741</ele>
        <time>2020-09-16T03:04:04Z</time>
      </trkpt>
      <trkpt lat="44.87987" lon="5.64903">
        <ele>746</ele>
        <time>2020-09-16T03:04:19Z</time>
      </trkpt>
      <trkpt lat="44.88" lon="5.64903">
        <ele>746</ele>
        <time>2020-09-16T03:04:21Z</time>
      </trkpt>
      <trkpt lat="44.88019" lon="5.64898">
        <ele>745</ele>
        <time>2020-09-16T03:04:25Z</time>
      </trkpt>
      <trkpt lat="44.88029" lon="5.64893">
        <ele>745</ele>
        <time>2020-09-16T03:04:27Z</time>
      </trkpt>
      <trkpt lat="44.88048" lon="5.64878">
        <ele>744</ele>
        <time>2020-09-16T03:04:31Z</time>
      </trkpt>
      <trkpt lat="44.88057" lon="5.64873">
        <ele>744</ele>
        <time>2020-09-16T03:04:32Z</time>
      </trkpt>
      <trkpt lat="44.88061" lon="5.6487">
        <ele>744</ele>
        <time>2020-09-16T03:04:33Z</time>
      </trkpt>
      <trkpt lat="44.88077" lon="5.64865">
        <ele>744</ele>
        <time>2020-09-16T03:04:36Z</time>
      </trkpt>
      <trkpt lat="44.88093" lon="5.64864">
        <ele>744</ele>
        <time>2020-09-16T03:04:39Z</time>
      </trkpt>
      <trkpt lat="44.88131" lon="5.64868">
        <ele>748</ele>
        <time>2020-09-16T03:04:46Z</time>
      </trkpt>
      <trkpt lat="44.88144" lon="5.64865">
        <ele>749</ele>
        <time>2020-09-16T03:04:48Z</time>
      </trkpt>
      <trkpt lat="44.88158" lon="5.64856">
        <ele>749</ele>
        <time>2020-09-16T03:04:51Z</time>
      </trkpt>
      <trkpt lat="44.88167" lon="5.64846">
        <ele>749</ele>
        <time>2020-09-16T03:04:53Z</time>
      </trkpt>
      <trkpt lat="44.88309" lon="5.64657">
        <ele>751</ele>
        <time>2020-09-16T03:05:28Z</time>
      </trkpt>
      <trkpt lat="44.88322" lon="5.64644">
        <ele>751</ele>
        <time>2020-09-16T03:05:30Z</time>
      </trkpt>
      <trkpt lat="44.88435" lon="5.6455">
        <ele>757</ele>
        <time>2020-09-16T03:05:54Z</time>
      </trkpt>
      <trkpt lat="44.88448" lon="5.64531">
        <ele>758</ele>
        <time>2020-09-16T03:05:57Z</time>
      </trkpt>
      <trkpt lat="44.88457" lon="5.64513">
        <ele>757</ele>
        <time>2020-09-16T03:06:00Z</time>
      </trkpt>
      <trkpt lat="44.88462" lon="5.64491">
        <ele>757</ele>
        <time>2020-09-16T03:06:03Z</time>
      </trkpt>
      <trkpt lat="44.88463" lon="5.64467">
        <ele>757</ele>
        <time>2020-09-16T03:06:06Z</time>
      </trkpt>
      <trkpt lat="44.88462" lon="5.64382">
        <ele>756</ele>
        <time>2020-09-16T03:06:17Z</time>
      </trkpt>
      <trkpt lat="44.88464" lon="5.64355">
        <ele>756</ele>
        <time>2020-09-16T03:06:20Z</time>
      </trkpt>
      <trkpt lat="44.8847" lon="5.6433">
        <ele>756</ele>
        <time>2020-09-16T03:06:23Z</time>
      </trkpt>
      <trkpt lat="44.8848" lon="5.64308">
        <ele>756</ele>
        <time>2020-09-16T03:06:27Z</time>
      </trkpt>
      <trkpt lat="44.8851" lon="5.64259">
        <ele>759</ele>
        <time>2020-09-16T03:06:35Z</time>
      </trkpt>
      <trkpt lat="44.88581" lon="5.64146">
        <ele>762</ele>
        <time>2020-09-16T03:06:54Z</time>
      </trkpt>
      <trkpt lat="44.88591" lon="5.64125">
        <ele>763</ele>
        <time>2020-09-16T03:06:57Z</time>
      </trkpt>
      <trkpt lat="44.88596" lon="5.64105">
        <ele>764</ele>
        <time>2020-09-16T03:07:00Z</time>
      </trkpt>
      <trkpt lat="44.88599" lon="5.64086">
        <ele>764</ele>
        <time>2020-09-16T03:07:02Z</time>
      </trkpt>
      <trkpt lat="44.88601" lon="5.63992">
        <ele>767</ele>
        <time>2020-09-16T03:07:14Z</time>
      </trkpt>
      <trkpt lat="44.88603" lon="5.63941">
        <ele>768</ele>
        <time>2020-09-16T03:07:20Z</time>
      </trkpt>
      <trkpt lat="44.88606" lon="5.63928">
        <ele>768</ele>
        <time>2020-09-16T03:07:22Z</time>
      </trkpt>
      <trkpt lat="44.88611" lon="5.63914">
        <ele>768</ele>
        <time>2020-09-16T03:07:24Z</time>
      </trkpt>
      <trkpt lat="44.8862" lon="5.63899">
        <ele>767</ele>
        <time>2020-09-16T03:07:27Z</time>
      </trkpt>
      <trkpt lat="44.88637" lon="5.63879">
        <ele>766</ele>
        <time>2020-09-16T03:07:31Z</time>
      </trkpt>
      <trkpt lat="44.88665" lon="5.63857">
        <ele>767</ele>
        <time>2020-09-16T03:07:36Z</time>
      </trkpt>
      <trkpt lat="44.88683" lon="5.63847">
        <ele>768</ele>
        <time>2020-09-16T03:07:40Z</time>
      </trkpt>
      <trkpt lat="44.88698" lon="5.63845">
        <ele>770</ele>
        <time>2020-09-16T03:07:42Z</time>
      </trkpt>
      <trkpt lat="44.88739" lon="5.63844">
        <ele>775</ele>
        <time>2020-09-16T03:07:50Z</time>
      </trkpt>
      <trkpt lat="44.88751" lon="5.6384">
        <ele>776</ele>
        <time>2020-09-16T03:07:52Z</time>
      </trkpt>
      <trkpt lat="44.88765" lon="5.6383">
        <ele>777</ele>
        <time>2020-09-16T03:07:55Z</time>
      </trkpt>
      <trkpt lat="44.88873" lon="5.63746">
        <ele>783</ele>
        <time>2020-09-16T03:08:17Z</time>
      </trkpt>
      <trkpt lat="44.88911" lon="5.6371">
        <ele>784</ele>
        <time>2020-09-16T03:08:25Z</time>
      </trkpt>
      <trkpt lat="44.8903" lon="5.63584">
        <ele>791</ele>
        <time>2020-09-16T03:08:51Z</time>
      </trkpt>
      <trkpt lat="44.89196" lon="5.6343">
        <ele>793</ele>
        <time>2020-09-16T03:09:27Z</time>
      </trkpt>
      <trkpt lat="44.89211" lon="5.63423">
        <ele>793</ele>
        <time>2020-09-16T03:09:29Z</time>
      </trkpt>
      <trkpt lat="44.89224" lon="5.63422">
        <ele>793</ele>
        <time>2020-09-16T03:09:32Z</time>
      </trkpt>
      <trkpt lat="44.89237" lon="5.63428">
        <ele>795</ele>
        <time>2020-09-16T03:09:34Z</time>
      </trkpt>
      <trkpt lat="44.89249" lon="5.63439">
        <ele>797</ele>
        <time>2020-09-16T03:09:37Z</time>
      </trkpt>
      <trkpt lat="44.89298" lon="5.63513">
        <ele>806</ele>
        <time>2020-09-16T03:09:49Z</time>
      </trkpt>
      <trkpt lat="44.89314" lon="5.63531">
        <ele>809</ele>
        <time>2020-09-16T03:09:53Z</time>
      </trkpt>
      <trkpt lat="44.89351" lon="5.63557">
        <ele>813</ele>
        <time>2020-09-16T03:10:00Z</time>
      </trkpt>
      <trkpt lat="44.89367" lon="5.63564">
        <ele>815</ele>
        <time>2020-09-16T03:10:03Z</time>
      </trkpt>
      <trkpt lat="44.89381" lon="5.63564">
        <ele>815</ele>
        <time>2020-09-16T03:10:06Z</time>
      </trkpt>
      <trkpt lat="44.89415" lon="5.63547">
        <ele>813</ele>
        <time>2020-09-16T03:10:12Z</time>
      </trkpt>
      <trkpt lat="44.89579" lon="5.63519">
        <ele>823</ele>
        <time>2020-09-16T03:10:42Z</time>
      </trkpt>
      <trkpt lat="44.89602" lon="5.63509">
        <ele>826</ele>
        <time>2020-09-16T03:10:46Z</time>
      </trkpt>
      <trkpt lat="44.89619" lon="5.63495">
        <ele>827</ele>
        <time>2020-09-16T03:10:49Z</time>
      </trkpt>
      <trkpt lat="44.89699" lon="5.63418">
        <ele>833</ele>
        <time>2020-09-16T03:11:07Z</time>
      </trkpt>
      <trkpt lat="44.89719" lon="5.63395">
        <ele>837</ele>
        <time>2020-09-16T03:11:11Z</time>
      </trkpt>
      <trkpt lat="44.89726" lon="5.63384">
        <ele>838</ele>
        <time>2020-09-16T03:11:13Z</time>
      </trkpt>
      <trkpt lat="44.8973" lon="5.6337">
        <ele>838</ele>
        <time>2020-09-16T03:11:15Z</time>
      </trkpt>
      <trkpt lat="44.89729" lon="5.63351">
        <ele>836</ele>
        <time>2020-09-16T03:11:17Z</time>
      </trkpt>
      <trkpt lat="44.89724" lon="5.63322">
        <ele>834</ele>
        <time>2020-09-16T03:11:21Z</time>
      </trkpt>
      <trkpt lat="44.89725" lon="5.63293">
        <ele>834</ele>
        <time>2020-09-16T03:11:25Z</time>
      </trkpt>
      <trkpt lat="44.89752" lon="5.63201">
        <ele>840</ele>
        <time>2020-09-16T03:11:37Z</time>
      </trkpt>
      <trkpt lat="44.89754" lon="5.63183">
        <ele>840</ele>
        <time>2020-09-16T03:11:40Z</time>
      </trkpt>
      <trkpt lat="44.89748" lon="5.63159">
        <ele>839</ele>
        <time>2020-09-16T03:11:43Z</time>
      </trkpt>
      <trkpt lat="44.89739" lon="5.63136">
        <ele>837</ele>
        <time>2020-09-16T03:11:46Z</time>
      </trkpt>
      <trkpt lat="44.89737" lon="5.63101">
        <ele>836</ele>
        <time>2020-09-16T03:11:51Z</time>
      </trkpt>
      <trkpt lat="44.89742" lon="5.63084">
        <ele>837</ele>
        <time>2020-09-16T03:11:53Z</time>
      </trkpt>
      <trkpt lat="44.89754" lon="5.63067">
        <ele>840</ele>
        <time>2020-09-16T03:11:56Z</time>
      </trkpt>
      <trkpt lat="44.89772" lon="5.63058">
        <ele>844</ele>
        <time>2020-09-16T03:11:59Z</time>
      </trkpt>
      <trkpt lat="44.89811" lon="5.63046">
        <ele>851</ele>
        <time>2020-09-16T03:12:06Z</time>
      </trkpt>
      <trkpt lat="44.89817" lon="5.63039">
        <ele>852</ele>
        <time>2020-09-16T03:12:08Z</time>
      </trkpt>
      <trkpt lat="44.89824" lon="5.63025">
        <ele>853</ele>
        <time>2020-09-16T03:12:10Z</time>
      </trkpt>
      <trkpt lat="44.8982" lon="5.63004">
        <ele>852</ele>
        <time>2020-09-16T03:12:13Z</time>
      </trkpt>
      <trkpt lat="44.89791" lon="5.62985">
        <ele>849</ele>
        <time>2020-09-16T03:12:18Z</time>
      </trkpt>
      <trkpt lat="44.89784" lon="5.62967">
        <ele>848</ele>
        <time>2020-09-16T03:12:21Z</time>
      </trkpt>
      <trkpt lat="44.89781" lon="5.62944">
        <ele>848</ele>
        <time>2020-09-16T03:12:24Z</time>
      </trkpt>
      <trkpt lat="44.89815" lon="5.62856">
        <ele>851</ele>
        <time>2020-09-16T03:12:37Z</time>
      </trkpt>
      <trkpt lat="44.8983" lon="5.62832">
        <ele>852</ele>
        <time>2020-09-16T03:12:41Z</time>
      </trkpt>
      <trkpt lat="44.89843" lon="5.62817">
        <ele>851</ele>
        <time>2020-09-16T03:12:44Z</time>
      </trkpt>
      <trkpt lat="44.8986" lon="5.62807">
        <ele>852</ele>
        <time>2020-09-16T03:12:47Z</time>
      </trkpt>
      <trkpt lat="44.89961" lon="5.62778">
        <ele>857</ele>
        <time>2020-09-16T03:13:05Z</time>
      </trkpt>
      <trkpt lat="44.89985" lon="5.62779">
        <ele>858</ele>
        <time>2020-09-16T03:13:10Z</time>
      </trkpt>
      <trkpt lat="44.90001" lon="5.62783">
        <ele>860</ele>
        <time>2020-09-16T03:13:12Z</time>
      </trkpt>
      <trkpt lat="44.90047" lon="5.62805">
        <ele>867</ele>
        <time>2020-09-16T03:13:21Z</time>
      </trkpt>
      <trkpt lat="44.90062" lon="5.62817">
        <ele>870</ele>
        <time>2020-09-16T03:13:24Z</time>
      </trkpt>
      <trkpt lat="44.90081" lon="5.62843">
        <ele>876</ele>
        <time>2020-09-16T03:13:29Z</time>
      </trkpt>
      <trkpt lat="44.90093" lon="5.62849">
        <ele>877</ele>
        <time>2020-09-16T03:13:31Z</time>
      </trkpt>
      <trkpt lat="44.90102" lon="5.6285">
        <ele>878</ele>
        <time>2020-09-16T03:13:33Z</time>
      </trkpt>
      <trkpt lat="44.9011" lon="5.62848">
        <ele>878</ele>
        <time>2020-09-16T03:13:34Z</time>
      </trkpt>
      <trkpt lat="44.90135" lon="5.62835">
        <ele>876</ele>
        <time>2020-09-16T03:13:39Z</time>
      </trkpt>
      <trkpt lat="44.90148" lon="5.62832">
        <ele>876</ele>
        <time>2020-09-16T03:13:41Z</time>
      </trkpt>
      <trkpt lat="44.90158" lon="5.62834">
        <ele>877</ele>
        <time>2020-09-16T03:13:43Z</time>
      </trkpt>
      <trkpt lat="44.9017" lon="5.62839">
        <ele>879</ele>
        <time>2020-09-16T03:13:45Z</time>
      </trkpt>
      <trkpt lat="44.90203" lon="5.62866">
        <ele>888</ele>
        <time>2020-09-16T03:13:52Z</time>
      </trkpt>
      <trkpt lat="44.90213" lon="5.62871">
        <ele>890</ele>
        <time>2020-09-16T03:13:54Z</time>
      </trkpt>
      <trkpt lat="44.90222" lon="5.62873">
        <ele>892</ele>
        <time>2020-09-16T03:13:56Z</time>
      </trkpt>
      <trkpt lat="44.90232" lon="5.62872">
        <ele>892</ele>
        <time>2020-09-16T03:13:57Z</time>
      </trkpt>
      <trkpt lat="44.90253" lon="5.62862">
        <ele>891</ele>
        <time>2020-09-16T03:14:01Z</time>
      </trkpt>
      <trkpt lat="44.90262" lon="5.62861">
        <ele>891</ele>
        <time>2020-09-16T03:14:03Z</time>
      </trkpt>
      <trkpt lat="44.90273" lon="5.62863">
        <ele>893</ele>
        <time>2020-09-16T03:14:05Z</time>
      </trkpt>
      <trkpt lat="44.90289" lon="5.6288">
        <ele>898</ele>
        <time>2020-09-16T03:14:08Z</time>
      </trkpt>
      <trkpt lat="44.903" lon="5.62885">
        <ele>901</ele>
        <time>2020-09-16T03:14:10Z</time>
      </trkpt>
      <trkpt lat="44.90315" lon="5.62882">
        <ele>901</ele>
        <time>2020-09-16T03:14:13Z</time>
      </trkpt>
      <trkpt lat="44.90329" lon="5.62872">
        <ele>899</ele>
        <time>2020-09-16T03:14:16Z</time>
      </trkpt>
      <trkpt lat="44.90352" lon="5.62844">
        <ele>897</ele>
        <time>2020-09-16T03:14:21Z</time>
      </trkpt>
      <trkpt lat="44.90365" lon="5.62822">
        <ele>896</ele>
        <time>2020-09-16T03:14:25Z</time>
      </trkpt>
      <trkpt lat="44.90386" lon="5.62777">
        <ele>893</ele>
        <time>2020-09-16T03:14:32Z</time>
      </trkpt>
      <trkpt lat="44.90395" lon="5.62765">
        <ele>892</ele>
        <time>2020-09-16T03:14:34Z</time>
      </trkpt>
      <trkpt lat="44.90408" lon="5.62751">
        <ele>892</ele>
        <time>2020-09-16T03:14:37Z</time>
      </trkpt>
      <trkpt lat="44.90448" lon="5.62726">
        <ele>896</ele>
        <time>2020-09-16T03:14:45Z</time>
      </trkpt>
      <trkpt lat="44.90459" lon="5.62717">
        <ele>897</ele>
        <time>2020-09-16T03:14:47Z</time>
      </trkpt>
      <trkpt lat="44.90506" lon="5.62647">
        <ele>898</ele>
        <time>2020-09-16T03:14:59Z</time>
      </trkpt>
      <trkpt lat="44.90524" lon="5.62626">
        <ele>897</ele>
        <time>2020-09-16T03:15:03Z</time>
      </trkpt>
      <trkpt lat="44.90537" lon="5.62618">
        <ele>898</ele>
        <time>2020-09-16T03:15:06Z</time>
      </trkpt>
      <trkpt lat="44.90561" lon="5.62612">
        <ele>900</ele>
        <time>2020-09-16T03:15:10Z</time>
      </trkpt>
      <trkpt lat="44.90572" lon="5.62612">
        <ele>902</ele>
        <time>2020-09-16T03:15:12Z</time>
      </trkpt>
      <trkpt lat="44.90591" lon="5.62619">
        <ele>903</ele>
        <time>2020-09-16T03:15:16Z</time>
      </trkpt>
      <trkpt lat="44.90654" lon="5.62654">
        <ele>901</ele>
        <time>2020-09-16T03:15:28Z</time>
      </trkpt>
      <trkpt lat="44.90676" lon="5.62674">
        <ele>899</ele>
        <time>2020-09-16T03:15:32Z</time>
      </trkpt>
      <trkpt lat="44.90697" lon="5.62699">
        <ele>897</ele>
        <time>2020-09-16T03:15:37Z</time>
      </trkpt>
      <trkpt lat="44.90704" lon="5.6271">
        <ele>896</ele>
        <time>2020-09-16T03:15:39Z</time>
      </trkpt>
      <trkpt lat="44.90735" lon="5.62776">
        <ele>892</ele>
        <time>2020-09-16T03:15:49Z</time>
      </trkpt>
      <trkpt lat="44.90744" lon="5.62786">
        <ele>890</ele>
        <time>2020-09-16T03:15:51Z</time>
      </trkpt>
      <trkpt lat="44.90769" lon="5.62796">
        <ele>887</ele>
        <time>2020-09-16T03:15:56Z</time>
      </trkpt>
      <trkpt lat="44.90768" lon="5.62821">
        <ele>888</ele>
        <time>2020-09-16T03:15:59Z</time>
      </trkpt>
      <trkpt lat="44.90773" lon="5.62849">
        <ele>887</ele>
        <time>2020-09-16T03:16:02Z</time>
      </trkpt>
      <trkpt lat="44.90791" lon="5.629">
        <ele>885</ele>
        <time>2020-09-16T03:16:10Z</time>
      </trkpt>
      <trkpt lat="44.90825" lon="5.62959">
        <ele>880</ele>
        <time>2020-09-16T03:16:19Z</time>
      </trkpt>
      <trkpt lat="44.90844" lon="5.62986">
        <ele>878</ele>
        <time>2020-09-16T03:16:24Z</time>
      </trkpt>
      <trkpt lat="44.90896" lon="5.63036">
        <ele>877</ele>
        <time>2020-09-16T03:16:35Z</time>
      </trkpt>
      <trkpt lat="44.90944" lon="5.63066">
        <ele>874</ele>
        <time>2020-09-16T03:16:45Z</time>
      </trkpt>
      <trkpt lat="44.9117" lon="5.63187">
        <ele>852</ele>
        <time>2020-09-16T03:17:28Z</time>
      </trkpt>
      <trkpt lat="44.91289" lon="5.63254">
        <ele>847</ele>
        <time>2020-09-16T03:17:50Z</time>
      </trkpt>
      <trkpt lat="44.91295" lon="5.63258">
        <ele>847</ele>
        <time>2020-09-16T03:17:52Z</time>
      </trkpt>
      <trkpt lat="44.91295" lon="5.63266">
        <ele>847</ele>
        <time>2020-09-16T03:17:53Z</time>
      </trkpt>
      <trkpt lat="44.91299" lon="5.63272">
        <ele>847</ele>
        <time>2020-09-16T03:17:54Z</time>
      </trkpt>
      <trkpt lat="44.91301" lon="5.63272">
        <ele>847</ele>
        <time>2020-09-16T03:17:54Z</time>
      </trkpt>
      <trkpt lat="44.91306" lon="5.63268">
        <ele>847</ele>
        <time>2020-09-16T03:17:55Z</time>
      </trkpt>
      <trkpt lat="44.91307" lon="5.63265">
        <ele>847</ele>
        <time>2020-09-16T03:17:55Z</time>
      </trkpt>
      <trkpt lat="44.91313" lon="5.63267">
        <ele>847</ele>
        <time>2020-09-16T03:17:56Z</time>
      </trkpt>
      <trkpt lat="44.91575" lon="5.6341">
        <ele>831</ele>
        <time>2020-09-16T03:18:46Z</time>
      </trkpt>
      <trkpt lat="44.91595" lon="5.63412">
        <ele>830</ele>
        <time>2020-09-16T03:18:50Z</time>
      </trkpt>
      <trkpt lat="44.91605" lon="5.63409">
        <ele>829</ele>
        <time>2020-09-16T03:18:52Z</time>
      </trkpt>
      <trkpt lat="44.91621" lon="5.63432">
        <ele>828</ele>
        <time>2020-09-16T03:18:56Z</time>
      </trkpt>
      <trkpt lat="44.91657" lon="5.63457">
        <ele>826</ele>
        <time>2020-09-16T03:19:03Z</time>
      </trkpt>
      <trkpt lat="44.91684" lon="5.63473">
        <ele>824</ele>
        <time>2020-09-16T03:19:08Z</time>
      </trkpt>
      <trkpt lat="44.91714" lon="5.63487">
        <ele>823</ele>
        <time>2020-09-16T03:19:14Z</time>
      </trkpt>
      <trkpt lat="44.91814" lon="5.63542">
        <ele>817</ele>
        <time>2020-09-16T03:19:33Z</time>
      </trkpt>
      <trkpt lat="44.91818" lon="5.63544">
        <ele>817</ele>
        <time>2020-09-16T03:19:34Z</time>
      </trkpt>
      <trkpt lat="44.91823" lon="5.63547">
        <ele>817</ele>
        <time>2020-09-16T03:19:35Z</time>
      </trkpt>
      <trkpt lat="44.91839" lon="5.63555">
        <ele>816</ele>
        <time>2020-09-16T03:19:38Z</time>
      </trkpt>
      <trkpt lat="44.91847" lon="5.63559">
        <ele>816</ele>
        <time>2020-09-16T03:19:39Z</time>
      </trkpt>
      <trkpt lat="44.91874" lon="5.63567">
        <ele>814</ele>
        <time>2020-09-16T03:19:44Z</time>
      </trkpt>
      <trkpt lat="44.91891" lon="5.63572">
        <ele>813</ele>
        <time>2020-09-16T03:19:47Z</time>
      </trkpt>
      <trkpt lat="44.91905" lon="5.63577">
        <ele>813</ele>
        <time>2020-09-16T03:19:50Z</time>
      </trkpt>
      <trkpt lat="44.91906" lon="5.63577">
        <ele>812</ele>
        <time>2020-09-16T03:19:50Z</time>
      </trkpt>
      <trkpt lat="44.91912" lon="5.6358">
        <ele>812</ele>
        <time>2020-09-16T03:19:51Z</time>
      </trkpt>
      <trkpt lat="44.91916" lon="5.63581">
        <ele>812</ele>
        <time>2020-09-16T03:19:52Z</time>
      </trkpt>
      <trkpt lat="44.91939" lon="5.63589">
        <ele>811</ele>
        <time>2020-09-16T03:19:56Z</time>
      </trkpt>
      <trkpt lat="44.91952" lon="5.63593">
        <ele>811</ele>
        <time>2020-09-16T03:19:58Z</time>
      </trkpt>
      <trkpt lat="44.92064" lon="5.63632">
        <ele>808</ele>
        <time>2020-09-16T03:20:19Z</time>
      </trkpt>
      <trkpt lat="44.9208" lon="5.63634">
        <ele>807</ele>
        <time>2020-09-16T03:20:22Z</time>
      </trkpt>
      <trkpt lat="44.92088" lon="5.63639">
        <ele>807</ele>
        <time>2020-09-16T03:20:23Z</time>
      </trkpt>
      <trkpt lat="44.92101" lon="5.6364">
        <ele>807</ele>
        <time>2020-09-16T03:20:26Z</time>
      </trkpt>
      <trkpt lat="44.92105" lon="5.63641">
        <ele>807</ele>
        <time>2020-09-16T03:20:26Z</time>
      </trkpt>
      <trkpt lat="44.92108" lon="5.63645">
        <ele>807</ele>
        <time>2020-09-16T03:20:27Z</time>
      </trkpt>
      <trkpt lat="44.92112" lon="5.63647">
        <ele>806</ele>
        <time>2020-09-16T03:20:28Z</time>
      </trkpt>
      <trkpt lat="44.92116" lon="5.63648">
        <ele>806</ele>
        <time>2020-09-16T03:20:29Z</time>
      </trkpt>
      <trkpt lat="44.9212" lon="5.63647">
        <ele>806</ele>
        <time>2020-09-16T03:20:29Z</time>
      </trkpt>
      <trkpt lat="44.92129" lon="5.63651">
        <ele>806</ele>
        <time>2020-09-16T03:20:31Z</time>
      </trkpt>
      <trkpt lat="44.92141" lon="5.63656">
        <ele>806</ele>
        <time>2020-09-16T03:20:33Z</time>
      </trkpt>
      <trkpt lat="44.92161" lon="5.63662">
        <ele>806</ele>
        <time>2020-09-16T03:20:37Z</time>
      </trkpt>
      <trkpt lat="44.92167" lon="5.63664">
        <ele>806</ele>
        <time>2020-09-16T03:20:38Z</time>
      </trkpt>
      <trkpt lat="44.92221" lon="5.63681">
        <ele>806</ele>
        <time>2020-09-16T03:20:48Z</time>
      </trkpt>
      <trkpt lat="44.9228" lon="5.63702">
        <ele>806</ele>
        <time>2020-09-16T03:20:59Z</time>
      </trkpt>
      <trkpt lat="44.92327" lon="5.63717">
        <ele>804</ele>
        <time>2020-09-16T03:21:07Z</time>
      </trkpt>
      <trkpt lat="44.92392" lon="5.6374">
        <ele>803</ele>
        <time>2020-09-16T03:21:19Z</time>
      </trkpt>
      <trkpt lat="44.92415" lon="5.6375">
        <ele>803</ele>
        <time>2020-09-16T03:21:23Z</time>
      </trkpt>
      <trkpt lat="44.92459" lon="5.63763">
        <ele>803</ele>
        <time>2020-09-16T03:21:31Z</time>
      </trkpt>
      <trkpt lat="44.92478" lon="5.63769">
        <ele>803</ele>
        <time>2020-09-16T03:21:35Z</time>
      </trkpt>
      <trkpt lat="44.92557" lon="5.63796">
        <ele>800</ele>
        <time>2020-09-16T03:21:49Z</time>
      </trkpt>
      <trkpt lat="44.92576" lon="5.63806">
        <ele>800</ele>
        <time>2020-09-16T03:21:53Z</time>
      </trkpt>
      <trkpt lat="44.92579" lon="5.63811">
        <ele>800</ele>
        <time>2020-09-16T03:21:54Z</time>
      </trkpt>
      <trkpt lat="44.92583" lon="5.63814">
        <ele>800</ele>
        <time>2020-09-16T03:21:55Z</time>
      </trkpt>
      <trkpt lat="44.92588" lon="5.63815">
        <ele>800</ele>
        <time>2020-09-16T03:21:55Z</time>
      </trkpt>
      <trkpt lat="44.92588" lon="5.63825">
        <ele>801</ele>
        <time>2020-09-16T03:21:57Z</time>
      </trkpt>
      <trkpt lat="44.9259" lon="5.63836">
        <ele>801</ele>
        <time>2020-09-16T03:21:58Z</time>
      </trkpt>
      <trkpt lat="44.92596" lon="5.63843">
        <ele>801</ele>
        <time>2020-09-16T03:22:00Z</time>
      </trkpt>
      <trkpt lat="44.92617" lon="5.6385">
        <ele>800</ele>
        <time>2020-09-16T03:22:03Z</time>
      </trkpt>
      <trkpt lat="44.92636" lon="5.63862">
        <ele>800</ele>
        <time>2020-09-16T03:22:07Z</time>
      </trkpt>
      <trkpt lat="44.92705" lon="5.63938">
        <ele>802</ele>
        <time>2020-09-16T03:22:23Z</time>
      </trkpt>
      <trkpt lat="44.92749" lon="5.63989">
        <ele>803</ele>
        <time>2020-09-16T03:22:33Z</time>
      </trkpt>
      <trkpt lat="44.92753" lon="5.63994">
        <ele>803</ele>
        <time>2020-09-16T03:22:34Z</time>
      </trkpt>
      <trkpt lat="44.92779" lon="5.64038">
        <ele>807</ele>
        <time>2020-09-16T03:22:41Z</time>
      </trkpt>
      <trkpt lat="44.92782" lon="5.6406">
        <ele>811</ele>
        <time>2020-09-16T03:22:44Z</time>
      </trkpt>
      <trkpt lat="44.92784" lon="5.64087">
        <ele>816</ele>
        <time>2020-09-16T03:22:47Z</time>
      </trkpt>
      <trkpt lat="44.92792" lon="5.64097">
        <ele>819</ele>
        <time>2020-09-16T03:22:49Z</time>
      </trkpt>
      <trkpt lat="44.92802" lon="5.64104">
        <ele>821</ele>
        <time>2020-09-16T03:22:51Z</time>
      </trkpt>
      <trkpt lat="44.92891" lon="5.64132">
        <ele>819</ele>
        <time>2020-09-16T03:23:07Z</time>
      </trkpt>
      <trkpt lat="44.9301" lon="5.64154">
        <ele>818</ele>
        <time>2020-09-16T03:23:29Z</time>
      </trkpt>
      <trkpt lat="44.93051" lon="5.64154">
        <ele>818</ele>
        <time>2020-09-16T03:23:36Z</time>
      </trkpt>
      <trkpt lat="44.93078" lon="5.64149">
        <ele>816</ele>
        <time>2020-09-16T03:23:41Z</time>
      </trkpt>
      <trkpt lat="44.93102" lon="5.64149">
        <ele>816</ele>
        <time>2020-09-16T03:23:45Z</time>
      </trkpt>
      <trkpt lat="44.93119" lon="5.64152">
        <ele>817</ele>
        <time>2020-09-16T03:23:48Z</time>
      </trkpt>
      <trkpt lat="44.93136" lon="5.64157">
        <ele>818</ele>
        <time>2020-09-16T03:23:51Z</time>
      </trkpt>
      <trkpt lat="44.93154" lon="5.64167">
        <ele>821</ele>
        <time>2020-09-16T03:23:55Z</time>
      </trkpt>
      <trkpt lat="44.9321" lon="5.64205">
        <ele>837</ele>
        <time>2020-09-16T03:24:06Z</time>
      </trkpt>
      <trkpt lat="44.93231" lon="5.64209">
        <ele>836</ele>
        <time>2020-09-16T03:24:09Z</time>
      </trkpt>
      <trkpt lat="44.93338" lon="5.64212">
        <ele>838</ele>
        <time>2020-09-16T03:24:29Z</time>
      </trkpt>
      <trkpt lat="44.93372" lon="5.64217">
        <ele>842</ele>
        <time>2020-09-16T03:24:35Z</time>
      </trkpt>
      <trkpt lat="44.93417" lon="5.64203">
        <ele>836</ele>
        <time>2020-09-16T03:24:43Z</time>
      </trkpt>
      <trkpt lat="44.93444" lon="5.64204">
        <ele>836</ele>
        <time>2020-09-16T03:24:48Z</time>
      </trkpt>
      <trkpt lat="44.93538" lon="5.64224">
        <ele>844</ele>
        <time>2020-09-16T03:25:05Z</time>
      </trkpt>
      <trkpt lat="44.93595" lon="5.64232">
        <ele>850</ele>
        <time>2020-09-16T03:25:15Z</time>
      </trkpt>
      <trkpt lat="44.93631" lon="5.64224">
        <ele>850</ele>
        <time>2020-09-16T03:25:21Z</time>
      </trkpt>
      <trkpt lat="44.93826" lon="5.64223">
        <ele>863</ele>
        <time>2020-09-16T03:25:56Z</time>
      </trkpt>
      <trkpt lat="44.93875" lon="5.64209">
        <ele>860</ele>
        <time>2020-09-16T03:26:05Z</time>
      </trkpt>
      <trkpt lat="44.93912" lon="5.64205">
        <ele>860</ele>
        <time>2020-09-16T03:26:11Z</time>
      </trkpt>
      <trkpt lat="44.93947" lon="5.64211">
        <ele>862</ele>
        <time>2020-09-16T03:26:18Z</time>
      </trkpt>
      <trkpt lat="44.93994" lon="5.64228">
        <ele>871</ele>
        <time>2020-09-16T03:26:26Z</time>
      </trkpt>
      <trkpt lat="44.94075" lon="5.64238">
        <ele>872</ele>
        <time>2020-09-16T03:26:41Z</time>
      </trkpt>
      <trkpt lat="44.94131" lon="5.64249">
        <ele>877</ele>
        <time>2020-09-16T03:26:51Z</time>
      </trkpt>
      <trkpt lat="44.9427" lon="5.64288">
        <ele>879</ele>
        <time>2020-09-16T03:27:16Z</time>
      </trkpt>
      <trkpt lat="44.94362" lon="5.64272">
        <ele>874</ele>
        <time>2020-09-16T03:27:33Z</time>
      </trkpt>
      <trkpt lat="44.94386" lon="5.64281">
        <ele>876</ele>
        <time>2020-09-16T03:27:37Z</time>
      </trkpt>
      <trkpt lat="44.94414" lon="5.64305">
        <ele>881</ele>
        <time>2020-09-16T03:27:43Z</time>
      </trkpt>
      <trkpt lat="44.94451" lon="5.64368">
        <ele>880</ele>
        <time>2020-09-16T03:27:53Z</time>
      </trkpt>
      <trkpt lat="44.94471" lon="5.64427">
        <ele>879</ele>
        <time>2020-09-16T03:28:01Z</time>
      </trkpt>
      <trkpt lat="44.9449" lon="5.64524">
        <ele>881</ele>
        <time>2020-09-16T03:28:14Z</time>
      </trkpt>
      <trkpt lat="44.94492" lon="5.64541">
        <ele>881</ele>
        <time>2020-09-16T03:28:16Z</time>
      </trkpt>
      <trkpt lat="44.9449" lon="5.64585">
        <ele>881</ele>
        <time>2020-09-16T03:28:22Z</time>
      </trkpt>
      <trkpt lat="44.94493" lon="5.64603">
        <ele>879</ele>
        <time>2020-09-16T03:28:24Z</time>
      </trkpt>
      <trkpt lat="44.94499" lon="5.64619">
        <ele>877</ele>
        <time>2020-09-16T03:28:26Z</time>
      </trkpt>
      <trkpt lat="44.94544" lon="5.64709">
        <ele>876</ele>
        <time>2020-09-16T03:28:40Z</time>
      </trkpt>
      <trkpt lat="44.94561" lon="5.64751">
        <ele>877</ele>
        <time>2020-09-16T03:28:46Z</time>
      </trkpt>
      <trkpt lat="44.94573" lon="5.64795">
        <ele>878</ele>
        <time>2020-09-16T03:28:52Z</time>
      </trkpt>
      <trkpt lat="44.94579" lon="5.64853">
        <ele>874</ele>
        <time>2020-09-16T03:29:00Z</time>
      </trkpt>
      <trkpt lat="44.94583" lon="5.64879">
        <ele>871</ele>
        <time>2020-09-16T03:29:03Z</time>
      </trkpt>
      <trkpt lat="44.94604" lon="5.64924">
        <ele>872</ele>
        <time>2020-09-16T03:29:10Z</time>
      </trkpt>
      <trkpt lat="44.9462" lon="5.64976">
        <ele>868</ele>
        <time>2020-09-16T03:29:17Z</time>
      </trkpt>
      <trkpt lat="44.9463" lon="5.64994">
        <ele>868</ele>
        <time>2020-09-16T03:29:20Z</time>
      </trkpt>
      <trkpt lat="44.94642" lon="5.65008">
        <ele>869</ele>
        <time>2020-09-16T03:29:23Z</time>
      </trkpt>
      <trkpt lat="44.94661" lon="5.65023">
        <ele>871</ele>
        <time>2020-09-16T03:29:26Z</time>
      </trkpt>
      <trkpt lat="44.94705" lon="5.65049">
        <ele>873</ele>
        <time>2020-09-16T03:29:35Z</time>
      </trkpt>
      <trkpt lat="44.94753" lon="5.65093">
        <ele>868</ele>
        <time>2020-09-16T03:29:45Z</time>
      </trkpt>
      <trkpt lat="44.94777" lon="5.65111">
        <ele>867</ele>
        <time>2020-09-16T03:29:50Z</time>
      </trkpt>
      <trkpt lat="44.94836" lon="5.65148">
        <ele>865</ele>
        <time>2020-09-16T03:30:01Z</time>
      </trkpt>
      <trkpt lat="44.94869" lon="5.6516">
        <ele>867</ele>
        <time>2020-09-16T03:30:07Z</time>
      </trkpt>
      <trkpt lat="44.9489" lon="5.65164">
        <ele>870</ele>
        <time>2020-09-16T03:30:11Z</time>
      </trkpt>
      <trkpt lat="44.949" lon="5.6517">
        <ele>870</ele>
        <time>2020-09-16T03:30:13Z</time>
      </trkpt>
      <trkpt lat="44.94939" lon="5.65209">
        <ele>867</ele>
        <time>2020-09-16T03:30:22Z</time>
      </trkpt>
      <trkpt lat="44.94949" lon="5.65226">
        <ele>863</ele>
        <time>2020-09-16T03:30:24Z</time>
      </trkpt>
      <trkpt lat="44.94958" lon="5.65236">
        <ele>862</ele>
        <time>2020-09-16T03:30:26Z</time>
      </trkpt>
      <trkpt lat="44.9497" lon="5.65244">
        <ele>861</ele>
        <time>2020-09-16T03:30:29Z</time>
      </trkpt>
      <trkpt lat="44.94996" lon="5.65249">
        <ele>862</ele>
        <time>2020-09-16T03:30:34Z</time>
      </trkpt>
      <trkpt lat="44.95005" lon="5.65253">
        <ele>862</ele>
        <time>2020-09-16T03:30:35Z</time>
      </trkpt>
      <trkpt lat="44.95011" lon="5.65265">
        <ele>861</ele>
        <time>2020-09-16T03:30:37Z</time>
      </trkpt>
      <trkpt lat="44.9501" lon="5.6528">
        <ele>858</ele>
        <time>2020-09-16T03:30:39Z</time>
      </trkpt>
      <trkpt lat="44.95007" lon="5.65293">
        <ele>855</ele>
        <time>2020-09-16T03:30:41Z</time>
      </trkpt>
      <trkpt lat="44.95004" lon="5.65293">
        <ele>855</ele>
        <time>2020-09-16T03:30:41Z</time>
      </trkpt>
      <trkpt lat="44.94996" lon="5.65298">
        <ele>854</ele>
        <time>2020-09-16T03:30:43Z</time>
      </trkpt>
      <trkpt lat="44.94993" lon="5.65306">
        <ele>852</ele>
        <time>2020-09-16T03:30:44Z</time>
      </trkpt>
      <trkpt lat="44.94993" lon="5.65311">
        <ele>852</ele>
        <time>2020-09-16T03:30:45Z</time>
      </trkpt>
      <trkpt lat="44.94997" lon="5.65319">
        <ele>850</ele>
        <time>2020-09-16T03:30:46Z</time>
      </trkpt>
      <trkpt lat="44.94999" lon="5.65322">
        <ele>850</ele>
        <time>2020-09-16T03:30:46Z</time>
      </trkpt>
      <trkpt lat="44.95003" lon="5.65323">
        <ele>850</ele>
        <time>2020-09-16T03:30:47Z</time>
      </trkpt>
      <trkpt lat="44.95009" lon="5.65321">
        <ele>850</ele>
        <time>2020-09-16T03:30:48Z</time>
      </trkpt>
      <trkpt lat="44.95014" lon="5.65313">
        <ele>852</ele>
        <time>2020-09-16T03:30:49Z</time>
      </trkpt>
      <trkpt lat="44.95086" lon="5.65351">
        <ele>848</ele>
        <time>2020-09-16T03:31:03Z</time>
      </trkpt>
      <trkpt lat="44.95107" lon="5.65358">
        <ele>849</ele>
        <time>2020-09-16T03:31:07Z</time>
      </trkpt>
      <trkpt lat="44.95553" lon="5.65487">
        <ele>838</ele>
        <time>2020-09-16T03:32:28Z</time>
      </trkpt>
      <trkpt lat="44.95585" lon="5.65494">
        <ele>837</ele>
        <time>2020-09-16T03:32:34Z</time>
      </trkpt>
      <trkpt lat="44.95613" lon="5.65496">
        <ele>838</ele>
        <time>2020-09-16T03:32:39Z</time>
      </trkpt>
      <trkpt lat="44.95645" lon="5.65492">
        <ele>839</ele>
        <time>2020-09-16T03:32:44Z</time>
      </trkpt>
      <trkpt lat="44.95677" lon="5.65481">
        <ele>841</ele>
        <time>2020-09-16T03:32:50Z</time>
      </trkpt>
      <trkpt lat="44.95696" lon="5.65471">
        <ele>842</ele>
        <time>2020-09-16T03:32:54Z</time>
      </trkpt>
      <trkpt lat="44.95721" lon="5.65453">
        <ele>843</ele>
        <time>2020-09-16T03:32:59Z</time>
      </trkpt>
      <trkpt lat="44.95755" lon="5.65426">
        <ele>844</ele>
        <time>2020-09-16T03:33:06Z</time>
      </trkpt>
      <trkpt lat="44.95788" lon="5.65395">
        <ele>845</ele>
        <time>2020-09-16T03:33:13Z</time>
      </trkpt>
      <trkpt lat="44.95833" lon="5.65342">
        <ele>839</ele>
        <time>2020-09-16T03:33:23Z</time>
      </trkpt>
      <trkpt lat="44.95863" lon="5.653">
        <ele>833</ele>
        <time>2020-09-16T03:33:31Z</time>
      </trkpt>
      <trkpt lat="44.95878" lon="5.65275">
        <ele>830</ele>
        <time>2020-09-16T03:33:35Z</time>
      </trkpt>
      <trkpt lat="44.95911" lon="5.65213">
        <ele>821</ele>
        <time>2020-09-16T03:33:45Z</time>
      </trkpt>
      <trkpt lat="44.95937" lon="5.65152">
        <ele>818</ele>
        <time>2020-09-16T03:33:54Z</time>
      </trkpt>
      <trkpt lat="44.95971" lon="5.65066">
        <ele>816</ele>
        <time>2020-09-16T03:34:06Z</time>
      </trkpt>
      <trkpt lat="44.95996" lon="5.65029">
        <ele>814</ele>
        <time>2020-09-16T03:34:13Z</time>
      </trkpt>
      <trkpt lat="44.96012" lon="5.65022">
        <ele>813</ele>
        <time>2020-09-16T03:34:15Z</time>
      </trkpt>
      <trkpt lat="44.96016" lon="5.65018">
        <ele>813</ele>
        <time>2020-09-16T03:34:16Z</time>
      </trkpt>
      <trkpt lat="44.96023" lon="5.65007">
        <ele>812</ele>
        <time>2020-09-16T03:34:18Z</time>
      </trkpt>
      <trkpt lat="44.96025" lon="5.64992">
        <ele>812</ele>
        <time>2020-09-16T03:34:20Z</time>
      </trkpt>
      <trkpt lat="44.96023" lon="5.64976">
        <ele>812</ele>
        <time>2020-09-16T03:34:22Z</time>
      </trkpt>
      <trkpt lat="44.9602" lon="5.64969">
        <ele>813</ele>
        <time>2020-09-16T03:34:23Z</time>
      </trkpt>
      <trkpt lat="44.96013" lon="5.64961">
        <ele>813</ele>
        <time>2020-09-16T03:34:25Z</time>
      </trkpt>
      <trkpt lat="44.9601" lon="5.64945">
        <ele>813</ele>
        <time>2020-09-16T03:34:27Z</time>
      </trkpt>
      <trkpt lat="44.96009" lon="5.64903">
        <ele>814</ele>
        <time>2020-09-16T03:34:32Z</time>
      </trkpt>
      <trkpt lat="44.96014" lon="5.64871">
        <ele>813</ele>
        <time>2020-09-16T03:34:36Z</time>
      </trkpt>
      <trkpt lat="44.96024" lon="5.64841">
        <ele>813</ele>
        <time>2020-09-16T03:34:41Z</time>
      </trkpt>
      <trkpt lat="44.96038" lon="5.64815">
        <ele>812</ele>
        <time>2020-09-16T03:34:45Z</time>
      </trkpt>
      <trkpt lat="44.96056" lon="5.64794">
        <ele>811</ele>
        <time>2020-09-16T03:34:49Z</time>
      </trkpt>
      <trkpt lat="44.96368" lon="5.64502">
        <ele>792</ele>
        <time>2020-09-16T03:35:55Z</time>
      </trkpt>
      <trkpt lat="44.96409" lon="5.64467">
        <ele>787</ele>
        <time>2020-09-16T03:36:04Z</time>
      </trkpt>
      <trkpt lat="44.96473" lon="5.6442">
        <ele>781</ele>
        <time>2020-09-16T03:36:17Z</time>
      </trkpt>
      <trkpt lat="44.96517" lon="5.64394">
        <ele>779</ele>
        <time>2020-09-16T03:36:25Z</time>
      </trkpt>
      <trkpt lat="44.96551" lon="5.64376">
        <ele>778</ele>
        <time>2020-09-16T03:36:32Z</time>
      </trkpt>
      <trkpt lat="44.96612" lon="5.6435">
        <ele>778</ele>
        <time>2020-09-16T03:36:43Z</time>
      </trkpt>
      <trkpt lat="44.96642" lon="5.64341">
        <ele>778</ele>
        <time>2020-09-16T03:36:48Z</time>
      </trkpt>
      <trkpt lat="44.96656" lon="5.64337">
        <ele>778</ele>
        <time>2020-09-16T03:36:51Z</time>
      </trkpt>
      <trkpt lat="44.96693" lon="5.64328">
        <ele>779</ele>
        <time>2020-09-16T03:36:58Z</time>
      </trkpt>
      <trkpt lat="44.9681" lon="5.64303">
        <ele>781</ele>
        <time>2020-09-16T03:37:19Z</time>
      </trkpt>
      <trkpt lat="44.96833" lon="5.64301">
        <ele>781</ele>
        <time>2020-09-16T03:37:23Z</time>
      </trkpt>
      <trkpt lat="44.96881" lon="5.64299">
        <ele>777</ele>
        <time>2020-09-16T03:37:31Z</time>
      </trkpt>
      <trkpt lat="44.96942" lon="5.64307">
        <ele>771</ele>
        <time>2020-09-16T03:37:42Z</time>
      </trkpt>
      <trkpt lat="44.96988" lon="5.64319">
        <ele>766</ele>
        <time>2020-09-16T03:37:51Z</time>
      </trkpt>
      <trkpt lat="44.97407" lon="5.64465">
        <ele>740</ele>
        <time>2020-09-16T03:39:07Z</time>
      </trkpt>
      <trkpt lat="44.97456" lon="5.64477">
        <ele>736</ele>
        <time>2020-09-16T03:39:16Z</time>
      </trkpt>
      <trkpt lat="44.9761" lon="5.64499">
        <ele>733</ele>
        <time>2020-09-16T03:39:44Z</time>
      </trkpt>
      <trkpt lat="44.97683" lon="5.64501">
        <ele>723</ele>
        <time>2020-09-16T03:39:57Z</time>
      </trkpt>
      <trkpt lat="44.97714" lon="5.64507">
        <ele>719</ele>
        <time>2020-09-16T03:40:02Z</time>
      </trkpt>
      <trkpt lat="44.97776" lon="5.64532">
        <ele>714</ele>
        <time>2020-09-16T03:40:14Z</time>
      </trkpt>
      <trkpt lat="44.97828" lon="5.64566">
        <ele>713</ele>
        <time>2020-09-16T03:40:24Z</time>
      </trkpt>
      <trkpt lat="44.97862" lon="5.64586">
        <ele>710</ele>
        <time>2020-09-16T03:40:31Z</time>
      </trkpt>
      <trkpt lat="44.97897" lon="5.64601">
        <ele>705</ele>
        <time>2020-09-16T03:40:37Z</time>
      </trkpt>
      <trkpt lat="44.97963" lon="5.64618">
        <ele>700</ele>
        <time>2020-09-16T03:40:49Z</time>
      </trkpt>
      <trkpt lat="44.98098" lon="5.64651">
        <ele>692</ele>
        <time>2020-09-16T03:41:13Z</time>
      </trkpt>
      <trkpt lat="44.98127" lon="5.64654">
        <ele>690</ele>
        <time>2020-09-16T03:41:19Z</time>
      </trkpt>
      <trkpt lat="44.98192" lon="5.64645">
        <ele>682</ele>
        <time>2020-09-16T03:41:30Z</time>
      </trkpt>
      <trkpt lat="44.98216" lon="5.64645">
        <ele>680</ele>
        <time>2020-09-16T03:41:34Z</time>
      </trkpt>
      <trkpt lat="44.98238" lon="5.64651">
        <ele>679</ele>
        <time>2020-09-16T03:41:38Z</time>
      </trkpt>
      <trkpt lat="44.9828" lon="5.6467">
        <ele>678</ele>
        <time>2020-09-16T03:41:46Z</time>
      </trkpt>
      <trkpt lat="44.98315" lon="5.64675">
        <ele>673</ele>
        <time>2020-09-16T03:41:53Z</time>
      </trkpt>
      <trkpt lat="44.98342" lon="5.64683">
        <ele>671</ele>
        <time>2020-09-16T03:41:57Z</time>
      </trkpt>
      <trkpt lat="44.9837" lon="5.64697">
        <ele>672</ele>
        <time>2020-09-16T03:42:03Z</time>
      </trkpt>
      <trkpt lat="44.98401" lon="5.64718">
        <ele>673</ele>
        <time>2020-09-16T03:42:09Z</time>
      </trkpt>
      <trkpt lat="44.9846" lon="5.64747">
        <ele>668</ele>
        <time>2020-09-16T03:42:20Z</time>
      </trkpt>
      <trkpt lat="44.98484" lon="5.64755">
        <ele>664</ele>
        <time>2020-09-16T03:42:24Z</time>
      </trkpt>
      <trkpt lat="44.98534" lon="5.6476">
        <ele>658</ele>
        <time>2020-09-16T03:42:33Z</time>
      </trkpt>
      <trkpt lat="44.98557" lon="5.64765">
        <ele>656</ele>
        <time>2020-09-16T03:42:37Z</time>
      </trkpt>
      <trkpt lat="44.98589" lon="5.64778">
        <ele>654</ele>
        <time>2020-09-16T03:42:43Z</time>
      </trkpt>
      <trkpt lat="44.98636" lon="5.64802">
        <ele>652</ele>
        <time>2020-09-16T03:42:52Z</time>
      </trkpt>
      <trkpt lat="44.98674" lon="5.64827">
        <ele>651</ele>
        <time>2020-09-16T03:43:00Z</time>
      </trkpt>
      <trkpt lat="44.98721" lon="5.64848">
        <ele>651</ele>
        <time>2020-09-16T03:43:08Z</time>
      </trkpt>
      <trkpt lat="44.98762" lon="5.64878">
        <ele>654</ele>
        <time>2020-09-16T03:43:17Z</time>
      </trkpt>
      <trkpt lat="44.98777" lon="5.64885">
        <ele>653</ele>
        <time>2020-09-16T03:43:19Z</time>
      </trkpt>
      <trkpt lat="44.98782" lon="5.64886">
        <ele>652</ele>
        <time>2020-09-16T03:43:20Z</time>
      </trkpt>
      <trkpt lat="44.98787" lon="5.64888">
        <ele>652</ele>
        <time>2020-09-16T03:43:21Z</time>
      </trkpt>
      <trkpt lat="44.988" lon="5.64886">
        <ele>649</ele>
        <time>2020-09-16T03:43:24Z</time>
      </trkpt>
      <trkpt lat="44.9881" lon="5.64883">
        <ele>646</ele>
        <time>2020-09-16T03:43:25Z</time>
      </trkpt>
      <trkpt lat="44.98814" lon="5.64885">
        <ele>646</ele>
        <time>2020-09-16T03:43:26Z</time>
      </trkpt>
      <trkpt lat="44.98819" lon="5.64887">
        <ele>645</ele>
        <time>2020-09-16T03:43:27Z</time>
      </trkpt>
      <trkpt lat="44.98828" lon="5.64885">
        <ele>643</ele>
        <time>2020-09-16T03:43:29Z</time>
      </trkpt>
      <trkpt lat="44.98831" lon="5.64883">
        <ele>643</ele>
        <time>2020-09-16T03:43:29Z</time>
      </trkpt>
      <trkpt lat="44.98834" lon="5.64879">
        <ele>642</ele>
        <time>2020-09-16T03:43:30Z</time>
      </trkpt>
      <trkpt lat="44.98843" lon="5.64879">
        <ele>641</ele>
        <time>2020-09-16T03:43:32Z</time>
      </trkpt>
      <trkpt lat="44.98859" lon="5.64886">
        <ele>640</ele>
        <time>2020-09-16T03:43:35Z</time>
      </trkpt>
      <trkpt lat="44.98871" lon="5.64892">
        <ele>640</ele>
        <time>2020-09-16T03:43:37Z</time>
      </trkpt>
      <trkpt lat="44.98882" lon="5.649">
        <ele>639</ele>
        <time>2020-09-16T03:43:39Z</time>
      </trkpt>
      <trkpt lat="44.98917" lon="5.64918">
        <ele>636</ele>
        <time>2020-09-16T03:43:46Z</time>
      </trkpt>
      <trkpt lat="44.9901" lon="5.64954">
        <ele>633</ele>
        <time>2020-09-16T03:44:03Z</time>
      </trkpt>
      <trkpt lat="44.9904" lon="5.6496">
        <ele>630</ele>
        <time>2020-09-16T03:44:08Z</time>
      </trkpt>
      <trkpt lat="44.99121" lon="5.64966">
        <ele>623</ele>
        <time>2020-09-16T03:44:23Z</time>
      </trkpt>
      <trkpt lat="44.99141" lon="5.64969">
        <ele>622</ele>
        <time>2020-09-16T03:44:26Z</time>
      </trkpt>
      <trkpt lat="44.99152" lon="5.64972">
        <ele>622</ele>
        <time>2020-09-16T03:44:28Z</time>
      </trkpt>
      <trkpt lat="44.99211" lon="5.64995">
        <ele>618</ele>
        <time>2020-09-16T03:44:39Z</time>
      </trkpt>
      <trkpt lat="44.99354" lon="5.65052">
        <ele>610</ele>
        <time>2020-09-16T03:45:06Z</time>
      </trkpt>
      <trkpt lat="44.99383" lon="5.65063">
        <ele>609</ele>
        <time>2020-09-16T03:45:11Z</time>
      </trkpt>
      <trkpt lat="44.9941" lon="5.65074">
        <ele>608</ele>
        <time>2020-09-16T03:45:16Z</time>
      </trkpt>
      <trkpt lat="44.99423" lon="5.65079">
        <ele>608</ele>
        <time>2020-09-16T03:45:18Z</time>
      </trkpt>
      <trkpt lat="44.9957" lon="5.65137">
        <ele>606</ele>
        <time>2020-09-16T03:45:45Z</time>
      </trkpt>
      <trkpt lat="44.99683" lon="5.65184">
        <ele>601</ele>
        <time>2020-09-16T03:46:06Z</time>
      </trkpt>
      <trkpt lat="44.99734" lon="5.65208">
        <ele>599</ele>
        <time>2020-09-16T03:46:16Z</time>
      </trkpt>
      <trkpt lat="44.99782" lon="5.65237">
        <ele>598</ele>
        <time>2020-09-16T03:46:25Z</time>
      </trkpt>
      <trkpt lat="44.99923" lon="5.65312">
        <ele>594</ele>
        <time>2020-09-16T03:46:52Z</time>
      </trkpt>
      <trkpt lat="44.99974" lon="5.6534">
        <ele>593</ele>
        <time>2020-09-16T03:47:02Z</time>
      </trkpt>
      <trkpt lat="45.00013" lon="5.65359">
        <ele>592</ele>
        <time>2020-09-16T03:47:09Z</time>
      </trkpt>
      <trkpt lat="45.0009" lon="5.6539">
        <ele>591</ele>
        <time>2020-09-16T03:47:23Z</time>
      </trkpt>
      <trkpt lat="45.00176" lon="5.6543">
        <ele>587</ele>
        <time>2020-09-16T03:47:40Z</time>
      </trkpt>
      <trkpt lat="45.00247" lon="5.65458">
        <ele>585</ele>
        <time>2020-09-16T03:47:53Z</time>
      </trkpt>
      <trkpt lat="45.00258" lon="5.65462">
        <ele>585</ele>
        <time>2020-09-16T03:47:55Z</time>
      </trkpt>
      <trkpt lat="45.00303" lon="5.65474">
        <ele>582</ele>
        <time>2020-09-16T03:48:03Z</time>
      </trkpt>
      <trkpt lat="45.00327" lon="5.65478">
        <ele>581</ele>
        <time>2020-09-16T03:48:07Z</time>
      </trkpt>
      <trkpt lat="45.00541" lon="5.655">
        <ele>574</ele>
        <time>2020-09-16T03:48:45Z</time>
      </trkpt>
      <trkpt lat="45.00584" lon="5.65508">
        <ele>573</ele>
        <time>2020-09-16T03:48:53Z</time>
      </trkpt>
      <trkpt lat="45.00618" lon="5.65522">
        <ele>570</ele>
        <time>2020-09-16T03:48:59Z</time>
      </trkpt>
      <trkpt lat="45.00672" lon="5.65557">
        <ele>568</ele>
        <time>2020-09-16T03:49:10Z</time>
      </trkpt>
      <trkpt lat="45.00722" lon="5.65584">
        <ele>564</ele>
        <time>2020-09-16T03:49:19Z</time>
      </trkpt>
      <trkpt lat="45.0088" lon="5.65643">
        <ele>556</ele>
        <time>2020-09-16T03:49:48Z</time>
      </trkpt>
      <trkpt lat="45.00928" lon="5.65666">
        <ele>554</ele>
        <time>2020-09-16T03:49:57Z</time>
      </trkpt>
      <trkpt lat="45.01045" lon="5.65729">
        <ele>552</ele>
        <time>2020-09-16T03:50:20Z</time>
      </trkpt>
      <trkpt lat="45.01096" lon="5.65752">
        <ele>549</ele>
        <time>2020-09-16T03:50:29Z</time>
      </trkpt>
      <trkpt lat="45.01145" lon="5.65769">
        <ele>547</ele>
        <time>2020-09-16T03:50:38Z</time>
      </trkpt>
      <trkpt lat="45.01191" lon="5.65781">
        <ele>545</ele>
        <time>2020-09-16T03:50:47Z</time>
      </trkpt>
      <trkpt lat="45.01244" lon="5.65788">
        <ele>542</ele>
        <time>2020-09-16T03:50:56Z</time>
      </trkpt>
      <trkpt lat="45.01352" lon="5.6579">
        <ele>539</ele>
        <time>2020-09-16T03:51:15Z</time>
      </trkpt>
      <trkpt lat="45.01396" lon="5.65793">
        <ele>537</ele>
        <time>2020-09-16T03:51:23Z</time>
      </trkpt>
      <trkpt lat="45.01412" lon="5.65796">
        <ele>537</ele>
        <time>2020-09-16T03:51:26Z</time>
      </trkpt>
      <trkpt lat="45.01444" lon="5.65806">
        <ele>535</ele>
        <time>2020-09-16T03:51:32Z</time>
      </trkpt>
      <trkpt lat="45.01478" lon="5.6582">
        <ele>534</ele>
        <time>2020-09-16T03:51:38Z</time>
      </trkpt>
      <trkpt lat="45.01531" lon="5.6584">
        <ele>532</ele>
        <time>2020-09-16T03:51:48Z</time>
      </trkpt>
      <trkpt lat="45.01656" lon="5.6589">
        <ele>526</ele>
        <time>2020-09-16T03:52:11Z</time>
      </trkpt>
      <trkpt lat="45.01702" lon="5.65912">
        <ele>524</ele>
        <time>2020-09-16T03:52:20Z</time>
      </trkpt>
      <trkpt lat="45.01754" lon="5.65948">
        <ele>522</ele>
        <time>2020-09-16T03:52:30Z</time>
      </trkpt>
      <trkpt lat="45.01793" lon="5.65982">
        <ele>520</ele>
        <time>2020-09-16T03:52:38Z</time>
      </trkpt>
      <trkpt lat="45.01827" lon="5.66008">
        <ele>517</ele>
        <time>2020-09-16T03:52:45Z</time>
      </trkpt>
      <trkpt lat="45.01846" lon="5.6602">
        <ele>516</ele>
        <time>2020-09-16T03:52:49Z</time>
      </trkpt>
      <trkpt lat="45.01887" lon="5.66039">
        <ele>513</ele>
        <time>2020-09-16T03:52:56Z</time>
      </trkpt>
      <trkpt lat="45.01911" lon="5.66047">
        <ele>510</ele>
        <time>2020-09-16T03:53:01Z</time>
      </trkpt>
      <trkpt lat="45.01931" lon="5.66052">
        <ele>508</ele>
        <time>2020-09-16T03:53:04Z</time>
      </trkpt>
      <trkpt lat="45.02057" lon="5.66068">
        <ele>500</ele>
        <time>2020-09-16T03:53:27Z</time>
      </trkpt>
      <trkpt lat="45.02087" lon="5.66074">
        <ele>499</ele>
        <time>2020-09-16T03:53:32Z</time>
      </trkpt>
      <trkpt lat="45.0216" lon="5.66101">
        <ele>499</ele>
        <time>2020-09-16T03:53:46Z</time>
      </trkpt>
      <trkpt lat="45.02198" lon="5.66111">
        <ele>499</ele>
        <time>2020-09-16T03:53:53Z</time>
      </trkpt>
      <trkpt lat="45.02286" lon="5.66127">
        <ele>494</ele>
        <time>2020-09-16T03:54:08Z</time>
      </trkpt>
      <trkpt lat="45.02489" lon="5.66201">
        <ele>485</ele>
        <time>2020-09-16T03:54:46Z</time>
      </trkpt>
      <trkpt lat="45.02513" lon="5.66207">
        <ele>484</ele>
        <time>2020-09-16T03:54:50Z</time>
      </trkpt>
      <trkpt lat="45.02532" lon="5.66208">
        <ele>483</ele>
        <time>2020-09-16T03:54:53Z</time>
      </trkpt>
      <trkpt lat="45.02601" lon="5.66206">
        <ele>479</ele>
        <time>2020-09-16T03:55:06Z</time>
      </trkpt>
      <trkpt lat="45.02625" lon="5.66207">
        <ele>478</ele>
        <time>2020-09-16T03:55:10Z</time>
      </trkpt>
      <trkpt lat="45.02676" lon="5.66212">
        <ele>476</ele>
        <time>2020-09-16T03:55:19Z</time>
      </trkpt>
      <trkpt lat="45.02702" lon="5.66221">
        <ele>475</ele>
        <time>2020-09-16T03:55:24Z</time>
      </trkpt>
      <trkpt lat="45.02715" lon="5.66226">
        <ele>475</ele>
        <time>2020-09-16T03:55:26Z</time>
      </trkpt>
      <trkpt lat="45.02776" lon="5.66261">
        <ele>472</ele>
        <time>2020-09-16T03:55:38Z</time>
      </trkpt>
      <trkpt lat="45.02813" lon="5.6629">
        <ele>472</ele>
        <time>2020-09-16T03:55:45Z</time>
      </trkpt>
      <trkpt lat="45.02867" lon="5.66339">
        <ele>470</ele>
        <time>2020-09-16T03:55:57Z</time>
      </trkpt>
      <trkpt lat="45.02904" lon="5.66372">
        <ele>468</ele>
        <time>2020-09-16T03:56:05Z</time>
      </trkpt>
      <trkpt lat="45.02929" lon="5.66394">
        <ele>467</ele>
        <time>2020-09-16T03:56:10Z</time>
      </trkpt>
      <trkpt lat="45.02962" lon="5.66416">
        <ele>464</ele>
        <time>2020-09-16T03:56:16Z</time>
      </trkpt>
      <trkpt lat="45.02988" lon="5.66428">
        <ele>462</ele>
        <time>2020-09-16T03:56:21Z</time>
      </trkpt>
      <trkpt lat="45.03017" lon="5.66434">
        <ele>459</ele>
        <time>2020-09-16T03:56:26Z</time>
      </trkpt>
      <trkpt lat="45.03034" lon="5.66435">
        <ele>458</ele>
        <time>2020-09-16T03:56:29Z</time>
      </trkpt>
      <trkpt lat="45.03041" lon="5.66435">
        <ele>458</ele>
        <time>2020-09-16T03:56:31Z</time>
      </trkpt>
      <trkpt lat="45.03051" lon="5.66434">
        <ele>457</ele>
        <time>2020-09-16T03:56:32Z</time>
      </trkpt>
      <trkpt lat="45.03057" lon="5.66432">
        <ele>456</ele>
        <time>2020-09-16T03:56:34Z</time>
      </trkpt>
      <trkpt lat="45.03075" lon="5.66425">
        <ele>455</ele>
        <time>2020-09-16T03:56:37Z</time>
      </trkpt>
      <trkpt lat="45.03087" lon="5.66419">
        <ele>454</ele>
        <time>2020-09-16T03:56:39Z</time>
      </trkpt>
      <trkpt lat="45.03099" lon="5.66414">
        <ele>453</ele>
        <time>2020-09-16T03:56:41Z</time>
      </trkpt>
      <trkpt lat="45.03141" lon="5.6639">
        <ele>450</ele>
        <time>2020-09-16T03:56:49Z</time>
      </trkpt>
      <trkpt lat="45.03167" lon="5.66371">
        <ele>450</ele>
        <time>2020-09-16T03:56:55Z</time>
      </trkpt>
      <trkpt lat="45.03182" lon="5.66354">
        <ele>448</ele>
        <time>2020-09-16T03:56:58Z</time>
      </trkpt>
      <trkpt lat="45.032" lon="5.66322">
        <ele>446</ele>
        <time>2020-09-16T03:57:03Z</time>
      </trkpt>
      <trkpt lat="45.03219" lon="5.66275">
        <ele>443</ele>
        <time>2020-09-16T03:57:10Z</time>
      </trkpt>
      <trkpt lat="45.03246" lon="5.66209">
        <ele>441</ele>
        <time>2020-09-16T03:57:20Z</time>
      </trkpt>
      <trkpt lat="45.0326" lon="5.66177">
        <ele>441</ele>
        <time>2020-09-16T03:57:24Z</time>
      </trkpt>
      <trkpt lat="45.03275" lon="5.66152">
        <ele>438</ele>
        <time>2020-09-16T03:57:28Z</time>
      </trkpt>
      <trkpt lat="45.03298" lon="5.66129">
        <ele>436</ele>
        <time>2020-09-16T03:57:33Z</time>
      </trkpt>
      <trkpt lat="45.03312" lon="5.66121">
        <ele>435</ele>
        <time>2020-09-16T03:57:36Z</time>
      </trkpt>
      <trkpt lat="45.0333" lon="5.66117">
        <ele>434</ele>
        <time>2020-09-16T03:57:39Z</time>
      </trkpt>
      <trkpt lat="45.03346" lon="5.66117">
        <ele>433</ele>
        <time>2020-09-16T03:57:42Z</time>
      </trkpt>
      <trkpt lat="45.0336" lon="5.6612">
        <ele>432</ele>
        <time>2020-09-16T03:57:45Z</time>
      </trkpt>
      <trkpt lat="45.03377" lon="5.66129">
        <ele>430</ele>
        <time>2020-09-16T03:57:48Z</time>
      </trkpt>
      <trkpt lat="45.03393" lon="5.66143">
        <ele>430</ele>
        <time>2020-09-16T03:57:51Z</time>
      </trkpt>
      <trkpt lat="45.03405" lon="5.66158">
        <ele>430</ele>
        <time>2020-09-16T03:57:54Z</time>
      </trkpt>
      <trkpt lat="45.03417" lon="5.66183">
        <ele>430</ele>
        <time>2020-09-16T03:57:58Z</time>
      </trkpt>
      <trkpt lat="45.03424" lon="5.66209">
        <ele>429</ele>
        <time>2020-09-16T03:58:01Z</time>
      </trkpt>
      <trkpt lat="45.03426" lon="5.6622">
        <ele>429</ele>
        <time>2020-09-16T03:58:03Z</time>
      </trkpt>
      <trkpt lat="45.03425" lon="5.66267">
        <ele>428</ele>
        <time>2020-09-16T03:58:09Z</time>
      </trkpt>
      <trkpt lat="45.03422" lon="5.66286">
        <ele>427</ele>
        <time>2020-09-16T03:58:11Z</time>
      </trkpt>
      <trkpt lat="45.03417" lon="5.66303">
        <ele>427</ele>
        <time>2020-09-16T03:58:14Z</time>
      </trkpt>
      <trkpt lat="45.03375" lon="5.66412">
        <ele>427</ele>
        <time>2020-09-16T03:58:29Z</time>
      </trkpt>
      <trkpt lat="45.03371" lon="5.66427">
        <ele>427</ele>
        <time>2020-09-16T03:58:31Z</time>
      </trkpt>
      <trkpt lat="45.03369" lon="5.66452">
        <ele>425</ele>
        <time>2020-09-16T03:58:34Z</time>
      </trkpt>
      <trkpt lat="45.03369" lon="5.66477">
        <ele>424</ele>
        <time>2020-09-16T03:58:38Z</time>
      </trkpt>
      <trkpt lat="45.03377" lon="5.66514">
        <ele>422</ele>
        <time>2020-09-16T03:58:42Z</time>
      </trkpt>
      <trkpt lat="45.03383" lon="5.66528">
        <ele>421</ele>
        <time>2020-09-16T03:58:44Z</time>
      </trkpt>
      <trkpt lat="45.03396" lon="5.66551">
        <ele>421</ele>
        <time>2020-09-16T03:58:48Z</time>
      </trkpt>
      <trkpt lat="45.03407" lon="5.66565">
        <ele>420</ele>
        <time>2020-09-16T03:58:51Z</time>
      </trkpt>
      <trkpt lat="45.03473" lon="5.66618">
        <ele>414</ele>
        <time>2020-09-16T03:59:04Z</time>
      </trkpt>
      <trkpt lat="45.03493" lon="5.66639">
        <ele>412</ele>
        <time>2020-09-16T03:59:09Z</time>
      </trkpt>
      <trkpt lat="45.03502" lon="5.66652">
        <ele>411</ele>
        <time>2020-09-16T03:59:11Z</time>
      </trkpt>
      <trkpt lat="45.0351" lon="5.66667">
        <ele>411</ele>
        <time>2020-09-16T03:59:13Z</time>
      </trkpt>
      <trkpt lat="45.03574" lon="5.66819">
        <ele>409</ele>
        <time>2020-09-16T03:59:36Z</time>
      </trkpt>
      <trkpt lat="45.03582" lon="5.66833">
        <ele>407</ele>
        <time>2020-09-16T03:59:38Z</time>
      </trkpt>
      <trkpt lat="45.03634" lon="5.6691">
        <ele>407</ele>
        <time>2020-09-16T03:59:51Z</time>
      </trkpt>
      <trkpt lat="45.03652" lon="5.66934">
        <ele>406</ele>
        <time>2020-09-16T03:59:56Z</time>
      </trkpt>
      <trkpt lat="45.03705" lon="5.66984">
        <ele>399</ele>
        <time>2020-09-16T04:00:07Z</time>
      </trkpt>
      <trkpt lat="45.03724" lon="5.67002">
        <ele>395</ele>
        <time>2020-09-16T04:00:11Z</time>
      </trkpt>
      <trkpt lat="45.03734" lon="5.67012">
        <ele>393</ele>
        <time>2020-09-16T04:00:13Z</time>
      </trkpt>
      <trkpt lat="45.03744" lon="5.67028">
        <ele>392</ele>
        <time>2020-09-16T04:00:16Z</time>
      </trkpt>
      <trkpt lat="45.03777" lon="5.67091">
        <ele>393</ele>
        <time>2020-09-16T04:00:26Z</time>
      </trkpt>
      <trkpt lat="45.03789" lon="5.6711">
        <ele>394</ele>
        <time>2020-09-16T04:00:29Z</time>
      </trkpt>
      <trkpt lat="45.03812" lon="5.67135">
        <ele>391</ele>
        <time>2020-09-16T04:00:34Z</time>
      </trkpt>
      <trkpt lat="45.0383" lon="5.67147">
        <ele>387</ele>
        <time>2020-09-16T04:00:38Z</time>
      </trkpt>
      <trkpt lat="45.03852" lon="5.67158">
        <ele>386</ele>
        <time>2020-09-16T04:00:42Z</time>
      </trkpt>
      <trkpt lat="45.03866" lon="5.67164">
        <ele>386</ele>
        <time>2020-09-16T04:00:44Z</time>
      </trkpt>
      <trkpt lat="45.03887" lon="5.67168">
        <ele>385</ele>
        <time>2020-09-16T04:00:48Z</time>
      </trkpt>
      <trkpt lat="45.03918" lon="5.67167">
        <ele>383</ele>
        <time>2020-09-16T04:00:54Z</time>
      </trkpt>
      <trkpt lat="45.03936" lon="5.67163">
        <ele>381</ele>
        <time>2020-09-16T04:00:57Z</time>
      </trkpt>
      <trkpt lat="45.0397" lon="5.67149">
        <ele>378</ele>
        <time>2020-09-16T04:01:03Z</time>
      </trkpt>
      <trkpt lat="45.03981" lon="5.67143">
        <ele>377</ele>
        <time>2020-09-16T04:01:05Z</time>
      </trkpt>
      <trkpt lat="45.0399" lon="5.67136">
        <ele>376</ele>
        <time>2020-09-16T04:01:07Z</time>
      </trkpt>
      <trkpt lat="45.04006" lon="5.67121">
        <ele>374</ele>
        <time>2020-09-16T04:01:11Z</time>
      </trkpt>
      <trkpt lat="45.04024" lon="5.67099">
        <ele>374</ele>
        <time>2020-09-16T04:01:15Z</time>
      </trkpt>
      <trkpt lat="45.04033" lon="5.67088">
        <ele>375</ele>
        <time>2020-09-16T04:01:17Z</time>
      </trkpt>
      <trkpt lat="45.04047" lon="5.67063">
        <ele>375</ele>
        <time>2020-09-16T04:01:21Z</time>
      </trkpt>
      <trkpt lat="45.04057" lon="5.67039">
        <ele>375</ele>
        <time>2020-09-16T04:01:24Z</time>
      </trkpt>
      <trkpt lat="45.04071" lon="5.66996">
        <ele>374</ele>
        <time>2020-09-16T04:01:30Z</time>
      </trkpt>
      <trkpt lat="45.04083" lon="5.66957">
        <ele>369</ele>
        <time>2020-09-16T04:01:36Z</time>
      </trkpt>
      <trkpt lat="45.04097" lon="5.6692">
        <ele>364</ele>
        <time>2020-09-16T04:01:41Z</time>
      </trkpt>
      <trkpt lat="45.04115" lon="5.66887">
        <ele>363</ele>
        <time>2020-09-16T04:01:46Z</time>
      </trkpt>
      <trkpt lat="45.04148" lon="5.66843">
        <ele>361</ele>
        <time>2020-09-16T04:01:54Z</time>
      </trkpt>
      <trkpt lat="45.04191" lon="5.66805">
        <ele>358</ele>
        <time>2020-09-16T04:02:03Z</time>
      </trkpt>
      <trkpt lat="45.04195" lon="5.66801">
        <ele>358</ele>
        <time>2020-09-16T04:02:04Z</time>
      </trkpt>
      <trkpt lat="45.04289" lon="5.6672">
        <ele>350</ele>
        <time>2020-09-16T04:02:24Z</time>
      </trkpt>
      <trkpt lat="45.04313" lon="5.66705">
        <ele>349</ele>
        <time>2020-09-16T04:02:29Z</time>
      </trkpt>
      <trkpt lat="45.0433" lon="5.667">
        <ele>348</ele>
        <time>2020-09-16T04:02:32Z</time>
      </trkpt>
      <trkpt lat="45.04347" lon="5.66693">
        <ele>346</ele>
        <time>2020-09-16T04:02:35Z</time>
      </trkpt>
      <trkpt lat="45.04358" lon="5.66693">
        <ele>345</ele>
        <time>2020-09-16T04:02:37Z</time>
      </trkpt>
      <trkpt lat="45.04381" lon="5.66698">
        <ele>343</ele>
        <time>2020-09-16T04:02:41Z</time>
      </trkpt>
      <trkpt lat="45.04404" lon="5.66706">
        <ele>343</ele>
        <time>2020-09-16T04:02:45Z</time>
      </trkpt>
      <trkpt lat="45.04634" lon="5.6679">
        <ele>339</ele>
        <time>2020-09-16T04:03:27Z</time>
      </trkpt>
      <trkpt lat="45.04705" lon="5.66818">
        <ele>337</ele>
        <time>2020-09-16T04:03:40Z</time>
      </trkpt>
      <trkpt lat="45.04734" lon="5.66827">
        <ele>334</ele>
        <time>2020-09-16T04:03:46Z</time>
      </trkpt>
      <trkpt lat="45.04753" lon="5.6683">
        <ele>332</ele>
        <time>2020-09-16T04:03:49Z</time>
      </trkpt>
      <trkpt lat="45.04769" lon="5.6683">
        <ele>330</ele>
        <time>2020-09-16T04:03:52Z</time>
      </trkpt>
      <trkpt lat="45.04784" lon="5.6683">
        <ele>329</ele>
        <time>2020-09-16T04:03:55Z</time>
      </trkpt>
      <trkpt lat="45.04789" lon="5.66831">
        <ele>328</ele>
        <time>2020-09-16T04:03:56Z</time>
      </trkpt>
      <trkpt lat="45.04794" lon="5.66831">
        <ele>328</ele>
        <time>2020-09-16T04:03:56Z</time>
      </trkpt>
      <trkpt lat="45.04815" lon="5.66833">
        <ele>325</ele>
        <time>2020-09-16T04:04:00Z</time>
      </trkpt>
      <trkpt lat="45.04828" lon="5.66837">
        <ele>324</ele>
        <time>2020-09-16T04:04:03Z</time>
      </trkpt>
      <trkpt lat="45.04836" lon="5.66844">
        <ele>323</ele>
        <time>2020-09-16T04:04:04Z</time>
      </trkpt>
      <trkpt lat="45.04847" lon="5.66851">
        <ele>323</ele>
        <time>2020-09-16T04:04:06Z</time>
      </trkpt>
      <trkpt lat="45.04861" lon="5.66865">
        <ele>322</ele>
        <time>2020-09-16T04:04:09Z</time>
      </trkpt>
      <trkpt lat="45.04863" lon="5.66869">
        <ele>322</ele>
        <time>2020-09-16T04:04:10Z</time>
      </trkpt>
      <trkpt lat="45.04866" lon="5.66873">
        <ele>322</ele>
        <time>2020-09-16T04:04:11Z</time>
      </trkpt>
      <trkpt lat="45.04869" lon="5.66875">
        <ele>322</ele>
        <time>2020-09-16T04:04:11Z</time>
      </trkpt>
      <trkpt lat="45.04874" lon="5.66876">
        <ele>322</ele>
        <time>2020-09-16T04:04:12Z</time>
      </trkpt>
      <trkpt lat="45.04883" lon="5.66871">
        <ele>321</ele>
        <time>2020-09-16T04:04:14Z</time>
      </trkpt>
      <trkpt lat="45.04886" lon="5.66866">
        <ele>321</ele>
        <time>2020-09-16T04:04:15Z</time>
      </trkpt>
      <trkpt lat="45.04888" lon="5.66862">
        <ele>321</ele>
        <time>2020-09-16T04:04:15Z</time>
      </trkpt>
      <trkpt lat="45.04888" lon="5.66858">
        <ele>321</ele>
        <time>2020-09-16T04:04:16Z</time>
      </trkpt>
      <trkpt lat="45.04888" lon="5.66852">
        <ele>321</ele>
        <time>2020-09-16T04:04:17Z</time>
      </trkpt>
      <trkpt lat="45.04887" lon="5.66847">
        <ele>321</ele>
        <time>2020-09-16T04:04:17Z</time>
      </trkpt>
      <trkpt lat="45.04885" lon="5.66842">
        <ele>321</ele>
        <time>2020-09-16T04:04:18Z</time>
      </trkpt>
      <trkpt lat="45.04882" lon="5.66838">
        <ele>321</ele>
        <time>2020-09-16T04:04:19Z</time>
      </trkpt>
      <trkpt lat="45.04879" lon="5.66836">
        <ele>321</ele>
        <time>2020-09-16T04:04:19Z</time>
      </trkpt>
      <trkpt lat="45.04875" lon="5.66835">
        <ele>321</ele>
        <time>2020-09-16T04:04:20Z</time>
      </trkpt>
      <trkpt lat="45.04869" lon="5.66803">
        <ele>321</ele>
        <time>2020-09-16T04:04:24Z</time>
      </trkpt>
      <trkpt lat="45.04866" lon="5.66779">
        <ele>320</ele>
        <time>2020-09-16T04:04:27Z</time>
      </trkpt>
      <trkpt lat="45.04873" lon="5.66776">
        <ele>320</ele>
        <time>2020-09-16T04:04:29Z</time>
      </trkpt>
      <trkpt lat="45.04878" lon="5.66776">
        <ele>320</ele>
        <time>2020-09-16T04:04:29Z</time>
      </trkpt>
      <trkpt lat="45.04889" lon="5.66781">
        <ele>319</ele>
        <time>2020-09-16T04:04:32Z</time>
      </trkpt>
      <trkpt lat="45.04907" lon="5.66729">
        <ele>318</ele>
        <time>2020-09-16T04:04:39Z</time>
      </trkpt>
      <trkpt lat="45.04935" lon="5.66724">
        <ele>318</ele>
        <time>2020-09-16T04:04:44Z</time>
      </trkpt>
      <trkpt lat="45.04953" lon="5.66674">
        <ele>318</ele>
        <time>2020-09-16T04:04:51Z</time>
      </trkpt>
      <trkpt lat="45.04969" lon="5.66664">
        <ele>317</ele>
        <time>2020-09-16T04:04:54Z</time>
      </trkpt>
      <trkpt lat="45.04983" lon="5.66617">
        <ele>316</ele>
        <time>2020-09-16T04:05:00Z</time>
      </trkpt>
      <trkpt lat="45.04989" lon="5.66612">
        <ele>316</ele>
        <time>2020-09-16T04:05:02Z</time>
      </trkpt>
      <trkpt lat="45.05052" lon="5.66634">
        <ele>315</ele>
        <time>2020-09-16T04:05:13Z</time>
      </trkpt>
      <trkpt lat="45.05059" lon="5.66633">
        <ele>315</ele>
        <time>2020-09-16T04:05:14Z</time>
      </trkpt>
      <trkpt lat="45.05088" lon="5.66509">
        <ele>313</ele>
        <time>2020-09-16T04:05:31Z</time>
      </trkpt>
      <trkpt lat="45.05135" lon="5.66534">
        <ele>313</ele>
        <time>2020-09-16T04:05:40Z</time>
      </trkpt>
      <trkpt lat="45.05185" lon="5.66564">
        <ele>313</ele>
        <time>2020-09-16T04:05:49Z</time>
      </trkpt>
      <trkpt lat="45.05221" lon="5.66583">
        <ele>313</ele>
        <time>2020-09-16T04:05:56Z</time>
      </trkpt>
      <trkpt lat="45.05339" lon="5.66655">
        <ele>311</ele>
        <time>2020-09-16T04:06:19Z</time>
      </trkpt>
      <trkpt lat="45.05592" lon="5.66794">
        <ele>310</ele>
        <time>2020-09-16T04:07:07Z</time>
      </trkpt>
      <trkpt lat="45.05602" lon="5.66804">
        <ele>310</ele>
        <time>2020-09-16T04:07:10Z</time>
      </trkpt>
      <trkpt lat="45.05604" lon="5.66796">
        <ele>310</ele>
        <time>2020-09-16T04:07:11Z</time>
      </trkpt>
      <trkpt lat="45.05612" lon="5.66747">
        <ele>311</ele>
        <time>2020-09-16T04:07:17Z</time>
      </trkpt>
      <trkpt lat="45.05615" lon="5.66739">
        <ele>311</ele>
        <time>2020-09-16T04:07:18Z</time>
      </trkpt>
      <trkpt lat="45.05626" lon="5.66737">
        <ele>311</ele>
        <time>2020-09-16T04:07:20Z</time>
      </trkpt>
      <trkpt lat="45.05678" lon="5.66749">
        <ele>311</ele>
        <time>2020-09-16T04:07:30Z</time>
      </trkpt>
      <trkpt lat="45.05727" lon="5.66762">
        <ele>308</ele>
        <time>2020-09-16T04:07:38Z</time>
      </trkpt>
      <trkpt lat="45.05859" lon="5.66802">
        <ele>306</ele>
        <time>2020-09-16T04:08:02Z</time>
      </trkpt>
      <trkpt lat="45.05963" lon="5.66831">
        <ele>304</ele>
        <time>2020-09-16T04:08:21Z</time>
      </trkpt>
      <trkpt lat="45.06036" lon="5.66852">
        <ele>304</ele>
        <time>2020-09-16T04:08:35Z</time>
      </trkpt>
      <trkpt lat="45.06054" lon="5.66858">
        <ele>304</ele>
        <time>2020-09-16T04:08:38Z</time>
      </trkpt>
      <trkpt lat="45.06063" lon="5.66862">
        <ele>304</ele>
        <time>2020-09-16T04:08:39Z</time>
      </trkpt>
      <trkpt lat="45.06123" lon="5.6688">
        <ele>304</ele>
        <time>2020-09-16T04:08:50Z</time>
      </trkpt>
      <trkpt lat="45.06135" lon="5.66883">
        <ele>304</ele>
        <time>2020-09-16T04:08:53Z</time>
      </trkpt>
      <trkpt lat="45.06223" lon="5.6691">
        <ele>301</ele>
        <time>2020-09-16T04:09:09Z</time>
      </trkpt>
      <trkpt lat="45.06248" lon="5.66918">
        <ele>300</ele>
        <time>2020-09-16T04:09:13Z</time>
      </trkpt>
      <trkpt lat="45.06292" lon="5.6693">
        <ele>300</ele>
        <time>2020-09-16T04:09:21Z</time>
      </trkpt>
      <trkpt lat="45.06312" lon="5.66937">
        <ele>300</ele>
        <time>2020-09-16T04:09:25Z</time>
      </trkpt>
      <trkpt lat="45.0632" lon="5.6694">
        <ele>300</ele>
        <time>2020-09-16T04:09:26Z</time>
      </trkpt>
      <trkpt lat="45.06326" lon="5.66942">
        <ele>300</ele>
        <time>2020-09-16T04:09:27Z</time>
      </trkpt>
      <trkpt lat="45.06328" lon="5.66942">
        <ele>300</ele>
        <time>2020-09-16T04:09:28Z</time>
      </trkpt>
      <trkpt lat="45.06338" lon="5.66948">
        <ele>300</ele>
        <time>2020-09-16T04:09:30Z</time>
      </trkpt>
      <trkpt lat="45.06357" lon="5.66958">
        <ele>299</ele>
        <time>2020-09-16T04:09:33Z</time>
      </trkpt>
      <trkpt lat="45.06385" lon="5.66977">
        <ele>299</ele>
        <time>2020-09-16T04:09:39Z</time>
      </trkpt>
      <trkpt lat="45.06432" lon="5.67023">
        <ele>297</ele>
        <time>2020-09-16T04:09:49Z</time>
      </trkpt>
      <trkpt lat="45.06452" lon="5.67044">
        <ele>297</ele>
        <time>2020-09-16T04:09:53Z</time>
      </trkpt>
      <trkpt lat="45.06458" lon="5.67049">
        <ele>296</ele>
        <time>2020-09-16T04:09:55Z</time>
      </trkpt>
      <trkpt lat="45.06463" lon="5.67055">
        <ele>296</ele>
        <time>2020-09-16T04:09:56Z</time>
      </trkpt>
      <trkpt lat="45.06483" lon="5.67076">
        <ele>296</ele>
        <time>2020-09-16T04:10:00Z</time>
      </trkpt>
      <trkpt lat="45.06486" lon="5.67079">
        <ele>295</ele>
        <time>2020-09-16T04:10:01Z</time>
      </trkpt>
      <trkpt lat="45.06573" lon="5.67166">
        <ele>298</ele>
        <time>2020-09-16T04:10:20Z</time>
      </trkpt>
      <trkpt lat="45.06581" lon="5.67173">
        <ele>298</ele>
        <time>2020-09-16T04:10:21Z</time>
      </trkpt>
      <trkpt lat="45.06595" lon="5.67182">
        <ele>297</ele>
        <time>2020-09-16T04:10:24Z</time>
      </trkpt>
      <trkpt lat="45.06599" lon="5.67184">
        <ele>297</ele>
        <time>2020-09-16T04:10:25Z</time>
      </trkpt>
      <trkpt lat="45.06625" lon="5.67195">
        <ele>295</ele>
        <time>2020-09-16T04:10:30Z</time>
      </trkpt>
      <trkpt lat="45.06646" lon="5.67205">
        <ele>294</ele>
        <time>2020-09-16T04:10:34Z</time>
      </trkpt>
      <trkpt lat="45.06645" lon="5.67209">
        <ele>294</ele>
        <time>2020-09-16T04:10:34Z</time>
      </trkpt>
      <trkpt lat="45.06644" lon="5.67222">
        <ele>294</ele>
        <time>2020-09-16T04:10:36Z</time>
      </trkpt>
      <trkpt lat="45.06649" lon="5.67233">
        <ele>294</ele>
        <time>2020-09-16T04:10:38Z</time>
      </trkpt>
      <trkpt lat="45.06652" lon="5.67237">
        <ele>294</ele>
        <time>2020-09-16T04:10:38Z</time>
      </trkpt>
      <trkpt lat="45.06655" lon="5.6724">
        <ele>294</ele>
        <time>2020-09-16T04:10:39Z</time>
      </trkpt>
      <trkpt lat="45.06667" lon="5.67241">
        <ele>293</ele>
        <time>2020-09-16T04:10:41Z</time>
      </trkpt>
      <trkpt lat="45.06674" lon="5.67236">
        <ele>293</ele>
        <time>2020-09-16T04:10:42Z</time>
      </trkpt>
      <trkpt lat="45.06677" lon="5.67232">
        <ele>293</ele>
        <time>2020-09-16T04:10:43Z</time>
      </trkpt>
      <trkpt lat="45.06713" lon="5.6728">
        <ele>293</ele>
        <time>2020-09-16T04:10:52Z</time>
      </trkpt>
      <trkpt lat="45.06727" lon="5.67297">
        <ele>293</ele>
        <time>2020-09-16T04:10:55Z</time>
      </trkpt>
      <trkpt lat="45.06748" lon="5.67317">
        <ele>293</ele>
        <time>2020-09-16T04:11:00Z</time>
      </trkpt>
      <trkpt lat="45.06763" lon="5.67328">
        <ele>293</ele>
        <time>2020-09-16T04:11:03Z</time>
      </trkpt>
      <trkpt lat="45.06979" lon="5.67464">
        <ele>292</ele>
        <time>2020-09-16T04:11:45Z</time>
      </trkpt>
      <trkpt lat="45.0703" lon="5.67495">
        <ele>291</ele>
        <time>2020-09-16T04:11:55Z</time>
      </trkpt>
      <trkpt lat="45.07037" lon="5.675">
        <ele>291</ele>
        <time>2020-09-16T04:11:56Z</time>
      </trkpt>
      <trkpt lat="45.07043" lon="5.67504">
        <ele>291</ele>
        <time>2020-09-16T04:11:57Z</time>
      </trkpt>
      <trkpt lat="45.07052" lon="5.67509">
        <ele>291</ele>
        <time>2020-09-16T04:11:59Z</time>
      </trkpt>
      <trkpt lat="45.07058" lon="5.67512">
        <ele>290</ele>
        <time>2020-09-16T04:12:00Z</time>
      </trkpt>
      <trkpt lat="45.07067" lon="5.67518">
        <ele>290</ele>
        <time>2020-09-16T04:12:02Z</time>
      </trkpt>
      <trkpt lat="45.07273" lon="5.67647">
        <ele>287</ele>
        <time>2020-09-16T04:12:42Z</time>
      </trkpt>
      <trkpt lat="45.07288" lon="5.67658">
        <ele>287</ele>
        <time>2020-09-16T04:12:45Z</time>
      </trkpt>
      <trkpt lat="45.07299" lon="5.6767">
        <ele>288</ele>
        <time>2020-09-16T04:12:48Z</time>
      </trkpt>
      <trkpt lat="45.0731" lon="5.67685">
        <ele>288</ele>
        <time>2020-09-16T04:12:50Z</time>
      </trkpt>
      <trkpt lat="45.07314" lon="5.67695">
        <ele>288</ele>
        <time>2020-09-16T04:12:52Z</time>
      </trkpt>
      <trkpt lat="45.07317" lon="5.67707">
        <ele>288</ele>
        <time>2020-09-16T04:12:53Z</time>
      </trkpt>
      <trkpt lat="45.07316" lon="5.67711">
        <ele>287</ele>
        <time>2020-09-16T04:12:54Z</time>
      </trkpt>
      <trkpt lat="45.07315" lon="5.67719">
        <ele>287</ele>
        <time>2020-09-16T04:12:55Z</time>
      </trkpt>
      <trkpt lat="45.07317" lon="5.67728">
        <ele>287</ele>
        <time>2020-09-16T04:12:56Z</time>
      </trkpt>
      <trkpt lat="45.07325" lon="5.67741">
        <ele>287</ele>
        <time>2020-09-16T04:12:58Z</time>
      </trkpt>
      <trkpt lat="45.07336" lon="5.67745">
        <ele>287</ele>
        <time>2020-09-16T04:13:00Z</time>
      </trkpt>
      <trkpt lat="45.07343" lon="5.67742">
        <ele>287</ele>
        <time>2020-09-16T04:13:01Z</time>
      </trkpt>
      <trkpt lat="45.07349" lon="5.67736">
        <ele>287</ele>
        <time>2020-09-16T04:13:03Z</time>
      </trkpt>
      <trkpt lat="45.07351" lon="5.67733">
        <ele>287</ele>
        <time>2020-09-16T04:13:03Z</time>
      </trkpt>
      <trkpt lat="45.0736" lon="5.67727">
        <ele>287</ele>
        <time>2020-09-16T04:13:05Z</time>
      </trkpt>
      <trkpt lat="45.07375" lon="5.67722">
        <ele>287</ele>
        <time>2020-09-16T04:13:08Z</time>
      </trkpt>
      <trkpt lat="45.07386" lon="5.67721">
        <ele>287</ele>
        <time>2020-09-16T04:13:10Z</time>
      </trkpt>
      <trkpt lat="45.07395" lon="5.67726">
        <ele>287</ele>
        <time>2020-09-16T04:13:12Z</time>
      </trkpt>
      <trkpt lat="45.07474" lon="5.67774">
        <ele>284</ele>
        <time>2020-09-16T04:13:27Z</time>
      </trkpt>
      <trkpt lat="45.07524" lon="5.67796">
        <ele>284</ele>
        <time>2020-09-16T04:13:36Z</time>
      </trkpt>
      <trkpt lat="45.0756" lon="5.67807">
        <ele>284</ele>
        <time>2020-09-16T04:13:43Z</time>
      </trkpt>
      <trkpt lat="45.07925" lon="5.67903">
        <ele>287</ele>
        <time>2020-09-16T04:14:49Z</time>
      </trkpt>
      <trkpt lat="45.07978" lon="5.67922">
        <ele>283</ele>
        <time>2020-09-16T04:14:58Z</time>
      </trkpt>
      <trkpt lat="45.08002" lon="5.67934">
        <ele>283</ele>
        <time>2020-09-16T04:15:03Z</time>
      </trkpt>
      <trkpt lat="45.08084" lon="5.67982">
        <ele>283</ele>
        <time>2020-09-16T04:15:19Z</time>
      </trkpt>
      <trkpt lat="45.08098" lon="5.67989">
        <ele>284</ele>
        <time>2020-09-16T04:15:21Z</time>
      </trkpt>
      <trkpt lat="45.08278" lon="5.68092">
        <ele>282</ele>
        <time>2020-09-16T04:15:56Z</time>
      </trkpt>
      <trkpt lat="45.08376" lon="5.68146">
        <ele>280</ele>
        <time>2020-09-16T04:16:15Z</time>
      </trkpt>
      <trkpt lat="45.08394" lon="5.68156">
        <ele>278</ele>
        <time>2020-09-16T04:16:18Z</time>
      </trkpt>
      <trkpt lat="45.08527" lon="5.68234">
        <ele>276</ele>
        <time>2020-09-16T04:16:44Z</time>
      </trkpt>
      <trkpt lat="45.08575" lon="5.68259">
        <ele>275</ele>
        <time>2020-09-16T04:16:53Z</time>
      </trkpt>
      <trkpt lat="45.08582" lon="5.68263">
        <ele>275</ele>
        <time>2020-09-16T04:16:54Z</time>
      </trkpt>
      <trkpt lat="45.08607" lon="5.68277">
        <ele>275</ele>
        <time>2020-09-16T04:16:59Z</time>
      </trkpt>
      <trkpt lat="45.08611" lon="5.68279">
        <ele>275</ele>
        <time>2020-09-16T04:17:00Z</time>
      </trkpt>
      <trkpt lat="45.08616" lon="5.68282">
        <ele>275</ele>
        <time>2020-09-16T04:17:01Z</time>
      </trkpt>
      <trkpt lat="45.0862" lon="5.68284">
        <ele>275</ele>
        <time>2020-09-16T04:17:01Z</time>
      </trkpt>
      <trkpt lat="45.08624" lon="5.68287">
        <ele>275</ele>
        <time>2020-09-16T04:17:02Z</time>
      </trkpt>
      <trkpt lat="45.08627" lon="5.68289">
        <ele>276</ele>
        <time>2020-09-16T04:17:03Z</time>
      </trkpt>
      <trkpt lat="45.08637" lon="5.68294">
        <ele>276</ele>
        <time>2020-09-16T04:17:05Z</time>
      </trkpt>
      <trkpt lat="45.08645" lon="5.68299">
        <ele>276</ele>
        <time>2020-09-16T04:17:06Z</time>
      </trkpt>
      <trkpt lat="45.08649" lon="5.68301">
        <ele>276</ele>
        <time>2020-09-16T04:17:07Z</time>
      </trkpt>
      <trkpt lat="45.08661" lon="5.68307">
        <ele>276</ele>
        <time>2020-09-16T04:17:09Z</time>
      </trkpt>
      <trkpt lat="45.08696" lon="5.68324">
        <ele>276</ele>
        <time>2020-09-16T04:17:16Z</time>
      </trkpt>
      <trkpt lat="45.08716" lon="5.68331">
        <ele>275</ele>
        <time>2020-09-16T04:17:20Z</time>
      </trkpt>
      <trkpt lat="45.08866" lon="5.68358">
        <ele>273</ele>
        <time>2020-09-16T04:17:46Z</time>
      </trkpt>
      <trkpt lat="45.09188" lon="5.68368">
        <ele>270</ele>
        <time>2020-09-16T04:18:44Z</time>
      </trkpt>
      <trkpt lat="45.09286" lon="5.68369">
        <ele>269</ele>
        <time>2020-09-16T04:19:01Z</time>
      </trkpt>
      <trkpt lat="45.09323" lon="5.68376">
        <ele>268</ele>
        <time>2020-09-16T04:19:08Z</time>
      </trkpt>
      <trkpt lat="45.09331" lon="5.68381">
        <ele>268</ele>
        <time>2020-09-16T04:19:09Z</time>
      </trkpt>
      <trkpt lat="45.09339" lon="5.68391">
        <ele>268</ele>
        <time>2020-09-16T04:19:11Z</time>
      </trkpt>
      <trkpt lat="45.09343" lon="5.68398">
        <ele>268</ele>
        <time>2020-09-16T04:19:12Z</time>
      </trkpt>
      <trkpt lat="45.09352" lon="5.68404">
        <ele>268</ele>
        <time>2020-09-16T04:19:14Z</time>
      </trkpt>
      <trkpt lat="45.09359" lon="5.68404">
        <ele>269</ele>
        <time>2020-09-16T04:19:15Z</time>
      </trkpt>
      <trkpt lat="45.09365" lon="5.684">
        <ele>269</ele>
        <time>2020-09-16T04:19:17Z</time>
      </trkpt>
      <trkpt lat="45.09369" lon="5.68393">
        <ele>269</ele>
        <time>2020-09-16T04:19:18Z</time>
      </trkpt>
      <trkpt lat="45.09387" lon="5.68385">
        <ele>269</ele>
        <time>2020-09-16T04:19:21Z</time>
      </trkpt>
      <trkpt lat="45.09421" lon="5.68377">
        <ele>269</ele>
        <time>2020-09-16T04:19:27Z</time>
      </trkpt>
      <trkpt lat="45.09509" lon="5.68379">
        <ele>267</ele>
        <time>2020-09-16T04:19:43Z</time>
      </trkpt>
      <trkpt lat="45.09672" lon="5.6838">
        <ele>263</ele>
        <time>2020-09-16T04:20:12Z</time>
      </trkpt>
      <trkpt lat="45.0972" lon="5.68382">
        <ele>263</ele>
        <time>2020-09-16T04:20:20Z</time>
      </trkpt>
      <trkpt lat="45.09745" lon="5.68389">
        <ele>263</ele>
        <time>2020-09-16T04:20:25Z</time>
      </trkpt>
      <trkpt lat="45.09876" lon="5.68436">
        <ele>264</ele>
        <time>2020-09-16T04:20:49Z</time>
      </trkpt>
      <trkpt lat="45.10234" lon="5.68584">
        <ele>258</ele>
        <time>2020-09-16T04:21:55Z</time>
      </trkpt>
      <trkpt lat="45.10337" lon="5.68629">
        <ele>257</ele>
        <time>2020-09-16T04:22:15Z</time>
      </trkpt>
      <trkpt lat="45.1041" lon="5.68653">
        <ele>256</ele>
        <time>2020-09-16T04:22:28Z</time>
      </trkpt>
      <trkpt lat="45.10426" lon="5.68655">
        <ele>256</ele>
        <time>2020-09-16T04:22:31Z</time>
      </trkpt>
      <trkpt lat="45.10518" lon="5.68674">
        <ele>254</ele>
        <time>2020-09-16T04:22:47Z</time>
      </trkpt>
      <trkpt lat="45.10629" lon="5.68714">
        <ele>253</ele>
        <time>2020-09-16T04:23:08Z</time>
      </trkpt>
      <trkpt lat="45.10668" lon="5.68731">
        <ele>254</ele>
        <time>2020-09-16T04:23:15Z</time>
      </trkpt>
      <trkpt lat="45.10709" lon="5.68751">
        <ele>253</ele>
        <time>2020-09-16T04:23:23Z</time>
      </trkpt>
      <trkpt lat="45.1078" lon="5.68778">
        <ele>254</ele>
        <time>2020-09-16T04:23:36Z</time>
      </trkpt>
      <trkpt lat="45.10834" lon="5.68795">
        <ele>255</ele>
        <time>2020-09-16T04:23:46Z</time>
      </trkpt>
      <trkpt lat="45.10877" lon="5.68804">
        <ele>254</ele>
        <time>2020-09-16T04:23:53Z</time>
      </trkpt>
      <trkpt lat="45.10886" lon="5.68807">
        <ele>254</ele>
        <time>2020-09-16T04:23:55Z</time>
      </trkpt>
      <trkpt lat="45.10894" lon="5.6881">
        <ele>254</ele>
        <time>2020-09-16T04:23:56Z</time>
      </trkpt>
      <trkpt lat="45.10903" lon="5.68814">
        <ele>254</ele>
        <time>2020-09-16T04:23:58Z</time>
      </trkpt>
      <trkpt lat="45.11028" lon="5.6886">
        <ele>255</ele>
        <time>2020-09-16T04:24:21Z</time>
      </trkpt>
      <trkpt lat="45.11037" lon="5.68863">
        <ele>254</ele>
        <time>2020-09-16T04:24:23Z</time>
      </trkpt>
      <trkpt lat="45.11046" lon="5.68867">
        <ele>254</ele>
        <time>2020-09-16T04:24:24Z</time>
      </trkpt>
      <trkpt lat="45.11113" lon="5.68891">
        <ele>251</ele>
        <time>2020-09-16T04:24:37Z</time>
      </trkpt>
      <trkpt lat="45.11117" lon="5.68892">
        <ele>251</ele>
        <time>2020-09-16T04:24:37Z</time>
      </trkpt>
      <trkpt lat="45.11132" lon="5.68898">
        <ele>250</ele>
        <time>2020-09-16T04:24:40Z</time>
      </trkpt>
      <trkpt lat="45.11163" lon="5.68911">
        <ele>248</ele>
        <time>2020-09-16T04:24:46Z</time>
      </trkpt>
      <trkpt lat="45.11444" lon="5.69013">
        <ele>250</ele>
        <time>2020-09-16T04:25:38Z</time>
      </trkpt>
      <trkpt lat="45.11466" lon="5.69021">
        <ele>250</ele>
        <time>2020-09-16T04:25:42Z</time>
      </trkpt>
      <trkpt lat="45.11474" lon="5.69024">
        <ele>250</ele>
        <time>2020-09-16T04:25:43Z</time>
      </trkpt>
      <trkpt lat="45.11482" lon="5.69027">
        <ele>250</ele>
        <time>2020-09-16T04:25:45Z</time>
      </trkpt>
      <trkpt lat="45.11486" lon="5.69029">
        <ele>250</ele>
        <time>2020-09-16T04:25:45Z</time>
      </trkpt>
      <trkpt lat="45.11625" lon="5.6908">
        <ele>247</ele>
        <time>2020-09-16T04:26:11Z</time>
      </trkpt>
      <trkpt lat="45.11648" lon="5.6909">
        <ele>246</ele>
        <time>2020-09-16T04:26:15Z</time>
      </trkpt>
      <trkpt lat="45.11655" lon="5.69094">
        <ele>246</ele>
        <time>2020-09-16T04:26:16Z</time>
      </trkpt>
      <trkpt lat="45.11663" lon="5.69099">
        <ele>246</ele>
        <time>2020-09-16T04:26:18Z</time>
      </trkpt>
      <trkpt lat="45.1168" lon="5.6911">
        <ele>246</ele>
        <time>2020-09-16T04:26:21Z</time>
      </trkpt>
      <trkpt lat="45.11688" lon="5.69116">
        <ele>245</ele>
        <time>2020-09-16T04:26:23Z</time>
      </trkpt>
      <trkpt lat="45.11703" lon="5.69128">
        <ele>245</ele>
        <time>2020-09-16T04:26:26Z</time>
      </trkpt>
      <trkpt lat="45.11724" lon="5.69146">
        <ele>244</ele>
        <time>2020-09-16T04:26:30Z</time>
      </trkpt>
      <trkpt lat="45.11737" lon="5.69158">
        <ele>244</ele>
        <time>2020-09-16T04:26:33Z</time>
      </trkpt>
      <trkpt lat="45.11744" lon="5.69165">
        <ele>244</ele>
        <time>2020-09-16T04:26:35Z</time>
      </trkpt>
      <trkpt lat="45.11767" lon="5.69194">
        <ele>245</ele>
        <time>2020-09-16T04:26:40Z</time>
      </trkpt>
      <trkpt lat="45.11774" lon="5.69203">
        <ele>245</ele>
        <time>2020-09-16T04:26:42Z</time>
      </trkpt>
      <trkpt lat="45.11809" lon="5.69254">
        <ele>246</ele>
        <time>2020-09-16T04:26:51Z</time>
      </trkpt>
      <trkpt lat="45.11826" lon="5.69277">
        <ele>247</ele>
        <time>2020-09-16T04:26:55Z</time>
      </trkpt>
      <trkpt lat="45.1184" lon="5.69298">
        <ele>247</ele>
        <time>2020-09-16T04:26:59Z</time>
      </trkpt>
      <trkpt lat="45.11865" lon="5.69335">
        <ele>248</ele>
        <time>2020-09-16T04:27:05Z</time>
      </trkpt>
      <trkpt lat="45.11868" lon="5.69338">
        <ele>248</ele>
        <time>2020-09-16T04:27:06Z</time>
      </trkpt>
      <trkpt lat="45.11878" lon="5.69351">
        <ele>247</ele>
        <time>2020-09-16T04:27:08Z</time>
      </trkpt>
      <trkpt lat="45.11875" lon="5.69355">
        <ele>248</ele>
        <time>2020-09-16T04:27:09Z</time>
      </trkpt>
      <trkpt lat="45.11874" lon="5.69365">
        <ele>248</ele>
        <time>2020-09-16T04:27:10Z</time>
      </trkpt>
      <trkpt lat="45.11876" lon="5.69369">
        <ele>247</ele>
        <time>2020-09-16T04:27:11Z</time>
      </trkpt>
      <trkpt lat="45.11878" lon="5.69373">
        <ele>247</ele>
        <time>2020-09-16T04:27:11Z</time>
      </trkpt>
      <trkpt lat="45.1188" lon="5.69374">
        <ele>247</ele>
        <time>2020-09-16T04:27:12Z</time>
      </trkpt>
      <trkpt lat="45.11887" lon="5.69374">
        <ele>247</ele>
        <time>2020-09-16T04:27:13Z</time>
      </trkpt>
      <trkpt lat="45.1189" lon="5.69371">
        <ele>247</ele>
        <time>2020-09-16T04:27:14Z</time>
      </trkpt>
      <trkpt lat="45.11897" lon="5.69383">
        <ele>247</ele>
        <time>2020-09-16T04:27:16Z</time>
      </trkpt>
      <trkpt lat="45.11909" lon="5.694">
        <ele>246</ele>
        <time>2020-09-16T04:27:19Z</time>
      </trkpt>
      <trkpt lat="45.11933" lon="5.69443">
        <ele>247</ele>
        <time>2020-09-16T04:27:25Z</time>
      </trkpt>
      <trkpt lat="45.11946" lon="5.69464">
        <ele>248</ele>
        <time>2020-09-16T04:27:29Z</time>
      </trkpt>
      <trkpt lat="45.11965" lon="5.69495">
        <ele>248</ele>
        <time>2020-09-16T04:27:34Z</time>
      </trkpt>
      <trkpt lat="45.12005" lon="5.69542">
        <ele>247</ele>
        <time>2020-09-16T04:27:43Z</time>
      </trkpt>
      <trkpt lat="45.1204" lon="5.69588">
        <ele>247</ele>
        <time>2020-09-16T04:27:52Z</time>
      </trkpt>
      <trkpt lat="45.12043" lon="5.69592">
        <ele>246</ele>
        <time>2020-09-16T04:27:53Z</time>
      </trkpt>
      <trkpt lat="45.1206" lon="5.69613">
        <ele>245</ele>
        <time>2020-09-16T04:27:57Z</time>
      </trkpt>
      <trkpt lat="45.12093" lon="5.69664">
        <ele>244</ele>
        <time>2020-09-16T04:28:05Z</time>
      </trkpt>
      <trkpt lat="45.12101" lon="5.69675">
        <ele>246</ele>
        <time>2020-09-16T04:28:07Z</time>
      </trkpt>
      <trkpt lat="45.12106" lon="5.69668">
        <ele>245</ele>
        <time>2020-09-16T04:28:08Z</time>
      </trkpt>
      <trkpt lat="45.12138" lon="5.69642">
        <ele>244</ele>
        <time>2020-09-16T04:28:15Z</time>
      </trkpt>
      <trkpt lat="45.12159" lon="5.69619">
        <ele>243</ele>
        <time>2020-09-16T04:28:20Z</time>
      </trkpt>
      <trkpt lat="45.12176" lon="5.69597">
        <ele>242</ele>
        <time>2020-09-16T04:28:24Z</time>
      </trkpt>
      <trkpt lat="45.12204" lon="5.69554">
        <ele>241</ele>
        <time>2020-09-16T04:28:31Z</time>
      </trkpt>
      <trkpt lat="45.12219" lon="5.69534">
        <ele>241</ele>
        <time>2020-09-16T04:28:35Z</time>
      </trkpt>
      <trkpt lat="45.12351" lon="5.69378">
        <ele>240</ele>
        <time>2020-09-16T04:29:05Z</time>
      </trkpt>
      <trkpt lat="45.12382" lon="5.69344">
        <ele>238</ele>
        <time>2020-09-16T04:29:12Z</time>
      </trkpt>
      <trkpt lat="45.12433" lon="5.69272">
        <ele>237</ele>
        <time>2020-09-16T04:29:25Z</time>
      </trkpt>
      <trkpt lat="45.12446" lon="5.69255">
        <ele>237</ele>
        <time>2020-09-16T04:29:28Z</time>
      </trkpt>
      <trkpt lat="45.1252" lon="5.6915">
        <ele>237</ele>
        <time>2020-09-16T04:29:47Z</time>
      </trkpt>
      <trkpt lat="45.12544" lon="5.69101">
        <ele>237</ele>
        <time>2020-09-16T04:29:55Z</time>
      </trkpt>
      <trkpt lat="45.12563" lon="5.69072">
        <ele>238</ele>
        <time>2020-09-16T04:29:59Z</time>
      </trkpt>
      <trkpt lat="45.12595" lon="5.69033">
        <ele>237</ele>
        <time>2020-09-16T04:30:07Z</time>
      </trkpt>
      <trkpt lat="45.12609" lon="5.69023">
        <ele>237</ele>
        <time>2020-09-16T04:30:10Z</time>
      </trkpt>
      <trkpt lat="45.12643" lon="5.69008">
        <ele>238</ele>
        <time>2020-09-16T04:30:16Z</time>
      </trkpt>
      <trkpt lat="45.12817" lon="5.6901">
        <ele>235</ele>
        <time>2020-09-16T04:30:47Z</time>
      </trkpt>
      <trkpt lat="45.12902" lon="5.69016">
        <ele>235</ele>
        <time>2020-09-16T04:31:02Z</time>
      </trkpt>
      <trkpt lat="45.12917" lon="5.69019">
        <ele>235</ele>
        <time>2020-09-16T04:31:05Z</time>
      </trkpt>
      <trkpt lat="45.13023" lon="5.69015">
        <ele>236</ele>
        <time>2020-09-16T04:31:24Z</time>
      </trkpt>
      <trkpt lat="45.13135" lon="5.68995">
        <ele>235</ele>
        <time>2020-09-16T04:31:44Z</time>
      </trkpt>
      <trkpt lat="45.13231" lon="5.68976">
        <ele>233</ele>
        <time>2020-09-16T04:32:01Z</time>
      </trkpt>
      <trkpt lat="45.13408" lon="5.68929">
        <ele>233</ele>
        <time>2020-09-16T04:32:33Z</time>
      </trkpt>
      <trkpt lat="45.13531" lon="5.68894">
        <ele>232</ele>
        <time>2020-09-16T04:32:55Z</time>
      </trkpt>
      <trkpt lat="45.13574" lon="5.6888">
        <ele>232</ele>
        <time>2020-09-16T04:33:03Z</time>
      </trkpt>
      <trkpt lat="45.13621" lon="5.68878">
        <ele>234</ele>
        <time>2020-09-16T04:33:12Z</time>
      </trkpt>
      <trkpt lat="45.13655" lon="5.68883">
        <ele>235</ele>
        <time>2020-09-16T04:33:18Z</time>
      </trkpt>
      <trkpt lat="45.13692" lon="5.68906">
        <ele>237</ele>
        <time>2020-09-16T04:33:25Z</time>
      </trkpt>
      <trkpt lat="45.1378" lon="5.68991">
        <ele>236</ele>
        <time>2020-09-16T04:33:44Z</time>
      </trkpt>
      <trkpt lat="45.13856" lon="5.69073">
        <ele>235</ele>
        <time>2020-09-16T04:34:01Z</time>
      </trkpt>
      <trkpt lat="45.13882" lon="5.69093">
        <ele>236</ele>
        <time>2020-09-16T04:34:06Z</time>
      </trkpt>
      <trkpt lat="45.13937" lon="5.69119">
        <ele>235</ele>
        <time>2020-09-16T04:34:16Z</time>
      </trkpt>
      <trkpt lat="45.13943" lon="5.69121">
        <ele>235</ele>
        <time>2020-09-16T04:34:18Z</time>
      </trkpt>
      <trkpt lat="45.13954" lon="5.69123">
        <ele>235</ele>
        <time>2020-09-16T04:34:20Z</time>
      </trkpt>
      <trkpt lat="45.14056" lon="5.69169">
        <ele>233</ele>
        <time>2020-09-16T04:34:39Z</time>
      </trkpt>
      <trkpt lat="45.14069" lon="5.69168">
        <ele>233</ele>
        <time>2020-09-16T04:34:41Z</time>
      </trkpt>
      <trkpt lat="45.14105" lon="5.69135">
        <ele>231</ele>
        <time>2020-09-16T04:34:49Z</time>
      </trkpt>
      <trkpt lat="45.14153" lon="5.69083">
        <ele>231</ele>
        <time>2020-09-16T04:34:59Z</time>
      </trkpt>
      <trkpt lat="45.14237" lon="5.68978">
        <ele>229</ele>
        <time>2020-09-16T04:35:19Z</time>
      </trkpt>
      <trkpt lat="45.14313" lon="5.68894">
        <ele>227</ele>
        <time>2020-09-16T04:35:36Z</time>
      </trkpt>
      <trkpt lat="45.14319" lon="5.68885">
        <ele>226</ele>
        <time>2020-09-16T04:35:38Z</time>
      </trkpt>
      <trkpt lat="45.1454" lon="5.68928">
        <ele>227</ele>
        <time>2020-09-16T04:36:18Z</time>
      </trkpt>
      <trkpt lat="45.14575" lon="5.68938">
        <ele>226</ele>
        <time>2020-09-16T04:36:24Z</time>
      </trkpt>
      <trkpt lat="45.1465" lon="5.68952">
        <ele>226</ele>
        <time>2020-09-16T04:36:37Z</time>
      </trkpt>
      <trkpt lat="45.14818" lon="5.68992">
        <ele>226</ele>
        <time>2020-09-16T04:37:08Z</time>
      </trkpt>
      <trkpt lat="45.14924" lon="5.69022">
        <ele>225</ele>
        <time>2020-09-16T04:37:27Z</time>
      </trkpt>
      <trkpt lat="45.14974" lon="5.69043">
        <ele>224</ele>
        <time>2020-09-16T04:37:36Z</time>
      </trkpt>
      <trkpt lat="45.15048" lon="5.69091">
        <ele>225</ele>
        <time>2020-09-16T04:37:51Z</time>
      </trkpt>
      <trkpt lat="45.15102" lon="5.69146">
        <ele>224</ele>
        <time>2020-09-16T04:38:03Z</time>
      </trkpt>
      <trkpt lat="45.15163" lon="5.6923">
        <ele>224</ele>
        <time>2020-09-16T04:38:18Z</time>
      </trkpt>
      <trkpt lat="45.15205" lon="5.69307">
        <ele>224</ele>
        <time>2020-09-16T04:38:30Z</time>
      </trkpt>
      <trkpt lat="45.15301" lon="5.69525">
        <ele>224</ele>
        <time>2020-09-16T04:39:02Z</time>
      </trkpt>
      <trkpt lat="45.15355" lon="5.69657">
        <ele>226</ele>
        <time>2020-09-16T04:39:21Z</time>
      </trkpt>
      <trkpt lat="45.15362" lon="5.6967">
        <ele>226</ele>
        <time>2020-09-16T04:39:23Z</time>
      </trkpt>
      <trkpt lat="45.15419" lon="5.69755">
        <ele>226</ele>
        <time>2020-09-16T04:39:38Z</time>
      </trkpt>
      <trkpt lat="45.15491" lon="5.69824">
        <ele>226</ele>
        <time>2020-09-16T04:39:54Z</time>
      </trkpt>
      <trkpt lat="45.15512" lon="5.69838">
        <ele>225</ele>
        <time>2020-09-16T04:39:58Z</time>
      </trkpt>
      <trkpt lat="45.15705" lon="5.69935">
        <ele>225</ele>
        <time>2020-09-16T04:40:34Z</time>
      </trkpt>
      <trkpt lat="45.15709" lon="5.69939">
        <ele>225</ele>
        <time>2020-09-16T04:40:35Z</time>
      </trkpt>
      <trkpt lat="45.1571" lon="5.69944">
        <ele>225</ele>
        <time>2020-09-16T04:40:36Z</time>
      </trkpt>
      <trkpt lat="45.1571" lon="5.6998">
        <ele>226</ele>
        <time>2020-09-16T04:40:40Z</time>
      </trkpt>
      <trkpt lat="45.15713" lon="5.69986">
        <ele>226</ele>
        <time>2020-09-16T04:40:41Z</time>
      </trkpt>
      <trkpt lat="45.15719" lon="5.6999">
        <ele>226</ele>
        <time>2020-09-16T04:40:42Z</time>
      </trkpt>
      <trkpt lat="45.15744" lon="5.70001">
        <ele>226</ele>
        <time>2020-09-16T04:40:47Z</time>
      </trkpt>
      <trkpt lat="45.15746" lon="5.70002">
        <ele>226</ele>
        <time>2020-09-16T04:40:47Z</time>
      </trkpt>
      <trkpt lat="45.1575" lon="5.70001">
        <ele>226</ele>
        <time>2020-09-16T04:40:48Z</time>
      </trkpt>
      <trkpt lat="45.15757" lon="5.69995">
        <ele>226</ele>
        <time>2020-09-16T04:40:49Z</time>
      </trkpt>
      <trkpt lat="45.15771" lon="5.69978">
        <ele>224</ele>
        <time>2020-09-16T04:40:53Z</time>
      </trkpt>
      <trkpt lat="45.15779" lon="5.6997">
        <ele>224</ele>
        <time>2020-09-16T04:40:54Z</time>
      </trkpt>
      <trkpt lat="45.15794" lon="5.69964">
        <ele>223</ele>
        <time>2020-09-16T04:40:57Z</time>
      </trkpt>
      <trkpt lat="45.15832" lon="5.69967">
        <ele>222</ele>
        <time>2020-09-16T04:41:04Z</time>
      </trkpt>
      <trkpt lat="45.15841" lon="5.6997">
        <ele>222</ele>
        <time>2020-09-16T04:41:06Z</time>
      </trkpt>
      <trkpt lat="45.15864" lon="5.69982">
        <ele>223</ele>
        <time>2020-09-16T04:41:10Z</time>
      </trkpt>
      <trkpt lat="45.1588" lon="5.69989">
        <ele>223</ele>
        <time>2020-09-16T04:41:13Z</time>
      </trkpt>
      <trkpt lat="45.15906" lon="5.69999">
        <ele>222</ele>
        <time>2020-09-16T04:41:18Z</time>
      </trkpt>
      <trkpt lat="45.15971" lon="5.70029">
        <ele>222</ele>
        <time>2020-09-16T04:41:30Z</time>
      </trkpt>
      <trkpt lat="45.15982" lon="5.70029">
        <ele>222</ele>
        <time>2020-09-16T04:41:32Z</time>
      </trkpt>
      <trkpt lat="45.15989" lon="5.70032">
        <ele>222</ele>
        <time>2020-09-16T04:41:33Z</time>
      </trkpt>
      <trkpt lat="45.1599" lon="5.70028">
        <ele>222</ele>
        <time>2020-09-16T04:41:34Z</time>
      </trkpt>
      <trkpt lat="45.16018" lon="5.69901">
        <ele>226</ele>
        <time>2020-09-16T04:41:50Z</time>
      </trkpt>
      <trkpt lat="45.16019" lon="5.69895">
        <ele>226</ele>
        <time>2020-09-16T04:41:51Z</time>
      </trkpt>
      <trkpt lat="45.16056" lon="5.69907">
        <ele>227</ele>
        <time>2020-09-16T04:41:58Z</time>
      </trkpt>
      <trkpt lat="45.1622" lon="5.69947">
        <ele>225</ele>
        <time>2020-09-16T04:42:28Z</time>
      </trkpt>
      <trkpt lat="45.16331" lon="5.69974">
        <ele>222</ele>
        <time>2020-09-16T04:42:48Z</time>
      </trkpt>
      <trkpt lat="45.16402" lon="5.69987">
        <ele>222</ele>
        <time>2020-09-16T04:43:00Z</time>
      </trkpt>
      <trkpt lat="45.16433" lon="5.69989">
        <ele>222</ele>
        <time>2020-09-16T04:43:06Z</time>
      </trkpt>
      <trkpt lat="45.16489" lon="5.69986">
        <ele>220</ele>
        <time>2020-09-16T04:43:16Z</time>
      </trkpt>
      <trkpt lat="45.16575" lon="5.69989">
        <ele>220</ele>
        <time>2020-09-16T04:43:31Z</time>
      </trkpt>
      <trkpt lat="45.16635" lon="5.6999">
        <ele>221</ele>
        <time>2020-09-16T04:43:42Z</time>
      </trkpt>
      <trkpt lat="45.16717" lon="5.69993">
        <ele>222</ele>
        <time>2020-09-16T04:43:56Z</time>
      </trkpt>
      <trkpt lat="45.16816" lon="5.69993">
        <ele>220</ele>
        <time>2020-09-16T04:44:14Z</time>
      </trkpt>
      <trkpt lat="45.16964" lon="5.69998">
        <ele>221</ele>
        <time>2020-09-16T04:44:40Z</time>
      </trkpt>
      <trkpt lat="45.16994" lon="5.69998">
        <ele>220</ele>
        <time>2020-09-16T04:44:46Z</time>
      </trkpt>
      <trkpt lat="45.17262" lon="5.70004">
        <ele>219</ele>
        <time>2020-09-16T04:45:33Z</time>
      </trkpt>
      <trkpt lat="45.174" lon="5.70005">
        <ele>222</ele>
        <time>2020-09-16T04:45:58Z</time>
      </trkpt>
      <trkpt lat="45.17503" lon="5.70008">
        <ele>223</ele>
        <time>2020-09-16T04:46:16Z</time>
      </trkpt>
      <trkpt lat="45.17524" lon="5.70008">
        <ele>223</ele>
        <time>2020-09-16T04:46:20Z</time>
      </trkpt>
      <trkpt lat="45.17708" lon="5.70013">
        <ele>220</ele>
        <time>2020-09-16T04:46:53Z</time>
      </trkpt>
      <trkpt lat="45.17747" lon="5.70014">
        <ele>219</ele>
        <time>2020-09-16T04:47:00Z</time>
      </trkpt>
      <trkpt lat="45.17834" lon="5.70015">
        <ele>221</ele>
        <time>2020-09-16T04:47:15Z</time>
      </trkpt>
      <trkpt lat="45.17851" lon="5.70016">
        <ele>220</ele>
        <time>2020-09-16T04:47:18Z</time>
      </trkpt>
      <trkpt lat="45.17891" lon="5.70018">
        <ele>219</ele>
        <time>2020-09-16T04:47:25Z</time>
      </trkpt>
      <trkpt lat="45.17993" lon="5.70019">
        <ele>217</ele>
        <time>2020-09-16T04:47:43Z</time>
      </trkpt>
      <trkpt lat="45.18025" lon="5.7002">
        <ele>217</ele>
        <time>2020-09-16T04:47:49Z</time>
      </trkpt>
      <trkpt lat="45.18059" lon="5.70021">
        <ele>217</ele>
        <time>2020-09-16T04:47:55Z</time>
      </trkpt>
      <trkpt lat="45.1812" lon="5.70022">
        <ele>217</ele>
        <time>2020-09-16T04:48:06Z</time>
      </trkpt>
      <trkpt lat="45.1825" lon="5.70025">
        <ele>217</ele>
        <time>2020-09-16T04:48:29Z</time>
      </trkpt>
      <trkpt lat="45.18347" lon="5.70027">
        <ele>211</ele>
        <time>2020-09-16T04:48:46Z</time>
      </trkpt>
      <trkpt lat="45.18448" lon="5.7003">
        <ele>217</ele>
        <time>2020-09-16T04:49:04Z</time>
      </trkpt>
      <trkpt lat="45.18487" lon="5.70033">
        <ele>218</ele>
        <time>2020-09-16T04:49:11Z</time>
      </trkpt>
      <trkpt lat="45.18555" lon="5.70034">
        <ele>219</ele>
        <time>2020-09-16T04:49:24Z</time>
      </trkpt>
      <trkpt lat="45.18588" lon="5.70037">
        <ele>220</ele>
        <time>2020-09-16T04:49:29Z</time>
      </trkpt>
      <trkpt lat="45.18611" lon="5.70039">
        <ele>220</ele>
        <time>2020-09-16T04:49:33Z</time>
      </trkpt>
      <trkpt lat="45.18725" lon="5.70057">
        <ele>219</ele>
        <time>2020-09-16T04:49:54Z</time>
      </trkpt>
      <trkpt lat="45.18759" lon="5.70061">
        <ele>219</ele>
        <time>2020-09-16T04:50:00Z</time>
      </trkpt>
      <trkpt lat="45.18799" lon="5.70066">
        <ele>219</ele>
        <time>2020-09-16T04:50:07Z</time>
      </trkpt>
      <trkpt lat="45.18866" lon="5.70075">
        <ele>218</ele>
        <time>2020-09-16T04:50:19Z</time>
      </trkpt>
      <trkpt lat="45.18913" lon="5.70079">
        <ele>216</ele>
        <time>2020-09-16T04:50:27Z</time>
      </trkpt>
      <trkpt lat="45.18919" lon="5.7008">
        <ele>216</ele>
        <time>2020-09-16T04:50:29Z</time>
      </trkpt>
      <trkpt lat="45.18944" lon="5.70082">
        <ele>217</ele>
        <time>2020-09-16T04:50:33Z</time>
      </trkpt>
      <trkpt lat="45.18979" lon="5.70078">
        <ele>217</ele>
        <time>2020-09-16T04:50:39Z</time>
      </trkpt>
      <trkpt lat="45.1902" lon="5.70074">
        <ele>216</ele>
        <time>2020-09-16T04:50:47Z</time>
      </trkpt>
      <trkpt lat="45.19038" lon="5.70073">
        <ele>214</ele>
        <time>2020-09-16T04:50:50Z</time>
      </trkpt>
      <trkpt lat="45.19239" lon="5.7008">
        <ele>213</ele>
        <time>2020-09-16T04:51:26Z</time>
      </trkpt>
      <trkpt lat="45.1926" lon="5.7008">
        <ele>213</ele>
        <time>2020-09-16T04:51:29Z</time>
      </trkpt>
      <trkpt lat="45.19281" lon="5.70075">
        <ele>213</ele>
        <time>2020-09-16T04:51:33Z</time>
      </trkpt>
      <trkpt lat="45.19387" lon="5.70036">
        <ele>212</ele>
        <time>2020-09-16T04:51:53Z</time>
      </trkpt>
      <trkpt lat="45.19455" lon="5.70019">
        <ele>215</ele>
        <time>2020-09-16T04:52:05Z</time>
      </trkpt>
      <trkpt lat="45.19463" lon="5.70016">
        <ele>215</ele>
        <time>2020-09-16T04:52:06Z</time>
      </trkpt>
      <trkpt lat="45.19485" lon="5.70009">
        <ele>216</ele>
        <time>2020-09-16T04:52:10Z</time>
      </trkpt>
      <trkpt lat="45.19537" lon="5.69984">
        <ele>215</ele>
        <time>2020-09-16T04:52:20Z</time>
      </trkpt>
      <trkpt lat="45.19586" lon="5.69954">
        <ele>214</ele>
        <time>2020-09-16T04:52:30Z</time>
      </trkpt>
      <trkpt lat="45.19627" lon="5.69926">
        <ele>213</ele>
        <time>2020-09-16T04:52:38Z</time>
      </trkpt>
      <trkpt lat="45.19645" lon="5.69907">
        <ele>212</ele>
        <time>2020-09-16T04:52:42Z</time>
      </trkpt>
      <trkpt lat="45.19655" lon="5.69898">
        <ele>212</ele>
        <time>2020-09-16T04:52:44Z</time>
      </trkpt>
      <trkpt lat="45.19702" lon="5.69845">
        <ele>211</ele>
        <time>2020-09-16T04:52:54Z</time>
      </trkpt>
      <trkpt lat="45.19724" lon="5.69816">
        <ele>210</ele>
        <time>2020-09-16T04:53:00Z</time>
      </trkpt>
      <trkpt lat="45.1978" lon="5.69739">
        <ele>212</ele>
        <time>2020-09-16T04:53:14Z</time>
      </trkpt>
      <trkpt lat="45.19931" lon="5.6953">
        <ele>212</ele>
        <time>2020-09-16T04:53:51Z</time>
      </trkpt>
      <trkpt lat="45.19982" lon="5.69459">
        <ele>213</ele>
        <time>2020-09-16T04:54:04Z</time>
      </trkpt>
      <trkpt lat="45.19988" lon="5.69453">
        <ele>213</ele>
        <time>2020-09-16T04:54:05Z</time>
      </trkpt>
      <trkpt lat="45.2005" lon="5.69369">
        <ele>211</ele>
        <time>2020-09-16T04:54:20Z</time>
      </trkpt>
      <trkpt lat="45.20159" lon="5.69219">
        <ele>209</ele>
        <time>2020-09-16T04:54:47Z</time>
      </trkpt>
      <trkpt lat="45.20237" lon="5.69111">
        <ele>210</ele>
        <time>2020-09-16T04:55:07Z</time>
      </trkpt>
      <trkpt lat="45.20303" lon="5.69021">
        <ele>209</ele>
        <time>2020-09-16T04:55:23Z</time>
      </trkpt>
      <trkpt lat="45.20495" lon="5.68755">
        <ele>212</ele>
        <time>2020-09-16T04:56:11Z</time>
      </trkpt>
      <trkpt lat="45.20563" lon="5.68663">
        <ele>210</ele>
        <time>2020-09-16T04:56:28Z</time>
      </trkpt>
      <trkpt lat="45.20712" lon="5.6845">
        <ele>210</ele>
        <time>2020-09-16T04:57:05Z</time>
      </trkpt>
      <trkpt lat="45.20733" lon="5.68431">
        <ele>211</ele>
        <time>2020-09-16T04:57:10Z</time>
      </trkpt>
      <trkpt lat="45.20751" lon="5.68412">
        <ele>211</ele>
        <time>2020-09-16T04:57:14Z</time>
      </trkpt>
      <trkpt lat="45.2077" lon="5.68386">
        <ele>210</ele>
        <time>2020-09-16T04:57:18Z</time>
      </trkpt>
      <trkpt lat="45.2082" lon="5.68307">
        <ele>208</ele>
        <time>2020-09-16T04:57:32Z</time>
      </trkpt>
      <trkpt lat="45.21048" lon="5.67995">
        <ele>209</ele>
        <time>2020-09-16T04:58:28Z</time>
      </trkpt>
      <trkpt lat="45.21323" lon="5.67617">
        <ele>203</ele>
        <time>2020-09-16T04:59:36Z</time>
      </trkpt>
      <trkpt lat="45.21467" lon="5.67417">
        <ele>204</ele>
        <time>2020-09-16T05:00:12Z</time>
      </trkpt>
      <trkpt lat="45.21517" lon="5.67351">
        <ele>204</ele>
        <time>2020-09-16T05:00:24Z</time>
      </trkpt>
      <trkpt lat="45.21595" lon="5.67245">
        <ele>202</ele>
        <time>2020-09-16T05:00:43Z</time>
      </trkpt>
      <trkpt lat="45.21721" lon="5.67083">
        <ele>203</ele>
        <time>2020-09-16T05:01:14Z</time>
      </trkpt>
      <trkpt lat="45.21783" lon="5.67021">
        <ele>202</ele>
        <time>2020-09-16T05:01:27Z</time>
      </trkpt>
      <trkpt lat="45.21849" lon="5.66975">
        <ele>203</ele>
        <time>2020-09-16T05:01:40Z</time>
      </trkpt>
      <trkpt lat="45.22103" lon="5.66787">
        <ele>204</ele>
        <time>2020-09-16T05:02:31Z</time>
      </trkpt>
      <trkpt lat="45.22146" lon="5.66756">
        <ele>205</ele>
        <time>2020-09-16T05:02:40Z</time>
      </trkpt>
      <trkpt lat="45.22258" lon="5.66668">
        <ele>203</ele>
        <time>2020-09-16T05:03:02Z</time>
      </trkpt>
      <trkpt lat="45.22524" lon="5.66474">
        <ele>201</ele>
        <time>2020-09-16T05:03:56Z</time>
      </trkpt>
      <trkpt lat="45.22635" lon="5.66395">
        <ele>202</ele>
        <time>2020-09-16T05:04:18Z</time>
      </trkpt>
      <trkpt lat="45.22705" lon="5.6635">
        <ele>204</ele>
        <time>2020-09-16T05:04:31Z</time>
      </trkpt>
      <trkpt lat="45.22754" lon="5.66308">
        <ele>204</ele>
        <time>2020-09-16T05:04:42Z</time>
      </trkpt>
      <trkpt lat="45.22782" lon="5.66287">
        <ele>203</ele>
        <time>2020-09-16T05:04:47Z</time>
      </trkpt>
      <trkpt lat="45.22877" lon="5.6622">
        <ele>202</ele>
        <time>2020-09-16T05:05:06Z</time>
      </trkpt>
      <trkpt lat="45.22952" lon="5.66161">
        <ele>201</ele>
        <time>2020-09-16T05:05:21Z</time>
      </trkpt>
      <trkpt lat="45.2307" lon="5.66076">
        <ele>201</ele>
        <time>2020-09-16T05:05:45Z</time>
      </trkpt>
      <trkpt lat="45.23237" lon="5.65951">
        <ele>200</ele>
        <time>2020-09-16T05:06:19Z</time>
      </trkpt>
      <trkpt lat="45.23265" lon="5.65928">
        <ele>200</ele>
        <time>2020-09-16T05:06:24Z</time>
      </trkpt>
      <trkpt lat="45.2328" lon="5.65916">
        <ele>200</ele>
        <time>2020-09-16T05:06:27Z</time>
      </trkpt>
      <trkpt lat="45.23336" lon="5.65875">
        <ele>201</ele>
        <time>2020-09-16T05:06:39Z</time>
      </trkpt>
      <trkpt lat="45.23343" lon="5.65867">
        <ele>201</ele>
        <time>2020-09-16T05:06:40Z</time>
      </trkpt>
      <trkpt lat="45.23356" lon="5.65848">
        <ele>201</ele>
        <time>2020-09-16T05:06:43Z</time>
      </trkpt>
      <trkpt lat="45.23372" lon="5.65832">
        <ele>201</ele>
        <time>2020-09-16T05:06:47Z</time>
      </trkpt>
      <trkpt lat="45.23394" lon="5.65814">
        <ele>200</ele>
        <time>2020-09-16T05:06:51Z</time>
      </trkpt>
      <trkpt lat="45.23424" lon="5.6579">
        <ele>200</ele>
        <time>2020-09-16T05:06:58Z</time>
      </trkpt>
      <trkpt lat="45.23528" lon="5.65671">
        <ele>203</ele>
        <time>2020-09-16T05:07:21Z</time>
      </trkpt>
      <trkpt lat="45.23531" lon="5.65663">
        <ele>203</ele>
        <time>2020-09-16T05:07:23Z</time>
      </trkpt>
      <trkpt lat="45.23533" lon="5.65653">
        <ele>203</ele>
        <time>2020-09-16T05:07:24Z</time>
      </trkpt>
      <trkpt lat="45.23526" lon="5.65635">
        <ele>203</ele>
        <time>2020-09-16T05:07:26Z</time>
      </trkpt>
      <trkpt lat="45.23515" lon="5.65618">
        <ele>203</ele>
        <time>2020-09-16T05:07:29Z</time>
      </trkpt>
      <trkpt lat="45.23513" lon="5.65609">
        <ele>203</ele>
        <time>2020-09-16T05:07:30Z</time>
      </trkpt>
      <trkpt lat="45.23513" lon="5.65604">
        <ele>203</ele>
        <time>2020-09-16T05:07:31Z</time>
      </trkpt>
      <trkpt lat="45.2352" lon="5.65593">
        <ele>203</ele>
        <time>2020-09-16T05:07:33Z</time>
      </trkpt>
      <trkpt lat="45.23526" lon="5.65583">
        <ele>202</ele>
        <time>2020-09-16T05:07:35Z</time>
      </trkpt>
      <trkpt lat="45.23545" lon="5.65562">
        <ele>202</ele>
        <time>2020-09-16T05:07:39Z</time>
      </trkpt>
      <trkpt lat="45.23606" lon="5.65536">
        <ele>201</ele>
        <time>2020-09-16T05:07:50Z</time>
      </trkpt>
      <trkpt lat="45.23729" lon="5.6553">
        <ele>199</ele>
        <time>2020-09-16T05:08:12Z</time>
      </trkpt>
      <trkpt lat="45.23758" lon="5.65516">
        <ele>199</ele>
        <time>2020-09-16T05:08:18Z</time>
      </trkpt>
      <trkpt lat="45.24049" lon="5.65305">
        <ele>203</ele>
        <time>2020-09-16T05:09:16Z</time>
      </trkpt>
      <trkpt lat="45.24171" lon="5.65256">
        <ele>203</ele>
        <time>2020-09-16T05:09:38Z</time>
      </trkpt>
      <trkpt lat="45.24203" lon="5.65241">
        <ele>203</ele>
        <time>2020-09-16T05:09:44Z</time>
      </trkpt>
      <trkpt lat="45.24319" lon="5.65159">
        <ele>203</ele>
        <time>2020-09-16T05:10:07Z</time>
      </trkpt>
      <trkpt lat="45.24601" lon="5.6495">
        <ele>199</ele>
        <time>2020-09-16T05:11:04Z</time>
      </trkpt>
      <trkpt lat="45.2467" lon="5.64895">
        <ele>199</ele>
        <time>2020-09-16T05:11:18Z</time>
      </trkpt>
      <trkpt lat="45.24752" lon="5.64814">
        <ele>201</ele>
        <time>2020-09-16T05:11:36Z</time>
      </trkpt>
      <trkpt lat="45.248" lon="5.64761">
        <ele>202</ele>
        <time>2020-09-16T05:11:47Z</time>
      </trkpt>
      <trkpt lat="45.25116" lon="5.64342">
        <ele>199</ele>
        <time>2020-09-16T05:13:03Z</time>
      </trkpt>
      <trkpt lat="45.25297" lon="5.641">
        <ele>197</ele>
        <time>2020-09-16T05:13:48Z</time>
      </trkpt>
      <trkpt lat="45.25323" lon="5.64051">
        <ele>198</ele>
        <time>2020-09-16T05:13:55Z</time>
      </trkpt>
      <trkpt lat="45.25486" lon="5.63679">
        <ele>201</ele>
        <time>2020-09-16T05:14:50Z</time>
      </trkpt>
      <trkpt lat="45.25504" lon="5.63648">
        <ele>201</ele>
        <time>2020-09-16T05:14:55Z</time>
      </trkpt>
      <trkpt lat="45.25697" lon="5.63395">
        <ele>200</ele>
        <time>2020-09-16T05:15:42Z</time>
      </trkpt>
      <trkpt lat="45.25981" lon="5.63051">
        <ele>200</ele>
        <time>2020-09-16T05:16:48Z</time>
      </trkpt>
      <trkpt lat="45.26364" lon="5.62578">
        <ele>198</ele>
        <time>2020-09-16T05:18:19Z</time>
      </trkpt>
      <trkpt lat="45.26399" lon="5.62539">
        <ele>199</ele>
        <time>2020-09-16T05:18:27Z</time>
      </trkpt>
      <trkpt lat="45.26538" lon="5.62412">
        <ele>199</ele>
        <time>2020-09-16T05:18:56Z</time>
      </trkpt>
      <trkpt lat="45.26782" lon="5.62181">
        <ele>197</ele>
        <time>2020-09-16T05:19:48Z</time>
      </trkpt>
      <trkpt lat="45.2682" lon="5.62157">
        <ele>198</ele>
        <time>2020-09-16T05:19:56Z</time>
      </trkpt>
      <trkpt lat="45.26847" lon="5.62133">
        <ele>198</ele>
        <time>2020-09-16T05:20:01Z</time>
      </trkpt>
      <trkpt lat="45.26871" lon="5.62116">
        <ele>198</ele>
        <time>2020-09-16T05:20:06Z</time>
      </trkpt>
      <trkpt lat="45.27" lon="5.62048">
        <ele>197</ele>
        <time>2020-09-16T05:20:31Z</time>
      </trkpt>
      <trkpt lat="45.27027" lon="5.62042">
        <ele>197</ele>
        <time>2020-09-16T05:20:35Z</time>
      </trkpt>
      <trkpt lat="45.27049" lon="5.62033">
        <ele>196</ele>
        <time>2020-09-16T05:20:39Z</time>
      </trkpt>
      <trkpt lat="45.2709" lon="5.62009">
        <ele>196</ele>
        <time>2020-09-16T05:20:47Z</time>
      </trkpt>
      <trkpt lat="45.27102" lon="5.61998">
        <ele>196</ele>
        <time>2020-09-16T05:20:50Z</time>
      </trkpt>
      <trkpt lat="45.27107" lon="5.61991">
        <ele>196</ele>
        <time>2020-09-16T05:20:51Z</time>
      </trkpt>
      <trkpt lat="45.27108" lon="5.61984">
        <ele>196</ele>
        <time>2020-09-16T05:20:52Z</time>
      </trkpt>
      <trkpt lat="45.27104" lon="5.61981">
        <ele>196</ele>
        <time>2020-09-16T05:20:53Z</time>
      </trkpt>
      <trkpt lat="45.27072" lon="5.62002">
        <ele>196</ele>
        <time>2020-09-16T05:20:59Z</time>
      </trkpt>
      <trkpt lat="45.27069" lon="5.62013">
        <ele>196</ele>
        <time>2020-09-16T05:21:01Z</time>
      </trkpt>
      <trkpt lat="45.2707" lon="5.62027">
        <ele>196</ele>
        <time>2020-09-16T05:21:02Z</time>
      </trkpt>
      <trkpt lat="45.27149" lon="5.62258">
        <ele>196</ele>
        <time>2020-09-16T05:21:35Z</time>
      </trkpt>
      <trkpt lat="45.27152" lon="5.62265">
        <ele>197</ele>
        <time>2020-09-16T05:21:36Z</time>
      </trkpt>
      <trkpt lat="45.27158" lon="5.62265">
        <ele>196</ele>
        <time>2020-09-16T05:21:37Z</time>
      </trkpt>
      <trkpt lat="45.2718" lon="5.62252">
        <ele>196</ele>
        <time>2020-09-16T05:21:41Z</time>
      </trkpt>
      <trkpt lat="45.27201" lon="5.62236">
        <ele>196</ele>
        <time>2020-09-16T05:21:45Z</time>
      </trkpt>
      <trkpt lat="45.27272" lon="5.62193">
        <ele>196</ele>
        <time>2020-09-16T05:21:59Z</time>
      </trkpt>
      <trkpt lat="45.27355" lon="5.62158">
        <ele>198</ele>
        <time>2020-09-16T05:22:14Z</time>
      </trkpt>
      <trkpt lat="45.27465" lon="5.62135">
        <ele>199</ele>
        <time>2020-09-16T05:22:34Z</time>
      </trkpt>
      <trkpt lat="45.2752" lon="5.6214">
        <ele>199</ele>
        <time>2020-09-16T05:22:44Z</time>
      </trkpt>
      <trkpt lat="45.27577" lon="5.62142">
        <ele>199</ele>
        <time>2020-09-16T05:22:54Z</time>
      </trkpt>
      <trkpt lat="45.27632" lon="5.62121">
        <ele>201</ele>
        <time>2020-09-16T05:23:04Z</time>
      </trkpt>
      <trkpt lat="45.27792" lon="5.62082">
        <ele>203</ele>
        <time>2020-09-16T05:23:33Z</time>
      </trkpt>
      <trkpt lat="45.27854" lon="5.6207">
        <ele>201</ele>
        <time>2020-09-16T05:23:44Z</time>
      </trkpt>
      <trkpt lat="45.27913" lon="5.6207">
        <ele>200</ele>
        <time>2020-09-16T05:23:55Z</time>
      </trkpt>
      <trkpt lat="45.28043" lon="5.6206">
        <ele>201</ele>
        <time>2020-09-16T05:24:18Z</time>
      </trkpt>
      <trkpt lat="45.2811" lon="5.62053">
        <ele>199</ele>
        <time>2020-09-16T05:24:30Z</time>
      </trkpt>
      <trkpt lat="45.28197" lon="5.62037">
        <ele>197</ele>
        <time>2020-09-16T05:24:45Z</time>
      </trkpt>
      <trkpt lat="45.28235" lon="5.62025">
        <ele>197</ele>
        <time>2020-09-16T05:24:52Z</time>
      </trkpt>
      <trkpt lat="45.28314" lon="5.62013">
        <ele>197</ele>
        <time>2020-09-16T05:25:06Z</time>
      </trkpt>
      <trkpt lat="45.28377" lon="5.61998">
        <ele>197</ele>
        <time>2020-09-16T05:25:18Z</time>
      </trkpt>
      <trkpt lat="45.28569" lon="5.6196">
        <ele>197</ele>
        <time>2020-09-16T05:25:52Z</time>
      </trkpt>
      <trkpt lat="45.28681" lon="5.6193">
        <ele>198</ele>
        <time>2020-09-16T05:26:13Z</time>
      </trkpt>
      <trkpt lat="45.2872" lon="5.61918">
        <ele>199</ele>
        <time>2020-09-16T05:26:20Z</time>
      </trkpt>
      <trkpt lat="45.28791" lon="5.61905">
        <ele>199</ele>
        <time>2020-09-16T05:26:32Z</time>
      </trkpt>
      <trkpt lat="45.29026" lon="5.61849">
        <ele>200</ele>
        <time>2020-09-16T05:27:15Z</time>
      </trkpt>
      <trkpt lat="45.29126" lon="5.6183">
        <ele>201</ele>
        <time>2020-09-16T05:27:33Z</time>
      </trkpt>
      <trkpt lat="45.2922" lon="5.61808">
        <ele>199</ele>
        <time>2020-09-16T05:27:50Z</time>
      </trkpt>
      <trkpt lat="45.29314" lon="5.61778">
        <ele>200</ele>
        <time>2020-09-16T05:28:07Z</time>
      </trkpt>
      <trkpt lat="45.29398" lon="5.61755">
        <ele>200</ele>
        <time>2020-09-16T05:28:22Z</time>
      </trkpt>
      <trkpt lat="45.29576" lon="5.61721">
        <ele>199</ele>
        <time>2020-09-16T05:28:54Z</time>
      </trkpt>
      <trkpt lat="45.29597" lon="5.61714">
        <ele>199</ele>
        <time>2020-09-16T05:28:58Z</time>
      </trkpt>
      <trkpt lat="45.29623" lon="5.61699">
        <ele>199</ele>
        <time>2020-09-16T05:29:03Z</time>
      </trkpt>
      <trkpt lat="45.29648" lon="5.6168">
        <ele>199</ele>
        <time>2020-09-16T05:29:08Z</time>
      </trkpt>
      <trkpt lat="45.29709" lon="5.6163">
        <ele>199</ele>
        <time>2020-09-16T05:29:20Z</time>
      </trkpt>
      <trkpt lat="45.29744" lon="5.61609">
        <ele>199</ele>
        <time>2020-09-16T05:29:27Z</time>
      </trkpt>
      <trkpt lat="45.29953" lon="5.61377">
        <ele>195</ele>
        <time>2020-09-16T05:30:14Z</time>
      </trkpt>
      <trkpt lat="45.3" lon="5.61293">
        <ele>194</ele>
        <time>2020-09-16T05:30:28Z</time>
      </trkpt>
      <trkpt lat="45.30042" lon="5.612">
        <ele>195</ele>
        <time>2020-09-16T05:30:42Z</time>
      </trkpt>
      <trkpt lat="45.30126" lon="5.60999">
        <ele>192</ele>
        <time>2020-09-16T05:31:11Z</time>
      </trkpt>
      <trkpt lat="45.30246" lon="5.60683">
        <ele>195</ele>
        <time>2020-09-16T05:31:56Z</time>
      </trkpt>
      <trkpt lat="45.30263" lon="5.60621">
        <ele>193</ele>
        <time>2020-09-16T05:32:04Z</time>
      </trkpt>
      <trkpt lat="45.30273" lon="5.60566">
        <ele>192</ele>
        <time>2020-09-16T05:32:11Z</time>
      </trkpt>
      <trkpt lat="45.30282" lon="5.60483">
        <ele>190</ele>
        <time>2020-09-16T05:32:22Z</time>
      </trkpt>
      <trkpt lat="45.30297" lon="5.60402">
        <ele>190</ele>
        <time>2020-09-16T05:32:32Z</time>
      </trkpt>
      <trkpt lat="45.30311" lon="5.60249">
        <ele>191</ele>
        <time>2020-09-16T05:32:52Z</time>
      </trkpt>
      <trkpt lat="45.30318" lon="5.60086">
        <ele>193</ele>
        <time>2020-09-16T05:33:12Z</time>
      </trkpt>
      <trkpt lat="45.30316" lon="5.60047">
        <ele>192</ele>
        <time>2020-09-16T05:33:17Z</time>
      </trkpt>
      <trkpt lat="45.30316" lon="5.60018">
        <ele>192</ele>
        <time>2020-09-16T05:33:21Z</time>
      </trkpt>
      <trkpt lat="45.30317" lon="5.59986">
        <ele>191</ele>
        <time>2020-09-16T05:33:25Z</time>
      </trkpt>
      <trkpt lat="45.30319" lon="5.5996">
        <ele>191</ele>
        <time>2020-09-16T05:33:28Z</time>
      </trkpt>
      <trkpt lat="45.30322" lon="5.5992">
        <ele>191</ele>
        <time>2020-09-16T05:33:33Z</time>
      </trkpt>
      <trkpt lat="45.30327" lon="5.59908">
        <ele>191</ele>
        <time>2020-09-16T05:33:35Z</time>
      </trkpt>
      <trkpt lat="45.30329" lon="5.59832">
        <ele>191</ele>
        <time>2020-09-16T05:33:44Z</time>
      </trkpt>
      <trkpt lat="45.30329" lon="5.59774">
        <ele>191</ele>
        <time>2020-09-16T05:33:51Z</time>
      </trkpt>
      <trkpt lat="45.30324" lon="5.59714">
        <ele>191</ele>
        <time>2020-09-16T05:33:59Z</time>
      </trkpt>
      <trkpt lat="45.30313" lon="5.59592">
        <ele>191</ele>
        <time>2020-09-16T05:34:14Z</time>
      </trkpt>
      <trkpt lat="45.30314" lon="5.59353">
        <ele>191</ele>
        <time>2020-09-16T05:34:44Z</time>
      </trkpt>
      <trkpt lat="45.30297" lon="5.59227">
        <ele>191</ele>
        <time>2020-09-16T05:35:00Z</time>
      </trkpt>
      <trkpt lat="45.3026" lon="5.5906">
        <ele>190</ele>
        <time>2020-09-16T05:35:22Z</time>
      </trkpt>
      <trkpt lat="45.30199" lon="5.589">
        <ele>190</ele>
        <time>2020-09-16T05:35:45Z</time>
      </trkpt>
      <trkpt lat="45.30151" lon="5.58802">
        <ele>189</ele>
        <time>2020-09-16T05:36:00Z</time>
      </trkpt>
      <trkpt lat="45.30109" lon="5.58732">
        <ele>189</ele>
        <time>2020-09-16T05:36:11Z</time>
      </trkpt>
      <trkpt lat="45.29977" lon="5.58542">
        <ele>190</ele>
        <time>2020-09-16T05:36:45Z</time>
      </trkpt>
      <trkpt lat="45.29982" lon="5.5853">
        <ele>190</ele>
        <time>2020-09-16T05:36:47Z</time>
      </trkpt>
      <trkpt lat="45.29988" lon="5.58526">
        <ele>190</ele>
        <time>2020-09-16T05:36:48Z</time>
      </trkpt>
      <trkpt lat="45.29997" lon="5.5853">
        <ele>191</ele>
        <time>2020-09-16T05:36:49Z</time>
      </trkpt>
      <trkpt lat="45.30054" lon="5.58615">
        <ele>191</ele>
        <time>2020-09-16T05:37:04Z</time>
      </trkpt>
      <trkpt lat="45.30068" lon="5.58626">
        <ele>190</ele>
        <time>2020-09-16T05:37:07Z</time>
      </trkpt>
      <trkpt lat="45.30083" lon="5.58628">
        <ele>190</ele>
        <time>2020-09-16T05:37:10Z</time>
      </trkpt>
      <trkpt lat="45.30127" lon="5.58615">
        <ele>190</ele>
        <time>2020-09-16T05:37:18Z</time>
      </trkpt>
      <trkpt lat="45.30203" lon="5.58592">
        <ele>189</ele>
        <time>2020-09-16T05:37:32Z</time>
      </trkpt>
      <trkpt lat="45.30239" lon="5.58575">
        <ele>187</ele>
        <time>2020-09-16T05:37:38Z</time>
      </trkpt>
      <trkpt lat="45.30268" lon="5.58555">
        <ele>187</ele>
        <time>2020-09-16T05:37:44Z</time>
      </trkpt>
      <trkpt lat="45.3032" lon="5.5851">
        <ele>189</ele>
        <time>2020-09-16T05:37:55Z</time>
      </trkpt>
      <trkpt lat="45.30427" lon="5.58403">
        <ele>194</ele>
        <time>2020-09-16T05:38:18Z</time>
      </trkpt>
      <trkpt lat="45.30637" lon="5.58185">
        <ele>187</ele>
        <time>2020-09-16T05:39:04Z</time>
      </trkpt>
      <trkpt lat="45.30725" lon="5.58098">
        <ele>188</ele>
        <time>2020-09-16T05:39:23Z</time>
      </trkpt>
      <trkpt lat="45.30745" lon="5.58073">
        <ele>188</ele>
        <time>2020-09-16T05:39:28Z</time>
      </trkpt>
      <trkpt lat="45.30753" lon="5.58021">
        <ele>189</ele>
        <time>2020-09-16T05:39:35Z</time>
      </trkpt>
      <trkpt lat="45.30766" lon="5.58001">
        <ele>189</ele>
        <time>2020-09-16T05:39:38Z</time>
      </trkpt>
      <trkpt lat="45.30858" lon="5.5788">
        <ele>187</ele>
        <time>2020-09-16T05:40:01Z</time>
      </trkpt>
      <trkpt lat="45.30867" lon="5.57857">
        <ele>187</ele>
        <time>2020-09-16T05:40:04Z</time>
      </trkpt>
      <trkpt lat="45.30867" lon="5.57844">
        <ele>187</ele>
        <time>2020-09-16T05:40:05Z</time>
      </trkpt>
      <trkpt lat="45.30858" lon="5.57802">
        <ele>187</ele>
        <time>2020-09-16T05:40:11Z</time>
      </trkpt>
      <trkpt lat="45.30857" lon="5.57776">
        <ele>187</ele>
        <time>2020-09-16T05:40:14Z</time>
      </trkpt>
      <trkpt lat="45.30867" lon="5.57738">
        <ele>188</ele>
        <time>2020-09-16T05:40:19Z</time>
      </trkpt>
      <trkpt lat="45.30882" lon="5.57708">
        <ele>188</ele>
        <time>2020-09-16T05:40:24Z</time>
      </trkpt>
      <trkpt lat="45.31033" lon="5.57436">
        <ele>186</ele>
        <time>2020-09-16T05:41:07Z</time>
      </trkpt>
      <trkpt lat="45.31055" lon="5.57389">
        <ele>186</ele>
        <time>2020-09-16T05:41:14Z</time>
      </trkpt>
      <trkpt lat="45.31067" lon="5.57369">
        <ele>186</ele>
        <time>2020-09-16T05:41:18Z</time>
      </trkpt>
      <trkpt lat="45.31191" lon="5.57329">
        <ele>187</ele>
        <time>2020-09-16T05:41:40Z</time>
      </trkpt>
      <trkpt lat="45.31204" lon="5.57325">
        <ele>187</ele>
        <time>2020-09-16T05:41:43Z</time>
      </trkpt>
      <trkpt lat="45.31214" lon="5.57319">
        <ele>187</ele>
        <time>2020-09-16T05:41:45Z</time>
      </trkpt>
      <trkpt lat="45.31254" lon="5.57243">
        <ele>187</ele>
        <time>2020-09-16T05:41:56Z</time>
      </trkpt>
      <trkpt lat="45.31296" lon="5.57153">
        <ele>189</ele>
        <time>2020-09-16T05:42:10Z</time>
      </trkpt>
      <trkpt lat="45.313" lon="5.57146">
        <ele>189</ele>
        <time>2020-09-16T05:42:11Z</time>
      </trkpt>
      <trkpt lat="45.31316" lon="5.57117">
        <ele>189</ele>
        <time>2020-09-16T05:42:16Z</time>
      </trkpt>
      <trkpt lat="45.31346" lon="5.57083">
        <ele>188</ele>
        <time>2020-09-16T05:42:22Z</time>
      </trkpt>
      <trkpt lat="45.31349" lon="5.57078">
        <ele>188</ele>
        <time>2020-09-16T05:42:23Z</time>
      </trkpt>
      <trkpt lat="45.31392" lon="5.57067">
        <ele>188</ele>
        <time>2020-09-16T05:42:31Z</time>
      </trkpt>
      <trkpt lat="45.31436" lon="5.57045">
        <ele>188</ele>
        <time>2020-09-16T05:42:39Z</time>
      </trkpt>
      <trkpt lat="45.31476" lon="5.57015">
        <ele>188</ele>
        <time>2020-09-16T05:42:47Z</time>
      </trkpt>
      <trkpt lat="45.31501" lon="5.5701">
        <ele>189</ele>
        <time>2020-09-16T05:42:52Z</time>
      </trkpt>
      <trkpt lat="45.31515" lon="5.57006">
        <ele>189</ele>
        <time>2020-09-16T05:42:54Z</time>
      </trkpt>
      <trkpt lat="45.3156" lon="5.57013">
        <ele>188</ele>
        <time>2020-09-16T05:43:03Z</time>
      </trkpt>
      <trkpt lat="45.31591" lon="5.57016">
        <ele>188</ele>
        <time>2020-09-16T05:43:08Z</time>
      </trkpt>
      <trkpt lat="45.31611" lon="5.57023">
        <ele>188</ele>
        <time>2020-09-16T05:43:12Z</time>
      </trkpt>
      <trkpt lat="45.31619" lon="5.57031">
        <ele>188</ele>
        <time>2020-09-16T05:43:13Z</time>
      </trkpt>
      <trkpt lat="45.31637" lon="5.57054">
        <ele>188</ele>
        <time>2020-09-16T05:43:18Z</time>
      </trkpt>
      <trkpt lat="45.31659" lon="5.5708">
        <ele>188</ele>
        <time>2020-09-16T05:43:23Z</time>
      </trkpt>
      <trkpt lat="45.31658" lon="5.57083">
        <ele>188</ele>
        <time>2020-09-16T05:43:23Z</time>
      </trkpt>
      <trkpt lat="45.3166" lon="5.5709">
        <ele>188</ele>
        <time>2020-09-16T05:43:24Z</time>
      </trkpt>
      <trkpt lat="45.31662" lon="5.57092">
        <ele>188</ele>
        <time>2020-09-16T05:43:25Z</time>
      </trkpt>
      <trkpt lat="45.31664" lon="5.57093">
        <ele>188</ele>
        <time>2020-09-16T05:43:25Z</time>
      </trkpt>
      <trkpt lat="45.3167" lon="5.5709">
        <ele>188</ele>
        <time>2020-09-16T05:43:26Z</time>
      </trkpt>
      <trkpt lat="45.31671" lon="5.57087">
        <ele>188</ele>
        <time>2020-09-16T05:43:27Z</time>
      </trkpt>
      <trkpt lat="45.317" lon="5.57083">
        <ele>188</ele>
        <time>2020-09-16T05:43:32Z</time>
      </trkpt>
      <trkpt lat="45.31729" lon="5.57071">
        <ele>188</ele>
        <time>2020-09-16T05:43:37Z</time>
      </trkpt>
      <trkpt lat="45.31759" lon="5.57046">
        <ele>189</ele>
        <time>2020-09-16T05:43:43Z</time>
      </trkpt>
      <trkpt lat="45.31801" lon="5.57002">
        <ele>190</ele>
        <time>2020-09-16T05:43:53Z</time>
      </trkpt>
      <trkpt lat="45.31886" lon="5.56971">
        <ele>190</ele>
        <time>2020-09-16T05:44:08Z</time>
      </trkpt>
      <trkpt lat="45.32052" lon="5.56906">
        <ele>192</ele>
        <time>2020-09-16T05:44:39Z</time>
      </trkpt>
      <trkpt lat="45.32078" lon="5.56895">
        <ele>191</ele>
        <time>2020-09-16T05:44:44Z</time>
      </trkpt>
      <trkpt lat="45.32119" lon="5.56873">
        <ele>192</ele>
        <time>2020-09-16T05:44:51Z</time>
      </trkpt>
      <trkpt lat="45.32237" lon="5.56763">
        <ele>194</ele>
        <time>2020-09-16T05:45:17Z</time>
      </trkpt>
      <trkpt lat="45.3228" lon="5.56704">
        <ele>195</ele>
        <time>2020-09-16T05:45:27Z</time>
      </trkpt>
      <trkpt lat="45.32307" lon="5.56637">
        <ele>195</ele>
        <time>2020-09-16T05:45:37Z</time>
      </trkpt>
      <trkpt lat="45.3232" lon="5.56615">
        <ele>196</ele>
        <time>2020-09-16T05:45:40Z</time>
      </trkpt>
      <trkpt lat="45.32379" lon="5.56542">
        <ele>197</ele>
        <time>2020-09-16T05:45:54Z</time>
      </trkpt>
      <trkpt lat="45.32397" lon="5.56529">
        <ele>198</ele>
        <time>2020-09-16T05:45:58Z</time>
      </trkpt>
      <trkpt lat="45.32417" lon="5.56522">
        <ele>198</ele>
        <time>2020-09-16T05:46:02Z</time>
      </trkpt>
      <trkpt lat="45.32473" lon="5.56492">
        <ele>200</ele>
        <time>2020-09-16T05:46:12Z</time>
      </trkpt>
      <trkpt lat="45.32527" lon="5.56467">
        <ele>201</ele>
        <time>2020-09-16T05:46:22Z</time>
      </trkpt>
      <trkpt lat="45.32528" lon="5.56475">
        <ele>201</ele>
        <time>2020-09-16T05:46:23Z</time>
      </trkpt>
      <trkpt lat="45.32546" lon="5.56468">
        <ele>202</ele>
        <time>2020-09-16T05:46:27Z</time>
      </trkpt>
      <trkpt lat="45.32579" lon="5.56438">
        <ele>203</ele>
        <time>2020-09-16T05:46:34Z</time>
      </trkpt>
      <trkpt lat="45.32594" lon="5.56434">
        <ele>203</ele>
        <time>2020-09-16T05:46:36Z</time>
      </trkpt>
      <trkpt lat="45.32608" lon="5.56434">
        <ele>204</ele>
        <time>2020-09-16T05:46:39Z</time>
      </trkpt>
      <trkpt lat="45.32617" lon="5.56429">
        <ele>204</ele>
        <time>2020-09-16T05:46:41Z</time>
      </trkpt>
      <trkpt lat="45.32623" lon="5.56419">
        <ele>205</ele>
        <time>2020-09-16T05:46:42Z</time>
      </trkpt>
      <trkpt lat="45.32634" lon="5.56418">
        <ele>205</ele>
        <time>2020-09-16T05:46:44Z</time>
      </trkpt>
      <trkpt lat="45.32641" lon="5.56422">
        <ele>206</ele>
        <time>2020-09-16T05:46:46Z</time>
      </trkpt>
      <trkpt lat="45.32646" lon="5.56434">
        <ele>206</ele>
        <time>2020-09-16T05:46:47Z</time>
      </trkpt>
      <trkpt lat="45.32652" lon="5.56444">
        <ele>206</ele>
        <time>2020-09-16T05:46:49Z</time>
      </trkpt>
      <trkpt lat="45.32655" lon="5.56447">
        <ele>206</ele>
        <time>2020-09-16T05:46:50Z</time>
      </trkpt>
      <trkpt lat="45.32668" lon="5.56452">
        <ele>207</ele>
        <time>2020-09-16T05:46:52Z</time>
      </trkpt>
      <trkpt lat="45.32681" lon="5.5645">
        <ele>206</ele>
        <time>2020-09-16T05:46:54Z</time>
      </trkpt>
      <trkpt lat="45.3268" lon="5.56437">
        <ele>206</ele>
        <time>2020-09-16T05:46:56Z</time>
      </trkpt>
      <trkpt lat="45.32679" lon="5.56433">
        <ele>207</ele>
        <time>2020-09-16T05:46:56Z</time>
      </trkpt>
      <trkpt lat="45.32676" lon="5.56409">
        <ele>207</ele>
        <time>2020-09-16T05:47:00Z</time>
      </trkpt>
      <trkpt lat="45.32676" lon="5.56406">
        <ele>206</ele>
        <time>2020-09-16T05:47:00Z</time>
      </trkpt>
      <trkpt lat="45.32671" lon="5.56377">
        <ele>206</ele>
        <time>2020-09-16T05:47:04Z</time>
      </trkpt>
      <trkpt lat="45.3267" lon="5.56368">
        <ele>205</ele>
        <time>2020-09-16T05:47:05Z</time>
      </trkpt>
      <trkpt lat="45.32668" lon="5.5635">
        <ele>205</ele>
        <time>2020-09-16T05:47:07Z</time>
      </trkpt>
      <trkpt lat="45.32668" lon="5.56347">
        <ele>204</ele>
        <time>2020-09-16T05:47:07Z</time>
      </trkpt>
      <trkpt lat="45.32667" lon="5.56338">
        <ele>204</ele>
        <time>2020-09-16T05:47:09Z</time>
      </trkpt>
      <trkpt lat="45.32667" lon="5.56326">
        <ele>204</ele>
        <time>2020-09-16T05:47:10Z</time>
      </trkpt>
      <trkpt lat="45.32668" lon="5.56319">
        <ele>204</ele>
        <time>2020-09-16T05:47:11Z</time>
      </trkpt>
      <trkpt lat="45.32668" lon="5.56313">
        <ele>204</ele>
        <time>2020-09-16T05:47:12Z</time>
      </trkpt>
      <trkpt lat="45.32669" lon="5.56308">
        <ele>203</ele>
        <time>2020-09-16T05:47:12Z</time>
      </trkpt>
      <trkpt lat="45.32674" lon="5.56292">
        <ele>203</ele>
        <time>2020-09-16T05:47:15Z</time>
      </trkpt>
      <trkpt lat="45.32684" lon="5.56279">
        <ele>203</ele>
        <time>2020-09-16T05:47:17Z</time>
      </trkpt>
      <trkpt lat="45.32694" lon="5.56268">
        <ele>203</ele>
        <time>2020-09-16T05:47:19Z</time>
      </trkpt>
      <trkpt lat="45.327" lon="5.56262">
        <ele>203</ele>
        <time>2020-09-16T05:47:21Z</time>
      </trkpt>
      <trkpt lat="45.32703" lon="5.56258">
        <ele>203</ele>
        <time>2020-09-16T05:47:21Z</time>
      </trkpt>
      <trkpt lat="45.32711" lon="5.56246">
        <ele>202</ele>
        <time>2020-09-16T05:47:23Z</time>
      </trkpt>
      <trkpt lat="45.32718" lon="5.56235">
        <ele>202</ele>
        <time>2020-09-16T05:47:25Z</time>
      </trkpt>
      <trkpt lat="45.32761" lon="5.56171">
        <ele>203</ele>
        <time>2020-09-16T05:47:36Z</time>
      </trkpt>
      <trkpt lat="45.32759" lon="5.56155">
        <ele>203</ele>
        <time>2020-09-16T05:47:38Z</time>
      </trkpt>
      <trkpt lat="45.32753" lon="5.56143">
        <ele>203</ele>
        <time>2020-09-16T05:47:40Z</time>
      </trkpt>
      <trkpt lat="45.32723" lon="5.56111">
        <ele>203</ele>
        <time>2020-09-16T05:47:47Z</time>
      </trkpt>
      <trkpt lat="45.32711" lon="5.56107">
        <ele>202</ele>
        <time>2020-09-16T05:47:49Z</time>
      </trkpt>
      <trkpt lat="45.327" lon="5.56109">
        <ele>202</ele>
        <time>2020-09-16T05:47:51Z</time>
      </trkpt>
      <trkpt lat="45.32677" lon="5.56114">
        <ele>201</ele>
        <time>2020-09-16T05:47:55Z</time>
      </trkpt>
      <trkpt lat="45.32638" lon="5.56124">
        <ele>201</ele>
        <time>2020-09-16T05:48:02Z</time>
      </trkpt>
      <trkpt lat="45.3262" lon="5.56119">
        <ele>201</ele>
        <time>2020-09-16T05:48:05Z</time>
      </trkpt>
      <trkpt lat="45.32611" lon="5.5611">
        <ele>201</ele>
        <time>2020-09-16T05:48:07Z</time>
      </trkpt>
      <trkpt lat="45.32577" lon="5.56077">
        <ele>201</ele>
        <time>2020-09-16T05:48:15Z</time>
      </trkpt>
      <trkpt lat="45.32571" lon="5.56064">
        <ele>201</ele>
        <time>2020-09-16T05:48:17Z</time>
      </trkpt>
      <trkpt lat="45.32569" lon="5.56052">
        <ele>201</ele>
        <time>2020-09-16T05:48:18Z</time>
      </trkpt>
      <trkpt lat="45.32572" lon="5.56018">
        <ele>201</ele>
        <time>2020-09-16T05:48:22Z</time>
      </trkpt>
      <trkpt lat="45.3268" lon="5.55647">
        <ele>202</ele>
        <time>2020-09-16T05:49:13Z</time>
      </trkpt>
      <trkpt lat="45.327" lon="5.55574">
        <ele>205</ele>
        <time>2020-09-16T05:49:23Z</time>
      </trkpt>
      <trkpt lat="45.32722" lon="5.55502">
        <ele>210</ele>
        <time>2020-09-16T05:49:32Z</time>
      </trkpt>
      <trkpt lat="45.32727" lon="5.55461">
        <ele>211</ele>
        <time>2020-09-16T05:49:38Z</time>
      </trkpt>
      <trkpt lat="45.32734" lon="5.55416">
        <ele>213</ele>
        <time>2020-09-16T05:49:43Z</time>
      </trkpt>
      <trkpt lat="45.32744" lon="5.55378">
        <ele>216</ele>
        <time>2020-09-16T05:49:48Z</time>
      </trkpt>
      <trkpt lat="45.32766" lon="5.55324">
        <ele>220</ele>
        <time>2020-09-16T05:49:56Z</time>
      </trkpt>
      <trkpt lat="45.32792" lon="5.55275">
        <ele>225</ele>
        <time>2020-09-16T05:50:04Z</time>
      </trkpt>
      <trkpt lat="45.32915" lon="5.5507">
        <ele>236</ele>
        <time>2020-09-16T05:50:38Z</time>
      </trkpt>
      <trkpt lat="45.32937" lon="5.55006">
        <ele>238</ele>
        <time>2020-09-16T05:50:47Z</time>
      </trkpt>
      <trkpt lat="45.32985" lon="5.54847">
        <ele>252</ele>
        <time>2020-09-16T05:51:08Z</time>
      </trkpt>
      <trkpt lat="45.32997" lon="5.54816">
        <ele>254</ele>
        <time>2020-09-16T05:51:13Z</time>
      </trkpt>
      <trkpt lat="45.33012" lon="5.54785">
        <ele>256</ele>
        <time>2020-09-16T05:51:17Z</time>
      </trkpt>
      <trkpt lat="45.33055" lon="5.54734">
        <ele>259</ele>
        <time>2020-09-16T05:51:27Z</time>
      </trkpt>
      <trkpt lat="45.33087" lon="5.54693">
        <ele>259</ele>
        <time>2020-09-16T05:51:35Z</time>
      </trkpt>
      <trkpt lat="45.33149" lon="5.54598">
        <ele>258</ele>
        <time>2020-09-16T05:51:51Z</time>
      </trkpt>
      <trkpt lat="45.33229" lon="5.54465">
        <ele>259</ele>
        <time>2020-09-16T05:52:13Z</time>
      </trkpt>
      <trkpt lat="45.33306" lon="5.54344">
        <ele>262</ele>
        <time>2020-09-16T05:52:33Z</time>
      </trkpt>
      <trkpt lat="45.33313" lon="5.54329">
        <ele>263</ele>
        <time>2020-09-16T05:52:36Z</time>
      </trkpt>
      <trkpt lat="45.33318" lon="5.54309">
        <ele>264</ele>
        <time>2020-09-16T05:52:38Z</time>
      </trkpt>
      <trkpt lat="45.33319" lon="5.54291">
        <ele>264</ele>
        <time>2020-09-16T05:52:41Z</time>
      </trkpt>
      <trkpt lat="45.33273" lon="5.53972">
        <ele>285</ele>
        <time>2020-09-16T05:53:21Z</time>
      </trkpt>
      <trkpt lat="45.33273" lon="5.53958">
        <ele>286</ele>
        <time>2020-09-16T05:53:23Z</time>
      </trkpt>
      <trkpt lat="45.33276" lon="5.53947">
        <ele>288</ele>
        <time>2020-09-16T05:53:25Z</time>
      </trkpt>
      <trkpt lat="45.3328" lon="5.53935">
        <ele>289</ele>
        <time>2020-09-16T05:53:26Z</time>
      </trkpt>
      <trkpt lat="45.33288" lon="5.53927">
        <ele>291</ele>
        <time>2020-09-16T05:53:28Z</time>
      </trkpt>
      <trkpt lat="45.33312" lon="5.53911">
        <ele>296</ele>
        <time>2020-09-16T05:53:33Z</time>
      </trkpt>
      <trkpt lat="45.3336" lon="5.53899">
        <ele>301</ele>
        <time>2020-09-16T05:53:41Z</time>
      </trkpt>
      <trkpt lat="45.3342" lon="5.53879">
        <ele>305</ele>
        <time>2020-09-16T05:53:52Z</time>
      </trkpt>
      <trkpt lat="45.3343" lon="5.53901">
        <ele>306</ele>
        <time>2020-09-16T05:53:56Z</time>
      </trkpt>
      <trkpt lat="45.33477" lon="5.5398">
        <ele>306</ele>
        <time>2020-09-16T05:54:09Z</time>
      </trkpt>
      <trkpt lat="45.33548" lon="5.54082">
        <ele>310</ele>
        <time>2020-09-16T05:54:26Z</time>
      </trkpt>
      <trkpt lat="45.33566" lon="5.54114">
        <ele>310</ele>
        <time>2020-09-16T05:54:32Z</time>
      </trkpt>
      <trkpt lat="45.3362" lon="5.5418">
        <ele>314</ele>
        <time>2020-09-16T05:54:44Z</time>
      </trkpt>
      <trkpt lat="45.33636" lon="5.54197">
        <ele>315</ele>
        <time>2020-09-16T05:54:48Z</time>
      </trkpt>
      <trkpt lat="45.33688" lon="5.54243">
        <ele>317</ele>
        <time>2020-09-16T05:54:59Z</time>
      </trkpt>
      <trkpt lat="45.33728" lon="5.54323">
        <ele>313</ele>
        <time>2020-09-16T05:55:11Z</time>
      </trkpt>
      <trkpt lat="45.33737" lon="5.54327">
        <ele>313</ele>
        <time>2020-09-16T05:55:13Z</time>
      </trkpt>
      <trkpt lat="45.33749" lon="5.54313">
        <ele>314</ele>
        <time>2020-09-16T05:55:15Z</time>
      </trkpt>
      <trkpt lat="45.33777" lon="5.54266">
        <ele>318</ele>
        <time>2020-09-16T05:55:23Z</time>
      </trkpt>
      <trkpt lat="45.3378" lon="5.54265">
        <ele>318</ele>
        <time>2020-09-16T05:55:24Z</time>
      </trkpt>
      <trkpt lat="45.33785" lon="5.54269">
        <ele>317</ele>
        <time>2020-09-16T05:55:25Z</time>
      </trkpt>
      <trkpt lat="45.33788" lon="5.54272">
        <ele>317</ele>
        <time>2020-09-16T05:55:25Z</time>
      </trkpt>
      <trkpt lat="45.33818" lon="5.5431">
        <ele>315</ele>
        <time>2020-09-16T05:55:33Z</time>
      </trkpt>
      <trkpt lat="45.3382" lon="5.54316">
        <ele>315</ele>
        <time>2020-09-16T05:55:33Z</time>
      </trkpt>
      <trkpt lat="45.33878" lon="5.54203">
        <ele>317</ele>
        <time>2020-09-16T05:55:51Z</time>
      </trkpt>
      <trkpt lat="45.33895" lon="5.54159">
        <ele>315</ele>
        <time>2020-09-16T05:55:57Z</time>
      </trkpt>
      <trkpt lat="45.33961" lon="5.54063">
        <ele>313</ele>
        <time>2020-09-16T05:56:14Z</time>
      </trkpt>
      <trkpt lat="45.34" lon="5.53998">
        <ele>324</ele>
        <time>2020-09-16T05:56:25Z</time>
      </trkpt>
      <trkpt lat="45.34049" lon="5.53888">
        <ele>331</ele>
        <time>2020-09-16T05:56:41Z</time>
      </trkpt>
      <trkpt lat="45.34088" lon="5.53764">
        <ele>339</ele>
        <time>2020-09-16T05:56:58Z</time>
      </trkpt>
      <trkpt lat="45.34107" lon="5.53612">
        <ele>348</ele>
        <time>2020-09-16T05:57:17Z</time>
      </trkpt>
      <trkpt lat="45.34133" lon="5.53244">
        <ele>363</ele>
        <time>2020-09-16T05:58:03Z</time>
      </trkpt>
      <trkpt lat="45.34138" lon="5.53131">
        <ele>365</ele>
        <time>2020-09-16T05:58:18Z</time>
      </trkpt>
      <trkpt lat="45.34154" lon="5.53064">
        <ele>369</ele>
        <time>2020-09-16T05:58:26Z</time>
      </trkpt>
      <trkpt lat="45.34169" lon="5.53031">
        <ele>370</ele>
        <time>2020-09-16T05:58:31Z</time>
      </trkpt>
      <trkpt lat="45.34225" lon="5.52952">
        <ele>372</ele>
        <time>2020-09-16T05:58:45Z</time>
      </trkpt>
      <trkpt lat="45.34245" lon="5.5292">
        <ele>373</ele>
        <time>2020-09-16T05:58:51Z</time>
      </trkpt>
      <trkpt lat="45.34299" lon="5.52865">
        <ele>377</ele>
        <time>2020-09-16T05:59:03Z</time>
      </trkpt>
      <trkpt lat="45.34323" lon="5.52835">
        <ele>379</ele>
        <time>2020-09-16T05:59:08Z</time>
      </trkpt>
      <trkpt lat="45.34335" lon="5.52814">
        <ele>380</ele>
        <time>2020-09-16T05:59:12Z</time>
      </trkpt>
      <trkpt lat="45.34339" lon="5.52788">
        <ele>381</ele>
        <time>2020-09-16T05:59:15Z</time>
      </trkpt>
      <trkpt lat="45.34349" lon="5.52698">
        <ele>382</ele>
        <time>2020-09-16T05:59:26Z</time>
      </trkpt>
      <trkpt lat="45.34374" lon="5.52493">
        <ele>387</ele>
        <time>2020-09-16T05:59:52Z</time>
      </trkpt>
      <trkpt lat="45.34397" lon="5.52349">
        <ele>391</ele>
        <time>2020-09-16T06:00:11Z</time>
      </trkpt>
      <trkpt lat="45.3442" lon="5.5228">
        <ele>390</ele>
        <time>2020-09-16T06:00:20Z</time>
      </trkpt>
      <trkpt lat="45.34502" lon="5.52064">
        <ele>385</ele>
        <time>2020-09-16T06:00:51Z</time>
      </trkpt>
      <trkpt lat="45.34519" lon="5.52012">
        <ele>384</ele>
        <time>2020-09-16T06:00:58Z</time>
      </trkpt>
      <trkpt lat="45.34536" lon="5.51967">
        <ele>383</ele>
        <time>2020-09-16T06:01:05Z</time>
      </trkpt>
      <trkpt lat="45.3456" lon="5.51924">
        <ele>383</ele>
        <time>2020-09-16T06:01:12Z</time>
      </trkpt>
      <trkpt lat="45.3457" lon="5.51901">
        <ele>382</ele>
        <time>2020-09-16T06:01:15Z</time>
      </trkpt>
      <trkpt lat="45.34569" lon="5.51891">
        <ele>382</ele>
        <time>2020-09-16T06:01:16Z</time>
      </trkpt>
      <trkpt lat="45.34575" lon="5.51888">
        <ele>382</ele>
        <time>2020-09-16T06:01:17Z</time>
      </trkpt>
      <trkpt lat="45.34581" lon="5.51881">
        <ele>382</ele>
        <time>2020-09-16T06:01:19Z</time>
      </trkpt>
      <trkpt lat="45.34592" lon="5.51854">
        <ele>382</ele>
        <time>2020-09-16T06:01:23Z</time>
      </trkpt>
      <trkpt lat="45.34626" lon="5.51791">
        <ele>380</ele>
        <time>2020-09-16T06:01:33Z</time>
      </trkpt>
      <trkpt lat="45.34647" lon="5.51755">
        <ele>378</ele>
        <time>2020-09-16T06:01:38Z</time>
      </trkpt>
      <trkpt lat="45.34709" lon="5.51705">
        <ele>373</ele>
        <time>2020-09-16T06:01:51Z</time>
      </trkpt>
      <trkpt lat="45.3476" lon="5.51668">
        <ele>369</ele>
        <time>2020-09-16T06:02:01Z</time>
      </trkpt>
      <trkpt lat="45.3487" lon="5.51583">
        <ele>371</ele>
        <time>2020-09-16T06:02:24Z</time>
      </trkpt>
      <trkpt lat="45.34883" lon="5.51567">
        <ele>371</ele>
        <time>2020-09-16T06:02:27Z</time>
      </trkpt>
      <trkpt lat="45.34896" lon="5.5156">
        <ele>371</ele>
        <time>2020-09-16T06:02:29Z</time>
      </trkpt>
      <trkpt lat="45.35128" lon="5.51351">
        <ele>352</ele>
        <time>2020-09-16T06:03:18Z</time>
      </trkpt>
      <trkpt lat="45.35133" lon="5.51317">
        <ele>348</ele>
        <time>2020-09-16T06:03:22Z</time>
      </trkpt>
      <trkpt lat="45.35119" lon="5.51299">
        <ele>347</ele>
        <time>2020-09-16T06:03:26Z</time>
      </trkpt>
      <trkpt lat="45.35104" lon="5.51271">
        <ele>346</ele>
        <time>2020-09-16T06:03:30Z</time>
      </trkpt>
      <trkpt lat="45.35072" lon="5.51228">
        <ele>346</ele>
        <time>2020-09-16T06:03:38Z</time>
      </trkpt>
      <trkpt lat="45.35035" lon="5.51204">
        <ele>349</ele>
        <time>2020-09-16T06:03:45Z</time>
      </trkpt>
      <trkpt lat="45.3502" lon="5.51188">
        <ele>350</ele>
        <time>2020-09-16T06:03:48Z</time>
      </trkpt>
      <trkpt lat="45.35014" lon="5.51182">
        <ele>350</ele>
        <time>2020-09-16T06:03:50Z</time>
      </trkpt>
      <trkpt lat="45.34989" lon="5.51139">
        <ele>345</ele>
        <time>2020-09-16T06:03:57Z</time>
      </trkpt>
      <trkpt lat="45.34957" lon="5.51105">
        <ele>343</ele>
        <time>2020-09-16T06:04:04Z</time>
      </trkpt>
      <trkpt lat="45.34941" lon="5.51082">
        <ele>341</ele>
        <time>2020-09-16T06:04:08Z</time>
      </trkpt>
      <trkpt lat="45.3493" lon="5.51044">
        <ele>337</ele>
        <time>2020-09-16T06:04:13Z</time>
      </trkpt>
      <trkpt lat="45.34927" lon="5.5103">
        <ele>335</ele>
        <time>2020-09-16T06:04:15Z</time>
      </trkpt>
      <trkpt lat="45.34925" lon="5.51021">
        <ele>334</ele>
        <time>2020-09-16T06:04:16Z</time>
      </trkpt>
      <trkpt lat="45.34925" lon="5.51013">
        <ele>332</ele>
        <time>2020-09-16T06:04:17Z</time>
      </trkpt>
      <trkpt lat="45.34926" lon="5.51001">
        <ele>330</ele>
        <time>2020-09-16T06:04:19Z</time>
      </trkpt>
      <trkpt lat="45.34928" lon="5.50987">
        <ele>330</ele>
        <time>2020-09-16T06:04:20Z</time>
      </trkpt>
      <trkpt lat="45.34928" lon="5.5098">
        <ele>330</ele>
        <time>2020-09-16T06:04:21Z</time>
      </trkpt>
      <trkpt lat="45.34929" lon="5.50969">
        <ele>330</ele>
        <time>2020-09-16T06:04:23Z</time>
      </trkpt>
      <trkpt lat="45.34935" lon="5.50927">
        <ele>330</ele>
        <time>2020-09-16T06:04:28Z</time>
      </trkpt>
      <trkpt lat="45.34931" lon="5.50909">
        <ele>330</ele>
        <time>2020-09-16T06:04:30Z</time>
      </trkpt>
      <trkpt lat="45.34927" lon="5.50889">
        <ele>330</ele>
        <time>2020-09-16T06:04:33Z</time>
      </trkpt>
      <trkpt lat="45.34922" lon="5.50857">
        <ele>330</ele>
        <time>2020-09-16T06:04:37Z</time>
      </trkpt>
      <trkpt lat="45.34929" lon="5.50812">
        <ele>334</ele>
        <time>2020-09-16T06:04:43Z</time>
      </trkpt>
      <trkpt lat="45.34939" lon="5.50767">
        <ele>339</ele>
        <time>2020-09-16T06:04:49Z</time>
      </trkpt>
      <trkpt lat="45.34937" lon="5.50738">
        <ele>341</ele>
        <time>2020-09-16T06:04:52Z</time>
      </trkpt>
      <trkpt lat="45.34933" lon="5.507">
        <ele>345</ele>
        <time>2020-09-16T06:04:57Z</time>
      </trkpt>
      <trkpt lat="45.34933" lon="5.50673">
        <ele>348</ele>
        <time>2020-09-16T06:05:00Z</time>
      </trkpt>
      <trkpt lat="45.34938" lon="5.50512">
        <ele>355</ele>
        <time>2020-09-16T06:05:21Z</time>
      </trkpt>
      <trkpt lat="45.34938" lon="5.505">
        <ele>355</ele>
        <time>2020-09-16T06:05:22Z</time>
      </trkpt>
      <trkpt lat="45.34936" lon="5.50481">
        <ele>355</ele>
        <time>2020-09-16T06:05:25Z</time>
      </trkpt>
      <trkpt lat="45.34931" lon="5.50433">
        <ele>356</ele>
        <time>2020-09-16T06:05:31Z</time>
      </trkpt>
      <trkpt lat="45.34931" lon="5.50423">
        <ele>356</ele>
        <time>2020-09-16T06:05:32Z</time>
      </trkpt>
      <trkpt lat="45.34928" lon="5.50402">
        <ele>356</ele>
        <time>2020-09-16T06:05:35Z</time>
      </trkpt>
      <trkpt lat="45.34926" lon="5.50388">
        <ele>356</ele>
        <time>2020-09-16T06:05:36Z</time>
      </trkpt>
      <trkpt lat="45.34923" lon="5.50365">
        <ele>356</ele>
        <time>2020-09-16T06:05:39Z</time>
      </trkpt>
      <trkpt lat="45.34923" lon="5.50362">
        <ele>356</ele>
        <time>2020-09-16T06:05:40Z</time>
      </trkpt>
      <trkpt lat="45.3492" lon="5.50321">
        <ele>357</ele>
        <time>2020-09-16T06:05:45Z</time>
      </trkpt>
      <trkpt lat="45.34917" lon="5.5028">
        <ele>358</ele>
        <time>2020-09-16T06:05:50Z</time>
      </trkpt>
      <trkpt lat="45.34916" lon="5.5026">
        <ele>359</ele>
        <time>2020-09-16T06:05:52Z</time>
      </trkpt>
      <trkpt lat="45.34921" lon="5.50259">
        <ele>359</ele>
        <time>2020-09-16T06:05:53Z</time>
      </trkpt>
      <trkpt lat="45.34971" lon="5.50266">
        <ele>359</ele>
        <time>2020-09-16T06:06:02Z</time>
      </trkpt>
      <trkpt lat="45.34976" lon="5.50268">
        <ele>359</ele>
        <time>2020-09-16T06:06:03Z</time>
      </trkpt>
      <trkpt lat="45.34981" lon="5.50269">
        <ele>359</ele>
        <time>2020-09-16T06:06:04Z</time>
      </trkpt>
      <trkpt lat="45.35011" lon="5.5026">
        <ele>360</ele>
        <time>2020-09-16T06:06:10Z</time>
      </trkpt>
      <trkpt lat="45.35014" lon="5.50258">
        <ele>360</ele>
        <time>2020-09-16T06:06:10Z</time>
      </trkpt>
      <trkpt lat="45.3502" lon="5.50254">
        <ele>360</ele>
        <time>2020-09-16T06:06:11Z</time>
      </trkpt>
      <trkpt lat="45.3513" lon="5.50214">
        <ele>367</ele>
        <time>2020-09-16T06:06:32Z</time>
      </trkpt>
      <trkpt lat="45.35144" lon="5.50207">
        <ele>368</ele>
        <time>2020-09-16T06:06:34Z</time>
      </trkpt>
      <trkpt lat="45.35154" lon="5.50192">
        <ele>369</ele>
        <time>2020-09-16T06:06:37Z</time>
      </trkpt>
      <trkpt lat="45.35163" lon="5.50181">
        <ele>370</ele>
        <time>2020-09-16T06:06:39Z</time>
      </trkpt>
      <trkpt lat="45.35172" lon="5.50162">
        <ele>371</ele>
        <time>2020-09-16T06:06:42Z</time>
      </trkpt>
      <trkpt lat="45.35176" lon="5.50147">
        <ele>373</ele>
        <time>2020-09-16T06:06:44Z</time>
      </trkpt>
      <trkpt lat="45.35179" lon="5.50116">
        <ele>376</ele>
        <time>2020-09-16T06:06:48Z</time>
      </trkpt>
      <trkpt lat="45.35179" lon="5.50082">
        <ele>379</ele>
        <time>2020-09-16T06:06:52Z</time>
      </trkpt>
      <trkpt lat="45.35174" lon="5.50053">
        <ele>380</ele>
        <time>2020-09-16T06:06:56Z</time>
      </trkpt>
      <trkpt lat="45.35164" lon="5.50022">
        <ele>380</ele>
        <time>2020-09-16T06:07:00Z</time>
      </trkpt>
      <trkpt lat="45.35138" lon="5.49979">
        <ele>379</ele>
        <time>2020-09-16T06:07:07Z</time>
      </trkpt>
      <trkpt lat="45.35121" lon="5.49961">
        <ele>379</ele>
        <time>2020-09-16T06:07:11Z</time>
      </trkpt>
      <trkpt lat="45.35086" lon="5.49917">
        <ele>379</ele>
        <time>2020-09-16T06:07:19Z</time>
      </trkpt>
      <trkpt lat="45.35066" lon="5.49887">
        <ele>379</ele>
        <time>2020-09-16T06:07:24Z</time>
      </trkpt>
      <trkpt lat="45.35062" lon="5.4988">
        <ele>379</ele>
        <time>2020-09-16T06:07:25Z</time>
      </trkpt>
      <trkpt lat="45.35051" lon="5.49839">
        <ele>381</ele>
        <time>2020-09-16T06:07:31Z</time>
      </trkpt>
      <trkpt lat="45.35049" lon="5.4983">
        <ele>381</ele>
        <time>2020-09-16T06:07:32Z</time>
      </trkpt>
      <trkpt lat="45.35062" lon="5.49781">
        <ele>386</ele>
        <time>2020-09-16T06:07:39Z</time>
      </trkpt>
      <trkpt lat="45.35071" lon="5.49758">
        <ele>388</ele>
        <time>2020-09-16T06:07:42Z</time>
      </trkpt>
      <trkpt lat="45.35109" lon="5.49688">
        <ele>393</ele>
        <time>2020-09-16T06:07:53Z</time>
      </trkpt>
      <trkpt lat="45.35125" lon="5.49669">
        <ele>394</ele>
        <time>2020-09-16T06:07:57Z</time>
      </trkpt>
      <trkpt lat="45.35142" lon="5.49648">
        <ele>396</ele>
        <time>2020-09-16T06:08:01Z</time>
      </trkpt>
      <trkpt lat="45.35169" lon="5.4961">
        <ele>398</ele>
        <time>2020-09-16T06:08:07Z</time>
      </trkpt>
      <trkpt lat="45.35211" lon="5.49559">
        <ele>402</ele>
        <time>2020-09-16T06:08:17Z</time>
      </trkpt>
      <trkpt lat="45.35223" lon="5.49543">
        <ele>403</ele>
        <time>2020-09-16T06:08:20Z</time>
      </trkpt>
      <trkpt lat="45.35236" lon="5.49527">
        <ele>404</ele>
        <time>2020-09-16T06:08:23Z</time>
      </trkpt>
      <trkpt lat="45.35249" lon="5.49509">
        <ele>404</ele>
        <time>2020-09-16T06:08:26Z</time>
      </trkpt>
      <trkpt lat="45.35309" lon="5.49431">
        <ele>406</ele>
        <time>2020-09-16T06:08:41Z</time>
      </trkpt>
      <trkpt lat="45.35329" lon="5.49404">
        <ele>406</ele>
        <time>2020-09-16T06:08:46Z</time>
      </trkpt>
      <trkpt lat="45.35356" lon="5.4937">
        <ele>407</ele>
        <time>2020-09-16T06:08:52Z</time>
      </trkpt>
      <trkpt lat="45.3538" lon="5.49338">
        <ele>408</ele>
        <time>2020-09-16T06:08:58Z</time>
      </trkpt>
      <trkpt lat="45.35415" lon="5.49293">
        <ele>408</ele>
        <time>2020-09-16T06:09:06Z</time>
      </trkpt>
      <trkpt lat="45.35422" lon="5.49283">
        <ele>408</ele>
        <time>2020-09-16T06:09:08Z</time>
      </trkpt>
      <trkpt lat="45.35459" lon="5.49234">
        <ele>409</ele>
        <time>2020-09-16T06:09:17Z</time>
      </trkpt>
      <trkpt lat="45.35472" lon="5.49213">
        <ele>409</ele>
        <time>2020-09-16T06:09:21Z</time>
      </trkpt>
      <trkpt lat="45.35473" lon="5.49206">
        <ele>409</ele>
        <time>2020-09-16T06:09:22Z</time>
      </trkpt>
      <trkpt lat="45.35475" lon="5.49207">
        <ele>409</ele>
        <time>2020-09-16T06:09:22Z</time>
      </trkpt>
      <trkpt lat="45.35479" lon="5.49205">
        <ele>409</ele>
        <time>2020-09-16T06:09:23Z</time>
      </trkpt>
      <trkpt lat="45.35481" lon="5.49199">
        <ele>409</ele>
        <time>2020-09-16T06:09:24Z</time>
      </trkpt>
      <trkpt lat="45.35481" lon="5.49195">
        <ele>409</ele>
        <time>2020-09-16T06:09:24Z</time>
      </trkpt>
      <trkpt lat="45.35493" lon="5.49194">
        <ele>409</ele>
        <time>2020-09-16T06:09:26Z</time>
      </trkpt>
      <trkpt lat="45.35512" lon="5.49186">
        <ele>409</ele>
        <time>2020-09-16T06:09:30Z</time>
      </trkpt>
      <trkpt lat="45.35517" lon="5.49192">
        <ele>409</ele>
        <time>2020-09-16T06:09:31Z</time>
      </trkpt>
      <trkpt lat="45.35539" lon="5.492">
        <ele>410</ele>
        <time>2020-09-16T06:09:35Z</time>
      </trkpt>
      <trkpt lat="45.35587" lon="5.49207">
        <ele>411</ele>
        <time>2020-09-16T06:09:44Z</time>
      </trkpt>
      <trkpt lat="45.35604" lon="5.49211">
        <ele>411</ele>
        <time>2020-09-16T06:09:47Z</time>
      </trkpt>
      <trkpt lat="45.35606" lon="5.49212">
        <ele>411</ele>
        <time>2020-09-16T06:09:47Z</time>
      </trkpt>
      <trkpt lat="45.35629" lon="5.49216">
        <ele>411</ele>
        <time>2020-09-16T06:09:51Z</time>
      </trkpt>
      <trkpt lat="45.35669" lon="5.49222">
        <ele>411</ele>
        <time>2020-09-16T06:09:58Z</time>
      </trkpt>
      <trkpt lat="45.35739" lon="5.49224">
        <ele>411</ele>
        <time>2020-09-16T06:10:11Z</time>
      </trkpt>
      <trkpt lat="45.35756" lon="5.49226">
        <ele>411</ele>
        <time>2020-09-16T06:10:14Z</time>
      </trkpt>
      <trkpt lat="45.35769" lon="5.49226">
        <ele>411</ele>
        <time>2020-09-16T06:10:16Z</time>
      </trkpt>
      <trkpt lat="45.35776" lon="5.49229">
        <ele>411</ele>
        <time>2020-09-16T06:10:17Z</time>
      </trkpt>
      <trkpt lat="45.35783" lon="5.49233">
        <ele>411</ele>
        <time>2020-09-16T06:10:19Z</time>
      </trkpt>
      <trkpt lat="45.3579" lon="5.49237">
        <ele>411</ele>
        <time>2020-09-16T06:10:20Z</time>
      </trkpt>
      <trkpt lat="45.35809" lon="5.49248">
        <ele>410</ele>
        <time>2020-09-16T06:10:24Z</time>
      </trkpt>
      <trkpt lat="45.3583" lon="5.49265">
        <ele>410</ele>
        <time>2020-09-16T06:10:28Z</time>
      </trkpt>
      <trkpt lat="45.35835" lon="5.49275">
        <ele>411</ele>
        <time>2020-09-16T06:10:30Z</time>
      </trkpt>
      <trkpt lat="45.35833" lon="5.49282">
        <ele>411</ele>
        <time>2020-09-16T06:10:30Z</time>
      </trkpt>
      <trkpt lat="45.35834" lon="5.49291">
        <ele>411</ele>
        <time>2020-09-16T06:10:32Z</time>
      </trkpt>
      <trkpt lat="45.35839" lon="5.49299">
        <ele>411</ele>
        <time>2020-09-16T06:10:33Z</time>
      </trkpt>
      <trkpt lat="45.35845" lon="5.49301">
        <ele>411</ele>
        <time>2020-09-16T06:10:34Z</time>
      </trkpt>
      <trkpt lat="45.35848" lon="5.493">
        <ele>411</ele>
        <time>2020-09-16T06:10:35Z</time>
      </trkpt>
      <trkpt lat="45.35852" lon="5.49297">
        <ele>411</ele>
        <time>2020-09-16T06:10:35Z</time>
      </trkpt>
      <trkpt lat="45.35855" lon="5.49289">
        <ele>411</ele>
        <time>2020-09-16T06:10:37Z</time>
      </trkpt>
      <trkpt lat="45.35866" lon="5.4929">
        <ele>411</ele>
        <time>2020-09-16T06:10:38Z</time>
      </trkpt>
      <trkpt lat="45.35883" lon="5.49297">
        <ele>411</ele>
        <time>2020-09-16T06:10:42Z</time>
      </trkpt>
      <trkpt lat="45.3592" lon="5.49306">
        <ele>411</ele>
        <time>2020-09-16T06:10:48Z</time>
      </trkpt>
      <trkpt lat="45.35935" lon="5.49307">
        <ele>411</ele>
        <time>2020-09-16T06:10:51Z</time>
      </trkpt>
      <trkpt lat="45.35962" lon="5.49307">
        <ele>411</ele>
        <time>2020-09-16T06:10:56Z</time>
      </trkpt>
      <trkpt lat="45.35979" lon="5.49306">
        <ele>412</ele>
        <time>2020-09-16T06:10:59Z</time>
      </trkpt>
      <trkpt lat="45.36029" lon="5.49306">
        <ele>412</ele>
        <time>2020-09-16T06:11:08Z</time>
      </trkpt>
      <trkpt lat="45.36099" lon="5.49302">
        <ele>413</ele>
        <time>2020-09-16T06:11:20Z</time>
      </trkpt>
      <trkpt lat="45.36139" lon="5.49296">
        <ele>414</ele>
        <time>2020-09-16T06:11:27Z</time>
      </trkpt>
      <trkpt lat="45.36179" lon="5.49274">
        <ele>415</ele>
        <time>2020-09-16T06:11:35Z</time>
      </trkpt>
      <trkpt lat="45.36203" lon="5.49261">
        <ele>414</ele>
        <time>2020-09-16T06:11:40Z</time>
      </trkpt>
      <trkpt lat="45.36219" lon="5.49249">
        <ele>414</ele>
        <time>2020-09-16T06:11:43Z</time>
      </trkpt>
      <trkpt lat="45.36227" lon="5.4924">
        <ele>413</ele>
        <time>2020-09-16T06:11:45Z</time>
      </trkpt>
      <trkpt lat="45.36237" lon="5.49229">
        <ele>413</ele>
        <time>2020-09-16T06:11:47Z</time>
      </trkpt>
      <trkpt lat="45.36262" lon="5.49211">
        <ele>413</ele>
        <time>2020-09-16T06:11:52Z</time>
      </trkpt>
      <trkpt lat="45.36287" lon="5.49191">
        <ele>413</ele>
        <time>2020-09-16T06:11:57Z</time>
      </trkpt>
      <trkpt lat="45.36306" lon="5.49178">
        <ele>413</ele>
        <time>2020-09-16T06:12:01Z</time>
      </trkpt>
      <trkpt lat="45.36324" lon="5.49176">
        <ele>413</ele>
        <time>2020-09-16T06:12:04Z</time>
      </trkpt>
      <trkpt lat="45.36338" lon="5.49177">
        <ele>413</ele>
        <time>2020-09-16T06:12:06Z</time>
      </trkpt>
      <trkpt lat="45.36341" lon="5.4918">
        <ele>413</ele>
        <time>2020-09-16T06:12:07Z</time>
      </trkpt>
      <trkpt lat="45.36347" lon="5.49181">
        <ele>414</ele>
        <time>2020-09-16T06:12:08Z</time>
      </trkpt>
      <trkpt lat="45.36353" lon="5.49178">
        <ele>414</ele>
        <time>2020-09-16T06:12:09Z</time>
      </trkpt>
      <trkpt lat="45.36358" lon="5.49172">
        <ele>414</ele>
        <time>2020-09-16T06:12:10Z</time>
      </trkpt>
      <trkpt lat="45.3636" lon="5.49164">
        <ele>414</ele>
        <time>2020-09-16T06:12:11Z</time>
      </trkpt>
      <trkpt lat="45.3636" lon="5.49154">
        <ele>415</ele>
        <time>2020-09-16T06:12:13Z</time>
      </trkpt>
      <trkpt lat="45.36357" lon="5.49146">
        <ele>415</ele>
        <time>2020-09-16T06:12:14Z</time>
      </trkpt>
      <trkpt lat="45.36352" lon="5.4914">
        <ele>414</ele>
        <time>2020-09-16T06:12:15Z</time>
      </trkpt>
      <trkpt lat="45.36346" lon="5.49138">
        <ele>414</ele>
        <time>2020-09-16T06:12:16Z</time>
      </trkpt>
      <trkpt lat="45.36339" lon="5.49132">
        <ele>414</ele>
        <time>2020-09-16T06:12:18Z</time>
      </trkpt>
      <trkpt lat="45.36329" lon="5.49114">
        <ele>414</ele>
        <time>2020-09-16T06:12:20Z</time>
      </trkpt>
      <trkpt lat="45.3632" lon="5.49091">
        <ele>415</ele>
        <time>2020-09-16T06:12:24Z</time>
      </trkpt>
      <trkpt lat="45.36318" lon="5.49075">
        <ele>415</ele>
        <time>2020-09-16T06:12:26Z</time>
      </trkpt>
      <trkpt lat="45.36318" lon="5.49051">
        <ele>415</ele>
        <time>2020-09-16T06:12:29Z</time>
      </trkpt>
      <trkpt lat="45.36325" lon="5.49038">
        <ele>415</ele>
        <time>2020-09-16T06:12:31Z</time>
      </trkpt>
      <trkpt lat="45.36356" lon="5.48985">
        <ele>417</ele>
        <time>2020-09-16T06:12:39Z</time>
      </trkpt>
      <trkpt lat="45.36376" lon="5.48955">
        <ele>418</ele>
        <time>2020-09-16T06:12:45Z</time>
      </trkpt>
      <trkpt lat="45.36427" lon="5.48874">
        <ele>420</ele>
        <time>2020-09-16T06:12:58Z</time>
      </trkpt>
      <trkpt lat="45.36445" lon="5.48856">
        <ele>421</ele>
        <time>2020-09-16T06:13:02Z</time>
      </trkpt>
      <trkpt lat="45.36453" lon="5.48847">
        <ele>422</ele>
        <time>2020-09-16T06:13:04Z</time>
      </trkpt>
      <trkpt lat="45.36488" lon="5.48822">
        <ele>423</ele>
        <time>2020-09-16T06:13:11Z</time>
      </trkpt>
      <trkpt lat="45.36524" lon="5.4879">
        <ele>424</ele>
        <time>2020-09-16T06:13:18Z</time>
      </trkpt>
      <trkpt lat="45.36537" lon="5.48761">
        <ele>424</ele>
        <time>2020-09-16T06:13:23Z</time>
      </trkpt>
      <trkpt lat="45.36541" lon="5.48753">
        <ele>424</ele>
        <time>2020-09-16T06:13:24Z</time>
      </trkpt>
      <trkpt lat="45.36582" lon="5.48661">
        <ele>433</ele>
        <time>2020-09-16T06:13:38Z</time>
      </trkpt>
      <trkpt lat="45.36594" lon="5.48653">
        <ele>435</ele>
        <time>2020-09-16T06:13:40Z</time>
      </trkpt>
      <trkpt lat="45.36614" lon="5.48656">
        <ele>436</ele>
        <time>2020-09-16T06:13:43Z</time>
      </trkpt>
      <trkpt lat="45.36629" lon="5.48656">
        <ele>437</ele>
        <time>2020-09-16T06:13:46Z</time>
      </trkpt>
      <trkpt lat="45.36644" lon="5.48652">
        <ele>438</ele>
        <time>2020-09-16T06:13:49Z</time>
      </trkpt>
      <trkpt lat="45.36667" lon="5.48642">
        <ele>439</ele>
        <time>2020-09-16T06:13:53Z</time>
      </trkpt>
      <trkpt lat="45.36701" lon="5.48626">
        <ele>441</ele>
        <time>2020-09-16T06:14:00Z</time>
      </trkpt>
      <trkpt lat="45.36732" lon="5.486">
        <ele>443</ele>
        <time>2020-09-16T06:14:06Z</time>
      </trkpt>
      <trkpt lat="45.36764" lon="5.48558">
        <ele>444</ele>
        <time>2020-09-16T06:14:14Z</time>
      </trkpt>
      <trkpt lat="45.36799" lon="5.48507">
        <ele>445</ele>
        <time>2020-09-16T06:14:23Z</time>
      </trkpt>
      <trkpt lat="45.36823" lon="5.48487">
        <ele>445</ele>
        <time>2020-09-16T06:14:28Z</time>
      </trkpt>
      <trkpt lat="45.3683" lon="5.48484">
        <ele>444</ele>
        <time>2020-09-16T06:14:29Z</time>
      </trkpt>
      <trkpt lat="45.36866" lon="5.48467">
        <ele>445</ele>
        <time>2020-09-16T06:14:36Z</time>
      </trkpt>
      <trkpt lat="45.37023" lon="5.48394">
        <ele>446</ele>
        <time>2020-09-16T06:15:05Z</time>
      </trkpt>
      <trkpt lat="45.37097" lon="5.48359">
        <ele>450</ele>
        <time>2020-09-16T06:15:19Z</time>
      </trkpt>
      <trkpt lat="45.37149" lon="5.48331">
        <ele>452</ele>
        <time>2020-09-16T06:15:29Z</time>
      </trkpt>
      <trkpt lat="45.37191" lon="5.48321">
        <ele>452</ele>
        <time>2020-09-16T06:15:36Z</time>
      </trkpt>
      <trkpt lat="45.37258" lon="5.48295">
        <ele>450</ele>
        <time>2020-09-16T06:15:49Z</time>
      </trkpt>
      <trkpt lat="45.37353" lon="5.48234">
        <ele>453</ele>
        <time>2020-09-16T06:16:07Z</time>
      </trkpt>
      <trkpt lat="45.37397" lon="5.48214">
        <ele>454</ele>
        <time>2020-09-16T06:16:15Z</time>
      </trkpt>
      <trkpt lat="45.3747" lon="5.48189">
        <ele>458</ele>
        <time>2020-09-16T06:16:29Z</time>
      </trkpt>
      <trkpt lat="45.37509" lon="5.48177">
        <ele>459</ele>
        <time>2020-09-16T06:16:36Z</time>
      </trkpt>
      <trkpt lat="45.37579" lon="5.4817">
        <ele>459</ele>
        <time>2020-09-16T06:16:48Z</time>
      </trkpt>
      <trkpt lat="45.37609" lon="5.48164">
        <ele>459</ele>
        <time>2020-09-16T06:16:54Z</time>
      </trkpt>
      <trkpt lat="45.37662" lon="5.4815">
        <ele>459</ele>
        <time>2020-09-16T06:17:03Z</time>
      </trkpt>
      <trkpt lat="45.37684" lon="5.48143">
        <ele>458</ele>
        <time>2020-09-16T06:17:07Z</time>
      </trkpt>
      <trkpt lat="45.37708" lon="5.48132">
        <ele>458</ele>
        <time>2020-09-16T06:17:12Z</time>
      </trkpt>
      <trkpt lat="45.3773" lon="5.48118">
        <ele>458</ele>
        <time>2020-09-16T06:17:16Z</time>
      </trkpt>
      <trkpt lat="45.37757" lon="5.48098">
        <ele>458</ele>
        <time>2020-09-16T06:17:22Z</time>
      </trkpt>
      <trkpt lat="45.37965" lon="5.47927">
        <ele>461</ele>
        <time>2020-09-16T06:18:04Z</time>
      </trkpt>
      <trkpt lat="45.37994" lon="5.47902">
        <ele>461</ele>
        <time>2020-09-16T06:18:10Z</time>
      </trkpt>
      <trkpt lat="45.38023" lon="5.47873">
        <ele>461</ele>
        <time>2020-09-16T06:18:17Z</time>
      </trkpt>
      <trkpt lat="45.38055" lon="5.47837">
        <ele>462</ele>
        <time>2020-09-16T06:18:24Z</time>
      </trkpt>
      <trkpt lat="45.38088" lon="5.47798">
        <ele>462</ele>
        <time>2020-09-16T06:18:32Z</time>
      </trkpt>
      <trkpt lat="45.38141" lon="5.47741">
        <ele>465</ele>
        <time>2020-09-16T06:18:43Z</time>
      </trkpt>
      <trkpt lat="45.38164" lon="5.47714">
        <ele>466</ele>
        <time>2020-09-16T06:18:49Z</time>
      </trkpt>
      <trkpt lat="45.38175" lon="5.47699">
        <ele>466</ele>
        <time>2020-09-16T06:18:51Z</time>
      </trkpt>
      <trkpt lat="45.38198" lon="5.47668">
        <ele>467</ele>
        <time>2020-09-16T06:18:57Z</time>
      </trkpt>
      <trkpt lat="45.38215" lon="5.47643">
        <ele>467</ele>
        <time>2020-09-16T06:19:01Z</time>
      </trkpt>
      <trkpt lat="45.38239" lon="5.47592">
        <ele>468</ele>
        <time>2020-09-16T06:19:09Z</time>
      </trkpt>
      <trkpt lat="45.3825" lon="5.47556">
        <ele>469</ele>
        <time>2020-09-16T06:19:14Z</time>
      </trkpt>
      <trkpt lat="45.3826" lon="5.47509">
        <ele>469</ele>
        <time>2020-09-16T06:19:20Z</time>
      </trkpt>
      <trkpt lat="45.38264" lon="5.47498">
        <ele>469</ele>
        <time>2020-09-16T06:19:22Z</time>
      </trkpt>
      <trkpt lat="45.38273" lon="5.47491">
        <ele>469</ele>
        <time>2020-09-16T06:19:23Z</time>
      </trkpt>
      <trkpt lat="45.38282" lon="5.4749">
        <ele>469</ele>
        <time>2020-09-16T06:19:25Z</time>
      </trkpt>
      <trkpt lat="45.38307" lon="5.47494">
        <ele>470</ele>
        <time>2020-09-16T06:19:30Z</time>
      </trkpt>
      <trkpt lat="45.38328" lon="5.47497">
        <ele>470</ele>
        <time>2020-09-16T06:19:33Z</time>
      </trkpt>
      <trkpt lat="45.38343" lon="5.47505">
        <ele>470</ele>
        <time>2020-09-16T06:19:36Z</time>
      </trkpt>
      <trkpt lat="45.38363" lon="5.47519">
        <ele>470</ele>
        <time>2020-09-16T06:19:40Z</time>
      </trkpt>
      <trkpt lat="45.38378" lon="5.47536">
        <ele>470</ele>
        <time>2020-09-16T06:19:43Z</time>
      </trkpt>
      <trkpt lat="45.38384" lon="5.47546">
        <ele>469</ele>
        <time>2020-09-16T06:19:45Z</time>
      </trkpt>
      <trkpt lat="45.38415" lon="5.47603">
        <ele>469</ele>
        <time>2020-09-16T06:19:54Z</time>
      </trkpt>
      <trkpt lat="45.38426" lon="5.47621">
        <ele>468</ele>
        <time>2020-09-16T06:19:57Z</time>
      </trkpt>
      <trkpt lat="45.38438" lon="5.47635">
        <ele>468</ele>
        <time>2020-09-16T06:20:00Z</time>
      </trkpt>
      <trkpt lat="45.38466" lon="5.47646">
        <ele>468</ele>
        <time>2020-09-16T06:20:05Z</time>
      </trkpt>
      <trkpt lat="45.38495" lon="5.47651">
        <ele>468</ele>
        <time>2020-09-16T06:20:10Z</time>
      </trkpt>
      <trkpt lat="45.38512" lon="5.47659">
        <ele>468</ele>
        <time>2020-09-16T06:20:13Z</time>
      </trkpt>
      <trkpt lat="45.38518" lon="5.47665">
        <ele>468</ele>
        <time>2020-09-16T06:20:15Z</time>
      </trkpt>
      <trkpt lat="45.38523" lon="5.47671">
        <ele>468</ele>
        <time>2020-09-16T06:20:16Z</time>
      </trkpt>
      <trkpt lat="45.38525" lon="5.47679">
        <ele>468</ele>
        <time>2020-09-16T06:20:17Z</time>
      </trkpt>
      <trkpt lat="45.38528" lon="5.47685">
        <ele>468</ele>
        <time>2020-09-16T06:20:18Z</time>
      </trkpt>
      <trkpt lat="45.38533" lon="5.4769">
        <ele>468</ele>
        <time>2020-09-16T06:20:19Z</time>
      </trkpt>
      <trkpt lat="45.38544" lon="5.47693">
        <ele>468</ele>
        <time>2020-09-16T06:20:21Z</time>
      </trkpt>
      <trkpt lat="45.38549" lon="5.47691">
        <ele>468</ele>
        <time>2020-09-16T06:20:22Z</time>
      </trkpt>
      <trkpt lat="45.38554" lon="5.47687">
        <ele>468</ele>
        <time>2020-09-16T06:20:23Z</time>
      </trkpt>
      <trkpt lat="45.38557" lon="5.47682">
        <ele>469</ele>
        <time>2020-09-16T06:20:24Z</time>
      </trkpt>
      <trkpt lat="45.38561" lon="5.47669">
        <ele>469</ele>
        <time>2020-09-16T06:20:26Z</time>
      </trkpt>
      <trkpt lat="45.38561" lon="5.47662">
        <ele>469</ele>
        <time>2020-09-16T06:20:26Z</time>
      </trkpt>
      <trkpt lat="45.3857" lon="5.47641">
        <ele>469</ele>
        <time>2020-09-16T06:20:29Z</time>
      </trkpt>
      <trkpt lat="45.38576" lon="5.47625">
        <ele>469</ele>
        <time>2020-09-16T06:20:32Z</time>
      </trkpt>
      <trkpt lat="45.38593" lon="5.47599">
        <ele>470</ele>
        <time>2020-09-16T06:20:36Z</time>
      </trkpt>
      <trkpt lat="45.38619" lon="5.47567">
        <ele>471</ele>
        <time>2020-09-16T06:20:42Z</time>
      </trkpt>
      <trkpt lat="45.3863" lon="5.47558">
        <ele>471</ele>
        <time>2020-09-16T06:20:45Z</time>
      </trkpt>
      <trkpt lat="45.38744" lon="5.47481">
        <ele>473</ele>
        <time>2020-09-16T06:21:07Z</time>
      </trkpt>
      <trkpt lat="45.38805" lon="5.47446">
        <ele>474</ele>
        <time>2020-09-16T06:21:19Z</time>
      </trkpt>
      <trkpt lat="45.38864" lon="5.47418">
        <ele>475</ele>
        <time>2020-09-16T06:21:30Z</time>
      </trkpt>
      <trkpt lat="45.38918" lon="5.474">
        <ele>476</ele>
        <time>2020-09-16T06:21:40Z</time>
      </trkpt>
      <trkpt lat="45.39009" lon="5.47373">
        <ele>477</ele>
        <time>2020-09-16T06:21:56Z</time>
      </trkpt>
      <trkpt lat="45.39102" lon="5.47373">
        <ele>479</ele>
        <time>2020-09-16T06:22:13Z</time>
      </trkpt>
      <trkpt lat="45.3914" lon="5.47369">
        <ele>480</ele>
        <time>2020-09-16T06:22:19Z</time>
      </trkpt>
      <trkpt lat="45.39184" lon="5.4736">
        <ele>482</ele>
        <time>2020-09-16T06:22:27Z</time>
      </trkpt>
      <trkpt lat="45.39235" lon="5.47346">
        <ele>483</ele>
        <time>2020-09-16T06:22:37Z</time>
      </trkpt>
      <trkpt lat="45.39325" lon="5.47301">
        <ele>485</ele>
        <time>2020-09-16T06:22:54Z</time>
      </trkpt>
      <trkpt lat="45.39351" lon="5.47281">
        <ele>486</ele>
        <time>2020-09-16T06:22:59Z</time>
      </trkpt>
      <trkpt lat="45.39358" lon="5.47287">
        <ele>486</ele>
        <time>2020-09-16T06:23:00Z</time>
      </trkpt>
      <trkpt lat="45.39366" lon="5.47289">
        <ele>486</ele>
        <time>2020-09-16T06:23:02Z</time>
      </trkpt>
      <trkpt lat="45.39374" lon="5.47285">
        <ele>486</ele>
        <time>2020-09-16T06:23:03Z</time>
      </trkpt>
      <trkpt lat="45.39381" lon="5.47275">
        <ele>486</ele>
        <time>2020-09-16T06:23:05Z</time>
      </trkpt>
      <trkpt lat="45.39384" lon="5.47262">
        <ele>486</ele>
        <time>2020-09-16T06:23:07Z</time>
      </trkpt>
      <trkpt lat="45.39382" lon="5.47249">
        <ele>487</ele>
        <time>2020-09-16T06:23:08Z</time>
      </trkpt>
      <trkpt lat="45.39376" lon="5.47239">
        <ele>486</ele>
        <time>2020-09-16T06:23:10Z</time>
      </trkpt>
      <trkpt lat="45.39382" lon="5.47225">
        <ele>486</ele>
        <time>2020-09-16T06:23:12Z</time>
      </trkpt>
      <trkpt lat="45.39386" lon="5.47209">
        <ele>486</ele>
        <time>2020-09-16T06:23:14Z</time>
      </trkpt>
      <trkpt lat="45.39405" lon="5.47092">
        <ele>486</ele>
        <time>2020-09-16T06:23:29Z</time>
      </trkpt>
      <trkpt lat="45.39429" lon="5.46998">
        <ele>487</ele>
        <time>2020-09-16T06:23:42Z</time>
      </trkpt>
      <trkpt lat="45.39452" lon="5.46954">
        <ele>488</ele>
        <time>2020-09-16T06:23:49Z</time>
      </trkpt>
      <trkpt lat="45.39481" lon="5.46913">
        <ele>488</ele>
        <time>2020-09-16T06:23:56Z</time>
      </trkpt>
      <trkpt lat="45.39579" lon="5.46827">
        <ele>490</ele>
        <time>2020-09-16T06:24:16Z</time>
      </trkpt>
      <trkpt lat="45.39599" lon="5.4681">
        <ele>491</ele>
        <time>2020-09-16T06:24:20Z</time>
      </trkpt>
      <trkpt lat="45.3966" lon="5.46764">
        <ele>493</ele>
        <time>2020-09-16T06:24:33Z</time>
      </trkpt>
      <trkpt lat="45.39691" lon="5.46742">
        <ele>494</ele>
        <time>2020-09-16T06:24:39Z</time>
      </trkpt>
      <trkpt lat="45.39744" lon="5.46715">
        <ele>494</ele>
        <time>2020-09-16T06:24:49Z</time>
      </trkpt>
      <trkpt lat="45.3975" lon="5.46714">
        <ele>494</ele>
        <time>2020-09-16T06:24:50Z</time>
      </trkpt>
      <trkpt lat="45.39782" lon="5.46708">
        <ele>495</ele>
        <time>2020-09-16T06:24:56Z</time>
      </trkpt>
      <trkpt lat="45.39882" lon="5.46715">
        <ele>495</ele>
        <time>2020-09-16T06:25:14Z</time>
      </trkpt>
      <trkpt lat="45.3991" lon="5.46717">
        <ele>495</ele>
        <time>2020-09-16T06:25:19Z</time>
      </trkpt>
      <trkpt lat="45.39918" lon="5.46722">
        <ele>495</ele>
        <time>2020-09-16T06:25:20Z</time>
      </trkpt>
      <trkpt lat="45.39959" lon="5.46729">
        <ele>496</ele>
        <time>2020-09-16T06:25:27Z</time>
      </trkpt>
      <trkpt lat="45.39974" lon="5.46743">
        <ele>497</ele>
        <time>2020-09-16T06:25:31Z</time>
      </trkpt>
      <trkpt lat="45.39974" lon="5.46751">
        <ele>496</ele>
        <time>2020-09-16T06:25:32Z</time>
      </trkpt>
      <trkpt lat="45.39975" lon="5.46758">
        <ele>496</ele>
        <time>2020-09-16T06:25:33Z</time>
      </trkpt>
      <trkpt lat="45.39977" lon="5.46764">
        <ele>497</ele>
        <time>2020-09-16T06:25:33Z</time>
      </trkpt>
      <trkpt lat="45.3998" lon="5.46771">
        <ele>497</ele>
        <time>2020-09-16T06:25:34Z</time>
      </trkpt>
      <trkpt lat="45.39984" lon="5.46776">
        <ele>497</ele>
        <time>2020-09-16T06:25:35Z</time>
      </trkpt>
      <trkpt lat="45.39989" lon="5.4678">
        <ele>497</ele>
        <time>2020-09-16T06:25:36Z</time>
      </trkpt>
      <trkpt lat="45.39995" lon="5.46782">
        <ele>497</ele>
        <time>2020-09-16T06:25:37Z</time>
      </trkpt>
      <trkpt lat="45.40001" lon="5.46781">
        <ele>497</ele>
        <time>2020-09-16T06:25:39Z</time>
      </trkpt>
      <trkpt lat="45.40007" lon="5.46779">
        <ele>497</ele>
        <time>2020-09-16T06:25:40Z</time>
      </trkpt>
      <trkpt lat="45.40011" lon="5.46776">
        <ele>497</ele>
        <time>2020-09-16T06:25:40Z</time>
      </trkpt>
      <trkpt lat="45.40014" lon="5.46772">
        <ele>497</ele>
        <time>2020-09-16T06:25:41Z</time>
      </trkpt>
      <trkpt lat="45.40016" lon="5.46767">
        <ele>497</ele>
        <time>2020-09-16T06:25:42Z</time>
      </trkpt>
      <trkpt lat="45.4003" lon="5.46761">
        <ele>497</ele>
        <time>2020-09-16T06:25:44Z</time>
      </trkpt>
      <trkpt lat="45.40037" lon="5.46754">
        <ele>497</ele>
        <time>2020-09-16T06:25:46Z</time>
      </trkpt>
      <trkpt lat="45.40047" lon="5.46746">
        <ele>498</ele>
        <time>2020-09-16T06:25:48Z</time>
      </trkpt>
      <trkpt lat="45.40064" lon="5.46712">
        <ele>498</ele>
        <time>2020-09-16T06:25:53Z</time>
      </trkpt>
      <trkpt lat="45.40092" lon="5.46663">
        <ele>499</ele>
        <time>2020-09-16T06:26:01Z</time>
      </trkpt>
      <trkpt lat="45.40123" lon="5.4664">
        <ele>501</ele>
        <time>2020-09-16T06:26:07Z</time>
      </trkpt>
      <trkpt lat="45.40275" lon="5.4657">
        <ele>504</ele>
        <time>2020-09-16T06:26:36Z</time>
      </trkpt>
      <trkpt lat="45.40483" lon="5.46473">
        <ele>506</ele>
        <time>2020-09-16T06:27:15Z</time>
      </trkpt>
      <trkpt lat="45.40514" lon="5.46463">
        <ele>507</ele>
        <time>2020-09-16T06:27:20Z</time>
      </trkpt>
      <trkpt lat="45.40577" lon="5.46469">
        <ele>509</ele>
        <time>2020-09-16T06:27:32Z</time>
      </trkpt>
      <trkpt lat="45.40639" lon="5.46479">
        <ele>509</ele>
        <time>2020-09-16T06:27:43Z</time>
      </trkpt>
      <trkpt lat="45.40702" lon="5.46485">
        <ele>510</ele>
        <time>2020-09-16T06:27:54Z</time>
      </trkpt>
      <trkpt lat="45.40738" lon="5.46483">
        <ele>511</ele>
        <time>2020-09-16T06:28:00Z</time>
      </trkpt>
      <trkpt lat="45.40878" lon="5.46464">
        <ele>517</ele>
        <time>2020-09-16T06:28:25Z</time>
      </trkpt>
      <trkpt lat="45.40915" lon="5.46456">
        <ele>519</ele>
        <time>2020-09-16T06:28:32Z</time>
      </trkpt>
      <trkpt lat="45.41047" lon="5.46416">
        <ele>519</ele>
        <time>2020-09-16T06:28:56Z</time>
      </trkpt>
      <trkpt lat="45.41177" lon="5.46353">
        <ele>522</ele>
        <time>2020-09-16T06:29:21Z</time>
      </trkpt>
      <trkpt lat="45.41245" lon="5.46305">
        <ele>523</ele>
        <time>2020-09-16T06:29:34Z</time>
      </trkpt>
      <trkpt lat="45.41267" lon="5.46289">
        <ele>524</ele>
        <time>2020-09-16T06:29:38Z</time>
      </trkpt>
      <trkpt lat="45.41405" lon="5.4617">
        <ele>526</ele>
        <time>2020-09-16T06:30:07Z</time>
      </trkpt>
      <trkpt lat="45.41503" lon="5.4606">
        <ele>524</ele>
        <time>2020-09-16T06:30:29Z</time>
      </trkpt>
      <trkpt lat="45.41592" lon="5.45962">
        <ele>524</ele>
        <time>2020-09-16T06:30:49Z</time>
      </trkpt>
      <trkpt lat="45.4173" lon="5.45782">
        <ele>528</ele>
        <time>2020-09-16T06:31:23Z</time>
      </trkpt>
      <trkpt lat="45.4181" lon="5.45659">
        <ele>533</ele>
        <time>2020-09-16T06:31:44Z</time>
      </trkpt>
      <trkpt lat="45.41862" lon="5.45556">
        <ele>534</ele>
        <time>2020-09-16T06:31:59Z</time>
      </trkpt>
      <trkpt lat="45.41948" lon="5.45347">
        <ele>535</ele>
        <time>2020-09-16T06:32:30Z</time>
      </trkpt>
      <trkpt lat="45.42002" lon="5.45272">
        <ele>538</ele>
        <time>2020-09-16T06:32:43Z</time>
      </trkpt>
      <trkpt lat="45.42101" lon="5.45176">
        <ele>542</ele>
        <time>2020-09-16T06:33:04Z</time>
      </trkpt>
      <trkpt lat="45.42116" lon="5.45159">
        <ele>543</ele>
        <time>2020-09-16T06:33:08Z</time>
      </trkpt>
      <trkpt lat="45.42121" lon="5.45149">
        <ele>543</ele>
        <time>2020-09-16T06:33:09Z</time>
      </trkpt>
      <trkpt lat="45.42178" lon="5.45042">
        <ele>545</ele>
        <time>2020-09-16T06:33:26Z</time>
      </trkpt>
      <trkpt lat="45.42208" lon="5.4496">
        <ele>547</ele>
        <time>2020-09-16T06:33:38Z</time>
      </trkpt>
      <trkpt lat="45.42298" lon="5.44768">
        <ele>555</ele>
        <time>2020-09-16T06:34:06Z</time>
      </trkpt>
      <trkpt lat="45.42343" lon="5.4467">
        <ele>559</ele>
        <time>2020-09-16T06:34:21Z</time>
      </trkpt>
      <trkpt lat="45.42345" lon="5.44665">
        <ele>559</ele>
        <time>2020-09-16T06:34:22Z</time>
      </trkpt>
      <trkpt lat="45.4248" lon="5.44367">
        <ele>571</ele>
        <time>2020-09-16T06:35:06Z</time>
      </trkpt>
      <trkpt lat="45.42509" lon="5.44326">
        <ele>571</ele>
        <time>2020-09-16T06:35:13Z</time>
      </trkpt>
      <trkpt lat="45.42625" lon="5.44203">
        <ele>560</ele>
        <time>2020-09-16T06:35:39Z</time>
      </trkpt>
      <trkpt lat="45.42629" lon="5.44198">
        <ele>560</ele>
        <time>2020-09-16T06:35:40Z</time>
      </trkpt>
      <trkpt lat="45.42648" lon="5.44115">
        <ele>556</ele>
        <time>2020-09-16T06:35:51Z</time>
      </trkpt>
      <trkpt lat="45.4264" lon="5.44054">
        <ele>553</ele>
        <time>2020-09-16T06:35:59Z</time>
      </trkpt>
      <trkpt lat="45.42592" lon="5.43922">
        <ele>549</ele>
        <time>2020-09-16T06:36:17Z</time>
      </trkpt>
      <trkpt lat="45.42582" lon="5.43869">
        <ele>546</ele>
        <time>2020-09-16T06:36:24Z</time>
      </trkpt>
      <trkpt lat="45.42601" lon="5.43738">
        <ele>540</ele>
        <time>2020-09-16T06:36:41Z</time>
      </trkpt>
      <trkpt lat="45.42611" lon="5.43694">
        <ele>538</ele>
        <time>2020-09-16T06:36:47Z</time>
      </trkpt>
      <trkpt lat="45.42628" lon="5.43657">
        <ele>536</ele>
        <time>2020-09-16T06:36:52Z</time>
      </trkpt>
      <trkpt lat="45.42724" lon="5.43475">
        <ele>527</ele>
        <time>2020-09-16T06:37:21Z</time>
      </trkpt>
      <trkpt lat="45.42776" lon="5.43417">
        <ele>525</ele>
        <time>2020-09-16T06:37:32Z</time>
      </trkpt>
      <trkpt lat="45.42854" lon="5.4333">
        <ele>524</ele>
        <time>2020-09-16T06:37:50Z</time>
      </trkpt>
      <trkpt lat="45.42859" lon="5.43335">
        <ele>524</ele>
        <time>2020-09-16T06:37:51Z</time>
      </trkpt>
      <trkpt lat="45.42865" lon="5.43337">
        <ele>524</ele>
        <time>2020-09-16T06:37:52Z</time>
      </trkpt>
      <trkpt lat="45.42871" lon="5.43334">
        <ele>524</ele>
        <time>2020-09-16T06:37:53Z</time>
      </trkpt>
      <trkpt lat="45.42875" lon="5.4333">
        <ele>524</ele>
        <time>2020-09-16T06:37:54Z</time>
      </trkpt>
      <trkpt lat="45.42877" lon="5.43323">
        <ele>524</ele>
        <time>2020-09-16T06:37:55Z</time>
      </trkpt>
      <trkpt lat="45.42877" lon="5.43316">
        <ele>524</ele>
        <time>2020-09-16T06:37:56Z</time>
      </trkpt>
      <trkpt lat="45.42888" lon="5.43311">
        <ele>524</ele>
        <time>2020-09-16T06:37:58Z</time>
      </trkpt>
      <trkpt lat="45.4292" lon="5.43285">
        <ele>522</ele>
        <time>2020-09-16T06:38:05Z</time>
      </trkpt>
      <trkpt lat="45.43204" lon="5.43023">
        <ele>507</ele>
        <time>2020-09-16T06:39:05Z</time>
      </trkpt>
      <trkpt lat="45.43247" lon="5.42995">
        <ele>506</ele>
        <time>2020-09-16T06:39:13Z</time>
      </trkpt>
      <trkpt lat="45.43567" lon="5.42939">
        <ele>504</ele>
        <time>2020-09-16T06:40:11Z</time>
      </trkpt>
      <trkpt lat="45.43748" lon="5.42905">
        <ele>508</ele>
        <time>2020-09-16T06:40:43Z</time>
      </trkpt>
      <trkpt lat="45.43807" lon="5.42894">
        <ele>510</ele>
        <time>2020-09-16T06:40:54Z</time>
      </trkpt>
      <trkpt lat="45.4384" lon="5.42885">
        <ele>510</ele>
        <time>2020-09-16T06:41:00Z</time>
      </trkpt>
      <trkpt lat="45.43869" lon="5.42883">
        <ele>510</ele>
        <time>2020-09-16T06:41:05Z</time>
      </trkpt>
      <trkpt lat="45.43966" lon="5.42863">
        <ele>513</ele>
        <time>2020-09-16T06:41:22Z</time>
      </trkpt>
      <trkpt lat="45.44051" lon="5.42848">
        <ele>515</ele>
        <time>2020-09-16T06:41:37Z</time>
      </trkpt>
      <trkpt lat="45.44075" lon="5.42839">
        <ele>515</ele>
        <time>2020-09-16T06:41:42Z</time>
      </trkpt>
      <trkpt lat="45.44095" lon="5.42824">
        <ele>515</ele>
        <time>2020-09-16T06:41:46Z</time>
      </trkpt>
      <trkpt lat="45.44107" lon="5.42809">
        <ele>515</ele>
        <time>2020-09-16T06:41:49Z</time>
      </trkpt>
      <trkpt lat="45.44233" lon="5.42626">
        <ele>514</ele>
        <time>2020-09-16T06:42:21Z</time>
      </trkpt>
      <trkpt lat="45.44267" lon="5.4257">
        <ele>512</ele>
        <time>2020-09-16T06:42:30Z</time>
      </trkpt>
      <trkpt lat="45.44282" lon="5.42527">
        <ele>511</ele>
        <time>2020-09-16T06:42:36Z</time>
      </trkpt>
      <trkpt lat="45.44369" lon="5.42107">
        <ele>509</ele>
        <time>2020-09-16T06:43:31Z</time>
      </trkpt>
      <trkpt lat="45.4438" lon="5.42054">
        <ele>510</ele>
        <time>2020-09-16T06:43:38Z</time>
      </trkpt>
      <trkpt lat="45.44509" lon="5.41407">
        <ele>526</ele>
        <time>2020-09-16T06:45:01Z</time>
      </trkpt>
      <trkpt lat="45.44527" lon="5.41174">
        <ele>526</ele>
        <time>2020-09-16T06:45:31Z</time>
      </trkpt>
      <trkpt lat="45.44529" lon="5.41167">
        <ele>526</ele>
        <time>2020-09-16T06:45:32Z</time>
      </trkpt>
      <trkpt lat="45.44536" lon="5.41055">
        <ele>530</ele>
        <time>2020-09-16T06:45:46Z</time>
      </trkpt>
      <trkpt lat="45.44558" lon="5.40793">
        <ele>542</ele>
        <time>2020-09-16T06:46:19Z</time>
      </trkpt>
      <trkpt lat="45.44588" lon="5.40398">
        <ele>544</ele>
        <time>2020-09-16T06:47:08Z</time>
      </trkpt>
      <trkpt lat="45.44594" lon="5.40358">
        <ele>544</ele>
        <time>2020-09-16T06:47:13Z</time>
      </trkpt>
      <trkpt lat="45.44612" lon="5.40308">
        <ele>544</ele>
        <time>2020-09-16T06:47:20Z</time>
      </trkpt>
      <trkpt lat="45.4465" lon="5.40217">
        <ele>547</ele>
        <time>2020-09-16T06:47:34Z</time>
      </trkpt>
      <trkpt lat="45.44692" lon="5.40109">
        <ele>555</ele>
        <time>2020-09-16T06:47:49Z</time>
      </trkpt>
      <trkpt lat="45.44722" lon="5.40041">
        <ele>559</ele>
        <time>2020-09-16T06:47:59Z</time>
      </trkpt>
      <trkpt lat="45.44754" lon="5.40008">
        <ele>558</ele>
        <time>2020-09-16T06:48:06Z</time>
      </trkpt>
      <trkpt lat="45.44782" lon="5.39993">
        <ele>559</ele>
        <time>2020-09-16T06:48:11Z</time>
      </trkpt>
      <trkpt lat="45.44824" lon="5.3999">
        <ele>563</ele>
        <time>2020-09-16T06:48:19Z</time>
      </trkpt>
      <trkpt lat="45.44847" lon="5.39997">
        <ele>562</ele>
        <time>2020-09-16T06:48:23Z</time>
      </trkpt>
      <trkpt lat="45.44944" lon="5.40053">
        <ele>565</ele>
        <time>2020-09-16T06:48:42Z</time>
      </trkpt>
      <trkpt lat="45.45019" lon="5.40104">
        <ele>567</ele>
        <time>2020-09-16T06:48:56Z</time>
      </trkpt>
      <trkpt lat="45.45218" lon="5.40212">
        <ele>564</ele>
        <time>2020-09-16T06:49:34Z</time>
      </trkpt>
      <trkpt lat="45.45267" lon="5.40224">
        <ele>563</ele>
        <time>2020-09-16T06:49:43Z</time>
      </trkpt>
      <trkpt lat="45.4533" lon="5.40212">
        <ele>563</ele>
        <time>2020-09-16T06:49:55Z</time>
      </trkpt>
      <trkpt lat="45.45584" lon="5.40134">
        <ele>566</ele>
        <time>2020-09-16T06:50:41Z</time>
      </trkpt>
      <trkpt lat="45.45622" lon="5.40127">
        <ele>566</ele>
        <time>2020-09-16T06:50:48Z</time>
      </trkpt>
      <trkpt lat="45.45668" lon="5.40137">
        <ele>567</ele>
        <time>2020-09-16T06:50:56Z</time>
      </trkpt>
      <trkpt lat="45.45942" lon="5.40249">
        <ele>551</ele>
        <time>2020-09-16T06:51:47Z</time>
      </trkpt>
      <trkpt lat="45.46003" lon="5.40276">
        <ele>551</ele>
        <time>2020-09-16T06:51:58Z</time>
      </trkpt>
      <trkpt lat="45.46106" lon="5.40369">
        <ele>549</ele>
        <time>2020-09-16T06:52:20Z</time>
      </trkpt>
      <trkpt lat="45.46139" lon="5.40387">
        <ele>548</ele>
        <time>2020-09-16T06:52:26Z</time>
      </trkpt>
      <trkpt lat="45.46156" lon="5.4039">
        <ele>547</ele>
        <time>2020-09-16T06:52:29Z</time>
      </trkpt>
      <trkpt lat="45.46179" lon="5.40389">
        <ele>546</ele>
        <time>2020-09-16T06:52:33Z</time>
      </trkpt>
      <trkpt lat="45.46205" lon="5.40379">
        <ele>545</ele>
        <time>2020-09-16T06:52:38Z</time>
      </trkpt>
      <trkpt lat="45.46235" lon="5.4036">
        <ele>542</ele>
        <time>2020-09-16T06:52:44Z</time>
      </trkpt>
      <trkpt lat="45.4637" lon="5.40286">
        <ele>536</ele>
        <time>2020-09-16T06:53:09Z</time>
      </trkpt>
      <trkpt lat="45.46504" lon="5.40207">
        <ele>532</ele>
        <time>2020-09-16T06:53:35Z</time>
      </trkpt>
      <trkpt lat="45.46543" lon="5.40194">
        <ele>528</ele>
        <time>2020-09-16T06:53:42Z</time>
      </trkpt>
      <trkpt lat="45.46581" lon="5.402">
        <ele>528</ele>
        <time>2020-09-16T06:53:49Z</time>
      </trkpt>
      <trkpt lat="45.46666" lon="5.40224">
        <ele>527</ele>
        <time>2020-09-16T06:54:05Z</time>
      </trkpt>
      <trkpt lat="45.46714" lon="5.4023">
        <ele>525</ele>
        <time>2020-09-16T06:54:13Z</time>
      </trkpt>
      <trkpt lat="45.46746" lon="5.40227">
        <ele>522</ele>
        <time>2020-09-16T06:54:19Z</time>
      </trkpt>
      <trkpt lat="45.47054" lon="5.40226">
        <ele>515</ele>
        <time>2020-09-16T06:55:14Z</time>
      </trkpt>
      <trkpt lat="45.47282" lon="5.4022">
        <ele>510</ele>
        <time>2020-09-16T06:55:54Z</time>
      </trkpt>
      <trkpt lat="45.47318" lon="5.40209">
        <ele>507</ele>
        <time>2020-09-16T06:56:01Z</time>
      </trkpt>
      <trkpt lat="45.47361" lon="5.40181">
        <ele>501</ele>
        <time>2020-09-16T06:56:09Z</time>
      </trkpt>
      <trkpt lat="45.47503" lon="5.40095">
        <ele>498</ele>
        <time>2020-09-16T06:56:37Z</time>
      </trkpt>
      <trkpt lat="45.47566" lon="5.40067">
        <ele>494</ele>
        <time>2020-09-16T06:56:48Z</time>
      </trkpt>
      <trkpt lat="45.47607" lon="5.40052">
        <ele>491</ele>
        <time>2020-09-16T06:56:56Z</time>
      </trkpt>
      <trkpt lat="45.47638" lon="5.40051">
        <ele>489</ele>
        <time>2020-09-16T06:57:01Z</time>
      </trkpt>
      <trkpt lat="45.47652" lon="5.40054">
        <ele>489</ele>
        <time>2020-09-16T06:57:04Z</time>
      </trkpt>
      <trkpt lat="45.47782" lon="5.40115">
        <ele>486</ele>
        <time>2020-09-16T06:57:28Z</time>
      </trkpt>
      <trkpt lat="45.4782" lon="5.40125">
        <ele>483</ele>
        <time>2020-09-16T06:57:35Z</time>
      </trkpt>
      <trkpt lat="45.48068" lon="5.40121">
        <ele>478</ele>
        <time>2020-09-16T06:58:19Z</time>
      </trkpt>
      <trkpt lat="45.48139" lon="5.40118">
        <ele>473</ele>
        <time>2020-09-16T06:58:32Z</time>
      </trkpt>
      <trkpt lat="45.48314" lon="5.40115">
        <ele>471</ele>
        <time>2020-09-16T06:59:03Z</time>
      </trkpt>
      <trkpt lat="45.48364" lon="5.40104">
        <ele>470</ele>
        <time>2020-09-16T06:59:12Z</time>
      </trkpt>
      <trkpt lat="45.48411" lon="5.40079">
        <ele>469</ele>
        <time>2020-09-16T06:59:21Z</time>
      </trkpt>
      <trkpt lat="45.48449" lon="5.40043">
        <ele>467</ele>
        <time>2020-09-16T06:59:29Z</time>
      </trkpt>
      <trkpt lat="45.48479" lon="5.40001">
        <ele>465</ele>
        <time>2020-09-16T06:59:37Z</time>
      </trkpt>
      <trkpt lat="45.48503" lon="5.39954">
        <ele>463</ele>
        <time>2020-09-16T06:59:44Z</time>
      </trkpt>
      <trkpt lat="45.48518" lon="5.39898">
        <ele>462</ele>
        <time>2020-09-16T06:59:51Z</time>
      </trkpt>
      <trkpt lat="45.48539" lon="5.39817">
        <ele>463</ele>
        <time>2020-09-16T07:00:02Z</time>
      </trkpt>
      <trkpt lat="45.48547" lon="5.39789">
        <ele>464</ele>
        <time>2020-09-16T07:00:06Z</time>
      </trkpt>
      <trkpt lat="45.48586" lon="5.39709">
        <ele>462</ele>
        <time>2020-09-16T07:00:18Z</time>
      </trkpt>
      <trkpt lat="45.48831" lon="5.39227">
        <ele>444</ele>
        <time>2020-09-16T07:01:32Z</time>
      </trkpt>
      <trkpt lat="45.48834" lon="5.39221">
        <ele>444</ele>
        <time>2020-09-16T07:01:33Z</time>
      </trkpt>
      <trkpt lat="45.48965" lon="5.38966">
        <ele>448</ele>
        <time>2020-09-16T07:02:13Z</time>
      </trkpt>
      <trkpt lat="45.49015" lon="5.38868">
        <ele>453</ele>
        <time>2020-09-16T07:02:28Z</time>
      </trkpt>
      <trkpt lat="45.49083" lon="5.38734">
        <ele>459</ele>
        <time>2020-09-16T07:02:48Z</time>
      </trkpt>
      <trkpt lat="45.49092" lon="5.38716">
        <ele>460</ele>
        <time>2020-09-16T07:02:51Z</time>
      </trkpt>
      <trkpt lat="45.49103" lon="5.38694">
        <ele>460</ele>
        <time>2020-09-16T07:02:55Z</time>
      </trkpt>
      <trkpt lat="45.49125" lon="5.38651">
        <ele>461</ele>
        <time>2020-09-16T07:03:01Z</time>
      </trkpt>
      <trkpt lat="45.49128" lon="5.38646">
        <ele>462</ele>
        <time>2020-09-16T07:03:02Z</time>
      </trkpt>
      <trkpt lat="45.49152" lon="5.38593">
        <ele>463</ele>
        <time>2020-09-16T07:03:10Z</time>
      </trkpt>
      <trkpt lat="45.49192" lon="5.38514">
        <ele>466</ele>
        <time>2020-09-16T07:03:22Z</time>
      </trkpt>
      <trkpt lat="45.49197" lon="5.38505">
        <ele>467</ele>
        <time>2020-09-16T07:03:23Z</time>
      </trkpt>
      <trkpt lat="45.49291" lon="5.38321">
        <ele>477</ele>
        <time>2020-09-16T07:03:52Z</time>
      </trkpt>
      <trkpt lat="45.493" lon="5.38309">
        <ele>478</ele>
        <time>2020-09-16T07:03:54Z</time>
      </trkpt>
      <trkpt lat="45.49303" lon="5.38302">
        <ele>478</ele>
        <time>2020-09-16T07:03:55Z</time>
      </trkpt>
      <trkpt lat="45.49305" lon="5.38303">
        <ele>478</ele>
        <time>2020-09-16T07:03:55Z</time>
      </trkpt>
      <trkpt lat="45.49308" lon="5.38302">
        <ele>478</ele>
        <time>2020-09-16T07:03:56Z</time>
      </trkpt>
      <trkpt lat="45.4931" lon="5.383">
        <ele>478</ele>
        <time>2020-09-16T07:03:56Z</time>
      </trkpt>
      <trkpt lat="45.49312" lon="5.38294">
        <ele>479</ele>
        <time>2020-09-16T07:03:57Z</time>
      </trkpt>
      <trkpt lat="45.49312" lon="5.38291">
        <ele>479</ele>
        <time>2020-09-16T07:03:58Z</time>
      </trkpt>
      <trkpt lat="45.49312" lon="5.38288">
        <ele>479</ele>
        <time>2020-09-16T07:03:58Z</time>
      </trkpt>
      <trkpt lat="45.49311" lon="5.38286">
        <ele>479</ele>
        <time>2020-09-16T07:03:58Z</time>
      </trkpt>
      <trkpt lat="45.49314" lon="5.3827">
        <ele>480</ele>
        <time>2020-09-16T07:04:00Z</time>
      </trkpt>
      <trkpt lat="45.49381" lon="5.38142">
        <ele>490</ele>
        <time>2020-09-16T07:04:20Z</time>
      </trkpt>
      <trkpt lat="45.49416" lon="5.38074">
        <ele>494</ele>
        <time>2020-09-16T07:04:31Z</time>
      </trkpt>
      <trkpt lat="45.4945" lon="5.38012">
        <ele>501</ele>
        <time>2020-09-16T07:04:41Z</time>
      </trkpt>
      <trkpt lat="45.49483" lon="5.3798">
        <ele>506</ele>
        <time>2020-09-16T07:04:48Z</time>
      </trkpt>
      <trkpt lat="45.49515" lon="5.37971">
        <ele>509</ele>
        <time>2020-09-16T07:04:54Z</time>
      </trkpt>
      <trkpt lat="45.49629" lon="5.37963">
        <ele>519</ele>
        <time>2020-09-16T07:05:14Z</time>
      </trkpt>
      <trkpt lat="45.49741" lon="5.37961">
        <ele>527</ele>
        <time>2020-09-16T07:05:34Z</time>
      </trkpt>
      <trkpt lat="45.49771" lon="5.37946">
        <ele>528</ele>
        <time>2020-09-16T07:05:39Z</time>
      </trkpt>
      <trkpt lat="45.49801" lon="5.37915">
        <ele>527</ele>
        <time>2020-09-16T07:05:46Z</time>
      </trkpt>
      <trkpt lat="45.4984" lon="5.37849">
        <ele>526</ele>
        <time>2020-09-16T07:05:57Z</time>
      </trkpt>
      <trkpt lat="45.49907" lon="5.37731">
        <ele>527</ele>
        <time>2020-09-16T07:06:16Z</time>
      </trkpt>
      <trkpt lat="45.49973" lon="5.3757">
        <ele>527</ele>
        <time>2020-09-16T07:06:39Z</time>
      </trkpt>
      <trkpt lat="45.49994" lon="5.37557">
        <ele>529</ele>
        <time>2020-09-16T07:06:43Z</time>
      </trkpt>
      <trkpt lat="45.5002" lon="5.3756">
        <ele>532</ele>
        <time>2020-09-16T07:06:48Z</time>
      </trkpt>
      <trkpt lat="45.50062" lon="5.37593">
        <ele>537</ele>
        <time>2020-09-16T07:06:56Z</time>
      </trkpt>
      <trkpt lat="45.50161" lon="5.37635">
        <ele>544</ele>
        <time>2020-09-16T07:07:15Z</time>
      </trkpt>
      <trkpt lat="45.50189" lon="5.37635">
        <ele>545</ele>
        <time>2020-09-16T07:07:20Z</time>
      </trkpt>
      <trkpt lat="45.50331" lon="5.3756">
        <ele>553</ele>
        <time>2020-09-16T07:07:47Z</time>
      </trkpt>
      <trkpt lat="45.50406" lon="5.37544">
        <ele>557</ele>
        <time>2020-09-16T07:08:00Z</time>
      </trkpt>
      <trkpt lat="45.50459" lon="5.37523">
        <ele>560</ele>
        <time>2020-09-16T07:08:10Z</time>
      </trkpt>
      <trkpt lat="45.50488" lon="5.37476">
        <ele>562</ele>
        <time>2020-09-16T07:08:18Z</time>
      </trkpt>
      <trkpt lat="45.50502" lon="5.37422">
        <ele>564</ele>
        <time>2020-09-16T07:08:25Z</time>
      </trkpt>
      <trkpt lat="45.50537" lon="5.37356">
        <ele>570</ele>
        <time>2020-09-16T07:08:35Z</time>
      </trkpt>
      <trkpt lat="45.50582" lon="5.37303">
        <ele>573</ele>
        <time>2020-09-16T07:08:45Z</time>
      </trkpt>
      <trkpt lat="45.50731" lon="5.3713">
        <ele>577</ele>
        <time>2020-09-16T07:09:20Z</time>
      </trkpt>
      <trkpt lat="45.50812" lon="5.37038">
        <ele>581</ele>
        <time>2020-09-16T07:09:38Z</time>
      </trkpt>
      <trkpt lat="45.50831" lon="5.37016">
        <ele>581</ele>
        <time>2020-09-16T07:09:42Z</time>
      </trkpt>
      <trkpt lat="45.50851" lon="5.36994">
        <ele>582</ele>
        <time>2020-09-16T07:09:47Z</time>
      </trkpt>
      <trkpt lat="45.50853" lon="5.36992">
        <ele>582</ele>
        <time>2020-09-16T07:09:47Z</time>
      </trkpt>
      <trkpt lat="45.50868" lon="5.36975">
        <ele>582</ele>
        <time>2020-09-16T07:09:51Z</time>
      </trkpt>
      <trkpt lat="45.50872" lon="5.36969">
        <ele>582</ele>
        <time>2020-09-16T07:09:52Z</time>
      </trkpt>
      <trkpt lat="45.50884" lon="5.36952">
        <ele>582</ele>
        <time>2020-09-16T07:09:55Z</time>
      </trkpt>
      <trkpt lat="45.50894" lon="5.36922">
        <ele>582</ele>
        <time>2020-09-16T07:09:59Z</time>
      </trkpt>
      <trkpt lat="45.50904" lon="5.36847">
        <ele>581</ele>
        <time>2020-09-16T07:10:08Z</time>
      </trkpt>
      <trkpt lat="45.51049" lon="5.35618">
        <ele>568</ele>
        <time>2020-09-16T07:12:44Z</time>
      </trkpt>
      <trkpt lat="45.51115" lon="5.35086">
        <ele>568</ele>
        <time>2020-09-16T07:13:51Z</time>
      </trkpt>
      <trkpt lat="45.51116" lon="5.35052">
        <ele>568</ele>
        <time>2020-09-16T07:13:55Z</time>
      </trkpt>
      <trkpt lat="45.51114" lon="5.35">
        <ele>568</ele>
        <time>2020-09-16T07:14:02Z</time>
      </trkpt>
      <trkpt lat="45.51103" lon="5.34924">
        <ele>566</ele>
        <time>2020-09-16T07:14:12Z</time>
      </trkpt>
      <trkpt lat="45.51101" lon="5.34822">
        <ele>560</ele>
        <time>2020-09-16T07:14:24Z</time>
      </trkpt>
      <trkpt lat="45.51107" lon="5.34786">
        <ele>557</ele>
        <time>2020-09-16T07:14:29Z</time>
      </trkpt>
      <trkpt lat="45.5113" lon="5.34753">
        <ele>556</ele>
        <time>2020-09-16T07:14:35Z</time>
      </trkpt>
      <trkpt lat="45.51154" lon="5.3473">
        <ele>554</ele>
        <time>2020-09-16T07:14:40Z</time>
      </trkpt>
      <trkpt lat="45.51222" lon="5.34697">
        <ele>550</ele>
        <time>2020-09-16T07:14:53Z</time>
      </trkpt>
      <trkpt lat="45.51242" lon="5.34689">
        <ele>548</ele>
        <time>2020-09-16T07:14:56Z</time>
      </trkpt>
      <trkpt lat="45.51268" lon="5.34684">
        <ele>546</ele>
        <time>2020-09-16T07:15:01Z</time>
      </trkpt>
      <trkpt lat="45.51379" lon="5.34681">
        <ele>536</ele>
        <time>2020-09-16T07:15:21Z</time>
      </trkpt>
      <trkpt lat="45.514" lon="5.34671">
        <ele>533</ele>
        <time>2020-09-16T07:15:25Z</time>
      </trkpt>
      <trkpt lat="45.5142" lon="5.3465">
        <ele>531</ele>
        <time>2020-09-16T07:15:29Z</time>
      </trkpt>
      <trkpt lat="45.51684" lon="5.34218">
        <ele>512</ele>
        <time>2020-09-16T07:16:41Z</time>
      </trkpt>
      <trkpt lat="45.51724" lon="5.34152">
        <ele>509</ele>
        <time>2020-09-16T07:16:52Z</time>
      </trkpt>
      <trkpt lat="45.51802" lon="5.34027">
        <ele>504</ele>
        <time>2020-09-16T07:17:12Z</time>
      </trkpt>
      <trkpt lat="45.51922" lon="5.33829">
        <ele>504</ele>
        <time>2020-09-16T07:17:45Z</time>
      </trkpt>
      <trkpt lat="45.52126" lon="5.33492">
        <ele>496</ele>
        <time>2020-09-16T07:18:41Z</time>
      </trkpt>
      <trkpt lat="45.52242" lon="5.33294">
        <ele>489</ele>
        <time>2020-09-16T07:19:13Z</time>
      </trkpt>
      <trkpt lat="45.52292" lon="5.33204">
        <ele>489</ele>
        <time>2020-09-16T07:19:27Z</time>
      </trkpt>
      <trkpt lat="45.52317" lon="5.33158">
        <ele>490</ele>
        <time>2020-09-16T07:19:34Z</time>
      </trkpt>
      <trkpt lat="45.52327" lon="5.33129">
        <ele>490</ele>
        <time>2020-09-16T07:19:38Z</time>
      </trkpt>
      <trkpt lat="45.52334" lon="5.33093">
        <ele>490</ele>
        <time>2020-09-16T07:19:43Z</time>
      </trkpt>
      <trkpt lat="45.52339" lon="5.33069">
        <ele>490</ele>
        <time>2020-09-16T07:19:46Z</time>
      </trkpt>
      <trkpt lat="45.52348" lon="5.33032">
        <ele>488</ele>
        <time>2020-09-16T07:19:51Z</time>
      </trkpt>
      <trkpt lat="45.52369" lon="5.32996">
        <ele>487</ele>
        <time>2020-09-16T07:19:57Z</time>
      </trkpt>
      <trkpt lat="45.5241" lon="5.32961">
        <ele>485</ele>
        <time>2020-09-16T07:20:05Z</time>
      </trkpt>
      <trkpt lat="45.52441" lon="5.32918">
        <ele>482</ele>
        <time>2020-09-16T07:20:13Z</time>
      </trkpt>
      <trkpt lat="45.52517" lon="5.32756">
        <ele>472</ele>
        <time>2020-09-16T07:20:37Z</time>
      </trkpt>
      <trkpt lat="45.52534" lon="5.32728">
        <ele>471</ele>
        <time>2020-09-16T07:20:42Z</time>
      </trkpt>
      <trkpt lat="45.52565" lon="5.32706">
        <ele>470</ele>
        <time>2020-09-16T07:20:48Z</time>
      </trkpt>
      <trkpt lat="45.52665" lon="5.32691">
        <ele>465</ele>
        <time>2020-09-16T07:21:06Z</time>
      </trkpt>
      <trkpt lat="45.52698" lon="5.32693">
        <ele>463</ele>
        <time>2020-09-16T07:21:12Z</time>
      </trkpt>
      <trkpt lat="45.52753" lon="5.3272">
        <ele>459</ele>
        <time>2020-09-16T07:21:22Z</time>
      </trkpt>
      <trkpt lat="45.52768" lon="5.32727">
        <ele>459</ele>
        <time>2020-09-16T07:21:25Z</time>
      </trkpt>
      <trkpt lat="45.52787" lon="5.32732">
        <ele>459</ele>
        <time>2020-09-16T07:21:28Z</time>
      </trkpt>
      <trkpt lat="45.52804" lon="5.32727">
        <ele>459</ele>
        <time>2020-09-16T07:21:32Z</time>
      </trkpt>
      <trkpt lat="45.52885" lon="5.32654">
        <ele>457</ele>
        <time>2020-09-16T07:21:49Z</time>
      </trkpt>
      <trkpt lat="45.52958" lon="5.3258">
        <ele>457</ele>
        <time>2020-09-16T07:22:05Z</time>
      </trkpt>
      <trkpt lat="45.52969" lon="5.32555">
        <ele>458</ele>
        <time>2020-09-16T07:22:08Z</time>
      </trkpt>
      <trkpt lat="45.52972" lon="5.32523">
        <ele>458</ele>
        <time>2020-09-16T07:22:12Z</time>
      </trkpt>
      <trkpt lat="45.52973" lon="5.3248">
        <ele>456</ele>
        <time>2020-09-16T07:22:18Z</time>
      </trkpt>
      <trkpt lat="45.5298" lon="5.32444">
        <ele>454</ele>
        <time>2020-09-16T07:22:22Z</time>
      </trkpt>
      <trkpt lat="45.53008" lon="5.32359">
        <ele>446</ele>
        <time>2020-09-16T07:22:34Z</time>
      </trkpt>
      <trkpt lat="45.53022" lon="5.32332">
        <ele>445</ele>
        <time>2020-09-16T07:22:38Z</time>
      </trkpt>
      <trkpt lat="45.53064" lon="5.32299">
        <ele>442</ele>
        <time>2020-09-16T07:22:47Z</time>
      </trkpt>
      <trkpt lat="45.53071" lon="5.32277">
        <ele>439</ele>
        <time>2020-09-16T07:22:50Z</time>
      </trkpt>
      <trkpt lat="45.53073" lon="5.32227">
        <ele>436</ele>
        <time>2020-09-16T07:22:56Z</time>
      </trkpt>
      <trkpt lat="45.53078" lon="5.32188">
        <ele>435</ele>
        <time>2020-09-16T07:23:01Z</time>
      </trkpt>
      <trkpt lat="45.53088" lon="5.32159">
        <ele>434</ele>
        <time>2020-09-16T07:23:05Z</time>
      </trkpt>
      <trkpt lat="45.53134" lon="5.32084">
        <ele>433</ele>
        <time>2020-09-16T07:23:17Z</time>
      </trkpt>
      <trkpt lat="45.53143" lon="5.32052">
        <ele>432</ele>
        <time>2020-09-16T07:23:22Z</time>
      </trkpt>
      <trkpt lat="45.53144" lon="5.32024">
        <ele>430</ele>
        <time>2020-09-16T07:23:25Z</time>
      </trkpt>
      <trkpt lat="45.5314" lon="5.3195">
        <ele>427</ele>
        <time>2020-09-16T07:23:34Z</time>
      </trkpt>
      <trkpt lat="45.53144" lon="5.31907">
        <ele>425</ele>
        <time>2020-09-16T07:23:40Z</time>
      </trkpt>
      <trkpt lat="45.53184" lon="5.31787">
        <ele>411</ele>
        <time>2020-09-16T07:23:56Z</time>
      </trkpt>
      <trkpt lat="45.53204" lon="5.31762">
        <ele>408</ele>
        <time>2020-09-16T07:24:01Z</time>
      </trkpt>
      <trkpt lat="45.53244" lon="5.31736">
        <ele>408</ele>
        <time>2020-09-16T07:24:09Z</time>
      </trkpt>
      <trkpt lat="45.53272" lon="5.31725">
        <ele>407</ele>
        <time>2020-09-16T07:24:14Z</time>
      </trkpt>
      <trkpt lat="45.53322" lon="5.31722">
        <ele>407</ele>
        <time>2020-09-16T07:24:23Z</time>
      </trkpt>
      <trkpt lat="45.53349" lon="5.31719">
        <ele>406</ele>
        <time>2020-09-16T07:24:28Z</time>
      </trkpt>
      <trkpt lat="45.53365" lon="5.31713">
        <ele>404</ele>
        <time>2020-09-16T07:24:31Z</time>
      </trkpt>
      <trkpt lat="45.53373" lon="5.3171">
        <ele>404</ele>
        <time>2020-09-16T07:24:32Z</time>
      </trkpt>
      <trkpt lat="45.5338" lon="5.31704">
        <ele>402</ele>
        <time>2020-09-16T07:24:34Z</time>
      </trkpt>
      <trkpt lat="45.53543" lon="5.3157">
        <ele>383</ele>
        <time>2020-09-16T07:25:07Z</time>
      </trkpt>
      <trkpt lat="45.53564" lon="5.31539">
        <ele>383</ele>
        <time>2020-09-16T07:25:13Z</time>
      </trkpt>
      <trkpt lat="45.53577" lon="5.31503">
        <ele>380</ele>
        <time>2020-09-16T07:25:18Z</time>
      </trkpt>
      <trkpt lat="45.53622" lon="5.31349">
        <ele>366</ele>
        <time>2020-09-16T07:25:38Z</time>
      </trkpt>
      <trkpt lat="45.53666" lon="5.31294">
        <ele>360</ele>
        <time>2020-09-16T07:25:49Z</time>
      </trkpt>
      <trkpt lat="45.53677" lon="5.3128">
        <ele>359</ele>
        <time>2020-09-16T07:25:51Z</time>
      </trkpt>
      <trkpt lat="45.53826" lon="5.31106">
        <ele>349</ele>
        <time>2020-09-16T07:26:26Z</time>
      </trkpt>
      <trkpt lat="45.53877" lon="5.31052">
        <ele>349</ele>
        <time>2020-09-16T07:26:37Z</time>
      </trkpt>
      <trkpt lat="45.53892" lon="5.31028">
        <ele>350</ele>
        <time>2020-09-16T07:26:41Z</time>
      </trkpt>
      <trkpt lat="45.53895" lon="5.31017">
        <ele>350</ele>
        <time>2020-09-16T07:26:42Z</time>
      </trkpt>
      <trkpt lat="45.53897" lon="5.3101">
        <ele>351</ele>
        <time>2020-09-16T07:26:43Z</time>
      </trkpt>
      <trkpt lat="45.53939" lon="5.31016">
        <ele>351</ele>
        <time>2020-09-16T07:26:51Z</time>
      </trkpt>
      <trkpt lat="45.53966" lon="5.3102">
        <ele>351</ele>
        <time>2020-09-16T07:26:56Z</time>
      </trkpt>
      <trkpt lat="45.54167" lon="5.31051">
        <ele>349</ele>
        <time>2020-09-16T07:27:32Z</time>
      </trkpt>
      <trkpt lat="45.54238" lon="5.31063">
        <ele>346</ele>
        <time>2020-09-16T07:27:44Z</time>
      </trkpt>
      <trkpt lat="45.54301" lon="5.31067">
        <ele>345</ele>
        <time>2020-09-16T07:27:56Z</time>
      </trkpt>
      <trkpt lat="45.54363" lon="5.31061">
        <ele>344</ele>
        <time>2020-09-16T07:28:07Z</time>
      </trkpt>
      <trkpt lat="45.54388" lon="5.31057">
        <ele>344</ele>
        <time>2020-09-16T07:28:11Z</time>
      </trkpt>
      <trkpt lat="45.54452" lon="5.31045">
        <ele>343</ele>
        <time>2020-09-16T07:28:23Z</time>
      </trkpt>
      <trkpt lat="45.54522" lon="5.31035">
        <ele>342</ele>
        <time>2020-09-16T07:28:35Z</time>
      </trkpt>
      <trkpt lat="45.54605" lon="5.31021">
        <ele>342</ele>
        <time>2020-09-16T07:28:50Z</time>
      </trkpt>
      <trkpt lat="45.54668" lon="5.31007">
        <ele>338</ele>
        <time>2020-09-16T07:29:01Z</time>
      </trkpt>
      <trkpt lat="45.54689" lon="5.30999">
        <ele>337</ele>
        <time>2020-09-16T07:29:05Z</time>
      </trkpt>
      <trkpt lat="45.54694" lon="5.30997">
        <ele>337</ele>
        <time>2020-09-16T07:29:06Z</time>
      </trkpt>
      <trkpt lat="45.547" lon="5.30995">
        <ele>337</ele>
        <time>2020-09-16T07:29:07Z</time>
      </trkpt>
      <trkpt lat="45.54742" lon="5.3098">
        <ele>336</ele>
        <time>2020-09-16T07:29:15Z</time>
      </trkpt>
      <trkpt lat="45.54875" lon="5.30925">
        <ele>323</ele>
        <time>2020-09-16T07:29:40Z</time>
      </trkpt>
      <trkpt lat="45.54905" lon="5.30912">
        <ele>321</ele>
        <time>2020-09-16T07:29:45Z</time>
      </trkpt>
      <trkpt lat="45.54945" lon="5.30898">
        <ele>319</ele>
        <time>2020-09-16T07:29:53Z</time>
      </trkpt>
      <trkpt lat="45.54995" lon="5.30876">
        <ele>316</ele>
        <time>2020-09-16T07:30:02Z</time>
      </trkpt>
      <trkpt lat="45.55007" lon="5.30868">
        <ele>316</ele>
        <time>2020-09-16T07:30:04Z</time>
      </trkpt>
      <trkpt lat="45.55023" lon="5.30857">
        <ele>317</ele>
        <time>2020-09-16T07:30:07Z</time>
      </trkpt>
      <trkpt lat="45.55029" lon="5.30853">
        <ele>317</ele>
        <time>2020-09-16T07:30:09Z</time>
      </trkpt>
      <trkpt lat="45.55038" lon="5.30846">
        <ele>317</ele>
        <time>2020-09-16T07:30:10Z</time>
      </trkpt>
      <trkpt lat="45.55068" lon="5.30817">
        <ele>317</ele>
        <time>2020-09-16T07:30:17Z</time>
      </trkpt>
      <trkpt lat="45.55086" lon="5.30798">
        <ele>317</ele>
        <time>2020-09-16T07:30:21Z</time>
      </trkpt>
      <trkpt lat="45.5511" lon="5.30773">
        <ele>320</ele>
        <time>2020-09-16T07:30:26Z</time>
      </trkpt>
      <trkpt lat="45.55127" lon="5.30754">
        <ele>320</ele>
        <time>2020-09-16T07:30:30Z</time>
      </trkpt>
      <trkpt lat="45.55148" lon="5.30731">
        <ele>321</ele>
        <time>2020-09-16T07:30:35Z</time>
      </trkpt>
      <trkpt lat="45.5521" lon="5.30672">
        <ele>319</ele>
        <time>2020-09-16T07:30:48Z</time>
      </trkpt>
      <trkpt lat="45.55234" lon="5.30655">
        <ele>318</ele>
        <time>2020-09-16T07:30:53Z</time>
      </trkpt>
      <trkpt lat="45.55257" lon="5.30645">
        <ele>318</ele>
        <time>2020-09-16T07:30:57Z</time>
      </trkpt>
      <trkpt lat="45.55673" lon="5.30501">
        <ele>302</ele>
        <time>2020-09-16T07:32:13Z</time>
      </trkpt>
      <trkpt lat="45.55718" lon="5.30488">
        <ele>301</ele>
        <time>2020-09-16T07:32:21Z</time>
      </trkpt>
      <trkpt lat="45.55773" lon="5.30479">
        <ele>300</ele>
        <time>2020-09-16T07:32:31Z</time>
      </trkpt>
      <trkpt lat="45.55799" lon="5.30473">
        <ele>299</ele>
        <time>2020-09-16T07:32:36Z</time>
      </trkpt>
      <trkpt lat="45.55888" lon="5.30455">
        <ele>297</ele>
        <time>2020-09-16T07:32:52Z</time>
      </trkpt>
      <trkpt lat="45.55908" lon="5.3045">
        <ele>296</ele>
        <time>2020-09-16T07:32:55Z</time>
      </trkpt>
      <trkpt lat="45.55921" lon="5.30447">
        <ele>296</ele>
        <time>2020-09-16T07:32:58Z</time>
      </trkpt>
      <trkpt lat="45.55928" lon="5.30445">
        <ele>295</ele>
        <time>2020-09-16T07:32:59Z</time>
      </trkpt>
      <trkpt lat="45.55949" lon="5.30441">
        <ele>295</ele>
        <time>2020-09-16T07:33:03Z</time>
      </trkpt>
      <trkpt lat="45.56017" lon="5.30428">
        <ele>293</ele>
        <time>2020-09-16T07:33:15Z</time>
      </trkpt>
      <trkpt lat="45.56102" lon="5.3041">
        <ele>292</ele>
        <time>2020-09-16T07:33:30Z</time>
      </trkpt>
      <trkpt lat="45.56112" lon="5.30408">
        <ele>292</ele>
        <time>2020-09-16T07:33:32Z</time>
      </trkpt>
      <trkpt lat="45.56167" lon="5.30395">
        <ele>288</ele>
        <time>2020-09-16T07:33:42Z</time>
      </trkpt>
      <trkpt lat="45.56193" lon="5.30389">
        <ele>287</ele>
        <time>2020-09-16T07:33:47Z</time>
      </trkpt>
      <trkpt lat="45.56201" lon="5.30391">
        <ele>287</ele>
        <time>2020-09-16T07:33:48Z</time>
      </trkpt>
      <trkpt lat="45.56216" lon="5.30386">
        <ele>286</ele>
        <time>2020-09-16T07:33:51Z</time>
      </trkpt>
      <trkpt lat="45.56228" lon="5.30389">
        <ele>286</ele>
        <time>2020-09-16T07:33:53Z</time>
      </trkpt>
      <trkpt lat="45.56234" lon="5.30392">
        <ele>286</ele>
        <time>2020-09-16T07:33:54Z</time>
      </trkpt>
      <trkpt lat="45.56239" lon="5.30401">
        <ele>286</ele>
        <time>2020-09-16T07:33:56Z</time>
      </trkpt>
      <trkpt lat="45.56245" lon="5.30407">
        <ele>285</ele>
        <time>2020-09-16T07:33:57Z</time>
      </trkpt>
      <trkpt lat="45.56252" lon="5.3041">
        <ele>285</ele>
        <time>2020-09-16T07:33:58Z</time>
      </trkpt>
      <trkpt lat="45.56259" lon="5.30409">
        <ele>285</ele>
        <time>2020-09-16T07:33:59Z</time>
      </trkpt>
      <trkpt lat="45.56268" lon="5.30403">
        <ele>285</ele>
        <time>2020-09-16T07:34:01Z</time>
      </trkpt>
      <trkpt lat="45.56274" lon="5.30391">
        <ele>285</ele>
        <time>2020-09-16T07:34:03Z</time>
      </trkpt>
      <trkpt lat="45.56276" lon="5.30376">
        <ele>285</ele>
        <time>2020-09-16T07:34:05Z</time>
      </trkpt>
      <trkpt lat="45.56305" lon="5.30367">
        <ele>286</ele>
        <time>2020-09-16T07:34:10Z</time>
      </trkpt>
      <trkpt lat="45.56346" lon="5.30361">
        <ele>285</ele>
        <time>2020-09-16T07:34:18Z</time>
      </trkpt>
      <trkpt lat="45.56356" lon="5.30356">
        <ele>285</ele>
        <time>2020-09-16T07:34:19Z</time>
      </trkpt>
      <trkpt lat="45.56378" lon="5.30352">
        <ele>284</ele>
        <time>2020-09-16T07:34:23Z</time>
      </trkpt>
      <trkpt lat="45.56379" lon="5.30351">
        <ele>284</ele>
        <time>2020-09-16T07:34:24Z</time>
      </trkpt>
      <trkpt lat="45.56392" lon="5.30348">
        <ele>284</ele>
        <time>2020-09-16T07:34:26Z</time>
      </trkpt>
      <trkpt lat="45.57245" lon="5.30167">
        <ele>269</ele>
        <time>2020-09-16T07:36:59Z</time>
      </trkpt>
      <trkpt lat="45.57312" lon="5.30158">
        <ele>268</ele>
        <time>2020-09-16T07:37:11Z</time>
      </trkpt>
      <trkpt lat="45.57348" lon="5.30162">
        <ele>268</ele>
        <time>2020-09-16T07:37:18Z</time>
      </trkpt>
      <trkpt lat="45.57351" lon="5.30169">
        <ele>268</ele>
        <time>2020-09-16T07:37:19Z</time>
      </trkpt>
      <trkpt lat="45.57355" lon="5.30174">
        <ele>268</ele>
        <time>2020-09-16T07:37:20Z</time>
      </trkpt>
      <trkpt lat="45.57361" lon="5.30176">
        <ele>268</ele>
        <time>2020-09-16T07:37:21Z</time>
      </trkpt>
      <trkpt lat="45.57369" lon="5.30172">
        <ele>268</ele>
        <time>2020-09-16T07:37:22Z</time>
      </trkpt>
      <trkpt lat="45.57373" lon="5.30168">
        <ele>268</ele>
        <time>2020-09-16T07:37:23Z</time>
      </trkpt>
      <trkpt lat="45.57414" lon="5.30174">
        <ele>267</ele>
        <time>2020-09-16T07:37:31Z</time>
      </trkpt>
      <trkpt lat="45.57499" lon="5.30181">
        <ele>266</ele>
        <time>2020-09-16T07:37:46Z</time>
      </trkpt>
      <trkpt lat="45.57632" lon="5.30194">
        <ele>264</ele>
        <time>2020-09-16T07:38:09Z</time>
      </trkpt>
      <trkpt lat="45.57635" lon="5.30194">
        <ele>264</ele>
        <time>2020-09-16T07:38:10Z</time>
      </trkpt>
      <trkpt lat="45.5766" lon="5.30196">
        <ele>263</ele>
        <time>2020-09-16T07:38:14Z</time>
      </trkpt>
      <trkpt lat="45.57703" lon="5.30196">
        <ele>261</ele>
        <time>2020-09-16T07:38:22Z</time>
      </trkpt>
      <trkpt lat="45.57727" lon="5.30196">
        <ele>261</ele>
        <time>2020-09-16T07:38:26Z</time>
      </trkpt>
      <trkpt lat="45.57748" lon="5.3019">
        <ele>260</ele>
        <time>2020-09-16T07:38:30Z</time>
      </trkpt>
      <trkpt lat="45.5777" lon="5.30183">
        <ele>260</ele>
        <time>2020-09-16T07:38:34Z</time>
      </trkpt>
      <trkpt lat="45.57798" lon="5.30167">
        <ele>261</ele>
        <time>2020-09-16T07:38:40Z</time>
      </trkpt>
      <trkpt lat="45.57815" lon="5.30159">
        <ele>261</ele>
        <time>2020-09-16T07:38:43Z</time>
      </trkpt>
      <trkpt lat="45.57864" lon="5.30126">
        <ele>260</ele>
        <time>2020-09-16T07:38:52Z</time>
      </trkpt>
      <trkpt lat="45.57885" lon="5.30106">
        <ele>259</ele>
        <time>2020-09-16T07:38:57Z</time>
      </trkpt>
      <trkpt lat="45.57935" lon="5.30044">
        <ele>259</ele>
        <time>2020-09-16T07:39:09Z</time>
      </trkpt>
      <trkpt lat="45.57952" lon="5.30026">
        <ele>259</ele>
        <time>2020-09-16T07:39:12Z</time>
      </trkpt>
      <trkpt lat="45.5799" lon="5.29982">
        <ele>261</ele>
        <time>2020-09-16T07:39:21Z</time>
      </trkpt>
      <trkpt lat="45.57997" lon="5.29974">
        <ele>262</ele>
        <time>2020-09-16T07:39:23Z</time>
      </trkpt>
      <trkpt lat="45.58004" lon="5.29963">
        <ele>263</ele>
        <time>2020-09-16T07:39:25Z</time>
      </trkpt>
      <trkpt lat="45.58013" lon="5.29948">
        <ele>265</ele>
        <time>2020-09-16T07:39:27Z</time>
      </trkpt>
      <trkpt lat="45.58056" lon="5.29886">
        <ele>264</ele>
        <time>2020-09-16T07:39:38Z</time>
      </trkpt>
      <trkpt lat="45.58072" lon="5.29861">
        <ele>262</ele>
        <time>2020-09-16T07:39:42Z</time>
      </trkpt>
      <trkpt lat="45.58074" lon="5.29854">
        <ele>262</ele>
        <time>2020-09-16T07:39:43Z</time>
      </trkpt>
      <trkpt lat="45.58079" lon="5.29841">
        <ele>261</ele>
        <time>2020-09-16T07:39:45Z</time>
      </trkpt>
      <trkpt lat="45.58089" lon="5.29827">
        <ele>261</ele>
        <time>2020-09-16T07:39:47Z</time>
      </trkpt>
      <trkpt lat="45.58121" lon="5.29784">
        <ele>262</ele>
        <time>2020-09-16T07:39:55Z</time>
      </trkpt>
      <trkpt lat="45.58138" lon="5.29759">
        <ele>261</ele>
        <time>2020-09-16T07:40:00Z</time>
      </trkpt>
      <trkpt lat="45.58165" lon="5.29718">
        <ele>259</ele>
        <time>2020-09-16T07:40:07Z</time>
      </trkpt>
      <trkpt lat="45.58176" lon="5.29699">
        <ele>259</ele>
        <time>2020-09-16T07:40:10Z</time>
      </trkpt>
      <trkpt lat="45.58189" lon="5.2969">
        <ele>259</ele>
        <time>2020-09-16T07:40:12Z</time>
      </trkpt>
      <trkpt lat="45.58203" lon="5.29676">
        <ele>259</ele>
        <time>2020-09-16T07:40:15Z</time>
      </trkpt>
      <trkpt lat="45.58222" lon="5.29666">
        <ele>257</ele>
        <time>2020-09-16T07:40:19Z</time>
      </trkpt>
      <trkpt lat="45.58246" lon="5.29662">
        <ele>255</ele>
        <time>2020-09-16T07:40:23Z</time>
      </trkpt>
      <trkpt lat="45.5834" lon="5.29694">
        <ele>255</ele>
        <time>2020-09-16T07:40:40Z</time>
      </trkpt>
      <trkpt lat="45.58361" lon="5.29712">
        <ele>256</ele>
        <time>2020-09-16T07:40:45Z</time>
      </trkpt>
      <trkpt lat="45.58369" lon="5.29724">
        <ele>256</ele>
        <time>2020-09-16T07:40:47Z</time>
      </trkpt>
      <trkpt lat="45.58385" lon="5.29721">
        <ele>256</ele>
        <time>2020-09-16T07:40:50Z</time>
      </trkpt>
      <trkpt lat="45.58385" lon="5.29697">
        <ele>255</ele>
        <time>2020-09-16T07:40:53Z</time>
      </trkpt>
      <trkpt lat="45.58388" lon="5.29693">
        <ele>255</ele>
        <time>2020-09-16T07:40:53Z</time>
      </trkpt>
      <trkpt lat="45.58387" lon="5.29685">
        <ele>255</ele>
        <time>2020-09-16T07:40:54Z</time>
      </trkpt>
      <trkpt lat="45.58391" lon="5.29681">
        <ele>255</ele>
        <time>2020-09-16T07:40:55Z</time>
      </trkpt>
      <trkpt lat="45.58395" lon="5.29681">
        <ele>255</ele>
        <time>2020-09-16T07:40:56Z</time>
      </trkpt>
      <trkpt lat="45.58395" lon="5.29675">
        <ele>255</ele>
        <time>2020-09-16T07:40:57Z</time>
      </trkpt>
      <trkpt lat="45.58404" lon="5.29675">
        <ele>255</ele>
        <time>2020-09-16T07:40:58Z</time>
      </trkpt>
      <trkpt lat="45.58399" lon="5.29675">
        <ele>255</ele>
        <time>2020-09-16T07:40:59Z</time>
      </trkpt>
      <trkpt lat="45.58393" lon="5.29192">
        <ele>254</ele>
        <time>2020-09-16T07:41:59Z</time>
      </trkpt>
      <trkpt lat="45.58395" lon="5.29129">
        <ele>253</ele>
        <time>2020-09-16T07:42:07Z</time>
      </trkpt>
      <trkpt lat="45.58396" lon="5.29001">
        <ele>252</ele>
        <time>2020-09-16T07:42:23Z</time>
      </trkpt>
      <trkpt lat="45.58404" lon="5.28938">
        <ele>252</ele>
        <time>2020-09-16T07:42:31Z</time>
      </trkpt>
      <trkpt lat="45.58446" lon="5.28694">
        <ele>253</ele>
        <time>2020-09-16T07:43:02Z</time>
      </trkpt>
      <trkpt lat="45.58448" lon="5.28646">
        <ele>253</ele>
        <time>2020-09-16T07:43:08Z</time>
      </trkpt>
      <trkpt lat="45.58447" lon="5.28543">
        <ele>254</ele>
        <time>2020-09-16T07:43:21Z</time>
      </trkpt>
      <trkpt lat="45.58439" lon="5.28373">
        <ele>255</ele>
        <time>2020-09-16T07:43:42Z</time>
      </trkpt>
      <trkpt lat="45.58441" lon="5.28268">
        <ele>255</ele>
        <time>2020-09-16T07:43:55Z</time>
      </trkpt>
      <trkpt lat="45.58448" lon="5.28065">
        <ele>259</ele>
        <time>2020-09-16T07:44:21Z</time>
      </trkpt>
      <trkpt lat="45.58455" lon="5.27826">
        <ele>265</ele>
        <time>2020-09-16T07:44:51Z</time>
      </trkpt>
      <trkpt lat="45.58462" lon="5.27699">
        <ele>260</ele>
        <time>2020-09-16T07:45:06Z</time>
      </trkpt>
      <trkpt lat="45.58469" lon="5.27648">
        <ele>258</ele>
        <time>2020-09-16T07:45:13Z</time>
      </trkpt>
      <trkpt lat="45.5849" lon="5.27532">
        <ele>254</ele>
        <time>2020-09-16T07:45:28Z</time>
      </trkpt>
      <trkpt lat="45.58504" lon="5.27518">
        <ele>253</ele>
        <time>2020-09-16T07:45:31Z</time>
      </trkpt>
      <trkpt lat="45.58511" lon="5.27459">
        <ele>252</ele>
        <time>2020-09-16T07:45:38Z</time>
      </trkpt>
      <trkpt lat="45.58512" lon="5.27424">
        <ele>251</ele>
        <time>2020-09-16T07:45:43Z</time>
      </trkpt>
      <trkpt lat="45.58511" lon="5.27417">
        <ele>251</ele>
        <time>2020-09-16T07:45:44Z</time>
      </trkpt>
      <trkpt lat="45.58506" lon="5.27408">
        <ele>251</ele>
        <time>2020-09-16T07:45:45Z</time>
      </trkpt>
      <trkpt lat="45.58507" lon="5.27395">
        <ele>251</ele>
        <time>2020-09-16T07:45:47Z</time>
      </trkpt>
      <trkpt lat="45.58509" lon="5.27345">
        <ele>251</ele>
        <time>2020-09-16T07:45:53Z</time>
      </trkpt>
      <trkpt lat="45.5851" lon="5.27323">
        <ele>251</ele>
        <time>2020-09-16T07:45:56Z</time>
      </trkpt>
      <trkpt lat="45.58511" lon="5.273">
        <ele>251</ele>
        <time>2020-09-16T07:45:58Z</time>
      </trkpt>
      <trkpt lat="45.58516" lon="5.27182">
        <ele>251</ele>
        <time>2020-09-16T07:46:13Z</time>
      </trkpt>
      <trkpt lat="45.58519" lon="5.27152">
        <ele>251</ele>
        <time>2020-09-16T07:46:17Z</time>
      </trkpt>
      <trkpt lat="45.58527" lon="5.27095">
        <ele>250</ele>
        <time>2020-09-16T07:46:24Z</time>
      </trkpt>
      <trkpt lat="45.5853" lon="5.27076">
        <ele>250</ele>
        <time>2020-09-16T07:46:27Z</time>
      </trkpt>
      <trkpt lat="45.58532" lon="5.27064">
        <ele>250</ele>
        <time>2020-09-16T07:46:28Z</time>
      </trkpt>
      <trkpt lat="45.58549" lon="5.26939">
        <ele>249</ele>
        <time>2020-09-16T07:46:44Z</time>
      </trkpt>
      <trkpt lat="45.58553" lon="5.26925">
        <ele>249</ele>
        <time>2020-09-16T07:46:46Z</time>
      </trkpt>
      <trkpt lat="45.58558" lon="5.26922">
        <ele>248</ele>
        <time>2020-09-16T07:46:47Z</time>
      </trkpt>
      <trkpt lat="45.58562" lon="5.26917">
        <ele>248</ele>
        <time>2020-09-16T07:46:48Z</time>
      </trkpt>
      <trkpt lat="45.58565" lon="5.26911">
        <ele>248</ele>
        <time>2020-09-16T07:46:49Z</time>
      </trkpt>
      <trkpt lat="45.58565" lon="5.26902">
        <ele>248</ele>
        <time>2020-09-16T07:46:50Z</time>
      </trkpt>
      <trkpt lat="45.58564" lon="5.26894">
        <ele>247</ele>
        <time>2020-09-16T07:46:51Z</time>
      </trkpt>
      <trkpt lat="45.58559" lon="5.26887">
        <ele>248</ele>
        <time>2020-09-16T07:46:52Z</time>
      </trkpt>
      <trkpt lat="45.5856" lon="5.26872">
        <ele>247</ele>
        <time>2020-09-16T07:46:54Z</time>
      </trkpt>
      <trkpt lat="45.5856" lon="5.26862">
        <ele>247</ele>
        <time>2020-09-16T07:46:55Z</time>
      </trkpt>
      <trkpt lat="45.58563" lon="5.26834">
        <ele>246</ele>
        <time>2020-09-16T07:46:59Z</time>
      </trkpt>
      <trkpt lat="45.58566" lon="5.26822">
        <ele>246</ele>
        <time>2020-09-16T07:47:00Z</time>
      </trkpt>
      <trkpt lat="45.58568" lon="5.26803">
        <ele>246</ele>
        <time>2020-09-16T07:47:03Z</time>
      </trkpt>
      <trkpt lat="45.58568" lon="5.26778">
        <ele>247</ele>
        <time>2020-09-16T07:47:06Z</time>
      </trkpt>
      <trkpt lat="45.58568" lon="5.26767">
        <ele>247</ele>
        <time>2020-09-16T07:47:07Z</time>
      </trkpt>
      <trkpt lat="45.58567" lon="5.26747">
        <ele>247</ele>
        <time>2020-09-16T07:47:10Z</time>
      </trkpt>
      <trkpt lat="45.58567" lon="5.26736">
        <ele>247</ele>
        <time>2020-09-16T07:47:11Z</time>
      </trkpt>
      <trkpt lat="45.58567" lon="5.26719">
        <ele>246</ele>
        <time>2020-09-16T07:47:13Z</time>
      </trkpt>
      <trkpt lat="45.58566" lon="5.26692">
        <ele>246</ele>
        <time>2020-09-16T07:47:17Z</time>
      </trkpt>
      <trkpt lat="45.58564" lon="5.26637">
        <ele>245</ele>
        <time>2020-09-16T07:47:23Z</time>
      </trkpt>
      <trkpt lat="45.58563" lon="5.2661">
        <ele>245</ele>
        <time>2020-09-16T07:47:27Z</time>
      </trkpt>
      <trkpt lat="45.58563" lon="5.26603">
        <ele>245</ele>
        <time>2020-09-16T07:47:28Z</time>
      </trkpt>
      <trkpt lat="45.58562" lon="5.2659">
        <ele>244</ele>
        <time>2020-09-16T07:47:29Z</time>
      </trkpt>
      <trkpt lat="45.5856" lon="5.26535">
        <ele>244</ele>
        <time>2020-09-16T07:47:36Z</time>
      </trkpt>
      <trkpt lat="45.58559" lon="5.26509">
        <ele>243</ele>
        <time>2020-09-16T07:47:39Z</time>
      </trkpt>
      <trkpt lat="45.58558" lon="5.26495">
        <ele>243</ele>
        <time>2020-09-16T07:47:41Z</time>
      </trkpt>
      <trkpt lat="45.58558" lon="5.26484">
        <ele>243</ele>
        <time>2020-09-16T07:47:43Z</time>
      </trkpt>
      <trkpt lat="45.58556" lon="5.26441">
        <ele>243</ele>
        <time>2020-09-16T07:47:48Z</time>
      </trkpt>
      <trkpt lat="45.58555" lon="5.26404">
        <ele>242</ele>
        <time>2020-09-16T07:47:52Z</time>
      </trkpt>
      <trkpt lat="45.58554" lon="5.26388">
        <ele>242</ele>
        <time>2020-09-16T07:47:54Z</time>
      </trkpt>
      <trkpt lat="45.58553" lon="5.26373">
        <ele>242</ele>
        <time>2020-09-16T07:47:56Z</time>
      </trkpt>
      <trkpt lat="45.58551" lon="5.26323">
        <ele>242</ele>
        <time>2020-09-16T07:48:03Z</time>
      </trkpt>
      <trkpt lat="45.58549" lon="5.26281">
        <ele>242</ele>
        <time>2020-09-16T07:48:08Z</time>
      </trkpt>
      <trkpt lat="45.58548" lon="5.26239">
        <ele>242</ele>
        <time>2020-09-16T07:48:13Z</time>
      </trkpt>
      <trkpt lat="45.58545" lon="5.26182">
        <ele>242</ele>
        <time>2020-09-16T07:48:20Z</time>
      </trkpt>
      <trkpt lat="45.58543" lon="5.26137">
        <ele>242</ele>
        <time>2020-09-16T07:48:26Z</time>
      </trkpt>
      <trkpt lat="45.58543" lon="5.26127">
        <ele>242</ele>
        <time>2020-09-16T07:48:27Z</time>
      </trkpt>
      <trkpt lat="45.58542" lon="5.26118">
        <ele>242</ele>
        <time>2020-09-16T07:48:28Z</time>
      </trkpt>
      <trkpt lat="45.58542" lon="5.26107">
        <ele>242</ele>
        <time>2020-09-16T07:48:30Z</time>
      </trkpt>
      <trkpt lat="45.58546" lon="5.2609">
        <ele>241</ele>
        <time>2020-09-16T07:48:32Z</time>
      </trkpt>
      <trkpt lat="45.58553" lon="5.26077">
        <ele>241</ele>
        <time>2020-09-16T07:48:34Z</time>
      </trkpt>
      <trkpt lat="45.58564" lon="5.2607">
        <ele>240</ele>
        <time>2020-09-16T07:48:36Z</time>
      </trkpt>
      <trkpt lat="45.58568" lon="5.26068">
        <ele>240</ele>
        <time>2020-09-16T07:48:37Z</time>
      </trkpt>
      <trkpt lat="45.58574" lon="5.2607">
        <ele>240</ele>
        <time>2020-09-16T07:48:38Z</time>
      </trkpt>
      <trkpt lat="45.58586" lon="5.26066">
        <ele>239</ele>
        <time>2020-09-16T07:48:40Z</time>
      </trkpt>
      <trkpt lat="45.58592" lon="5.2606">
        <ele>239</ele>
        <time>2020-09-16T07:48:41Z</time>
      </trkpt>
      <trkpt lat="45.58598" lon="5.26045">
        <ele>238</ele>
        <time>2020-09-16T07:48:43Z</time>
      </trkpt>
      <trkpt lat="45.58598" lon="5.26036">
        <ele>237</ele>
        <time>2020-09-16T07:48:45Z</time>
      </trkpt>
      <trkpt lat="45.58597" lon="5.26026">
        <ele>237</ele>
        <time>2020-09-16T07:48:46Z</time>
      </trkpt>
      <trkpt lat="45.58594" lon="5.26018">
        <ele>237</ele>
        <time>2020-09-16T07:48:47Z</time>
      </trkpt>
      <trkpt lat="45.5859" lon="5.26011">
        <ele>237</ele>
        <time>2020-09-16T07:48:48Z</time>
      </trkpt>
      <trkpt lat="45.58585" lon="5.26007">
        <ele>237</ele>
        <time>2020-09-16T07:48:49Z</time>
      </trkpt>
      <trkpt lat="45.58579" lon="5.26004">
        <ele>237</ele>
        <time>2020-09-16T07:48:50Z</time>
      </trkpt>
      <trkpt lat="45.58568" lon="5.26005">
        <ele>238</ele>
        <time>2020-09-16T07:48:52Z</time>
      </trkpt>
      <trkpt lat="45.58562" lon="5.26009">
        <ele>238</ele>
        <time>2020-09-16T07:48:53Z</time>
      </trkpt>
      <trkpt lat="45.58548" lon="5.26004">
        <ele>238</ele>
        <time>2020-09-16T07:48:56Z</time>
      </trkpt>
      <trkpt lat="45.5854" lon="5.25994">
        <ele>238</ele>
        <time>2020-09-16T07:48:58Z</time>
      </trkpt>
      <trkpt lat="45.58539" lon="5.25987">
        <ele>238</ele>
        <time>2020-09-16T07:48:59Z</time>
      </trkpt>
      <trkpt lat="45.58539" lon="5.25943">
        <ele>237</ele>
        <time>2020-09-16T07:49:04Z</time>
      </trkpt>
      <trkpt lat="45.58542" lon="5.25879">
        <ele>235</ele>
        <time>2020-09-16T07:49:12Z</time>
      </trkpt>
      <trkpt lat="45.58548" lon="5.25838">
        <ele>234</ele>
        <time>2020-09-16T07:49:17Z</time>
      </trkpt>
      <trkpt lat="45.58583" lon="5.25693">
        <ele>238</ele>
        <time>2020-09-16T07:49:37Z</time>
      </trkpt>
      <trkpt lat="45.58602" lon="5.25623">
        <ele>241</ele>
        <time>2020-09-16T07:49:46Z</time>
      </trkpt>
      <trkpt lat="45.58607" lon="5.25596">
        <ele>241</ele>
        <time>2020-09-16T07:49:49Z</time>
      </trkpt>
      <trkpt lat="45.58678" lon="5.25373">
        <ele>232</ele>
        <time>2020-09-16T07:50:20Z</time>
      </trkpt>
      <trkpt lat="45.58722" lon="5.25241">
        <ele>229</ele>
        <time>2020-09-16T07:50:38Z</time>
      </trkpt>
      <trkpt lat="45.58821" lon="5.24959">
        <ele>232</ele>
        <time>2020-09-16T07:51:17Z</time>
      </trkpt>
      <trkpt lat="45.58843" lon="5.24892">
        <ele>233</ele>
        <time>2020-09-16T07:51:27Z</time>
      </trkpt>
      <trkpt lat="45.58875" lon="5.24809">
        <ele>235</ele>
        <time>2020-09-16T07:51:38Z</time>
      </trkpt>
      <trkpt lat="45.58904" lon="5.2472">
        <ele>239</ele>
        <time>2020-09-16T07:51:51Z</time>
      </trkpt>
      <trkpt lat="45.58911" lon="5.24707">
        <ele>239</ele>
        <time>2020-09-16T07:51:53Z</time>
      </trkpt>
      <trkpt lat="45.58918" lon="5.24707">
        <ele>239</ele>
        <time>2020-09-16T07:51:54Z</time>
      </trkpt>
      <trkpt lat="45.58924" lon="5.24703">
        <ele>238</ele>
        <time>2020-09-16T07:51:55Z</time>
      </trkpt>
      <trkpt lat="45.58932" lon="5.24691">
        <ele>239</ele>
        <time>2020-09-16T07:51:57Z</time>
      </trkpt>
      <trkpt lat="45.58935" lon="5.2468">
        <ele>239</ele>
        <time>2020-09-16T07:51:59Z</time>
      </trkpt>
      <trkpt lat="45.58932" lon="5.24663">
        <ele>240</ele>
        <time>2020-09-16T07:52:01Z</time>
      </trkpt>
      <trkpt lat="45.58938" lon="5.2463">
        <ele>241</ele>
        <time>2020-09-16T07:52:05Z</time>
      </trkpt>
      <trkpt lat="45.59001" lon="5.24413">
        <ele>236</ele>
        <time>2020-09-16T07:52:34Z</time>
      </trkpt>
      <trkpt lat="45.59027" lon="5.24342">
        <ele>235</ele>
        <time>2020-09-16T07:52:44Z</time>
      </trkpt>
      <trkpt lat="45.59126" lon="5.24076">
        <ele>232</ele>
        <time>2020-09-16T07:53:22Z</time>
      </trkpt>
      <trkpt lat="45.59152" lon="5.24009">
        <ele>232</ele>
        <time>2020-09-16T07:53:31Z</time>
      </trkpt>
      <trkpt lat="45.59171" lon="5.23966">
        <ele>232</ele>
        <time>2020-09-16T07:53:38Z</time>
      </trkpt>
      <trkpt lat="45.59187" lon="5.23936">
        <ele>232</ele>
        <time>2020-09-16T07:53:42Z</time>
      </trkpt>
      <trkpt lat="45.59226" lon="5.23878">
        <ele>230</ele>
        <time>2020-09-16T07:53:52Z</time>
      </trkpt>
      <trkpt lat="45.59317" lon="5.2376">
        <ele>228</ele>
        <time>2020-09-16T07:54:14Z</time>
      </trkpt>
      <trkpt lat="45.59502" lon="5.23515">
        <ele>233</ele>
        <time>2020-09-16T07:54:59Z</time>
      </trkpt>
      <trkpt lat="45.59599" lon="5.23385">
        <ele>236</ele>
        <time>2020-09-16T07:55:23Z</time>
      </trkpt>
      <trkpt lat="45.59613" lon="5.23363">
        <ele>236</ele>
        <time>2020-09-16T07:55:26Z</time>
      </trkpt>
      <trkpt lat="45.59753" lon="5.23212">
        <ele>237</ele>
        <time>2020-09-16T07:55:58Z</time>
      </trkpt>
      <trkpt lat="45.59791" lon="5.23176">
        <ele>237</ele>
        <time>2020-09-16T07:56:06Z</time>
      </trkpt>
      <trkpt lat="45.59812" lon="5.23164">
        <ele>237</ele>
        <time>2020-09-16T07:56:10Z</time>
      </trkpt>
      <trkpt lat="45.5987" lon="5.23148">
        <ele>238</ele>
        <time>2020-09-16T07:56:20Z</time>
      </trkpt>
      <trkpt lat="45.59967" lon="5.23143">
        <ele>238</ele>
        <time>2020-09-16T07:56:38Z</time>
      </trkpt>
      <trkpt lat="45.60011" lon="5.23124">
        <ele>237</ele>
        <time>2020-09-16T07:56:46Z</time>
      </trkpt>
      <trkpt lat="45.60038" lon="5.231">
        <ele>236</ele>
        <time>2020-09-16T07:56:51Z</time>
      </trkpt>
      <trkpt lat="45.6012" lon="5.22998">
        <ele>235</ele>
        <time>2020-09-16T07:57:11Z</time>
      </trkpt>
      <trkpt lat="45.6013" lon="5.22983">
        <ele>236</ele>
        <time>2020-09-16T07:57:13Z</time>
      </trkpt>
      <trkpt lat="45.60201" lon="5.22892">
        <ele>237</ele>
        <time>2020-09-16T07:57:30Z</time>
      </trkpt>
      <trkpt lat="45.60338" lon="5.22768">
        <ele>234</ele>
        <time>2020-09-16T07:57:59Z</time>
      </trkpt>
      <trkpt lat="45.60508" lon="5.22587">
        <ele>227</ele>
        <time>2020-09-16T07:58:37Z</time>
      </trkpt>
      <trkpt lat="45.60608" lon="5.22478">
        <ele>221</ele>
        <time>2020-09-16T07:58:59Z</time>
      </trkpt>
      <trkpt lat="45.60662" lon="5.22422">
        <ele>219</ele>
        <time>2020-09-16T07:59:11Z</time>
      </trkpt>
      <trkpt lat="45.6068" lon="5.22396">
        <ele>220</ele>
        <time>2020-09-16T07:59:16Z</time>
      </trkpt>
      <trkpt lat="45.60663" lon="5.22366">
        <ele>221</ele>
        <time>2020-09-16T07:59:20Z</time>
      </trkpt>
      <trkpt lat="45.60645" lon="5.22338">
        <ele>223</ele>
        <time>2020-09-16T07:59:25Z</time>
      </trkpt>
      <trkpt lat="45.60579" lon="5.22249">
        <ele>229</ele>
        <time>2020-09-16T07:59:41Z</time>
      </trkpt>
      <trkpt lat="45.60588" lon="5.22236">
        <ele>229</ele>
        <time>2020-09-16T07:59:44Z</time>
      </trkpt>
      <trkpt lat="45.60602" lon="5.22227">
        <ele>228</ele>
        <time>2020-09-16T07:59:46Z</time>
      </trkpt>
      <trkpt lat="45.6061" lon="5.22218">
        <ele>227</ele>
        <time>2020-09-16T07:59:48Z</time>
      </trkpt>
      <trkpt lat="45.60647" lon="5.22137">
        <ele>226</ele>
        <time>2020-09-16T08:00:00Z</time>
      </trkpt>
      <trkpt lat="45.60664" lon="5.22105">
        <ele>226</ele>
        <time>2020-09-16T08:00:05Z</time>
      </trkpt>
      <trkpt lat="45.60669" lon="5.2209">
        <ele>227</ele>
        <time>2020-09-16T08:00:07Z</time>
      </trkpt>
      <trkpt lat="45.60672" lon="5.22066">
        <ele>227</ele>
        <time>2020-09-16T08:00:10Z</time>
      </trkpt>
      <trkpt lat="45.60689" lon="5.22031">
        <ele>228</ele>
        <time>2020-09-16T08:00:16Z</time>
      </trkpt>
      <trkpt lat="45.60701" lon="5.21992">
        <ele>229</ele>
        <time>2020-09-16T08:00:21Z</time>
      </trkpt>
      <trkpt lat="45.60712" lon="5.21949">
        <ele>233</ele>
        <time>2020-09-16T08:00:27Z</time>
      </trkpt>
      <trkpt lat="45.60723" lon="5.21925">
        <ele>234</ele>
        <time>2020-09-16T08:00:30Z</time>
      </trkpt>
      <trkpt lat="45.60751" lon="5.21872">
        <ele>235</ele>
        <time>2020-09-16T08:00:38Z</time>
      </trkpt>
      <trkpt lat="45.6078" lon="5.21835">
        <ele>232</ele>
        <time>2020-09-16T08:00:45Z</time>
      </trkpt>
      <trkpt lat="45.60802" lon="5.21796">
        <ele>229</ele>
        <time>2020-09-16T08:00:52Z</time>
      </trkpt>
      <trkpt lat="45.60821" lon="5.21755">
        <ele>227</ele>
        <time>2020-09-16T08:00:58Z</time>
      </trkpt>
      <trkpt lat="45.60887" lon="5.21607">
        <ele>232</ele>
        <time>2020-09-16T08:01:20Z</time>
      </trkpt>
      <trkpt lat="45.60922" lon="5.21514">
        <ele>234</ele>
        <time>2020-09-16T08:01:33Z</time>
      </trkpt>
      <trkpt lat="45.60944" lon="5.21451">
        <ele>233</ele>
        <time>2020-09-16T08:01:41Z</time>
      </trkpt>
      <trkpt lat="45.60951" lon="5.21425">
        <ele>233</ele>
        <time>2020-09-16T08:01:45Z</time>
      </trkpt>
      <trkpt lat="45.60977" lon="5.21328">
        <ele>232</ele>
        <time>2020-09-16T08:01:58Z</time>
      </trkpt>
      <trkpt lat="45.60991" lon="5.21273">
        <ele>231</ele>
        <time>2020-09-16T08:02:05Z</time>
      </trkpt>
      <trkpt lat="45.60995" lon="5.21236">
        <ele>232</ele>
        <time>2020-09-16T08:02:10Z</time>
      </trkpt>
      <trkpt lat="45.60993" lon="5.21224">
        <ele>233</ele>
        <time>2020-09-16T08:02:11Z</time>
      </trkpt>
      <trkpt lat="45.60997" lon="5.21218">
        <ele>233</ele>
        <time>2020-09-16T08:02:12Z</time>
      </trkpt>
      <trkpt lat="45.61011" lon="5.21154">
        <ele>235</ele>
        <time>2020-09-16T08:02:21Z</time>
      </trkpt>
      <trkpt lat="45.61018" lon="5.2113">
        <ele>236</ele>
        <time>2020-09-16T08:02:24Z</time>
      </trkpt>
      <trkpt lat="45.61023" lon="5.2112">
        <ele>236</ele>
        <time>2020-09-16T08:02:26Z</time>
      </trkpt>
      <trkpt lat="45.61026" lon="5.21107">
        <ele>237</ele>
        <time>2020-09-16T08:02:27Z</time>
      </trkpt>
      <trkpt lat="45.61028" lon="5.21081">
        <ele>238</ele>
        <time>2020-09-16T08:02:30Z</time>
      </trkpt>
      <trkpt lat="45.61039" lon="5.21013">
        <ele>235</ele>
        <time>2020-09-16T08:02:39Z</time>
      </trkpt>
      <trkpt lat="45.61064" lon="5.20847">
        <ele>224</ele>
        <time>2020-09-16T08:03:00Z</time>
      </trkpt>
      <trkpt lat="45.61074" lon="5.20752">
        <ele>222</ele>
        <time>2020-09-16T08:03:12Z</time>
      </trkpt>
      <trkpt lat="45.61074" lon="5.20744">
        <ele>222</ele>
        <time>2020-09-16T08:03:13Z</time>
      </trkpt>
      <trkpt lat="45.61089" lon="5.20591">
        <ele>220</ele>
        <time>2020-09-16T08:03:32Z</time>
      </trkpt>
      <trkpt lat="45.61106" lon="5.20437">
        <ele>218</ele>
        <time>2020-09-16T08:03:52Z</time>
      </trkpt>
      <trkpt lat="45.61119" lon="5.20303">
        <ele>218</ele>
        <time>2020-09-16T08:04:09Z</time>
      </trkpt>
      <trkpt lat="45.61135" lon="5.20166">
        <ele>218</ele>
        <time>2020-09-16T08:04:26Z</time>
      </trkpt>
      <trkpt lat="45.61176" lon="5.19775">
        <ele>218</ele>
        <time>2020-09-16T08:05:15Z</time>
      </trkpt>
      <trkpt lat="45.61179" lon="5.19729">
        <ele>218</ele>
        <time>2020-09-16T08:05:21Z</time>
      </trkpt>
      <trkpt lat="45.61173" lon="5.19677">
        <ele>218</ele>
        <time>2020-09-16T08:05:28Z</time>
      </trkpt>
      <trkpt lat="45.61172" lon="5.1967">
        <ele>218</ele>
        <time>2020-09-16T08:05:28Z</time>
      </trkpt>
      <trkpt lat="45.61173" lon="5.19666">
        <ele>218</ele>
        <time>2020-09-16T08:05:29Z</time>
      </trkpt>
      <trkpt lat="45.61182" lon="5.19635">
        <ele>218</ele>
        <time>2020-09-16T08:05:33Z</time>
      </trkpt>
      <trkpt lat="45.61188" lon="5.19618">
        <ele>218</ele>
        <time>2020-09-16T08:05:35Z</time>
      </trkpt>
      <trkpt lat="45.61193" lon="5.19593">
        <ele>218</ele>
        <time>2020-09-16T08:05:39Z</time>
      </trkpt>
      <trkpt lat="45.61212" lon="5.19438">
        <ele>217</ele>
        <time>2020-09-16T08:05:58Z</time>
      </trkpt>
      <trkpt lat="45.61219" lon="5.19387">
        <ele>218</ele>
        <time>2020-09-16T08:06:05Z</time>
      </trkpt>
      <trkpt lat="45.6123" lon="5.19325">
        <ele>217</ele>
        <time>2020-09-16T08:06:13Z</time>
      </trkpt>
      <trkpt lat="45.61257" lon="5.19179">
        <ele>218</ele>
        <time>2020-09-16T08:06:32Z</time>
      </trkpt>
      <trkpt lat="45.61287" lon="5.19064">
        <ele>219</ele>
        <time>2020-09-16T08:06:47Z</time>
      </trkpt>
      <trkpt lat="45.61327" lon="5.18922">
        <ele>219</ele>
        <time>2020-09-16T08:07:06Z</time>
      </trkpt>
      <trkpt lat="45.6136" lon="5.18817">
        <ele>219</ele>
        <time>2020-09-16T08:07:20Z</time>
      </trkpt>
      <trkpt lat="45.61386" lon="5.18738">
        <ele>220</ele>
        <time>2020-09-16T08:07:31Z</time>
      </trkpt>
      <trkpt lat="45.61389" lon="5.18721">
        <ele>221</ele>
        <time>2020-09-16T08:07:33Z</time>
      </trkpt>
      <trkpt lat="45.61389" lon="5.18702">
        <ele>221</ele>
        <time>2020-09-16T08:07:36Z</time>
      </trkpt>
      <trkpt lat="45.61379" lon="5.18668">
        <ele>222</ele>
        <time>2020-09-16T08:07:40Z</time>
      </trkpt>
      <trkpt lat="45.61378" lon="5.18655">
        <ele>222</ele>
        <time>2020-09-16T08:07:42Z</time>
      </trkpt>
      <trkpt lat="45.6138" lon="5.18641">
        <ele>222</ele>
        <time>2020-09-16T08:07:44Z</time>
      </trkpt>
      <trkpt lat="45.61388" lon="5.18619">
        <ele>222</ele>
        <time>2020-09-16T08:07:47Z</time>
      </trkpt>
      <trkpt lat="45.61393" lon="5.1861">
        <ele>222</ele>
        <time>2020-09-16T08:07:48Z</time>
      </trkpt>
      <trkpt lat="45.61398" lon="5.18601">
        <ele>222</ele>
        <time>2020-09-16T08:07:50Z</time>
      </trkpt>
      <trkpt lat="45.61401" lon="5.18598">
        <ele>222</ele>
        <time>2020-09-16T08:07:50Z</time>
      </trkpt>
      <trkpt lat="45.61409" lon="5.18589">
        <ele>222</ele>
        <time>2020-09-16T08:07:52Z</time>
      </trkpt>
      <trkpt lat="45.61424" lon="5.18572">
        <ele>222</ele>
        <time>2020-09-16T08:07:55Z</time>
      </trkpt>
      <trkpt lat="45.61437" lon="5.18551">
        <ele>221</ele>
        <time>2020-09-16T08:07:59Z</time>
      </trkpt>
      <trkpt lat="45.61448" lon="5.18529">
        <ele>221</ele>
        <time>2020-09-16T08:08:02Z</time>
      </trkpt>
      <trkpt lat="45.61461" lon="5.18503">
        <ele>222</ele>
        <time>2020-09-16T08:08:06Z</time>
      </trkpt>
      <trkpt lat="45.61463" lon="5.18498">
        <ele>222</ele>
        <time>2020-09-16T08:08:07Z</time>
      </trkpt>
      <trkpt lat="45.61487" lon="5.18452">
        <ele>223</ele>
        <time>2020-09-16T08:08:14Z</time>
      </trkpt>
      <trkpt lat="45.61514" lon="5.18377">
        <ele>225</ele>
        <time>2020-09-16T08:08:25Z</time>
      </trkpt>
      <trkpt lat="45.61519" lon="5.18362">
        <ele>225</ele>
        <time>2020-09-16T08:08:27Z</time>
      </trkpt>
      <trkpt lat="45.6152" lon="5.18357">
        <ele>225</ele>
        <time>2020-09-16T08:08:27Z</time>
      </trkpt>
      <trkpt lat="45.61521" lon="5.18353">
        <ele>225</ele>
        <time>2020-09-16T08:08:28Z</time>
      </trkpt>
      <trkpt lat="45.61534" lon="5.18305">
        <ele>226</ele>
        <time>2020-09-16T08:08:34Z</time>
      </trkpt>
      <trkpt lat="45.61542" lon="5.18275">
        <ele>227</ele>
        <time>2020-09-16T08:08:38Z</time>
      </trkpt>
      <trkpt lat="45.61543" lon="5.18271">
        <ele>227</ele>
        <time>2020-09-16T08:08:39Z</time>
      </trkpt>
      <trkpt lat="45.61544" lon="5.18268">
        <ele>227</ele>
        <time>2020-09-16T08:08:39Z</time>
      </trkpt>
      <trkpt lat="45.61546" lon="5.18259">
        <ele>227</ele>
        <time>2020-09-16T08:08:40Z</time>
      </trkpt>
      <trkpt lat="45.61547" lon="5.18257">
        <ele>227</ele>
        <time>2020-09-16T08:08:41Z</time>
      </trkpt>
      <trkpt lat="45.61572" lon="5.18225">
        <ele>227</ele>
        <time>2020-09-16T08:08:47Z</time>
      </trkpt>
      <trkpt lat="45.61723" lon="5.17827">
        <ele>224</ele>
        <time>2020-09-16T08:09:43Z</time>
      </trkpt>
      <trkpt lat="45.61831" lon="5.17531">
        <ele>222</ele>
        <time>2020-09-16T08:10:25Z</time>
      </trkpt>
      <trkpt lat="45.61858" lon="5.1746">
        <ele>222</ele>
        <time>2020-09-16T08:10:35Z</time>
      </trkpt>
      <trkpt lat="45.6188" lon="5.17413">
        <ele>222</ele>
        <time>2020-09-16T08:10:42Z</time>
      </trkpt>
      <trkpt lat="45.61889" lon="5.17389">
        <ele>222</ele>
        <time>2020-09-16T08:10:45Z</time>
      </trkpt>
      <trkpt lat="45.61894" lon="5.17363">
        <ele>222</ele>
        <time>2020-09-16T08:10:48Z</time>
      </trkpt>
      <trkpt lat="45.61915" lon="5.17306">
        <ele>224</ele>
        <time>2020-09-16T08:10:56Z</time>
      </trkpt>
      <trkpt lat="45.62074" lon="5.16879">
        <ele>227</ele>
        <time>2020-09-16T08:11:57Z</time>
      </trkpt>
      <trkpt lat="45.62087" lon="5.16839">
        <ele>228</ele>
        <time>2020-09-16T08:12:02Z</time>
      </trkpt>
      <trkpt lat="45.62118" lon="5.16751">
        <ele>232</ele>
        <time>2020-09-16T08:12:14Z</time>
      </trkpt>
      <trkpt lat="45.6214" lon="5.1668">
        <ele>235</ele>
        <time>2020-09-16T08:12:24Z</time>
      </trkpt>
      <trkpt lat="45.62157" lon="5.16644">
        <ele>234</ele>
        <time>2020-09-16T08:12:29Z</time>
      </trkpt>
      <trkpt lat="45.62211" lon="5.16502">
        <ele>228</ele>
        <time>2020-09-16T08:12:50Z</time>
      </trkpt>
      <trkpt lat="45.62236" lon="5.16425">
        <ele>228</ele>
        <time>2020-09-16T08:13:00Z</time>
      </trkpt>
      <trkpt lat="45.62297" lon="5.16255">
        <ele>227</ele>
        <time>2020-09-16T08:13:24Z</time>
      </trkpt>
      <trkpt lat="45.62322" lon="5.16261">
        <ele>226</ele>
        <time>2020-09-16T08:13:28Z</time>
      </trkpt>
      <trkpt lat="45.62355" lon="5.16274">
        <ele>226</ele>
        <time>2020-09-16T08:13:34Z</time>
      </trkpt>
      <trkpt lat="45.62393" lon="5.16296">
        <ele>226</ele>
        <time>2020-09-16T08:13:42Z</time>
      </trkpt>
      <trkpt lat="45.62417" lon="5.16304">
        <ele>225</ele>
        <time>2020-09-16T08:13:46Z</time>
      </trkpt>
      <trkpt lat="45.6246" lon="5.16329">
        <ele>223</ele>
        <time>2020-09-16T08:13:54Z</time>
      </trkpt>
      <trkpt lat="45.62462" lon="5.16314">
        <ele>223</ele>
        <time>2020-09-16T08:13:56Z</time>
      </trkpt>
      <trkpt lat="45.62466" lon="5.16302">
        <ele>223</ele>
        <time>2020-09-16T08:13:58Z</time>
      </trkpt>
      <trkpt lat="45.62469" lon="5.16284">
        <ele>223</ele>
        <time>2020-09-16T08:14:00Z</time>
      </trkpt>
      <trkpt lat="45.62488" lon="5.16276">
        <ele>223</ele>
        <time>2020-09-16T08:14:04Z</time>
      </trkpt>
      <trkpt lat="45.625" lon="5.16285">
        <ele>222</ele>
        <time>2020-09-16T08:14:06Z</time>
      </trkpt>
      <trkpt lat="45.62625" lon="5.16324">
        <ele>220</ele>
        <time>2020-09-16T08:14:29Z</time>
      </trkpt>
      <trkpt lat="45.62643" lon="5.16323">
        <ele>219</ele>
        <time>2020-09-16T08:14:32Z</time>
      </trkpt>
      <trkpt lat="45.62657" lon="5.16317">
        <ele>219</ele>
        <time>2020-09-16T08:14:35Z</time>
      </trkpt>
      <trkpt lat="45.6267" lon="5.16305">
        <ele>219</ele>
        <time>2020-09-16T08:14:38Z</time>
      </trkpt>
      <trkpt lat="45.6268" lon="5.16288">
        <ele>219</ele>
        <time>2020-09-16T08:14:40Z</time>
      </trkpt>
      <trkpt lat="45.62733" lon="5.16156">
        <ele>218</ele>
        <time>2020-09-16T08:14:59Z</time>
      </trkpt>
      <trkpt lat="45.62846" lon="5.15839">
        <ele>214</ele>
        <time>2020-09-16T08:15:44Z</time>
      </trkpt>
      <trkpt lat="45.62853" lon="5.15833">
        <ele>214</ele>
        <time>2020-09-16T08:15:45Z</time>
      </trkpt>
      <trkpt lat="45.62869" lon="5.15826">
        <ele>213</ele>
        <time>2020-09-16T08:15:48Z</time>
      </trkpt>
      <trkpt lat="45.62874" lon="5.15819">
        <ele>213</ele>
        <time>2020-09-16T08:15:49Z</time>
      </trkpt>
      <trkpt lat="45.62888" lon="5.15786">
        <ele>213</ele>
        <time>2020-09-16T08:15:54Z</time>
      </trkpt>
      <trkpt lat="45.62915" lon="5.15709">
        <ele>214</ele>
        <time>2020-09-16T08:16:05Z</time>
      </trkpt>
      <trkpt lat="45.63056" lon="5.15332">
        <ele>218</ele>
        <time>2020-09-16T08:16:58Z</time>
      </trkpt>
      <trkpt lat="45.63066" lon="5.15314">
        <ele>217</ele>
        <time>2020-09-16T08:17:01Z</time>
      </trkpt>
      <trkpt lat="45.63094" lon="5.1524">
        <ele>216</ele>
        <time>2020-09-16T08:17:11Z</time>
      </trkpt>
      <trkpt lat="45.63103" lon="5.15221">
        <ele>215</ele>
        <time>2020-09-16T08:17:14Z</time>
      </trkpt>
      <trkpt lat="45.63119" lon="5.15176">
        <ele>215</ele>
        <time>2020-09-16T08:17:20Z</time>
      </trkpt>
      <trkpt lat="45.63137" lon="5.15122">
        <ele>216</ele>
        <time>2020-09-16T08:17:28Z</time>
      </trkpt>
      <trkpt lat="45.63146" lon="5.15103">
        <ele>215</ele>
        <time>2020-09-16T08:17:31Z</time>
      </trkpt>
      <trkpt lat="45.63254" lon="5.14815">
        <ele>217</ele>
        <time>2020-09-16T08:18:11Z</time>
      </trkpt>
      <trkpt lat="45.63264" lon="5.1479">
        <ele>217</ele>
        <time>2020-09-16T08:18:15Z</time>
      </trkpt>
      <trkpt lat="45.6327" lon="5.14793">
        <ele>217</ele>
        <time>2020-09-16T08:18:16Z</time>
      </trkpt>
      <trkpt lat="45.63277" lon="5.14791">
        <ele>217</ele>
        <time>2020-09-16T08:18:17Z</time>
      </trkpt>
      <trkpt lat="45.63279" lon="5.14786">
        <ele>218</ele>
        <time>2020-09-16T08:18:18Z</time>
      </trkpt>
      <trkpt lat="45.6328" lon="5.14775">
        <ele>218</ele>
        <time>2020-09-16T08:18:19Z</time>
      </trkpt>
      <trkpt lat="45.63278" lon="5.14771">
        <ele>218</ele>
        <time>2020-09-16T08:18:20Z</time>
      </trkpt>
      <trkpt lat="45.63295" lon="5.14749">
        <ele>219</ele>
        <time>2020-09-16T08:18:24Z</time>
      </trkpt>
      <trkpt lat="45.63386" lon="5.14588">
        <ele>218</ele>
        <time>2020-09-16T08:18:50Z</time>
      </trkpt>
      <trkpt lat="45.63407" lon="5.14562">
        <ele>218</ele>
        <time>2020-09-16T08:18:55Z</time>
      </trkpt>
      <trkpt lat="45.63446" lon="5.14525">
        <ele>217</ele>
        <time>2020-09-16T08:19:03Z</time>
      </trkpt>
      <trkpt lat="45.63467" lon="5.14509">
        <ele>217</ele>
        <time>2020-09-16T08:19:07Z</time>
      </trkpt>
      <trkpt lat="45.63504" lon="5.14489">
        <ele>217</ele>
        <time>2020-09-16T08:19:14Z</time>
      </trkpt>
      <trkpt lat="45.63598" lon="5.14444">
        <ele>216</ele>
        <time>2020-09-16T08:19:32Z</time>
      </trkpt>
      <trkpt lat="45.63608" lon="5.14443">
        <ele>216</ele>
        <time>2020-09-16T08:19:34Z</time>
      </trkpt>
      <trkpt lat="45.6361" lon="5.14447">
        <ele>216</ele>
        <time>2020-09-16T08:19:34Z</time>
      </trkpt>
      <trkpt lat="45.63614" lon="5.14452">
        <ele>216</ele>
        <time>2020-09-16T08:19:35Z</time>
      </trkpt>
      <trkpt lat="45.63618" lon="5.14453">
        <ele>216</ele>
        <time>2020-09-16T08:19:36Z</time>
      </trkpt>
      <trkpt lat="45.63621" lon="5.14453">
        <ele>216</ele>
        <time>2020-09-16T08:19:37Z</time>
      </trkpt>
      <trkpt lat="45.63626" lon="5.14448">
        <ele>216</ele>
        <time>2020-09-16T08:19:38Z</time>
      </trkpt>
      <trkpt lat="45.63629" lon="5.14437">
        <ele>216</ele>
        <time>2020-09-16T08:19:39Z</time>
      </trkpt>
      <trkpt lat="45.63627" lon="5.1443">
        <ele>216</ele>
        <time>2020-09-16T08:19:40Z</time>
      </trkpt>
      <trkpt lat="45.63654" lon="5.14399">
        <ele>216</ele>
        <time>2020-09-16T08:19:46Z</time>
      </trkpt>
      <trkpt lat="45.63678" lon="5.14369">
        <ele>217</ele>
        <time>2020-09-16T08:19:52Z</time>
      </trkpt>
      <trkpt lat="45.63706" lon="5.14322">
        <ele>218</ele>
        <time>2020-09-16T08:20:00Z</time>
      </trkpt>
      <trkpt lat="45.63742" lon="5.14268">
        <ele>218</ele>
        <time>2020-09-16T08:20:09Z</time>
      </trkpt>
      <trkpt lat="45.63761" lon="5.14247">
        <ele>218</ele>
        <time>2020-09-16T08:20:13Z</time>
      </trkpt>
      <trkpt lat="45.63822" lon="5.14158">
        <ele>217</ele>
        <time>2020-09-16T08:20:29Z</time>
      </trkpt>
      <trkpt lat="45.63837" lon="5.14141">
        <ele>216</ele>
        <time>2020-09-16T08:20:32Z</time>
      </trkpt>
      <trkpt lat="45.64027" lon="5.13847">
        <ele>213</ele>
        <time>2020-09-16T08:21:22Z</time>
      </trkpt>
      <trkpt lat="45.64283" lon="5.13466">
        <ele>214</ele>
        <time>2020-09-16T08:22:28Z</time>
      </trkpt>
      <trkpt lat="45.64301" lon="5.13446">
        <ele>214</ele>
        <time>2020-09-16T08:22:32Z</time>
      </trkpt>
      <trkpt lat="45.64371" lon="5.13336">
        <ele>214</ele>
        <time>2020-09-16T08:22:50Z</time>
      </trkpt>
      <trkpt lat="45.64382" lon="5.13323">
        <ele>213</ele>
        <time>2020-09-16T08:22:53Z</time>
      </trkpt>
      <trkpt lat="45.64388" lon="5.13318">
        <ele>213</ele>
        <time>2020-09-16T08:22:54Z</time>
      </trkpt>
      <trkpt lat="45.6439" lon="5.13317">
        <ele>213</ele>
        <time>2020-09-16T08:22:54Z</time>
      </trkpt>
      <trkpt lat="45.64395" lon="5.13319">
        <ele>213</ele>
        <time>2020-09-16T08:22:55Z</time>
      </trkpt>
      <trkpt lat="45.64405" lon="5.13319">
        <ele>213</ele>
        <time>2020-09-16T08:22:57Z</time>
      </trkpt>
      <trkpt lat="45.64415" lon="5.13311">
        <ele>213</ele>
        <time>2020-09-16T08:22:59Z</time>
      </trkpt>
      <trkpt lat="45.64422" lon="5.13296">
        <ele>213</ele>
        <time>2020-09-16T08:23:01Z</time>
      </trkpt>
      <trkpt lat="45.64423" lon="5.13289">
        <ele>213</ele>
        <time>2020-09-16T08:23:02Z</time>
      </trkpt>
      <trkpt lat="45.64421" lon="5.13276">
        <ele>213</ele>
        <time>2020-09-16T08:23:04Z</time>
      </trkpt>
      <trkpt lat="45.64428" lon="5.13252">
        <ele>213</ele>
        <time>2020-09-16T08:23:07Z</time>
      </trkpt>
      <trkpt lat="45.64449" lon="5.13219">
        <ele>215</ele>
        <time>2020-09-16T08:23:13Z</time>
      </trkpt>
      <trkpt lat="45.64546" lon="5.13074">
        <ele>218</ele>
        <time>2020-09-16T08:23:38Z</time>
      </trkpt>
      <trkpt lat="45.64576" lon="5.13028">
        <ele>218</ele>
        <time>2020-09-16T08:23:45Z</time>
      </trkpt>
      <trkpt lat="45.64594" lon="5.13002">
        <ele>219</ele>
        <time>2020-09-16T08:23:50Z</time>
      </trkpt>
      <trkpt lat="45.64613" lon="5.12973">
        <ele>218</ele>
        <time>2020-09-16T08:23:55Z</time>
      </trkpt>
      <trkpt lat="45.64712" lon="5.12825">
        <ele>218</ele>
        <time>2020-09-16T08:24:20Z</time>
      </trkpt>
      <trkpt lat="45.6475" lon="5.12769">
        <ele>219</ele>
        <time>2020-09-16T08:24:30Z</time>
      </trkpt>
      <trkpt lat="45.64792" lon="5.12706">
        <ele>218</ele>
        <time>2020-09-16T08:24:41Z</time>
      </trkpt>
      <trkpt lat="45.64806" lon="5.12688">
        <ele>218</ele>
        <time>2020-09-16T08:24:44Z</time>
      </trkpt>
      <trkpt lat="45.64819" lon="5.12677">
        <ele>219</ele>
        <time>2020-09-16T08:24:47Z</time>
      </trkpt>
      <trkpt lat="45.6483" lon="5.12669">
        <ele>219</ele>
        <time>2020-09-16T08:24:49Z</time>
      </trkpt>
      <trkpt lat="45.64846" lon="5.12663">
        <ele>219</ele>
        <time>2020-09-16T08:24:52Z</time>
      </trkpt>
      <trkpt lat="45.64851" lon="5.12664">
        <ele>219</ele>
        <time>2020-09-16T08:24:53Z</time>
      </trkpt>
      <trkpt lat="45.64858" lon="5.1267">
        <ele>219</ele>
        <time>2020-09-16T08:24:54Z</time>
      </trkpt>
      <trkpt lat="45.64865" lon="5.12672">
        <ele>219</ele>
        <time>2020-09-16T08:24:56Z</time>
      </trkpt>
      <trkpt lat="45.64879" lon="5.1267">
        <ele>219</ele>
        <time>2020-09-16T08:24:58Z</time>
      </trkpt>
      <trkpt lat="45.64885" lon="5.12666">
        <ele>220</ele>
        <time>2020-09-16T08:24:59Z</time>
      </trkpt>
      <trkpt lat="45.6489" lon="5.1266">
        <ele>220</ele>
        <time>2020-09-16T08:25:01Z</time>
      </trkpt>
      <trkpt lat="45.64895" lon="5.12652">
        <ele>220</ele>
        <time>2020-09-16T08:25:02Z</time>
      </trkpt>
      <trkpt lat="45.64898" lon="5.12643">
        <ele>220</ele>
        <time>2020-09-16T08:25:03Z</time>
      </trkpt>
      <trkpt lat="45.649" lon="5.12631">
        <ele>221</ele>
        <time>2020-09-16T08:25:05Z</time>
      </trkpt>
      <trkpt lat="45.64899" lon="5.12619">
        <ele>221</ele>
        <time>2020-09-16T08:25:06Z</time>
      </trkpt>
      <trkpt lat="45.64896" lon="5.12608">
        <ele>221</ele>
        <time>2020-09-16T08:25:08Z</time>
      </trkpt>
      <trkpt lat="45.64891" lon="5.12597">
        <ele>222</ele>
        <time>2020-09-16T08:25:09Z</time>
      </trkpt>
      <trkpt lat="45.6489" lon="5.12588">
        <ele>222</ele>
        <time>2020-09-16T08:25:10Z</time>
      </trkpt>
      <trkpt lat="45.6489" lon="5.12575">
        <ele>222</ele>
        <time>2020-09-16T08:25:12Z</time>
      </trkpt>
      <trkpt lat="45.64895" lon="5.12554">
        <ele>223</ele>
        <time>2020-09-16T08:25:15Z</time>
      </trkpt>
      <trkpt lat="45.64907" lon="5.12513">
        <ele>224</ele>
        <time>2020-09-16T08:25:20Z</time>
      </trkpt>
      <trkpt lat="45.64914" lon="5.12497">
        <ele>224</ele>
        <time>2020-09-16T08:25:23Z</time>
      </trkpt>
      <trkpt lat="45.64997" lon="5.12345">
        <ele>222</ele>
        <time>2020-09-16T08:25:47Z</time>
      </trkpt>
      <trkpt lat="45.65045" lon="5.12251">
        <ele>224</ele>
        <time>2020-09-16T08:26:01Z</time>
      </trkpt>
      <trkpt lat="45.65061" lon="5.12219">
        <ele>224</ele>
        <time>2020-09-16T08:26:06Z</time>
      </trkpt>
      <trkpt lat="45.65075" lon="5.12191">
        <ele>225</ele>
        <time>2020-09-16T08:26:10Z</time>
      </trkpt>
      <trkpt lat="45.65127" lon="5.12102">
        <ele>225</ele>
        <time>2020-09-16T08:26:25Z</time>
      </trkpt>
      <trkpt lat="45.65158" lon="5.12039">
        <ele>225</ele>
        <time>2020-09-16T08:26:34Z</time>
      </trkpt>
      <trkpt lat="45.6517" lon="5.12007">
        <ele>225</ele>
        <time>2020-09-16T08:26:39Z</time>
      </trkpt>
      <trkpt lat="45.65178" lon="5.11988">
        <ele>225</ele>
        <time>2020-09-16T08:26:42Z</time>
      </trkpt>
      <trkpt lat="45.65187" lon="5.11966">
        <ele>224</ele>
        <time>2020-09-16T08:26:45Z</time>
      </trkpt>
      <trkpt lat="45.65215" lon="5.11911">
        <ele>224</ele>
        <time>2020-09-16T08:26:53Z</time>
      </trkpt>
      <trkpt lat="45.65222" lon="5.11905">
        <ele>225</ele>
        <time>2020-09-16T08:26:55Z</time>
      </trkpt>
      <trkpt lat="45.65226" lon="5.11902">
        <ele>225</ele>
        <time>2020-09-16T08:26:56Z</time>
      </trkpt>
      <trkpt lat="45.65238" lon="5.11905">
        <ele>225</ele>
        <time>2020-09-16T08:26:58Z</time>
      </trkpt>
      <trkpt lat="45.65245" lon="5.11903">
        <ele>225</ele>
        <time>2020-09-16T08:26:59Z</time>
      </trkpt>
      <trkpt lat="45.65252" lon="5.11899">
        <ele>225</ele>
        <time>2020-09-16T08:27:00Z</time>
      </trkpt>
      <trkpt lat="45.65259" lon="5.11892">
        <ele>225</ele>
        <time>2020-09-16T08:27:02Z</time>
      </trkpt>
      <trkpt lat="45.65264" lon="5.11882">
        <ele>225</ele>
        <time>2020-09-16T08:27:03Z</time>
      </trkpt>
      <trkpt lat="45.65267" lon="5.11871">
        <ele>226</ele>
        <time>2020-09-16T08:27:05Z</time>
      </trkpt>
      <trkpt lat="45.65268" lon="5.11858">
        <ele>226</ele>
        <time>2020-09-16T08:27:06Z</time>
      </trkpt>
      <trkpt lat="45.65266" lon="5.11846">
        <ele>227</ele>
        <time>2020-09-16T08:27:08Z</time>
      </trkpt>
      <trkpt lat="45.65268" lon="5.11818">
        <ele>227</ele>
        <time>2020-09-16T08:27:11Z</time>
      </trkpt>
      <trkpt lat="45.65272" lon="5.11805">
        <ele>227</ele>
        <time>2020-09-16T08:27:13Z</time>
      </trkpt>
      <trkpt lat="45.65437" lon="5.11461">
        <ele>223</ele>
        <time>2020-09-16T08:28:05Z</time>
      </trkpt>
      <trkpt lat="45.65893" lon="5.10554">
        <ele>224</ele>
        <time>2020-09-16T08:30:24Z</time>
      </trkpt>
      <trkpt lat="45.6594" lon="5.10465">
        <ele>224</ele>
        <time>2020-09-16T08:30:38Z</time>
      </trkpt>
      <trkpt lat="45.65992" lon="5.10359">
        <ele>223</ele>
        <time>2020-09-16T08:30:54Z</time>
      </trkpt>
      <trkpt lat="45.66007" lon="5.10335">
        <ele>223</ele>
        <time>2020-09-16T08:30:58Z</time>
      </trkpt>
      <trkpt lat="45.66017" lon="5.10338">
        <ele>223</ele>
        <time>2020-09-16T08:31:00Z</time>
      </trkpt>
      <trkpt lat="45.66027" lon="5.10336">
        <ele>223</ele>
        <time>2020-09-16T08:31:02Z</time>
      </trkpt>
      <trkpt lat="45.66036" lon="5.10329">
        <ele>223</ele>
        <time>2020-09-16T08:31:03Z</time>
      </trkpt>
      <trkpt lat="45.66042" lon="5.10319">
        <ele>223</ele>
        <time>2020-09-16T08:31:05Z</time>
      </trkpt>
      <trkpt lat="45.66046" lon="5.10307">
        <ele>223</ele>
        <time>2020-09-16T08:31:07Z</time>
      </trkpt>
      <trkpt lat="45.66047" lon="5.10293">
        <ele>223</ele>
        <time>2020-09-16T08:31:09Z</time>
      </trkpt>
      <trkpt lat="45.66045" lon="5.10279">
        <ele>224</ele>
        <time>2020-09-16T08:31:10Z</time>
      </trkpt>
      <trkpt lat="45.66041" lon="5.10267">
        <ele>224</ele>
        <time>2020-09-16T08:31:12Z</time>
      </trkpt>
      <trkpt lat="45.66048" lon="5.10246">
        <ele>225</ele>
        <time>2020-09-16T08:31:15Z</time>
      </trkpt>
      <trkpt lat="45.66118" lon="5.10107">
        <ele>227</ele>
        <time>2020-09-16T08:31:36Z</time>
      </trkpt>
      <trkpt lat="45.66202" lon="5.0994">
        <ele>223</ele>
        <time>2020-09-16T08:32:02Z</time>
      </trkpt>
      <trkpt lat="45.66263" lon="5.09816">
        <ele>222</ele>
        <time>2020-09-16T08:32:21Z</time>
      </trkpt>
      <trkpt lat="45.66294" lon="5.09754">
        <ele>223</ele>
        <time>2020-09-16T08:32:30Z</time>
      </trkpt>
      <trkpt lat="45.663" lon="5.09741">
        <ele>223</ele>
        <time>2020-09-16T08:32:32Z</time>
      </trkpt>
      <trkpt lat="45.66415" lon="5.09508">
        <ele>222</ele>
        <time>2020-09-16T08:33:07Z</time>
      </trkpt>
      <trkpt lat="45.66459" lon="5.09424">
        <ele>222</ele>
        <time>2020-09-16T08:33:21Z</time>
      </trkpt>
      <trkpt lat="45.66512" lon="5.09318">
        <ele>224</ele>
        <time>2020-09-16T08:33:37Z</time>
      </trkpt>
      <trkpt lat="45.66543" lon="5.09257">
        <ele>223</ele>
        <time>2020-09-16T08:33:46Z</time>
      </trkpt>
      <trkpt lat="45.66598" lon="5.09147">
        <ele>221</ele>
        <time>2020-09-16T08:34:03Z</time>
      </trkpt>
      <trkpt lat="45.6664" lon="5.09063">
        <ele>227</ele>
        <time>2020-09-16T08:34:16Z</time>
      </trkpt>
      <trkpt lat="45.66651" lon="5.09041">
        <ele>228</ele>
        <time>2020-09-16T08:34:19Z</time>
      </trkpt>
      <trkpt lat="45.66675" lon="5.08979">
        <ele>233</ele>
        <time>2020-09-16T08:34:28Z</time>
      </trkpt>
      <trkpt lat="45.66695" lon="5.08906">
        <ele>237</ele>
        <time>2020-09-16T08:34:38Z</time>
      </trkpt>
      <trkpt lat="45.66715" lon="5.08805">
        <ele>242</ele>
        <time>2020-09-16T08:34:51Z</time>
      </trkpt>
      <trkpt lat="45.66731" lon="5.08751">
        <ele>244</ele>
        <time>2020-09-16T08:34:58Z</time>
      </trkpt>
      <trkpt lat="45.66761" lon="5.0869">
        <ele>246</ele>
        <time>2020-09-16T08:35:07Z</time>
      </trkpt>
      <trkpt lat="45.66769" lon="5.08679">
        <ele>246</ele>
        <time>2020-09-16T08:35:09Z</time>
      </trkpt>
      <trkpt lat="45.66797" lon="5.08638">
        <ele>247</ele>
        <time>2020-09-16T08:35:16Z</time>
      </trkpt>
      <trkpt lat="45.66803" lon="5.0863">
        <ele>247</ele>
        <time>2020-09-16T08:35:18Z</time>
      </trkpt>
      <trkpt lat="45.66816" lon="5.08612">
        <ele>247</ele>
        <time>2020-09-16T08:35:21Z</time>
      </trkpt>
      <trkpt lat="45.66907" lon="5.08494">
        <ele>249</ele>
        <time>2020-09-16T08:35:43Z</time>
      </trkpt>
      <trkpt lat="45.67156" lon="5.08162">
        <ele>248</ele>
        <time>2020-09-16T08:36:44Z</time>
      </trkpt>
      <trkpt lat="45.67199" lon="5.08107">
        <ele>247</ele>
        <time>2020-09-16T08:36:54Z</time>
      </trkpt>
      <trkpt lat="45.67217" lon="5.08081">
        <ele>247</ele>
        <time>2020-09-16T08:36:58Z</time>
      </trkpt>
      <trkpt lat="45.67228" lon="5.08089">
        <ele>247</ele>
        <time>2020-09-16T08:37:01Z</time>
      </trkpt>
      <trkpt lat="45.6724" lon="5.08089">
        <ele>247</ele>
        <time>2020-09-16T08:37:03Z</time>
      </trkpt>
      <trkpt lat="45.67247" lon="5.08083">
        <ele>247</ele>
        <time>2020-09-16T08:37:04Z</time>
      </trkpt>
      <trkpt lat="45.67252" lon="5.08074">
        <ele>247</ele>
        <time>2020-09-16T08:37:06Z</time>
      </trkpt>
      <trkpt lat="45.67255" lon="5.08063">
        <ele>247</ele>
        <time>2020-09-16T08:37:07Z</time>
      </trkpt>
      <trkpt lat="45.67254" lon="5.08052">
        <ele>247</ele>
        <time>2020-09-16T08:37:08Z</time>
      </trkpt>
      <trkpt lat="45.67249" lon="5.08038">
        <ele>248</ele>
        <time>2020-09-16T08:37:10Z</time>
      </trkpt>
      <trkpt lat="45.67289" lon="5.07982">
        <ele>247</ele>
        <time>2020-09-16T08:37:20Z</time>
      </trkpt>
      <trkpt lat="45.67481" lon="5.07734">
        <ele>248</ele>
        <time>2020-09-16T08:38:06Z</time>
      </trkpt>
      <trkpt lat="45.67535" lon="5.07664">
        <ele>247</ele>
        <time>2020-09-16T08:38:19Z</time>
      </trkpt>
      <trkpt lat="45.67927" lon="5.07138">
        <ele>244</ele>
        <time>2020-09-16T08:39:55Z</time>
      </trkpt>
      <trkpt lat="45.6797" lon="5.07088">
        <ele>244</ele>
        <time>2020-09-16T08:40:05Z</time>
      </trkpt>
      <trkpt lat="45.67985" lon="5.07069">
        <ele>244</ele>
        <time>2020-09-16T08:40:08Z</time>
      </trkpt>
      <trkpt lat="45.68027" lon="5.07016">
        <ele>244</ele>
        <time>2020-09-16T08:40:18Z</time>
      </trkpt>
      <trkpt lat="45.68068" lon="5.06964">
        <ele>244</ele>
        <time>2020-09-16T08:40:28Z</time>
      </trkpt>
      <trkpt lat="45.68104" lon="5.06908">
        <ele>244</ele>
        <time>2020-09-16T08:40:37Z</time>
      </trkpt>
      <trkpt lat="45.68117" lon="5.0689">
        <ele>242</ele>
        <time>2020-09-16T08:40:41Z</time>
      </trkpt>
      <trkpt lat="45.6814" lon="5.0685">
        <ele>240</ele>
        <time>2020-09-16T08:40:47Z</time>
      </trkpt>
      <trkpt lat="45.68161" lon="5.06814">
        <ele>239</ele>
        <time>2020-09-16T08:40:53Z</time>
      </trkpt>
      <trkpt lat="45.68181" lon="5.06775">
        <ele>241</ele>
        <time>2020-09-16T08:40:59Z</time>
      </trkpt>
      <trkpt lat="45.68204" lon="5.06725">
        <ele>241</ele>
        <time>2020-09-16T08:41:06Z</time>
      </trkpt>
      <trkpt lat="45.68243" lon="5.06633">
        <ele>239</ele>
        <time>2020-09-16T08:41:20Z</time>
      </trkpt>
      <trkpt lat="45.68292" lon="5.06511">
        <ele>240</ele>
        <time>2020-09-16T08:41:37Z</time>
      </trkpt>
      <trkpt lat="45.68305" lon="5.06475">
        <ele>240</ele>
        <time>2020-09-16T08:41:42Z</time>
      </trkpt>
      <trkpt lat="45.6832" lon="5.06424">
        <ele>239</ele>
        <time>2020-09-16T08:41:49Z</time>
      </trkpt>
      <trkpt lat="45.68365" lon="5.06241">
        <ele>239</ele>
        <time>2020-09-16T08:42:13Z</time>
      </trkpt>
      <trkpt lat="45.68376" lon="5.06198">
        <ele>239</ele>
        <time>2020-09-16T08:42:19Z</time>
      </trkpt>
      <trkpt lat="45.68389" lon="5.06166">
        <ele>239</ele>
        <time>2020-09-16T08:42:24Z</time>
      </trkpt>
      <trkpt lat="45.68398" lon="5.06164">
        <ele>239</ele>
        <time>2020-09-16T08:42:25Z</time>
      </trkpt>
      <trkpt lat="45.68406" lon="5.06158">
        <ele>239</ele>
        <time>2020-09-16T08:42:27Z</time>
      </trkpt>
      <trkpt lat="45.68412" lon="5.06149">
        <ele>239</ele>
        <time>2020-09-16T08:42:28Z</time>
      </trkpt>
      <trkpt lat="45.68416" lon="5.06137">
        <ele>239</ele>
        <time>2020-09-16T08:42:30Z</time>
      </trkpt>
      <trkpt lat="45.68417" lon="5.06127">
        <ele>239</ele>
        <time>2020-09-16T08:42:31Z</time>
      </trkpt>
      <trkpt lat="45.68415" lon="5.06116">
        <ele>238</ele>
        <time>2020-09-16T08:42:33Z</time>
      </trkpt>
      <trkpt lat="45.68412" lon="5.06107">
        <ele>238</ele>
        <time>2020-09-16T08:42:34Z</time>
      </trkpt>
      <trkpt lat="45.68408" lon="5.06099">
        <ele>238</ele>
        <time>2020-09-16T08:42:35Z</time>
      </trkpt>
      <trkpt lat="45.68414" lon="5.06052">
        <ele>238</ele>
        <time>2020-09-16T08:42:41Z</time>
      </trkpt>
      <trkpt lat="45.68425" lon="5.06004">
        <ele>238</ele>
        <time>2020-09-16T08:42:47Z</time>
      </trkpt>
      <trkpt lat="45.6844" lon="5.05937">
        <ele>238</ele>
        <time>2020-09-16T08:42:56Z</time>
      </trkpt>
      <trkpt lat="45.68459" lon="5.05874">
        <ele>238</ele>
        <time>2020-09-16T08:43:05Z</time>
      </trkpt>
      <trkpt lat="45.68496" lon="5.05788">
        <ele>238</ele>
        <time>2020-09-16T08:43:17Z</time>
      </trkpt>
      <trkpt lat="45.68522" lon="5.05743">
        <ele>238</ele>
        <time>2020-09-16T08:43:24Z</time>
      </trkpt>
      <trkpt lat="45.68589" lon="5.05651">
        <ele>237</ele>
        <time>2020-09-16T08:43:41Z</time>
      </trkpt>
      <trkpt lat="45.68608" lon="5.05619">
        <ele>238</ele>
        <time>2020-09-16T08:43:46Z</time>
      </trkpt>
      <trkpt lat="45.68615" lon="5.0561">
        <ele>239</ele>
        <time>2020-09-16T08:43:48Z</time>
      </trkpt>
      <trkpt lat="45.68621" lon="5.05602">
        <ele>239</ele>
        <time>2020-09-16T08:43:49Z</time>
      </trkpt>
      <trkpt lat="45.68632" lon="5.0558">
        <ele>239</ele>
        <time>2020-09-16T08:43:53Z</time>
      </trkpt>
      <trkpt lat="45.68635" lon="5.05567">
        <ele>239</ele>
        <time>2020-09-16T08:43:54Z</time>
      </trkpt>
      <trkpt lat="45.68643" lon="5.05552">
        <ele>239</ele>
        <time>2020-09-16T08:43:57Z</time>
      </trkpt>
      <trkpt lat="45.68651" lon="5.05554">
        <ele>239</ele>
        <time>2020-09-16T08:43:58Z</time>
      </trkpt>
      <trkpt lat="45.68658" lon="5.05552">
        <ele>239</ele>
        <time>2020-09-16T08:43:59Z</time>
      </trkpt>
      <trkpt lat="45.68665" lon="5.05547">
        <ele>240</ele>
        <time>2020-09-16T08:44:01Z</time>
      </trkpt>
      <trkpt lat="45.68671" lon="5.05539">
        <ele>239</ele>
        <time>2020-09-16T08:44:02Z</time>
      </trkpt>
      <trkpt lat="45.68674" lon="5.05528">
        <ele>239</ele>
        <time>2020-09-16T08:44:04Z</time>
      </trkpt>
      <trkpt lat="45.68674" lon="5.05517">
        <ele>239</ele>
        <time>2020-09-16T08:44:05Z</time>
      </trkpt>
      <trkpt lat="45.68672" lon="5.05508">
        <ele>239</ele>
        <time>2020-09-16T08:44:06Z</time>
      </trkpt>
      <trkpt lat="45.68669" lon="5.05501">
        <ele>239</ele>
        <time>2020-09-16T08:44:07Z</time>
      </trkpt>
      <trkpt lat="45.68665" lon="5.05495">
        <ele>239</ele>
        <time>2020-09-16T08:44:08Z</time>
      </trkpt>
      <trkpt lat="45.68663" lon="5.05493">
        <ele>239</ele>
        <time>2020-09-16T08:44:09Z</time>
      </trkpt>
      <trkpt lat="45.68655" lon="5.0548">
        <ele>239</ele>
        <time>2020-09-16T08:44:11Z</time>
      </trkpt>
      <trkpt lat="45.6865" lon="5.05462">
        <ele>239</ele>
        <time>2020-09-16T08:44:13Z</time>
      </trkpt>
      <trkpt lat="45.68648" lon="5.05448">
        <ele>239</ele>
        <time>2020-09-16T08:44:15Z</time>
      </trkpt>
      <trkpt lat="45.68647" lon="5.05403">
        <ele>239</ele>
        <time>2020-09-16T08:44:21Z</time>
      </trkpt>
      <trkpt lat="45.68645" lon="5.05376">
        <ele>240</ele>
        <time>2020-09-16T08:44:24Z</time>
      </trkpt>
      <trkpt lat="45.68632" lon="5.05293">
        <ele>243</ele>
        <time>2020-09-16T08:44:35Z</time>
      </trkpt>
      <trkpt lat="45.68629" lon="5.05262">
        <ele>245</ele>
        <time>2020-09-16T08:44:39Z</time>
      </trkpt>
      <trkpt lat="45.68629" lon="5.05226">
        <ele>246</ele>
        <time>2020-09-16T08:44:43Z</time>
      </trkpt>
      <trkpt lat="45.68627" lon="5.05204">
        <ele>247</ele>
        <time>2020-09-16T08:44:46Z</time>
      </trkpt>
      <trkpt lat="45.6863" lon="5.05176">
        <ele>247</ele>
        <time>2020-09-16T08:44:49Z</time>
      </trkpt>
      <trkpt lat="45.68634" lon="5.05155">
        <ele>248</ele>
        <time>2020-09-16T08:44:52Z</time>
      </trkpt>
      <trkpt lat="45.68638" lon="5.05135">
        <ele>248</ele>
        <time>2020-09-16T08:44:55Z</time>
      </trkpt>
      <trkpt lat="45.68646" lon="5.05108">
        <ele>248</ele>
        <time>2020-09-16T08:44:58Z</time>
      </trkpt>
      <trkpt lat="45.68683" lon="5.04984">
        <ele>248</ele>
        <time>2020-09-16T08:45:15Z</time>
      </trkpt>
      <trkpt lat="45.68685" lon="5.0498">
        <ele>248</ele>
        <time>2020-09-16T08:45:16Z</time>
      </trkpt>
      <trkpt lat="45.68688" lon="5.0497">
        <ele>248</ele>
        <time>2020-09-16T08:45:17Z</time>
      </trkpt>
      <trkpt lat="45.68699" lon="5.04936">
        <ele>249</ele>
        <time>2020-09-16T08:45:22Z</time>
      </trkpt>
      <trkpt lat="45.68717" lon="5.04877">
        <ele>249</ele>
        <time>2020-09-16T08:45:30Z</time>
      </trkpt>
      <trkpt lat="45.68719" lon="5.04869">
        <ele>249</ele>
        <time>2020-09-16T08:45:31Z</time>
      </trkpt>
      <trkpt lat="45.68744" lon="5.04786">
        <ele>251</ele>
        <time>2020-09-16T08:45:42Z</time>
      </trkpt>
      <trkpt lat="45.68758" lon="5.0474">
        <ele>252</ele>
        <time>2020-09-16T08:45:48Z</time>
      </trkpt>
      <trkpt lat="45.68761" lon="5.04732">
        <ele>252</ele>
        <time>2020-09-16T08:45:49Z</time>
      </trkpt>
      <trkpt lat="45.68765" lon="5.04717">
        <ele>251</ele>
        <time>2020-09-16T08:45:51Z</time>
      </trkpt>
      <trkpt lat="45.68772" lon="5.04696">
        <ele>251</ele>
        <time>2020-09-16T08:45:54Z</time>
      </trkpt>
      <trkpt lat="45.68803" lon="5.04596">
        <ele>250</ele>
        <time>2020-09-16T08:46:08Z</time>
      </trkpt>
      <trkpt lat="45.68817" lon="5.0455">
        <ele>251</ele>
        <time>2020-09-16T08:46:14Z</time>
      </trkpt>
      <trkpt lat="45.68861" lon="5.04404">
        <ele>252</ele>
        <time>2020-09-16T08:46:34Z</time>
      </trkpt>
      <trkpt lat="45.68923" lon="5.04205">
        <ele>249</ele>
        <time>2020-09-16T08:47:01Z</time>
      </trkpt>
      <trkpt lat="45.68933" lon="5.0417">
        <ele>249</ele>
        <time>2020-09-16T08:47:06Z</time>
      </trkpt>
      <trkpt lat="45.68942" lon="5.0414">
        <ele>249</ele>
        <time>2020-09-16T08:47:10Z</time>
      </trkpt>
      <trkpt lat="45.68976" lon="5.0403">
        <ele>250</ele>
        <time>2020-09-16T08:47:25Z</time>
      </trkpt>
      <trkpt lat="45.68999" lon="5.03951">
        <ele>249</ele>
        <time>2020-09-16T08:47:35Z</time>
      </trkpt>
      <trkpt lat="45.69034" lon="5.03836">
        <ele>248</ele>
        <time>2020-09-16T08:47:51Z</time>
      </trkpt>
      <trkpt lat="45.69043" lon="5.03805">
        <ele>248</ele>
        <time>2020-09-16T08:47:55Z</time>
      </trkpt>
      <trkpt lat="45.69121" lon="5.03546">
        <ele>247</ele>
        <time>2020-09-16T08:48:30Z</time>
      </trkpt>
      <trkpt lat="45.69175" lon="5.03367">
        <ele>245</ele>
        <time>2020-09-16T08:48:54Z</time>
      </trkpt>
      <trkpt lat="45.693" lon="5.02961">
        <ele>240</ele>
        <time>2020-09-16T08:49:49Z</time>
      </trkpt>
      <trkpt lat="45.69545" lon="5.02152">
        <ele>235</ele>
        <time>2020-09-16T08:51:39Z</time>
      </trkpt>
      <trkpt lat="45.69646" lon="5.01851">
        <ele>232</ele>
        <time>2020-09-16T08:52:21Z</time>
      </trkpt>
      <trkpt lat="45.69752" lon="5.01543">
        <ele>229</ele>
        <time>2020-09-16T08:53:03Z</time>
      </trkpt>
      <trkpt lat="45.69788" lon="5.01446">
        <ele>228</ele>
        <time>2020-09-16T08:53:17Z</time>
      </trkpt>
      <trkpt lat="45.698" lon="5.01431">
        <ele>227</ele>
        <time>2020-09-16T08:53:20Z</time>
      </trkpt>
      <trkpt lat="45.69806" lon="5.01436">
        <ele>227</ele>
        <time>2020-09-16T08:53:21Z</time>
      </trkpt>
      <trkpt lat="45.69819" lon="5.01439">
        <ele>227</ele>
        <time>2020-09-16T08:53:23Z</time>
      </trkpt>
      <trkpt lat="45.69825" lon="5.01437">
        <ele>227</ele>
        <time>2020-09-16T08:53:24Z</time>
      </trkpt>
      <trkpt lat="45.69832" lon="5.0143">
        <ele>226</ele>
        <time>2020-09-16T08:53:26Z</time>
      </trkpt>
      <trkpt lat="45.69837" lon="5.01421">
        <ele>226</ele>
        <time>2020-09-16T08:53:27Z</time>
      </trkpt>
      <trkpt lat="45.6984" lon="5.0141">
        <ele>226</ele>
        <time>2020-09-16T08:53:29Z</time>
      </trkpt>
      <trkpt lat="45.6984" lon="5.01398">
        <ele>226</ele>
        <time>2020-09-16T08:53:30Z</time>
      </trkpt>
      <trkpt lat="45.69838" lon="5.01389">
        <ele>226</ele>
        <time>2020-09-16T08:53:31Z</time>
      </trkpt>
      <trkpt lat="45.69834" lon="5.01381">
        <ele>226</ele>
        <time>2020-09-16T08:53:33Z</time>
      </trkpt>
      <trkpt lat="45.69835" lon="5.01353">
        <ele>227</ele>
        <time>2020-09-16T08:53:36Z</time>
      </trkpt>
      <trkpt lat="45.69922" lon="5.01054">
        <ele>228</ele>
        <time>2020-09-16T08:54:16Z</time>
      </trkpt>
      <trkpt lat="45.69959" lon="5.0094">
        <ele>227</ele>
        <time>2020-09-16T08:54:32Z</time>
      </trkpt>
      <trkpt lat="45.69971" lon="5.00916">
        <ele>227</ele>
        <time>2020-09-16T08:54:36Z</time>
      </trkpt>
      <trkpt lat="45.69974" lon="5.00914">
        <ele>227</ele>
        <time>2020-09-16T08:54:36Z</time>
      </trkpt>
      <trkpt lat="45.6998" lon="5.00908">
        <ele>227</ele>
        <time>2020-09-16T08:54:38Z</time>
      </trkpt>
      <trkpt lat="45.69981" lon="5.00899">
        <ele>227</ele>
        <time>2020-09-16T08:54:39Z</time>
      </trkpt>
      <trkpt lat="45.69979" lon="5.00888">
        <ele>227</ele>
        <time>2020-09-16T08:54:40Z</time>
      </trkpt>
      <trkpt lat="45.69982" lon="5.00875">
        <ele>227</ele>
        <time>2020-09-16T08:54:42Z</time>
      </trkpt>
      <trkpt lat="45.70014" lon="5.00768">
        <ele>227</ele>
        <time>2020-09-16T08:54:56Z</time>
      </trkpt>
      <trkpt lat="45.70234" lon="5.00128">
        <ele>224</ele>
        <time>2020-09-16T08:56:25Z</time>
      </trkpt>
      <trkpt lat="45.70332" lon="4.99831">
        <ele>219</ele>
        <time>2020-09-16T08:57:06Z</time>
      </trkpt>
      <trkpt lat="45.70442" lon="4.99509">
        <ele>219</ele>
        <time>2020-09-16T08:57:50Z</time>
      </trkpt>
      <trkpt lat="45.70507" lon="4.99349">
        <ele>219</ele>
        <time>2020-09-16T08:58:13Z</time>
      </trkpt>
      <trkpt lat="45.7053" lon="4.99279">
        <ele>219</ele>
        <time>2020-09-16T08:58:23Z</time>
      </trkpt>
      <trkpt lat="45.70539" lon="4.99263">
        <ele>219</ele>
        <time>2020-09-16T08:58:25Z</time>
      </trkpt>
      <trkpt lat="45.70546" lon="4.9926">
        <ele>219</ele>
        <time>2020-09-16T08:58:27Z</time>
      </trkpt>
      <trkpt lat="45.70551" lon="4.99254">
        <ele>218</ele>
        <time>2020-09-16T08:58:28Z</time>
      </trkpt>
      <trkpt lat="45.70556" lon="4.99245">
        <ele>218</ele>
        <time>2020-09-16T08:58:29Z</time>
      </trkpt>
      <trkpt lat="45.70558" lon="4.99235">
        <ele>218</ele>
        <time>2020-09-16T08:58:31Z</time>
      </trkpt>
      <trkpt lat="45.70557" lon="4.99225">
        <ele>218</ele>
        <time>2020-09-16T08:58:32Z</time>
      </trkpt>
      <trkpt lat="45.70555" lon="4.99216">
        <ele>218</ele>
        <time>2020-09-16T08:58:33Z</time>
      </trkpt>
      <trkpt lat="45.70557" lon="4.99186">
        <ele>219</ele>
        <time>2020-09-16T08:58:37Z</time>
      </trkpt>
      <trkpt lat="45.70562" lon="4.99168">
        <ele>219</ele>
        <time>2020-09-16T08:58:39Z</time>
      </trkpt>
      <trkpt lat="45.70808" lon="4.98442">
        <ele>215</ele>
        <time>2020-09-16T09:00:19Z</time>
      </trkpt>
      <trkpt lat="45.70818" lon="4.9841">
        <ele>215</ele>
        <time>2020-09-16T09:00:24Z</time>
      </trkpt>
      <trkpt lat="45.70822" lon="4.98386">
        <ele>215</ele>
        <time>2020-09-16T09:00:27Z</time>
      </trkpt>
      <trkpt lat="45.71036" lon="4.9775">
        <ele>212</ele>
        <time>2020-09-16T09:01:55Z</time>
      </trkpt>
      <trkpt lat="45.71198" lon="4.97271">
        <ele>211</ele>
        <time>2020-09-16T09:03:01Z</time>
      </trkpt>
      <trkpt lat="45.71204" lon="4.97273">
        <ele>211</ele>
        <time>2020-09-16T09:03:02Z</time>
      </trkpt>
      <trkpt lat="45.71214" lon="4.97269">
        <ele>211</ele>
        <time>2020-09-16T09:03:04Z</time>
      </trkpt>
      <trkpt lat="45.71219" lon="4.97263">
        <ele>210</ele>
        <time>2020-09-16T09:03:05Z</time>
      </trkpt>
      <trkpt lat="45.71221" lon="4.97256">
        <ele>210</ele>
        <time>2020-09-16T09:03:06Z</time>
      </trkpt>
      <trkpt lat="45.71222" lon="4.9724">
        <ele>210</ele>
        <time>2020-09-16T09:03:08Z</time>
      </trkpt>
      <trkpt lat="45.71219" lon="4.97233">
        <ele>210</ele>
        <time>2020-09-16T09:03:09Z</time>
      </trkpt>
      <trkpt lat="45.71219" lon="4.97221">
        <ele>210</ele>
        <time>2020-09-16T09:03:10Z</time>
      </trkpt>
      <trkpt lat="45.71222" lon="4.97209">
        <ele>210</ele>
        <time>2020-09-16T09:03:12Z</time>
      </trkpt>
      <trkpt lat="45.71304" lon="4.97009">
        <ele>210</ele>
        <time>2020-09-16T09:03:41Z</time>
      </trkpt>
      <trkpt lat="45.71312" lon="4.96994">
        <ele>211</ele>
        <time>2020-09-16T09:03:43Z</time>
      </trkpt>
      <trkpt lat="45.71322" lon="4.96989">
        <ele>211</ele>
        <time>2020-09-16T09:03:45Z</time>
      </trkpt>
      <trkpt lat="45.71324" lon="4.96984">
        <ele>211</ele>
        <time>2020-09-16T09:03:46Z</time>
      </trkpt>
      <trkpt lat="45.71328" lon="4.9697">
        <ele>210</ele>
        <time>2020-09-16T09:03:48Z</time>
      </trkpt>
      <trkpt lat="45.71327" lon="4.96962">
        <ele>210</ele>
        <time>2020-09-16T09:03:49Z</time>
      </trkpt>
      <trkpt lat="45.71324" lon="4.96955">
        <ele>210</ele>
        <time>2020-09-16T09:03:50Z</time>
      </trkpt>
      <trkpt lat="45.71326" lon="4.96944">
        <ele>210</ele>
        <time>2020-09-16T09:03:51Z</time>
      </trkpt>
      <trkpt lat="45.71363" lon="4.96836">
        <ele>209</ele>
        <time>2020-09-16T09:04:06Z</time>
      </trkpt>
      <trkpt lat="45.71372" lon="4.9682">
        <ele>209</ele>
        <time>2020-09-16T09:04:08Z</time>
      </trkpt>
      <trkpt lat="45.71377" lon="4.96814">
        <ele>209</ele>
        <time>2020-09-16T09:04:10Z</time>
      </trkpt>
      <trkpt lat="45.71388" lon="4.96808">
        <ele>209</ele>
        <time>2020-09-16T09:04:12Z</time>
      </trkpt>
      <trkpt lat="45.71391" lon="4.96803">
        <ele>209</ele>
        <time>2020-09-16T09:04:13Z</time>
      </trkpt>
      <trkpt lat="45.71395" lon="4.96788">
        <ele>210</ele>
        <time>2020-09-16T09:04:15Z</time>
      </trkpt>
      <trkpt lat="45.71394" lon="4.9678">
        <ele>210</ele>
        <time>2020-09-16T09:04:16Z</time>
      </trkpt>
      <trkpt lat="45.71388" lon="4.96764">
        <ele>210</ele>
        <time>2020-09-16T09:04:18Z</time>
      </trkpt>
      <trkpt lat="45.71387" lon="4.96748">
        <ele>210</ele>
        <time>2020-09-16T09:04:20Z</time>
      </trkpt>
      <trkpt lat="45.71389" lon="4.96725">
        <ele>210</ele>
        <time>2020-09-16T09:04:23Z</time>
      </trkpt>
      <trkpt lat="45.71396" lon="4.96692">
        <ele>209</ele>
        <time>2020-09-16T09:04:27Z</time>
      </trkpt>
      <trkpt lat="45.71411" lon="4.96647">
        <ele>209</ele>
        <time>2020-09-16T09:04:33Z</time>
      </trkpt>
      <trkpt lat="45.71462" lon="4.96499">
        <ele>208</ele>
        <time>2020-09-16T09:04:54Z</time>
      </trkpt>
      <trkpt lat="45.71546" lon="4.96251">
        <ele>208</ele>
        <time>2020-09-16T09:05:28Z</time>
      </trkpt>
      <trkpt lat="45.71552" lon="4.96239">
        <ele>208</ele>
        <time>2020-09-16T09:05:30Z</time>
      </trkpt>
      <trkpt lat="45.71675" lon="4.95878">
        <ele>206</ele>
        <time>2020-09-16T09:06:20Z</time>
      </trkpt>
      <trkpt lat="45.71693" lon="4.95836">
        <ele>205</ele>
        <time>2020-09-16T09:06:26Z</time>
      </trkpt>
      <trkpt lat="45.717" lon="4.95833">
        <ele>204</ele>
        <time>2020-09-16T09:06:27Z</time>
      </trkpt>
      <trkpt lat="45.71706" lon="4.95824">
        <ele>204</ele>
        <time>2020-09-16T09:06:29Z</time>
      </trkpt>
      <trkpt lat="45.71707" lon="4.95811">
        <ele>204</ele>
        <time>2020-09-16T09:06:30Z</time>
      </trkpt>
      <trkpt lat="45.71705" lon="4.95803">
        <ele>204</ele>
        <time>2020-09-16T09:06:31Z</time>
      </trkpt>
      <trkpt lat="45.71707" lon="4.95791">
        <ele>204</ele>
        <time>2020-09-16T09:06:33Z</time>
      </trkpt>
      <trkpt lat="45.7178" lon="4.95579">
        <ele>202</ele>
        <time>2020-09-16T09:07:02Z</time>
      </trkpt>
      <trkpt lat="45.71787" lon="4.95557">
        <ele>202</ele>
        <time>2020-09-16T09:07:05Z</time>
      </trkpt>
      <trkpt lat="45.71811" lon="4.95507">
        <ele>202</ele>
        <time>2020-09-16T09:07:13Z</time>
      </trkpt>
      <trkpt lat="45.71818" lon="4.95488">
        <ele>203</ele>
        <time>2020-09-16T09:07:15Z</time>
      </trkpt>
      <trkpt lat="45.71826" lon="4.95483">
        <ele>203</ele>
        <time>2020-09-16T09:07:17Z</time>
      </trkpt>
      <trkpt lat="45.71831" lon="4.95473">
        <ele>203</ele>
        <time>2020-09-16T09:07:18Z</time>
      </trkpt>
      <trkpt lat="45.7183" lon="4.9546">
        <ele>203</ele>
        <time>2020-09-16T09:07:20Z</time>
      </trkpt>
      <trkpt lat="45.71826" lon="4.95451">
        <ele>203</ele>
        <time>2020-09-16T09:07:21Z</time>
      </trkpt>
      <trkpt lat="45.71824" lon="4.95434">
        <ele>203</ele>
        <time>2020-09-16T09:07:24Z</time>
      </trkpt>
      <trkpt lat="45.71825" lon="4.95411">
        <ele>203</ele>
        <time>2020-09-16T09:07:26Z</time>
      </trkpt>
      <trkpt lat="45.71823" lon="4.95379">
        <ele>203</ele>
        <time>2020-09-16T09:07:30Z</time>
      </trkpt>
      <trkpt lat="45.71826" lon="4.95272">
        <ele>202</ele>
        <time>2020-09-16T09:07:44Z</time>
      </trkpt>
      <trkpt lat="45.71825" lon="4.9521">
        <ele>202</ele>
        <time>2020-09-16T09:07:51Z</time>
      </trkpt>
      <trkpt lat="45.7182" lon="4.95141">
        <ele>201</ele>
        <time>2020-09-16T09:08:00Z</time>
      </trkpt>
      <trkpt lat="45.71815" lon="4.95108">
        <ele>200</ele>
        <time>2020-09-16T09:08:04Z</time>
      </trkpt>
      <trkpt lat="45.7181" lon="4.95077">
        <ele>200</ele>
        <time>2020-09-16T09:08:08Z</time>
      </trkpt>
      <trkpt lat="45.718" lon="4.95027">
        <ele>200</ele>
        <time>2020-09-16T09:08:15Z</time>
      </trkpt>
      <trkpt lat="45.71799" lon="4.95015">
        <ele>200</ele>
        <time>2020-09-16T09:08:16Z</time>
      </trkpt>
      <trkpt lat="45.718" lon="4.94998">
        <ele>200</ele>
        <time>2020-09-16T09:08:18Z</time>
      </trkpt>
      <trkpt lat="45.71805" lon="4.94988">
        <ele>200</ele>
        <time>2020-09-16T09:08:20Z</time>
      </trkpt>
      <trkpt lat="45.71807" lon="4.94975">
        <ele>200</ele>
        <time>2020-09-16T09:08:21Z</time>
      </trkpt>
      <trkpt lat="45.71804" lon="4.94962">
        <ele>200</ele>
        <time>2020-09-16T09:08:23Z</time>
      </trkpt>
      <trkpt lat="45.71797" lon="4.94953">
        <ele>200</ele>
        <time>2020-09-16T09:08:25Z</time>
      </trkpt>
      <trkpt lat="45.71792" lon="4.94951">
        <ele>200</ele>
        <time>2020-09-16T09:08:26Z</time>
      </trkpt>
      <trkpt lat="45.71786" lon="4.94938">
        <ele>200</ele>
        <time>2020-09-16T09:08:28Z</time>
      </trkpt>
      <trkpt lat="45.71769" lon="4.94839">
        <ele>200</ele>
        <time>2020-09-16T09:08:40Z</time>
      </trkpt>
      <trkpt lat="45.71761" lon="4.94757">
        <ele>200</ele>
        <time>2020-09-16T09:08:51Z</time>
      </trkpt>
      <trkpt lat="45.71759" lon="4.94644">
        <ele>199</ele>
        <time>2020-09-16T09:09:05Z</time>
      </trkpt>
      <trkpt lat="45.71764" lon="4.94597">
        <ele>199</ele>
        <time>2020-09-16T09:09:11Z</time>
      </trkpt>
      <trkpt lat="45.71771" lon="4.9455">
        <ele>199</ele>
        <time>2020-09-16T09:09:17Z</time>
      </trkpt>
      <trkpt lat="45.7179" lon="4.94468">
        <ele>201</ele>
        <time>2020-09-16T09:09:27Z</time>
      </trkpt>
      <trkpt lat="45.71803" lon="4.94426">
        <ele>202</ele>
        <time>2020-09-16T09:09:33Z</time>
      </trkpt>
      <trkpt lat="45.71818" lon="4.94387">
        <ele>201</ele>
        <time>2020-09-16T09:09:39Z</time>
      </trkpt>
      <trkpt lat="45.71834" lon="4.9435">
        <ele>200</ele>
        <time>2020-09-16T09:09:44Z</time>
      </trkpt>
      <trkpt lat="45.71852" lon="4.94315">
        <ele>199</ele>
        <time>2020-09-16T09:09:49Z</time>
      </trkpt>
      <trkpt lat="45.71887" lon="4.94257">
        <ele>198</ele>
        <time>2020-09-16T09:09:59Z</time>
      </trkpt>
      <trkpt lat="45.7193" lon="4.94203">
        <ele>198</ele>
        <time>2020-09-16T09:10:09Z</time>
      </trkpt>
      <trkpt lat="45.71957" lon="4.94175">
        <ele>198</ele>
        <time>2020-09-16T09:10:15Z</time>
      </trkpt>
      <trkpt lat="45.71984" lon="4.94151">
        <ele>198</ele>
        <time>2020-09-16T09:10:21Z</time>
      </trkpt>
      <trkpt lat="45.7201" lon="4.94132">
        <ele>198</ele>
        <time>2020-09-16T09:10:26Z</time>
      </trkpt>
      <trkpt lat="45.72183" lon="4.94026">
        <ele>199</ele>
        <time>2020-09-16T09:10:59Z</time>
      </trkpt>
      <trkpt lat="45.72233" lon="4.93986">
        <ele>200</ele>
        <time>2020-09-16T09:11:09Z</time>
      </trkpt>
      <trkpt lat="45.72271" lon="4.93948">
        <ele>200</ele>
        <time>2020-09-16T09:11:18Z</time>
      </trkpt>
      <trkpt lat="45.72317" lon="4.93887">
        <ele>200</ele>
        <time>2020-09-16T09:11:29Z</time>
      </trkpt>
      <trkpt lat="45.72331" lon="4.93868">
        <ele>201</ele>
        <time>2020-09-16T09:11:32Z</time>
      </trkpt>
      <trkpt lat="45.72356" lon="4.93824">
        <ele>201</ele>
        <time>2020-09-16T09:11:39Z</time>
      </trkpt>
      <trkpt lat="45.7238" lon="4.93774">
        <ele>202</ele>
        <time>2020-09-16T09:11:47Z</time>
      </trkpt>
      <trkpt lat="45.72398" lon="4.93727">
        <ele>202</ele>
        <time>2020-09-16T09:11:54Z</time>
      </trkpt>
      <trkpt lat="45.72422" lon="4.93677">
        <ele>201</ele>
        <time>2020-09-16T09:12:01Z</time>
      </trkpt>
      <trkpt lat="45.72454" lon="4.93595">
        <ele>198</ele>
        <time>2020-09-16T09:12:13Z</time>
      </trkpt>
      <trkpt lat="45.72462" lon="4.93573">
        <ele>197</ele>
        <time>2020-09-16T09:12:16Z</time>
      </trkpt>
      <trkpt lat="45.72468" lon="4.93546">
        <ele>197</ele>
        <time>2020-09-16T09:12:19Z</time>
      </trkpt>
      <trkpt lat="45.72473" lon="4.93549">
        <ele>197</ele>
        <time>2020-09-16T09:12:20Z</time>
      </trkpt>
      <trkpt lat="45.72476" lon="4.93547">
        <ele>197</ele>
        <time>2020-09-16T09:12:21Z</time>
      </trkpt>
      <trkpt lat="45.72479" lon="4.93524">
        <ele>197</ele>
        <time>2020-09-16T09:12:24Z</time>
      </trkpt>
      <trkpt lat="45.72478" lon="4.93518">
        <ele>196</ele>
        <time>2020-09-16T09:12:25Z</time>
      </trkpt>
      <trkpt lat="45.72483" lon="4.93496">
        <ele>196</ele>
        <time>2020-09-16T09:12:27Z</time>
      </trkpt>
      <trkpt lat="45.72518" lon="4.93384">
        <ele>199</ele>
        <time>2020-09-16T09:12:43Z</time>
      </trkpt>
      <trkpt lat="45.72642" lon="4.93018">
        <ele>199</ele>
        <time>2020-09-16T09:13:33Z</time>
      </trkpt>
      <trkpt lat="45.72655" lon="4.93004">
        <ele>199</ele>
        <time>2020-09-16T09:13:36Z</time>
      </trkpt>
      <trkpt lat="45.72719" lon="4.92815">
        <ele>203</ele>
        <time>2020-09-16T09:14:02Z</time>
      </trkpt>
      <trkpt lat="45.72725" lon="4.92799">
        <ele>203</ele>
        <time>2020-09-16T09:14:04Z</time>
      </trkpt>
      <trkpt lat="45.72836" lon="4.92459">
        <ele>207</ele>
        <time>2020-09-16T09:14:51Z</time>
      </trkpt>
      <trkpt lat="45.73022" lon="4.91911">
        <ele>209</ele>
        <time>2020-09-16T09:16:07Z</time>
      </trkpt>
      <trkpt lat="45.73015" lon="4.91907">
        <ele>208</ele>
        <time>2020-09-16T09:16:08Z</time>
      </trkpt>
      <trkpt lat="45.73138" lon="4.91534">
        <ele>205</ele>
        <time>2020-09-16T09:16:59Z</time>
      </trkpt>
      <trkpt lat="45.7315" lon="4.91509">
        <ele>205</ele>
        <time>2020-09-16T09:17:03Z</time>
      </trkpt>
      <trkpt lat="45.7317" lon="4.91445">
        <ele>205</ele>
        <time>2020-09-16T09:17:12Z</time>
      </trkpt>
      <trkpt lat="45.73176" lon="4.91419">
        <ele>205</ele>
        <time>2020-09-16T09:17:15Z</time>
      </trkpt>
      <trkpt lat="45.73217" lon="4.91293">
        <ele>203</ele>
        <time>2020-09-16T09:17:33Z</time>
      </trkpt>
      <trkpt lat="45.73322" lon="4.90975">
        <ele>207</ele>
        <time>2020-09-16T09:18:16Z</time>
      </trkpt>
      <trkpt lat="45.73332" lon="4.90956">
        <ele>207</ele>
        <time>2020-09-16T09:18:19Z</time>
      </trkpt>
      <trkpt lat="45.73358" lon="4.90877">
        <ele>207</ele>
        <time>2020-09-16T09:18:30Z</time>
      </trkpt>
      <trkpt lat="45.73365" lon="4.90847">
        <ele>207</ele>
        <time>2020-09-16T09:18:34Z</time>
      </trkpt>
      <trkpt lat="45.73466" lon="4.90543">
        <ele>200</ele>
        <time>2020-09-16T09:19:16Z</time>
      </trkpt>
      <trkpt lat="45.7347" lon="4.90531">
        <ele>199</ele>
        <time>2020-09-16T09:19:17Z</time>
      </trkpt>
      <trkpt lat="45.73476" lon="4.9053">
        <ele>199</ele>
        <time>2020-09-16T09:19:18Z</time>
      </trkpt>
      <trkpt lat="45.73481" lon="4.90527">
        <ele>199</ele>
        <time>2020-09-16T09:19:19Z</time>
      </trkpt>
      <trkpt lat="45.73487" lon="4.90516">
        <ele>199</ele>
        <time>2020-09-16T09:19:21Z</time>
      </trkpt>
      <trkpt lat="45.73487" lon="4.90501">
        <ele>199</ele>
        <time>2020-09-16T09:19:23Z</time>
      </trkpt>
      <trkpt lat="45.73484" lon="4.90494">
        <ele>199</ele>
        <time>2020-09-16T09:19:24Z</time>
      </trkpt>
      <trkpt lat="45.73512" lon="4.90413">
        <ele>199</ele>
        <time>2020-09-16T09:19:35Z</time>
      </trkpt>
      <trkpt lat="45.73521" lon="4.90391">
        <ele>200</ele>
        <time>2020-09-16T09:19:38Z</time>
      </trkpt>
      <trkpt lat="45.73531" lon="4.90382">
        <ele>200</ele>
        <time>2020-09-16T09:19:41Z</time>
      </trkpt>
      <trkpt lat="45.73544" lon="4.90346">
        <ele>201</ele>
        <time>2020-09-16T09:19:46Z</time>
      </trkpt>
      <trkpt lat="45.73547" lon="4.90339">
        <ele>201</ele>
        <time>2020-09-16T09:19:47Z</time>
      </trkpt>
      <trkpt lat="45.73558" lon="4.90314">
        <ele>202</ele>
        <time>2020-09-16T09:19:50Z</time>
      </trkpt>
      <trkpt lat="45.73564" lon="4.90304">
        <ele>202</ele>
        <time>2020-09-16T09:19:52Z</time>
      </trkpt>
      <trkpt lat="45.73566" lon="4.90282">
        <ele>203</ele>
        <time>2020-09-16T09:19:55Z</time>
      </trkpt>
      <trkpt lat="45.73609" lon="4.90151">
        <ele>204</ele>
        <time>2020-09-16T09:20:13Z</time>
      </trkpt>
      <trkpt lat="45.73625" lon="4.90119">
        <ele>203</ele>
        <time>2020-09-16T09:20:18Z</time>
      </trkpt>
      <trkpt lat="45.73628" lon="4.90111">
        <ele>203</ele>
        <time>2020-09-16T09:20:19Z</time>
      </trkpt>
      <trkpt lat="45.73626" lon="4.90088">
        <ele>203</ele>
        <time>2020-09-16T09:20:22Z</time>
      </trkpt>
      <trkpt lat="45.73649" lon="4.90018">
        <ele>204</ele>
        <time>2020-09-16T09:20:31Z</time>
      </trkpt>
      <trkpt lat="45.73658" lon="4.89988">
        <ele>204</ele>
        <time>2020-09-16T09:20:35Z</time>
      </trkpt>
      <trkpt lat="45.73709" lon="4.89835">
        <ele>204</ele>
        <time>2020-09-16T09:20:56Z</time>
      </trkpt>
      <trkpt lat="45.73712" lon="4.89824">
        <ele>204</ele>
        <time>2020-09-16T09:20:58Z</time>
      </trkpt>
      <trkpt lat="45.73722" lon="4.89795">
        <ele>203</ele>
        <time>2020-09-16T09:21:02Z</time>
      </trkpt>
      <trkpt lat="45.73725" lon="4.89786">
        <ele>203</ele>
        <time>2020-09-16T09:21:03Z</time>
      </trkpt>
      <trkpt lat="45.73773" lon="4.89641">
        <ele>202</ele>
        <time>2020-09-16T09:21:23Z</time>
      </trkpt>
      <trkpt lat="45.73836" lon="4.8945">
        <ele>200</ele>
        <time>2020-09-16T09:21:49Z</time>
      </trkpt>
      <trkpt lat="45.73864" lon="4.89366">
        <ele>201</ele>
        <time>2020-09-16T09:22:01Z</time>
      </trkpt>
      <trkpt lat="45.73891" lon="4.89281">
        <ele>203</ele>
        <time>2020-09-16T09:22:12Z</time>
      </trkpt>
      <trkpt lat="45.73896" lon="4.89273">
        <ele>203</ele>
        <time>2020-09-16T09:22:14Z</time>
      </trkpt>
      <trkpt lat="45.73897" lon="4.89265">
        <ele>204</ele>
        <time>2020-09-16T09:22:15Z</time>
      </trkpt>
      <trkpt lat="45.73897" lon="4.89261">
        <ele>204</ele>
        <time>2020-09-16T09:22:15Z</time>
      </trkpt>
      <trkpt lat="45.73897" lon="4.89255">
        <ele>204</ele>
        <time>2020-09-16T09:22:16Z</time>
      </trkpt>
      <trkpt lat="45.73894" lon="4.89247">
        <ele>205</ele>
        <time>2020-09-16T09:22:17Z</time>
      </trkpt>
      <trkpt lat="45.73949" lon="4.89088">
        <ele>205</ele>
        <time>2020-09-16T09:22:39Z</time>
      </trkpt>
      <trkpt lat="45.7408" lon="4.88692">
        <ele>200</ele>
        <time>2020-09-16T09:23:33Z</time>
      </trkpt>
      <trkpt lat="45.74132" lon="4.8853">
        <ele>194</ele>
        <time>2020-09-16T09:23:56Z</time>
      </trkpt>
      <trkpt lat="45.74132" lon="4.88518">
        <ele>194</ele>
        <time>2020-09-16T09:23:57Z</time>
      </trkpt>
      <trkpt lat="45.7414" lon="4.88505">
        <ele>194</ele>
        <time>2020-09-16T09:23:59Z</time>
      </trkpt>
      <trkpt lat="45.74197" lon="4.88333">
        <ele>190</ele>
        <time>2020-09-16T09:24:23Z</time>
      </trkpt>
      <trkpt lat="45.74204" lon="4.88305">
        <ele>189</ele>
        <time>2020-09-16T09:24:27Z</time>
      </trkpt>
      <trkpt lat="45.74241" lon="4.88075">
        <ele>182</ele>
        <time>2020-09-16T09:24:56Z</time>
      </trkpt>
      <trkpt lat="45.74259" lon="4.87988">
        <ele>181</ele>
        <time>2020-09-16T09:25:07Z</time>
      </trkpt>
      <trkpt lat="45.74269" lon="4.87958">
        <ele>180</ele>
        <time>2020-09-16T09:25:11Z</time>
      </trkpt>
      <trkpt lat="45.74275" lon="4.87948">
        <ele>180</ele>
        <time>2020-09-16T09:25:13Z</time>
      </trkpt>
      <trkpt lat="45.74291" lon="4.87934">
        <ele>180</ele>
        <time>2020-09-16T09:25:16Z</time>
      </trkpt>
      <trkpt lat="45.74297" lon="4.87933">
        <ele>180</ele>
        <time>2020-09-16T09:25:17Z</time>
      </trkpt>
      <trkpt lat="45.74305" lon="4.87929">
        <ele>180</ele>
        <time>2020-09-16T09:25:19Z</time>
      </trkpt>
      <trkpt lat="45.74315" lon="4.87918">
        <ele>180</ele>
        <time>2020-09-16T09:25:21Z</time>
      </trkpt>
      <trkpt lat="45.74323" lon="4.87904">
        <ele>180</ele>
        <time>2020-09-16T09:25:23Z</time>
      </trkpt>
      <trkpt lat="45.74327" lon="4.87885">
        <ele>180</ele>
        <time>2020-09-16T09:25:26Z</time>
      </trkpt>
      <trkpt lat="45.74326" lon="4.87873">
        <ele>180</ele>
        <time>2020-09-16T09:25:27Z</time>
      </trkpt>
      <trkpt lat="45.74323" lon="4.87859">
        <ele>180</ele>
        <time>2020-09-16T09:25:29Z</time>
      </trkpt>
      <trkpt lat="45.74317" lon="4.87848">
        <ele>180</ele>
        <time>2020-09-16T09:25:31Z</time>
      </trkpt>
      <trkpt lat="45.74315" lon="4.87832">
        <ele>180</ele>
        <time>2020-09-16T09:25:33Z</time>
      </trkpt>
      <trkpt lat="45.74316" lon="4.87819">
        <ele>180</ele>
        <time>2020-09-16T09:25:35Z</time>
      </trkpt>
      <trkpt lat="45.74899" lon="4.86124">
        <ele>178</ele>
        <time>2020-09-16T09:29:29Z</time>
      </trkpt>
      <trkpt lat="45.7491" lon="4.86105">
        <ele>177</ele>
        <time>2020-09-16T09:29:32Z</time>
      </trkpt>
      <trkpt lat="45.74934" lon="4.86047">
        <ele>174</ele>
        <time>2020-09-16T09:29:41Z</time>
      </trkpt>
      <trkpt lat="45.74937" lon="4.8604">
        <ele>174</ele>
        <time>2020-09-16T09:29:42Z</time>
      </trkpt>
      <trkpt lat="45.74941" lon="4.8603">
        <ele>174</ele>
        <time>2020-09-16T09:29:43Z</time>
      </trkpt>
      <trkpt lat="45.74944" lon="4.86023">
        <ele>173</ele>
        <time>2020-09-16T09:29:44Z</time>
      </trkpt>
      <trkpt lat="45.74962" lon="4.85971">
        <ele>174</ele>
        <time>2020-09-16T09:29:51Z</time>
      </trkpt>
      <trkpt lat="45.74966" lon="4.85958">
        <ele>175</ele>
        <time>2020-09-16T09:29:53Z</time>
      </trkpt>
      <trkpt lat="45.74967" lon="4.85957">
        <ele>175</ele>
        <time>2020-09-16T09:29:53Z</time>
      </trkpt>
      <trkpt lat="45.74971" lon="4.85945">
        <ele>176</ele>
        <time>2020-09-16T09:29:55Z</time>
      </trkpt>
      <trkpt lat="45.74971" lon="4.85942">
        <ele>176</ele>
        <time>2020-09-16T09:29:55Z</time>
      </trkpt>
      <trkpt lat="45.74974" lon="4.85934">
        <ele>176</ele>
        <time>2020-09-16T09:29:56Z</time>
      </trkpt>
      <trkpt lat="45.74973" lon="4.85926">
        <ele>177</ele>
        <time>2020-09-16T09:29:57Z</time>
      </trkpt>
      <trkpt lat="45.74978" lon="4.85902">
        <ele>177</ele>
        <time>2020-09-16T09:30:01Z</time>
      </trkpt>
      <trkpt lat="45.7498" lon="4.85887">
        <ele>177</ele>
        <time>2020-09-16T09:30:02Z</time>
      </trkpt>
      <trkpt lat="45.74997" lon="4.85838">
        <ele>175</ele>
        <time>2020-09-16T09:30:09Z</time>
      </trkpt>
      <trkpt lat="45.75001" lon="4.85826">
        <ele>175</ele>
        <time>2020-09-16T09:30:11Z</time>
      </trkpt>
      <trkpt lat="45.75025" lon="4.85756">
        <ele>182</ele>
        <time>2020-09-16T09:30:21Z</time>
      </trkpt>
      <trkpt lat="45.75038" lon="4.85716">
        <ele>183</ele>
        <time>2020-09-16T09:30:26Z</time>
      </trkpt>
      <trkpt lat="45.75045" lon="4.85696">
        <ele>183</ele>
        <time>2020-09-16T09:30:29Z</time>
      </trkpt>
      <trkpt lat="45.75061" lon="4.8565">
        <ele>182</ele>
        <time>2020-09-16T09:30:35Z</time>
      </trkpt>
      <trkpt lat="45.75088" lon="4.85576">
        <ele>177</ele>
        <time>2020-09-16T09:30:46Z</time>
      </trkpt>
      <trkpt lat="45.75098" lon="4.85548">
        <ele>176</ele>
        <time>2020-09-16T09:30:49Z</time>
      </trkpt>
      <trkpt lat="45.75104" lon="4.85531">
        <ele>176</ele>
        <time>2020-09-16T09:30:52Z</time>
      </trkpt>
      <trkpt lat="45.75108" lon="4.85518">
        <ele>175</ele>
        <time>2020-09-16T09:30:54Z</time>
      </trkpt>
      <trkpt lat="45.7515" lon="4.85396">
        <ele>172</ele>
        <time>2020-09-16T09:31:10Z</time>
      </trkpt>
      <trkpt lat="45.75152" lon="4.85389">
        <ele>172</ele>
        <time>2020-09-16T09:31:11Z</time>
      </trkpt>
      <trkpt lat="45.75155" lon="4.8538">
        <ele>172</ele>
        <time>2020-09-16T09:31:13Z</time>
      </trkpt>
      <trkpt lat="45.75162" lon="4.85358">
        <ele>171</ele>
        <time>2020-09-16T09:31:16Z</time>
      </trkpt>
      <trkpt lat="45.75168" lon="4.85341">
        <ele>171</ele>
        <time>2020-09-16T09:31:18Z</time>
      </trkpt>
      <trkpt lat="45.75173" lon="4.85328">
        <ele>171</ele>
        <time>2020-09-16T09:31:20Z</time>
      </trkpt>
      <trkpt lat="45.75187" lon="4.85285">
        <ele>172</ele>
        <time>2020-09-16T09:31:26Z</time>
      </trkpt>
      <trkpt lat="45.75189" lon="4.85281">
        <ele>172</ele>
        <time>2020-09-16T09:31:26Z</time>
      </trkpt>
      <trkpt lat="45.75208" lon="4.85223">
        <ele>172</ele>
        <time>2020-09-16T09:31:34Z</time>
      </trkpt>
      <trkpt lat="45.75232" lon="4.85157">
        <ele>172</ele>
        <time>2020-09-16T09:31:44Z</time>
      </trkpt>
      <trkpt lat="45.75232" lon="4.85157">
        <ele>172</ele>
        <time>2020-09-16T09:31:44Z</time>
      </trkpt>
      <trkpt lat="45.75247" lon="4.85116">
        <ele>171</ele>
        <time>2020-09-16T09:31:49Z</time>
      </trkpt>
      <trkpt lat="45.75249" lon="4.8511">
        <ele>171</ele>
        <time>2020-09-16T09:31:50Z</time>
      </trkpt>
      <trkpt lat="45.75258" lon="4.85084">
        <ele>171</ele>
        <time>2020-09-16T09:31:54Z</time>
      </trkpt>
      <trkpt lat="45.75263" lon="4.85069">
        <ele>172</ele>
        <time>2020-09-16T09:31:56Z</time>
      </trkpt>
      <trkpt lat="45.7527" lon="4.85051">
        <ele>173</ele>
        <time>2020-09-16T09:31:58Z</time>
      </trkpt>
      <trkpt lat="45.75272" lon="4.85043">
        <ele>173</ele>
        <time>2020-09-16T09:31:59Z</time>
      </trkpt>
      <trkpt lat="45.75276" lon="4.85034">
        <ele>173</ele>
        <time>2020-09-16T09:32:01Z</time>
      </trkpt>
      <trkpt lat="45.75278" lon="4.85026">
        <ele>174</ele>
        <time>2020-09-16T09:32:02Z</time>
      </trkpt>
      <trkpt lat="45.75284" lon="4.85011">
        <ele>175</ele>
        <time>2020-09-16T09:32:04Z</time>
      </trkpt>
      <trkpt lat="45.75291" lon="4.84989">
        <ele>176</ele>
        <time>2020-09-16T09:32:07Z</time>
      </trkpt>
      <trkpt lat="45.75291" lon="4.84989">
        <ele>176</ele>
        <time>2020-09-16T09:32:07Z</time>
      </trkpt>
      <trkpt lat="45.7531" lon="4.84934">
        <ele>178</ele>
        <time>2020-09-16T09:32:15Z</time>
      </trkpt>
      <trkpt lat="45.75311" lon="4.84929">
        <ele>178</ele>
        <time>2020-09-16T09:32:15Z</time>
      </trkpt>
      <trkpt lat="45.75312" lon="4.84926">
        <ele>178</ele>
        <time>2020-09-16T09:32:16Z</time>
      </trkpt>
      <trkpt lat="45.7532" lon="4.84901">
        <ele>178</ele>
        <time>2020-09-16T09:32:19Z</time>
      </trkpt>
      <trkpt lat="45.75323" lon="4.84893">
        <ele>178</ele>
        <time>2020-09-16T09:32:20Z</time>
      </trkpt>
      <trkpt lat="45.75324" lon="4.8489">
        <ele>178</ele>
        <time>2020-09-16T09:32:21Z</time>
      </trkpt>
      <trkpt lat="45.75326" lon="4.84885">
        <ele>178</ele>
        <time>2020-09-16T09:32:21Z</time>
      </trkpt>
      <trkpt lat="45.75351" lon="4.84815">
        <ele>176</ele>
        <time>2020-09-16T09:32:31Z</time>
      </trkpt>
      <trkpt lat="45.75352" lon="4.84811">
        <ele>176</ele>
        <time>2020-09-16T09:32:32Z</time>
      </trkpt>
      <trkpt lat="45.75358" lon="4.84793">
        <ele>176</ele>
        <time>2020-09-16T09:32:34Z</time>
      </trkpt>
      <trkpt lat="45.75364" lon="4.84777">
        <ele>176</ele>
        <time>2020-09-16T09:32:36Z</time>
      </trkpt>
      <trkpt lat="45.75364" lon="4.84775">
        <ele>176</ele>
        <time>2020-09-16T09:32:37Z</time>
      </trkpt>
      <trkpt lat="45.75367" lon="4.84766">
        <ele>176</ele>
        <time>2020-09-16T09:32:38Z</time>
      </trkpt>
      <trkpt lat="45.7537" lon="4.84757">
        <ele>176</ele>
        <time>2020-09-16T09:32:39Z</time>
      </trkpt>
      <trkpt lat="45.75376" lon="4.84741">
        <ele>176</ele>
        <time>2020-09-16T09:32:41Z</time>
      </trkpt>
      <trkpt lat="45.75381" lon="4.84726">
        <ele>176</ele>
        <time>2020-09-16T09:32:43Z</time>
      </trkpt>
      <trkpt lat="45.7539" lon="4.84699">
        <ele>175</ele>
        <time>2020-09-16T09:32:47Z</time>
      </trkpt>
      <trkpt lat="45.75397" lon="4.84679">
        <ele>175</ele>
        <time>2020-09-16T09:32:50Z</time>
      </trkpt>
      <trkpt lat="45.75408" lon="4.84646">
        <ele>176</ele>
        <time>2020-09-16T09:32:54Z</time>
      </trkpt>
      <trkpt lat="45.75412" lon="4.84637">
        <ele>176</ele>
        <time>2020-09-16T09:32:56Z</time>
      </trkpt>
      <trkpt lat="45.75416" lon="4.84623">
        <ele>176</ele>
        <time>2020-09-16T09:32:58Z</time>
      </trkpt>
      <trkpt lat="45.75421" lon="4.84611">
        <ele>176</ele>
        <time>2020-09-16T09:32:59Z</time>
      </trkpt>
      <trkpt lat="45.75437" lon="4.84566">
        <ele>176</ele>
        <time>2020-09-16T09:33:06Z</time>
      </trkpt>
      <trkpt lat="45.75439" lon="4.84559">
        <ele>176</ele>
        <time>2020-09-16T09:33:07Z</time>
      </trkpt>
      <trkpt lat="45.75442" lon="4.8455">
        <ele>176</ele>
        <time>2020-09-16T09:33:08Z</time>
      </trkpt>
      <trkpt lat="45.75446" lon="4.84539">
        <ele>176</ele>
        <time>2020-09-16T09:33:09Z</time>
      </trkpt>
      <trkpt lat="45.75451" lon="4.84524">
        <ele>176</ele>
        <time>2020-09-16T09:33:11Z</time>
      </trkpt>
      <trkpt lat="45.75454" lon="4.84516">
        <ele>176</ele>
        <time>2020-09-16T09:33:12Z</time>
      </trkpt>
      <trkpt lat="45.75503" lon="4.84375">
        <ele>178</ele>
        <time>2020-09-16T09:33:32Z</time>
      </trkpt>
      <trkpt lat="45.75509" lon="4.84357">
        <ele>177</ele>
        <time>2020-09-16T09:33:35Z</time>
      </trkpt>
      <trkpt lat="45.75511" lon="4.84352">
        <ele>177</ele>
        <time>2020-09-16T09:33:35Z</time>
      </trkpt>
      <trkpt lat="45.75515" lon="4.84343">
        <ele>177</ele>
        <time>2020-09-16T09:33:37Z</time>
      </trkpt>
      <trkpt lat="45.75519" lon="4.8433">
        <ele>176</ele>
        <time>2020-09-16T09:33:38Z</time>
      </trkpt>
      <trkpt lat="45.7552" lon="4.84327">
        <ele>177</ele>
        <time>2020-09-16T09:33:39Z</time>
      </trkpt>
      <trkpt lat="45.75522" lon="4.84321">
        <ele>177</ele>
        <time>2020-09-16T09:33:40Z</time>
      </trkpt>
      <trkpt lat="45.7553" lon="4.84297">
        <ele>177</ele>
        <time>2020-09-16T09:33:43Z</time>
      </trkpt>
      <trkpt lat="45.75538" lon="4.84284">
        <ele>177</ele>
        <time>2020-09-16T09:33:45Z</time>
      </trkpt>
      <trkpt lat="45.7554" lon="4.8428">
        <ele>177</ele>
        <time>2020-09-16T09:33:46Z</time>
      </trkpt>
      <trkpt lat="45.75542" lon="4.84274">
        <ele>177</ele>
        <time>2020-09-16T09:33:46Z</time>
      </trkpt>
      <trkpt lat="45.75543" lon="4.8427">
        <ele>177</ele>
        <time>2020-09-16T09:33:47Z</time>
      </trkpt>
      <trkpt lat="45.75544" lon="4.84267">
        <ele>177</ele>
        <time>2020-09-16T09:33:47Z</time>
      </trkpt>
      <trkpt lat="45.75566" lon="4.84204">
        <ele>180</ele>
        <time>2020-09-16T09:33:56Z</time>
      </trkpt>
      <trkpt lat="45.75572" lon="4.84185">
        <ele>182</ele>
        <time>2020-09-16T09:33:59Z</time>
      </trkpt>
      <trkpt lat="45.75573" lon="4.84183">
        <ele>182</ele>
        <time>2020-09-16T09:33:59Z</time>
      </trkpt>
      <trkpt lat="45.75573" lon="4.84183">
        <ele>182</ele>
        <time>2020-09-16T09:33:59Z</time>
      </trkpt>
      <trkpt lat="45.75576" lon="4.84174">
        <ele>183</ele>
        <time>2020-09-16T09:34:00Z</time>
      </trkpt>
      <trkpt lat="45.75601" lon="4.84099">
        <ele>178</ele>
        <time>2020-09-16T09:34:11Z</time>
      </trkpt>
      <trkpt lat="45.75603" lon="4.84095">
        <ele>178</ele>
        <time>2020-09-16T09:34:11Z</time>
      </trkpt>
      <trkpt lat="45.75605" lon="4.84087">
        <ele>178</ele>
        <time>2020-09-16T09:34:12Z</time>
      </trkpt>
      <trkpt lat="45.75616" lon="4.84056">
        <ele>175</ele>
        <time>2020-09-16T09:34:17Z</time>
      </trkpt>
      <trkpt lat="45.75618" lon="4.84051">
        <ele>175</ele>
        <time>2020-09-16T09:34:17Z</time>
      </trkpt>
      <trkpt lat="45.75619" lon="4.84048">
        <ele>175</ele>
        <time>2020-09-16T09:34:18Z</time>
      </trkpt>
      <trkpt lat="45.75624" lon="4.84035">
        <ele>173</ele>
        <time>2020-09-16T09:34:20Z</time>
      </trkpt>
      <trkpt lat="45.7563" lon="4.8402">
        <ele>172</ele>
        <time>2020-09-16T09:34:22Z</time>
      </trkpt>
      <trkpt lat="45.75648" lon="4.8396">
        <ele>168</ele>
        <time>2020-09-16T09:34:30Z</time>
      </trkpt>
      <trkpt lat="45.75718" lon="4.83717">
        <ele>167</ele>
        <time>2020-09-16T09:35:02Z</time>
      </trkpt>
      <trkpt lat="45.75722" lon="4.8369">
        <ele>168</ele>
        <time>2020-09-16T09:35:06Z</time>
      </trkpt>
      <trkpt lat="45.75735" lon="4.83634">
        <ele>174</ele>
        <time>2020-09-16T09:35:13Z</time>
      </trkpt>
      <trkpt lat="45.75804" lon="4.8338">
        <ele>177</ele>
        <time>2020-09-16T09:35:47Z</time>
      </trkpt>
      <trkpt lat="45.75809" lon="4.83383">
        <ele>178</ele>
        <time>2020-09-16T09:35:48Z</time>
      </trkpt>
      <trkpt lat="45.75822" lon="4.83389">
        <ele>178</ele>
        <time>2020-09-16T09:35:50Z</time>
      </trkpt>
      <trkpt lat="45.75823" lon="4.83389">
        <ele>178</ele>
        <time>2020-09-16T09:35:51Z</time>
      </trkpt>
      <trkpt lat="45.75825" lon="4.8339">
        <ele>178</ele>
        <time>2020-09-16T09:35:51Z</time>
      </trkpt>
      <trkpt lat="45.7587" lon="4.83391">
        <ele>180</ele>
        <time>2020-09-16T09:35:59Z</time>
      </trkpt>
      <trkpt lat="45.7587" lon="4.83391">
        <ele>180</ele>
        <time>2020-09-16T09:35:59Z</time>
      </trkpt>
      <trkpt lat="45.75874" lon="4.83391">
        <ele>180</ele>
        <time>2020-09-16T09:36:00Z</time>
      </trkpt>
      <trkpt lat="45.75878" lon="4.83391">
        <ele>180</ele>
        <time>2020-09-16T09:36:00Z</time>
      </trkpt>
      <trkpt lat="45.75935" lon="4.83395">
        <ele>182</ele>
        <time>2020-09-16T09:36:11Z</time>
      </trkpt>
      <trkpt lat="45.75939" lon="4.83395">
        <ele>182</ele>
        <time>2020-09-16T09:36:11Z</time>
      </trkpt>
      <trkpt lat="45.75945" lon="4.83395">
        <ele>182</ele>
        <time>2020-09-16T09:36:12Z</time>
      </trkpt>
      <trkpt lat="45.76014" lon="4.83401">
        <ele>182</ele>
        <time>2020-09-16T09:36:25Z</time>
      </trkpt>
      <trkpt lat="45.76018" lon="4.83401">
        <ele>182</ele>
        <time>2020-09-16T09:36:25Z</time>
      </trkpt>
      <trkpt lat="45.76019" lon="4.83401">
        <ele>182</ele>
        <time>2020-09-16T09:36:26Z</time>
      </trkpt>
      <trkpt lat="45.76022" lon="4.834">
        <ele>182</ele>
        <time>2020-09-16T09:36:26Z</time>
      </trkpt>
      <trkpt lat="45.76027" lon="4.83401">
        <ele>181</ele>
        <time>2020-09-16T09:36:27Z</time>
      </trkpt>
      <trkpt lat="45.76051" lon="4.83402">
        <ele>181</ele>
        <time>2020-09-16T09:36:31Z</time>
      </trkpt>
      <trkpt lat="45.76065" lon="4.83403">
        <ele>180</ele>
        <time>2020-09-16T09:36:34Z</time>
      </trkpt>
      <trkpt lat="45.76073" lon="4.83404">
        <ele>180</ele>
        <time>2020-09-16T09:36:35Z</time>
      </trkpt>
      <trkpt lat="45.76078" lon="4.83404">
        <ele>180</ele>
        <time>2020-09-16T09:36:36Z</time>
      </trkpt>
      <trkpt lat="45.7608" lon="4.83404">
        <ele>180</ele>
        <time>2020-09-16T09:36:36Z</time>
      </trkpt>
      <trkpt lat="45.76114" lon="4.83406">
        <ele>182</ele>
        <time>2020-09-16T09:36:42Z</time>
      </trkpt>
      <trkpt lat="45.7616" lon="4.83408">
        <ele>185</ele>
        <time>2020-09-16T09:36:51Z</time>
      </trkpt>
      <trkpt lat="45.76166" lon="4.83409">
        <ele>186</ele>
        <time>2020-09-16T09:36:52Z</time>
      </trkpt>
      <trkpt lat="45.76337" lon="4.83419">
        <ele>183</ele>
        <time>2020-09-16T09:37:22Z</time>
      </trkpt>
      <trkpt lat="45.76342" lon="4.83419">
        <ele>183</ele>
        <time>2020-09-16T09:37:23Z</time>
      </trkpt>
      <trkpt lat="45.76351" lon="4.8342">
        <ele>183</ele>
        <time>2020-09-16T09:37:25Z</time>
      </trkpt>
      <trkpt lat="45.76376" lon="4.83421">
        <ele>183</ele>
        <time>2020-09-16T09:37:29Z</time>
      </trkpt>
      <trkpt lat="45.76381" lon="4.83422">
        <ele>184</ele>
        <time>2020-09-16T09:37:30Z</time>
      </trkpt>
      <trkpt lat="45.76378" lon="4.83321">
        <ele>184</ele>
        <time>2020-09-16T09:37:43Z</time>
      </trkpt>
      <trkpt lat="45.76378" lon="4.83258">
        <ele>179</ele>
        <time>2020-09-16T09:37:50Z</time>
      </trkpt>
      <trkpt lat="45.76473" lon="4.83235">
        <ele>179</ele>
        <time>2020-09-16T09:38:08Z</time>
      </trkpt>
      <trkpt lat="45.76528" lon="4.8323">
        <ele>182</ele>
        <time>2020-09-16T09:38:17Z</time>
      </trkpt>
      <trkpt lat="45.76528" lon="4.83213">
        <ele>181</ele>
        <time>2020-09-16T09:38:19Z</time>
      </trkpt>
      <trkpt lat="45.76602" lon="4.83188">
        <ele>185</ele>
        <time>2020-09-16T09:38:33Z</time>
      </trkpt>
      <trkpt lat="45.76643" lon="4.8318">
        <ele>186</ele>
        <time>2020-09-16T09:38:40Z</time>
      </trkpt>
      <trkpt lat="45.76699" lon="4.8318">
        <ele>186</ele>
        <time>2020-09-16T09:38:50Z</time>
      </trkpt>
      <trkpt lat="45.76743" lon="4.83159">
        <ele>185</ele>
        <time>2020-09-16T09:38:59Z</time>
      </trkpt>
      <trkpt lat="45.76752" lon="4.83207">
        <ele>185</ele>
        <time>2020-09-16T09:39:05Z</time>
      </trkpt>
      <trkpt lat="45.76755" lon="4.83211">
        <ele>185</ele>
        <time>2020-09-16T09:39:05Z</time>
      </trkpt>
      <trkpt lat="45.76808" lon="4.83203">
        <ele>186</ele>
        <time>2020-09-16T09:39:15Z</time>
      </trkpt>
      <trkpt lat="45.76815" lon="4.832">
        <ele>186</ele>
        <time>2020-09-16T09:39:16Z</time>
      </trkpt>
      <trkpt lat="45.7683" lon="4.83196">
        <ele>187</ele>
        <time>2020-09-16T09:39:19Z</time>
      </trkpt>
      <trkpt lat="45.76883" lon="4.83173">
        <ele>192</ele>
        <time>2020-09-16T09:39:29Z</time>
      </trkpt>
      <trkpt lat="45.76894" lon="4.83165">
        <ele>192</ele>
        <time>2020-09-16T09:39:31Z</time>
      </trkpt>
      <trkpt lat="45.76947" lon="4.83127">
        <ele>194</ele>
        <time>2020-09-16T09:39:42Z</time>
      </trkpt>
      <trkpt lat="45.76962" lon="4.83113">
        <ele>194</ele>
        <time>2020-09-16T09:39:45Z</time>
      </trkpt>
      <trkpt lat="45.76964" lon="4.83097">
        <ele>193</ele>
        <time>2020-09-16T09:39:47Z</time>
      </trkpt>
      <trkpt lat="45.76964" lon="4.82954">
        <ele>192</ele>
        <time>2020-09-16T09:40:05Z</time>
      </trkpt>
      <trkpt lat="45.76967" lon="4.82944">
        <ele>192</ele>
        <time>2020-09-16T09:40:06Z</time>
      </trkpt>
      <trkpt lat="45.76985" lon="4.8293">
        <ele>195</ele>
        <time>2020-09-16T09:40:09Z</time>
      </trkpt>
      <trkpt lat="45.76995" lon="4.82967">
        <ele>195</ele>
        <time>2020-09-16T09:40:14Z</time>
      </trkpt>
      <trkpt lat="45.77011" lon="4.83076">
        <ele>197</ele>
        <time>2020-09-16T09:40:28Z</time>
      </trkpt>
      <trkpt lat="45.77019" lon="4.83083">
        <ele>198</ele>
        <time>2020-09-16T09:40:30Z</time>
      </trkpt>
      <trkpt lat="45.77026" lon="4.83083">
        <ele>199</ele>
        <time>2020-09-16T09:40:31Z</time>
      </trkpt>
      <trkpt lat="45.77031" lon="4.83076">
        <ele>200</ele>
        <time>2020-09-16T09:40:32Z</time>
      </trkpt>
      <trkpt lat="45.77033" lon="4.83065">
        <ele>201</ele>
        <time>2020-09-16T09:40:34Z</time>
      </trkpt>
      <trkpt lat="45.77034" lon="4.82959">
        <ele>201</ele>
        <time>2020-09-16T09:40:47Z</time>
      </trkpt>
      <trkpt lat="45.77038" lon="4.82934">
        <ele>202</ele>
        <time>2020-09-16T09:40:50Z</time>
      </trkpt>
      <trkpt lat="45.77049" lon="4.82908">
        <ele>205</ele>
        <time>2020-09-16T09:40:54Z</time>
      </trkpt>
      <trkpt lat="45.77069" lon="4.82882">
        <ele>210</ele>
        <time>2020-09-16T09:40:59Z</time>
      </trkpt>
      <trkpt lat="45.77147" lon="4.82809">
        <ele>222</ele>
        <time>2020-09-16T09:41:15Z</time>
      </trkpt>
      <trkpt lat="45.77155" lon="4.82797">
        <ele>223</ele>
        <time>2020-09-16T09:41:17Z</time>
      </trkpt>
      <trkpt lat="45.77187" lon="4.82709">
        <ele>226</ele>
        <time>2020-09-16T09:41:30Z</time>
      </trkpt>
      <trkpt lat="45.77195" lon="4.82691">
        <ele>227</ele>
        <time>2020-09-16T09:41:32Z</time>
      </trkpt>
      <trkpt lat="45.7719" lon="4.8268">
        <ele>226</ele>
        <time>2020-09-16T09:41:34Z</time>
      </trkpt>
      <trkpt lat="45.77187" lon="4.82659">
        <ele>225</ele>
        <time>2020-09-16T09:41:37Z</time>
      </trkpt>
      <trkpt lat="45.77199" lon="4.82324">
        <ele>243</ele>
        <time>2020-09-16T09:42:18Z</time>
      </trkpt>
      <trkpt lat="45.77201" lon="4.82317">
        <ele>243</ele>
        <time>2020-09-16T09:42:19Z</time>
      </trkpt>
      <trkpt lat="45.77211" lon="4.82292">
        <ele>244</ele>
        <time>2020-09-16T09:42:23Z</time>
      </trkpt>
      <trkpt lat="45.77263" lon="4.82188">
        <ele>246</ele>
        <time>2020-09-16T09:42:39Z</time>
      </trkpt>
    </trkseg>
  </trk>
</gpx>